<?xml version='1.0' encoding='UTF-8'?><gpx version="1.1" creator="JPX - https://github.com/jenetics/jpx" xmlns="http://www.topografix.com/GPX/1/1"><trk><trkseg><trkpt lat="39.56022012312997" lon="8.897379178548878"><ele>127.0</ele><time>2026-04-25T12:05:03Z</time></trkpt><trkpt lat="39.56018307578372" lon="8.897493246002972"><ele>126.99999999999999</ele><time>2026-04-25T12:05:05Z</time></trkpt><trkpt lat="39.56012703660213" lon="8.897611541859213"><ele>126.99999999999999</ele><time>2026-04-25T12:05:07Z</time></trkpt><trkpt lat="39.560077849837974" lon="8.897751877624291"><ele>127.0</ele><time>2026-04-25T12:05:09Z</time></trkpt><trkpt lat="39.560139154360655" lon="8.897883429603201"><ele>127.0</ele><time>2026-04-25T12:05:11Z</time></trkpt><trkpt lat="39.56024584351605" lon="8.897958399509555"><ele>126.83333333333334</ele><time>2026-04-25T12:05:13Z</time></trkpt><trkpt lat="39.56034525403843" lon="8.898013924389252"><ele>126.66666666666667</ele><time>2026-04-25T12:05:15Z</time></trkpt><trkpt lat="39.560418185036966" lon="8.898052308940464"><ele>126.5</ele><time>2026-04-25T12:05:17Z</time></trkpt><trkpt lat="39.5604727017752" lon="8.898105880983678"><ele>126.33333333333334</ele><time>2026-04-25T12:05:19Z</time></trkpt><trkpt lat="39.56053687681338" lon="8.89824609568644"><ele>126.16666666666667</ele><time>2026-04-25T12:05:21Z</time></trkpt><trkpt lat="39.56058620178298" lon="8.898303819130778"><ele>126.0</ele><time>2026-04-25T12:05:22Z</time></trkpt><trkpt lat="39.560633823795406" lon="8.898363686996195"><ele>126.83333333333333</ele><time>2026-04-25T12:05:23Z</time></trkpt><trkpt lat="39.56068247318889" lon="8.898430587194618"><ele>127.66666666666666</ele><time>2026-04-25T12:05:24Z</time></trkpt><trkpt lat="39.560737875442484" lon="8.898500002412792"><ele>128.5</ele><time>2026-04-25T12:05:25Z</time></trkpt><trkpt lat="39.56079389120493" lon="8.89856492743249"><ele>129.33333333333331</ele><time>2026-04-25T12:05:26Z</time></trkpt><trkpt lat="39.56085712374115" lon="8.898639524538963"><ele>130.16666666666666</ele><time>2026-04-25T12:05:27Z</time></trkpt><trkpt lat="39.56091989672756" lon="8.898706981644345"><ele>131.0</ele><time>2026-04-25T12:05:28Z</time></trkpt><trkpt lat="39.56098395181925" lon="8.898763528787693"><ele>131.0</ele><time>2026-04-25T12:05:29Z</time></trkpt><trkpt lat="39.56105574551971" lon="8.89881059984541"><ele>131.0</ele><time>2026-04-25T12:05:30Z</time></trkpt><trkpt lat="39.561120336203125" lon="8.898856500524204"><ele>131.0</ele><time>2026-04-25T12:05:31Z</time></trkpt><trkpt lat="39.56120147118948" lon="8.898904913420829"><ele>131.0</ele><time>2026-04-25T12:05:32Z</time></trkpt><trkpt lat="39.561275418728734" lon="8.898951502050817"><ele>131.0</ele><time>2026-04-25T12:05:33Z</time></trkpt><trkpt lat="39.56135000068884" lon="8.898997487041846"><ele>131.0</ele><time>2026-04-25T12:05:34Z</time></trkpt><trkpt lat="39.56141821776057" lon="8.899037697515968"><ele>131.66666666666666</ele><time>2026-04-25T12:05:35Z</time></trkpt><trkpt lat="39.561473387101906" lon="8.89907783026481"><ele>132.33333333333331</ele><time>2026-04-25T12:05:36Z</time></trkpt><trkpt lat="39.561555351897475" lon="8.899151678258615"><ele>133.0</ele><time>2026-04-25T12:05:38Z</time></trkpt><trkpt lat="39.56163326354842" lon="8.899230720164248"><ele>133.66666666666666</ele><time>2026-04-25T12:05:40Z</time></trkpt><trkpt lat="39.56169562268871" lon="8.89924768521828"><ele>134.33333333333334</ele><time>2026-04-25T12:05:41Z</time></trkpt><trkpt lat="39.561769874457624" lon="8.899249114059335"><ele>135.0</ele><time>2026-04-25T12:05:42Z</time></trkpt><trkpt lat="39.5618464350314" lon="8.899252392051748"><ele>135.0</ele><time>2026-04-25T12:05:43Z</time></trkpt><trkpt lat="39.561923574816724" lon="8.899276228281874"><ele>135.0</ele><time>2026-04-25T12:05:44Z</time></trkpt><trkpt lat="39.5620015177158" lon="8.899316412516546"><ele>135.0</ele><time>2026-04-25T12:05:45Z</time></trkpt><trkpt lat="39.56206404200639" lon="8.899343311738038"><ele>135.0</ele><time>2026-04-25T12:05:46Z</time></trkpt><trkpt lat="39.562150078030314" lon="8.899384614004559"><ele>135.0</ele><time>2026-04-25T12:05:48Z</time></trkpt><trkpt lat="39.56219257990438" lon="8.899466424575788"><ele>135.0</ele><time>2026-04-25T12:05:50Z</time></trkpt><trkpt lat="39.562182649698585" lon="8.8995908125597"><ele>136.0</ele><time>2026-04-25T12:05:52Z</time></trkpt><trkpt lat="39.56215742911283" lon="8.899730364705565"><ele>137.0</ele><time>2026-04-25T12:05:54Z</time></trkpt><trkpt lat="39.56212677257844" lon="8.899887078958233"><ele>138.0</ele><time>2026-04-25T12:05:56Z</time></trkpt><trkpt lat="39.56208997725981" lon="8.90002888348406"><ele>139.0</ele><time>2026-04-25T12:05:58Z</time></trkpt><trkpt lat="39.56205508968729" lon="8.900163330912054"><ele>138.4</ele><time>2026-04-25T12:06:00Z</time></trkpt><trkpt lat="39.562019215191675" lon="8.900294603757667"><ele>137.8</ele><time>2026-04-25T12:06:02Z</time></trkpt><trkpt lat="39.56198512491141" lon="8.900436585588853"><ele>137.2</ele><time>2026-04-25T12:06:04Z</time></trkpt><trkpt lat="39.56195443453761" lon="8.900579363998416"><ele>136.6</ele><time>2026-04-25T12:06:06Z</time></trkpt><trkpt lat="39.561914833777635" lon="8.900709201537806"><ele>136.0</ele><time>2026-04-25T12:06:08Z</time></trkpt><trkpt lat="39.56187912467116" lon="8.90084679624806"><ele>136.25</ele><time>2026-04-25T12:06:10Z</time></trkpt><trkpt lat="39.561845271004344" lon="8.900991261225844"><ele>136.5</ele><time>2026-04-25T12:06:12Z</time></trkpt><trkpt lat="39.56180715705496" lon="8.901133725807375"><ele>136.75</ele><time>2026-04-25T12:06:14Z</time></trkpt><trkpt lat="39.56176683679058" lon="8.901278042917129"><ele>137.0</ele><time>2026-04-25T12:06:16Z</time></trkpt><trkpt lat="39.56172603870865" lon="8.901426266270514"><ele>137.0</ele><time>2026-04-25T12:06:18Z</time></trkpt><trkpt lat="39.561689633717606" lon="8.90157712908172"><ele>137.0</ele><time>2026-04-25T12:06:20Z</time></trkpt><trkpt lat="39.561665071642196" lon="8.901652695439893"><ele>137.0</ele><time>2026-04-25T12:06:21Z</time></trkpt><trkpt lat="39.56163801419653" lon="8.901789476931324"><ele>137.0</ele><time>2026-04-25T12:06:23Z</time></trkpt><trkpt lat="39.561580369976845" lon="8.901898266345432"><ele>137.0</ele><time>2026-04-25T12:06:25Z</time></trkpt><trkpt lat="39.5615478232371" lon="8.901975712642548"><ele>137.33333333333331</ele><time>2026-04-25T12:06:28Z</time></trkpt><trkpt lat="39.56151337029" lon="8.902052164325731"><ele>137.66666666666666</ele><time>2026-04-25T12:06:30Z</time></trkpt><trkpt lat="39.561500214943464" lon="8.90216823889243"><ele>138.0</ele><time>2026-04-25T12:06:32Z</time></trkpt><trkpt lat="39.561511396576016" lon="8.902316490348618"><ele>138.33333333333334</ele><time>2026-04-25T12:06:34Z</time></trkpt><trkpt lat="39.561517963508074" lon="8.902399079980281"><ele>138.66666666666669</ele><time>2026-04-25T12:06:35Z</time></trkpt><trkpt lat="39.561523790232165" lon="8.90248165528038"><ele>139.0</ele><time>2026-04-25T12:06:36Z</time></trkpt><trkpt lat="39.56153082849613" lon="8.902638975567305"><ele>139.25</ele><time>2026-04-25T12:06:38Z</time></trkpt><trkpt lat="39.56150896141357" lon="8.902781693371413"><ele>139.5</ele><time>2026-04-25T12:06:40Z</time></trkpt><trkpt lat="39.561458685982664" lon="8.902909444530788"><ele>139.75</ele><time>2026-04-25T12:06:42Z</time></trkpt><trkpt lat="39.56140155876242" lon="8.903038613812697"><ele>140.0</ele><time>2026-04-25T12:06:44Z</time></trkpt><trkpt lat="39.5613522624538" lon="8.903178010223128"><ele>140.0</ele><time>2026-04-25T12:06:46Z</time></trkpt><trkpt lat="39.56128640960795" lon="8.903285742038273"><ele>140.0</ele><time>2026-04-25T12:06:48Z</time></trkpt><trkpt lat="39.56125513893402" lon="8.903359863788804"><ele>140.0</ele><time>2026-04-25T12:06:51Z</time></trkpt><trkpt lat="39.56122332539009" lon="8.90343447651926"><ele>140.0</ele><time>2026-04-25T12:06:56Z</time></trkpt><trkpt lat="39.56130636900729" lon="8.903562826278703"><ele>140.0</ele><time>2026-04-25T12:07:01Z</time></trkpt><trkpt lat="39.56137643950263" lon="8.903583588088354"><ele>140.0</ele><time>2026-04-25T12:07:04Z</time></trkpt><trkpt lat="39.561421819065" lon="8.903652036370286"><ele>139.8</ele><time>2026-04-25T12:07:07Z</time></trkpt><trkpt lat="39.56143068354932" lon="8.903762103546862"><ele>139.6</ele><time>2026-04-25T12:07:09Z</time></trkpt><trkpt lat="39.561410956839765" lon="8.90390671740313"><ele>139.4</ele><time>2026-04-25T12:07:11Z</time></trkpt><trkpt lat="39.56139257007457" lon="8.904058749189774"><ele>139.2</ele><time>2026-04-25T12:07:13Z</time></trkpt><trkpt lat="39.561372410371575" lon="8.904213117187869"><ele>139.0</ele><time>2026-04-25T12:07:15Z</time></trkpt><trkpt lat="39.56136382102324" lon="8.904305980772477"><ele>138.66666666666669</ele><time>2026-04-25T12:07:16Z</time></trkpt><trkpt lat="39.56135884176518" lon="8.90439814744966"><ele>138.33333333333334</ele><time>2026-04-25T12:07:17Z</time></trkpt><trkpt lat="39.56134851665147" lon="8.904496738461697"><ele>138.0</ele><time>2026-04-25T12:07:18Z</time></trkpt><trkpt lat="39.561335350801606" lon="8.904600275535671"><ele>137.66666666666666</ele><time>2026-04-25T12:07:19Z</time></trkpt><trkpt lat="39.56132028578103" lon="8.904707982479538"><ele>137.33333333333331</ele><time>2026-04-25T12:07:20Z</time></trkpt><trkpt lat="39.56130544960332" lon="8.9048208148171"><ele>137.0</ele><time>2026-04-25T12:07:21Z</time></trkpt><trkpt lat="39.561290560285606" lon="8.904939214072755"><ele>137.0</ele><time>2026-04-25T12:07:22Z</time></trkpt><trkpt lat="39.561275773971815" lon="8.905054814847727"><ele>137.0</ele><time>2026-04-25T12:07:23Z</time></trkpt><trkpt lat="39.56126261516391" lon="8.905174561031947"><ele>137.0</ele><time>2026-04-25T12:07:24Z</time></trkpt><trkpt lat="39.56124867303307" lon="8.905303270738269"><ele>137.0</ele><time>2026-04-25T12:07:25Z</time></trkpt><trkpt lat="39.561231989773646" lon="8.905437751250965"><ele>137.0</ele><time>2026-04-25T12:07:26Z</time></trkpt><trkpt lat="39.561216024137806" lon="8.905578125263053"><ele>136.2</ele><time>2026-04-25T12:07:27Z</time></trkpt><trkpt lat="39.561202742492256" lon="8.905720055983801"><ele>135.39999999999998</ele><time>2026-04-25T12:07:28Z</time></trkpt><trkpt lat="39.56118810621873" lon="8.905857215743241"><ele>134.60000000000002</ele><time>2026-04-25T12:07:29Z</time></trkpt><trkpt lat="39.56117411633927" lon="8.905992521347631"><ele>133.8</ele><time>2026-04-25T12:07:30Z</time></trkpt><trkpt lat="39.56116206545299" lon="8.90612869044066"><ele>133.0</ele><time>2026-04-25T12:07:31Z</time></trkpt><trkpt lat="39.56114708040776" lon="8.906261228027525"><ele>132.6</ele><time>2026-04-25T12:07:32Z</time></trkpt><trkpt lat="39.56113040456539" lon="8.90638616023799"><ele>132.20000000000002</ele><time>2026-04-25T12:07:33Z</time></trkpt><trkpt lat="39.56111684770593" lon="8.906511976637892"><ele>131.8</ele><time>2026-04-25T12:07:34Z</time></trkpt><trkpt lat="39.56110322587824" lon="8.906638747870156"><ele>131.4</ele><time>2026-04-25T12:07:35Z</time></trkpt><trkpt lat="39.56108887167564" lon="8.906756958007982"><ele>131.0</ele><time>2026-04-25T12:07:36Z</time></trkpt><trkpt lat="39.56108099403769" lon="8.906868774335107"><ele>130.5</ele><time>2026-04-25T12:07:37Z</time></trkpt><trkpt lat="39.56106862133512" lon="8.906969567477454"><ele>130.0</ele><time>2026-04-25T12:07:38Z</time></trkpt><trkpt lat="39.56105641516544" lon="8.907065536414692"><ele>129.5</ele><time>2026-04-25T12:07:39Z</time></trkpt><trkpt lat="39.56104531689861" lon="8.907164174925091"><ele>129.0</ele><time>2026-04-25T12:07:40Z</time></trkpt><trkpt lat="39.561038548938114" lon="8.907268009683795"><ele>128.5</ele><time>2026-04-25T12:07:41Z</time></trkpt><trkpt lat="39.56103567191348" lon="8.907373217311815"><ele>128.0</ele><time>2026-04-25T12:07:42Z</time></trkpt><trkpt lat="39.561010771992606" lon="8.907500412619566"><ele>127.80000000000001</ele><time>2026-04-25T12:07:43Z</time></trkpt><trkpt lat="39.560998478659116" lon="8.907623510194135"><ele>127.60000000000001</ele><time>2026-04-25T12:07:44Z</time></trkpt><trkpt lat="39.56098150113817" lon="8.907747881652309"><ele>127.39999999999999</ele><time>2026-04-25T12:07:45Z</time></trkpt><trkpt lat="39.560968837549346" lon="8.907878040760925"><ele>127.19999999999999</ele><time>2026-04-25T12:07:46Z</time></trkpt><trkpt lat="39.56095424737361" lon="8.908016401493535"><ele>127.0</ele><time>2026-04-25T12:07:47Z</time></trkpt><trkpt lat="39.560940329809824" lon="8.908164270663121"><ele>127.0</ele><time>2026-04-25T12:07:48Z</time></trkpt><trkpt lat="39.56092778900611" lon="8.908317915406347"><ele>127.0</ele><time>2026-04-25T12:07:49Z</time></trkpt><trkpt lat="39.56091268903185" lon="8.90847647433354"><ele>127.0</ele><time>2026-04-25T12:07:50Z</time></trkpt><trkpt lat="39.56089354287417" lon="8.908635442605215"><ele>127.0</ele><time>2026-04-25T12:07:51Z</time></trkpt><trkpt lat="39.560873406202255" lon="8.908797801324958"><ele>126.75</ele><time>2026-04-25T12:07:52Z</time></trkpt><trkpt lat="39.56085114735109" lon="8.908955961200684"><ele>126.5</ele><time>2026-04-25T12:07:53Z</time></trkpt><trkpt lat="39.56083327571723" lon="8.909109697564359"><ele>126.25</ele><time>2026-04-25T12:07:54Z</time></trkpt><trkpt lat="39.560815104258154" lon="8.909268915440972"><ele>126.0</ele><time>2026-04-25T12:07:55Z</time></trkpt><trkpt lat="39.56079427286445" lon="8.909429336550444"><ele>126.75</ele><time>2026-04-25T12:07:56Z</time></trkpt><trkpt lat="39.56076106083802" lon="8.909593494203014"><ele>127.5</ele><time>2026-04-25T12:07:57Z</time></trkpt><trkpt lat="39.560701757720146" lon="8.909745806828484"><ele>128.25</ele><time>2026-04-25T12:07:58Z</time></trkpt><trkpt lat="39.56064513080184" lon="8.909896233391853"><ele>129.0</ele><time>2026-04-25T12:07:59Z</time></trkpt><trkpt lat="39.56055838773279" lon="8.910025728026502"><ele>128.5</ele><time>2026-04-25T12:08:00Z</time></trkpt><trkpt lat="39.560471952059494" lon="8.91015493337252"><ele>128.0</ele><time>2026-04-25T12:08:01Z</time></trkpt><trkpt lat="39.560382768223725" lon="8.910278948664388"><ele>127.5</ele><time>2026-04-25T12:08:02Z</time></trkpt><trkpt lat="39.56029823198872" lon="8.910397443134697"><ele>127.0</ele><time>2026-04-25T12:08:03Z</time></trkpt><trkpt lat="39.56022652820342" lon="8.910516467625078"><ele>127.0</ele><time>2026-04-25T12:08:04Z</time></trkpt><trkpt lat="39.56013954728688" lon="8.910615550404389"><ele>127.0</ele><time>2026-04-25T12:08:05Z</time></trkpt><trkpt lat="39.56005832677028" lon="8.910733428651618"><ele>127.0</ele><time>2026-04-25T12:08:06Z</time></trkpt><trkpt lat="39.5599715817765" lon="8.910853139638288"><ele>127.0</ele><time>2026-04-25T12:08:07Z</time></trkpt><trkpt lat="39.55988006508767" lon="8.910974070861439"><ele>127.0</ele><time>2026-04-25T12:08:08Z</time></trkpt><trkpt lat="39.55978807395805" lon="8.911097334785156"><ele>127.0</ele><time>2026-04-25T12:08:09Z</time></trkpt><trkpt lat="39.55968996874037" lon="8.9112179576543"><ele>127.0</ele><time>2026-04-25T12:08:10Z</time></trkpt><trkpt lat="39.55958847279939" lon="8.911340490546415"><ele>127.0</ele><time>2026-04-25T12:08:11Z</time></trkpt><trkpt lat="39.55948346192628" lon="8.911462116682763"><ele>127.0</ele><time>2026-04-25T12:08:12Z</time></trkpt><trkpt lat="39.55938243544154" lon="8.911589067125751"><ele>127.0</ele><time>2026-04-25T12:08:13Z</time></trkpt><trkpt lat="39.5592817828939" lon="8.911717666102485"><ele>127.0</ele><time>2026-04-25T12:08:14Z</time></trkpt><trkpt lat="39.55918669152003" lon="8.911851063481336"><ele>127.0</ele><time>2026-04-25T12:08:15Z</time></trkpt><trkpt lat="39.5590964304053" lon="8.911993965025045"><ele>127.75</ele><time>2026-04-25T12:08:16Z</time></trkpt><trkpt lat="39.55902662221863" lon="8.912152225431333"><ele>128.5</ele><time>2026-04-25T12:08:17Z</time></trkpt><trkpt lat="39.5589874149633" lon="8.912331088472197"><ele>129.25</ele><time>2026-04-25T12:08:18Z</time></trkpt><trkpt lat="39.55896487619556" lon="8.912518556299688"><ele>130.0</ele><time>2026-04-25T12:08:19Z</time></trkpt><trkpt lat="39.55895310270274" lon="8.912703705817876"><ele>130.0</ele><time>2026-04-25T12:08:20Z</time></trkpt><trkpt lat="39.558946926576674" lon="8.91288939027215"><ele>130.0</ele><time>2026-04-25T12:08:21Z</time></trkpt><trkpt lat="39.55894253580295" lon="8.913077319641463"><ele>130.0</ele><time>2026-04-25T12:08:22Z</time></trkpt><trkpt lat="39.55893559704186" lon="8.913263990882093"><ele>130.0</ele><time>2026-04-25T12:08:23Z</time></trkpt><trkpt lat="39.5589253966205" lon="8.913455093347396"><ele>129.33333333333334</ele><time>2026-04-25T12:08:24Z</time></trkpt><trkpt lat="39.55891597081642" lon="8.913648266515931"><ele>128.66666666666666</ele><time>2026-04-25T12:08:25Z</time></trkpt><trkpt lat="39.55890774260324" lon="8.913845323781699"><ele>128.0</ele><time>2026-04-25T12:08:26Z</time></trkpt><trkpt lat="39.55890005325912" lon="8.914052803635453"><ele>128.0</ele><time>2026-04-25T12:08:27Z</time></trkpt><trkpt lat="39.55889349019637" lon="8.914268802076844"><ele>128.0</ele><time>2026-04-25T12:08:28Z</time></trkpt><trkpt lat="39.558870698454236" lon="8.914499279153741"><ele>128.0</ele><time>2026-04-25T12:08:29Z</time></trkpt><trkpt lat="39.55885874611966" lon="8.914741850355071"><ele>128.0</ele><time>2026-04-25T12:08:30Z</time></trkpt><trkpt lat="39.55884667954039" lon="8.91499348062259"><ele>128.0</ele><time>2026-04-25T12:08:31Z</time></trkpt><trkpt lat="39.558834675193026" lon="8.915243813112712"><ele>128.0</ele><time>2026-04-25T12:08:32Z</time></trkpt><trkpt lat="39.55882279718" lon="8.915491511109915"><ele>128.33333333333331</ele><time>2026-04-25T12:08:33Z</time></trkpt><trkpt lat="39.558810890673" lon="8.915739802964266"><ele>128.66666666666666</ele><time>2026-04-25T12:08:34Z</time></trkpt><trkpt lat="39.55880481704467" lon="8.915993213869747"><ele>129.0</ele><time>2026-04-25T12:08:35Z</time></trkpt><trkpt lat="39.55878763380805" lon="8.91624406875225"><ele>129.33333333333334</ele><time>2026-04-25T12:08:36Z</time></trkpt><trkpt lat="39.5587760960947" lon="8.916493628608448"><ele>129.66666666666669</ele><time>2026-04-25T12:08:37Z</time></trkpt><trkpt lat="39.558765659364305" lon="8.916743949096407"><ele>130.0</ele><time>2026-04-25T12:08:38Z</time></trkpt><trkpt lat="39.55875539051226" lon="8.91698831215777"><ele>131.0</ele><time>2026-04-25T12:08:39Z</time></trkpt><trkpt lat="39.5587439793948" lon="8.917230359943403"><ele>132.0</ele><time>2026-04-25T12:08:40Z</time></trkpt><trkpt lat="39.55873161476174" lon="8.917472539384992"><ele>133.0</ele><time>2026-04-25T12:08:41Z</time></trkpt><trkpt lat="39.55871994534967" lon="8.91771467210756"><ele>132.66666666666669</ele><time>2026-04-25T12:08:42Z</time></trkpt><trkpt lat="39.558708435575916" lon="8.917953465288276"><ele>132.33333333333334</ele><time>2026-04-25T12:08:43Z</time></trkpt><trkpt lat="39.558696323323154" lon="8.918193154240644"><ele>132.0</ele><time>2026-04-25T12:08:44Z</time></trkpt><trkpt lat="39.55869143829523" lon="8.918429885334913"><ele>133.0</ele><time>2026-04-25T12:08:45Z</time></trkpt><trkpt lat="39.55870738929264" lon="8.918663570335099"><ele>134.0</ele><time>2026-04-25T12:08:46Z</time></trkpt><trkpt lat="39.55875436581599" lon="8.918892791023124"><ele>135.0</ele><time>2026-04-25T12:08:47Z</time></trkpt><trkpt lat="39.558828706624716" lon="8.91911123259126"><ele>134.66666666666666</ele><time>2026-04-25T12:08:48Z</time></trkpt><trkpt lat="39.55891959357402" lon="8.919323078338525"><ele>134.33333333333331</ele><time>2026-04-25T12:08:49Z</time></trkpt><trkpt lat="39.559011436821635" lon="8.919532518349115"><ele>134.0</ele><time>2026-04-25T12:08:50Z</time></trkpt><trkpt lat="39.55909889018092" lon="8.919748920237932"><ele>134.0</ele><time>2026-04-25T12:08:51Z</time></trkpt><trkpt lat="39.559181553518435" lon="8.919965997126617"><ele>134.0</ele><time>2026-04-25T12:08:52Z</time></trkpt><trkpt lat="39.5592643553816" lon="8.920183890305204"><ele>134.0</ele><time>2026-04-25T12:08:53Z</time></trkpt><trkpt lat="39.55935247348693" lon="8.920398693508588"><ele>134.0</ele><time>2026-04-25T12:08:54Z</time></trkpt><trkpt lat="39.55944961740713" lon="8.920600576539522"><ele>134.0</ele><time>2026-04-25T12:08:55Z</time></trkpt><trkpt lat="39.55956447996619" lon="8.920785077393667"><ele>134.0</ele><time>2026-04-25T12:08:56Z</time></trkpt><trkpt lat="39.559693870177696" lon="8.920954348424429"><ele>132.0</ele><time>2026-04-25T12:08:57Z</time></trkpt><trkpt lat="39.55983145186555" lon="8.921101940685237"><ele>130.0</ele><time>2026-04-25T12:08:58Z</time></trkpt><trkpt lat="39.55997329726878" lon="8.92122349570962"><ele>128.0</ele><time>2026-04-25T12:08:59Z</time></trkpt><trkpt lat="39.56011412705066" lon="8.921339406069228"><ele>128.0</ele><time>2026-04-25T12:09:00Z</time></trkpt><trkpt lat="39.560237130086335" lon="8.921479082488219"><ele>128.0</ele><time>2026-04-25T12:09:01Z</time></trkpt><trkpt lat="39.560353437307626" lon="8.921620679952623"><ele>128.0</ele><time>2026-04-25T12:09:02Z</time></trkpt><trkpt lat="39.56044917850684" lon="8.921789234091515"><ele>127.66666666666666</ele><time>2026-04-25T12:09:03Z</time></trkpt><trkpt lat="39.560528799573966" lon="8.921980600750613"><ele>127.33333333333334</ele><time>2026-04-25T12:09:04Z</time></trkpt><trkpt lat="39.5605870898374" lon="8.922191936340232"><ele>127.0</ele><time>2026-04-25T12:09:05Z</time></trkpt><trkpt lat="39.56062128346975" lon="8.922415531465404"><ele>125.33333333333334</ele><time>2026-04-25T12:09:06Z</time></trkpt><trkpt lat="39.560635485649335" lon="8.92264444255383"><ele>123.66666666666666</ele><time>2026-04-25T12:09:07Z</time></trkpt><trkpt lat="39.56064016546104" lon="8.922873788954945"><ele>122.0</ele><time>2026-04-25T12:09:08Z</time></trkpt><trkpt lat="39.560652979374304" lon="8.923098919028737"><ele>122.0</ele><time>2026-04-25T12:09:09Z</time></trkpt><trkpt lat="39.56066787812671" lon="8.923317370900708"><ele>122.0</ele><time>2026-04-25T12:09:10Z</time></trkpt><trkpt lat="39.56067796176013" lon="8.92353108229396"><ele>122.0</ele><time>2026-04-25T12:09:11Z</time></trkpt><trkpt lat="39.56067193043911" lon="8.923746682629217"><ele>121.33333333333333</ele><time>2026-04-25T12:09:12Z</time></trkpt><trkpt lat="39.56063914456153" lon="8.9239570978954"><ele>120.66666666666666</ele><time>2026-04-25T12:09:13Z</time></trkpt><trkpt lat="39.560582225982046" lon="8.92416023587692"><ele>120.0</ele><time>2026-04-25T12:09:14Z</time></trkpt><trkpt lat="39.56050507731916" lon="8.924359581955045"><ele>120.0</ele><time>2026-04-25T12:09:15Z</time></trkpt><trkpt lat="39.56041616060941" lon="8.92455201592623"><ele>120.0</ele><time>2026-04-25T12:09:16Z</time></trkpt><trkpt lat="39.56032849493825" lon="8.924746653699227"><ele>120.0</ele><time>2026-04-25T12:09:17Z</time></trkpt><trkpt lat="39.56024309119999" lon="8.924947638791327"><ele>117.0</ele><time>2026-04-25T12:09:18Z</time></trkpt><trkpt lat="39.56015742288637" lon="8.925151236303833"><ele>114.0</ele><time>2026-04-25T12:09:19Z</time></trkpt><trkpt lat="39.56006964682122" lon="8.925354201265515"><ele>111.0</ele><time>2026-04-25T12:09:20Z</time></trkpt><trkpt lat="39.55997940884659" lon="8.925557273954924"><ele>111.0</ele><time>2026-04-25T12:09:21Z</time></trkpt><trkpt lat="39.559890521000916" lon="8.92576297845151"><ele>111.0</ele><time>2026-04-25T12:09:22Z</time></trkpt><trkpt lat="39.55980136821793" lon="8.925969470454442"><ele>111.0</ele><time>2026-04-25T12:09:23Z</time></trkpt><trkpt lat="39.5597114231168" lon="8.926177057783347"><ele>109.33333333333334</ele><time>2026-04-25T12:09:24Z</time></trkpt><trkpt lat="39.55962009614889" lon="8.926384899169546"><ele>107.66666666666667</ele><time>2026-04-25T12:09:25Z</time></trkpt><trkpt lat="39.559531723206184" lon="8.92659526598755"><ele>106.0</ele><time>2026-04-25T12:09:26Z</time></trkpt><trkpt lat="39.55945091760638" lon="8.92681341847647"><ele>105.0</ele><time>2026-04-25T12:09:27Z</time></trkpt><trkpt lat="39.559380439778415" lon="8.927039539054693"><ele>104.0</ele><time>2026-04-25T12:09:28Z</time></trkpt><trkpt lat="39.559322634285536" lon="8.927269693456195"><ele>103.0</ele><time>2026-04-25T12:09:29Z</time></trkpt><trkpt lat="39.55927601096061" lon="8.927505050685982"><ele>102.66666666666667</ele><time>2026-04-25T12:09:30Z</time></trkpt><trkpt lat="39.55923392938624" lon="8.927741898943438"><ele>102.33333333333334</ele><time>2026-04-25T12:09:31Z</time></trkpt><trkpt lat="39.55919307894341" lon="8.927974893445878"><ele>102.0</ele><time>2026-04-25T12:09:32Z</time></trkpt><trkpt lat="39.55915007508852" lon="8.928205829205393"><ele>102.66666666666666</ele><time>2026-04-25T12:09:33Z</time></trkpt><trkpt lat="39.55910679421566" lon="8.928437128542996"><ele>103.33333333333333</ele><time>2026-04-25T12:09:34Z</time></trkpt><trkpt lat="39.55906540751573" lon="8.92866860209589"><ele>104.0</ele><time>2026-04-25T12:09:35Z</time></trkpt><trkpt lat="39.5590248332616" lon="8.928900542844351"><ele>104.0</ele><time>2026-04-25T12:09:36Z</time></trkpt><trkpt lat="39.55898309759705" lon="8.92913103024593"><ele>104.0</ele><time>2026-04-25T12:09:37Z</time></trkpt><trkpt lat="39.55894103557826" lon="8.929364278917676"><ele>104.0</ele><time>2026-04-25T12:09:38Z</time></trkpt><trkpt lat="39.55889949140181" lon="8.929591954788684"><ele>105.33333333333333</ele><time>2026-04-25T12:09:39Z</time></trkpt><trkpt lat="39.558856920837066" lon="8.929817424402486"><ele>106.66666666666666</ele><time>2026-04-25T12:09:40Z</time></trkpt><trkpt lat="39.558813657208304" lon="8.930041314903551"><ele>108.0</ele><time>2026-04-25T12:09:41Z</time></trkpt><trkpt lat="39.55877070428665" lon="8.930265487625421"><ele>109.0</ele><time>2026-04-25T12:09:42Z</time></trkpt><trkpt lat="39.55872921685255" lon="8.930489999030913"><ele>110.0</ele><time>2026-04-25T12:09:43Z</time></trkpt><trkpt lat="39.55868733982698" lon="8.930715935030205"><ele>111.0</ele><time>2026-04-25T12:09:44Z</time></trkpt><trkpt lat="39.55864461764632" lon="8.930938772279681"><ele>108.66666666666666</ele><time>2026-04-25T12:09:45Z</time></trkpt><trkpt lat="39.55860184005959" lon="8.93116231541307"><ele>106.33333333333333</ele><time>2026-04-25T12:09:46Z</time></trkpt><trkpt lat="39.558559785630486" lon="8.931393214972319"><ele>104.0</ele><time>2026-04-25T12:09:47Z</time></trkpt><trkpt lat="39.5585178931405" lon="8.931630228463021"><ele>103.0</ele><time>2026-04-25T12:09:48Z</time></trkpt><trkpt lat="39.55847660840665" lon="8.931869254924269"><ele>102.0</ele><time>2026-04-25T12:09:49Z</time></trkpt><trkpt lat="39.558434969165596" lon="8.932110800866607"><ele>101.0</ele><time>2026-04-25T12:09:50Z</time></trkpt><trkpt lat="39.55839142636993" lon="8.932354134030952"><ele>100.0</ele><time>2026-04-25T12:09:51Z</time></trkpt><trkpt lat="39.55834655762204" lon="8.932600511472627"><ele>99.0</ele><time>2026-04-25T12:09:52Z</time></trkpt><trkpt lat="39.55830073941007" lon="8.93284563303387"><ele>98.0</ele><time>2026-04-25T12:09:53Z</time></trkpt><trkpt lat="39.558255045896516" lon="8.93309301100456"><ele>98.0</ele><time>2026-04-25T12:09:54Z</time></trkpt><trkpt lat="39.558209990920176" lon="8.933339496203871"><ele>98.0</ele><time>2026-04-25T12:09:55Z</time></trkpt><trkpt lat="39.5581649665783" lon="8.9335815380818"><ele>98.0</ele><time>2026-04-25T12:09:56Z</time></trkpt><trkpt lat="39.55812075176297" lon="8.933818147001093"><ele>97.33333333333333</ele><time>2026-04-25T12:09:57Z</time></trkpt><trkpt lat="39.55807805144618" lon="8.93405100549392"><ele>96.66666666666666</ele><time>2026-04-25T12:09:58Z</time></trkpt><trkpt lat="39.5580378760764" lon="8.934276685347362"><ele>96.0</ele><time>2026-04-25T12:09:59Z</time></trkpt><trkpt lat="39.557998898328606" lon="8.934502986770806"><ele>95.0</ele><time>2026-04-25T12:10:00Z</time></trkpt><trkpt lat="39.557959757681964" lon="8.934726600353583"><ele>94.0</ele><time>2026-04-25T12:10:01Z</time></trkpt><trkpt lat="39.557918324914674" lon="8.93495108788867"><ele>93.0</ele><time>2026-04-25T12:10:02Z</time></trkpt><trkpt lat="39.557875842540554" lon="8.935175174772024"><ele>92.0</ele><time>2026-04-25T12:10:03Z</time></trkpt><trkpt lat="39.55783307890912" lon="8.935400229909055"><ele>91.0</ele><time>2026-04-25T12:10:04Z</time></trkpt><trkpt lat="39.55779552916323" lon="8.935614799342755"><ele>90.0</ele><time>2026-04-25T12:10:05Z</time></trkpt><trkpt lat="39.557760533637726" lon="8.935820834194406"><ele>90.0</ele><time>2026-04-25T12:10:06Z</time></trkpt><trkpt lat="39.55772877373758" lon="8.936011516131673"><ele>90.0</ele><time>2026-04-25T12:10:07Z</time></trkpt><trkpt lat="39.55769802582158" lon="8.936189667974379"><ele>90.0</ele><time>2026-04-25T12:10:08Z</time></trkpt><trkpt lat="39.55766870501782" lon="8.93634720670259"><ele>90.0</ele><time>2026-04-25T12:10:09Z</time></trkpt><trkpt lat="39.55764237742216" lon="8.936485601453928"><ele>90.0</ele><time>2026-04-25T12:10:10Z</time></trkpt><trkpt lat="39.55761954023199" lon="8.936598012987679"><ele>90.0</ele><time>2026-04-25T12:10:11Z</time></trkpt><trkpt lat="39.557602798826224" lon="8.936680332697618"><ele>90.0</ele><time>2026-04-25T12:10:12Z</time></trkpt><trkpt lat="39.55759570595255" lon="8.936762355053155"><ele>90.0</ele><time>2026-04-25T12:10:14Z</time></trkpt><trkpt lat="39.557559914300434" lon="8.936831367613038"><ele>90.0</ele><time>2026-04-25T12:10:17Z</time></trkpt><trkpt lat="39.55769665974993" lon="8.936998712993288"><ele>90.2</ele><time>2026-04-25T12:10:19Z</time></trkpt><trkpt lat="39.557768796811956" lon="8.937079437975342"><ele>90.4</ele><time>2026-04-25T12:10:20Z</time></trkpt><trkpt lat="39.557847021046484" lon="8.937163107384027"><ele>90.6</ele><time>2026-04-25T12:10:21Z</time></trkpt><trkpt lat="39.557937645739116" lon="8.937240681836446"><ele>90.8</ele><time>2026-04-25T12:10:22Z</time></trkpt><trkpt lat="39.55803799521379" lon="8.93733106587551"><ele>91.0</ele><time>2026-04-25T12:10:23Z</time></trkpt><trkpt lat="39.558145624983965" lon="8.937433144664082"><ele>91.0</ele><time>2026-04-25T12:10:24Z</time></trkpt><trkpt lat="39.55826075461684" lon="8.93754148224548"><ele>91.0</ele><time>2026-04-25T12:10:25Z</time></trkpt><trkpt lat="39.55838154385729" lon="8.93765370300773"><ele>91.0</ele><time>2026-04-25T12:10:26Z</time></trkpt><trkpt lat="39.55850335169102" lon="8.937772963942509"><ele>91.0</ele><time>2026-04-25T12:10:27Z</time></trkpt><trkpt lat="39.558626408491165" lon="8.937899602713708"><ele>91.0</ele><time>2026-04-25T12:10:28Z</time></trkpt><trkpt lat="39.55875590983785" lon="8.938029568999788"><ele>91.0</ele><time>2026-04-25T12:10:29Z</time></trkpt><trkpt lat="39.558892733614776" lon="8.938161435229471"><ele>91.0</ele><time>2026-04-25T12:10:30Z</time></trkpt><trkpt lat="39.559033351741874" lon="8.93829226627096"><ele>91.0</ele><time>2026-04-25T12:10:31Z</time></trkpt><trkpt lat="39.55917973963035" lon="8.938427988380962"><ele>91.0</ele><time>2026-04-25T12:10:32Z</time></trkpt><trkpt lat="39.559326411267655" lon="8.938563665775286"><ele>91.0</ele><time>2026-04-25T12:10:33Z</time></trkpt><trkpt lat="39.55947630673046" lon="8.938699702663428"><ele>92.33333333333333</ele><time>2026-04-25T12:10:34Z</time></trkpt><trkpt lat="39.55963088890931" lon="8.93883756331505"><ele>93.66666666666667</ele><time>2026-04-25T12:10:35Z</time></trkpt><trkpt lat="39.55978651924005" lon="8.938978165176383"><ele>95.0</ele><time>2026-04-25T12:10:36Z</time></trkpt><trkpt lat="39.55994449196234" lon="8.939120635044572"><ele>94.0</ele><time>2026-04-25T12:10:37Z</time></trkpt><trkpt lat="39.56010429388695" lon="8.939262158183995"><ele>93.0</ele><time>2026-04-25T12:10:38Z</time></trkpt><trkpt lat="39.56026410472715" lon="8.93940075123077"><ele>92.0</ele><time>2026-04-25T12:10:39Z</time></trkpt><trkpt lat="39.560425827611766" lon="8.939536073911018"><ele>92.0</ele><time>2026-04-25T12:10:40Z</time></trkpt><trkpt lat="39.56059148109816" lon="8.939671062204845"><ele>92.0</ele><time>2026-04-25T12:10:41Z</time></trkpt><trkpt lat="39.56075233979349" lon="8.939807547893096"><ele>92.0</ele><time>2026-04-25T12:10:42Z</time></trkpt><trkpt lat="39.56091102100608" lon="8.939945378592588"><ele>92.0</ele><time>2026-04-25T12:10:43Z</time></trkpt><trkpt lat="39.56106731507967" lon="8.940075817734291"><ele>92.0</ele><time>2026-04-25T12:10:44Z</time></trkpt><trkpt lat="39.56121968794374" lon="8.940202722361349"><ele>92.0</ele><time>2026-04-25T12:10:45Z</time></trkpt><trkpt lat="39.56137173376737" lon="8.940324308140854"><ele>92.0</ele><time>2026-04-25T12:10:46Z</time></trkpt><trkpt lat="39.561520071618475" lon="8.940440929933974"><ele>92.0</ele><time>2026-04-25T12:10:47Z</time></trkpt><trkpt lat="39.561664204435516" lon="8.940552271371505"><ele>92.0</ele><time>2026-04-25T12:10:48Z</time></trkpt><trkpt lat="39.56179429026687" lon="8.940655565905766"><ele>92.0</ele><time>2026-04-25T12:10:49Z</time></trkpt><trkpt lat="39.561905149747474" lon="8.9407599787605"><ele>92.0</ele><time>2026-04-25T12:10:50Z</time></trkpt><trkpt lat="39.561997785332046" lon="8.940872082887285"><ele>92.0</ele><time>2026-04-25T12:10:51Z</time></trkpt><trkpt lat="39.562048303690055" lon="8.941014240997646"><ele>92.0</ele><time>2026-04-25T12:10:52Z</time></trkpt><trkpt lat="39.56206404372274" lon="8.94117609885616"><ele>90.5</ele><time>2026-04-25T12:10:53Z</time></trkpt><trkpt lat="39.562022706749744" lon="8.941336885378606"><ele>89.0</ele><time>2026-04-25T12:10:54Z</time></trkpt><trkpt lat="39.56200405832668" lon="8.941509012781893"><ele>87.5</ele><time>2026-04-25T12:10:55Z</time></trkpt><trkpt lat="39.561965264825716" lon="8.941676718846772"><ele>86.0</ele><time>2026-04-25T12:10:56Z</time></trkpt><trkpt lat="39.56193120862876" lon="8.941854454592692"><ele>86.0</ele><time>2026-04-25T12:10:57Z</time></trkpt><trkpt lat="39.56189739766534" lon="8.942030842515457"><ele>86.0</ele><time>2026-04-25T12:10:58Z</time></trkpt><trkpt lat="39.56186402112005" lon="8.942203883554885"><ele>86.0</ele><time>2026-04-25T12:10:59Z</time></trkpt><trkpt lat="39.561831083530585" lon="8.942374107168432"><ele>86.0</ele><time>2026-04-25T12:11:00Z</time></trkpt><trkpt lat="39.56179632916183" lon="8.942540939468236"><ele>86.75</ele><time>2026-04-25T12:11:01Z</time></trkpt><trkpt lat="39.56176277376776" lon="8.942703255845592"><ele>87.5</ele><time>2026-04-25T12:11:02Z</time></trkpt><trkpt lat="39.561739587759014" lon="8.942868301447817"><ele>88.25</ele><time>2026-04-25T12:11:03Z</time></trkpt><trkpt lat="39.561742728441594" lon="8.943035851991967"><ele>89.0</ele><time>2026-04-25T12:11:04Z</time></trkpt><trkpt lat="39.56177642234218" lon="8.943195726732908"><ele>89.0</ele><time>2026-04-25T12:11:05Z</time></trkpt><trkpt lat="39.5618377744553" lon="8.943343137457749"><ele>89.0</ele><time>2026-04-25T12:11:06Z</time></trkpt><trkpt lat="39.5619185807103" lon="8.943480572766356"><ele>89.0</ele><time>2026-04-25T12:11:07Z</time></trkpt><trkpt lat="39.56201248827666" lon="8.943605272968433"><ele>89.0</ele><time>2026-04-25T12:11:08Z</time></trkpt><trkpt lat="39.562104870713945" lon="8.943712512807208"><ele>89.0</ele><time>2026-04-25T12:11:09Z</time></trkpt><trkpt lat="39.56218101948143" lon="8.943805587304617"><ele>89.0</ele><time>2026-04-25T12:11:10Z</time></trkpt><trkpt lat="39.562247155926244" lon="8.943893642505646"><ele>89.0</ele><time>2026-04-25T12:11:11Z</time></trkpt><trkpt lat="39.56230906038295" lon="8.94397931168206"><ele>89.0</ele><time>2026-04-25T12:11:12Z</time></trkpt><trkpt lat="39.562370409716706" lon="8.944061410552218"><ele>89.0</ele><time>2026-04-25T12:11:13Z</time></trkpt><trkpt lat="39.56243244439304" lon="8.944143355873665"><ele>89.0</ele><time>2026-04-25T12:11:14Z</time></trkpt><trkpt lat="39.56250077608228" lon="8.944224019962826"><ele>89.0</ele><time>2026-04-25T12:11:15Z</time></trkpt><trkpt lat="39.562561297210216" lon="8.944321362208058"><ele>89.0</ele><time>2026-04-25T12:11:16Z</time></trkpt><trkpt lat="39.5626347441843" lon="8.944405029401581"><ele>89.0</ele><time>2026-04-25T12:11:17Z</time></trkpt><trkpt lat="39.562725719947146" lon="8.944468623230886"><ele>89.0</ele><time>2026-04-25T12:11:18Z</time></trkpt><trkpt lat="39.562810614432635" lon="8.944549023518174"><ele>89.2</ele><time>2026-04-25T12:11:19Z</time></trkpt><trkpt lat="39.56289473396273" lon="8.944630981450043"><ele>89.4</ele><time>2026-04-25T12:11:20Z</time></trkpt><trkpt lat="39.56298019907966" lon="8.944718146842638"><ele>89.6</ele><time>2026-04-25T12:11:21Z</time></trkpt><trkpt lat="39.56306632026602" lon="8.944801941803624"><ele>89.8</ele><time>2026-04-25T12:11:22Z</time></trkpt><trkpt lat="39.56315016296815" lon="8.944882954391865"><ele>90.0</ele><time>2026-04-25T12:11:23Z</time></trkpt><trkpt lat="39.56322959575312" lon="8.944962841425975"><ele>90.0</ele><time>2026-04-25T12:11:24Z</time></trkpt><trkpt lat="39.56330562239435" lon="8.945044717206462"><ele>90.0</ele><time>2026-04-25T12:11:25Z</time></trkpt><trkpt lat="39.56338045007382" lon="8.945127064314372"><ele>90.0</ele><time>2026-04-25T12:11:26Z</time></trkpt><trkpt lat="39.56345763784425" lon="8.945209539199091"><ele>90.0</ele><time>2026-04-25T12:11:27Z</time></trkpt><trkpt lat="39.56353191823397" lon="8.945300122845731"><ele>90.0</ele><time>2026-04-25T12:11:28Z</time></trkpt><trkpt lat="39.56360775787324" lon="8.945398098203754"><ele>91.0</ele><time>2026-04-25T12:11:29Z</time></trkpt><trkpt lat="39.56368495168864" lon="8.945491687999917"><ele>92.0</ele><time>2026-04-25T12:11:30Z</time></trkpt><trkpt lat="39.5637620653081" lon="8.945586599066596"><ele>93.0</ele><time>2026-04-25T12:11:31Z</time></trkpt><trkpt lat="39.563838447669745" lon="8.945681331196097"><ele>94.0</ele><time>2026-04-25T12:11:32Z</time></trkpt><trkpt lat="39.56391754663971" lon="8.94577614116227"><ele>95.0</ele><time>2026-04-25T12:11:33Z</time></trkpt><trkpt lat="39.56399523238147" lon="8.94586646625728"><ele>95.8</ele><time>2026-04-25T12:11:34Z</time></trkpt><trkpt lat="39.564065147292276" lon="8.945953535679612"><ele>96.6</ele><time>2026-04-25T12:11:35Z</time></trkpt><trkpt lat="39.56412922432797" lon="8.946046419742487"><ele>97.4</ele><time>2026-04-25T12:11:36Z</time></trkpt><trkpt lat="39.56417680683112" lon="8.946162373261942"><ele>98.2</ele><time>2026-04-25T12:11:37Z</time></trkpt><trkpt lat="39.564217579245" lon="8.946282149435891"><ele>99.0</ele><time>2026-04-25T12:11:38Z</time></trkpt><trkpt lat="39.564249375620435" lon="8.946398103540073"><ele>99.0</ele><time>2026-04-25T12:11:39Z</time></trkpt><trkpt lat="39.56426947674243" lon="8.946500972228923"><ele>99.0</ele><time>2026-04-25T12:11:40Z</time></trkpt><trkpt lat="39.564287799984776" lon="8.946603309826745"><ele>99.0</ele><time>2026-04-25T12:11:41Z</time></trkpt><trkpt lat="39.56429449817208" lon="8.946714371221523"><ele>99.0</ele><time>2026-04-25T12:11:42Z</time></trkpt><trkpt lat="39.56428185472809" lon="8.946833881993332"><ele>99.0</ele><time>2026-04-25T12:11:43Z</time></trkpt><trkpt lat="39.564264152325165" lon="8.94695780366996"><ele>99.0</ele><time>2026-04-25T12:11:44Z</time></trkpt><trkpt lat="39.56425202387693" lon="8.947083029785816"><ele>100.0</ele><time>2026-04-25T12:11:45Z</time></trkpt><trkpt lat="39.56426528404938" lon="8.947219263520125"><ele>101.0</ele><time>2026-04-25T12:11:46Z</time></trkpt><trkpt lat="39.564291890087226" lon="8.94734975856664"><ele>102.0</ele><time>2026-04-25T12:11:47Z</time></trkpt><trkpt lat="39.56431667322449" lon="8.947485243808252"><ele>103.0</ele><time>2026-04-25T12:11:48Z</time></trkpt><trkpt lat="39.56433059025301" lon="8.947628306070596"><ele>104.0</ele><time>2026-04-25T12:11:49Z</time></trkpt><trkpt lat="39.564344298212305" lon="8.947772345226214"><ele>105.2</ele><time>2026-04-25T12:11:50Z</time></trkpt><trkpt lat="39.56435408112576" lon="8.947908023355806"><ele>106.4</ele><time>2026-04-25T12:11:51Z</time></trkpt><trkpt lat="39.56436186727263" lon="8.948036106972278"><ele>107.6</ele><time>2026-04-25T12:11:52Z</time></trkpt><trkpt lat="39.56436862265158" lon="8.948154001929645"><ele>108.8</ele><time>2026-04-25T12:11:53Z</time></trkpt><trkpt lat="39.56437259060722" lon="8.948265319087877"><ele>110.0</ele><time>2026-04-25T12:11:54Z</time></trkpt><trkpt lat="39.564378996341354" lon="8.948363915546736"><ele>110.33333333333333</ele><time>2026-04-25T12:11:55Z</time></trkpt><trkpt lat="39.56439722913742" lon="8.948454240278837"><ele>110.66666666666666</ele><time>2026-04-25T12:11:56Z</time></trkpt><trkpt lat="39.564425774211074" lon="8.9485360884153"><ele>111.0</ele><time>2026-04-25T12:11:57Z</time></trkpt><trkpt lat="39.56447460412287" lon="8.948615175679615"><ele>111.33333333333334</ele><time>2026-04-25T12:11:58Z</time></trkpt><trkpt lat="39.564537256732464" lon="8.94868400451052"><ele>111.66666666666667</ele><time>2026-04-25T12:11:59Z</time></trkpt><trkpt lat="39.56460920462696" lon="8.948750125180455"><ele>112.0</ele><time>2026-04-25T12:12:00Z</time></trkpt><trkpt lat="39.564684194681696" lon="8.948821087915833"><ele>110.8</ele><time>2026-04-25T12:12:01Z</time></trkpt><trkpt lat="39.56475322904767" lon="8.948907205853137"><ele>109.6</ele><time>2026-04-25T12:12:02Z</time></trkpt><trkpt lat="39.56480680562529" lon="8.949008954754218"><ele>108.39999999999999</ele><time>2026-04-25T12:12:03Z</time></trkpt><trkpt lat="39.56484436434795" lon="8.949131691560126"><ele>107.19999999999999</ele><time>2026-04-25T12:12:04Z</time></trkpt><trkpt lat="39.56486610835881" lon="8.949267736029025"><ele>106.0</ele><time>2026-04-25T12:12:05Z</time></trkpt><trkpt lat="39.564889440563896" lon="8.949409829144308"><ele>106.0</ele><time>2026-04-25T12:12:06Z</time></trkpt><trkpt lat="39.56491637552886" lon="8.949554819308874"><ele>106.0</ele><time>2026-04-25T12:12:07Z</time></trkpt><trkpt lat="39.5649447238686" lon="8.949704768889035"><ele>106.0</ele><time>2026-04-25T12:12:08Z</time></trkpt><trkpt lat="39.56497317268689" lon="8.9498576177642"><ele>106.0</ele><time>2026-04-25T12:12:09Z</time></trkpt><trkpt lat="39.56500175929534" lon="8.950011611724628"><ele>106.25</ele><time>2026-04-25T12:12:10Z</time></trkpt><trkpt lat="39.565029806253776" lon="8.950160452926418"><ele>106.5</ele><time>2026-04-25T12:12:11Z</time></trkpt><trkpt lat="39.56505835159767" lon="8.950302107144044"><ele>106.75</ele><time>2026-04-25T12:12:12Z</time></trkpt><trkpt lat="39.56508478130727" lon="8.950441503261175"><ele>107.0</ele><time>2026-04-25T12:12:13Z</time></trkpt><trkpt lat="39.56510823002366" lon="8.95057815800096"><ele>107.0</ele><time>2026-04-25T12:12:14Z</time></trkpt><trkpt lat="39.56513579535103" lon="8.950710700738252"><ele>106.99999999999999</ele><time>2026-04-25T12:12:15Z</time></trkpt><trkpt lat="39.56516367028013" lon="8.95084545282537"><ele>106.99999999999999</ele><time>2026-04-25T12:12:16Z</time></trkpt><trkpt lat="39.565187189721506" lon="8.950983816311357"><ele>107.0</ele><time>2026-04-25T12:12:17Z</time></trkpt><trkpt lat="39.56521272846565" lon="8.951124984080549"><ele>107.0</ele><time>2026-04-25T12:12:18Z</time></trkpt><trkpt lat="39.565242025665796" lon="8.951264952287909"><ele>107.5</ele><time>2026-04-25T12:12:19Z</time></trkpt><trkpt lat="39.56527535421781" lon="8.95140494374501"><ele>108.0</ele><time>2026-04-25T12:12:20Z</time></trkpt><trkpt lat="39.56532109228526" lon="8.95154504530019"><ele>108.5</ele><time>2026-04-25T12:12:21Z</time></trkpt><trkpt lat="39.56538080637256" lon="8.95168242504041"><ele>109.0</ele><time>2026-04-25T12:12:22Z</time></trkpt><trkpt lat="39.565450968901295" lon="8.951818948589834"><ele>105.75</ele><time>2026-04-25T12:12:23Z</time></trkpt><trkpt lat="39.56552601437044" lon="8.951957542091323"><ele>102.5</ele><time>2026-04-25T12:12:24Z</time></trkpt><trkpt lat="39.56560320402594" lon="8.95210057423546"><ele>99.25</ele><time>2026-04-25T12:12:25Z</time></trkpt><trkpt lat="39.56568088656144" lon="8.952248305470592"><ele>96.0</ele><time>2026-04-25T12:12:26Z</time></trkpt><trkpt lat="39.56575900117615" lon="8.95239950019911"><ele>96.5</ele><time>2026-04-25T12:12:27Z</time></trkpt><trkpt lat="39.56583921887132" lon="8.952555598712628"><ele>97.0</ele><time>2026-04-25T12:12:28Z</time></trkpt><trkpt lat="39.56592072974431" lon="8.95271337283285"><ele>97.5</ele><time>2026-04-25T12:12:29Z</time></trkpt><trkpt lat="39.56600332303051" lon="8.952877488442041"><ele>98.0</ele><time>2026-04-25T12:12:30Z</time></trkpt><trkpt lat="39.566086686223656" lon="8.953042298481085"><ele>98.0</ele><time>2026-04-25T12:12:31Z</time></trkpt><trkpt lat="39.56617342403499" lon="8.953208234887263"><ele>98.0</ele><time>2026-04-25T12:12:32Z</time></trkpt><trkpt lat="39.56626417594588" lon="8.953376265387979"><ele>98.0</ele><time>2026-04-25T12:12:33Z</time></trkpt><trkpt lat="39.56635611793561" lon="8.95354732666959"><ele>97.66666666666666</ele><time>2026-04-25T12:12:34Z</time></trkpt><trkpt lat="39.56645091735778" lon="8.953721975789984"><ele>97.33333333333334</ele><time>2026-04-25T12:12:35Z</time></trkpt><trkpt lat="39.56654361531316" lon="8.953895592525496"><ele>97.0</ele><time>2026-04-25T12:12:36Z</time></trkpt><trkpt lat="39.56664014308707" lon="8.95407897757917"><ele>97.66666666666667</ele><time>2026-04-25T12:12:37Z</time></trkpt><trkpt lat="39.566735825104224" lon="8.954264427349804"><ele>98.33333333333334</ele><time>2026-04-25T12:12:38Z</time></trkpt><trkpt lat="39.56682679754246" lon="8.954442977944408"><ele>99.0</ele><time>2026-04-25T12:12:39Z</time></trkpt><trkpt lat="39.56692315883985" lon="8.954631589294783"><ele>99.0</ele><time>2026-04-25T12:12:40Z</time></trkpt><trkpt lat="39.56701982496307" lon="8.954816008399655"><ele>99.0</ele><time>2026-04-25T12:12:41Z</time></trkpt><trkpt lat="39.56711927084325" lon="8.95500170782275"><ele>99.0</ele><time>2026-04-25T12:12:42Z</time></trkpt><trkpt lat="39.56721936898478" lon="8.95518916131303"><ele>98.66666666666666</ele><time>2026-04-25T12:12:43Z</time></trkpt><trkpt lat="39.567317603357175" lon="8.95537459819617"><ele>98.33333333333333</ele><time>2026-04-25T12:12:44Z</time></trkpt><trkpt lat="39.56741685702631" lon="8.955561554473729"><ele>98.0</ele><time>2026-04-25T12:12:45Z</time></trkpt><trkpt lat="39.56751631063507" lon="8.95574930747683"><ele>99.0</ele><time>2026-04-25T12:12:46Z</time></trkpt><trkpt lat="39.56761395227104" lon="8.955934589004707"><ele>100.0</ele><time>2026-04-25T12:12:47Z</time></trkpt><trkpt lat="39.567709255262116" lon="8.956118810693917"><ele>101.0</ele><time>2026-04-25T12:12:48Z</time></trkpt><trkpt lat="39.567805503578676" lon="8.956304697004917"><ele>100.0</ele><time>2026-04-25T12:12:49Z</time></trkpt><trkpt lat="39.5679031534501" lon="8.95649335070935"><ele>99.0</ele><time>2026-04-25T12:12:50Z</time></trkpt><trkpt lat="39.56800038418523" lon="8.956681368223556"><ele>98.0</ele><time>2026-04-25T12:12:51Z</time></trkpt><trkpt lat="39.568100186323505" lon="8.956871031108909"><ele>100.0</ele><time>2026-04-25T12:12:52Z</time></trkpt><trkpt lat="39.568201133520745" lon="8.957061950768832"><ele>102.0</ele><time>2026-04-25T12:12:53Z</time></trkpt><trkpt lat="39.56830412403347" lon="8.95725452127541"><ele>104.0</ele><time>2026-04-25T12:12:54Z</time></trkpt><trkpt lat="39.56840767506771" lon="8.957446069419731"><ele>107.33333333333333</ele><time>2026-04-25T12:12:55Z</time></trkpt><trkpt lat="39.5685080172473" lon="8.95764147214495"><ele>110.66666666666666</ele><time>2026-04-25T12:12:56Z</time></trkpt><trkpt lat="39.568604231424246" lon="8.957843997723423"><ele>114.0</ele><time>2026-04-25T12:12:57Z</time></trkpt><trkpt lat="39.568680027181074" lon="8.958060083929807"><ele>109.0</ele><time>2026-04-25T12:12:58Z</time></trkpt><trkpt lat="39.56874140631222" lon="8.958290342332116"><ele>104.0</ele><time>2026-04-25T12:12:59Z</time></trkpt><trkpt lat="39.56878641251312" lon="8.958525167452185"><ele>99.0</ele><time>2026-04-25T12:13:00Z</time></trkpt><trkpt lat="39.568809242787786" lon="8.95876727507753"><ele>99.0</ele><time>2026-04-25T12:13:01Z</time></trkpt><trkpt lat="39.56881799206955" lon="8.959012028663919"><ele>99.0</ele><time>2026-04-25T12:13:02Z</time></trkpt><trkpt lat="39.56882396152738" lon="8.959255748937599"><ele>99.0</ele><time>2026-04-25T12:13:03Z</time></trkpt><trkpt lat="39.568818646049685" lon="8.959496156646816"><ele>99.0</ele><time>2026-04-25T12:13:04Z</time></trkpt><trkpt lat="39.56878681990571" lon="8.95973354083273"><ele>99.0</ele><time>2026-04-25T12:13:05Z</time></trkpt><trkpt lat="39.568729517060376" lon="8.959963984617715"><ele>99.0</ele><time>2026-04-25T12:13:06Z</time></trkpt><trkpt lat="39.568665078873764" lon="8.960189185933041"><ele>102.66666666666666</ele><time>2026-04-25T12:13:07Z</time></trkpt><trkpt lat="39.568618713764074" lon="8.960406627148098"><ele>106.33333333333333</ele><time>2026-04-25T12:13:08Z</time></trkpt><trkpt lat="39.56861202492289" lon="8.960633552454327"><ele>110.0</ele><time>2026-04-25T12:13:09Z</time></trkpt><trkpt lat="39.568636312175634" lon="8.960857927057129"><ele>106.0</ele><time>2026-04-25T12:13:10Z</time></trkpt><trkpt lat="39.56869501906738" lon="8.961070482140899"><ele>102.0</ele><time>2026-04-25T12:13:11Z</time></trkpt><trkpt lat="39.56875512079014" lon="8.961275904939592"><ele>98.0</ele><time>2026-04-25T12:13:12Z</time></trkpt><trkpt lat="39.568808785908274" lon="8.961483793094065"><ele>97.66666666666666</ele><time>2026-04-25T12:13:13Z</time></trkpt><trkpt lat="39.56883770959708" lon="8.961701119757043"><ele>97.33333333333334</ele><time>2026-04-25T12:13:14Z</time></trkpt><trkpt lat="39.568823266877885" lon="8.961921049523545"><ele>97.0</ele><time>2026-04-25T12:13:15Z</time></trkpt><trkpt lat="39.56878345664589" lon="8.962139115073379"><ele>97.0</ele><time>2026-04-25T12:13:16Z</time></trkpt><trkpt lat="39.56870667038887" lon="8.962349027657794"><ele>97.0</ele><time>2026-04-25T12:13:17Z</time></trkpt><trkpt lat="39.56863249187889" lon="8.962561771955107"><ele>97.0</ele><time>2026-04-25T12:13:18Z</time></trkpt><trkpt lat="39.56856314470624" lon="8.96278167215621"><ele>98.0</ele><time>2026-04-25T12:13:19Z</time></trkpt><trkpt lat="39.568494954274506" lon="8.963005281684108"><ele>99.0</ele><time>2026-04-25T12:13:20Z</time></trkpt><trkpt lat="39.56842206857002" lon="8.963232121892354"><ele>100.0</ele><time>2026-04-25T12:13:21Z</time></trkpt><trkpt lat="39.56834493309664" lon="8.963459567040152"><ele>100.0</ele><time>2026-04-25T12:13:22Z</time></trkpt><trkpt lat="39.568265709694565" lon="8.963687511936573"><ele>100.0</ele><time>2026-04-25T12:13:23Z</time></trkpt><trkpt lat="39.56818806457032" lon="8.963918256543389"><ele>100.0</ele><time>2026-04-25T12:13:24Z</time></trkpt><trkpt lat="39.56811020938753" lon="8.96415029336163"><ele>99.66666666666667</ele><time>2026-04-25T12:13:25Z</time></trkpt><trkpt lat="39.56803362250832" lon="8.964386604583405"><ele>99.33333333333334</ele><time>2026-04-25T12:13:26Z</time></trkpt><trkpt lat="39.56795704164132" lon="8.964623172823925"><ele>99.0</ele><time>2026-04-25T12:13:27Z</time></trkpt><trkpt lat="39.567878946467786" lon="8.964858228762346"><ele>99.33333333333334</ele><time>2026-04-25T12:13:28Z</time></trkpt><trkpt lat="39.56779980230804" lon="8.965092764203902"><ele>99.66666666666667</ele><time>2026-04-25T12:13:29Z</time></trkpt><trkpt lat="39.56772134250335" lon="8.965326665762518"><ele>100.0</ele><time>2026-04-25T12:13:30Z</time></trkpt><trkpt lat="39.56764057441285" lon="8.965559728695306"><ele>100.0</ele><time>2026-04-25T12:13:31Z</time></trkpt><trkpt lat="39.56755988237888" lon="8.965794970914688"><ele>100.0</ele><time>2026-04-25T12:13:32Z</time></trkpt><trkpt lat="39.56748079102299" lon="8.966030117618716"><ele>100.0</ele><time>2026-04-25T12:13:33Z</time></trkpt><trkpt lat="39.56740045458511" lon="8.966267651894757"><ele>100.0</ele><time>2026-04-25T12:13:34Z</time></trkpt><trkpt lat="39.56732066547337" lon="8.966505993238314"><ele>100.0</ele><time>2026-04-25T12:13:35Z</time></trkpt><trkpt lat="39.567242749385755" lon="8.966743371217063"><ele>100.0</ele><time>2026-04-25T12:13:36Z</time></trkpt><trkpt lat="39.567163505646256" lon="8.966982724658386"><ele>100.0</ele><time>2026-04-25T12:13:37Z</time></trkpt><trkpt lat="39.56708374695882" lon="8.967221387737485"><ele>100.0</ele><time>2026-04-25T12:13:38Z</time></trkpt><trkpt lat="39.5670021316003" lon="8.967461173910111"><ele>100.0</ele><time>2026-04-25T12:13:39Z</time></trkpt><trkpt lat="39.56692047770106" lon="8.967699969103405"><ele>100.33333333333334</ele><time>2026-04-25T12:13:40Z</time></trkpt><trkpt lat="39.566839755450125" lon="8.967940269698454"><ele>100.66666666666666</ele><time>2026-04-25T12:13:41Z</time></trkpt><trkpt lat="39.566759566862714" lon="8.968182195511393"><ele>101.0</ele><time>2026-04-25T12:13:42Z</time></trkpt><trkpt lat="39.566679625524294" lon="8.968423373279586"><ele>102.0</ele><time>2026-04-25T12:13:43Z</time></trkpt><trkpt lat="39.56659760254339" lon="8.968666122156657"><ele>103.0</ele><time>2026-04-25T12:13:44Z</time></trkpt><trkpt lat="39.56651562284081" lon="8.968906549264217"><ele>104.0</ele><time>2026-04-25T12:13:45Z</time></trkpt><trkpt lat="39.566433872678566" lon="8.969148455031686"><ele>104.0</ele><time>2026-04-25T12:13:46Z</time></trkpt><trkpt lat="39.566355145692334" lon="8.969386991660464"><ele>104.0</ele><time>2026-04-25T12:13:47Z</time></trkpt><trkpt lat="39.56627740697977" lon="8.96962391076926"><ele>104.0</ele><time>2026-04-25T12:13:48Z</time></trkpt><trkpt lat="39.56620168616778" lon="8.969854393547061"><ele>105.33333333333333</ele><time>2026-04-25T12:13:49Z</time></trkpt><trkpt lat="39.56612555202406" lon="8.970079688082802"><ele>106.66666666666666</ele><time>2026-04-25T12:13:50Z</time></trkpt><trkpt lat="39.566047502358956" lon="8.970303897921003"><ele>108.0</ele><time>2026-04-25T12:13:51Z</time></trkpt><trkpt lat="39.565964001109414" lon="8.97052671991493"><ele>108.0</ele><time>2026-04-25T12:13:52Z</time></trkpt><trkpt lat="39.5658755418778" lon="8.970744921895866"><ele>108.0</ele><time>2026-04-25T12:13:53Z</time></trkpt><trkpt lat="39.565781017777844" lon="8.970964312274438"><ele>108.0</ele><time>2026-04-25T12:13:54Z</time></trkpt><trkpt lat="39.56568509401303" lon="8.971180009975319"><ele>107.0</ele><time>2026-04-25T12:13:55Z</time></trkpt><trkpt lat="39.56558729300378" lon="8.971399425073015"><ele>106.0</ele><time>2026-04-25T12:13:56Z</time></trkpt><trkpt lat="39.56548767193031" lon="8.971615720102527"><ele>105.0</ele><time>2026-04-25T12:13:57Z</time></trkpt><trkpt lat="39.56538706341518" lon="8.971831036780728"><ele>107.66666666666666</ele><time>2026-04-25T12:13:58Z</time></trkpt><trkpt lat="39.56528678589983" lon="8.972042236586436"><ele>110.33333333333333</ele><time>2026-04-25T12:13:59Z</time></trkpt><trkpt lat="39.565189597287535" lon="8.972250321476155"><ele>113.0</ele><time>2026-04-25T12:14:00Z</time></trkpt><trkpt lat="39.56509816963118" lon="8.972452421139696"><ele>110.33333333333333</ele><time>2026-04-25T12:14:01Z</time></trkpt><trkpt lat="39.565007905119295" lon="8.97265013785386"><ele>107.66666666666666</ele><time>2026-04-25T12:14:02Z</time></trkpt><trkpt lat="39.564917930885755" lon="8.972844105002283"><ele>105.0</ele><time>2026-04-25T12:14:03Z</time></trkpt><trkpt lat="39.56482668476473" lon="8.973036474677954"><ele>105.0</ele><time>2026-04-25T12:14:04Z</time></trkpt><trkpt lat="39.56473446333866" lon="8.97322830285872"><ele>105.0</ele><time>2026-04-25T12:14:05Z</time></trkpt><trkpt lat="39.56464422491972" lon="8.973415138871047"><ele>105.0</ele><time>2026-04-25T12:14:06Z</time></trkpt><trkpt lat="39.56456051657269" lon="8.973609185939113"><ele>107.66666666666666</ele><time>2026-04-25T12:14:07Z</time></trkpt><trkpt lat="39.56450065167267" lon="8.973814567860673"><ele>110.33333333333333</ele><time>2026-04-25T12:14:08Z</time></trkpt><trkpt lat="39.56447401607629" lon="8.974030863448753"><ele>113.0</ele><time>2026-04-25T12:14:09Z</time></trkpt><trkpt lat="39.564473304649574" lon="8.974241837062987"><ele>113.0</ele><time>2026-04-25T12:14:10Z</time></trkpt><trkpt lat="39.56448279325395" lon="8.974435212569228"><ele>113.0</ele><time>2026-04-25T12:14:11Z</time></trkpt><trkpt lat="39.56449223436868" lon="8.974620903132836"><ele>113.0</ele><time>2026-04-25T12:14:12Z</time></trkpt><trkpt lat="39.564498191863585" lon="8.974796231062271"><ele>113.0</ele><time>2026-04-25T12:14:13Z</time></trkpt><trkpt lat="39.56450035338439" lon="8.97496492827049"><ele>114.5</ele><time>2026-04-25T12:14:14Z</time></trkpt><trkpt lat="39.56450350083606" lon="8.975126922564732"><ele>116.0</ele><time>2026-04-25T12:14:15Z</time></trkpt><trkpt lat="39.56450887400476" lon="8.97528551691781"><ele>117.5</ele><time>2026-04-25T12:14:16Z</time></trkpt><trkpt lat="39.56451480717817" lon="8.97544347428652"><ele>119.0</ele><time>2026-04-25T12:14:17Z</time></trkpt><trkpt lat="39.564518734237204" lon="8.975604487586955"><ele>119.0</ele><time>2026-04-25T12:14:18Z</time></trkpt><trkpt lat="39.5645250861923" lon="8.97576498044624"><ele>119.0</ele><time>2026-04-25T12:14:19Z</time></trkpt><trkpt lat="39.56452951902996" lon="8.975926522275506"><ele>119.0</ele><time>2026-04-25T12:14:20Z</time></trkpt><trkpt lat="39.56453540813139" lon="8.976088560434162"><ele>119.0</ele><time>2026-04-25T12:14:21Z</time></trkpt><trkpt lat="39.564541857896124" lon="8.976249315007873"><ele>116.80000000000001</ele><time>2026-04-25T12:14:22Z</time></trkpt><trkpt lat="39.56454931765538" lon="8.976399571964537"><ele>114.60000000000001</ele><time>2026-04-25T12:14:23Z</time></trkpt><trkpt lat="39.56455278783604" lon="8.9765394534179"><ele>112.4</ele><time>2026-04-25T12:14:24Z</time></trkpt><trkpt lat="39.56455462791201" lon="8.9766741238907"><ele>110.2</ele><time>2026-04-25T12:14:25Z</time></trkpt><trkpt lat="39.564556547567065" lon="8.976807227494236"><ele>108.0</ele><time>2026-04-25T12:14:26Z</time></trkpt><trkpt lat="39.56455949858172" lon="8.976940835831883"><ele>108.0</ele><time>2026-04-25T12:14:27Z</time></trkpt><trkpt lat="39.56455876577369" lon="8.97707526871834"><ele>108.00000000000001</ele><time>2026-04-25T12:14:28Z</time></trkpt><trkpt lat="39.56455548928701" lon="8.977213744311708"><ele>108.00000000000001</ele><time>2026-04-25T12:14:29Z</time></trkpt><trkpt lat="39.564557348338894" lon="8.977356764545467"><ele>108.0</ele><time>2026-04-25T12:14:30Z</time></trkpt><trkpt lat="39.56456415358283" lon="8.977502261520511"><ele>108.0</ele><time>2026-04-25T12:14:31Z</time></trkpt><trkpt lat="39.564568695209054" lon="8.977652008061503"><ele>108.2</ele><time>2026-04-25T12:14:32Z</time></trkpt><trkpt lat="39.564569356792205" lon="8.97780467639406"><ele>108.4</ele><time>2026-04-25T12:14:33Z</time></trkpt><trkpt lat="39.56457099054282" lon="8.977951094502655"><ele>108.60000000000001</ele><time>2026-04-25T12:14:34Z</time></trkpt><trkpt lat="39.564570348940016" lon="8.978088354717999"><ele>108.80000000000001</ele><time>2026-04-25T12:14:35Z</time></trkpt><trkpt lat="39.56456000860398" lon="8.978220155246738"><ele>109.0</ele><time>2026-04-25T12:14:36Z</time></trkpt><trkpt lat="39.564540420552184" lon="8.978345940954663"><ele>110.2</ele><time>2026-04-25T12:14:37Z</time></trkpt><trkpt lat="39.56450975001786" lon="8.978467225043186"><ele>111.4</ele><time>2026-04-25T12:14:38Z</time></trkpt><trkpt lat="39.56447228896559" lon="8.97858484034976"><ele>112.6</ele><time>2026-04-25T12:14:39Z</time></trkpt><trkpt lat="39.564438179382876" lon="8.978705936347371"><ele>113.8</ele><time>2026-04-25T12:14:40Z</time></trkpt><trkpt lat="39.564406644966475" lon="8.978830032806425"><ele>115.0</ele><time>2026-04-25T12:14:41Z</time></trkpt><trkpt lat="39.564374257029336" lon="8.97895683248638"><ele>115.0</ele><time>2026-04-25T12:14:42Z</time></trkpt><trkpt lat="39.56434208739926" lon="8.979083869785486"><ele>115.0</ele><time>2026-04-25T12:14:43Z</time></trkpt><trkpt lat="39.564308029351125" lon="8.979209050795982"><ele>115.0</ele><time>2026-04-25T12:14:44Z</time></trkpt><trkpt lat="39.56424021567995" lon="8.979449263270828"><ele>115.0</ele><time>2026-04-25T12:14:46Z</time></trkpt><trkpt lat="39.564206270527855" lon="8.979563135994072"><ele>114.6</ele><time>2026-04-25T12:14:47Z</time></trkpt><trkpt lat="39.564176707457264" lon="8.979672146283539"><ele>114.2</ele><time>2026-04-25T12:14:48Z</time></trkpt><trkpt lat="39.564146718460584" lon="8.97978192563666"><ele>113.80000000000001</ele><time>2026-04-25T12:14:49Z</time></trkpt><trkpt lat="39.56411796211802" lon="8.97989297724686"><ele>113.4</ele><time>2026-04-25T12:14:50Z</time></trkpt><trkpt lat="39.56408899092476" lon="8.980004186854783"><ele>113.0</ele><time>2026-04-25T12:14:51Z</time></trkpt><trkpt lat="39.56405841353004" lon="8.9801175751781"><ele>113.0</ele><time>2026-04-25T12:14:52Z</time></trkpt><trkpt lat="39.56402534667778" lon="8.98023196259783"><ele>113.00000000000001</ele><time>2026-04-25T12:14:53Z</time></trkpt><trkpt lat="39.56399395623257" lon="8.980349667148094"><ele>113.00000000000001</ele><time>2026-04-25T12:14:54Z</time></trkpt><trkpt lat="39.56394514203637" lon="8.980464593721008"><ele>113.0</ele><time>2026-04-25T12:14:55Z</time></trkpt><trkpt lat="39.56392329726401" lon="8.980596123379266"><ele>113.0</ele><time>2026-04-25T12:14:56Z</time></trkpt><trkpt lat="39.563883788103645" lon="8.98072101066417"><ele>113.2</ele><time>2026-04-25T12:14:57Z</time></trkpt><trkpt lat="39.56384373073432" lon="8.980850650987595"><ele>113.4</ele><time>2026-04-25T12:14:58Z</time></trkpt><trkpt lat="39.56380840649069" lon="8.980982051058072"><ele>113.60000000000001</ele><time>2026-04-25T12:14:59Z</time></trkpt><trkpt lat="39.56377367655659" lon="8.981112897304444"><ele>113.80000000000001</ele><time>2026-04-25T12:15:00Z</time></trkpt><trkpt lat="39.56374014806337" lon="8.98124336677691"><ele>114.0</ele><time>2026-04-25T12:15:01Z</time></trkpt><trkpt lat="39.56370319426582" lon="8.9813703441619"><ele>114.2</ele><time>2026-04-25T12:15:02Z</time></trkpt><trkpt lat="39.56366534961159" lon="8.981496144963076"><ele>114.4</ele><time>2026-04-25T12:15:03Z</time></trkpt><trkpt lat="39.56362649341002" lon="8.98161756664204"><ele>114.6</ele><time>2026-04-25T12:15:04Z</time></trkpt><trkpt lat="39.56358634934473" lon="8.98173770069063"><ele>114.8</ele><time>2026-04-25T12:15:05Z</time></trkpt><trkpt lat="39.5635495344075" lon="8.981857862830323"><ele>115.0</ele><time>2026-04-25T12:15:06Z</time></trkpt><trkpt lat="39.563512642259965" lon="8.981977992143115"><ele>115.2</ele><time>2026-04-25T12:15:07Z</time></trkpt><trkpt lat="39.56347127331853" lon="8.982095416381048"><ele>115.4</ele><time>2026-04-25T12:15:08Z</time></trkpt><trkpt lat="39.56342681674738" lon="8.982213155034557"><ele>115.6</ele><time>2026-04-25T12:15:09Z</time></trkpt><trkpt lat="39.563375663693385" lon="8.982328990006176"><ele>115.8</ele><time>2026-04-25T12:15:10Z</time></trkpt><trkpt lat="39.56332165281276" lon="8.982428680402172"><ele>116.0</ele><time>2026-04-25T12:15:11Z</time></trkpt><trkpt lat="39.563266251726155" lon="8.982532504897122"><ele>116.6</ele><time>2026-04-25T12:15:12Z</time></trkpt><trkpt lat="39.5632057935635" lon="8.982630614771319"><ele>117.19999999999999</ele><time>2026-04-25T12:15:13Z</time></trkpt><trkpt lat="39.56313190953272" lon="8.982712328488219"><ele>117.80000000000001</ele><time>2026-04-25T12:15:14Z</time></trkpt><trkpt lat="39.56304810092911" lon="8.982775090333808"><ele>118.4</ele><time>2026-04-25T12:15:15Z</time></trkpt><trkpt lat="39.56295990854615" lon="8.982816370609427"><ele>119.0</ele><time>2026-04-25T12:15:16Z</time></trkpt><trkpt lat="39.56288278200963" lon="8.982848592299666"><ele>118.99999999999999</ele><time>2026-04-25T12:15:17Z</time></trkpt><trkpt lat="39.56279968703193" lon="8.982887501017672"><ele>119.0</ele><time>2026-04-25T12:15:18Z</time></trkpt><trkpt lat="39.56272980538282" lon="8.982947449089922"><ele>119.0</ele><time>2026-04-25T12:15:19Z</time></trkpt><trkpt lat="39.562671627861455" lon="8.983025807009392"><ele>119.0</ele><time>2026-04-25T12:15:20Z</time></trkpt><trkpt lat="39.562631250428076" lon="8.98313448697681"><ele>118.99999999999999</ele><time>2026-04-25T12:15:21Z</time></trkpt><trkpt lat="39.56259500486247" lon="8.983239803481567"><ele>119.0</ele><time>2026-04-25T12:15:22Z</time></trkpt><trkpt lat="39.562557734791" lon="8.983342609562047"><ele>119.6</ele><time>2026-04-25T12:15:23Z</time></trkpt><trkpt lat="39.56250077963497" lon="8.98344240772741"><ele>120.2</ele><time>2026-04-25T12:15:24Z</time></trkpt><trkpt lat="39.562436649031476" lon="8.983535860824253"><ele>120.79999999999998</ele><time>2026-04-25T12:15:25Z</time></trkpt><trkpt lat="39.56236421974263" lon="8.983618763452728"><ele>121.39999999999999</ele><time>2026-04-25T12:15:26Z</time></trkpt><trkpt lat="39.56228930755201" lon="8.9837011734632"><ele>122.0</ele><time>2026-04-25T12:15:27Z</time></trkpt><trkpt lat="39.56220931493344" lon="8.983780093138703"><ele>122.0</ele><time>2026-04-25T12:15:28Z</time></trkpt><trkpt lat="39.56211621639468" lon="8.983838350049297"><ele>121.99999999999999</ele><time>2026-04-25T12:15:29Z</time></trkpt><trkpt lat="39.56203193173431" lon="8.98391542382236"><ele>121.99999999999999</ele><time>2026-04-25T12:15:30Z</time></trkpt><trkpt lat="39.561951726811884" lon="8.984000949506147"><ele>122.0</ele><time>2026-04-25T12:15:31Z</time></trkpt><trkpt lat="39.56186158459784" lon="8.984073050710766"><ele>122.0</ele><time>2026-04-25T12:15:32Z</time></trkpt><trkpt lat="39.561774742472515" lon="8.984152259167043"><ele>123.0</ele><time>2026-04-25T12:15:33Z</time></trkpt><trkpt lat="39.56168516669406" lon="8.984233824030117"><ele>123.99999999999999</ele><time>2026-04-25T12:15:34Z</time></trkpt><trkpt lat="39.56159493508525" lon="8.984313872374791"><ele>124.99999999999999</ele><time>2026-04-25T12:15:35Z</time></trkpt><trkpt lat="39.5615060445317" lon="8.984396653112242"><ele>126.0</ele><time>2026-04-25T12:15:36Z</time></trkpt><trkpt lat="39.56142044943337" lon="8.984484384740034"><ele>127.0</ele><time>2026-04-25T12:15:37Z</time></trkpt><trkpt lat="39.56133920217737" lon="8.984579643946647"><ele>127.0</ele><time>2026-04-25T12:15:38Z</time></trkpt><trkpt lat="39.56126347292481" lon="8.984682002230409"><ele>126.99999999999999</ele><time>2026-04-25T12:15:39Z</time></trkpt><trkpt lat="39.561192742121385" lon="8.984788348668555"><ele>126.99999999999999</ele><time>2026-04-25T12:15:40Z</time></trkpt><trkpt lat="39.56110949202669" lon="8.984885113272044"><ele>127.0</ele><time>2026-04-25T12:15:41Z</time></trkpt><trkpt lat="39.56105400775386" lon="8.98501189015442"><ele>127.0</ele><time>2026-04-25T12:15:42Z</time></trkpt><trkpt lat="39.560986197740824" lon="8.98512577120584"><ele>127.8</ele><time>2026-04-25T12:15:43Z</time></trkpt><trkpt lat="39.56091890950886" lon="8.985244100423548"><ele>128.6</ele><time>2026-04-25T12:15:44Z</time></trkpt><trkpt lat="39.56083994370339" lon="8.985347744624482"><ele>129.39999999999998</ele><time>2026-04-25T12:15:45Z</time></trkpt><trkpt lat="39.56077441902092" lon="8.985463921147193"><ele>130.2</ele><time>2026-04-25T12:15:46Z</time></trkpt><trkpt lat="39.56072117981772" lon="8.98559148270801"><ele>131.0</ele><time>2026-04-25T12:15:47Z</time></trkpt><trkpt lat="39.56065372442401" lon="8.985703336810635"><ele>131.0</ele><time>2026-04-25T12:15:48Z</time></trkpt><trkpt lat="39.5605882407309" lon="8.985816904166072"><ele>131.0</ele><time>2026-04-25T12:15:49Z</time></trkpt><trkpt lat="39.56052670988068" lon="8.985928919914773"><ele>131.0</ele><time>2026-04-25T12:15:50Z</time></trkpt><trkpt lat="39.56046588297772" lon="8.986038676205563"><ele>131.0</ele><time>2026-04-25T12:15:51Z</time></trkpt><trkpt lat="39.5604056194642" lon="8.986148392834766"><ele>131.0</ele><time>2026-04-25T12:15:52Z</time></trkpt><trkpt lat="39.560342937668445" lon="8.986257169299465"><ele>132.4</ele><time>2026-04-25T12:15:53Z</time></trkpt><trkpt lat="39.56027864747103" lon="8.98636414186707"><ele>133.8</ele><time>2026-04-25T12:15:54Z</time></trkpt><trkpt lat="39.56021585767086" lon="8.986473655157162"><ele>135.20000000000002</ele><time>2026-04-25T12:15:55Z</time></trkpt><trkpt lat="39.56015392290152" lon="8.98658653813037"><ele>136.6</ele><time>2026-04-25T12:15:56Z</time></trkpt><trkpt lat="39.5600907274129" lon="8.986700064574919"><ele>138.0</ele><time>2026-04-25T12:15:57Z</time></trkpt><trkpt lat="39.56002469808044" lon="8.98681333320566"><ele>138.20000000000002</ele><time>2026-04-25T12:15:58Z</time></trkpt><trkpt lat="39.559956691102826" lon="8.986927878700708"><ele>138.4</ele><time>2026-04-25T12:15:59Z</time></trkpt><trkpt lat="39.5598896927468" lon="8.987043973170026"><ele>138.60000000000002</ele><time>2026-04-25T12:16:00Z</time></trkpt><trkpt lat="39.55982535304037" lon="8.987162717090753"><ele>138.8</ele><time>2026-04-25T12:16:01Z</time></trkpt><trkpt lat="39.55976130161555" lon="8.987281671362792"><ele>139.0</ele><time>2026-04-25T12:16:02Z</time></trkpt><trkpt lat="39.559695606886166" lon="8.98740247995565"><ele>138.75</ele><time>2026-04-25T12:16:03Z</time></trkpt><trkpt lat="39.55962606404662" lon="8.98752398766736"><ele>138.5</ele><time>2026-04-25T12:16:04Z</time></trkpt><trkpt lat="39.55954835520813" lon="8.98764406076919"><ele>138.25</ele><time>2026-04-25T12:16:05Z</time></trkpt><trkpt lat="39.559465544938234" lon="8.987761178087283"><ele>138.0</ele><time>2026-04-25T12:16:06Z</time></trkpt><trkpt lat="39.559376548785046" lon="8.987878224137333"><ele>137.5</ele><time>2026-04-25T12:16:07Z</time></trkpt><trkpt lat="39.55928423890504" lon="8.987998145528227"><ele>137.0</ele><time>2026-04-25T12:16:08Z</time></trkpt><trkpt lat="39.55919315852676" lon="8.988115778115684"><ele>136.5</ele><time>2026-04-25T12:16:09Z</time></trkpt><trkpt lat="39.55909728381555" lon="8.988234398363018"><ele>136.0</ele><time>2026-04-25T12:16:10Z</time></trkpt><trkpt lat="39.55899829039601" lon="8.988352364490005"><ele>136.0</ele><time>2026-04-25T12:16:11Z</time></trkpt><trkpt lat="39.55889826224509" lon="8.988472847850579"><ele>136.0</ele><time>2026-04-25T12:16:12Z</time></trkpt><trkpt lat="39.55880410832378" lon="8.988594932898682"><ele>136.0</ele><time>2026-04-25T12:16:13Z</time></trkpt><trkpt lat="39.55871522278528" lon="8.988722573928259"><ele>136.0</ele><time>2026-04-25T12:16:14Z</time></trkpt><trkpt lat="39.55864081671854" lon="8.988858372552606"><ele>135.5</ele><time>2026-04-25T12:16:15Z</time></trkpt><trkpt lat="39.55857547301537" lon="8.988997042499829"><ele>135.0</ele><time>2026-04-25T12:16:16Z</time></trkpt><trkpt lat="39.55851370019077" lon="8.989127722068938"><ele>134.5</ele><time>2026-04-25T12:16:17Z</time></trkpt><trkpt lat="39.558438946070524" lon="8.989245067446545"><ele>134.0</ele><time>2026-04-25T12:16:18Z</time></trkpt><trkpt lat="39.55835512950294" lon="8.989320546846395"><ele>135.4</ele><time>2026-04-25T12:16:19Z</time></trkpt><trkpt lat="39.55828377951998" lon="8.989404529618488"><ele>136.8</ele><time>2026-04-25T12:16:20Z</time></trkpt><trkpt lat="39.55825163060442" lon="8.98952738184687"><ele>138.2</ele><time>2026-04-25T12:16:21Z</time></trkpt><trkpt lat="39.558252037621486" lon="8.989656774343892"><ele>139.6</ele><time>2026-04-25T12:16:22Z</time></trkpt><trkpt lat="39.55817164512636" lon="8.989770138703314"><ele>141.0</ele><time>2026-04-25T12:16:23Z</time></trkpt><trkpt lat="39.55807758192469" lon="8.98985666639584"><ele>141.0</ele><time>2026-04-25T12:16:24Z</time></trkpt><trkpt lat="39.55795891565073" lon="8.989920583122379"><ele>141.0</ele><time>2026-04-25T12:16:25Z</time></trkpt><trkpt lat="39.557839420506156" lon="8.989981207906352"><ele>141.0</ele><time>2026-04-25T12:16:26Z</time></trkpt><trkpt lat="39.557710846023866" lon="8.990049784223284"><ele>141.0</ele><time>2026-04-25T12:16:27Z</time></trkpt><trkpt lat="39.55758594589683" lon="8.990141417441643"><ele>141.25</ele><time>2026-04-25T12:16:28Z</time></trkpt><trkpt lat="39.55747434434069" lon="8.990266509544124"><ele>141.5</ele><time>2026-04-25T12:16:29Z</time></trkpt><trkpt lat="39.557375720996646" lon="8.99041114410683"><ele>141.75</ele><time>2026-04-25T12:16:30Z</time></trkpt><trkpt lat="39.55728381924255" lon="8.990566790755999"><ele>142.0</ele><time>2026-04-25T12:16:31Z</time></trkpt><trkpt lat="39.55719083037012" lon="8.990722205140612"><ele>141.66666666666669</ele><time>2026-04-25T12:16:32Z</time></trkpt><trkpt lat="39.557094147366314" lon="8.990879016577484"><ele>141.33333333333334</ele><time>2026-04-25T12:16:33Z</time></trkpt><trkpt lat="39.55699316915147" lon="8.991036601846243"><ele>141.0</ele><time>2026-04-25T12:16:34Z</time></trkpt><trkpt lat="39.55688738751862" lon="8.991195932232408"><ele>141.0</ele><time>2026-04-25T12:16:35Z</time></trkpt><trkpt lat="39.556781297236505" lon="8.99135899536506"><ele>141.0</ele><time>2026-04-25T12:16:36Z</time></trkpt><trkpt lat="39.55667639791129" lon="8.991522016443781"><ele>141.0</ele><time>2026-04-25T12:16:37Z</time></trkpt><trkpt lat="39.55657278431769" lon="8.991687520152743"><ele>142.66666666666666</ele><time>2026-04-25T12:16:38Z</time></trkpt><trkpt lat="39.55647064317547" lon="8.991855655539325"><ele>144.33333333333331</ele><time>2026-04-25T12:16:39Z</time></trkpt><trkpt lat="39.556363695510996" lon="8.99202727080778"><ele>146.0</ele><time>2026-04-25T12:16:40Z</time></trkpt><trkpt lat="39.55625311364712" lon="8.992196080508192"><ele>146.33333333333331</ele><time>2026-04-25T12:16:41Z</time></trkpt><trkpt lat="39.55614320871305" lon="8.992365504948443"><ele>146.66666666666666</ele><time>2026-04-25T12:16:42Z</time></trkpt><trkpt lat="39.55603291870257" lon="8.992541372648432"><ele>147.0</ele><time>2026-04-25T12:16:43Z</time></trkpt><trkpt lat="39.555922306906545" lon="8.99271662954438"><ele>147.0</ele><time>2026-04-25T12:16:44Z</time></trkpt><trkpt lat="39.555802037588464" lon="8.992883298364736"><ele>147.0</ele><time>2026-04-25T12:16:45Z</time></trkpt><trkpt lat="39.55566414247971" lon="8.993031920874191"><ele>147.0</ele><time>2026-04-25T12:16:46Z</time></trkpt><trkpt lat="39.55551006362428" lon="8.993158722143448"><ele>146.0</ele><time>2026-04-25T12:16:47Z</time></trkpt><trkpt lat="39.55535702964758" lon="8.993274511345154"><ele>145.0</ele><time>2026-04-25T12:16:48Z</time></trkpt><trkpt lat="39.55521338410745" lon="8.993390314474553"><ele>144.0</ele><time>2026-04-25T12:16:49Z</time></trkpt><trkpt lat="39.55507631011965" lon="8.993511534406535"><ele>146.0</ele><time>2026-04-25T12:16:50Z</time></trkpt><trkpt lat="39.55495619862925" lon="8.993655555852149"><ele>148.0</ele><time>2026-04-25T12:16:51Z</time></trkpt><trkpt lat="39.554866881871966" lon="8.993834761273819"><ele>150.0</ele><time>2026-04-25T12:16:52Z</time></trkpt><trkpt lat="39.55480268680682" lon="8.994045173811987"><ele>152.66666666666666</ele><time>2026-04-25T12:16:53Z</time></trkpt><trkpt lat="39.55475108281791" lon="8.994270838751788"><ele>155.33333333333331</ele><time>2026-04-25T12:16:54Z</time></trkpt><trkpt lat="39.55469886997671" lon="8.994494429360945"><ele>158.0</ele><time>2026-04-25T12:16:55Z</time></trkpt><trkpt lat="39.55464196413526" lon="8.994717159881116"><ele>158.0</ele><time>2026-04-25T12:16:56Z</time></trkpt><trkpt lat="39.55458115928203" lon="8.994945168800562"><ele>158.0</ele><time>2026-04-25T12:16:57Z</time></trkpt><trkpt lat="39.55452208563777" lon="8.995172624777602"><ele>158.0</ele><time>2026-04-25T12:16:58Z</time></trkpt><trkpt lat="39.554462824222085" lon="8.995405123909952"><ele>157.66666666666666</ele><time>2026-04-25T12:16:59Z</time></trkpt><trkpt lat="39.554401831745515" lon="8.995638780921974"><ele>157.33333333333334</ele><time>2026-04-25T12:17:00Z</time></trkpt><trkpt lat="39.554339698311715" lon="8.995875868938285"><ele>157.0</ele><time>2026-04-25T12:17:01Z</time></trkpt><trkpt lat="39.55427774270586" lon="8.996111036133646"><ele>157.0</ele><time>2026-04-25T12:17:02Z</time></trkpt><trkpt lat="39.55421577304789" lon="8.996342759934162"><ele>157.0</ele><time>2026-04-25T12:17:03Z</time></trkpt><trkpt lat="39.55415088422683" lon="8.99657146797708"><ele>157.0</ele><time>2026-04-25T12:17:04Z</time></trkpt><trkpt lat="39.55408128931895" lon="8.996792631874284"><ele>159.0</ele><time>2026-04-25T12:17:05Z</time></trkpt><trkpt lat="39.55400128533695" lon="8.99700664534399"><ele>161.0</ele><time>2026-04-25T12:17:06Z</time></trkpt><trkpt lat="39.55391083706564" lon="8.9972087157232"><ele>163.0</ele><time>2026-04-25T12:17:07Z</time></trkpt><trkpt lat="39.55381754726456" lon="8.997402982196979"><ele>162.0</ele><time>2026-04-25T12:17:08Z</time></trkpt><trkpt lat="39.55372983547879" lon="8.997586112120125"><ele>161.0</ele><time>2026-04-25T12:17:09Z</time></trkpt><trkpt lat="39.55365045879401" lon="8.997754817698913"><ele>160.0</ele><time>2026-04-25T12:17:10Z</time></trkpt><trkpt lat="39.55358064647569" lon="8.997931452039598"><ele>160.0</ele><time>2026-04-25T12:17:11Z</time></trkpt><trkpt lat="39.55353536364793" lon="8.99812328836726"><ele>160.0</ele><time>2026-04-25T12:17:12Z</time></trkpt><trkpt lat="39.55351671671636" lon="8.998329289518095"><ele>160.0</ele><time>2026-04-25T12:17:13Z</time></trkpt><trkpt lat="39.55352159326244" lon="8.998539346901287"><ele>161.0</ele><time>2026-04-25T12:17:14Z</time></trkpt><trkpt lat="39.55353555202189" lon="8.99874930120831"><ele>162.0</ele><time>2026-04-25T12:17:15Z</time></trkpt><trkpt lat="39.5535456893958" lon="8.998966775100246"><ele>163.0</ele><time>2026-04-25T12:17:16Z</time></trkpt><trkpt lat="39.55354833235287" lon="8.999181904201214"><ele>163.66666666666669</ele><time>2026-04-25T12:17:17Z</time></trkpt><trkpt lat="39.5535493951718" lon="8.99940477139401"><ele>164.33333333333334</ele><time>2026-04-25T12:17:18Z</time></trkpt><trkpt lat="39.55355741068741" lon="8.999624819905915"><ele>165.0</ele><time>2026-04-25T12:17:19Z</time></trkpt><trkpt lat="39.55357723892687" lon="8.999840134310569"><ele>165.0</ele><time>2026-04-25T12:17:20Z</time></trkpt><trkpt lat="39.55362556644779" lon="9.000040441321158"><ele>165.0</ele><time>2026-04-25T12:17:21Z</time></trkpt><trkpt lat="39.55371601550795" lon="9.00021551115952"><ele>165.0</ele><time>2026-04-25T12:17:22Z</time></trkpt><trkpt lat="39.55383517151014" lon="9.000354788007106"><ele>167.66666666666666</ele><time>2026-04-25T12:17:23Z</time></trkpt><trkpt lat="39.553971021957615" lon="9.000474457776551"><ele>170.33333333333331</ele><time>2026-04-25T12:17:24Z</time></trkpt><trkpt lat="39.554110981798054" lon="9.000581442252448"><ele>173.0</ele><time>2026-04-25T12:17:25Z</time></trkpt><trkpt lat="39.55426313723168" lon="9.000657965552405"><ele>173.0</ele><time>2026-04-25T12:17:26Z</time></trkpt><trkpt lat="39.55441273096386" lon="9.000733229030459"><ele>173.0</ele><time>2026-04-25T12:17:27Z</time></trkpt><trkpt lat="39.55454239001571" lon="9.000844531792257"><ele>173.0</ele><time>2026-04-25T12:17:28Z</time></trkpt><trkpt lat="39.55463762593053" lon="9.001003277188053"><ele>175.66666666666666</ele><time>2026-04-25T12:17:29Z</time></trkpt><trkpt lat="39.55469780928969" lon="9.001200973710134"><ele>178.33333333333334</ele><time>2026-04-25T12:17:30Z</time></trkpt><trkpt lat="39.55473946769466" lon="9.001403523225983"><ele>181.0</ele><time>2026-04-25T12:17:31Z</time></trkpt><trkpt lat="39.554800766231835" lon="9.001599144879524"><ele>180.33333333333334</ele><time>2026-04-25T12:17:32Z</time></trkpt><trkpt lat="39.55488510864281" lon="9.001791190385163"><ele>179.66666666666666</ele><time>2026-04-25T12:17:33Z</time></trkpt><trkpt lat="39.55497710426896" lon="9.001972107112476"><ele>179.0</ele><time>2026-04-25T12:17:34Z</time></trkpt><trkpt lat="39.55506934995361" lon="9.002144575976812"><ele>179.0</ele><time>2026-04-25T12:17:35Z</time></trkpt><trkpt lat="39.55515977678553" lon="9.00231904387616"><ele>179.0</ele><time>2026-04-25T12:17:36Z</time></trkpt><trkpt lat="39.555244885876164" lon="9.002496289950912"><ele>179.0</ele><time>2026-04-25T12:17:37Z</time></trkpt><trkpt lat="39.55531902017297" lon="9.002683680227973"><ele>181.0</ele><time>2026-04-25T12:17:38Z</time></trkpt><trkpt lat="39.5553724020598" lon="9.002892836939864"><ele>183.0</ele><time>2026-04-25T12:17:39Z</time></trkpt><trkpt lat="39.555404573567614" lon="9.003109032060635"><ele>185.0</ele><time>2026-04-25T12:17:40Z</time></trkpt><trkpt lat="39.55542263698409" lon="9.003329257384602"><ele>184.33333333333331</ele><time>2026-04-25T12:17:41Z</time></trkpt><trkpt lat="39.55544275112524" lon="9.00355578829712"><ele>183.66666666666666</ele><time>2026-04-25T12:17:42Z</time></trkpt><trkpt lat="39.55546467082783" lon="9.003778376796587"><ele>183.0</ele><time>2026-04-25T12:17:43Z</time></trkpt><trkpt lat="39.55548880966678" lon="9.004001878133788"><ele>183.33333333333334</ele><time>2026-04-25T12:17:44Z</time></trkpt><trkpt lat="39.55551301983064" lon="9.004223312455837"><ele>183.66666666666669</ele><time>2026-04-25T12:17:45Z</time></trkpt><trkpt lat="39.555530805799265" lon="9.004447968328694"><ele>184.0</ele><time>2026-04-25T12:17:46Z</time></trkpt><trkpt lat="39.55554556688451" lon="9.004670566090255"><ele>184.0</ele><time>2026-04-25T12:17:47Z</time></trkpt><trkpt lat="39.55556267639576" lon="9.004892271923469"><ele>184.0</ele><time>2026-04-25T12:17:48Z</time></trkpt><trkpt lat="39.5555867446273" lon="9.005115895917246"><ele>184.0</ele><time>2026-04-25T12:17:49Z</time></trkpt><trkpt lat="39.55561005917928" lon="9.005339174005817"><ele>185.0</ele><time>2026-04-25T12:17:50Z</time></trkpt><trkpt lat="39.55563015576649" lon="9.005564909986887"><ele>186.0</ele><time>2026-04-25T12:17:51Z</time></trkpt><trkpt lat="39.555649339021755" lon="9.005795939773847"><ele>187.0</ele><time>2026-04-25T12:17:52Z</time></trkpt><trkpt lat="39.55567003002642" lon="9.006025914716481"><ele>187.66666666666669</ele><time>2026-04-25T12:17:53Z</time></trkpt><trkpt lat="39.555693059800525" lon="9.006255756040934"><ele>188.33333333333334</ele><time>2026-04-25T12:17:54Z</time></trkpt><trkpt lat="39.55571631683184" lon="9.00648830014468"><ele>189.0</ele><time>2026-04-25T12:17:55Z</time></trkpt><trkpt lat="39.555738549775164" lon="9.006724508272935"><ele>189.33333333333334</ele><time>2026-04-25T12:17:56Z</time></trkpt><trkpt lat="39.55576054868716" lon="9.006960942480047"><ele>189.66666666666669</ele><time>2026-04-25T12:17:57Z</time></trkpt><trkpt lat="39.55578321135036" lon="9.007196134922957"><ele>190.0</ele><time>2026-04-25T12:17:58Z</time></trkpt><trkpt lat="39.55580536386532" lon="9.007434026785571"><ele>190.33333333333334</ele><time>2026-04-25T12:17:59Z</time></trkpt><trkpt lat="39.55582697020898" lon="9.007674027024967"><ele>190.66666666666666</ele><time>2026-04-25T12:18:00Z</time></trkpt><trkpt lat="39.55584953039807" lon="9.007916741460562"><ele>191.0</ele><time>2026-04-25T12:18:01Z</time></trkpt><trkpt lat="39.5558733439289" lon="9.008160948626053"><ele>191.33333333333331</ele><time>2026-04-25T12:18:02Z</time></trkpt><trkpt lat="39.55589553134047" lon="9.008407617547997"><ele>191.66666666666666</ele><time>2026-04-25T12:18:03Z</time></trkpt><trkpt lat="39.555918917193665" lon="9.008654243684878"><ele>192.0</ele><time>2026-04-25T12:18:04Z</time></trkpt><trkpt lat="39.55594131036663" lon="9.008902209819682"><ele>192.0</ele><time>2026-04-25T12:18:05Z</time></trkpt><trkpt lat="39.5559629695235" lon="9.009149277981376"><ele>192.0</ele><time>2026-04-25T12:18:06Z</time></trkpt><trkpt lat="39.555983509691146" lon="9.009398703015494"><ele>192.0</ele><time>2026-04-25T12:18:07Z</time></trkpt><trkpt lat="39.55600318160059" lon="9.009646088514089"><ele>193.33333333333331</ele><time>2026-04-25T12:18:08Z</time></trkpt><trkpt lat="39.556025396403044" lon="9.009894226487614"><ele>194.66666666666666</ele><time>2026-04-25T12:18:09Z</time></trkpt><trkpt lat="39.55604993576927" lon="9.010142898798158"><ele>196.0</ele><time>2026-04-25T12:18:10Z</time></trkpt><trkpt lat="39.556073861118136" lon="9.010391925919517"><ele>196.66666666666666</ele><time>2026-04-25T12:18:11Z</time></trkpt><trkpt lat="39.556094824268" lon="9.010638203647783"><ele>197.33333333333331</ele><time>2026-04-25T12:18:12Z</time></trkpt><trkpt lat="39.556117079110486" lon="9.010884822910548"><ele>198.0</ele><time>2026-04-25T12:18:13Z</time></trkpt><trkpt lat="39.55613968713179" lon="9.01113170442292"><ele>198.0</ele><time>2026-04-25T12:18:14Z</time></trkpt><trkpt lat="39.55616192719443" lon="9.011379926924304"><ele>198.0</ele><time>2026-04-25T12:18:15Z</time></trkpt><trkpt lat="39.55618606038742" lon="9.011626438026937"><ele>198.0</ele><time>2026-04-25T12:18:16Z</time></trkpt><trkpt lat="39.556209883722424" lon="9.011873938687948"><ele>198.0</ele><time>2026-04-25T12:18:17Z</time></trkpt><trkpt lat="39.55623454168766" lon="9.012122027639881"><ele>198.0</ele><time>2026-04-25T12:18:18Z</time></trkpt><trkpt lat="39.556257493936705" lon="9.012371667746667"><ele>198.0</ele><time>2026-04-25T12:18:19Z</time></trkpt><trkpt lat="39.55627873140039" lon="9.012621404024875"><ele>197.66666666666669</ele><time>2026-04-25T12:18:20Z</time></trkpt><trkpt lat="39.55629943226666" lon="9.01287532995236"><ele>197.33333333333334</ele><time>2026-04-25T12:18:21Z</time></trkpt><trkpt lat="39.5563225685012" lon="9.013128160970957"><ele>197.0</ele><time>2026-04-25T12:18:22Z</time></trkpt><trkpt lat="39.556347435366554" lon="9.013382750702988"><ele>196.0</ele><time>2026-04-25T12:18:23Z</time></trkpt><trkpt lat="39.556373423656" lon="9.013635198652828"><ele>195.0</ele><time>2026-04-25T12:18:24Z</time></trkpt><trkpt lat="39.55639845384212" lon="9.013885606715322"><ele>194.0</ele><time>2026-04-25T12:18:25Z</time></trkpt><trkpt lat="39.55642029556197" lon="9.014133234675427"><ele>193.0</ele><time>2026-04-25T12:18:26Z</time></trkpt><trkpt lat="39.556441869880466" lon="9.014377052724356"><ele>192.0</ele><time>2026-04-25T12:18:27Z</time></trkpt><trkpt lat="39.55646331390033" lon="9.014623041039709"><ele>191.0</ele><time>2026-04-25T12:18:28Z</time></trkpt><trkpt lat="39.556484670248445" lon="9.014868097680877"><ele>190.33333333333331</ele><time>2026-04-25T12:18:29Z</time></trkpt><trkpt lat="39.556504994722644" lon="9.015115330798997"><ele>189.66666666666666</ele><time>2026-04-25T12:18:30Z</time></trkpt><trkpt lat="39.556527036368415" lon="9.015363461379676"><ele>189.0</ele><time>2026-04-25T12:18:31Z</time></trkpt><trkpt lat="39.556549072357" lon="9.015610325191885"><ele>188.66666666666666</ele><time>2026-04-25T12:18:32Z</time></trkpt><trkpt lat="39.55657155054047" lon="9.01585327275292"><ele>188.33333333333331</ele><time>2026-04-25T12:18:33Z</time></trkpt><trkpt lat="39.55658347593431" lon="9.016102686898268"><ele>188.0</ele><time>2026-04-25T12:18:34Z</time></trkpt><trkpt lat="39.55656218716355" lon="9.016343973055196"><ele>188.0</ele><time>2026-04-25T12:18:35Z</time></trkpt><trkpt lat="39.55652475505989" lon="9.016589054184399"><ele>188.0</ele><time>2026-04-25T12:18:36Z</time></trkpt><trkpt lat="39.55648260440578" lon="9.016832044452485"><ele>188.0</ele><time>2026-04-25T12:18:37Z</time></trkpt><trkpt lat="39.55644069959813" lon="9.017074604388327"><ele>187.33333333333331</ele><time>2026-04-25T12:18:38Z</time></trkpt><trkpt lat="39.55639880645195" lon="9.01732041703741"><ele>186.66666666666666</ele><time>2026-04-25T12:18:39Z</time></trkpt><trkpt lat="39.5563566268188" lon="9.017570104831377"><ele>186.0</ele><time>2026-04-25T12:18:40Z</time></trkpt><trkpt lat="39.55631497186385" lon="9.017821046149011"><ele>184.66666666666666</ele><time>2026-04-25T12:18:41Z</time></trkpt><trkpt lat="39.55627509919196" lon="9.018071875314764"><ele>183.33333333333331</ele><time>2026-04-25T12:18:42Z</time></trkpt><trkpt lat="39.556241207143216" lon="9.018327114170706"><ele>182.0</ele><time>2026-04-25T12:18:43Z</time></trkpt><trkpt lat="39.55621587202323" lon="9.018583719179377"><ele>181.33333333333331</ele><time>2026-04-25T12:18:44Z</time></trkpt><trkpt lat="39.55620424890244" lon="9.018843311661454"><ele>180.66666666666666</ele><time>2026-04-25T12:18:45Z</time></trkpt><trkpt lat="39.55619973147998" lon="9.019103587693381"><ele>180.0</ele><time>2026-04-25T12:18:46Z</time></trkpt><trkpt lat="39.55619480300776" lon="9.019360202664192"><ele>180.33333333333334</ele><time>2026-04-25T12:18:47Z</time></trkpt><trkpt lat="39.556188087878695" lon="9.019613629172934"><ele>180.66666666666669</ele><time>2026-04-25T12:18:48Z</time></trkpt><trkpt lat="39.55618171336795" lon="9.01986642758824"><ele>181.0</ele><time>2026-04-25T12:18:49Z</time></trkpt><trkpt lat="39.556175787786835" lon="9.020117004283536"><ele>181.0</ele><time>2026-04-25T12:18:50Z</time></trkpt><trkpt lat="39.55616981388746" lon="9.020367676563502"><ele>181.0</ele><time>2026-04-25T12:18:51Z</time></trkpt><trkpt lat="39.55616540104403" lon="9.020615273105273"><ele>181.0</ele><time>2026-04-25T12:18:52Z</time></trkpt><trkpt lat="39.55616019768753" lon="9.020863431592677"><ele>180.66666666666669</ele><time>2026-04-25T12:18:53Z</time></trkpt><trkpt lat="39.556151677744985" lon="9.021110041936014"><ele>180.33333333333334</ele><time>2026-04-25T12:18:54Z</time></trkpt><trkpt lat="39.55614248146695" lon="9.021356588130725"><ele>180.0</ele><time>2026-04-25T12:18:55Z</time></trkpt><trkpt lat="39.55613604948288" lon="9.021599785685845"><ele>180.66666666666666</ele><time>2026-04-25T12:18:56Z</time></trkpt><trkpt lat="39.55612876398877" lon="9.02184046875148"><ele>181.33333333333331</ele><time>2026-04-25T12:18:57Z</time></trkpt><trkpt lat="39.556107505665516" lon="9.022067212747762"><ele>182.0</ele><time>2026-04-25T12:18:58Z</time></trkpt><trkpt lat="39.55605445708836" lon="9.022289429831332"><ele>183.0</ele><time>2026-04-25T12:18:59Z</time></trkpt><trkpt lat="39.55597023890128" lon="9.022491689843052"><ele>184.0</ele><time>2026-04-25T12:19:00Z</time></trkpt><trkpt lat="39.55587697404645" lon="9.022676290741305"><ele>185.0</ele><time>2026-04-25T12:19:01Z</time></trkpt><trkpt lat="39.55580695833217" lon="9.022871071858022"><ele>185.0</ele><time>2026-04-25T12:19:02Z</time></trkpt><trkpt lat="39.555771215927216" lon="9.023076579483577"><ele>185.0</ele><time>2026-04-25T12:19:03Z</time></trkpt><trkpt lat="39.55578395368613" lon="9.023288889198072"><ele>185.0</ele><time>2026-04-25T12:19:04Z</time></trkpt><trkpt lat="39.55583469425812" lon="9.02350366772518"><ele>186.0</ele><time>2026-04-25T12:19:05Z</time></trkpt><trkpt lat="39.55590625908146" lon="9.023717264042274"><ele>187.0</ele><time>2026-04-25T12:19:06Z</time></trkpt><trkpt lat="39.55597124422904" lon="9.023936421767887"><ele>188.0</ele><time>2026-04-25T12:19:07Z</time></trkpt><trkpt lat="39.556029416071844" lon="9.024156385423943"><ele>189.0</ele><time>2026-04-25T12:19:08Z</time></trkpt><trkpt lat="39.556090867699766" lon="9.024375493687318"><ele>190.0</ele><time>2026-04-25T12:19:09Z</time></trkpt><trkpt lat="39.55615346855401" lon="9.024591285338529"><ele>191.0</ele><time>2026-04-25T12:19:10Z</time></trkpt><trkpt lat="39.556206369616675" lon="9.024808085627901"><ele>192.0</ele><time>2026-04-25T12:19:11Z</time></trkpt><trkpt lat="39.556229634312196" lon="9.025029759888294"><ele>193.0</ele><time>2026-04-25T12:19:12Z</time></trkpt><trkpt lat="39.55621505297949" lon="9.025252679134327"><ele>194.0</ele><time>2026-04-25T12:19:13Z</time></trkpt><trkpt lat="39.55618460120718" lon="9.0254732538523"><ele>194.0</ele><time>2026-04-25T12:19:14Z</time></trkpt><trkpt lat="39.556166083566914" lon="9.02569332831927"><ele>194.0</ele><time>2026-04-25T12:19:15Z</time></trkpt><trkpt lat="39.556176763752184" lon="9.02591633078024"><ele>194.0</ele><time>2026-04-25T12:19:16Z</time></trkpt><trkpt lat="39.55621415648063" lon="9.026139889817147"><ele>197.0</ele><time>2026-04-25T12:19:17Z</time></trkpt><trkpt lat="39.55626602565437" lon="9.02635988100865"><ele>200.0</ele><time>2026-04-25T12:19:18Z</time></trkpt><trkpt lat="39.556317024966255" lon="9.026581515367782"><ele>203.0</ele><time>2026-04-25T12:19:19Z</time></trkpt><trkpt lat="39.556363215756875" lon="9.026806880241955"><ele>204.0</ele><time>2026-04-25T12:19:20Z</time></trkpt><trkpt lat="39.5564074992821" lon="9.027030054829666"><ele>205.0</ele><time>2026-04-25T12:19:21Z</time></trkpt><trkpt lat="39.55645351397996" lon="9.027251065378953"><ele>206.0</ele><time>2026-04-25T12:19:22Z</time></trkpt><trkpt lat="39.55650166478593" lon="9.027471553629283"><ele>206.66666666666669</ele><time>2026-04-25T12:19:23Z</time></trkpt><trkpt lat="39.55654884235844" lon="9.027691803317264"><ele>207.33333333333331</ele><time>2026-04-25T12:19:24Z</time></trkpt><trkpt lat="39.55659134397818" lon="9.027913720878873"><ele>208.0</ele><time>2026-04-25T12:19:25Z</time></trkpt><trkpt lat="39.556621969068594" lon="9.028136769775028"><ele>208.33333333333331</ele><time>2026-04-25T12:19:26Z</time></trkpt><trkpt lat="39.5566206089703" lon="9.028362347658481"><ele>208.66666666666669</ele><time>2026-04-25T12:19:27Z</time></trkpt><trkpt lat="39.55658866345927" lon="9.02858360584335"><ele>209.0</ele><time>2026-04-25T12:19:28Z</time></trkpt><trkpt lat="39.55654071260428" lon="9.028802590394058"><ele>209.0</ele><time>2026-04-25T12:19:29Z</time></trkpt><trkpt lat="39.55650004430549" lon="9.029022435444034"><ele>209.0</ele><time>2026-04-25T12:19:30Z</time></trkpt><trkpt lat="39.556469087582286" lon="9.02923995219135"><ele>209.0</ele><time>2026-04-25T12:19:31Z</time></trkpt><trkpt lat="39.55645306103469" lon="9.029455195897444"><ele>210.33333333333334</ele><time>2026-04-25T12:19:32Z</time></trkpt><trkpt lat="39.55647328582924" lon="9.02966415559257"><ele>211.66666666666669</ele><time>2026-04-25T12:19:33Z</time></trkpt><trkpt lat="39.55653605175433" lon="9.02986116140237"><ele>213.0</ele><time>2026-04-25T12:19:34Z</time></trkpt><trkpt lat="39.55663277211522" lon="9.030037319453415"><ele>214.0</ele><time>2026-04-25T12:19:35Z</time></trkpt><trkpt lat="39.55672741591487" lon="9.03020834022754"><ele>215.0</ele><time>2026-04-25T12:19:36Z</time></trkpt><trkpt lat="39.55680614481468" lon="9.030393848246977"><ele>216.0</ele><time>2026-04-25T12:19:37Z</time></trkpt><trkpt lat="39.55686178044685" lon="9.030593507499816"><ele>216.0</ele><time>2026-04-25T12:19:38Z</time></trkpt><trkpt lat="39.556904400598896" lon="9.030799360051676"><ele>216.0</ele><time>2026-04-25T12:19:39Z</time></trkpt><trkpt lat="39.55694518970373" lon="9.031006956777011"><ele>216.0</ele><time>2026-04-25T12:19:40Z</time></trkpt><trkpt lat="39.55698795355567" lon="9.031218471038617"><ele>216.33333333333331</ele><time>2026-04-25T12:19:41Z</time></trkpt><trkpt lat="39.5570312562391" lon="9.031427306563929"><ele>216.66666666666666</ele><time>2026-04-25T12:19:42Z</time></trkpt><trkpt lat="39.557075357111366" lon="9.03163498810651"><ele>217.0</ele><time>2026-04-25T12:19:43Z</time></trkpt><trkpt lat="39.55711792170475" lon="9.031840782531393"><ele>215.66666666666666</ele><time>2026-04-25T12:19:44Z</time></trkpt><trkpt lat="39.55715919030344" lon="9.032043419051496"><ele>214.33333333333331</ele><time>2026-04-25T12:19:45Z</time></trkpt><trkpt lat="39.55719925203812" lon="9.032246502228862"><ele>213.0</ele><time>2026-04-25T12:19:46Z</time></trkpt><trkpt lat="39.557240242235245" lon="9.032449199252518"><ele>213.0</ele><time>2026-04-25T12:19:47Z</time></trkpt><trkpt lat="39.55728086262424" lon="9.032652538476947"><ele>213.0</ele><time>2026-04-25T12:19:48Z</time></trkpt><trkpt lat="39.55732922785861" lon="9.032856435699914"><ele>213.0</ele><time>2026-04-25T12:19:49Z</time></trkpt><trkpt lat="39.55736176410949" lon="9.033068727429594"><ele>213.0</ele><time>2026-04-25T12:19:50Z</time></trkpt><trkpt lat="39.55740511211533" lon="9.033278754170246"><ele>213.0</ele><time>2026-04-25T12:19:51Z</time></trkpt><trkpt lat="39.5574521945016" lon="9.033467553111198"><ele>213.0</ele><time>2026-04-25T12:19:52Z</time></trkpt><trkpt lat="39.55749264838395" lon="9.033672286206412"><ele>212.0</ele><time>2026-04-25T12:19:53Z</time></trkpt><trkpt lat="39.557535694564464" lon="9.033871600200737"><ele>211.0</ele><time>2026-04-25T12:19:54Z</time></trkpt><trkpt lat="39.55757791488477" lon="9.034071568636172"><ele>210.0</ele><time>2026-04-25T12:19:55Z</time></trkpt><trkpt lat="39.557613373304044" lon="9.034267875369679"><ele>209.33333333333331</ele><time>2026-04-25T12:19:56Z</time></trkpt><trkpt lat="39.55765839192262" lon="9.034466291243662"><ele>208.66666666666666</ele><time>2026-04-25T12:19:57Z</time></trkpt><trkpt lat="39.55769634502687" lon="9.034657329010773"><ele>208.0</ele><time>2026-04-25T12:19:58Z</time></trkpt><trkpt lat="39.55773430916128" lon="9.034841884643855"><ele>208.0</ele><time>2026-04-25T12:19:59Z</time></trkpt><trkpt lat="39.557772504656896" lon="9.035026580465221"><ele>208.0</ele><time>2026-04-25T12:20:00Z</time></trkpt><trkpt lat="39.557809481062776" lon="9.035209008388211"><ele>208.0</ele><time>2026-04-25T12:20:01Z</time></trkpt><trkpt lat="39.557846137118865" lon="9.0353876144509"><ele>208.0</ele><time>2026-04-25T12:20:02Z</time></trkpt><trkpt lat="39.55788279240227" lon="9.035563753537724"><ele>208.0</ele><time>2026-04-25T12:20:03Z</time></trkpt><trkpt lat="39.557904076565876" lon="9.03574238996562"><ele>208.0</ele><time>2026-04-25T12:20:04Z</time></trkpt><trkpt lat="39.557937634081554" lon="9.035912704222941"><ele>208.0</ele><time>2026-04-25T12:20:05Z</time></trkpt><trkpt lat="39.55797072906987" lon="9.036083856044941"><ele>208.0</ele><time>2026-04-25T12:20:06Z</time></trkpt><trkpt lat="39.558018637119545" lon="9.036245360070533"><ele>207.75</ele><time>2026-04-25T12:20:07Z</time></trkpt><trkpt lat="39.55805066390827" lon="9.036409428168083"><ele>207.5</ele><time>2026-04-25T12:20:08Z</time></trkpt><trkpt lat="39.55808329600958" lon="9.0365704353183"><ele>207.25</ele><time>2026-04-25T12:20:09Z</time></trkpt><trkpt lat="39.55810036763728" lon="9.03673473486963"><ele>207.0</ele><time>2026-04-25T12:20:10Z</time></trkpt><trkpt lat="39.55813329329218" lon="9.036891197978987"><ele>206.75</ele><time>2026-04-25T12:20:11Z</time></trkpt><trkpt lat="39.558166736597144" lon="9.03704576071259"><ele>206.5</ele><time>2026-04-25T12:20:12Z</time></trkpt><trkpt lat="39.558201457086774" lon="9.037199348134958"><ele>206.25</ele><time>2026-04-25T12:20:13Z</time></trkpt><trkpt lat="39.55824855263013" lon="9.0373478025227"><ele>206.0</ele><time>2026-04-25T12:20:14Z</time></trkpt><trkpt lat="39.5582781987609" lon="9.037504616104142"><ele>205.25</ele><time>2026-04-25T12:20:15Z</time></trkpt><trkpt lat="39.55831005626722" lon="9.037661955803433"><ele>204.5</ele><time>2026-04-25T12:20:16Z</time></trkpt><trkpt lat="39.55834331167991" lon="9.03782066842229"><ele>203.75</ele><time>2026-04-25T12:20:17Z</time></trkpt><trkpt lat="39.55837695207675" lon="9.037980644911475"><ele>203.0</ele><time>2026-04-25T12:20:18Z</time></trkpt><trkpt lat="39.55840954865696" lon="9.038142042234796"><ele>203.25</ele><time>2026-04-25T12:20:19Z</time></trkpt><trkpt lat="39.55844270952358" lon="9.038305150703843"><ele>203.5</ele><time>2026-04-25T12:20:20Z</time></trkpt><trkpt lat="39.55847630656166" lon="9.03846934296746"><ele>203.75</ele><time>2026-04-25T12:20:21Z</time></trkpt><trkpt lat="39.5585100802643" lon="9.03863333984384"><ele>204.0</ele><time>2026-04-25T12:20:22Z</time></trkpt><trkpt lat="39.55854327446188" lon="9.038797993200314"><ele>204.0</ele><time>2026-04-25T12:20:23Z</time></trkpt><trkpt lat="39.55857792569693" lon="9.038961680078277"><ele>204.0</ele><time>2026-04-25T12:20:24Z</time></trkpt><trkpt lat="39.55861358295545" lon="9.039125699962154"><ele>204.0</ele><time>2026-04-25T12:20:25Z</time></trkpt><trkpt lat="39.558648648036694" lon="9.039287778562555"><ele>204.0</ele><time>2026-04-25T12:20:26Z</time></trkpt><trkpt lat="39.558682539921975" lon="9.039450198573688"><ele>203.25</ele><time>2026-04-25T12:20:27Z</time></trkpt><trkpt lat="39.558713608856344" lon="9.039612955957212"><ele>202.5</ele><time>2026-04-25T12:20:28Z</time></trkpt><trkpt lat="39.55874571757079" lon="9.039774163310298"><ele>201.75</ele><time>2026-04-25T12:20:29Z</time></trkpt><trkpt lat="39.55877814541357" lon="9.039934434248355"><ele>201.0</ele><time>2026-04-25T12:20:30Z</time></trkpt><trkpt lat="39.55881025522964" lon="9.040093419977064"><ele>201.0</ele><time>2026-04-25T12:20:31Z</time></trkpt><trkpt lat="39.55883978540694" lon="9.040251667517767"><ele>201.0</ele><time>2026-04-25T12:20:32Z</time></trkpt><trkpt lat="39.55886772306008" lon="9.040409558707807"><ele>201.0</ele><time>2026-04-25T12:20:33Z</time></trkpt><trkpt lat="39.558900187794436" lon="9.04056820800888"><ele>201.0</ele><time>2026-04-25T12:20:34Z</time></trkpt><trkpt lat="39.55893709494273" lon="9.040724428310224"><ele>202.0</ele><time>2026-04-25T12:20:35Z</time></trkpt><trkpt lat="39.55897124218341" lon="9.040884769022913"><ele>203.0</ele><time>2026-04-25T12:20:36Z</time></trkpt><trkpt lat="39.559005029643814" lon="9.041044785995263"><ele>204.0</ele><time>2026-04-25T12:20:37Z</time></trkpt><trkpt lat="39.559037625142736" lon="9.041208246058474"><ele>205.0</ele><time>2026-04-25T12:20:38Z</time></trkpt><trkpt lat="39.55907100120187" lon="9.04137302690213"><ele>205.0</ele><time>2026-04-25T12:20:39Z</time></trkpt><trkpt lat="39.55910603415255" lon="9.041537398599854"><ele>205.0</ele><time>2026-04-25T12:20:40Z</time></trkpt><trkpt lat="39.55913941149609" lon="9.041702193165252"><ele>205.0</ele><time>2026-04-25T12:20:41Z</time></trkpt><trkpt lat="39.55917435565811" lon="9.041866171469442"><ele>205.0</ele><time>2026-04-25T12:20:42Z</time></trkpt><trkpt lat="39.55920776805556" lon="9.042027441211598"><ele>205.25</ele><time>2026-04-25T12:20:43Z</time></trkpt><trkpt lat="39.55924057913458" lon="9.04218024538674"><ele>205.5</ele><time>2026-04-25T12:20:44Z</time></trkpt><trkpt lat="39.55927213453272" lon="9.042327848300925"><ele>205.75</ele><time>2026-04-25T12:20:45Z</time></trkpt><trkpt lat="39.559302063716686" lon="9.042474229073663"><ele>206.0</ele><time>2026-04-25T12:20:46Z</time></trkpt><trkpt lat="39.55932883084515" lon="9.04262429496747"><ele>206.4</ele><time>2026-04-25T12:20:47Z</time></trkpt><trkpt lat="39.55935967949448" lon="9.042769706538396"><ele>206.8</ele><time>2026-04-25T12:20:48Z</time></trkpt><trkpt lat="39.55938702056812" lon="9.042907717721722"><ele>207.20000000000002</ele><time>2026-04-25T12:20:49Z</time></trkpt><trkpt lat="39.5594100335407" lon="9.04304107247638"><ele>207.60000000000002</ele><time>2026-04-25T12:20:50Z</time></trkpt><trkpt lat="39.55943348258146" lon="9.043168451558907"><ele>208.0</ele><time>2026-04-25T12:20:51Z</time></trkpt><trkpt lat="39.559460774559774" lon="9.04328814094641"><ele>207.83333333333331</ele><time>2026-04-25T12:20:52Z</time></trkpt><trkpt lat="39.55948019916964" lon="9.043403274961605"><ele>207.66666666666666</ele><time>2026-04-25T12:20:53Z</time></trkpt><trkpt lat="39.55948855093047" lon="9.043512895107588"><ele>207.5</ele><time>2026-04-25T12:20:54Z</time></trkpt><trkpt lat="39.559484934277684" lon="9.043617896593107"><ele>207.33333333333331</ele><time>2026-04-25T12:20:55Z</time></trkpt><trkpt lat="39.55947061620084" lon="9.043720521453528"><ele>207.16666666666666</ele><time>2026-04-25T12:20:56Z</time></trkpt><trkpt lat="39.559433832945615" lon="9.043818183774276"><ele>207.0</ele><time>2026-04-25T12:20:57Z</time></trkpt><trkpt lat="39.5594100122051" lon="9.043926345742832"><ele>207.0</ele><time>2026-04-25T12:20:58Z</time></trkpt><trkpt lat="39.55938348677776" lon="9.04403882491747"><ele>207.0</ele><time>2026-04-25T12:20:59Z</time></trkpt><trkpt lat="39.559358645189654" lon="9.044155585574414"><ele>207.0</ele><time>2026-04-25T12:21:00Z</time></trkpt><trkpt lat="39.55933351114528" lon="9.044273721319716"><ele>207.0</ele><time>2026-04-25T12:21:01Z</time></trkpt><trkpt lat="39.55930774083501" lon="9.044394847634205"><ele>207.0</ele><time>2026-04-25T12:21:02Z</time></trkpt><trkpt lat="39.559281055808995" lon="9.044520273309814"><ele>206.8</ele><time>2026-04-25T12:21:03Z</time></trkpt><trkpt lat="39.5592700389925" lon="9.044651885127193"><ele>206.6</ele><time>2026-04-25T12:21:04Z</time></trkpt><trkpt lat="39.559240470278105" lon="9.044780589118346"><ele>206.4</ele><time>2026-04-25T12:21:05Z</time></trkpt><trkpt lat="39.55920883565042" lon="9.044908468379868"><ele>206.20000000000002</ele><time>2026-04-25T12:21:06Z</time></trkpt><trkpt lat="39.55918231940653" lon="9.045037546660494"><ele>206.0</ele><time>2026-04-25T12:21:07Z</time></trkpt><trkpt lat="39.55915512486191" lon="9.045163209081087"><ele>205.8</ele><time>2026-04-25T12:21:08Z</time></trkpt><trkpt lat="39.559123313115556" lon="9.045284425261134"><ele>205.60000000000002</ele><time>2026-04-25T12:21:09Z</time></trkpt><trkpt lat="39.5590858528402" lon="9.045401830802009"><ele>205.4</ele><time>2026-04-25T12:21:10Z</time></trkpt><trkpt lat="39.55904942091253" lon="9.045518198930608"><ele>205.2</ele><time>2026-04-25T12:21:11Z</time></trkpt><trkpt lat="39.55901023549778" lon="9.045631942017799"><ele>205.0</ele><time>2026-04-25T12:21:12Z</time></trkpt><trkpt lat="39.558970161947464" lon="9.045744197399664"><ele>205.16666666666666</ele><time>2026-04-25T12:21:13Z</time></trkpt><trkpt lat="39.55892696229698" lon="9.045850685431697"><ele>205.33333333333331</ele><time>2026-04-25T12:21:14Z</time></trkpt><trkpt lat="39.558897133908665" lon="9.045961991185507"><ele>205.5</ele><time>2026-04-25T12:21:15Z</time></trkpt><trkpt lat="39.55889671690008" lon="9.046074775011219"><ele>205.66666666666669</ele><time>2026-04-25T12:21:16Z</time></trkpt><trkpt lat="39.55891164189423" lon="9.046188870939437"><ele>205.83333333333334</ele><time>2026-04-25T12:21:17Z</time></trkpt><trkpt lat="39.5589364846817" lon="9.046297267601126"><ele>206.0</ele><time>2026-04-25T12:21:18Z</time></trkpt><trkpt lat="39.5589577738487" lon="9.0464089129348"><ele>206.0</ele><time>2026-04-25T12:21:19Z</time></trkpt><trkpt lat="39.558972498568814" lon="9.046523972089862"><ele>206.0</ele><time>2026-04-25T12:21:20Z</time></trkpt><trkpt lat="39.55898103794484" lon="9.046644900606578"><ele>206.0</ele><time>2026-04-25T12:21:21Z</time></trkpt><trkpt lat="39.55897003833762" lon="9.04676748998197"><ele>206.0</ele><time>2026-04-25T12:21:22Z</time></trkpt><trkpt lat="39.558924062537194" lon="9.046877298030674"><ele>206.0</ele><time>2026-04-25T12:21:23Z</time></trkpt><trkpt lat="39.55883389424767" lon="9.04692978195097"><ele>205.60000000000002</ele><time>2026-04-25T12:21:24Z</time></trkpt><trkpt lat="39.5587570750203" lon="9.046994908881727"><ele>205.2</ele><time>2026-04-25T12:21:25Z</time></trkpt><trkpt lat="39.55867408647014" lon="9.047062036740776"><ele>204.8</ele><time>2026-04-25T12:21:26Z</time></trkpt><trkpt lat="39.558585900775945" lon="9.047133478822087"><ele>204.39999999999998</ele><time>2026-04-25T12:21:27Z</time></trkpt><trkpt lat="39.55849419720488" lon="9.047208632258107"><ele>204.0</ele><time>2026-04-25T12:21:28Z</time></trkpt><trkpt lat="39.558400566865835" lon="9.04728564117447"><ele>204.0</ele><time>2026-04-25T12:21:29Z</time></trkpt><trkpt lat="39.558309186048504" lon="9.04736947992434"><ele>204.0</ele><time>2026-04-25T12:21:30Z</time></trkpt><trkpt lat="39.55822465458971" lon="9.047465028885082"><ele>204.0</ele><time>2026-04-25T12:21:31Z</time></trkpt><trkpt lat="39.55812544892489" lon="9.047536665022015"><ele>204.0</ele><time>2026-04-25T12:21:32Z</time></trkpt><trkpt lat="39.55802210738589" lon="9.047605181584231"><ele>203.5</ele><time>2026-04-25T12:21:33Z</time></trkpt><trkpt lat="39.55791389507575" lon="9.047662610699367"><ele>203.0</ele><time>2026-04-25T12:21:34Z</time></trkpt><trkpt lat="39.55780328321751" lon="9.047716413350544"><ele>202.5</ele><time>2026-04-25T12:21:35Z</time></trkpt><trkpt lat="39.55769276566055" lon="9.047774408428628"><ele>202.0</ele><time>2026-04-25T12:21:36Z</time></trkpt><trkpt lat="39.5575824776356" lon="9.047838504684483"><ele>202.0</ele><time>2026-04-25T12:21:37Z</time></trkpt><trkpt lat="39.55747468956328" lon="9.047911352579673"><ele>202.0</ele><time>2026-04-25T12:21:38Z</time></trkpt><trkpt lat="39.55737190655682" lon="9.047996161206491"><ele>202.0</ele><time>2026-04-25T12:21:39Z</time></trkpt><trkpt lat="39.557274320258166" lon="9.04809149463212"><ele>202.0</ele><time>2026-04-25T12:21:40Z</time></trkpt><trkpt lat="39.55717789017557" lon="9.048192695773086"><ele>201.0</ele><time>2026-04-25T12:21:41Z</time></trkpt><trkpt lat="39.55708099156212" lon="9.04829536470447"><ele>200.0</ele><time>2026-04-25T12:21:42Z</time></trkpt><trkpt lat="39.556987480352" lon="9.048404535195171"><ele>199.0</ele><time>2026-04-25T12:21:43Z</time></trkpt><trkpt lat="39.55689859830034" lon="9.048524254602507"><ele>198.0</ele><time>2026-04-25T12:21:44Z</time></trkpt><trkpt lat="39.556812556281415" lon="9.048649257004406"><ele>198.0</ele><time>2026-04-25T12:21:45Z</time></trkpt><trkpt lat="39.55672738200135" lon="9.0487780245964"><ele>198.0</ele><time>2026-04-25T12:21:46Z</time></trkpt><trkpt lat="39.55664275480746" lon="9.048911235542839"><ele>198.0</ele><time>2026-04-25T12:21:47Z</time></trkpt><trkpt lat="39.5565608502916" lon="9.049048849383038"><ele>198.0</ele><time>2026-04-25T12:21:48Z</time></trkpt><trkpt lat="39.55648506454444" lon="9.049192276716768"><ele>195.25</ele><time>2026-04-25T12:21:49Z</time></trkpt><trkpt lat="39.556426809779495" lon="9.049350453646264"><ele>192.5</ele><time>2026-04-25T12:21:50Z</time></trkpt><trkpt lat="39.5563880095785" lon="9.049522456498387"><ele>189.75</ele><time>2026-04-25T12:21:51Z</time></trkpt><trkpt lat="39.556357564600425" lon="9.049699011794715"><ele>187.0</ele><time>2026-04-25T12:21:52Z</time></trkpt><trkpt lat="39.556328255522" lon="9.04987199634973"><ele>187.25</ele><time>2026-04-25T12:21:53Z</time></trkpt><trkpt lat="39.556293667683384" lon="9.050045563962858"><ele>187.5</ele><time>2026-04-25T12:21:54Z</time></trkpt><trkpt lat="39.55624688865822" lon="9.05021062212326"><ele>187.75</ele><time>2026-04-25T12:21:55Z</time></trkpt><trkpt lat="39.55617468709834" lon="9.050361825136061"><ele>188.0</ele><time>2026-04-25T12:21:56Z</time></trkpt><trkpt lat="39.55607357032418" lon="9.0504887104341"><ele>188.0</ele><time>2026-04-25T12:21:57Z</time></trkpt><trkpt lat="39.55595410940893" lon="9.050589597840487"><ele>188.0</ele><time>2026-04-25T12:21:58Z</time></trkpt><trkpt lat="39.555829638881136" lon="9.050681178310473"><ele>188.0</ele><time>2026-04-25T12:21:59Z</time></trkpt><trkpt lat="39.55570677013198" lon="9.050782662733305"><ele>188.0</ele><time>2026-04-25T12:22:00Z</time></trkpt><trkpt lat="39.55558016407736" lon="9.050886780636159"><ele>187.66666666666666</ele><time>2026-04-25T12:22:01Z</time></trkpt><trkpt lat="39.55545193542655" lon="9.050993078429984"><ele>187.33333333333334</ele><time>2026-04-25T12:22:02Z</time></trkpt><trkpt lat="39.55532273449336" lon="9.051100764118015"><ele>187.0</ele><time>2026-04-25T12:22:03Z</time></trkpt><trkpt lat="39.55518849546587" lon="9.05120895898612"><ele>187.0</ele><time>2026-04-25T12:22:04Z</time></trkpt><trkpt lat="39.55504934578193" lon="9.051313492597904"><ele>187.0</ele><time>2026-04-25T12:22:05Z</time></trkpt><trkpt lat="39.554909247659495" lon="9.051421518679195"><ele>187.0</ele><time>2026-04-25T12:22:06Z</time></trkpt><trkpt lat="39.55476949134004" lon="9.05153276952567"><ele>184.66666666666669</ele><time>2026-04-25T12:22:07Z</time></trkpt><trkpt lat="39.55462636071687" lon="9.051646268863182"><ele>182.33333333333334</ele><time>2026-04-25T12:22:08Z</time></trkpt><trkpt lat="39.554482991277574" lon="9.051759398228691"><ele>180.0</ele><time>2026-04-25T12:22:09Z</time></trkpt><trkpt lat="39.554335285802146" lon="9.05187323746528"><ele>180.0</ele><time>2026-04-25T12:22:10Z</time></trkpt><trkpt lat="39.55418633489717" lon="9.051986686860905"><ele>180.0</ele><time>2026-04-25T12:22:11Z</time></trkpt><trkpt lat="39.55403943953771" lon="9.052108844382124"><ele>180.0</ele><time>2026-04-25T12:22:12Z</time></trkpt><trkpt lat="39.55390099112999" lon="9.052247996527113"><ele>180.0</ele><time>2026-04-25T12:22:13Z</time></trkpt><trkpt lat="39.55377118603165" lon="9.052405147691873"><ele>180.0</ele><time>2026-04-25T12:22:14Z</time></trkpt><trkpt lat="39.55365663444091" lon="9.052583140881381"><ele>180.0</ele><time>2026-04-25T12:22:15Z</time></trkpt><trkpt lat="39.55355789260239" lon="9.052776697170632"><ele>179.0</ele><time>2026-04-25T12:22:16Z</time></trkpt><trkpt lat="39.55346036508595" lon="9.052973652441867"><ele>178.0</ele><time>2026-04-25T12:22:17Z</time></trkpt><trkpt lat="39.553361904334984" lon="9.053172969571037"><ele>177.0</ele><time>2026-04-25T12:22:18Z</time></trkpt><trkpt lat="39.5532591753629" lon="9.053368151672327"><ele>176.66666666666666</ele><time>2026-04-25T12:22:19Z</time></trkpt><trkpt lat="39.55315394881929" lon="9.053566058945611"><ele>176.33333333333331</ele><time>2026-04-25T12:22:20Z</time></trkpt><trkpt lat="39.5530496375164" lon="9.053763234175959"><ele>176.0</ele><time>2026-04-25T12:22:21Z</time></trkpt><trkpt lat="39.55294452048325" lon="9.053963550509685"><ele>174.66666666666666</ele><time>2026-04-25T12:22:22Z</time></trkpt><trkpt lat="39.5528387524171" lon="9.054164528684385"><ele>173.33333333333334</ele><time>2026-04-25T12:22:23Z</time></trkpt><trkpt lat="39.55273327799756" lon="9.054367503073697"><ele>172.0</ele><time>2026-04-25T12:22:24Z</time></trkpt><trkpt lat="39.552627082618194" lon="9.054574799387861"><ele>172.0</ele><time>2026-04-25T12:22:25Z</time></trkpt><trkpt lat="39.552520158610875" lon="9.054785119870612"><ele>172.0</ele><time>2026-04-25T12:22:26Z</time></trkpt><trkpt lat="39.552412913023296" lon="9.054997231929804"><ele>172.0</ele><time>2026-04-25T12:22:27Z</time></trkpt><trkpt lat="39.55230532092995" lon="9.055210125842262"><ele>172.0</ele><time>2026-04-25T12:22:28Z</time></trkpt><trkpt lat="39.552195042574326" lon="9.05542517774524"><ele>172.0</ele><time>2026-04-25T12:22:29Z</time></trkpt><trkpt lat="39.552083020612415" lon="9.055639983641015"><ele>172.0</ele><time>2026-04-25T12:22:30Z</time></trkpt><trkpt lat="39.551968628801866" lon="9.05585581654045"><ele>171.66666666666669</ele><time>2026-04-25T12:22:31Z</time></trkpt><trkpt lat="39.55185104525221" lon="9.056074710895809"><ele>171.33333333333334</ele><time>2026-04-25T12:22:32Z</time></trkpt><trkpt lat="39.55173668079014" lon="9.056292681882171"><ele>171.0</ele><time>2026-04-25T12:22:33Z</time></trkpt><trkpt lat="39.55162000451591" lon="9.056515469662392"><ele>170.66666666666666</ele><time>2026-04-25T12:22:34Z</time></trkpt><trkpt lat="39.55150289400193" lon="9.056739576710484"><ele>170.33333333333331</ele><time>2026-04-25T12:22:35Z</time></trkpt><trkpt lat="39.55138481880192" lon="9.056965917961435"><ele>170.0</ele><time>2026-04-25T12:22:36Z</time></trkpt><trkpt lat="39.55126567420803" lon="9.057195753894357"><ele>169.33333333333331</ele><time>2026-04-25T12:22:37Z</time></trkpt><trkpt lat="39.551146817014896" lon="9.057425868278457"><ele>168.66666666666666</ele><time>2026-04-25T12:22:38Z</time></trkpt><trkpt lat="39.5510270804588" lon="9.057658252809317"><ele>168.0</ele><time>2026-04-25T12:22:39Z</time></trkpt><trkpt lat="39.550908809695144" lon="9.057887582713699"><ele>168.0</ele><time>2026-04-25T12:22:40Z</time></trkpt><trkpt lat="39.55079147042588" lon="9.058113601523532"><ele>168.0</ele><time>2026-04-25T12:22:41Z</time></trkpt><trkpt lat="39.550672687736764" lon="9.058335912094469"><ele>168.0</ele><time>2026-04-25T12:22:42Z</time></trkpt><trkpt lat="39.55055375214887" lon="9.058556681878894"><ele>168.0</ele><time>2026-04-25T12:22:43Z</time></trkpt><trkpt lat="39.550436133189606" lon="9.058777504338554"><ele>168.0</ele><time>2026-04-25T12:22:44Z</time></trkpt><trkpt lat="39.55036700047998" lon="9.058938129521716"><ele>168.0</ele><time>2026-04-25T12:22:45Z</time></trkpt><trkpt lat="39.550266624563946" lon="9.05913049071713"><ele>168.0</ele><time>2026-04-25T12:22:46Z</time></trkpt><trkpt lat="39.550168361091835" lon="9.059316859501392"><ele>168.0</ele><time>2026-04-25T12:22:47Z</time></trkpt><trkpt lat="39.5500688947717" lon="9.059502246001705"><ele>168.0</ele><time>2026-04-25T12:22:48Z</time></trkpt><trkpt lat="39.549973481494106" lon="9.059690080676036"><ele>168.0</ele><time>2026-04-25T12:22:49Z</time></trkpt><trkpt lat="39.549875139571725" lon="9.059879027741859"><ele>168.0</ele><time>2026-04-25T12:22:50Z</time></trkpt><trkpt lat="39.54977703370651" lon="9.060070785211872"><ele>168.0</ele><time>2026-04-25T12:22:51Z</time></trkpt><trkpt lat="39.549677070242616" lon="9.060267039310327"><ele>168.0</ele><time>2026-04-25T12:22:52Z</time></trkpt><trkpt lat="39.54957346475469" lon="9.060461897765641"><ele>168.0</ele><time>2026-04-25T12:22:53Z</time></trkpt><trkpt lat="39.54947054627124" lon="9.060656878785236"><ele>168.0</ele><time>2026-04-25T12:22:54Z</time></trkpt><trkpt lat="39.549364151406806" lon="9.060854764109115"><ele>167.33333333333334</ele><time>2026-04-25T12:22:55Z</time></trkpt><trkpt lat="39.549263546220374" lon="9.061053233424234"><ele>166.66666666666669</ele><time>2026-04-25T12:22:56Z</time></trkpt><trkpt lat="39.54916094501795" lon="9.061249278228543"><ele>166.0</ele><time>2026-04-25T12:22:57Z</time></trkpt><trkpt lat="39.54905810466789" lon="9.06144376439293"><ele>166.66666666666669</ele><time>2026-04-25T12:22:58Z</time></trkpt><trkpt lat="39.54895551465964" lon="9.06164074762609"><ele>167.33333333333334</ele><time>2026-04-25T12:22:59Z</time></trkpt><trkpt lat="39.54885602203687" lon="9.061838427157403"><ele>168.0</ele><time>2026-04-25T12:23:00Z</time></trkpt><trkpt lat="39.54875570535783" lon="9.062034297086571"><ele>167.66666666666666</ele><time>2026-04-25T12:23:01Z</time></trkpt><trkpt lat="39.54865492943262" lon="9.062228829858537"><ele>167.33333333333331</ele><time>2026-04-25T12:23:02Z</time></trkpt><trkpt lat="39.5485535289566" lon="9.062426468460412"><ele>167.0</ele><time>2026-04-25T12:23:03Z</time></trkpt><trkpt lat="39.54845222572614" lon="9.062621091190346"><ele>167.0</ele><time>2026-04-25T12:23:04Z</time></trkpt><trkpt lat="39.54835103285984" lon="9.062815637527061"><ele>167.0</ele><time>2026-04-25T12:23:05Z</time></trkpt><trkpt lat="39.548248822582536" lon="9.0630103127203"><ele>167.0</ele><time>2026-04-25T12:23:06Z</time></trkpt><trkpt lat="39.548145814579215" lon="9.063202081389512"><ele>167.0</ele><time>2026-04-25T12:23:07Z</time></trkpt><trkpt lat="39.548041970636085" lon="9.063396742163452"><ele>167.0</ele><time>2026-04-25T12:23:08Z</time></trkpt><trkpt lat="39.54794107041311" lon="9.06359257685699"><ele>167.0</ele><time>2026-04-25T12:23:09Z</time></trkpt><trkpt lat="39.547842514184445" lon="9.063787369585288"><ele>166.66666666666666</ele><time>2026-04-25T12:23:10Z</time></trkpt><trkpt lat="39.54774018052034" lon="9.063983085605411"><ele>166.33333333333334</ele><time>2026-04-25T12:23:11Z</time></trkpt><trkpt lat="39.547639117468194" lon="9.064179031858972"><ele>166.0</ele><time>2026-04-25T12:23:12Z</time></trkpt><trkpt lat="39.54753677643875" lon="9.064374972151478"><ele>166.0</ele><time>2026-04-25T12:23:13Z</time></trkpt><trkpt lat="39.547434107989076" lon="9.06457127300238"><ele>166.0</ele><time>2026-04-25T12:23:14Z</time></trkpt><trkpt lat="39.547329055651026" lon="9.064767630275705"><ele>166.0</ele><time>2026-04-25T12:23:15Z</time></trkpt><trkpt lat="39.54722359642528" lon="9.06496648591855"><ele>166.0</ele><time>2026-04-25T12:23:16Z</time></trkpt><trkpt lat="39.54712154955715" lon="9.065166253894418"><ele>166.0</ele><time>2026-04-25T12:23:17Z</time></trkpt><trkpt lat="39.547015153970015" lon="9.065366269426574"><ele>166.0</ele><time>2026-04-25T12:23:18Z</time></trkpt><trkpt lat="39.546910236384505" lon="9.065567890805372"><ele>165.66666666666669</ele><time>2026-04-25T12:23:19Z</time></trkpt><trkpt lat="39.546804504082765" lon="9.065772850169951"><ele>165.33333333333334</ele><time>2026-04-25T12:23:20Z</time></trkpt><trkpt lat="39.54670158399357" lon="9.065978283840417"><ele>165.0</ele><time>2026-04-25T12:23:21Z</time></trkpt><trkpt lat="39.546596308633475" lon="9.066180844469281"><ele>165.0</ele><time>2026-04-25T12:23:22Z</time></trkpt><trkpt lat="39.54649187546232" lon="9.066386037453853"><ele>165.0</ele><time>2026-04-25T12:23:23Z</time></trkpt><trkpt lat="39.546386581912685" lon="9.066591095004624"><ele>165.0</ele><time>2026-04-25T12:23:24Z</time></trkpt><trkpt lat="39.5462801859003" lon="9.066795079776977"><ele>165.0</ele><time>2026-04-25T12:23:25Z</time></trkpt><trkpt lat="39.54617383233674" lon="9.066995690322823"><ele>165.0</ele><time>2026-04-25T12:23:26Z</time></trkpt><trkpt lat="39.54606888988202" lon="9.067195037271382"><ele>165.0</ele><time>2026-04-25T12:23:27Z</time></trkpt><trkpt lat="39.545960667095166" lon="9.067395285972784"><ele>164.66666666666666</ele><time>2026-04-25T12:23:28Z</time></trkpt><trkpt lat="39.545855939653464" lon="9.067596603006388"><ele>164.33333333333331</ele><time>2026-04-25T12:23:29Z</time></trkpt><trkpt lat="39.54575191865603" lon="9.067797911106165"><ele>164.0</ele><time>2026-04-25T12:23:30Z</time></trkpt><trkpt lat="39.54564805451458" lon="9.067999056761154"><ele>164.0</ele><time>2026-04-25T12:23:31Z</time></trkpt><trkpt lat="39.54554316524832" lon="9.06820181720736"><ele>164.0</ele><time>2026-04-25T12:23:32Z</time></trkpt><trkpt lat="39.545436782104126" lon="9.068399235593624"><ele>164.0</ele><time>2026-04-25T12:23:33Z</time></trkpt><trkpt lat="39.54533103355338" lon="9.068593381708821"><ele>164.0</ele><time>2026-04-25T12:23:34Z</time></trkpt><trkpt lat="39.54522769532103" lon="9.068792917579332"><ele>164.0</ele><time>2026-04-25T12:23:35Z</time></trkpt><trkpt lat="39.54512779040067" lon="9.068991875833866"><ele>164.0</ele><time>2026-04-25T12:23:36Z</time></trkpt><trkpt lat="39.54502888977382" lon="9.069191465942641"><ele>163.66666666666666</ele><time>2026-04-25T12:23:37Z</time></trkpt><trkpt lat="39.54492864613457" lon="9.069388114847104"><ele>163.33333333333334</ele><time>2026-04-25T12:23:38Z</time></trkpt><trkpt lat="39.544826113155395" lon="9.06958631809407"><ele>163.0</ele><time>2026-04-25T12:23:39Z</time></trkpt><trkpt lat="39.54471642176459" lon="9.06977895701876"><ele>163.33333333333334</ele><time>2026-04-25T12:23:40Z</time></trkpt><trkpt lat="39.5446100175993" lon="9.06997735138627"><ele>163.66666666666666</ele><time>2026-04-25T12:23:41Z</time></trkpt><trkpt lat="39.54450874631019" lon="9.070181654936693"><ele>164.0</ele><time>2026-04-25T12:23:42Z</time></trkpt><trkpt lat="39.54440394549724" lon="9.070388452137164"><ele>164.0</ele><time>2026-04-25T12:23:43Z</time></trkpt><trkpt lat="39.54429822425443" lon="9.070592855380006"><ele>164.0</ele><time>2026-04-25T12:23:44Z</time></trkpt><trkpt lat="39.54417851025887" lon="9.070789278775269"><ele>164.0</ele><time>2026-04-25T12:23:45Z</time></trkpt><trkpt lat="39.54407018876226" lon="9.07099700596363"><ele>164.0</ele><time>2026-04-25T12:23:46Z</time></trkpt><trkpt lat="39.5439626413777" lon="9.071203248964949"><ele>164.0</ele><time>2026-04-25T12:23:47Z</time></trkpt><trkpt lat="39.54385574865756" lon="9.071408236505636"><ele>164.0</ele><time>2026-04-25T12:23:48Z</time></trkpt><trkpt lat="39.54376041283159" lon="9.071624139589584"><ele>164.33333333333331</ele><time>2026-04-25T12:23:49Z</time></trkpt><trkpt lat="39.543652586333536" lon="9.071831526311447"><ele>164.66666666666666</ele><time>2026-04-25T12:23:50Z</time></trkpt><trkpt lat="39.54353764832402" lon="9.072018255483293"><ele>165.0</ele><time>2026-04-25T12:23:51Z</time></trkpt><trkpt lat="39.54343244219741" lon="9.072220008887992"><ele>165.0</ele><time>2026-04-25T12:23:52Z</time></trkpt><trkpt lat="39.54332710401662" lon="9.072422015033814"><ele>165.0</ele><time>2026-04-25T12:23:53Z</time></trkpt><trkpt lat="39.54322358384085" lon="9.072620535426193"><ele>165.0</ele><time>2026-04-25T12:23:54Z</time></trkpt><trkpt lat="39.5431208644497" lon="9.072817697024103"><ele>165.0</ele><time>2026-04-25T12:23:55Z</time></trkpt><trkpt lat="39.54301870052303" lon="9.07301395432824"><ele>165.0</ele><time>2026-04-25T12:23:56Z</time></trkpt><trkpt lat="39.54291643416557" lon="9.07321040838288"><ele>165.0</ele><time>2026-04-25T12:23:57Z</time></trkpt><trkpt lat="39.542825803925396" lon="9.073417900810947"><ele>164.66666666666666</ele><time>2026-04-25T12:23:58Z</time></trkpt><trkpt lat="39.54272310732983" lon="9.073613915154338"><ele>164.33333333333331</ele><time>2026-04-25T12:23:59Z</time></trkpt><trkpt lat="39.54261786048538" lon="9.073813059747991"><ele>164.0</ele><time>2026-04-25T12:24:00Z</time></trkpt><trkpt lat="39.54252644167319" lon="9.074022598463003"><ele>164.33333333333331</ele><time>2026-04-25T12:24:01Z</time></trkpt><trkpt lat="39.54243648923768" lon="9.074236405882948"><ele>164.66666666666666</ele><time>2026-04-25T12:24:02Z</time></trkpt><trkpt lat="39.54235114597943" lon="9.074453335787052"><ele>165.0</ele><time>2026-04-25T12:24:03Z</time></trkpt><trkpt lat="39.542274025139584" lon="9.074674642880407"><ele>165.0</ele><time>2026-04-25T12:24:04Z</time></trkpt><trkpt lat="39.54219953994981" lon="9.074901508039124"><ele>165.0</ele><time>2026-04-25T12:24:05Z</time></trkpt><trkpt lat="39.54213204160964" lon="9.07513382928317"><ele>165.0</ele><time>2026-04-25T12:24:06Z</time></trkpt><trkpt lat="39.54206927890214" lon="9.075371908954457"><ele>164.66666666666666</ele><time>2026-04-25T12:24:07Z</time></trkpt><trkpt lat="39.54201323720398" lon="9.07561421787666"><ele>164.33333333333331</ele><time>2026-04-25T12:24:08Z</time></trkpt><trkpt lat="39.54196237351608" lon="9.07585687077006"><ele>164.0</ele><time>2026-04-25T12:24:09Z</time></trkpt><trkpt lat="39.541917807484374" lon="9.076104281243413"><ele>164.0</ele><time>2026-04-25T12:24:10Z</time></trkpt><trkpt lat="39.541878721092445" lon="9.076352699708998"><ele>164.0</ele><time>2026-04-25T12:24:11Z</time></trkpt><trkpt lat="39.54184458647919" lon="9.076604986771024"><ele>164.0</ele><time>2026-04-25T12:24:12Z</time></trkpt><trkpt lat="39.54181110855741" lon="9.076854103044326"><ele>164.0</ele><time>2026-04-25T12:24:13Z</time></trkpt><trkpt lat="39.54177594406359" lon="9.077099096016438"><ele>164.0</ele><time>2026-04-25T12:24:14Z</time></trkpt><trkpt lat="39.54174616145694" lon="9.077343693113422"><ele>164.0</ele><time>2026-04-25T12:24:15Z</time></trkpt><trkpt lat="39.541714914449344" lon="9.077585066669213"><ele>164.33333333333331</ele><time>2026-04-25T12:24:16Z</time></trkpt><trkpt lat="39.541684907595105" lon="9.077826861255883"><ele>164.66666666666666</ele><time>2026-04-25T12:24:17Z</time></trkpt><trkpt lat="39.54165266628034" lon="9.078063331302774"><ele>165.0</ele><time>2026-04-25T12:24:18Z</time></trkpt><trkpt lat="39.54161992293126" lon="9.078299109199795"><ele>165.33333333333334</ele><time>2026-04-25T12:24:19Z</time></trkpt><trkpt lat="39.541592885831946" lon="9.078530117439428"><ele>165.66666666666669</ele><time>2026-04-25T12:24:20Z</time></trkpt><trkpt lat="39.54156432955568" lon="9.07875759325485"><ele>166.0</ele><time>2026-04-25T12:24:21Z</time></trkpt><trkpt lat="39.54153716013967" lon="9.078982664040335"><ele>166.33333333333334</ele><time>2026-04-25T12:24:22Z</time></trkpt><trkpt lat="39.54150915318571" lon="9.079206835797653"><ele>166.66666666666666</ele><time>2026-04-25T12:24:23Z</time></trkpt><trkpt lat="39.54148140593299" lon="9.079427551003416"><ele>167.0</ele><time>2026-04-25T12:24:24Z</time></trkpt><trkpt lat="39.541453676717424" lon="9.079645375410324"><ele>167.0</ele><time>2026-04-25T12:24:25Z</time></trkpt><trkpt lat="39.54142607609847" lon="9.079849630241341"><ele>167.0</ele><time>2026-04-25T12:24:26Z</time></trkpt><trkpt lat="39.541401626273164" lon="9.080048616236837"><ele>167.0</ele><time>2026-04-25T12:24:27Z</time></trkpt><trkpt lat="39.54138246789669" lon="9.080235450993891"><ele>166.75</ele><time>2026-04-25T12:24:28Z</time></trkpt><trkpt lat="39.5413586495527" lon="9.08041440535048"><ele>166.5</ele><time>2026-04-25T12:24:29Z</time></trkpt><trkpt lat="39.5413308826094" lon="9.080591452910108"><ele>166.25</ele><time>2026-04-25T12:24:30Z</time></trkpt><trkpt lat="39.541293839755916" lon="9.08076829956089"><ele>166.0</ele><time>2026-04-25T12:24:31Z</time></trkpt><trkpt lat="39.54124614425734" lon="9.08094231008352"><ele>165.25</ele><time>2026-04-25T12:24:32Z</time></trkpt><trkpt lat="39.54118771513914" lon="9.081109924009718"><ele>164.5</ele><time>2026-04-25T12:24:33Z</time></trkpt><trkpt lat="39.541122289590646" lon="9.081272330920697"><ele>163.75</ele><time>2026-04-25T12:24:34Z</time></trkpt><trkpt lat="39.54104611963633" lon="9.081423331139112"><ele>163.0</ele><time>2026-04-25T12:24:35Z</time></trkpt><trkpt lat="39.540966085569856" lon="9.081567191267528"><ele>163.75</ele><time>2026-04-25T12:24:36Z</time></trkpt><trkpt lat="39.54088764942628" lon="9.081710048076664"><ele>164.5</ele><time>2026-04-25T12:24:37Z</time></trkpt><trkpt lat="39.5408102865481" lon="9.081853323942884"><ele>165.25</ele><time>2026-04-25T12:24:38Z</time></trkpt><trkpt lat="39.54073711258771" lon="9.081997016009328"><ele>166.0</ele><time>2026-04-25T12:24:39Z</time></trkpt><trkpt lat="39.54066457492188" lon="9.08213402200553"><ele>166.0</ele><time>2026-04-25T12:24:40Z</time></trkpt><trkpt lat="39.54058877416712" lon="9.082262260805587"><ele>166.0</ele><time>2026-04-25T12:24:41Z</time></trkpt><trkpt lat="39.54050751133538" lon="9.082377906566814"><ele>166.0</ele><time>2026-04-25T12:24:42Z</time></trkpt><trkpt lat="39.54042010870546" lon="9.082485568999797"><ele>166.0</ele><time>2026-04-25T12:24:43Z</time></trkpt><trkpt lat="39.54032642275183" lon="9.082584022224225"><ele>165.25</ele><time>2026-04-25T12:24:44Z</time></trkpt><trkpt lat="39.540223235545334" lon="9.08266957319225"><ele>164.5</ele><time>2026-04-25T12:24:45Z</time></trkpt><trkpt lat="39.54010528889747" lon="9.082721716228853"><ele>163.75</ele><time>2026-04-25T12:24:46Z</time></trkpt><trkpt lat="39.53999416794114" lon="9.082790918796679"><ele>163.0</ele><time>2026-04-25T12:24:47Z</time></trkpt><trkpt lat="39.539891456797555" lon="9.082878379061988"><ele>163.0</ele><time>2026-04-25T12:24:48Z</time></trkpt><trkpt lat="39.53978113221844" lon="9.082937830480098"><ele>163.0</ele><time>2026-04-25T12:24:49Z</time></trkpt><trkpt lat="39.539675127831515" lon="9.082997810622908"><ele>163.0</ele><time>2026-04-25T12:24:50Z</time></trkpt><trkpt lat="39.53957193178347" lon="9.083059790422656"><ele>163.0</ele><time>2026-04-25T12:24:51Z</time></trkpt><trkpt lat="39.539473246736975" lon="9.083123633064718"><ele>163.2</ele><time>2026-04-25T12:24:52Z</time></trkpt><trkpt lat="39.53937486417994" lon="9.083193583303514"><ele>163.4</ele><time>2026-04-25T12:24:53Z</time></trkpt><trkpt lat="39.53932287532953" lon="9.0832914551618"><ele>163.6</ele><time>2026-04-25T12:24:54Z</time></trkpt><trkpt lat="39.5392885327655" lon="9.083409376468934"><ele>163.79999999999998</ele><time>2026-04-25T12:24:55Z</time></trkpt><trkpt lat="39.53928196025589" lon="9.083537034046406"><ele>164.0</ele><time>2026-04-25T12:24:56Z</time></trkpt><trkpt lat="39.539280561953106" lon="9.083674159579836"><ele>164.0</ele><time>2026-04-25T12:24:57Z</time></trkpt><trkpt lat="39.53928051473919" lon="9.083818335583839"><ele>164.0</ele><time>2026-04-25T12:24:58Z</time></trkpt><trkpt lat="39.539279027552645" lon="9.083971900699035"><ele>164.0</ele><time>2026-04-25T12:24:59Z</time></trkpt><trkpt lat="39.53927872771331" lon="9.084127725164468"><ele>164.0</ele><time>2026-04-25T12:25:00Z</time></trkpt><trkpt lat="39.53927806287917" lon="9.084277705064903"><ele>163.75</ele><time>2026-04-25T12:25:01Z</time></trkpt><trkpt lat="39.5392776675976" lon="9.084424093093094"><ele>163.5</ele><time>2026-04-25T12:25:02Z</time></trkpt><trkpt lat="39.5392751386701" lon="9.084571783249453"><ele>163.25</ele><time>2026-04-25T12:25:03Z</time></trkpt><trkpt lat="39.5392711889926" lon="9.084719514788475"><ele>163.0</ele><time>2026-04-25T12:25:04Z</time></trkpt><trkpt lat="39.53926900787927" lon="9.084860558732833"><ele>162.0</ele><time>2026-04-25T12:25:05Z</time></trkpt><trkpt lat="39.539265791259616" lon="9.084999674712003"><ele>161.0</ele><time>2026-04-25T12:25:06Z</time></trkpt><trkpt lat="39.539263545442495" lon="9.08514141590952"><ele>160.0</ele><time>2026-04-25T12:25:07Z</time></trkpt><trkpt lat="39.539258470227274" lon="9.085287784050188"><ele>159.0</ele><time>2026-04-25T12:25:08Z</time></trkpt><trkpt lat="39.539253197272416" lon="9.08544293253841"><ele>158.0</ele><time>2026-04-25T12:25:09Z</time></trkpt><trkpt lat="39.53925195481782" lon="9.08560002455972"><ele>158.0</ele><time>2026-04-25T12:25:10Z</time></trkpt><trkpt lat="39.539247189353944" lon="9.08576015094306"><ele>158.0</ele><time>2026-04-25T12:25:11Z</time></trkpt><trkpt lat="39.53924195738546" lon="9.085925035047564"><ele>158.0</ele><time>2026-04-25T12:25:12Z</time></trkpt><trkpt lat="39.5392368972117" lon="9.086083864622337"><ele>158.0</ele><time>2026-04-25T12:25:13Z</time></trkpt><trkpt lat="39.53923242418437" lon="9.086238516761128"><ele>157.75</ele><time>2026-04-25T12:25:14Z</time></trkpt><trkpt lat="39.539228603550455" lon="9.086393499892424"><ele>157.5</ele><time>2026-04-25T12:25:15Z</time></trkpt><trkpt lat="39.539228608533996" lon="9.086550087765417"><ele>157.25</ele><time>2026-04-25T12:25:16Z</time></trkpt><trkpt lat="39.53922974989302" lon="9.086699725875222"><ele>157.0</ele><time>2026-04-25T12:25:17Z</time></trkpt><trkpt lat="39.53922953524333" lon="9.086841958207167"><ele>157.0</ele><time>2026-04-25T12:25:18Z</time></trkpt><trkpt lat="39.53922630969519" lon="9.086977336182315"><ele>157.0</ele><time>2026-04-25T12:25:19Z</time></trkpt><trkpt lat="39.53922275796135" lon="9.087113907870581"><ele>157.0</ele><time>2026-04-25T12:25:20Z</time></trkpt><trkpt lat="39.53921919158679" lon="9.087255837843692"><ele>157.0</ele><time>2026-04-25T12:25:21Z</time></trkpt><trkpt lat="39.53921468111694" lon="9.087400674478946"><ele>157.0</ele><time>2026-04-25T12:25:22Z</time></trkpt><trkpt lat="39.53920960972299" lon="9.087546912419098"><ele>157.25</ele><time>2026-04-25T12:25:23Z</time></trkpt><trkpt lat="39.53920817202301" lon="9.087697975925922"><ele>157.5</ele><time>2026-04-25T12:25:24Z</time></trkpt><trkpt lat="39.53920849986048" lon="9.08785347018774"><ele>157.75</ele><time>2026-04-25T12:25:25Z</time></trkpt><trkpt lat="39.53920884042444" lon="9.088012198173592"><ele>158.0</ele><time>2026-04-25T12:25:26Z</time></trkpt><trkpt lat="39.53920588143847" lon="9.088173560678971"><ele>158.0</ele><time>2026-04-25T12:25:27Z</time></trkpt><trkpt lat="39.53919897178576" lon="9.088339418104228"><ele>158.0</ele><time>2026-04-25T12:25:28Z</time></trkpt><trkpt lat="39.539195762917615" lon="9.08850973678242"><ele>158.0</ele><time>2026-04-25T12:25:29Z</time></trkpt><trkpt lat="39.53919116099316" lon="9.088684775790222"><ele>158.0</ele><time>2026-04-25T12:25:30Z</time></trkpt><trkpt lat="39.53918479529762" lon="9.088862029928574"><ele>158.0</ele><time>2026-04-25T12:25:31Z</time></trkpt><trkpt lat="39.539174463762784" lon="9.089039586330381"><ele>158.0</ele><time>2026-04-25T12:25:32Z</time></trkpt><trkpt lat="39.53915256763125" lon="9.089215910672413"><ele>158.0</ele><time>2026-04-25T12:25:33Z</time></trkpt><trkpt lat="39.53911378028711" lon="9.089382040342212"><ele>158.0</ele><time>2026-04-25T12:25:34Z</time></trkpt><trkpt lat="39.539067125362145" lon="9.089538660001319"><ele>158.5</ele><time>2026-04-25T12:25:35Z</time></trkpt><trkpt lat="39.539006342152135" lon="9.08967467288487"><ele>159.0</ele><time>2026-04-25T12:25:36Z</time></trkpt><trkpt lat="39.53892984703152" lon="9.089796308241747"><ele>159.5</ele><time>2026-04-25T12:25:37Z</time></trkpt><trkpt lat="39.53883462937178" lon="9.089895764284229"><ele>160.0</ele><time>2026-04-25T12:25:38Z</time></trkpt><trkpt lat="39.538778271848344" lon="9.089994539834956"><ele>159.75</ele><time>2026-04-25T12:25:39Z</time></trkpt><trkpt lat="39.53861239571575" lon="9.089960684372539"><ele>159.5</ele><time>2026-04-25T12:25:40Z</time></trkpt><trkpt lat="39.53850181885778" lon="9.089924179516423"><ele>159.25</ele><time>2026-04-25T12:25:41Z</time></trkpt><trkpt lat="39.538398262548036" lon="9.089862294932693"><ele>159.0</ele><time>2026-04-25T12:25:42Z</time></trkpt><trkpt lat="39.53828191646162" lon="9.089861552413712"><ele>158.25</ele><time>2026-04-25T12:25:43Z</time></trkpt><trkpt lat="39.53816402729679" lon="9.089759194641454"><ele>157.5</ele><time>2026-04-25T12:25:44Z</time></trkpt><trkpt lat="39.53804567772623" lon="9.089694923629716"><ele>156.75</ele><time>2026-04-25T12:25:45Z</time></trkpt><trkpt lat="39.537923011477055" lon="9.089627312524772"><ele>156.0</ele><time>2026-04-25T12:25:46Z</time></trkpt><trkpt lat="39.537656368504166" lon="9.089535568069167"><ele>156.0</ele><time>2026-04-25T12:25:48Z</time></trkpt><trkpt lat="39.537511617752266" lon="9.089513413424767"><ele>156.0</ele><time>2026-04-25T12:25:49Z</time></trkpt><trkpt lat="39.5373629904497" lon="9.089504911529058"><ele>156.0</ele><time>2026-04-25T12:25:50Z</time></trkpt><trkpt lat="39.537210682600985" lon="9.08951118395925"><ele>156.0</ele><time>2026-04-25T12:25:51Z</time></trkpt><trkpt lat="39.53705495429235" lon="9.089524220766128"><ele>156.0</ele><time>2026-04-25T12:25:52Z</time></trkpt><trkpt lat="39.53689581726547" lon="9.089538418234374"><ele>156.0</ele><time>2026-04-25T12:25:53Z</time></trkpt><trkpt lat="39.536733233873484" lon="9.08955203594416"><ele>156.0</ele><time>2026-04-25T12:25:54Z</time></trkpt><trkpt lat="39.53656808996221" lon="9.089563037897742"><ele>156.0</ele><time>2026-04-25T12:25:55Z</time></trkpt><trkpt lat="39.53640154004848" lon="9.089574148713009"><ele>156.0</ele><time>2026-04-25T12:25:56Z</time></trkpt><trkpt lat="39.53623250469541" lon="9.089586242100744"><ele>156.0</ele><time>2026-04-25T12:25:57Z</time></trkpt><trkpt lat="39.53606325914498" lon="9.089598552376366"><ele>155.33333333333334</ele><time>2026-04-25T12:25:58Z</time></trkpt><trkpt lat="39.53589255878714" lon="9.089609033435668"><ele>154.66666666666669</ele><time>2026-04-25T12:25:59Z</time></trkpt><trkpt lat="39.53572108177477" lon="9.089617401687603"><ele>154.0</ele><time>2026-04-25T12:26:00Z</time></trkpt><trkpt lat="39.53554936479946" lon="9.089627174399686"><ele>154.33333333333334</ele><time>2026-04-25T12:26:01Z</time></trkpt><trkpt lat="39.53537407607599" lon="9.089639660559682"><ele>154.66666666666666</ele><time>2026-04-25T12:26:02Z</time></trkpt><trkpt lat="39.53520105154409" lon="9.089651551015834"><ele>155.0</ele><time>2026-04-25T12:26:03Z</time></trkpt><trkpt lat="39.535022924958554" lon="9.089662226970596"><ele>155.0</ele><time>2026-04-25T12:26:04Z</time></trkpt><trkpt lat="39.53484487335208" lon="9.08967068002435"><ele>155.0</ele><time>2026-04-25T12:26:05Z</time></trkpt><trkpt lat="39.53466516364754" lon="9.08968128115475"><ele>155.0</ele><time>2026-04-25T12:26:06Z</time></trkpt><trkpt lat="39.534481005129976" lon="9.089692102587819"><ele>155.0</ele><time>2026-04-25T12:26:07Z</time></trkpt><trkpt lat="39.534297380332404" lon="9.089703647472245"><ele>155.0</ele><time>2026-04-25T12:26:08Z</time></trkpt><trkpt lat="39.53411082000894" lon="9.089715636124373"><ele>155.0</ele><time>2026-04-25T12:26:09Z</time></trkpt><trkpt lat="39.533926336188735" lon="9.089732434900144"><ele>155.0</ele><time>2026-04-25T12:26:10Z</time></trkpt><trkpt lat="39.53373857166441" lon="9.089749556318184"><ele>155.0</ele><time>2026-04-25T12:26:11Z</time></trkpt><trkpt lat="39.53355126635237" lon="9.089766818400973"><ele>155.0</ele><time>2026-04-25T12:26:12Z</time></trkpt><trkpt lat="39.533363453096115" lon="9.089758723884387"><ele>155.33333333333331</ele><time>2026-04-25T12:26:13Z</time></trkpt><trkpt lat="39.53317619149759" lon="9.089790879775869"><ele>155.66666666666666</ele><time>2026-04-25T12:26:14Z</time></trkpt><trkpt lat="39.532986827145564" lon="9.089801312075465"><ele>156.0</ele><time>2026-04-25T12:26:15Z</time></trkpt><trkpt lat="39.53279685616234" lon="9.089813249832932"><ele>156.0</ele><time>2026-04-25T12:26:16Z</time></trkpt><trkpt lat="39.53260479103079" lon="9.089826142061066"><ele>156.0</ele><time>2026-04-25T12:26:17Z</time></trkpt><trkpt lat="39.53241191995452" lon="9.089838677242566"><ele>156.0</ele><time>2026-04-25T12:26:18Z</time></trkpt><trkpt lat="39.53222043660436" lon="9.089849172061912"><ele>155.66666666666666</ele><time>2026-04-25T12:26:19Z</time></trkpt><trkpt lat="39.53202783925292" lon="9.089860288139775"><ele>155.33333333333331</ele><time>2026-04-25T12:26:20Z</time></trkpt><trkpt lat="39.53183969941747" lon="9.089871995265796"><ele>155.0</ele><time>2026-04-25T12:26:21Z</time></trkpt><trkpt lat="39.53165144194194" lon="9.08988402065721"><ele>155.0</ele><time>2026-04-25T12:26:22Z</time></trkpt><trkpt lat="39.53146797931831" lon="9.089895521950382"><ele>155.0</ele><time>2026-04-25T12:26:23Z</time></trkpt><trkpt lat="39.53128604626401" lon="9.08990693443888"><ele>155.0</ele><time>2026-04-25T12:26:24Z</time></trkpt><trkpt lat="39.531105647769486" lon="9.089921164127142"><ele>154.66666666666666</ele><time>2026-04-25T12:26:25Z</time></trkpt><trkpt lat="39.53092921050419" lon="9.089941007698746"><ele>154.33333333333334</ele><time>2026-04-25T12:26:26Z</time></trkpt><trkpt lat="39.53075821394197" lon="9.08996857748972"><ele>154.0</ele><time>2026-04-25T12:26:27Z</time></trkpt><trkpt lat="39.530584960411424" lon="9.090017846571902"><ele>154.0</ele><time>2026-04-25T12:26:28Z</time></trkpt><trkpt lat="39.53042373734421" lon="9.090104710621167"><ele>154.0</ele><time>2026-04-25T12:26:29Z</time></trkpt><trkpt lat="39.53026799301733" lon="9.090209787558747"><ele>154.0</ele><time>2026-04-25T12:26:30Z</time></trkpt><trkpt lat="39.530115683514836" lon="9.090337598842597"><ele>154.0</ele><time>2026-04-25T12:26:31Z</time></trkpt><trkpt lat="39.529971644037516" lon="9.09047942558342"><ele>154.0</ele><time>2026-04-25T12:26:32Z</time></trkpt><trkpt lat="39.529847351275365" lon="9.090649030945688"><ele>154.0</ele><time>2026-04-25T12:26:33Z</time></trkpt><trkpt lat="39.52973891859893" lon="9.090839493644877"><ele>154.0</ele><time>2026-04-25T12:26:34Z</time></trkpt><trkpt lat="39.529643690118604" lon="9.091041862779706"><ele>154.0</ele><time>2026-04-25T12:26:35Z</time></trkpt><trkpt lat="39.52955503675148" lon="9.091253516913428"><ele>154.0</ele><time>2026-04-25T12:26:36Z</time></trkpt><trkpt lat="39.52946089392315" lon="9.091458770681006"><ele>154.0</ele><time>2026-04-25T12:26:37Z</time></trkpt><trkpt lat="39.5293578874032" lon="9.091655272997032"><ele>154.0</ele><time>2026-04-25T12:26:38Z</time></trkpt><trkpt lat="39.52925029220225" lon="9.091846066152481"><ele>154.0</ele><time>2026-04-25T12:26:39Z</time></trkpt><trkpt lat="39.5291288533836" lon="9.092026934318865"><ele>154.0</ele><time>2026-04-25T12:26:40Z</time></trkpt><trkpt lat="39.529021531654934" lon="9.092217562834833"><ele>154.0</ele><time>2026-04-25T12:26:41Z</time></trkpt><trkpt lat="39.52891595374252" lon="9.092405093922638"><ele>154.0</ele><time>2026-04-25T12:26:42Z</time></trkpt><trkpt lat="39.52882023642042" lon="9.092609340802019"><ele>154.0</ele><time>2026-04-25T12:26:43Z</time></trkpt><trkpt lat="39.5287109090951" lon="9.092797217143396"><ele>154.0</ele><time>2026-04-25T12:26:44Z</time></trkpt><trkpt lat="39.52860234950885" lon="9.092989405889359"><ele>154.0</ele><time>2026-04-25T12:26:45Z</time></trkpt><trkpt lat="39.52849600155555" lon="9.093179978549085"><ele>153.66666666666669</ele><time>2026-04-25T12:26:46Z</time></trkpt><trkpt lat="39.528388984895585" lon="9.093372637045295"><ele>153.33333333333334</ele><time>2026-04-25T12:26:47Z</time></trkpt><trkpt lat="39.52828082312262" lon="9.093563419245354"><ele>153.0</ele><time>2026-04-25T12:26:48Z</time></trkpt><trkpt lat="39.52817240210933" lon="9.093753359098791"><ele>153.0</ele><time>2026-04-25T12:26:49Z</time></trkpt><trkpt lat="39.52806427948298" lon="9.093941750474073"><ele>153.0</ele><time>2026-04-25T12:26:50Z</time></trkpt><trkpt lat="39.52795409329258" lon="9.094125979059573"><ele>153.0</ele><time>2026-04-25T12:26:51Z</time></trkpt><trkpt lat="39.52782991835223" lon="9.094302311094186"><ele>153.33333333333334</ele><time>2026-04-25T12:26:52Z</time></trkpt><trkpt lat="39.52769548527971" lon="9.09446061202861"><ele>153.66666666666669</ele><time>2026-04-25T12:26:53Z</time></trkpt><trkpt lat="39.52755460226964" lon="9.094613615014362"><ele>154.0</ele><time>2026-04-25T12:26:54Z</time></trkpt><trkpt lat="39.52741519005242" lon="9.0947627361462"><ele>154.0</ele><time>2026-04-25T12:26:55Z</time></trkpt><trkpt lat="39.52727346701398" lon="9.094910943908015"><ele>154.0</ele><time>2026-04-25T12:26:56Z</time></trkpt><trkpt lat="39.527130744413135" lon="9.095055965425063"><ele>154.0</ele><time>2026-04-25T12:26:57Z</time></trkpt><trkpt lat="39.52698955047573" lon="9.095199360437299"><ele>153.66666666666669</ele><time>2026-04-25T12:26:58Z</time></trkpt><trkpt lat="39.526847428830145" lon="9.095346461840407"><ele>153.33333333333334</ele><time>2026-04-25T12:26:59Z</time></trkpt><trkpt lat="39.52670611315823" lon="9.095492104299908"><ele>153.0</ele><time>2026-04-25T12:27:00Z</time></trkpt><trkpt lat="39.52656513790941" lon="9.095633160226624"><ele>153.33333333333334</ele><time>2026-04-25T12:27:01Z</time></trkpt><trkpt lat="39.52641950051407" lon="9.09577453391576"><ele>153.66666666666669</ele><time>2026-04-25T12:27:02Z</time></trkpt><trkpt lat="39.52627573558213" lon="9.095916471734247"><ele>154.0</ele><time>2026-04-25T12:27:03Z</time></trkpt><trkpt lat="39.52613419230166" lon="9.096061889754246"><ele>153.33333333333334</ele><time>2026-04-25T12:27:04Z</time></trkpt><trkpt lat="39.52599310075385" lon="9.096208710896645"><ele>152.66666666666666</ele><time>2026-04-25T12:27:05Z</time></trkpt><trkpt lat="39.52585159336933" lon="9.096357467855857"><ele>152.0</ele><time>2026-04-25T12:27:06Z</time></trkpt><trkpt lat="39.525700587817475" lon="9.096485723541662"><ele>152.0</ele><time>2026-04-25T12:27:07Z</time></trkpt><trkpt lat="39.525557277739296" lon="9.09663106605308"><ele>152.0</ele><time>2026-04-25T12:27:08Z</time></trkpt><trkpt lat="39.52542512691196" lon="9.096789332173156"><ele>152.0</ele><time>2026-04-25T12:27:09Z</time></trkpt><trkpt lat="39.52527887357898" lon="9.096933036468043"><ele>152.66666666666666</ele><time>2026-04-25T12:27:10Z</time></trkpt><trkpt lat="39.52513672051825" lon="9.097075596886016"><ele>153.33333333333334</ele><time>2026-04-25T12:27:11Z</time></trkpt><trkpt lat="39.52499394099428" lon="9.097219595643464"><ele>154.0</ele><time>2026-04-25T12:27:12Z</time></trkpt><trkpt lat="39.52485243461182" lon="9.097364486383661"><ele>153.66666666666669</ele><time>2026-04-25T12:27:13Z</time></trkpt><trkpt lat="39.52471032385892" lon="9.097510554073269"><ele>153.33333333333334</ele><time>2026-04-25T12:27:14Z</time></trkpt><trkpt lat="39.52456690698518" lon="9.097654096434118"><ele>153.0</ele><time>2026-04-25T12:27:15Z</time></trkpt><trkpt lat="39.5244227293419" lon="9.097797584568786"><ele>152.66666666666666</ele><time>2026-04-25T12:27:16Z</time></trkpt><trkpt lat="39.524281059522714" lon="9.097942959481772"><ele>152.33333333333331</ele><time>2026-04-25T12:27:17Z</time></trkpt><trkpt lat="39.52414030261114" lon="9.098086814145374"><ele>152.0</ele><time>2026-04-25T12:27:18Z</time></trkpt><trkpt lat="39.523999153824185" lon="9.098229767030805"><ele>152.0</ele><time>2026-04-25T12:27:19Z</time></trkpt><trkpt lat="39.523861697196466" lon="9.098371612695885"><ele>152.0</ele><time>2026-04-25T12:27:20Z</time></trkpt><trkpt lat="39.52372068651772" lon="9.098513611841646"><ele>152.0</ele><time>2026-04-25T12:27:21Z</time></trkpt><trkpt lat="39.52357971451724" lon="9.098652315844165"><ele>152.0</ele><time>2026-04-25T12:27:22Z</time></trkpt><trkpt lat="39.52343827319632" lon="9.09879134677228"><ele>152.0</ele><time>2026-04-25T12:27:23Z</time></trkpt><trkpt lat="39.52329778062499" lon="9.09893065254372"><ele>152.0</ele><time>2026-04-25T12:27:24Z</time></trkpt><trkpt lat="39.52315657427688" lon="9.099070904687068"><ele>151.66666666666666</ele><time>2026-04-25T12:27:25Z</time></trkpt><trkpt lat="39.52301678160362" lon="9.09921007949634"><ele>151.33333333333334</ele><time>2026-04-25T12:27:26Z</time></trkpt><trkpt lat="39.52287579761835" lon="9.099350211877056"><ele>151.0</ele><time>2026-04-25T12:27:27Z</time></trkpt><trkpt lat="39.52273523185762" lon="9.099489940514308"><ele>150.33333333333334</ele><time>2026-04-25T12:27:28Z</time></trkpt><trkpt lat="39.522595165130944" lon="9.099630761475082"><ele>149.66666666666666</ele><time>2026-04-25T12:27:29Z</time></trkpt><trkpt lat="39.522454137288804" lon="9.099772252579234"><ele>149.0</ele><time>2026-04-25T12:27:30Z</time></trkpt><trkpt lat="39.52231358809906" lon="9.09991279989056"><ele>149.0</ele><time>2026-04-25T12:27:31Z</time></trkpt><trkpt lat="39.522173396892214" lon="9.100052277893852"><ele>149.0</ele><time>2026-04-25T12:27:32Z</time></trkpt><trkpt lat="39.52203095579694" lon="9.10019259150451"><ele>149.0</ele><time>2026-04-25T12:27:33Z</time></trkpt><trkpt lat="39.52188951871139" lon="9.100333708345923"><ele>149.0</ele><time>2026-04-25T12:27:34Z</time></trkpt><trkpt lat="39.52174909866695" lon="9.100476373587027"><ele>149.0</ele><time>2026-04-25T12:27:35Z</time></trkpt><trkpt lat="39.521608023504314" lon="9.100617536115507"><ele>149.0</ele><time>2026-04-25T12:27:36Z</time></trkpt><trkpt lat="39.52146769040346" lon="9.100757724783229"><ele>149.0</ele><time>2026-04-25T12:27:37Z</time></trkpt><trkpt lat="39.52132387953829" lon="9.100901354507254"><ele>149.0</ele><time>2026-04-25T12:27:38Z</time></trkpt><trkpt lat="39.52118143833295" lon="9.101044570675493"><ele>149.0</ele><time>2026-04-25T12:27:39Z</time></trkpt><trkpt lat="39.521041261501104" lon="9.101186493090525"><ele>149.0</ele><time>2026-04-25T12:27:40Z</time></trkpt><trkpt lat="39.52089917068881" lon="9.10132948197497"><ele>149.0</ele><time>2026-04-25T12:27:41Z</time></trkpt><trkpt lat="39.52075601497641" lon="9.101473674778173"><ele>149.0</ele><time>2026-04-25T12:27:42Z</time></trkpt><trkpt lat="39.52061341292731" lon="9.101616136339436"><ele>149.66666666666666</ele><time>2026-04-25T12:27:43Z</time></trkpt><trkpt lat="39.520470295564515" lon="9.101759398835373"><ele>150.33333333333334</ele><time>2026-04-25T12:27:44Z</time></trkpt><trkpt lat="39.52032579579506" lon="9.101901824580368"><ele>151.0</ele><time>2026-04-25T12:27:45Z</time></trkpt><trkpt lat="39.52018346579073" lon="9.10204545664702"><ele>151.0</ele><time>2026-04-25T12:27:46Z</time></trkpt><trkpt lat="39.52004134833536" lon="9.102190613278637"><ele>151.0</ele><time>2026-04-25T12:27:47Z</time></trkpt><trkpt lat="39.51989748448903" lon="9.10233493447723"><ele>151.0</ele><time>2026-04-25T12:27:48Z</time></trkpt><trkpt lat="39.51975325861697" lon="9.102478325208255"><ele>150.66666666666669</ele><time>2026-04-25T12:27:49Z</time></trkpt><trkpt lat="39.5196091906575" lon="9.10262080770861"><ele>150.33333333333334</ele><time>2026-04-25T12:27:50Z</time></trkpt><trkpt lat="39.5194646459886" lon="9.102762871029046"><ele>150.0</ele><time>2026-04-25T12:27:51Z</time></trkpt><trkpt lat="39.51932093433856" lon="9.102903918767796"><ele>150.0</ele><time>2026-04-25T12:27:52Z</time></trkpt><trkpt lat="39.519174395176655" lon="9.103046118437646"><ele>150.0</ele><time>2026-04-25T12:27:53Z</time></trkpt><trkpt lat="39.519031088672705" lon="9.103187760125255"><ele>150.0</ele><time>2026-04-25T12:27:54Z</time></trkpt><trkpt lat="39.518889174597234" lon="9.103333450221879"><ele>150.0</ele><time>2026-04-25T12:27:55Z</time></trkpt><trkpt lat="39.518746784992956" lon="9.103478349100548"><ele>150.0</ele><time>2026-04-25T12:27:56Z</time></trkpt><trkpt lat="39.51860745539471" lon="9.10362189533079"><ele>150.0</ele><time>2026-04-25T12:27:57Z</time></trkpt><trkpt lat="39.518468721280904" lon="9.103769434526205"><ele>150.0</ele><time>2026-04-25T12:27:58Z</time></trkpt><trkpt lat="39.518340050385106" lon="9.103911510328736"><ele>150.0</ele><time>2026-04-25T12:27:59Z</time></trkpt><trkpt lat="39.518220718655876" lon="9.104050117574713"><ele>150.0</ele><time>2026-04-25T12:28:00Z</time></trkpt><trkpt lat="39.51811213679325" lon="9.104180412707269"><ele>150.0</ele><time>2026-04-25T12:28:01Z</time></trkpt><trkpt lat="39.51800715451805" lon="9.104306996926658"><ele>150.0</ele><time>2026-04-25T12:28:02Z</time></trkpt><trkpt lat="39.51790898990038" lon="9.104424008929266"><ele>150.0</ele><time>2026-04-25T12:28:03Z</time></trkpt><trkpt lat="39.51781216288994" lon="9.104519514687478"><ele>150.0</ele><time>2026-04-25T12:28:04Z</time></trkpt><trkpt lat="39.5177148568311" lon="9.104593309651547"><ele>150.2</ele><time>2026-04-25T12:28:05Z</time></trkpt><trkpt lat="39.51760934209665" lon="9.104608208157964"><ele>150.4</ele><time>2026-04-25T12:28:06Z</time></trkpt><trkpt lat="39.51751792763067" lon="9.104538604494648"><ele>150.6</ele><time>2026-04-25T12:28:07Z</time></trkpt><trkpt lat="39.51740980527189" lon="9.104492017493344"><ele>150.8</ele><time>2026-04-25T12:28:08Z</time></trkpt><trkpt lat="39.51730041160806" lon="9.104426637171706"><ele>151.0</ele><time>2026-04-25T12:28:09Z</time></trkpt><trkpt lat="39.517178809964754" lon="9.10440036842312"><ele>150.75</ele><time>2026-04-25T12:28:10Z</time></trkpt><trkpt lat="39.51704179413504" lon="9.104419258526436"><ele>150.5</ele><time>2026-04-25T12:28:11Z</time></trkpt><trkpt lat="39.51690486536793" lon="9.104481565079865"><ele>150.25</ele><time>2026-04-25T12:28:12Z</time></trkpt><trkpt lat="39.516769386175795" lon="9.104576216703993"><ele>150.0</ele><time>2026-04-25T12:28:13Z</time></trkpt><trkpt lat="39.51663714617417" lon="9.104672577202768"><ele>150.0</ele><time>2026-04-25T12:28:14Z</time></trkpt><trkpt lat="39.51650086797978" lon="9.104781066903087"><ele>150.0</ele><time>2026-04-25T12:28:15Z</time></trkpt><trkpt lat="39.516358724766775" lon="9.104888876656501"><ele>150.0</ele><time>2026-04-25T12:28:16Z</time></trkpt><trkpt lat="39.5162165856249" lon="9.104996674852494"><ele>150.66666666666666</ele><time>2026-04-25T12:28:17Z</time></trkpt><trkpt lat="39.51607208827831" lon="9.105106296721313"><ele>151.33333333333331</ele><time>2026-04-25T12:28:18Z</time></trkpt><trkpt lat="39.515927608425756" lon="9.10521956656927"><ele>152.0</ele><time>2026-04-25T12:28:19Z</time></trkpt><trkpt lat="39.51578103643341" lon="9.10533518050108"><ele>152.0</ele><time>2026-04-25T12:28:20Z</time></trkpt><trkpt lat="39.51563148999386" lon="9.105449788574653"><ele>152.0</ele><time>2026-04-25T12:28:21Z</time></trkpt><trkpt lat="39.515483972697595" lon="9.105562754132645"><ele>152.0</ele><time>2026-04-25T12:28:22Z</time></trkpt><trkpt lat="39.51533499404831" lon="9.105677492280613"><ele>151.33333333333331</ele><time>2026-04-25T12:28:23Z</time></trkpt><trkpt lat="39.515188367093906" lon="9.105792366946316"><ele>150.66666666666666</ele><time>2026-04-25T12:28:24Z</time></trkpt><trkpt lat="39.51504133478211" lon="9.105909013626313"><ele>150.0</ele><time>2026-04-25T12:28:25Z</time></trkpt><trkpt lat="39.514894360024364" lon="9.106024621208608"><ele>150.0</ele><time>2026-04-25T12:28:26Z</time></trkpt><trkpt lat="39.514746829846096" lon="9.106138648415143"><ele>150.0</ele><time>2026-04-25T12:28:27Z</time></trkpt><trkpt lat="39.514598733399176" lon="9.106252203761754"><ele>150.0</ele><time>2026-04-25T12:28:28Z</time></trkpt><trkpt lat="39.51444905817553" lon="9.106365357051855"><ele>150.0</ele><time>2026-04-25T12:28:29Z</time></trkpt><trkpt lat="39.51430212947779" lon="9.106481330940184"><ele>150.0</ele><time>2026-04-25T12:28:30Z</time></trkpt><trkpt lat="39.51415420687404" lon="9.106598155318485"><ele>150.0</ele><time>2026-04-25T12:28:31Z</time></trkpt><trkpt lat="39.5140077383699" lon="9.106713949553658"><ele>150.0</ele><time>2026-04-25T12:28:32Z</time></trkpt><trkpt lat="39.51386026509464" lon="9.106830393325646"><ele>150.0</ele><time>2026-04-25T12:28:33Z</time></trkpt><trkpt lat="39.513710423060566" lon="9.106946560648591"><ele>150.0</ele><time>2026-04-25T12:28:34Z</time></trkpt><trkpt lat="39.51355996042823" lon="9.107059540577977"><ele>150.33333333333334</ele><time>2026-04-25T12:28:35Z</time></trkpt><trkpt lat="39.51340700783303" lon="9.107173294347051"><ele>150.66666666666669</ele><time>2026-04-25T12:28:36Z</time></trkpt><trkpt lat="39.51325479299192" lon="9.107289355945476"><ele>151.0</ele><time>2026-04-25T12:28:37Z</time></trkpt><trkpt lat="39.51310109171172" lon="9.107408011265898"><ele>151.33333333333334</ele><time>2026-04-25T12:28:38Z</time></trkpt><trkpt lat="39.512948469781676" lon="9.10752600087868"><ele>151.66666666666666</ele><time>2026-04-25T12:28:39Z</time></trkpt><trkpt lat="39.512796656951586" lon="9.107645971855012"><ele>152.0</ele><time>2026-04-25T12:28:40Z</time></trkpt><trkpt lat="39.512643134064724" lon="9.107766693441123"><ele>152.0</ele><time>2026-04-25T12:28:41Z</time></trkpt><trkpt lat="39.51248796330611" lon="9.107886752208959"><ele>152.0</ele><time>2026-04-25T12:28:42Z</time></trkpt><trkpt lat="39.512331254995516" lon="9.107999180722468"><ele>152.0</ele><time>2026-04-25T12:28:43Z</time></trkpt><trkpt lat="39.51217011795497" lon="9.108105997528579"><ele>151.66666666666666</ele><time>2026-04-25T12:28:44Z</time></trkpt><trkpt lat="39.51200725191092" lon="9.108210300866704"><ele>151.33333333333334</ele><time>2026-04-25T12:28:45Z</time></trkpt><trkpt lat="39.51184188216839" lon="9.108312636129812"><ele>151.0</ele><time>2026-04-25T12:28:46Z</time></trkpt><trkpt lat="39.511676658264356" lon="9.108412486350709"><ele>151.0</ele><time>2026-04-25T12:28:47Z</time></trkpt><trkpt lat="39.51151063223839" lon="9.108512904110086"><ele>151.0</ele><time>2026-04-25T12:28:48Z</time></trkpt><trkpt lat="39.5113462228643" lon="9.108614217432006"><ele>151.0</ele><time>2026-04-25T12:28:49Z</time></trkpt><trkpt lat="39.51117999061023" lon="9.108716982885152"><ele>151.0</ele><time>2026-04-25T12:28:50Z</time></trkpt><trkpt lat="39.511016218246446" lon="9.10881587500245"><ele>151.0</ele><time>2026-04-25T12:28:51Z</time></trkpt><trkpt lat="39.510848454670636" lon="9.108909302478061"><ele>151.0</ele><time>2026-04-25T12:28:52Z</time></trkpt><trkpt lat="39.5106784186138" lon="9.108988555200808"><ele>151.0</ele><time>2026-04-25T12:28:53Z</time></trkpt><trkpt lat="39.510499507056636" lon="9.109059138113604"><ele>151.0</ele><time>2026-04-25T12:28:54Z</time></trkpt><trkpt lat="39.5103250814533" lon="9.109108637334897"><ele>151.0</ele><time>2026-04-25T12:28:55Z</time></trkpt><trkpt lat="39.51014432377985" lon="9.109163582073629"><ele>150.0</ele><time>2026-04-25T12:28:56Z</time></trkpt><trkpt lat="39.5099637557018" lon="9.109214850646492"><ele>149.0</ele><time>2026-04-25T12:28:57Z</time></trkpt><trkpt lat="39.50978402635161" lon="9.10926567774107"><ele>148.0</ele><time>2026-04-25T12:28:58Z</time></trkpt><trkpt lat="39.50960483147106" lon="9.109316014301633"><ele>148.33333333333334</ele><time>2026-04-25T12:28:59Z</time></trkpt><trkpt lat="39.50942574274528" lon="9.109366416583711"><ele>148.66666666666666</ele><time>2026-04-25T12:29:00Z</time></trkpt><trkpt lat="39.509247771395216" lon="9.109417269128006"><ele>149.0</ele><time>2026-04-25T12:29:01Z</time></trkpt><trkpt lat="39.50906822121668" lon="9.109468107406567"><ele>149.0</ele><time>2026-04-25T12:29:02Z</time></trkpt><trkpt lat="39.5088884892604" lon="9.10951858562072"><ele>149.0</ele><time>2026-04-25T12:29:03Z</time></trkpt><trkpt lat="39.50871103280047" lon="9.10956888476749"><ele>149.0</ele><time>2026-04-25T12:29:04Z</time></trkpt><trkpt lat="39.50853052584443" lon="9.109623238063666"><ele>149.33333333333331</ele><time>2026-04-25T12:29:05Z</time></trkpt><trkpt lat="39.50835205151394" lon="9.109677817458385"><ele>149.66666666666666</ele><time>2026-04-25T12:29:06Z</time></trkpt><trkpt lat="39.508171531127566" lon="9.109732748738494"><ele>150.0</ele><time>2026-04-25T12:29:07Z</time></trkpt><trkpt lat="39.507993130043026" lon="9.109786465844984"><ele>150.0</ele><time>2026-04-25T12:29:08Z</time></trkpt><trkpt lat="39.50781263055695" lon="9.109838184644351"><ele>150.0</ele><time>2026-04-25T12:29:09Z</time></trkpt><trkpt lat="39.507631342394845" lon="9.109887263063927"><ele>150.0</ele><time>2026-04-25T12:29:10Z</time></trkpt><trkpt lat="39.50744927026851" lon="9.109936457092807"><ele>150.0</ele><time>2026-04-25T12:29:11Z</time></trkpt><trkpt lat="39.50726422857833" lon="9.109994460315816"><ele>150.0</ele><time>2026-04-25T12:29:12Z</time></trkpt><trkpt lat="39.5070830032098" lon="9.110053801366135"><ele>150.0</ele><time>2026-04-25T12:29:13Z</time></trkpt><trkpt lat="39.50690014027533" lon="9.11010599191642"><ele>150.0</ele><time>2026-04-25T12:29:14Z</time></trkpt><trkpt lat="39.50671792935255" lon="9.11015080610011"><ele>150.0</ele><time>2026-04-25T12:29:15Z</time></trkpt><trkpt lat="39.506531839981825" lon="9.11018441780416"><ele>150.0</ele><time>2026-04-25T12:29:16Z</time></trkpt><trkpt lat="39.506347260113465" lon="9.110198508813324"><ele>149.33333333333334</ele><time>2026-04-25T12:29:17Z</time></trkpt><trkpt lat="39.50616145558514" lon="9.110187165905497"><ele>148.66666666666669</ele><time>2026-04-25T12:29:18Z</time></trkpt><trkpt lat="39.505978297842766" lon="9.110153672813391"><ele>148.0</ele><time>2026-04-25T12:29:19Z</time></trkpt><trkpt lat="39.50579388873172" lon="9.11011645986254"><ele>148.0</ele><time>2026-04-25T12:29:20Z</time></trkpt><trkpt lat="39.50560953456506" lon="9.110085700274679"><ele>148.0</ele><time>2026-04-25T12:29:21Z</time></trkpt><trkpt lat="39.50542536087176" lon="9.110054702459403"><ele>148.0</ele><time>2026-04-25T12:29:22Z</time></trkpt><trkpt lat="39.505241685444716" lon="9.110017386736066"><ele>149.33333333333334</ele><time>2026-04-25T12:29:23Z</time></trkpt><trkpt lat="39.50505957864618" lon="9.109979449859187"><ele>150.66666666666666</ele><time>2026-04-25T12:29:24Z</time></trkpt><trkpt lat="39.50487669371863" lon="9.109941968935447"><ele>152.0</ele><time>2026-04-25T12:29:25Z</time></trkpt><trkpt lat="39.504515051334714" lon="9.109869235551777"><ele>153.0</ele><time>2026-04-25T12:29:27Z</time></trkpt><trkpt lat="39.5043347586418" lon="9.109842125668742"><ele>154.0</ele><time>2026-04-25T12:29:28Z</time></trkpt><trkpt lat="39.504150564082224" lon="9.109826469590827"><ele>155.0</ele><time>2026-04-25T12:29:29Z</time></trkpt><trkpt lat="39.50396692860507" lon="9.109828584581605"><ele>155.0</ele><time>2026-04-25T12:29:30Z</time></trkpt><trkpt lat="39.50378482158791" lon="9.109847285527877"><ele>155.0</ele><time>2026-04-25T12:29:31Z</time></trkpt><trkpt lat="39.503606137406464" lon="9.109873925488152"><ele>155.0</ele><time>2026-04-25T12:29:32Z</time></trkpt><trkpt lat="39.50342671846716" lon="9.109900023640588"><ele>156.0</ele><time>2026-04-25T12:29:33Z</time></trkpt><trkpt lat="39.50324969601818" lon="9.10992125547415"><ele>157.0</ele><time>2026-04-25T12:29:34Z</time></trkpt><trkpt lat="39.50308476229829" lon="9.109940285206747"><ele>158.0</ele><time>2026-04-25T12:29:35Z</time></trkpt><trkpt lat="39.50293087363691" lon="9.109961109549397"><ele>158.0</ele><time>2026-04-25T12:29:36Z</time></trkpt><trkpt lat="39.502792322260355" lon="9.109982341573522"><ele>158.0</ele><time>2026-04-25T12:29:37Z</time></trkpt><trkpt lat="39.502669441821" lon="9.110008612969521"><ele>158.0</ele><time>2026-04-25T12:29:38Z</time></trkpt><trkpt lat="39.50255096179444" lon="9.110030233605192"><ele>158.0</ele><time>2026-04-25T12:29:39Z</time></trkpt><trkpt lat="39.50244072775098" lon="9.11004209350964"><ele>158.0</ele><time>2026-04-25T12:29:40Z</time></trkpt><trkpt lat="39.50234460795508" lon="9.110041246527569"><ele>158.0</ele><time>2026-04-25T12:29:41Z</time></trkpt><trkpt lat="39.50225067976375" lon="9.110019101432691"><ele>158.0</ele><time>2026-04-25T12:29:42Z</time></trkpt><trkpt lat="39.502150219072384" lon="9.109963288655463"><ele>158.0</ele><time>2026-04-25T12:29:43Z</time></trkpt><trkpt lat="39.50204637014875" lon="9.109873126394833"><ele>158.0</ele><time>2026-04-25T12:29:44Z</time></trkpt><trkpt lat="39.50193326078731" lon="9.10976949538225"><ele>158.33333333333331</ele><time>2026-04-25T12:29:45Z</time></trkpt><trkpt lat="39.50180869306752" lon="9.10966773930085"><ele>158.66666666666666</ele><time>2026-04-25T12:29:46Z</time></trkpt><trkpt lat="39.5016728665137" lon="9.109555745908443"><ele>159.0</ele><time>2026-04-25T12:29:47Z</time></trkpt><trkpt lat="39.50153227803533" lon="9.109440061928968"><ele>159.0</ele><time>2026-04-25T12:29:48Z</time></trkpt><trkpt lat="39.50138510669783" lon="9.109322676714807"><ele>159.0</ele><time>2026-04-25T12:29:49Z</time></trkpt><trkpt lat="39.50123414528578" lon="9.109199273039845"><ele>159.0</ele><time>2026-04-25T12:29:50Z</time></trkpt><trkpt lat="39.50108029267293" lon="9.109065094651678"><ele>159.33333333333334</ele><time>2026-04-25T12:29:51Z</time></trkpt><trkpt lat="39.500923892805396" lon="9.108929615951787"><ele>159.66666666666669</ele><time>2026-04-25T12:29:52Z</time></trkpt><trkpt lat="39.500760660001006" lon="9.10879618338024"><ele>160.0</ele><time>2026-04-25T12:29:53Z</time></trkpt><trkpt lat="39.50060079787634" lon="9.108667217735018"><ele>160.0</ele><time>2026-04-25T12:29:54Z</time></trkpt><trkpt lat="39.50044418211661" lon="9.1085355485159"><ele>160.0</ele><time>2026-04-25T12:29:55Z</time></trkpt><trkpt lat="39.50028711123581" lon="9.108403079149054"><ele>160.0</ele><time>2026-04-25T12:29:56Z</time></trkpt><trkpt lat="39.500132601670465" lon="9.108273264751276"><ele>159.66666666666669</ele><time>2026-04-25T12:29:57Z</time></trkpt><trkpt lat="39.49997413205568" lon="9.108142599804694"><ele>159.33333333333334</ele><time>2026-04-25T12:29:58Z</time></trkpt><trkpt lat="39.49981821565689" lon="9.10801437136528"><ele>159.0</ele><time>2026-04-25T12:29:59Z</time></trkpt><trkpt lat="39.49966102992661" lon="9.107881179016642"><ele>158.66666666666666</ele><time>2026-04-25T12:30:00Z</time></trkpt><trkpt lat="39.49950696623605" lon="9.107747952963932"><ele>158.33333333333331</ele><time>2026-04-25T12:30:01Z</time></trkpt><trkpt lat="39.499350468282245" lon="9.107613208418545"><ele>158.0</ele><time>2026-04-25T12:30:02Z</time></trkpt><trkpt lat="39.499194391369166" lon="9.107479969775783"><ele>157.66666666666666</ele><time>2026-04-25T12:30:03Z</time></trkpt><trkpt lat="39.49903459551519" lon="9.107342565771857"><ele>157.33333333333334</ele><time>2026-04-25T12:30:04Z</time></trkpt><trkpt lat="39.498876685612565" lon="9.107201778023907"><ele>157.0</ele><time>2026-04-25T12:30:05Z</time></trkpt><trkpt lat="39.49871730138939" lon="9.107057375580633"><ele>157.0</ele><time>2026-04-25T12:30:06Z</time></trkpt><trkpt lat="39.49855490853633" lon="9.106914108573369"><ele>157.0</ele><time>2026-04-25T12:30:07Z</time></trkpt><trkpt lat="39.498389012376755" lon="9.10677470309006"><ele>157.0</ele><time>2026-04-25T12:30:08Z</time></trkpt><trkpt lat="39.498223731433306" lon="9.106634930558043"><ele>157.0</ele><time>2026-04-25T12:30:09Z</time></trkpt><trkpt lat="39.49805995078005" lon="9.106490016220663"><ele>157.0</ele><time>2026-04-25T12:30:10Z</time></trkpt><trkpt lat="39.497895657841134" lon="9.106347525567452"><ele>157.0</ele><time>2026-04-25T12:30:11Z</time></trkpt><trkpt lat="39.49772878966231" lon="9.106210628005067"><ele>156.0</ele><time>2026-04-25T12:30:12Z</time></trkpt><trkpt lat="39.49756367184424" lon="9.106075766475884"><ele>155.0</ele><time>2026-04-25T12:30:13Z</time></trkpt><trkpt lat="39.497398169717044" lon="9.1059382266345"><ele>154.0</ele><time>2026-04-25T12:30:14Z</time></trkpt><trkpt lat="39.497235611996906" lon="9.105798241468095"><ele>153.0</ele><time>2026-04-25T12:30:15Z</time></trkpt><trkpt lat="39.49707118419406" lon="9.105660959613509"><ele>152.0</ele><time>2026-04-25T12:30:16Z</time></trkpt><trkpt lat="39.49690040738691" lon="9.105537946964384"><ele>151.0</ele><time>2026-04-25T12:30:17Z</time></trkpt><trkpt lat="39.49672429605198" lon="9.105430019340544"><ele>151.0</ele><time>2026-04-25T12:30:18Z</time></trkpt><trkpt lat="39.49654510879031" lon="9.105335721382907"><ele>151.0</ele><time>2026-04-25T12:30:19Z</time></trkpt><trkpt lat="39.49636068070006" lon="9.105245349405452"><ele>151.0</ele><time>2026-04-25T12:30:20Z</time></trkpt><trkpt lat="39.496176083251214" lon="9.10515791694093"><ele>150.66666666666669</ele><time>2026-04-25T12:30:21Z</time></trkpt><trkpt lat="39.495994003920906" lon="9.10507315035203"><ele>150.33333333333334</ele><time>2026-04-25T12:30:22Z</time></trkpt><trkpt lat="39.49581257255072" lon="9.104984847926024"><ele>150.0</ele><time>2026-04-25T12:30:23Z</time></trkpt><trkpt lat="39.49563159789692" lon="9.104895419712514"><ele>150.66666666666666</ele><time>2026-04-25T12:30:24Z</time></trkpt><trkpt lat="39.49545023043206" lon="9.104808171854204"><ele>151.33333333333331</ele><time>2026-04-25T12:30:25Z</time></trkpt><trkpt lat="39.49526704025281" lon="9.104728424630661"><ele>152.0</ele><time>2026-04-25T12:30:26Z</time></trkpt><trkpt lat="39.49508378147268" lon="9.104651465141256"><ele>152.0</ele><time>2026-04-25T12:30:27Z</time></trkpt><trkpt lat="39.49490304837216" lon="9.104573670457086"><ele>152.0</ele><time>2026-04-25T12:30:28Z</time></trkpt><trkpt lat="39.49472241170002" lon="9.104495545909234"><ele>152.0</ele><time>2026-04-25T12:30:29Z</time></trkpt><trkpt lat="39.4945395727002" lon="9.104416289943828"><ele>151.66666666666666</ele><time>2026-04-25T12:30:30Z</time></trkpt><trkpt lat="39.49435775806802" lon="9.10433521244055"><ele>151.33333333333334</ele><time>2026-04-25T12:30:31Z</time></trkpt><trkpt lat="39.494176355626585" lon="9.10425440871131"><ele>151.0</ele><time>2026-04-25T12:30:32Z</time></trkpt><trkpt lat="39.49399428586133" lon="9.104175150769382"><ele>151.0</ele><time>2026-04-25T12:30:33Z</time></trkpt><trkpt lat="39.493812984727214" lon="9.104095691992866"><ele>151.0</ele><time>2026-04-25T12:30:34Z</time></trkpt><trkpt lat="39.49363261092445" lon="9.1040111159924"><ele>151.0</ele><time>2026-04-25T12:30:35Z</time></trkpt><trkpt lat="39.49345407961733" lon="9.103924454758914"><ele>151.33333333333334</ele><time>2026-04-25T12:30:36Z</time></trkpt><trkpt lat="39.49327672470591" lon="9.103832646199972"><ele>151.66666666666666</ele><time>2026-04-25T12:30:37Z</time></trkpt><trkpt lat="39.49310097627883" lon="9.103730149313648"><ele>152.0</ele><time>2026-04-25T12:30:38Z</time></trkpt><trkpt lat="39.492934356986815" lon="9.103608297532212"><ele>151.66666666666666</ele><time>2026-04-25T12:30:39Z</time></trkpt><trkpt lat="39.492782083779126" lon="9.103460564893062"><ele>151.33333333333334</ele><time>2026-04-25T12:30:40Z</time></trkpt><trkpt lat="39.492634345547614" lon="9.103302941331764"><ele>151.0</ele><time>2026-04-25T12:30:41Z</time></trkpt><trkpt lat="39.49249241998096" lon="9.10312985669726"><ele>151.0</ele><time>2026-04-25T12:30:42Z</time></trkpt><trkpt lat="39.492348136981036" lon="9.102963993002874"><ele>151.0</ele><time>2026-04-25T12:30:43Z</time></trkpt><trkpt lat="39.49220798871958" lon="9.102800670652295"><ele>151.0</ele><time>2026-04-25T12:30:44Z</time></trkpt><trkpt lat="39.492068268833954" lon="9.102635602934704"><ele>150.5</ele><time>2026-04-25T12:30:45Z</time></trkpt><trkpt lat="39.49193845533838" lon="9.102498944680192"><ele>150.0</ele><time>2026-04-25T12:30:46Z</time></trkpt><trkpt lat="39.49181420166953" lon="9.102406942195953"><ele>149.5</ele><time>2026-04-25T12:30:47Z</time></trkpt><trkpt lat="39.491701214358784" lon="9.102345019304588"><ele>149.0</ele><time>2026-04-25T12:30:48Z</time></trkpt><trkpt lat="39.49161878456199" lon="9.102266614375061"><ele>149.0</ele><time>2026-04-25T12:30:49Z</time></trkpt><trkpt lat="39.491565559935815" lon="9.102157731427795"><ele>149.0</ele><time>2026-04-25T12:30:50Z</time></trkpt><trkpt lat="39.49152315348203" lon="9.102050641894651"><ele>149.0</ele><time>2026-04-25T12:30:51Z</time></trkpt><trkpt lat="39.49144441902354" lon="9.101980700197098"><ele>149.0</ele><time>2026-04-25T12:30:52Z</time></trkpt><trkpt lat="39.49135190731776" lon="9.101977324090706"><ele>149.0</ele><time>2026-04-25T12:30:53Z</time></trkpt><trkpt lat="39.491258362721766" lon="9.102023223575593"><ele>148.5</ele><time>2026-04-25T12:30:54Z</time></trkpt><trkpt lat="39.49115307157284" lon="9.10205141452157"><ele>148.0</ele><time>2026-04-25T12:30:55Z</time></trkpt><trkpt lat="39.49104604539269" lon="9.101982151804338"><ele>147.5</ele><time>2026-04-25T12:30:56Z</time></trkpt><trkpt lat="39.490918316364166" lon="9.101930074814097"><ele>147.0</ele><time>2026-04-25T12:30:57Z</time></trkpt><trkpt lat="39.490788480326614" lon="9.101842055786122"><ele>147.0</ele><time>2026-04-25T12:30:58Z</time></trkpt><trkpt lat="39.49065224178325" lon="9.101764095138375"><ele>147.0</ele><time>2026-04-25T12:30:59Z</time></trkpt><trkpt lat="39.49050751807126" lon="9.10169114220086"><ele>147.0</ele><time>2026-04-25T12:31:00Z</time></trkpt><trkpt lat="39.490358305676935" lon="9.101611062739911"><ele>145.66666666666666</ele><time>2026-04-25T12:31:01Z</time></trkpt><trkpt lat="39.49020520997187" lon="9.101520492478107"><ele>144.33333333333331</ele><time>2026-04-25T12:31:02Z</time></trkpt><trkpt lat="39.49004751056735" lon="9.10142508076421"><ele>143.0</ele><time>2026-04-25T12:31:03Z</time></trkpt><trkpt lat="39.48988475431491" lon="9.101331980502565"><ele>143.0</ele><time>2026-04-25T12:31:04Z</time></trkpt><trkpt lat="39.489717698242465" lon="9.101242254386488"><ele>143.0</ele><time>2026-04-25T12:31:05Z</time></trkpt><trkpt lat="39.489547717620574" lon="9.101152953537802"><ele>143.0</ele><time>2026-04-25T12:31:06Z</time></trkpt><trkpt lat="39.48937531176235" lon="9.10106047562495"><ele>142.0</ele><time>2026-04-25T12:31:07Z</time></trkpt><trkpt lat="39.489204788848674" lon="9.100965122404208"><ele>141.0</ele><time>2026-04-25T12:31:08Z</time></trkpt><trkpt lat="39.489034931898274" lon="9.100868426899792"><ele>140.0</ele><time>2026-04-25T12:31:09Z</time></trkpt><trkpt lat="39.48886471089239" lon="9.100773415835612"><ele>140.66666666666666</ele><time>2026-04-25T12:31:10Z</time></trkpt><trkpt lat="39.48869382018901" lon="9.100680564787936"><ele>141.33333333333334</ele><time>2026-04-25T12:31:11Z</time></trkpt><trkpt lat="39.48852426416067" lon="9.100594125181411"><ele>142.0</ele><time>2026-04-25T12:31:12Z</time></trkpt><trkpt lat="39.488354998066214" lon="9.100513725598736"><ele>142.0</ele><time>2026-04-25T12:31:13Z</time></trkpt><trkpt lat="39.48818317042411" lon="9.100436705363737"><ele>142.0</ele><time>2026-04-25T12:31:14Z</time></trkpt><trkpt lat="39.48800815758238" lon="9.100366750189313"><ele>142.0</ele><time>2026-04-25T12:31:15Z</time></trkpt><trkpt lat="39.48783352118949" lon="9.1003051987452"><ele>141.66666666666669</ele><time>2026-04-25T12:31:16Z</time></trkpt><trkpt lat="39.48766394877857" lon="9.100250727318357"><ele>141.33333333333334</ele><time>2026-04-25T12:31:17Z</time></trkpt><trkpt lat="39.487504972013035" lon="9.100200378868777"><ele>141.0</ele><time>2026-04-25T12:31:18Z</time></trkpt><trkpt lat="39.487354729070745" lon="9.100152675143848"><ele>141.0</ele><time>2026-04-25T12:31:19Z</time></trkpt><trkpt lat="39.487202808824584" lon="9.100103446169523"><ele>141.0</ele><time>2026-04-25T12:31:20Z</time></trkpt><trkpt lat="39.4870509508428" lon="9.100054831728515"><ele>141.0</ele><time>2026-04-25T12:31:21Z</time></trkpt><trkpt lat="39.48690591073093" lon="9.100009183597033"><ele>140.5</ele><time>2026-04-25T12:31:22Z</time></trkpt><trkpt lat="39.48677063012313" lon="9.099964362819522"><ele>140.0</ele><time>2026-04-25T12:31:23Z</time></trkpt><trkpt lat="39.486642925827276" lon="9.09992033773842"><ele>139.5</ele><time>2026-04-25T12:31:24Z</time></trkpt><trkpt lat="39.486519202312536" lon="9.099875946074118"><ele>139.0</ele><time>2026-04-25T12:31:25Z</time></trkpt><trkpt lat="39.4863997551014" lon="9.09982612452564"><ele>139.0</ele><time>2026-04-25T12:31:26Z</time></trkpt><trkpt lat="39.48628478764594" lon="9.099768500616943"><ele>139.0</ele><time>2026-04-25T12:31:27Z</time></trkpt><trkpt lat="39.48617733559692" lon="9.099700329433478"><ele>139.0</ele><time>2026-04-25T12:31:28Z</time></trkpt><trkpt lat="39.48608478843564" lon="9.09961159111575"><ele>139.0</ele><time>2026-04-25T12:31:29Z</time></trkpt><trkpt lat="39.48599456086432" lon="9.099532125939806"><ele>138.2</ele><time>2026-04-25T12:31:30Z</time></trkpt><trkpt lat="39.485915699440824" lon="9.099455585420129"><ele>137.4</ele><time>2026-04-25T12:31:31Z</time></trkpt><trkpt lat="39.485847513733184" lon="9.099387845216484"><ele>136.6</ele><time>2026-04-25T12:31:32Z</time></trkpt><trkpt lat="39.48579106434155" lon="9.09932678221321"><ele>135.8</ele><time>2026-04-25T12:31:33Z</time></trkpt><trkpt lat="39.48574163402856" lon="9.099269826510396"><ele>135.0</ele><time>2026-04-25T12:31:34Z</time></trkpt><trkpt lat="39.4855534523923" lon="9.099446730712105"><ele>135.0</ele><time>2026-04-25T12:31:36Z</time></trkpt><trkpt lat="39.48550964508871" lon="9.099557328396088"><ele>135.0</ele><time>2026-04-25T12:31:37Z</time></trkpt><trkpt lat="39.48546880454891" lon="9.099685623757319"><ele>135.0</ele><time>2026-04-25T12:31:38Z</time></trkpt><trkpt lat="39.48540654915557" lon="9.099797756921882"><ele>135.0</ele><time>2026-04-25T12:31:39Z</time></trkpt><trkpt lat="39.48533514297902" lon="9.099919413828932"><ele>135.0</ele><time>2026-04-25T12:31:40Z</time></trkpt><trkpt lat="39.485259929881835" lon="9.10005336823454"><ele>134.5</ele><time>2026-04-25T12:31:41Z</time></trkpt><trkpt lat="39.48517898977019" lon="9.100195092218948"><ele>134.0</ele><time>2026-04-25T12:31:42Z</time></trkpt><trkpt lat="39.48509602786282" lon="9.100341772629049"><ele>133.5</ele><time>2026-04-25T12:31:43Z</time></trkpt><trkpt lat="39.48501205345673" lon="9.100490389437912"><ele>133.0</ele><time>2026-04-25T12:31:44Z</time></trkpt><trkpt lat="39.48493005216248" lon="9.100628937373573"><ele>132.75</ele><time>2026-04-25T12:31:45Z</time></trkpt><trkpt lat="39.48484788606121" lon="9.100770627402396"><ele>132.5</ele><time>2026-04-25T12:31:46Z</time></trkpt><trkpt lat="39.484766135495555" lon="9.100912201057394"><ele>132.25</ele><time>2026-04-25T12:31:47Z</time></trkpt><trkpt lat="39.484685291120265" lon="9.101052366401925"><ele>132.0</ele><time>2026-04-25T12:31:48Z</time></trkpt><trkpt lat="39.48461126728944" lon="9.101186844799543"><ele>132.25</ele><time>2026-04-25T12:31:49Z</time></trkpt><trkpt lat="39.484541463380225" lon="9.101315294031439"><ele>132.5</ele><time>2026-04-25T12:31:50Z</time></trkpt><trkpt lat="39.484470772884045" lon="9.101434986820811"><ele>132.75</ele><time>2026-04-25T12:31:51Z</time></trkpt><trkpt lat="39.484392132131354" lon="9.10155647158759"><ele>133.0</ele><time>2026-04-25T12:31:52Z</time></trkpt><trkpt lat="39.48431137571961" lon="9.101688170887916"><ele>133.0</ele><time>2026-04-25T12:31:53Z</time></trkpt><trkpt lat="39.48422731718547" lon="9.101839003597856"><ele>133.0</ele><time>2026-04-25T12:31:54Z</time></trkpt><trkpt lat="39.48415008241125" lon="9.101982556918465"><ele>133.0</ele><time>2026-04-25T12:31:55Z</time></trkpt><trkpt lat="39.484054765546325" lon="9.102125638022462"><ele>133.0</ele><time>2026-04-25T12:31:56Z</time></trkpt><trkpt lat="39.48394527980307" lon="9.102254730532945"><ele>133.0</ele><time>2026-04-25T12:31:57Z</time></trkpt><trkpt lat="39.483828977959256" lon="9.102368960932687"><ele>133.0</ele><time>2026-04-25T12:31:58Z</time></trkpt><trkpt lat="39.483711224044036" lon="9.102479147564432"><ele>133.0</ele><time>2026-04-25T12:31:59Z</time></trkpt><trkpt lat="39.48359685863568" lon="9.10259501042465"><ele>133.0</ele><time>2026-04-25T12:32:00Z</time></trkpt><trkpt lat="39.48348359533451" lon="9.102710609698203"><ele>133.0</ele><time>2026-04-25T12:32:01Z</time></trkpt><trkpt lat="39.48337513729482" lon="9.102819302556465"><ele>133.0</ele><time>2026-04-25T12:32:02Z</time></trkpt><trkpt lat="39.48327864190613" lon="9.102902549737694"><ele>133.0</ele><time>2026-04-25T12:32:03Z</time></trkpt><trkpt lat="39.4831894556198" lon="9.102921155036732"><ele>133.0</ele><time>2026-04-25T12:32:04Z</time></trkpt><trkpt lat="39.48311761410949" lon="9.102915781797856"><ele>133.0</ele><time>2026-04-25T12:32:05Z</time></trkpt><trkpt lat="39.48305468411325" lon="9.102810353821711"><ele>133.0</ele><time>2026-04-25T12:32:06Z</time></trkpt><trkpt lat="39.48296797196976" lon="9.102712546805467"><ele>133.0</ele><time>2026-04-25T12:32:07Z</time></trkpt><trkpt lat="39.48288386605598" lon="9.102587785277944"><ele>133.0</ele><time>2026-04-25T12:32:08Z</time></trkpt><trkpt lat="39.482801655466915" lon="9.102468587099573"><ele>133.0</ele><time>2026-04-25T12:32:09Z</time></trkpt><trkpt lat="39.48272764374897" lon="9.10232054846677"><ele>133.25</ele><time>2026-04-25T12:32:10Z</time></trkpt><trkpt lat="39.482637906708476" lon="9.102176739460631"><ele>133.5</ele><time>2026-04-25T12:32:11Z</time></trkpt><trkpt lat="39.4825335857284" lon="9.102038832554992"><ele>133.75</ele><time>2026-04-25T12:32:12Z</time></trkpt><trkpt lat="39.482440186636985" lon="9.101881756393222"><ele>134.0</ele><time>2026-04-25T12:32:13Z</time></trkpt><trkpt lat="39.4823410360625" lon="9.101724892373067"><ele>133.66666666666666</ele><time>2026-04-25T12:32:14Z</time></trkpt><trkpt lat="39.482229926887655" lon="9.101580974768137"><ele>133.33333333333334</ele><time>2026-04-25T12:32:15Z</time></trkpt><trkpt lat="39.4820948103454" lon="9.101472302383568"><ele>133.0</ele><time>2026-04-25T12:32:16Z</time></trkpt><trkpt lat="39.48193743752733" lon="9.101401554783607"><ele>134.33333333333334</ele><time>2026-04-25T12:32:17Z</time></trkpt><trkpt lat="39.481782810449594" lon="9.101336715157494"><ele>135.66666666666666</ele><time>2026-04-25T12:32:18Z</time></trkpt><trkpt lat="39.48163550675262" lon="9.10126966790766"><ele>137.0</ele><time>2026-04-25T12:32:19Z</time></trkpt><trkpt lat="39.48148778348348" lon="9.101197182152866"><ele>137.0</ele><time>2026-04-25T12:32:20Z</time></trkpt><trkpt lat="39.48133830377081" lon="9.10112552174287"><ele>137.0</ele><time>2026-04-25T12:32:21Z</time></trkpt><trkpt lat="39.48119299978102" lon="9.101050655588969"><ele>137.0</ele><time>2026-04-25T12:32:22Z</time></trkpt><trkpt lat="39.481045169997195" lon="9.10098564311532"><ele>138.0</ele><time>2026-04-25T12:32:23Z</time></trkpt><trkpt lat="39.480896792867696" lon="9.100947131412282"><ele>139.0</ele><time>2026-04-25T12:32:24Z</time></trkpt><trkpt lat="39.48074872364229" lon="9.100949222655355"><ele>140.0</ele><time>2026-04-25T12:32:25Z</time></trkpt><trkpt lat="39.48060240828253" lon="9.100975078301017"><ele>141.0</ele><time>2026-04-25T12:32:26Z</time></trkpt><trkpt lat="39.48046011843739" lon="9.101003292985185"><ele>141.0</ele><time>2026-04-25T12:32:27Z</time></trkpt><trkpt lat="39.48031752382164" lon="9.10102469413059"><ele>141.0</ele><time>2026-04-25T12:32:28Z</time></trkpt><trkpt lat="39.4801727399968" lon="9.101043213986154"><ele>141.0</ele><time>2026-04-25T12:32:29Z</time></trkpt><trkpt lat="39.48002979015622" lon="9.101058855313807"><ele>141.0</ele><time>2026-04-25T12:32:30Z</time></trkpt><trkpt lat="39.47988691432204" lon="9.101076381390078"><ele>141.0</ele><time>2026-04-25T12:32:31Z</time></trkpt><trkpt lat="39.47974458516937" lon="9.101097831431428"><ele>141.0</ele><time>2026-04-25T12:32:32Z</time></trkpt><trkpt lat="39.47959991633465" lon="9.101103528045114"><ele>141.0</ele><time>2026-04-25T12:32:33Z</time></trkpt><trkpt lat="39.47946690427798" lon="9.101136640283979"><ele>141.0</ele><time>2026-04-25T12:32:34Z</time></trkpt><trkpt lat="39.4793322935683" lon="9.101154960151812"><ele>140.75</ele><time>2026-04-25T12:32:35Z</time></trkpt><trkpt lat="39.47919845781526" lon="9.10117407903537"><ele>140.5</ele><time>2026-04-25T12:32:36Z</time></trkpt><trkpt lat="39.47906679489071" lon="9.10119369561714"><ele>140.25</ele><time>2026-04-25T12:32:37Z</time></trkpt><trkpt lat="39.47894149381995" lon="9.101211942963278"><ele>140.0</ele><time>2026-04-25T12:32:38Z</time></trkpt><trkpt lat="39.47882124867427" lon="9.10122742683675"><ele>139.6</ele><time>2026-04-25T12:32:39Z</time></trkpt><trkpt lat="39.47870602538154" lon="9.10123993231666"><ele>139.2</ele><time>2026-04-25T12:32:40Z</time></trkpt><trkpt lat="39.47859589365565" lon="9.10125147503363"><ele>138.8</ele><time>2026-04-25T12:32:41Z</time></trkpt><trkpt lat="39.4784918059507" lon="9.10123263419027"><ele>138.4</ele><time>2026-04-25T12:32:42Z</time></trkpt><trkpt lat="39.478390572339165" lon="9.101244797912168"><ele>138.0</ele><time>2026-04-25T12:32:43Z</time></trkpt><trkpt lat="39.47829159381456" lon="9.101231988275599"><ele>138.0</ele><time>2026-04-25T12:32:44Z</time></trkpt><trkpt lat="39.478192342297966" lon="9.101218531101352"><ele>138.0</ele><time>2026-04-25T12:32:45Z</time></trkpt><trkpt lat="39.47808873621561" lon="9.101208078258523"><ele>138.0</ele><time>2026-04-25T12:32:46Z</time></trkpt><trkpt lat="39.47798278142806" lon="9.101196790267059"><ele>138.0</ele><time>2026-04-25T12:32:47Z</time></trkpt><trkpt lat="39.47787434268435" lon="9.10118349129409"><ele>138.0</ele><time>2026-04-25T12:32:48Z</time></trkpt><trkpt lat="39.47776427688531" lon="9.101172449490765"><ele>138.20000000000002</ele><time>2026-04-25T12:32:49Z</time></trkpt><trkpt lat="39.47765860633084" lon="9.101161077716865"><ele>138.4</ele><time>2026-04-25T12:32:50Z</time></trkpt><trkpt lat="39.47755725910868" lon="9.10114940972733"><ele>138.60000000000002</ele><time>2026-04-25T12:32:51Z</time></trkpt><trkpt lat="39.47746241592063" lon="9.101139737340404"><ele>138.8</ele><time>2026-04-25T12:32:52Z</time></trkpt><trkpt lat="39.477372368312025" lon="9.101131972708494"><ele>139.0</ele><time>2026-04-25T12:32:53Z</time></trkpt><trkpt lat="39.47728895532504" lon="9.101121963361233"><ele>139.0</ele><time>2026-04-25T12:32:54Z</time></trkpt><trkpt lat="39.47719466665044" lon="9.101118643879474"><ele>139.0</ele><time>2026-04-25T12:32:56Z</time></trkpt><trkpt lat="39.47711645404415" lon="9.101120790386162"><ele>139.0</ele><time>2026-04-25T12:32:59Z</time></trkpt><trkpt lat="39.47703286896599" lon="9.10118643630892"><ele>139.0</ele><time>2026-04-25T12:33:01Z</time></trkpt><trkpt lat="39.477011619160585" lon="9.101265150099914"><ele>139.0</ele><time>2026-04-25T12:33:02Z</time></trkpt><trkpt lat="39.47699636907509" lon="9.101355003763704"><ele>139.0</ele><time>2026-04-25T12:33:03Z</time></trkpt><trkpt lat="39.476967512246304" lon="9.101449083756188"><ele>139.0</ele><time>2026-04-25T12:33:04Z</time></trkpt><trkpt lat="39.476910787173814" lon="9.101538698970423"><ele>139.0</ele><time>2026-04-25T12:33:05Z</time></trkpt><trkpt lat="39.47684300371203" lon="9.101616806634263"><ele>139.0</ele><time>2026-04-25T12:33:06Z</time></trkpt><trkpt lat="39.47675884058379" lon="9.10169354316763"><ele>139.0</ele><time>2026-04-25T12:33:07Z</time></trkpt><trkpt lat="39.47666886787987" lon="9.101760882144884"><ele>139.0</ele><time>2026-04-25T12:33:08Z</time></trkpt><trkpt lat="39.47658064447082" lon="9.101815875826372"><ele>139.25</ele><time>2026-04-25T12:33:09Z</time></trkpt><trkpt lat="39.476407691653044" lon="9.101915650283235"><ele>139.5</ele><time>2026-04-25T12:33:11Z</time></trkpt><trkpt lat="39.47631970889376" lon="9.10196788757639"><ele>139.75</ele><time>2026-04-25T12:33:12Z</time></trkpt><trkpt lat="39.476222723040806" lon="9.102028708217759"><ele>140.0</ele><time>2026-04-25T12:33:13Z</time></trkpt><trkpt lat="39.4761222231715" lon="9.102087676576124"><ele>140.0</ele><time>2026-04-25T12:33:14Z</time></trkpt><trkpt lat="39.47602134267139" lon="9.102147233882397"><ele>140.0</ele><time>2026-04-25T12:33:15Z</time></trkpt><trkpt lat="39.47592531079695" lon="9.102206550989719"><ele>140.0</ele><time>2026-04-25T12:33:16Z</time></trkpt><trkpt lat="39.47583710975114" lon="9.10225823932523"><ele>140.0</ele><time>2026-04-25T12:33:17Z</time></trkpt><trkpt lat="39.47575480751636" lon="9.102306017984603"><ele>140.0</ele><time>2026-04-25T12:33:18Z</time></trkpt><trkpt lat="39.47567719664458" lon="9.10235412533788"><ele>140.0</ele><time>2026-04-25T12:33:19Z</time></trkpt><trkpt lat="39.47559566464586" lon="9.102402264951198"><ele>140.0</ele><time>2026-04-25T12:33:20Z</time></trkpt><trkpt lat="39.475510947111786" lon="9.102454716779434"><ele>140.0</ele><time>2026-04-25T12:33:21Z</time></trkpt><trkpt lat="39.47543399007897" lon="9.102502998742882"><ele>140.0</ele><time>2026-04-25T12:33:22Z</time></trkpt><trkpt lat="39.47536199496022" lon="9.102549280827843"><ele>140.0</ele><time>2026-04-25T12:33:23Z</time></trkpt><trkpt lat="39.47530097996623" lon="9.102586515551032"><ele>140.0</ele><time>2026-04-25T12:33:24Z</time></trkpt><trkpt lat="39.47520529364614" lon="9.102618207548874"><ele>139.83333333333331</ele><time>2026-04-25T12:33:26Z</time></trkpt><trkpt lat="39.47513610913975" lon="9.102604315308321"><ele>139.66666666666666</ele><time>2026-04-25T12:33:28Z</time></trkpt><trkpt lat="39.47509154511035" lon="9.102504579180485"><ele>139.5</ele><time>2026-04-25T12:33:29Z</time></trkpt><trkpt lat="39.475044904255675" lon="9.102372281653157"><ele>139.33333333333334</ele><time>2026-04-25T12:33:31Z</time></trkpt><trkpt lat="39.47499206062636" lon="9.102324988972107"><ele>139.16666666666669</ele><time>2026-04-25T12:33:32Z</time></trkpt><trkpt lat="39.47492103118463" lon="9.102308300548524"><ele>139.0</ele><time>2026-04-25T12:33:33Z</time></trkpt><trkpt lat="39.47484115326401" lon="9.102332342095092"><ele>139.0</ele><time>2026-04-25T12:33:34Z</time></trkpt><trkpt lat="39.47476105589577" lon="9.102349041497188"><ele>139.0</ele><time>2026-04-25T12:33:35Z</time></trkpt><trkpt lat="39.474669162682545" lon="9.102365123629415"><ele>139.0</ele><time>2026-04-25T12:33:36Z</time></trkpt><trkpt lat="39.47456779249921" lon="9.102375350541868"><ele>139.0</ele><time>2026-04-25T12:33:37Z</time></trkpt><trkpt lat="39.47446462887081" lon="9.102398547222698"><ele>139.0</ele><time>2026-04-25T12:33:38Z</time></trkpt><trkpt lat="39.474359301350674" lon="9.102418784869576"><ele>140.0</ele><time>2026-04-25T12:33:39Z</time></trkpt><trkpt lat="39.47425309969412" lon="9.102445170791022"><ele>141.0</ele><time>2026-04-25T12:33:40Z</time></trkpt><trkpt lat="39.474157876237186" lon="9.102498274208024"><ele>142.0</ele><time>2026-04-25T12:33:41Z</time></trkpt><trkpt lat="39.474071091347845" lon="9.102564031732603"><ele>143.0</ele><time>2026-04-25T12:33:42Z</time></trkpt><trkpt lat="39.473989590193725" lon="9.102637935397562"><ele>144.0</ele><time>2026-04-25T12:33:43Z</time></trkpt><trkpt lat="39.473906150450716" lon="9.102708682382248"><ele>144.0</ele><time>2026-04-25T12:33:44Z</time></trkpt><trkpt lat="39.47382244732828" lon="9.10277584001651"><ele>144.0</ele><time>2026-04-25T12:33:45Z</time></trkpt><trkpt lat="39.473741812937604" lon="9.102839696758814"><ele>144.0</ele><time>2026-04-25T12:33:46Z</time></trkpt><trkpt lat="39.47365742169346" lon="9.102890307952622"><ele>144.0</ele><time>2026-04-25T12:33:47Z</time></trkpt><trkpt lat="39.47357318090028" lon="9.102946858786948"><ele>144.0</ele><time>2026-04-25T12:33:48Z</time></trkpt><trkpt lat="39.47349777352289" lon="9.10301475285321"><ele>144.4</ele><time>2026-04-25T12:33:49Z</time></trkpt><trkpt lat="39.4734209058475" lon="9.103084154185865"><ele>144.8</ele><time>2026-04-25T12:33:50Z</time></trkpt><trkpt lat="39.4733407510224" lon="9.1031585568661"><ele>145.2</ele><time>2026-04-25T12:33:51Z</time></trkpt><trkpt lat="39.473270045613894" lon="9.10324933203818"><ele>145.6</ele><time>2026-04-25T12:33:52Z</time></trkpt><trkpt lat="39.47320111031077" lon="9.103341075470292"><ele>146.0</ele><time>2026-04-25T12:33:53Z</time></trkpt><trkpt lat="39.47313523444794" lon="9.103443158317699"><ele>146.4</ele><time>2026-04-25T12:33:54Z</time></trkpt><trkpt lat="39.473058259154016" lon="9.103533016663318"><ele>146.8</ele><time>2026-04-25T12:33:55Z</time></trkpt><trkpt lat="39.47298805024224" lon="9.103630579319196"><ele>147.20000000000002</ele><time>2026-04-25T12:33:56Z</time></trkpt><trkpt lat="39.47291637183839" lon="9.103729780254234"><ele>147.6</ele><time>2026-04-25T12:33:57Z</time></trkpt><trkpt lat="39.47284404673931" lon="9.103829629328336"><ele>148.0</ele><time>2026-04-25T12:33:58Z</time></trkpt><trkpt lat="39.472771435982615" lon="9.10392791197902"><ele>148.0</ele><time>2026-04-25T12:33:59Z</time></trkpt><trkpt lat="39.472708198831185" lon="9.104038602683282"><ele>148.0</ele><time>2026-04-25T12:34:00Z</time></trkpt><trkpt lat="39.472632847280906" lon="9.104135663387563"><ele>148.0</ele><time>2026-04-25T12:34:01Z</time></trkpt><trkpt lat="39.472556611797074" lon="9.104235534561731"><ele>148.0</ele><time>2026-04-25T12:34:02Z</time></trkpt><trkpt lat="39.472482884295374" lon="9.104338472255222"><ele>148.0</ele><time>2026-04-25T12:34:03Z</time></trkpt><trkpt lat="39.47240584022095" lon="9.104440849702316"><ele>149.0</ele><time>2026-04-25T12:34:04Z</time></trkpt><trkpt lat="39.47232443333669" lon="9.10454077935528"><ele>150.0</ele><time>2026-04-25T12:34:05Z</time></trkpt><trkpt lat="39.47224290573777" lon="9.104640662290187"><ele>151.0</ele><time>2026-04-25T12:34:06Z</time></trkpt><trkpt lat="39.47216407821873" lon="9.104748304351306"><ele>152.0</ele><time>2026-04-25T12:34:07Z</time></trkpt><trkpt lat="39.47208868316658" lon="9.104863561452134"><ele>152.75</ele><time>2026-04-25T12:34:08Z</time></trkpt><trkpt lat="39.47200987688088" lon="9.10497652721933"><ele>153.5</ele><time>2026-04-25T12:34:09Z</time></trkpt><trkpt lat="39.47192569969416" lon="9.105085867720687"><ele>154.25</ele><time>2026-04-25T12:34:10Z</time></trkpt><trkpt lat="39.471847890730125" lon="9.105196913745662"><ele>155.0</ele><time>2026-04-25T12:34:11Z</time></trkpt><trkpt lat="39.47177227464843" lon="9.105310148748147"><ele>155.0</ele><time>2026-04-25T12:34:12Z</time></trkpt><trkpt lat="39.47170070113268" lon="9.105420365158832"><ele>155.0</ele><time>2026-04-25T12:34:13Z</time></trkpt><trkpt lat="39.47162516152018" lon="9.105524820901154"><ele>155.0</ele><time>2026-04-25T12:34:14Z</time></trkpt><trkpt lat="39.47154437190234" lon="9.105621462523239"><ele>155.0</ele><time>2026-04-25T12:34:15Z</time></trkpt><trkpt lat="39.47146063624504" lon="9.105697979188468"><ele>155.0</ele><time>2026-04-25T12:34:16Z</time></trkpt><trkpt lat="39.47137656515746" lon="9.105748279743164"><ele>155.0</ele><time>2026-04-25T12:34:17Z</time></trkpt><trkpt lat="39.47128924792691" lon="9.105774487647022"><ele>155.0</ele><time>2026-04-25T12:34:18Z</time></trkpt><trkpt lat="39.47120241761204" lon="9.105752038622164"><ele>155.0</ele><time>2026-04-25T12:34:19Z</time></trkpt><trkpt lat="39.4711273974912" lon="9.105731530496818"><ele>155.0</ele><time>2026-04-25T12:34:20Z</time></trkpt><trkpt lat="39.471058477885094" lon="9.105731266822653"><ele>155.0</ele><time>2026-04-25T12:34:21Z</time></trkpt><trkpt lat="39.47096855384713" lon="9.105789602334337"><ele>155.0</ele><time>2026-04-25T12:34:23Z</time></trkpt><trkpt lat="39.47089423016889" lon="9.105856694193667"><ele>155.4</ele><time>2026-04-25T12:34:24Z</time></trkpt><trkpt lat="39.47085358187413" lon="9.105948079335306"><ele>155.8</ele><time>2026-04-25T12:34:25Z</time></trkpt><trkpt lat="39.470806616331295" lon="9.1060577787551"><ele>156.2</ele><time>2026-04-25T12:34:26Z</time></trkpt><trkpt lat="39.47073380960568" lon="9.106141162533621"><ele>156.6</ele><time>2026-04-25T12:34:27Z</time></trkpt><trkpt lat="39.47065094205067" lon="9.106226283608093"><ele>157.0</ele><time>2026-04-25T12:34:28Z</time></trkpt><trkpt lat="39.47056257504274" lon="9.106317424655245"><ele>157.0</ele><time>2026-04-25T12:34:29Z</time></trkpt><trkpt lat="39.47046688756136" lon="9.106411035706394"><ele>157.0</ele><time>2026-04-25T12:34:30Z</time></trkpt><trkpt lat="39.4703598648067" lon="9.10649862335054"><ele>157.0</ele><time>2026-04-25T12:34:31Z</time></trkpt><trkpt lat="39.47024899737222" lon="9.106586510550203"><ele>157.0</ele><time>2026-04-25T12:34:32Z</time></trkpt><trkpt lat="39.47013542997509" lon="9.106677050825276"><ele>158.75</ele><time>2026-04-25T12:34:33Z</time></trkpt><trkpt lat="39.47001509518934" lon="9.10676171852427"><ele>160.5</ele><time>2026-04-25T12:34:34Z</time></trkpt><trkpt lat="39.46989437658054" lon="9.106839221366199"><ele>162.25</ele><time>2026-04-25T12:34:35Z</time></trkpt><trkpt lat="39.46977122823006" lon="9.106917845604647"><ele>164.0</ele><time>2026-04-25T12:34:36Z</time></trkpt><trkpt lat="39.469643791042934" lon="9.106999145244048"><ele>166.25</ele><time>2026-04-25T12:34:37Z</time></trkpt><trkpt lat="39.469514730880874" lon="9.107077347192908"><ele>168.5</ele><time>2026-04-25T12:34:38Z</time></trkpt><trkpt lat="39.46938142286384" lon="9.107151723862835"><ele>170.75</ele><time>2026-04-25T12:34:39Z</time></trkpt><trkpt lat="39.46924712839077" lon="9.107231026541875"><ele>173.0</ele><time>2026-04-25T12:34:40Z</time></trkpt><trkpt lat="39.46911483369083" lon="9.10731800735164"><ele>173.0</ele><time>2026-04-25T12:34:41Z</time></trkpt><trkpt lat="39.468987217132366" lon="9.10741693382077"><ele>173.0</ele><time>2026-04-25T12:34:42Z</time></trkpt><trkpt lat="39.46886511800727" lon="9.10753592378129"><ele>173.0</ele><time>2026-04-25T12:34:43Z</time></trkpt><trkpt lat="39.46875379762582" lon="9.107669723435816"><ele>173.0</ele><time>2026-04-25T12:34:44Z</time></trkpt><trkpt lat="39.46864761869188" lon="9.107814718816542"><ele>173.0</ele><time>2026-04-25T12:34:45Z</time></trkpt><trkpt lat="39.46854628055901" lon="9.1079681791133"><ele>173.0</ele><time>2026-04-25T12:34:46Z</time></trkpt><trkpt lat="39.468452933227944" lon="9.108132435819066"><ele>174.33333333333331</ele><time>2026-04-25T12:34:47Z</time></trkpt><trkpt lat="39.46836411123022" lon="9.10830189552524"><ele>175.66666666666666</ele><time>2026-04-25T12:34:48Z</time></trkpt><trkpt lat="39.46827482439577" lon="9.108469991535117"><ele>177.0</ele><time>2026-04-25T12:34:49Z</time></trkpt><trkpt lat="39.46818226216755" lon="9.108641857371866"><ele>177.0</ele><time>2026-04-25T12:34:50Z</time></trkpt><trkpt lat="39.46808824744787" lon="9.108810399445991"><ele>177.0</ele><time>2026-04-25T12:34:51Z</time></trkpt><trkpt lat="39.46799424920524" lon="9.108984075206688"><ele>177.0</ele><time>2026-04-25T12:34:52Z</time></trkpt><trkpt lat="39.46789336938846" lon="9.10916907153256"><ele>178.0</ele><time>2026-04-25T12:34:53Z</time></trkpt><trkpt lat="39.46779553285977" lon="9.10935158233788"><ele>179.0</ele><time>2026-04-25T12:34:54Z</time></trkpt><trkpt lat="39.46769178796109" lon="9.109539433745518"><ele>180.0</ele><time>2026-04-25T12:34:55Z</time></trkpt><trkpt lat="39.46758903271492" lon="9.109726481087066"><ele>181.0</ele><time>2026-04-25T12:34:56Z</time></trkpt><trkpt lat="39.467482683032635" lon="9.109922398727205"><ele>182.0</ele><time>2026-04-25T12:34:57Z</time></trkpt><trkpt lat="39.46737555058756" lon="9.110123851727053"><ele>183.0</ele><time>2026-04-25T12:34:58Z</time></trkpt><trkpt lat="39.46726699955343" lon="9.110329674139129"><ele>183.0</ele><time>2026-04-25T12:34:59Z</time></trkpt><trkpt lat="39.4671530488673" lon="9.110543862215092"><ele>183.0</ele><time>2026-04-25T12:35:00Z</time></trkpt><trkpt lat="39.46703396381956" lon="9.110763786606112"><ele>183.0</ele><time>2026-04-25T12:35:01Z</time></trkpt><trkpt lat="39.46691114095693" lon="9.11098493729618"><ele>185.66666666666666</ele><time>2026-04-25T12:35:02Z</time></trkpt><trkpt lat="39.466790930620725" lon="9.111198289849078"><ele>188.33333333333331</ele><time>2026-04-25T12:35:03Z</time></trkpt><trkpt lat="39.466671381151066" lon="9.111400619975244"><ele>191.0</ele><time>2026-04-25T12:35:04Z</time></trkpt><trkpt lat="39.46654666447784" lon="9.111592528622678"><ele>194.0</ele><time>2026-04-25T12:35:05Z</time></trkpt><trkpt lat="39.46640568918783" lon="9.111756649011486"><ele>197.0</ele><time>2026-04-25T12:35:06Z</time></trkpt><trkpt lat="39.46624569034621" lon="9.111884787156963"><ele>200.0</ele><time>2026-04-25T12:35:07Z</time></trkpt><trkpt lat="39.46607832152841" lon="9.11200739108686"><ele>200.66666666666669</ele><time>2026-04-25T12:35:08Z</time></trkpt><trkpt lat="39.46591995829001" lon="9.112131452238014"><ele>201.33333333333331</ele><time>2026-04-25T12:35:09Z</time></trkpt><trkpt lat="39.46576232416288" lon="9.11226294604891"><ele>202.0</ele><time>2026-04-25T12:35:10Z</time></trkpt><trkpt lat="39.46560444077562" lon="9.112396933011867"><ele>205.0</ele><time>2026-04-25T12:35:11Z</time></trkpt><trkpt lat="39.46544955673238" lon="9.112534323532214"><ele>208.0</ele><time>2026-04-25T12:35:12Z</time></trkpt><trkpt lat="39.46530143799663" lon="9.112676380094591"><ele>211.0</ele><time>2026-04-25T12:35:13Z</time></trkpt><trkpt lat="39.46515927783649" lon="9.112836073406266"><ele>211.0</ele><time>2026-04-25T12:35:14Z</time></trkpt><trkpt lat="39.46503378487212" lon="9.113017274154657"><ele>211.0</ele><time>2026-04-25T12:35:15Z</time></trkpt><trkpt lat="39.46491718051874" lon="9.113210802486371"><ele>211.0</ele><time>2026-04-25T12:35:16Z</time></trkpt><trkpt lat="39.46480498268593" lon="9.11340317705231"><ele>214.33333333333331</ele><time>2026-04-25T12:35:17Z</time></trkpt><trkpt lat="39.46469213786329" lon="9.11359993751299"><ele>217.66666666666669</ele><time>2026-04-25T12:35:18Z</time></trkpt><trkpt lat="39.464584236730666" lon="9.113794194575757"><ele>221.0</ele><time>2026-04-25T12:35:19Z</time></trkpt><trkpt lat="39.46447574265952" lon="9.11398627987792"><ele>224.33333333333334</ele><time>2026-04-25T12:35:20Z</time></trkpt><trkpt lat="39.46437043743484" lon="9.11416352126748"><ele>227.66666666666669</ele><time>2026-04-25T12:35:21Z</time></trkpt><trkpt lat="39.46426292827735" lon="9.114340810147441"><ele>231.0</ele><time>2026-04-25T12:35:22Z</time></trkpt><trkpt lat="39.46415636424479" lon="9.114512326772806"><ele>231.0</ele><time>2026-04-25T12:35:23Z</time></trkpt><trkpt lat="39.4640509607973" lon="9.114685374480915"><ele>231.0</ele><time>2026-04-25T12:35:24Z</time></trkpt><trkpt lat="39.4639418548914" lon="9.114851048697284"><ele>231.0</ele><time>2026-04-25T12:35:25Z</time></trkpt><trkpt lat="39.4638226777492" lon="9.114999569762572"><ele>233.33333333333331</ele><time>2026-04-25T12:35:26Z</time></trkpt><trkpt lat="39.46368210585731" lon="9.115125886923419"><ele>235.66666666666666</ele><time>2026-04-25T12:35:27Z</time></trkpt><trkpt lat="39.4635280498728" lon="9.115223899647374"><ele>238.0</ele><time>2026-04-25T12:35:28Z</time></trkpt><trkpt lat="39.463369886831345" lon="9.115312731032189"><ele>238.0</ele><time>2026-04-25T12:35:29Z</time></trkpt><trkpt lat="39.463211321376235" lon="9.115402395313666"><ele>238.0</ele><time>2026-04-25T12:35:30Z</time></trkpt><trkpt lat="39.463053958344034" lon="9.1154944449778"><ele>238.0</ele><time>2026-04-25T12:35:31Z</time></trkpt><trkpt lat="39.46289835361106" lon="9.115587193355692"><ele>240.33333333333331</ele><time>2026-04-25T12:35:32Z</time></trkpt><trkpt lat="39.46274083860559" lon="9.115680702614316"><ele>242.66666666666669</ele><time>2026-04-25T12:35:33Z</time></trkpt><trkpt lat="39.4625833546728" lon="9.115777789883866"><ele>245.0</ele><time>2026-04-25T12:35:34Z</time></trkpt><trkpt lat="39.4624274631767" lon="9.115877247583505"><ele>237.33333333333334</ele><time>2026-04-25T12:35:35Z</time></trkpt><trkpt lat="39.462269649990404" lon="9.115972964301298"><ele>229.66666666666669</ele><time>2026-04-25T12:35:36Z</time></trkpt><trkpt lat="39.4621050141857" lon="9.11606656008654"><ele>222.0</ele><time>2026-04-25T12:35:37Z</time></trkpt><trkpt lat="39.461943715714256" lon="9.116155584580351"><ele>222.0</ele><time>2026-04-25T12:35:38Z</time></trkpt><trkpt lat="39.46179048744685" lon="9.116246539165518"><ele>222.0</ele><time>2026-04-25T12:35:39Z</time></trkpt><trkpt lat="39.461639946865965" lon="9.116340577089785"><ele>222.0</ele><time>2026-04-25T12:35:40Z</time></trkpt><trkpt lat="39.4614932536271" lon="9.116427652107834"><ele>222.0</ele><time>2026-04-25T12:35:41Z</time></trkpt><trkpt lat="39.461345076241294" lon="9.116504557593336"><ele>222.0</ele><time>2026-04-25T12:35:42Z</time></trkpt><trkpt lat="39.46119433078552" lon="9.11655335123285"><ele>222.0</ele><time>2026-04-25T12:35:43Z</time></trkpt><trkpt lat="39.46103746607844" lon="9.116577228281615"><ele>219.66666666666669</ele><time>2026-04-25T12:35:44Z</time></trkpt><trkpt lat="39.46087421855107" lon="9.116571287018331"><ele>217.33333333333334</ele><time>2026-04-25T12:35:45Z</time></trkpt><trkpt lat="39.460707517227135" lon="9.116533609240385"><ele>215.0</ele><time>2026-04-25T12:35:46Z</time></trkpt><trkpt lat="39.46054132473403" lon="9.116490731705905"><ele>213.0</ele><time>2026-04-25T12:35:47Z</time></trkpt><trkpt lat="39.46036974126716" lon="9.116447974067425"><ele>211.0</ele><time>2026-04-25T12:35:48Z</time></trkpt><trkpt lat="39.46019779195368" lon="9.116404198226265"><ele>209.0</ele><time>2026-04-25T12:35:49Z</time></trkpt><trkpt lat="39.46002412947251" lon="9.116361916499901"><ele>209.0</ele><time>2026-04-25T12:35:50Z</time></trkpt><trkpt lat="39.45984825017556" lon="9.116323460720093"><ele>209.0</ele><time>2026-04-25T12:35:51Z</time></trkpt><trkpt lat="39.45967186783477" lon="9.116285433592097"><ele>209.0</ele><time>2026-04-25T12:35:52Z</time></trkpt><trkpt lat="39.45949314780274" lon="9.116260692451425"><ele>208.0</ele><time>2026-04-25T12:35:53Z</time></trkpt><trkpt lat="39.459316084360765" lon="9.1162808688177"><ele>207.0</ele><time>2026-04-25T12:35:54Z</time></trkpt><trkpt lat="39.45914225492337" lon="9.116345545422599"><ele>206.0</ele><time>2026-04-25T12:35:55Z</time></trkpt><trkpt lat="39.458989200681316" lon="9.116459219428004"><ele>201.0</ele><time>2026-04-25T12:35:56Z</time></trkpt><trkpt lat="39.458852936624794" lon="9.116609082155614"><ele>196.0</ele><time>2026-04-25T12:35:57Z</time></trkpt><trkpt lat="39.45871768617089" lon="9.116750618595207"><ele>191.0</ele><time>2026-04-25T12:35:58Z</time></trkpt><trkpt lat="39.45858173103029" lon="9.116878026553673"><ele>191.0</ele><time>2026-04-25T12:35:59Z</time></trkpt><trkpt lat="39.45844038624735" lon="9.116980038356472"><ele>191.0</ele><time>2026-04-25T12:36:00Z</time></trkpt><trkpt lat="39.45828589211566" lon="9.117041321144283"><ele>191.0</ele><time>2026-04-25T12:36:01Z</time></trkpt><trkpt lat="39.45811614153475" lon="9.11706572951902"><ele>188.66666666666666</ele><time>2026-04-25T12:36:02Z</time></trkpt><trkpt lat="39.457936003908756" lon="9.117072231332813"><ele>186.33333333333334</ele><time>2026-04-25T12:36:03Z</time></trkpt><trkpt lat="39.457756197235504" lon="9.117082084674598"><ele>184.0</ele><time>2026-04-25T12:36:04Z</time></trkpt><trkpt lat="39.45757069189507" lon="9.117091543775393"><ele>184.0</ele><time>2026-04-25T12:36:05Z</time></trkpt><trkpt lat="39.45738425124108" lon="9.117096566279198"><ele>184.0</ele><time>2026-04-25T12:36:06Z</time></trkpt><trkpt lat="39.45719649432819" lon="9.117098272619003"><ele>184.0</ele><time>2026-04-25T12:36:07Z</time></trkpt><trkpt lat="39.45701037567282" lon="9.117099275577319"><ele>181.0</ele><time>2026-04-25T12:36:08Z</time></trkpt><trkpt lat="39.4568224846906" lon="9.117100292175602"><ele>178.0</ele><time>2026-04-25T12:36:09Z</time></trkpt><trkpt lat="39.45663357391057" lon="9.117104542016214"><ele>175.0</ele><time>2026-04-25T12:36:10Z</time></trkpt><trkpt lat="39.45644441831466" lon="9.117112703576213"><ele>172.66666666666669</ele><time>2026-04-25T12:36:11Z</time></trkpt><trkpt lat="39.456256900665075" lon="9.117121284666633"><ele>170.33333333333334</ele><time>2026-04-25T12:36:12Z</time></trkpt><trkpt lat="39.45606784012542" lon="9.117127963372317"><ele>168.0</ele><time>2026-04-25T12:36:13Z</time></trkpt><trkpt lat="39.45587707974421" lon="9.117129586633126"><ele>168.0</ele><time>2026-04-25T12:36:14Z</time></trkpt><trkpt lat="39.45568779514267" lon="9.117127068068076"><ele>168.0</ele><time>2026-04-25T12:36:15Z</time></trkpt><trkpt lat="39.45549789060667" lon="9.11712918684554"><ele>168.0</ele><time>2026-04-25T12:36:16Z</time></trkpt><trkpt lat="39.45530711684594" lon="9.117136179194052"><ele>166.33333333333334</ele><time>2026-04-25T12:36:17Z</time></trkpt><trkpt lat="39.455114479803115" lon="9.117134809407343"><ele>164.66666666666669</ele><time>2026-04-25T12:36:18Z</time></trkpt><trkpt lat="39.454923116302666" lon="9.117119854766507"><ele>163.0</ele><time>2026-04-25T12:36:19Z</time></trkpt><trkpt lat="39.45472960045387" lon="9.117091655336116"><ele>161.33333333333334</ele><time>2026-04-25T12:36:20Z</time></trkpt><trkpt lat="39.45453643523943" lon="9.117053175665681"><ele>159.66666666666666</ele><time>2026-04-25T12:36:21Z</time></trkpt><trkpt lat="39.4543423616805" lon="9.117008476537427"><ele>158.0</ele><time>2026-04-25T12:36:22Z</time></trkpt><trkpt lat="39.45414954430887" lon="9.116957684799273"><ele>158.0</ele><time>2026-04-25T12:36:23Z</time></trkpt><trkpt lat="39.45395769361794" lon="9.116900672375458"><ele>158.0</ele><time>2026-04-25T12:36:24Z</time></trkpt><trkpt lat="39.45376412255519" lon="9.116842336733354"><ele>158.0</ele><time>2026-04-25T12:36:25Z</time></trkpt><trkpt lat="39.45356816360564" lon="9.116789346170275"><ele>157.0</ele><time>2026-04-25T12:36:26Z</time></trkpt><trkpt lat="39.45337276618569" lon="9.11673952981878"><ele>156.0</ele><time>2026-04-25T12:36:27Z</time></trkpt><trkpt lat="39.45317861441671" lon="9.11668402273535"><ele>155.0</ele><time>2026-04-25T12:36:28Z</time></trkpt><trkpt lat="39.45298494107101" lon="9.116625982799338"><ele>155.33333333333331</ele><time>2026-04-25T12:36:29Z</time></trkpt><trkpt lat="39.45278819225473" lon="9.116570138180535"><ele>155.66666666666666</ele><time>2026-04-25T12:36:30Z</time></trkpt><trkpt lat="39.45259198643006" lon="9.116515456458385"><ele>156.0</ele><time>2026-04-25T12:36:31Z</time></trkpt><trkpt lat="39.452394131804276" lon="9.116455269433411"><ele>154.33333333333334</ele><time>2026-04-25T12:36:32Z</time></trkpt><trkpt lat="39.45219828725214" lon="9.11639303707323"><ele>152.66666666666669</ele><time>2026-04-25T12:36:33Z</time></trkpt><trkpt lat="39.45201133378819" lon="9.116336032445735"><ele>151.0</ele><time>2026-04-25T12:36:34Z</time></trkpt><trkpt lat="39.451818021274455" lon="9.11628435175753"><ele>151.0</ele><time>2026-04-25T12:36:35Z</time></trkpt><trkpt lat="39.451625826172986" lon="9.116244203378214"><ele>151.0</ele><time>2026-04-25T12:36:36Z</time></trkpt><trkpt lat="39.451433821043175" lon="9.11624163138499"><ele>151.0</ele><time>2026-04-25T12:36:37Z</time></trkpt><trkpt lat="39.45123970791395" lon="9.116279610362202"><ele>149.66666666666669</ele><time>2026-04-25T12:36:38Z</time></trkpt><trkpt lat="39.45104653019206" lon="9.116315459070695"><ele>148.33333333333334</ele><time>2026-04-25T12:36:39Z</time></trkpt><trkpt lat="39.45085238407084" lon="9.116350134982786"><ele>147.0</ele><time>2026-04-25T12:36:40Z</time></trkpt><trkpt lat="39.45065875888425" lon="9.11637821605212"><ele>147.0</ele><time>2026-04-25T12:36:41Z</time></trkpt><trkpt lat="39.45046336738973" lon="9.116407252242054"><ele>147.0</ele><time>2026-04-25T12:36:42Z</time></trkpt><trkpt lat="39.45026684546732" lon="9.116446686302417"><ele>147.0</ele><time>2026-04-25T12:36:43Z</time></trkpt><trkpt lat="39.450071427154676" lon="9.11649902373462"><ele>147.0</ele><time>2026-04-25T12:36:44Z</time></trkpt><trkpt lat="39.44987675761207" lon="9.116557418852466"><ele>147.0</ele><time>2026-04-25T12:36:45Z</time></trkpt><trkpt lat="39.449683846679996" lon="9.11662023363115"><ele>147.0</ele><time>2026-04-25T12:36:46Z</time></trkpt><trkpt lat="39.44949089539413" lon="9.116682098566885"><ele>145.66666666666666</ele><time>2026-04-25T12:36:47Z</time></trkpt><trkpt lat="39.44929677675552" lon="9.116742170321176"><ele>144.33333333333331</ele><time>2026-04-25T12:36:48Z</time></trkpt><trkpt lat="39.44910368243226" lon="9.116797981399769"><ele>143.0</ele><time>2026-04-25T12:36:49Z</time></trkpt><trkpt lat="39.448911955462805" lon="9.116850676568369"><ele>142.66666666666666</ele><time>2026-04-25T12:36:50Z</time></trkpt><trkpt lat="39.44872302255918" lon="9.116903842067408"><ele>142.33333333333334</ele><time>2026-04-25T12:36:51Z</time></trkpt><trkpt lat="39.44853729830184" lon="9.116958846256829"><ele>142.0</ele><time>2026-04-25T12:36:52Z</time></trkpt><trkpt lat="39.44835328285342" lon="9.117015181885778"><ele>142.0</ele><time>2026-04-25T12:36:53Z</time></trkpt><trkpt lat="39.448175221812036" lon="9.117070087905464"><ele>142.0</ele><time>2026-04-25T12:36:54Z</time></trkpt><trkpt lat="39.44800659353086" lon="9.117123579821168"><ele>142.0</ele><time>2026-04-25T12:36:55Z</time></trkpt><trkpt lat="39.447845684274675" lon="9.117168864894952"><ele>141.33333333333334</ele><time>2026-04-25T12:36:56Z</time></trkpt><trkpt lat="39.44769311917414" lon="9.117212376957317"><ele>140.66666666666666</ele><time>2026-04-25T12:36:57Z</time></trkpt><trkpt lat="39.447538444596425" lon="9.117269205821279"><ele>140.0</ele><time>2026-04-25T12:36:58Z</time></trkpt><trkpt lat="39.44738418479626" lon="9.117349731801427"><ele>140.0</ele><time>2026-04-25T12:36:59Z</time></trkpt><trkpt lat="39.447231505234754" lon="9.117456325303719"><ele>140.0</ele><time>2026-04-25T12:37:00Z</time></trkpt><trkpt lat="39.44708405064956" lon="9.117580778897459"><ele>140.0</ele><time>2026-04-25T12:37:01Z</time></trkpt><trkpt lat="39.446937909576114" lon="9.117707478775129"><ele>140.0</ele><time>2026-04-25T12:37:02Z</time></trkpt><trkpt lat="39.446790736770716" lon="9.117834775913238"><ele>140.0</ele><time>2026-04-25T12:37:03Z</time></trkpt><trkpt lat="39.44664174736951" lon="9.117961505691072"><ele>140.0</ele><time>2026-04-25T12:37:04Z</time></trkpt><trkpt lat="39.4465011052926" lon="9.11809855580375"><ele>139.66666666666666</ele><time>2026-04-25T12:37:05Z</time></trkpt><trkpt lat="39.4463698607542" lon="9.118255026553653"><ele>139.33333333333334</ele><time>2026-04-25T12:37:06Z</time></trkpt><trkpt lat="39.44624819424963" lon="9.118422821075491"><ele>139.0</ele><time>2026-04-25T12:37:07Z</time></trkpt><trkpt lat="39.44612987505047" lon="9.118597430403101"><ele>138.66666666666669</ele><time>2026-04-25T12:37:08Z</time></trkpt><trkpt lat="39.446016589280454" lon="9.118774518163972"><ele>138.33333333333334</ele><time>2026-04-25T12:37:09Z</time></trkpt><trkpt lat="39.44591319830206" lon="9.118957171989482"><ele>138.0</ele><time>2026-04-25T12:37:10Z</time></trkpt><trkpt lat="39.4458133183681" lon="9.119134033940417"><ele>138.66666666666666</ele><time>2026-04-25T12:37:11Z</time></trkpt><trkpt lat="39.445702466934456" lon="9.119298245605636"><ele>139.33333333333331</ele><time>2026-04-25T12:37:12Z</time></trkpt><trkpt lat="39.445570777712526" lon="9.119441163145245"><ele>140.0</ele><time>2026-04-25T12:37:13Z</time></trkpt><trkpt lat="39.44541618761707" lon="9.119550798901066"><ele>138.33333333333331</ele><time>2026-04-25T12:37:14Z</time></trkpt><trkpt lat="39.44524669466393" lon="9.119625630974353"><ele>136.66666666666666</ele><time>2026-04-25T12:37:15Z</time></trkpt><trkpt lat="39.44507028389215" lon="9.11968446105125"><ele>135.0</ele><time>2026-04-25T12:37:16Z</time></trkpt><trkpt lat="39.44489379104338" lon="9.119748984535551"><ele>135.0</ele><time>2026-04-25T12:37:17Z</time></trkpt><trkpt lat="39.44471588105835" lon="9.119818706345287"><ele>135.0</ele><time>2026-04-25T12:37:18Z</time></trkpt><trkpt lat="39.444539933633365" lon="9.119886489468476"><ele>135.0</ele><time>2026-04-25T12:37:19Z</time></trkpt><trkpt lat="39.444362487887595" lon="9.119953789103262"><ele>135.0</ele><time>2026-04-25T12:37:20Z</time></trkpt><trkpt lat="39.4441895535326" lon="9.120021195982813"><ele>135.0</ele><time>2026-04-25T12:37:21Z</time></trkpt><trkpt lat="39.44401594301829" lon="9.120089958347823"><ele>135.0</ele><time>2026-04-25T12:37:22Z</time></trkpt><trkpt lat="39.44384729687601" lon="9.12016028395545"><ele>134.66666666666666</ele><time>2026-04-25T12:37:23Z</time></trkpt><trkpt lat="39.44368047823669" lon="9.120234116047673"><ele>134.33333333333331</ele><time>2026-04-25T12:37:24Z</time></trkpt><trkpt lat="39.443517694324726" lon="9.120324655081948"><ele>134.0</ele><time>2026-04-25T12:37:25Z</time></trkpt><trkpt lat="39.443370992713874" lon="9.120453716290067"><ele>134.0</ele><time>2026-04-25T12:37:26Z</time></trkpt><trkpt lat="39.443239092013826" lon="9.120616463560964"><ele>134.0</ele><time>2026-04-25T12:37:27Z</time></trkpt><trkpt lat="39.44312431229418" lon="9.120803243132581"><ele>134.0</ele><time>2026-04-25T12:37:28Z</time></trkpt><trkpt lat="39.44300911348374" lon="9.120989410184176"><ele>133.66666666666666</ele><time>2026-04-25T12:37:29Z</time></trkpt><trkpt lat="39.4429033992319" lon="9.121176437100239"><ele>133.33333333333334</ele><time>2026-04-25T12:37:30Z</time></trkpt><trkpt lat="39.442792962767456" lon="9.121361180772665"><ele>133.0</ele><time>2026-04-25T12:37:31Z</time></trkpt><trkpt lat="39.442682465753684" lon="9.12154750520893"><ele>133.33333333333334</ele><time>2026-04-25T12:37:32Z</time></trkpt><trkpt lat="39.442572944500995" lon="9.12173473819014"><ele>133.66666666666666</ele><time>2026-04-25T12:37:33Z</time></trkpt><trkpt lat="39.44246151296366" lon="9.121921245913986"><ele>134.0</ele><time>2026-04-25T12:37:34Z</time></trkpt><trkpt lat="39.442352090476646" lon="9.122106483140088"><ele>134.0</ele><time>2026-04-25T12:37:35Z</time></trkpt><trkpt lat="39.44224331921348" lon="9.122296769941956"><ele>134.0</ele><time>2026-04-25T12:37:36Z</time></trkpt><trkpt lat="39.4421350383913" lon="9.122486471654456"><ele>134.0</ele><time>2026-04-25T12:37:37Z</time></trkpt><trkpt lat="39.44202597846235" lon="9.12267397544742"><ele>133.33333333333331</ele><time>2026-04-25T12:37:38Z</time></trkpt><trkpt lat="39.44191517959489" lon="9.122857502140617"><ele>132.66666666666666</ele><time>2026-04-25T12:37:39Z</time></trkpt><trkpt lat="39.44180580009428" lon="9.123034679922581"><ele>132.0</ele><time>2026-04-25T12:37:40Z</time></trkpt><trkpt lat="39.441692322046656" lon="9.12320382424142"><ele>132.0</ele><time>2026-04-25T12:37:41Z</time></trkpt><trkpt lat="39.441566563062274" lon="9.123359866567679"><ele>132.0</ele><time>2026-04-25T12:37:42Z</time></trkpt><trkpt lat="39.44142642809098" lon="9.123496693061679"><ele>132.0</ele><time>2026-04-25T12:37:43Z</time></trkpt><trkpt lat="39.44127362160743" lon="9.123608525808557"><ele>132.0</ele><time>2026-04-25T12:37:44Z</time></trkpt><trkpt lat="39.441109888194006" lon="9.123689211747607"><ele>132.0</ele><time>2026-04-25T12:37:45Z</time></trkpt><trkpt lat="39.440942799820405" lon="9.1237610067227"><ele>132.0</ele><time>2026-04-25T12:37:46Z</time></trkpt><trkpt lat="39.44077782556745" lon="9.123840530016043"><ele>132.0</ele><time>2026-04-25T12:37:47Z</time></trkpt><trkpt lat="39.44061160241535" lon="9.123921453209837"><ele>132.0</ele><time>2026-04-25T12:37:48Z</time></trkpt><trkpt lat="39.44044303382778" lon="9.123997821905014"><ele>132.0</ele><time>2026-04-25T12:37:49Z</time></trkpt><trkpt lat="39.44027414018293" lon="9.12407257074161"><ele>132.0</ele><time>2026-04-25T12:37:50Z</time></trkpt><trkpt lat="39.4401051447519" lon="9.124149891144246"><ele>132.0</ele><time>2026-04-25T12:37:51Z</time></trkpt><trkpt lat="39.43993559122967" lon="9.124228062389482"><ele>132.0</ele><time>2026-04-25T12:37:52Z</time></trkpt><trkpt lat="39.4397638961525" lon="9.124300151879945"><ele>132.0</ele><time>2026-04-25T12:37:53Z</time></trkpt><trkpt lat="39.43958816020594" lon="9.12434979748275"><ele>132.0</ele><time>2026-04-25T12:37:54Z</time></trkpt><trkpt lat="39.439412508091266" lon="9.1243760688568"><ele>132.0</ele><time>2026-04-25T12:37:55Z</time></trkpt><trkpt lat="39.439238615935906" lon="9.124385510467851"><ele>132.0</ele><time>2026-04-25T12:37:56Z</time></trkpt><trkpt lat="39.43906332225575" lon="9.124384807495924"><ele>132.0</ele><time>2026-04-25T12:37:57Z</time></trkpt><trkpt lat="39.43888660840393" lon="9.124385410153414"><ele>132.0</ele><time>2026-04-25T12:37:58Z</time></trkpt><trkpt lat="39.43871049977013" lon="9.12440580898782"><ele>131.66666666666666</ele><time>2026-04-25T12:37:59Z</time></trkpt><trkpt lat="39.43854117445724" lon="9.124464147181605"><ele>131.33333333333331</ele><time>2026-04-25T12:38:00Z</time></trkpt><trkpt lat="39.43838850282377" lon="9.124569537313885"><ele>131.0</ele><time>2026-04-25T12:38:01Z</time></trkpt><trkpt lat="39.43826091557214" lon="9.12471382366541"><ele>131.0</ele><time>2026-04-25T12:38:02Z</time></trkpt><trkpt lat="39.43815560683613" lon="9.124885005535155"><ele>131.0</ele><time>2026-04-25T12:38:03Z</time></trkpt><trkpt lat="39.438067950933366" lon="9.125059256712541"><ele>131.0</ele><time>2026-04-25T12:38:04Z</time></trkpt><trkpt lat="39.43798712823423" lon="9.125240045676106"><ele>131.33333333333331</ele><time>2026-04-25T12:38:05Z</time></trkpt><trkpt lat="39.43790807766112" lon="9.125424314887916"><ele>131.66666666666666</ele><time>2026-04-25T12:38:06Z</time></trkpt><trkpt lat="39.43783236754686" lon="9.125612019710049"><ele>132.0</ele><time>2026-04-25T12:38:07Z</time></trkpt><trkpt lat="39.43776869221193" lon="9.125812721555292"><ele>132.33333333333334</ele><time>2026-04-25T12:38:08Z</time></trkpt><trkpt lat="39.43772045527706" lon="9.12602418032172"><ele>132.66666666666669</ele><time>2026-04-25T12:38:09Z</time></trkpt><trkpt lat="39.437684614085434" lon="9.126243168216858"><ele>133.0</ele><time>2026-04-25T12:38:10Z</time></trkpt><trkpt lat="39.43765445502859" lon="9.126459606389156"><ele>134.0</ele><time>2026-04-25T12:38:11Z</time></trkpt><trkpt lat="39.43762267737011" lon="9.126674260529915"><ele>135.0</ele><time>2026-04-25T12:38:12Z</time></trkpt><trkpt lat="39.43758213740321" lon="9.126884976237655"><ele>136.0</ele><time>2026-04-25T12:38:13Z</time></trkpt><trkpt lat="39.43753116548952" lon="9.127091470911111"><ele>136.0</ele><time>2026-04-25T12:38:14Z</time></trkpt><trkpt lat="39.43747482708969" lon="9.127297408782711"><ele>136.0</ele><time>2026-04-25T12:38:15Z</time></trkpt><trkpt lat="39.437423112981115" lon="9.12750973708961"><ele>136.0</ele><time>2026-04-25T12:38:16Z</time></trkpt><trkpt lat="39.43737982844104" lon="9.127725153235652"><ele>136.33333333333334</ele><time>2026-04-25T12:38:17Z</time></trkpt><trkpt lat="39.43734589053869" lon="9.127943785269377"><ele>136.66666666666666</ele><time>2026-04-25T12:38:18Z</time></trkpt><trkpt lat="39.43731427750222" lon="9.128162262012532"><ele>137.0</ele><time>2026-04-25T12:38:19Z</time></trkpt><trkpt lat="39.437284979128606" lon="9.128383215113407"><ele>137.33333333333331</ele><time>2026-04-25T12:38:20Z</time></trkpt><trkpt lat="39.437255984448974" lon="9.128603991681729"><ele>137.66666666666666</ele><time>2026-04-25T12:38:21Z</time></trkpt><trkpt lat="39.43722627717704" lon="9.128827933645825"><ele>138.0</ele><time>2026-04-25T12:38:22Z</time></trkpt><trkpt lat="39.43719567906222" lon="9.129051953677214"><ele>138.33333333333334</ele><time>2026-04-25T12:38:23Z</time></trkpt><trkpt lat="39.437165614613065" lon="9.129280040634786"><ele>138.66666666666669</ele><time>2026-04-25T12:38:24Z</time></trkpt><trkpt lat="39.43713747603802" lon="9.129507128118941"><ele>139.0</ele><time>2026-04-25T12:38:25Z</time></trkpt><trkpt lat="39.43711319027534" lon="9.129736071245958"><ele>139.33333333333334</ele><time>2026-04-25T12:38:26Z</time></trkpt><trkpt lat="39.437091732851144" lon="9.12997447374739"><ele>139.66666666666666</ele><time>2026-04-25T12:38:27Z</time></trkpt><trkpt lat="39.43706876652076" lon="9.13021454235025"><ele>140.0</ele><time>2026-04-25T12:38:28Z</time></trkpt><trkpt lat="39.437023691280835" lon="9.130454270437875"><ele>140.0</ele><time>2026-04-25T12:38:29Z</time></trkpt><trkpt lat="39.437006019133634" lon="9.1307022126001"><ele>140.0</ele><time>2026-04-25T12:38:30Z</time></trkpt><trkpt lat="39.43696151238006" lon="9.130940620438906"><ele>140.0</ele><time>2026-04-25T12:38:31Z</time></trkpt><trkpt lat="39.43691358665145" lon="9.131181985924314"><ele>140.33333333333331</ele><time>2026-04-25T12:38:32Z</time></trkpt><trkpt lat="39.436868393165625" lon="9.131424505011"><ele>140.66666666666666</ele><time>2026-04-25T12:38:33Z</time></trkpt><trkpt lat="39.4368246782397" lon="9.131670457744125"><ele>141.0</ele><time>2026-04-25T12:38:34Z</time></trkpt><trkpt lat="39.43678068902777" lon="9.131915921136862"><ele>141.0</ele><time>2026-04-25T12:38:35Z</time></trkpt><trkpt lat="39.4367354472643" lon="9.132161965325238"><ele>141.0</ele><time>2026-04-25T12:38:36Z</time></trkpt><trkpt lat="39.4366905314229" lon="9.132401161829131"><ele>141.0</ele><time>2026-04-25T12:38:37Z</time></trkpt><trkpt lat="39.43664906173687" lon="9.132625029037412"><ele>141.33333333333334</ele><time>2026-04-25T12:38:38Z</time></trkpt><trkpt lat="39.4366046712184" lon="9.13283756034252"><ele>141.66666666666669</ele><time>2026-04-25T12:38:39Z</time></trkpt><trkpt lat="39.4365572203692" lon="9.133033808323235"><ele>142.0</ele><time>2026-04-25T12:38:40Z</time></trkpt><trkpt lat="39.43650840165125" lon="9.13321873358957"><ele>142.33333333333334</ele><time>2026-04-25T12:38:41Z</time></trkpt><trkpt lat="39.43645782723225" lon="9.133407121007139"><ele>142.66666666666666</ele><time>2026-04-25T12:38:42Z</time></trkpt><trkpt lat="39.436406179497524" lon="9.1336043520732"><ele>143.0</ele><time>2026-04-25T12:38:43Z</time></trkpt><trkpt lat="39.43635039048226" lon="9.133808035956417"><ele>143.0</ele><time>2026-04-25T12:38:44Z</time></trkpt><trkpt lat="39.436293693745604" lon="9.134021878964692"><ele>143.0</ele><time>2026-04-25T12:38:45Z</time></trkpt><trkpt lat="39.43623307106989" lon="9.134238170310763"><ele>143.0</ele><time>2026-04-25T12:38:46Z</time></trkpt><trkpt lat="39.43617228124741" lon="9.134462001598308"><ele>143.33333333333331</ele><time>2026-04-25T12:38:47Z</time></trkpt><trkpt lat="39.43611398642648" lon="9.134688477804735"><ele>143.66666666666666</ele><time>2026-04-25T12:38:48Z</time></trkpt><trkpt lat="39.43605786926985" lon="9.13491642065392"><ele>144.0</ele><time>2026-04-25T12:38:49Z</time></trkpt><trkpt lat="39.43600034759602" lon="9.135145211585778"><ele>144.66666666666666</ele><time>2026-04-25T12:38:50Z</time></trkpt><trkpt lat="39.43594218959294" lon="9.135362896036103"><ele>145.33333333333331</ele><time>2026-04-25T12:38:51Z</time></trkpt><trkpt lat="39.4358854371687" lon="9.135588231012132"><ele>146.0</ele><time>2026-04-25T12:38:52Z</time></trkpt><trkpt lat="39.43582394534533" lon="9.135809306012654"><ele>147.0</ele><time>2026-04-25T12:38:53Z</time></trkpt><trkpt lat="39.43576170057863" lon="9.136027820106431"><ele>148.0</ele><time>2026-04-25T12:38:54Z</time></trkpt><trkpt lat="39.435703763957974" lon="9.13624843343997"><ele>149.0</ele><time>2026-04-25T12:38:55Z</time></trkpt><trkpt lat="39.43564334921579" lon="9.136470717695474"><ele>149.33333333333331</ele><time>2026-04-25T12:38:56Z</time></trkpt><trkpt lat="39.43557703138734" lon="9.136692954409853"><ele>149.66666666666666</ele><time>2026-04-25T12:38:57Z</time></trkpt><trkpt lat="39.435502772321165" lon="9.136911065802849"><ele>150.0</ele><time>2026-04-25T12:38:58Z</time></trkpt><trkpt lat="39.43542377391938" lon="9.137124729588095"><ele>149.66666666666666</ele><time>2026-04-25T12:38:59Z</time></trkpt><trkpt lat="39.4353434674726" lon="9.137337530217005"><ele>149.33333333333331</ele><time>2026-04-25T12:39:00Z</time></trkpt><trkpt lat="39.435271510060275" lon="9.13754984326565"><ele>149.0</ele><time>2026-04-25T12:39:01Z</time></trkpt><trkpt lat="39.435208909065885" lon="9.13777248518576"><ele>149.0</ele><time>2026-04-25T12:39:02Z</time></trkpt><trkpt lat="39.435170608829985" lon="9.138006366408387"><ele>149.0</ele><time>2026-04-25T12:39:03Z</time></trkpt><trkpt lat="39.43515719882399" lon="9.138244644476792"><ele>149.0</ele><time>2026-04-25T12:39:04Z</time></trkpt><trkpt lat="39.435163522012324" lon="9.13848241605844"><ele>149.33333333333331</ele><time>2026-04-25T12:39:05Z</time></trkpt><trkpt lat="39.43519095503634" lon="9.138717983272448"><ele>149.66666666666666</ele><time>2026-04-25T12:39:06Z</time></trkpt><trkpt lat="39.435232338702896" lon="9.138951615935044"><ele>150.0</ele><time>2026-04-25T12:39:07Z</time></trkpt><trkpt lat="39.435271540754734" lon="9.1391851277297"><ele>150.66666666666666</ele><time>2026-04-25T12:39:08Z</time></trkpt><trkpt lat="39.435304388750396" lon="9.139423543320875"><ele>151.33333333333331</ele><time>2026-04-25T12:39:09Z</time></trkpt><trkpt lat="39.43533739230246" lon="9.139660186868422"><ele>152.0</ele><time>2026-04-25T12:39:10Z</time></trkpt><trkpt lat="39.435370368601575" lon="9.139895871757597"><ele>152.33333333333331</ele><time>2026-04-25T12:39:11Z</time></trkpt><trkpt lat="39.43539149759974" lon="9.140131339647416"><ele>152.66666666666666</ele><time>2026-04-25T12:39:12Z</time></trkpt><trkpt lat="39.43538749705509" lon="9.140367733712125"><ele>153.0</ele><time>2026-04-25T12:39:13Z</time></trkpt><trkpt lat="39.43534423319462" lon="9.140600501327627"><ele>153.33333333333334</ele><time>2026-04-25T12:39:14Z</time></trkpt><trkpt lat="39.43527816427308" lon="9.140829854979494"><ele>153.66666666666669</ele><time>2026-04-25T12:39:15Z</time></trkpt><trkpt lat="39.435210783437405" lon="9.14105832231956"><ele>154.0</ele><time>2026-04-25T12:39:16Z</time></trkpt><trkpt lat="39.43514698423736" lon="9.141295335511106"><ele>154.0</ele><time>2026-04-25T12:39:17Z</time></trkpt><trkpt lat="39.43508384571936" lon="9.14153536019221"><ele>154.0</ele><time>2026-04-25T12:39:18Z</time></trkpt><trkpt lat="39.4350240996346" lon="9.141776220794096"><ele>154.0</ele><time>2026-04-25T12:39:19Z</time></trkpt><trkpt lat="39.43497568514687" lon="9.142020152252652"><ele>154.33333333333334</ele><time>2026-04-25T12:39:20Z</time></trkpt><trkpt lat="39.43494222471215" lon="9.142271591370186"><ele>154.66666666666666</ele><time>2026-04-25T12:39:21Z</time></trkpt><trkpt lat="39.434929422954795" lon="9.142525092292276"><ele>155.0</ele><time>2026-04-25T12:39:22Z</time></trkpt><trkpt lat="39.43494198982514" lon="9.142781321843344"><ele>155.0</ele><time>2026-04-25T12:39:23Z</time></trkpt><trkpt lat="39.43497164725072" lon="9.143033660577702"><ele>155.0</ele><time>2026-04-25T12:39:24Z</time></trkpt><trkpt lat="39.43500366646003" lon="9.143288178324983"><ele>155.0</ele><time>2026-04-25T12:39:25Z</time></trkpt><trkpt lat="39.43502896444735" lon="9.143541807895057"><ele>155.0</ele><time>2026-04-25T12:39:26Z</time></trkpt><trkpt lat="39.43505098248408" lon="9.14379482737301"><ele>155.0</ele><time>2026-04-25T12:39:27Z</time></trkpt><trkpt lat="39.43508218464027" lon="9.14404539866829"><ele>155.0</ele><time>2026-04-25T12:39:28Z</time></trkpt><trkpt lat="39.43512583321961" lon="9.14428881732064"><ele>155.0</ele><time>2026-04-25T12:39:29Z</time></trkpt><trkpt lat="39.43518537274209" lon="9.144524284865323"><ele>155.0</ele><time>2026-04-25T12:39:30Z</time></trkpt><trkpt lat="39.435259542893114" lon="9.144750574892354"><ele>155.0</ele><time>2026-04-25T12:39:31Z</time></trkpt><trkpt lat="39.435340416748325" lon="9.144955950938378"><ele>155.0</ele><time>2026-04-25T12:39:32Z</time></trkpt><trkpt lat="39.43541788767767" lon="9.145144796969676"><ele>155.0</ele><time>2026-04-25T12:39:33Z</time></trkpt><trkpt lat="39.435488964625634" lon="9.145325219581883"><ele>155.0</ele><time>2026-04-25T12:39:34Z</time></trkpt><trkpt lat="39.435556136860896" lon="9.145501123862848"><ele>155.0</ele><time>2026-04-25T12:39:35Z</time></trkpt><trkpt lat="39.43562625640958" lon="9.145679774045437"><ele>155.0</ele><time>2026-04-25T12:39:36Z</time></trkpt><trkpt lat="39.4357006094984" lon="9.145860669950567"><ele>155.0</ele><time>2026-04-25T12:39:37Z</time></trkpt><trkpt lat="39.435783624447744" lon="9.146036839923033"><ele>156.0</ele><time>2026-04-25T12:39:38Z</time></trkpt><trkpt lat="39.43588648618495" lon="9.146201373611397"><ele>157.0</ele><time>2026-04-25T12:39:39Z</time></trkpt><trkpt lat="39.4360019480238" lon="9.146353984599132"><ele>158.0</ele><time>2026-04-25T12:39:40Z</time></trkpt><trkpt lat="39.43612244571876" lon="9.146498846163826"><ele>158.66666666666666</ele><time>2026-04-25T12:39:41Z</time></trkpt><trkpt lat="39.436239955891175" lon="9.146651353688316"><ele>159.33333333333334</ele><time>2026-04-25T12:39:42Z</time></trkpt><trkpt lat="39.436355203830736" lon="9.14680276388708"><ele>160.0</ele><time>2026-04-25T12:39:43Z</time></trkpt><trkpt lat="39.436464040726555" lon="9.14694399737911"><ele>160.0</ele><time>2026-04-25T12:39:44Z</time></trkpt><trkpt lat="39.43655727230625" lon="9.147082328136845"><ele>160.0</ele><time>2026-04-25T12:39:45Z</time></trkpt><trkpt lat="39.43661291122599" lon="9.14722572609265"><ele>160.0</ele><time>2026-04-25T12:39:46Z</time></trkpt><trkpt lat="39.43662109316658" lon="9.147367458841957"><ele>160.0</ele><time>2026-04-25T12:39:47Z</time></trkpt><trkpt lat="39.43659628709336" lon="9.14750225606213"><ele>160.0</ele><time>2026-04-25T12:39:48Z</time></trkpt><trkpt lat="39.43652545391679" lon="9.147609830947971"><ele>160.0</ele><time>2026-04-25T12:39:49Z</time></trkpt><trkpt lat="39.436426983763816" lon="9.147689588239466"><ele>160.0</ele><time>2026-04-25T12:39:50Z</time></trkpt><trkpt lat="39.436307625396665" lon="9.1477192222685"><ele>160.0</ele><time>2026-04-25T12:39:51Z</time></trkpt><trkpt lat="39.436190327472445" lon="9.14769109594479"><ele>160.0</ele><time>2026-04-25T12:39:52Z</time></trkpt><trkpt lat="39.43607664147128" lon="9.147609859115775"><ele>160.0</ele><time>2026-04-25T12:39:53Z</time></trkpt><trkpt lat="39.43595721137807" lon="9.147505905136253"><ele>160.0</ele><time>2026-04-25T12:39:54Z</time></trkpt><trkpt lat="39.43581277749567" lon="9.147435345590466"><ele>160.0</ele><time>2026-04-25T12:39:55Z</time></trkpt><trkpt lat="39.43566038588846" lon="9.147363709131866"><ele>160.0</ele><time>2026-04-25T12:39:56Z</time></trkpt><trkpt lat="39.435512909314056" lon="9.147284688584117"><ele>160.0</ele><time>2026-04-25T12:39:57Z</time></trkpt><trkpt lat="39.4352023151233" lon="9.147111915703906"><ele>159.33333333333334</ele><time>2026-04-25T12:39:59Z</time></trkpt><trkpt lat="39.4350359332031" lon="9.147027741754485"><ele>158.66666666666666</ele><time>2026-04-25T12:40:00Z</time></trkpt><trkpt lat="39.434861732975854" lon="9.14695487511187"><ele>158.0</ele><time>2026-04-25T12:40:01Z</time></trkpt><trkpt lat="39.43467815839351" lon="9.146910734806484"><ele>157.0</ele><time>2026-04-25T12:40:02Z</time></trkpt><trkpt lat="39.43448832785788" lon="9.146891211878879"><ele>156.0</ele><time>2026-04-25T12:40:03Z</time></trkpt><trkpt lat="39.43430915318575" lon="9.14689348736195"><ele>155.0</ele><time>2026-04-25T12:40:04Z</time></trkpt><trkpt lat="39.43412973292028" lon="9.146926480708991"><ele>155.0</ele><time>2026-04-25T12:40:05Z</time></trkpt><trkpt lat="39.43394459342402" lon="9.146991072482013"><ele>155.0</ele><time>2026-04-25T12:40:06Z</time></trkpt><trkpt lat="39.43376542115176" lon="9.147076107198814"><ele>155.0</ele><time>2026-04-25T12:40:07Z</time></trkpt><trkpt lat="39.43359315524907" lon="9.147191376958924"><ele>155.33333333333331</ele><time>2026-04-25T12:40:08Z</time></trkpt><trkpt lat="39.43343204153" lon="9.147334512146175"><ele>155.66666666666666</ele><time>2026-04-25T12:40:09Z</time></trkpt><trkpt lat="39.43327875999908" lon="9.147496043893"><ele>156.0</ele><time>2026-04-25T12:40:10Z</time></trkpt><trkpt lat="39.4331291729482" lon="9.147663247021395"><ele>156.66666666666666</ele><time>2026-04-25T12:40:11Z</time></trkpt><trkpt lat="39.43297534718808" lon="9.147830317861494"><ele>157.33333333333331</ele><time>2026-04-25T12:40:12Z</time></trkpt><trkpt lat="39.432823130093546" lon="9.147996922027902"><ele>158.0</ele><time>2026-04-25T12:40:13Z</time></trkpt><trkpt lat="39.43267987768378" lon="9.148157071649829"><ele>158.33333333333331</ele><time>2026-04-25T12:40:14Z</time></trkpt><trkpt lat="39.432541411340104" lon="9.148309261256408"><ele>158.66666666666666</ele><time>2026-04-25T12:40:15Z</time></trkpt><trkpt lat="39.43238525944702" lon="9.148433705135918"><ele>159.0</ele><time>2026-04-25T12:40:16Z</time></trkpt><trkpt lat="39.43221295962171" lon="9.148529464437717"><ele>159.0</ele><time>2026-04-25T12:40:17Z</time></trkpt><trkpt lat="39.432036289290885" lon="9.148609625511815"><ele>159.0</ele><time>2026-04-25T12:40:18Z</time></trkpt><trkpt lat="39.43185253592353" lon="9.148673103548653"><ele>159.0</ele><time>2026-04-25T12:40:19Z</time></trkpt><trkpt lat="39.43166480656419" lon="9.148721460936978"><ele>159.0</ele><time>2026-04-25T12:40:20Z</time></trkpt><trkpt lat="39.431471006697414" lon="9.148741729377637"><ele>159.0</ele><time>2026-04-25T12:40:21Z</time></trkpt><trkpt lat="39.431273374457795" lon="9.148742648289653"><ele>159.0</ele><time>2026-04-25T12:40:22Z</time></trkpt><trkpt lat="39.431071987527424" lon="9.1487416795727"><ele>158.66666666666666</ele><time>2026-04-25T12:40:23Z</time></trkpt><trkpt lat="39.43087141450645" lon="9.148747297125524"><ele>158.33333333333331</ele><time>2026-04-25T12:40:24Z</time></trkpt><trkpt lat="39.43066872979384" lon="9.148755656836144"><ele>158.0</ele><time>2026-04-25T12:40:25Z</time></trkpt><trkpt lat="39.430466910314685" lon="9.1487599375718"><ele>158.0</ele><time>2026-04-25T12:40:26Z</time></trkpt><trkpt lat="39.43026609380267" lon="9.148763655826029"><ele>158.0</ele><time>2026-04-25T12:40:27Z</time></trkpt><trkpt lat="39.430068408324935" lon="9.148765203962997"><ele>158.0</ele><time>2026-04-25T12:40:28Z</time></trkpt><trkpt lat="39.429874874393875" lon="9.148766550361671"><ele>158.0</ele><time>2026-04-25T12:40:29Z</time></trkpt><trkpt lat="39.42968650450106" lon="9.148771991420599"><ele>158.0</ele><time>2026-04-25T12:40:30Z</time></trkpt><trkpt lat="39.4294994365974" lon="9.148776151810411"><ele>158.0</ele><time>2026-04-25T12:40:31Z</time></trkpt><trkpt lat="39.429311608676294" lon="9.148767395128388"><ele>158.66666666666666</ele><time>2026-04-25T12:40:32Z</time></trkpt><trkpt lat="39.429121941188406" lon="9.148738856450064"><ele>159.33333333333334</ele><time>2026-04-25T12:40:33Z</time></trkpt><trkpt lat="39.42893112899" lon="9.148693538892271"><ele>160.0</ele><time>2026-04-25T12:40:34Z</time></trkpt><trkpt lat="39.42874103210917" lon="9.148642890346155"><ele>161.0</ele><time>2026-04-25T12:40:35Z</time></trkpt><trkpt lat="39.42855025264126" lon="9.14859458472592"><ele>162.0</ele><time>2026-04-25T12:40:36Z</time></trkpt><trkpt lat="39.42835834350337" lon="9.148546367686318"><ele>163.0</ele><time>2026-04-25T12:40:37Z</time></trkpt><trkpt lat="39.42817146719013" lon="9.148499966830865"><ele>163.0</ele><time>2026-04-25T12:40:38Z</time></trkpt><trkpt lat="39.427984136114574" lon="9.148454630080549"><ele>163.0</ele><time>2026-04-25T12:40:39Z</time></trkpt><trkpt lat="39.427799295124885" lon="9.148409047405725"><ele>163.0</ele><time>2026-04-25T12:40:40Z</time></trkpt><trkpt lat="39.427614800094624" lon="9.14836166339778"><ele>163.33333333333334</ele><time>2026-04-25T12:40:41Z</time></trkpt><trkpt lat="39.42743083445365" lon="9.148313485027533"><ele>163.66666666666666</ele><time>2026-04-25T12:40:42Z</time></trkpt><trkpt lat="39.42724573767768" lon="9.148264192416622"><ele>164.0</ele><time>2026-04-25T12:40:43Z</time></trkpt><trkpt lat="39.42706307466226" lon="9.148215723142613"><ele>163.0</ele><time>2026-04-25T12:40:44Z</time></trkpt><trkpt lat="39.4268788770148" lon="9.148167352826169"><ele>162.0</ele><time>2026-04-25T12:40:45Z</time></trkpt><trkpt lat="39.4266959641283" lon="9.148119937623532"><ele>161.0</ele><time>2026-04-25T12:40:46Z</time></trkpt><trkpt lat="39.42651322349721" lon="9.148076130552479"><ele>161.0</ele><time>2026-04-25T12:40:47Z</time></trkpt><trkpt lat="39.42633250041604" lon="9.148031891509063"><ele>161.0</ele><time>2026-04-25T12:40:48Z</time></trkpt><trkpt lat="39.42615125158845" lon="9.14798718616051"><ele>161.0</ele><time>2026-04-25T12:40:49Z</time></trkpt><trkpt lat="39.42597045269187" lon="9.147941564402345"><ele>161.33333333333331</ele><time>2026-04-25T12:40:50Z</time></trkpt><trkpt lat="39.42578633191054" lon="9.147894186080915"><ele>161.66666666666666</ele><time>2026-04-25T12:40:51Z</time></trkpt><trkpt lat="39.42560245031216" lon="9.147845878482656"><ele>162.0</ele><time>2026-04-25T12:40:52Z</time></trkpt><trkpt lat="39.42541785462893" lon="9.14779528914077"><ele>164.33333333333334</ele><time>2026-04-25T12:40:53Z</time></trkpt><trkpt lat="39.42523584981707" lon="9.147743580969781"><ele>166.66666666666669</ele><time>2026-04-25T12:40:54Z</time></trkpt><trkpt lat="39.42505349767971" lon="9.147694923434633"><ele>169.0</ele><time>2026-04-25T12:40:55Z</time></trkpt><trkpt lat="39.42487194499575" lon="9.147656658041297"><ele>169.0</ele><time>2026-04-25T12:40:56Z</time></trkpt><trkpt lat="39.42468755824992" lon="9.147627078814246"><ele>169.0</ele><time>2026-04-25T12:40:57Z</time></trkpt><trkpt lat="39.42449935284641" lon="9.147619915804151"><ele>169.0</ele><time>2026-04-25T12:40:58Z</time></trkpt><trkpt lat="39.42430784986254" lon="9.14763053237687"><ele>169.66666666666669</ele><time>2026-04-25T12:40:59Z</time></trkpt><trkpt lat="39.42411797583861" lon="9.147656185186719"><ele>170.33333333333334</ele><time>2026-04-25T12:41:00Z</time></trkpt><trkpt lat="39.423924422453425" lon="9.14769071952509"><ele>171.0</ele><time>2026-04-25T12:41:01Z</time></trkpt><trkpt lat="39.423733822080386" lon="9.147702517670526"><ele>173.0</ele><time>2026-04-25T12:41:02Z</time></trkpt><trkpt lat="39.42354919172972" lon="9.147737594820427"><ele>175.0</ele><time>2026-04-25T12:41:03Z</time></trkpt><trkpt lat="39.42337277166381" lon="9.147786181656532"><ele>177.0</ele><time>2026-04-25T12:41:04Z</time></trkpt><trkpt lat="39.42320575693509" lon="9.147872167367025"><ele>177.0</ele><time>2026-04-25T12:41:05Z</time></trkpt><trkpt lat="39.423057984258456" lon="9.148011135530904"><ele>177.0</ele><time>2026-04-25T12:41:06Z</time></trkpt><trkpt lat="39.42292964514494" lon="9.14819543529738"><ele>177.0</ele><time>2026-04-25T12:41:07Z</time></trkpt><trkpt lat="39.422819573391834" lon="9.14839884387255"><ele>181.33333333333334</ele><time>2026-04-25T12:41:08Z</time></trkpt><trkpt lat="39.42270841873267" lon="9.148590557779036"><ele>185.66666666666669</ele><time>2026-04-25T12:41:09Z</time></trkpt><trkpt lat="39.42259458279126" lon="9.148768545553626"><ele>190.0</ele><time>2026-04-25T12:41:10Z</time></trkpt><trkpt lat="39.42246620195205" lon="9.148943879975805"><ele>192.33333333333334</ele><time>2026-04-25T12:41:11Z</time></trkpt><trkpt lat="39.422341523161684" lon="9.149108626516835"><ele>194.66666666666669</ele><time>2026-04-25T12:41:12Z</time></trkpt><trkpt lat="39.422202740618175" lon="9.149268283135811"><ele>197.0</ele><time>2026-04-25T12:41:13Z</time></trkpt><trkpt lat="39.42205579795651" lon="9.149413607956106"><ele>197.0</ele><time>2026-04-25T12:41:14Z</time></trkpt><trkpt lat="39.421904453425284" lon="9.149550182233874"><ele>197.0</ele><time>2026-04-25T12:41:15Z</time></trkpt><trkpt lat="39.421754818283944" lon="9.149684303574618"><ele>197.0</ele><time>2026-04-25T12:41:16Z</time></trkpt><trkpt lat="39.421606955884876" lon="9.149812071667906"><ele>199.66666666666669</ele><time>2026-04-25T12:41:17Z</time></trkpt><trkpt lat="39.42146138534586" lon="9.149934750540883"><ele>202.33333333333331</ele><time>2026-04-25T12:41:18Z</time></trkpt><trkpt lat="39.42132355051237" lon="9.150068815737951"><ele>205.0</ele><time>2026-04-25T12:41:19Z</time></trkpt><trkpt lat="39.421213967070074" lon="9.150243080431594"><ele>205.0</ele><time>2026-04-25T12:41:20Z</time></trkpt><trkpt lat="39.42114713153316" lon="9.150453772732586"><ele>205.0</ele><time>2026-04-25T12:41:21Z</time></trkpt><trkpt lat="39.42112697166873" lon="9.150685061528307"><ele>205.0</ele><time>2026-04-25T12:41:22Z</time></trkpt><trkpt lat="39.421133506066234" lon="9.150925527332326"><ele>203.0</ele><time>2026-04-25T12:41:23Z</time></trkpt><trkpt lat="39.42112095220453" lon="9.151152413924509"><ele>201.0</ele><time>2026-04-25T12:41:24Z</time></trkpt><trkpt lat="39.42107538483525" lon="9.151380913134306"><ele>199.0</ele><time>2026-04-25T12:41:25Z</time></trkpt><trkpt lat="39.42100586257651" lon="9.15159727493699"><ele>198.33333333333331</ele><time>2026-04-25T12:41:26Z</time></trkpt><trkpt lat="39.42093455660513" lon="9.151806898334586"><ele>197.66666666666669</ele><time>2026-04-25T12:41:27Z</time></trkpt><trkpt lat="39.42086928127673" lon="9.152018613167643"><ele>197.0</ele><time>2026-04-25T12:41:28Z</time></trkpt><trkpt lat="39.42080222637573" lon="9.15222393599109"><ele>195.0</ele><time>2026-04-25T12:41:29Z</time></trkpt><trkpt lat="39.42072590746203" lon="9.152420834328103"><ele>193.0</ele><time>2026-04-25T12:41:30Z</time></trkpt><trkpt lat="39.42062844442758" lon="9.152599305669844"><ele>191.0</ele><time>2026-04-25T12:41:31Z</time></trkpt><trkpt lat="39.42050366441791" lon="9.152754312565325"><ele>195.66666666666666</ele><time>2026-04-25T12:41:32Z</time></trkpt><trkpt lat="39.420365167109814" lon="9.152898397174392"><ele>200.33333333333331</ele><time>2026-04-25T12:41:33Z</time></trkpt><trkpt lat="39.420240195783144" lon="9.15306055167959"><ele>205.0</ele><time>2026-04-25T12:41:34Z</time></trkpt><trkpt lat="39.42013153571293" lon="9.153256211126852"><ele>205.0</ele><time>2026-04-25T12:41:35Z</time></trkpt><trkpt lat="39.42002692838107" lon="9.153452268630131"><ele>205.0</ele><time>2026-04-25T12:41:36Z</time></trkpt><trkpt lat="39.419915493499815" lon="9.153646359393278"><ele>205.0</ele><time>2026-04-25T12:41:37Z</time></trkpt><trkpt lat="39.419801089288136" lon="9.153838121300163"><ele>205.0</ele><time>2026-04-25T12:41:38Z</time></trkpt><trkpt lat="39.419685966783625" lon="9.154032932314713"><ele>205.0</ele><time>2026-04-25T12:41:39Z</time></trkpt><trkpt lat="39.41956931747016" lon="9.154230061106972"><ele>205.0</ele><time>2026-04-25T12:41:40Z</time></trkpt><trkpt lat="39.41945430358244" lon="9.15442850042045"><ele>204.66666666666666</ele><time>2026-04-25T12:41:41Z</time></trkpt><trkpt lat="39.41933831160474" lon="9.154626232638652"><ele>204.33333333333331</ele><time>2026-04-25T12:41:42Z</time></trkpt><trkpt lat="39.41922100010527" lon="9.154825646422898"><ele>204.0</ele><time>2026-04-25T12:41:43Z</time></trkpt><trkpt lat="39.41910057743842" lon="9.155022970676328"><ele>204.0</ele><time>2026-04-25T12:41:44Z</time></trkpt><trkpt lat="39.41898135379339" lon="9.155218674848099"><ele>204.0</ele><time>2026-04-25T12:41:45Z</time></trkpt><trkpt lat="39.41886343559245" lon="9.155417629846067"><ele>204.0</ele><time>2026-04-25T12:41:46Z</time></trkpt><trkpt lat="39.41874730266009" lon="9.155614238886477"><ele>209.0</ele><time>2026-04-25T12:41:47Z</time></trkpt><trkpt lat="39.41863151739959" lon="9.155808981311415"><ele>214.0</ele><time>2026-04-25T12:41:48Z</time></trkpt><trkpt lat="39.418515445297515" lon="9.155998940957842"><ele>219.0</ele><time>2026-04-25T12:41:49Z</time></trkpt><trkpt lat="39.41838924604219" lon="9.156174743591153"><ele>219.0</ele><time>2026-04-25T12:41:50Z</time></trkpt><trkpt lat="39.418245103747104" lon="9.156330975991725"><ele>219.0</ele><time>2026-04-25T12:41:51Z</time></trkpt><trkpt lat="39.418091241623245" lon="9.156462033517917"><ele>219.0</ele><time>2026-04-25T12:41:52Z</time></trkpt><trkpt lat="39.417928947364636" lon="9.156579274110703"><ele>220.33333333333331</ele><time>2026-04-25T12:41:53Z</time></trkpt><trkpt lat="39.417758159294635" lon="9.156678494719067"><ele>221.66666666666666</ele><time>2026-04-25T12:41:54Z</time></trkpt><trkpt lat="39.41757902407614" lon="9.156746045671591"><ele>223.0</ele><time>2026-04-25T12:41:55Z</time></trkpt><trkpt lat="39.41739489202842" lon="9.156781244230412"><ele>223.0</ele><time>2026-04-25T12:41:56Z</time></trkpt><trkpt lat="39.417201941513966" lon="9.156802101084494"><ele>223.0</ele><time>2026-04-25T12:41:57Z</time></trkpt><trkpt lat="39.417012548179514" lon="9.156831089639638"><ele>223.0</ele><time>2026-04-25T12:41:58Z</time></trkpt><trkpt lat="39.416819898216104" lon="9.156870380748364"><ele>219.66666666666666</ele><time>2026-04-25T12:41:59Z</time></trkpt><trkpt lat="39.41662416947911" lon="9.156912077661794"><ele>216.33333333333331</ele><time>2026-04-25T12:42:00Z</time></trkpt><trkpt lat="39.416427706192145" lon="9.156950541905506"><ele>213.0</ele><time>2026-04-25T12:42:01Z</time></trkpt><trkpt lat="39.416229811103484" lon="9.156984048170923"><ele>211.66666666666669</ele><time>2026-04-25T12:42:02Z</time></trkpt><trkpt lat="39.41602914039604" lon="9.15701793932551"><ele>210.33333333333334</ele><time>2026-04-25T12:42:03Z</time></trkpt><trkpt lat="39.41582790665865" lon="9.157051223944638"><ele>209.0</ele><time>2026-04-25T12:42:04Z</time></trkpt><trkpt lat="39.415624165047674" lon="9.157086476923398"><ele>206.33333333333334</ele><time>2026-04-25T12:42:05Z</time></trkpt><trkpt lat="39.41541838578256" lon="9.157121733398567"><ele>203.66666666666669</ele><time>2026-04-25T12:42:06Z</time></trkpt><trkpt lat="39.415210570265465" lon="9.157157008655725"><ele>201.0</ele><time>2026-04-25T12:42:07Z</time></trkpt><trkpt lat="39.41500165335881" lon="9.157190443351936"><ele>201.0</ele><time>2026-04-25T12:42:08Z</time></trkpt><trkpt lat="39.41479322865374" lon="9.1572269236627"><ele>201.0</ele><time>2026-04-25T12:42:09Z</time></trkpt><trkpt lat="39.41458231698729" lon="9.15726556809487"><ele>201.0</ele><time>2026-04-25T12:42:10Z</time></trkpt><trkpt lat="39.414369429330804" lon="9.157305268150203"><ele>199.0</ele><time>2026-04-25T12:42:11Z</time></trkpt><trkpt lat="39.41415620698518" lon="9.157340255697731"><ele>197.0</ele><time>2026-04-25T12:42:12Z</time></trkpt><trkpt lat="39.413940799546225" lon="9.157375524595135"><ele>195.0</ele><time>2026-04-25T12:42:13Z</time></trkpt><trkpt lat="39.41372137517434" lon="9.157413697736855"><ele>194.0</ele><time>2026-04-25T12:42:14Z</time></trkpt><trkpt lat="39.413496889153926" lon="9.157452488574176"><ele>193.0</ele><time>2026-04-25T12:42:15Z</time></trkpt><trkpt lat="39.41327076845764" lon="9.15749046890347"><ele>193.0</ele><time>2026-04-25T12:42:16Z</time></trkpt><trkpt lat="39.413094324613425" lon="9.15752845050048"><ele>193.0</ele><time>2026-04-25T12:42:17Z</time></trkpt><trkpt lat="39.41288335477885" lon="9.157571081752117"><ele>193.0</ele><time>2026-04-25T12:42:18Z</time></trkpt><trkpt lat="39.412673016477996" lon="9.157610524220186"><ele>192.66666666666666</ele><time>2026-04-25T12:42:19Z</time></trkpt><trkpt lat="39.412467909471495" lon="9.157651827957931"><ele>192.33333333333331</ele><time>2026-04-25T12:42:20Z</time></trkpt><trkpt lat="39.41226242745465" lon="9.15768406382418"><ele>192.0</ele><time>2026-04-25T12:42:21Z</time></trkpt><trkpt lat="39.412056893120436" lon="9.157717961140332"><ele>192.0</ele><time>2026-04-25T12:42:22Z</time></trkpt><trkpt lat="39.411850558410926" lon="9.157749019314455"><ele>192.0</ele><time>2026-04-25T12:42:23Z</time></trkpt><trkpt lat="39.41164489442572" lon="9.157782925688599"><ele>192.0</ele><time>2026-04-25T12:42:24Z</time></trkpt><trkpt lat="39.411438342521045" lon="9.157815271474771"><ele>192.66666666666669</ele><time>2026-04-25T12:42:25Z</time></trkpt><trkpt lat="39.41123383034454" lon="9.157849032532095"><ele>193.33333333333334</ele><time>2026-04-25T12:42:26Z</time></trkpt><trkpt lat="39.41103136220025" lon="9.157881650382425"><ele>194.0</ele><time>2026-04-25T12:42:27Z</time></trkpt><trkpt lat="39.41082368754721" lon="9.1579213299594"><ele>194.0</ele><time>2026-04-25T12:42:28Z</time></trkpt><trkpt lat="39.41061807244624" lon="9.157974768376127"><ele>194.0</ele><time>2026-04-25T12:42:29Z</time></trkpt><trkpt lat="39.410414568867665" lon="9.158047219221887"><ele>194.0</ele><time>2026-04-25T12:42:30Z</time></trkpt><trkpt lat="39.410214356264376" lon="9.15814483016546"><ele>192.33333333333334</ele><time>2026-04-25T12:42:31Z</time></trkpt><trkpt lat="39.41002078051113" lon="9.158261420385722"><ele>190.66666666666669</ele><time>2026-04-25T12:42:32Z</time></trkpt><trkpt lat="39.40982829282575" lon="9.158376859461436"><ele>189.0</ele><time>2026-04-25T12:42:33Z</time></trkpt><trkpt lat="39.40963573353526" lon="9.158489308737357"><ele>186.66666666666666</ele><time>2026-04-25T12:42:34Z</time></trkpt><trkpt lat="39.409442266437246" lon="9.158595041566402"><ele>184.33333333333331</ele><time>2026-04-25T12:42:35Z</time></trkpt><trkpt lat="39.40924659570204" lon="9.158697835650148"><ele>182.0</ele><time>2026-04-25T12:42:36Z</time></trkpt><trkpt lat="39.40905197168692" lon="9.158803429878073"><ele>182.0</ele><time>2026-04-25T12:42:37Z</time></trkpt><trkpt lat="39.408857763081926" lon="9.158904919098433"><ele>182.0</ele><time>2026-04-25T12:42:38Z</time></trkpt><trkpt lat="39.40866613977374" lon="9.159005132591597"><ele>182.0</ele><time>2026-04-25T12:42:39Z</time></trkpt><trkpt lat="39.408472884002265" lon="9.159105000267566"><ele>182.33333333333331</ele><time>2026-04-25T12:42:40Z</time></trkpt><trkpt lat="39.40827693734078" lon="9.159209371383758"><ele>182.66666666666666</ele><time>2026-04-25T12:42:41Z</time></trkpt><trkpt lat="39.40808243461512" lon="9.159308245018645"><ele>183.0</ele><time>2026-04-25T12:42:42Z</time></trkpt><trkpt lat="39.40788729308203" lon="9.159401133728005"><ele>181.0</ele><time>2026-04-25T12:42:43Z</time></trkpt><trkpt lat="39.407682244816954" lon="9.159432092316983"><ele>179.0</ele><time>2026-04-25T12:42:44Z</time></trkpt><trkpt lat="39.40747902626477" lon="9.159461432656405"><ele>177.0</ele><time>2026-04-25T12:42:45Z</time></trkpt><trkpt lat="39.407268715621534" lon="9.159463184842332"><ele>176.0</ele><time>2026-04-25T12:42:46Z</time></trkpt><trkpt lat="39.407059889233004" lon="9.159439749613824"><ele>175.0</ele><time>2026-04-25T12:42:47Z</time></trkpt><trkpt lat="39.406854512661525" lon="9.159397114724348"><ele>174.0</ele><time>2026-04-25T12:42:48Z</time></trkpt><trkpt lat="39.40665480338299" lon="9.159327277255816"><ele>174.0</ele><time>2026-04-25T12:42:49Z</time></trkpt><trkpt lat="39.40646242368176" lon="9.159233209536715"><ele>174.0</ele><time>2026-04-25T12:42:50Z</time></trkpt><trkpt lat="39.40627114114764" lon="9.159127844775218"><ele>174.0</ele><time>2026-04-25T12:42:51Z</time></trkpt><trkpt lat="39.406083569064606" lon="9.159018884866061"><ele>174.33333333333334</ele><time>2026-04-25T12:42:52Z</time></trkpt><trkpt lat="39.40589441154675" lon="9.158928376881141"><ele>174.66666666666669</ele><time>2026-04-25T12:42:53Z</time></trkpt><trkpt lat="39.405715247488054" lon="9.158821791339298"><ele>175.0</ele><time>2026-04-25T12:42:54Z</time></trkpt><trkpt lat="39.40553759562401" lon="9.15871467049116"><ele>176.66666666666669</ele><time>2026-04-25T12:42:55Z</time></trkpt><trkpt lat="39.405361760731964" lon="9.158610030792524"><ele>178.33333333333334</ele><time>2026-04-25T12:42:56Z</time></trkpt><trkpt lat="39.40519071878635" lon="9.158505072552144"><ele>180.0</ele><time>2026-04-25T12:42:57Z</time></trkpt><trkpt lat="39.40501361026075" lon="9.158400379746544"><ele>180.0</ele><time>2026-04-25T12:42:58Z</time></trkpt><trkpt lat="39.40483617611207" lon="9.158293498404108"><ele>180.0</ele><time>2026-04-25T12:42:59Z</time></trkpt><trkpt lat="39.40466051809261" lon="9.158189672491215"><ele>180.0</ele><time>2026-04-25T12:43:00Z</time></trkpt><trkpt lat="39.40448376605615" lon="9.158090034985976"><ele>179.0</ele><time>2026-04-25T12:43:01Z</time></trkpt><trkpt lat="39.404321964319486" lon="9.157998362165689"><ele>178.0</ele><time>2026-04-25T12:43:02Z</time></trkpt><trkpt lat="39.40417387873763" lon="9.15790861782121"><ele>177.0</ele><time>2026-04-25T12:43:03Z</time></trkpt><trkpt lat="39.40403249900152" lon="9.157819164423485"><ele>177.0</ele><time>2026-04-25T12:43:04Z</time></trkpt><trkpt lat="39.40388839349675" lon="9.157726939402517"><ele>177.0</ele><time>2026-04-25T12:43:05Z</time></trkpt><trkpt lat="39.40374810201172" lon="9.157638711053735"><ele>177.0</ele><time>2026-04-25T12:43:06Z</time></trkpt><trkpt lat="39.40361622683652" lon="9.157563092165729"><ele>176.5</ele><time>2026-04-25T12:43:07Z</time></trkpt><trkpt lat="39.4034847885329" lon="9.157497984566977"><ele>176.0</ele><time>2026-04-25T12:43:08Z</time></trkpt><trkpt lat="39.40337095399" lon="9.157422941458291"><ele>175.5</ele><time>2026-04-25T12:43:09Z</time></trkpt><trkpt lat="39.40327307841627" lon="9.157341503423243"><ele>175.0</ele><time>2026-04-25T12:43:10Z</time></trkpt><trkpt lat="39.403126169596675" lon="9.157266185222445"><ele>175.33333333333334</ele><time>2026-04-25T12:43:11Z</time></trkpt><trkpt lat="39.40298649357905" lon="9.157189158553951"><ele>175.66666666666666</ele><time>2026-04-25T12:43:12Z</time></trkpt><trkpt lat="39.402842397253295" lon="9.157110859262785"><ele>176.0</ele><time>2026-04-25T12:43:13Z</time></trkpt><trkpt lat="39.402697684120774" lon="9.157024914129872"><ele>176.0</ele><time>2026-04-25T12:43:14Z</time></trkpt><trkpt lat="39.40254913942636" lon="9.156929277782211"><ele>176.0</ele><time>2026-04-25T12:43:15Z</time></trkpt><trkpt lat="39.40238918967854" lon="9.156844900058804"><ele>176.0</ele><time>2026-04-25T12:43:16Z</time></trkpt><trkpt lat="39.402220879806386" lon="9.156775091287706"><ele>174.66666666666666</ele><time>2026-04-25T12:43:17Z</time></trkpt><trkpt lat="39.40204517391879" lon="9.156717136381749"><ele>173.33333333333334</ele><time>2026-04-25T12:43:18Z</time></trkpt><trkpt lat="39.40186639556197" lon="9.15666575276581"><ele>172.0</ele><time>2026-04-25T12:43:19Z</time></trkpt><trkpt lat="39.40168437566028" lon="9.156623612578707"><ele>172.0</ele><time>2026-04-25T12:43:20Z</time></trkpt><trkpt lat="39.40149768529824" lon="9.156606886414936"><ele>172.0</ele><time>2026-04-25T12:43:21Z</time></trkpt><trkpt lat="39.40131089431752" lon="9.156615593310535"><ele>172.0</ele><time>2026-04-25T12:43:22Z</time></trkpt><trkpt lat="39.40112340345881" lon="9.156642100469483"><ele>171.33333333333334</ele><time>2026-04-25T12:43:23Z</time></trkpt><trkpt lat="39.40094003423859" lon="9.156680797394497"><ele>170.66666666666666</ele><time>2026-04-25T12:43:24Z</time></trkpt><trkpt lat="39.40075595370169" lon="9.156734797019839"><ele>170.0</ele><time>2026-04-25T12:43:25Z</time></trkpt><trkpt lat="39.400575249446455" lon="9.15681006945361"><ele>168.66666666666666</ele><time>2026-04-25T12:43:26Z</time></trkpt><trkpt lat="39.40040132874956" lon="9.156901888481446"><ele>167.33333333333334</ele><time>2026-04-25T12:43:27Z</time></trkpt><trkpt lat="39.40022843886131" lon="9.156998290588687"><ele>166.0</ele><time>2026-04-25T12:43:28Z</time></trkpt><trkpt lat="39.40005745779044" lon="9.157094420779261"><ele>166.0</ele><time>2026-04-25T12:43:29Z</time></trkpt><trkpt lat="39.399887433588326" lon="9.157191398020151"><ele>166.0</ele><time>2026-04-25T12:43:30Z</time></trkpt><trkpt lat="39.39972010529875" lon="9.157290669068395"><ele>166.0</ele><time>2026-04-25T12:43:31Z</time></trkpt><trkpt lat="39.39955547146775" lon="9.157380966197115"><ele>166.0</ele><time>2026-04-25T12:43:32Z</time></trkpt><trkpt lat="39.39939004650205" lon="9.15744424578625"><ele>166.0</ele><time>2026-04-25T12:43:33Z</time></trkpt><trkpt lat="39.39923235641254" lon="9.157476979976053"><ele>166.0</ele><time>2026-04-25T12:43:34Z</time></trkpt><trkpt lat="39.399090100009886" lon="9.157486965179992"><ele>166.0</ele><time>2026-04-25T12:43:35Z</time></trkpt><trkpt lat="39.398971844466566" lon="9.157458528835141"><ele>166.0</ele><time>2026-04-25T12:43:36Z</time></trkpt><trkpt lat="39.39886208004058" lon="9.157424942814924"><ele>166.0</ele><time>2026-04-25T12:43:37Z</time></trkpt><trkpt lat="39.39875927768757" lon="9.157457655554254"><ele>166.0</ele><time>2026-04-25T12:43:38Z</time></trkpt><trkpt lat="39.39864295465612" lon="9.157536522933665"><ele>166.0</ele><time>2026-04-25T12:43:39Z</time></trkpt><trkpt lat="39.3985121019998" lon="9.157595376445824"><ele>166.0</ele><time>2026-04-25T12:43:40Z</time></trkpt><trkpt lat="39.398359347532825" lon="9.157595110806056"><ele>166.0</ele><time>2026-04-25T12:43:41Z</time></trkpt><trkpt lat="39.398191384775096" lon="9.157577398219109"><ele>166.0</ele><time>2026-04-25T12:43:42Z</time></trkpt><trkpt lat="39.3980200589966" lon="9.15754674540582"><ele>166.0</ele><time>2026-04-25T12:43:43Z</time></trkpt><trkpt lat="39.39784366947045" lon="9.157509418869346"><ele>166.0</ele><time>2026-04-25T12:43:44Z</time></trkpt><trkpt lat="39.39766410345339" lon="9.157469964454693"><ele>166.0</ele><time>2026-04-25T12:43:45Z</time></trkpt><trkpt lat="39.397483013652085" lon="9.157428132740879"><ele>166.0</ele><time>2026-04-25T12:43:46Z</time></trkpt><trkpt lat="39.39729965714904" lon="9.157384499746307"><ele>166.0</ele><time>2026-04-25T12:43:47Z</time></trkpt><trkpt lat="39.39711453396589" lon="9.157343658053653"><ele>165.33333333333334</ele><time>2026-04-25T12:43:48Z</time></trkpt><trkpt lat="39.39693022854538" lon="9.15730492487091"><ele>164.66666666666666</ele><time>2026-04-25T12:43:49Z</time></trkpt><trkpt lat="39.396744207608826" lon="9.1572695107308"><ele>164.0</ele><time>2026-04-25T12:43:50Z</time></trkpt><trkpt lat="39.396557585823494" lon="9.157232195152925"><ele>164.0</ele><time>2026-04-25T12:43:51Z</time></trkpt><trkpt lat="39.39637097285743" lon="9.157186110570933"><ele>164.0</ele><time>2026-04-25T12:43:52Z</time></trkpt><trkpt lat="39.3961837772048" lon="9.157135918330141"><ele>164.0</ele><time>2026-04-25T12:43:53Z</time></trkpt><trkpt lat="39.395995805663226" lon="9.157087297408761"><ele>163.66666666666666</ele><time>2026-04-25T12:43:54Z</time></trkpt><trkpt lat="39.395803978651806" lon="9.15704285180772"><ele>163.33333333333334</ele><time>2026-04-25T12:43:55Z</time></trkpt><trkpt lat="39.395612748715116" lon="9.15699993744243"><ele>163.0</ele><time>2026-04-25T12:43:56Z</time></trkpt><trkpt lat="39.39542081234007" lon="9.156958536520143"><ele>162.66666666666669</ele><time>2026-04-25T12:43:57Z</time></trkpt><trkpt lat="39.39522894627718" lon="9.156916821638307"><ele>162.33333333333334</ele><time>2026-04-25T12:43:58Z</time></trkpt><trkpt lat="39.39503799329462" lon="9.156877808494981"><ele>162.0</ele><time>2026-04-25T12:43:59Z</time></trkpt><trkpt lat="39.39484663340115" lon="9.156838821923063"><ele>162.33333333333334</ele><time>2026-04-25T12:44:00Z</time></trkpt><trkpt lat="39.39465609941906" lon="9.156798293747327"><ele>162.66666666666669</ele><time>2026-04-25T12:44:01Z</time></trkpt><trkpt lat="39.39446657365966" lon="9.156755696250269"><ele>163.0</ele><time>2026-04-25T12:44:02Z</time></trkpt><trkpt lat="39.39427783727534" lon="9.156711135202"><ele>163.0</ele><time>2026-04-25T12:44:03Z</time></trkpt><trkpt lat="39.39408925360315" lon="9.156666403209643"><ele>163.0</ele><time>2026-04-25T12:44:04Z</time></trkpt><trkpt lat="39.39390005991233" lon="9.156622304759562"><ele>163.0</ele><time>2026-04-25T12:44:05Z</time></trkpt><trkpt lat="39.393710281324374" lon="9.156579911872129"><ele>162.66666666666669</ele><time>2026-04-25T12:44:06Z</time></trkpt><trkpt lat="39.39352163915742" lon="9.156536967800378"><ele>162.33333333333334</ele><time>2026-04-25T12:44:07Z</time></trkpt><trkpt lat="39.39333005097623" lon="9.156494895287802"><ele>162.0</ele><time>2026-04-25T12:44:08Z</time></trkpt><trkpt lat="39.393139672703505" lon="9.156452722443074"><ele>162.0</ele><time>2026-04-25T12:44:09Z</time></trkpt><trkpt lat="39.392948692855924" lon="9.156410963815578"><ele>162.0</ele><time>2026-04-25T12:44:10Z</time></trkpt><trkpt lat="39.39275782527027" lon="9.156369891008584"><ele>162.0</ele><time>2026-04-25T12:44:11Z</time></trkpt><trkpt lat="39.39256737999394" lon="9.156328048758363"><ele>162.0</ele><time>2026-04-25T12:44:12Z</time></trkpt><trkpt lat="39.39237915038404" lon="9.156283153929492"><ele>162.0</ele><time>2026-04-25T12:44:13Z</time></trkpt><trkpt lat="39.392190166938896" lon="9.156240416815463"><ele>162.0</ele><time>2026-04-25T12:44:14Z</time></trkpt><trkpt lat="39.392000135567216" lon="9.156201143612686"><ele>162.33333333333334</ele><time>2026-04-25T12:44:15Z</time></trkpt><trkpt lat="39.39180828138892" lon="9.156161343911863"><ele>162.66666666666669</ele><time>2026-04-25T12:44:16Z</time></trkpt><trkpt lat="39.39161904904419" lon="9.156119413378445"><ele>163.0</ele><time>2026-04-25T12:44:17Z</time></trkpt><trkpt lat="39.391429495670536" lon="9.156081489977879"><ele>162.66666666666669</ele><time>2026-04-25T12:44:18Z</time></trkpt><trkpt lat="39.39124033235465" lon="9.156042346672104"><ele>162.33333333333334</ele><time>2026-04-25T12:44:19Z</time></trkpt><trkpt lat="39.391051241199804" lon="9.15599997979865"><ele>162.0</ele><time>2026-04-25T12:44:20Z</time></trkpt><trkpt lat="39.39086335329932" lon="9.155952481326242"><ele>162.0</ele><time>2026-04-25T12:44:21Z</time></trkpt><trkpt lat="39.390673983320745" lon="9.155905480007497"><ele>162.0</ele><time>2026-04-25T12:44:22Z</time></trkpt><trkpt lat="39.390487155629884" lon="9.155866312758581"><ele>162.0</ele><time>2026-04-25T12:44:23Z</time></trkpt><trkpt lat="39.39028988922183" lon="9.155816738130934"><ele>162.33333333333334</ele><time>2026-04-25T12:44:24Z</time></trkpt><trkpt lat="39.390097029294694" lon="9.155777028957095"><ele>162.66666666666669</ele><time>2026-04-25T12:44:25Z</time></trkpt><trkpt lat="39.389903625134146" lon="9.155733754402487"><ele>163.0</ele><time>2026-04-25T12:44:26Z</time></trkpt><trkpt lat="39.38970915251759" lon="9.155695648280057"><ele>162.0</ele><time>2026-04-25T12:44:27Z</time></trkpt><trkpt lat="39.38951653940248" lon="9.1556521391154"><ele>161.0</ele><time>2026-04-25T12:44:28Z</time></trkpt><trkpt lat="39.38932294083371" lon="9.155611395590247"><ele>160.0</ele><time>2026-04-25T12:44:29Z</time></trkpt><trkpt lat="39.38913026853946" lon="9.15556791535068"><ele>160.0</ele><time>2026-04-25T12:44:30Z</time></trkpt><trkpt lat="39.38894013894399" lon="9.155525617353065"><ele>160.0</ele><time>2026-04-25T12:44:31Z</time></trkpt><trkpt lat="39.388748848405605" lon="9.155480657238988"><ele>160.0</ele><time>2026-04-25T12:44:32Z</time></trkpt><trkpt lat="39.388557548596054" lon="9.155435696360922"><ele>161.33333333333334</ele><time>2026-04-25T12:44:33Z</time></trkpt><trkpt lat="39.38836654427613" lon="9.155392974069189"><ele>162.66666666666666</ele><time>2026-04-25T12:44:34Z</time></trkpt><trkpt lat="39.38817442755101" lon="9.155348960691011"><ele>164.0</ele><time>2026-04-25T12:44:35Z</time></trkpt><trkpt lat="39.38798257070186" lon="9.155308539121577"><ele>164.33333333333331</ele><time>2026-04-25T12:44:36Z</time></trkpt><trkpt lat="39.38779075834805" lon="9.15526514531782"><ele>164.66666666666666</ele><time>2026-04-25T12:44:37Z</time></trkpt><trkpt lat="39.3875975814634" lon="9.155224132792915"><ele>165.0</ele><time>2026-04-25T12:44:38Z</time></trkpt><trkpt lat="39.38740644623471" lon="9.155180356219324"><ele>165.0</ele><time>2026-04-25T12:44:39Z</time></trkpt><trkpt lat="39.38721581418091" lon="9.155136083816178"><ele>165.0</ele><time>2026-04-25T12:44:40Z</time></trkpt><trkpt lat="39.38702290835651" lon="9.15509352971659"><ele>165.0</ele><time>2026-04-25T12:44:41Z</time></trkpt><trkpt lat="39.386830913511275" lon="9.155051783828657"><ele>165.0</ele><time>2026-04-25T12:44:42Z</time></trkpt><trkpt lat="39.386640114361676" lon="9.15500977747318"><ele>165.0</ele><time>2026-04-25T12:44:43Z</time></trkpt><trkpt lat="39.38644845020011" lon="9.154966077715356"><ele>165.0</ele><time>2026-04-25T12:44:44Z</time></trkpt><trkpt lat="39.38625482183171" lon="9.154925003853174"><ele>165.0</ele><time>2026-04-25T12:44:45Z</time></trkpt><trkpt lat="39.38606086318567" lon="9.154885516570577"><ele>165.0</ele><time>2026-04-25T12:44:46Z</time></trkpt><trkpt lat="39.385867546129134" lon="9.15484093087651"><ele>165.0</ele><time>2026-04-25T12:44:47Z</time></trkpt><trkpt lat="39.38567390880409" lon="9.154797426135987"><ele>164.66666666666666</ele><time>2026-04-25T12:44:48Z</time></trkpt><trkpt lat="39.38548151619309" lon="9.154752593820197"><ele>164.33333333333331</ele><time>2026-04-25T12:44:49Z</time></trkpt><trkpt lat="39.38528835762608" lon="9.154709174087797"><ele>164.0</ele><time>2026-04-25T12:44:50Z</time></trkpt><trkpt lat="39.38509395663738" lon="9.154668818959657"><ele>164.0</ele><time>2026-04-25T12:44:51Z</time></trkpt><trkpt lat="39.384902180784124" lon="9.154627870982235"><ele>164.0</ele><time>2026-04-25T12:44:52Z</time></trkpt><trkpt lat="39.38470973477644" lon="9.154588226269107"><ele>164.0</ele><time>2026-04-25T12:44:53Z</time></trkpt><trkpt lat="39.38451592893346" lon="9.154545967104307"><ele>164.33333333333331</ele><time>2026-04-25T12:44:54Z</time></trkpt><trkpt lat="39.38432267785383" lon="9.154501082485798"><ele>164.66666666666666</ele><time>2026-04-25T12:44:55Z</time></trkpt><trkpt lat="39.384130900820345" lon="9.154452717918684"><ele>165.0</ele><time>2026-04-25T12:44:56Z</time></trkpt><trkpt lat="39.383938340535856" lon="9.15440188538729"><ele>165.0</ele><time>2026-04-25T12:44:57Z</time></trkpt><trkpt lat="39.38374132200098" lon="9.15435520130358"><ele>165.0</ele><time>2026-04-25T12:44:58Z</time></trkpt><trkpt lat="39.38354184597114" lon="9.154311186996937"><ele>165.0</ele><time>2026-04-25T12:44:59Z</time></trkpt><trkpt lat="39.38334471182006" lon="9.154271017544001"><ele>165.0</ele><time>2026-04-25T12:45:00Z</time></trkpt><trkpt lat="39.38314394668646" lon="9.154237308472561"><ele>165.0</ele><time>2026-04-25T12:45:01Z</time></trkpt><trkpt lat="39.38294604531767" lon="9.154206753252437"><ele>165.0</ele><time>2026-04-25T12:45:02Z</time></trkpt><trkpt lat="39.38274504694351" lon="9.154181417167335"><ele>165.0</ele><time>2026-04-25T12:45:03Z</time></trkpt><trkpt lat="39.38255171046553" lon="9.154156957221671"><ele>165.0</ele><time>2026-04-25T12:45:04Z</time></trkpt><trkpt lat="39.3823539589811" lon="9.15413289091385"><ele>165.0</ele><time>2026-04-25T12:45:05Z</time></trkpt><trkpt lat="39.38215751013734" lon="9.154117637722372"><ele>165.33333333333334</ele><time>2026-04-25T12:45:06Z</time></trkpt><trkpt lat="39.3819614518314" lon="9.154104638808958"><ele>165.66666666666669</ele><time>2026-04-25T12:45:07Z</time></trkpt><trkpt lat="39.38176495225889" lon="9.154098335672703"><ele>166.0</ele><time>2026-04-25T12:45:08Z</time></trkpt><trkpt lat="39.381576328486645" lon="9.154094622037922"><ele>166.0</ele><time>2026-04-25T12:45:09Z</time></trkpt><trkpt lat="39.381391222614376" lon="9.154094125641432"><ele>166.0</ele><time>2026-04-25T12:45:10Z</time></trkpt><trkpt lat="39.381206267699504" lon="9.154093026990619"><ele>166.0</ele><time>2026-04-25T12:45:11Z</time></trkpt><trkpt lat="39.38102556064763" lon="9.154096186763942"><ele>166.0</ele><time>2026-04-25T12:45:12Z</time></trkpt><trkpt lat="39.38084959416871" lon="9.154098772114743"><ele>166.0</ele><time>2026-04-25T12:45:13Z</time></trkpt><trkpt lat="39.38067590986914" lon="9.154102538230765"><ele>166.0</ele><time>2026-04-25T12:45:14Z</time></trkpt><trkpt lat="39.38051085735073" lon="9.154105125967307"><ele>165.75</ele><time>2026-04-25T12:45:15Z</time></trkpt><trkpt lat="39.38035778536526" lon="9.154109424898415"><ele>165.5</ele><time>2026-04-25T12:45:16Z</time></trkpt><trkpt lat="39.38021356454609" lon="9.154112461899873"><ele>165.25</ele><time>2026-04-25T12:45:17Z</time></trkpt><trkpt lat="39.380084178696436" lon="9.154112628220146"><ele>165.0</ele><time>2026-04-25T12:45:18Z</time></trkpt><trkpt lat="39.37996451483322" lon="9.154110546199755"><ele>165.0</ele><time>2026-04-25T12:45:19Z</time></trkpt><trkpt lat="39.379861288439926" lon="9.1540947552739"><ele>165.0</ele><time>2026-04-25T12:45:20Z</time></trkpt><trkpt lat="39.379765026733104" lon="9.154056360880727"><ele>165.0</ele><time>2026-04-25T12:45:21Z</time></trkpt><trkpt lat="39.37966926159017" lon="9.154007933996786"><ele>165.0</ele><time>2026-04-25T12:45:22Z</time></trkpt><trkpt lat="39.37956319690499" lon="9.153969017843727"><ele>165.0</ele><time>2026-04-25T12:45:23Z</time></trkpt><trkpt lat="39.37944579524291" lon="9.153979254169567"><ele>165.75</ele><time>2026-04-25T12:45:24Z</time></trkpt><trkpt lat="39.37931914017533" lon="9.154001108462076"><ele>166.5</ele><time>2026-04-25T12:45:25Z</time></trkpt><trkpt lat="39.37918398943293" lon="9.154009954786341"><ele>167.25</ele><time>2026-04-25T12:45:26Z</time></trkpt><trkpt lat="39.37904182903626" lon="9.15399729321516"><ele>168.0</ele><time>2026-04-25T12:45:27Z</time></trkpt><trkpt lat="39.37889504308105" lon="9.15397873543943"><ele>167.66666666666666</ele><time>2026-04-25T12:45:28Z</time></trkpt><trkpt lat="39.37874222828278" lon="9.153959740945597"><ele>167.33333333333331</ele><time>2026-04-25T12:45:29Z</time></trkpt><trkpt lat="39.37858287958834" lon="9.153936293194965"><ele>167.0</ele><time>2026-04-25T12:45:30Z</time></trkpt><trkpt lat="39.37842101697626" lon="9.153913672413976"><ele>167.0</ele><time>2026-04-25T12:45:31Z</time></trkpt><trkpt lat="39.378251546634075" lon="9.153888432119299"><ele>167.0</ele><time>2026-04-25T12:45:32Z</time></trkpt><trkpt lat="39.37808783982149" lon="9.153861633978773"><ele>167.0</ele><time>2026-04-25T12:45:33Z</time></trkpt><trkpt lat="39.37791621571861" lon="9.153834567275116"><ele>166.33333333333331</ele><time>2026-04-25T12:45:34Z</time></trkpt><trkpt lat="39.377742674363304" lon="9.153810825255743"><ele>165.66666666666666</ele><time>2026-04-25T12:45:35Z</time></trkpt><trkpt lat="39.3775655836955" lon="9.153788388686637"><ele>165.0</ele><time>2026-04-25T12:45:36Z</time></trkpt><trkpt lat="39.37738439893393" lon="9.153764151809392"><ele>165.0</ele><time>2026-04-25T12:45:37Z</time></trkpt><trkpt lat="39.37719802212851" lon="9.153738970949183"><ele>165.0</ele><time>2026-04-25T12:45:38Z</time></trkpt><trkpt lat="39.37701075128739" lon="9.153713908450252"><ele>165.0</ele><time>2026-04-25T12:45:39Z</time></trkpt><trkpt lat="39.37682296472187" lon="9.153690539795988"><ele>163.33333333333334</ele><time>2026-04-25T12:45:40Z</time></trkpt><trkpt lat="39.376633016797086" lon="9.153660570225327"><ele>161.66666666666669</ele><time>2026-04-25T12:45:41Z</time></trkpt><trkpt lat="39.37644181344055" lon="9.153626250270298"><ele>160.0</ele><time>2026-04-25T12:45:42Z</time></trkpt><trkpt lat="39.37624635221334" lon="9.153592734776318"><ele>159.33333333333334</ele><time>2026-04-25T12:45:43Z</time></trkpt><trkpt lat="39.37605096733761" lon="9.153562217373295"><ele>158.66666666666666</ele><time>2026-04-25T12:45:44Z</time></trkpt><trkpt lat="39.37585151470964" lon="9.153533876508348"><ele>158.0</ele><time>2026-04-25T12:45:45Z</time></trkpt><trkpt lat="39.37565185658313" lon="9.15350883503658"><ele>158.0</ele><time>2026-04-25T12:45:46Z</time></trkpt><trkpt lat="39.3754510072852" lon="9.153488116653495"><ele>158.0</ele><time>2026-04-25T12:45:47Z</time></trkpt><trkpt lat="39.3752516352966" lon="9.153476230229593"><ele>158.0</ele><time>2026-04-25T12:45:48Z</time></trkpt><trkpt lat="39.37505394020609" lon="9.153475950123852"><ele>158.0</ele><time>2026-04-25T12:45:49Z</time></trkpt><trkpt lat="39.374862219611806" lon="9.15348162774503"><ele>158.0</ele><time>2026-04-25T12:45:50Z</time></trkpt><trkpt lat="39.37467439785142" lon="9.15348996473251"><ele>158.0</ele><time>2026-04-25T12:45:51Z</time></trkpt><trkpt lat="39.374486559029926" lon="9.153501401579762"><ele>157.33333333333331</ele><time>2026-04-25T12:45:52Z</time></trkpt><trkpt lat="39.374295297563656" lon="9.153511544872606"><ele>156.66666666666666</ele><time>2026-04-25T12:45:53Z</time></trkpt><trkpt lat="39.374101357419995" lon="9.153524625383792"><ele>156.0</ele><time>2026-04-25T12:45:54Z</time></trkpt><trkpt lat="39.37391127592626" lon="9.153549823041939"><ele>154.66666666666666</ele><time>2026-04-25T12:45:55Z</time></trkpt><trkpt lat="39.37372501589305" lon="9.153582160433873"><ele>153.33333333333331</ele><time>2026-04-25T12:45:56Z</time></trkpt><trkpt lat="39.37353839150725" lon="9.153618937825131"><ele>152.0</ele><time>2026-04-25T12:45:57Z</time></trkpt><trkpt lat="39.373356663223205" lon="9.153658311878239"><ele>152.0</ele><time>2026-04-25T12:45:58Z</time></trkpt><trkpt lat="39.37317986152494" lon="9.153698687518899"><ele>152.0</ele><time>2026-04-25T12:45:59Z</time></trkpt><trkpt lat="39.37300002558756" lon="9.153735667671413"><ele>152.0</ele><time>2026-04-25T12:46:00Z</time></trkpt><trkpt lat="39.37282203602925" lon="9.15377147199384"><ele>151.33333333333331</ele><time>2026-04-25T12:46:01Z</time></trkpt><trkpt lat="39.37264229451726" lon="9.153809087012343"><ele>150.66666666666666</ele><time>2026-04-25T12:46:02Z</time></trkpt><trkpt lat="39.37245999783227" lon="9.153848937397772"><ele>150.0</ele><time>2026-04-25T12:46:03Z</time></trkpt><trkpt lat="39.37227858670386" lon="9.153887967133187"><ele>149.66666666666666</ele><time>2026-04-25T12:46:04Z</time></trkpt><trkpt lat="39.3720933381226" lon="9.153928942760578"><ele>149.33333333333331</ele><time>2026-04-25T12:46:05Z</time></trkpt><trkpt lat="39.37191155334143" lon="9.15396891741675"><ele>149.0</ele><time>2026-04-25T12:46:06Z</time></trkpt><trkpt lat="39.371727402964844" lon="9.154008416266512"><ele>149.33333333333331</ele><time>2026-04-25T12:46:07Z</time></trkpt><trkpt lat="39.371543204670616" lon="9.154047607894373"><ele>149.66666666666666</ele><time>2026-04-25T12:46:08Z</time></trkpt><trkpt lat="39.37135853637454" lon="9.15408746839425"><ele>150.0</ele><time>2026-04-25T12:46:09Z</time></trkpt><trkpt lat="39.37117228181593" lon="9.154126671769252"><ele>150.0</ele><time>2026-04-25T12:46:10Z</time></trkpt><trkpt lat="39.37098695336506" lon="9.154165763715785"><ele>150.0</ele><time>2026-04-25T12:46:11Z</time></trkpt><trkpt lat="39.370800864874155" lon="9.154205096359528"><ele>150.0</ele><time>2026-04-25T12:46:12Z</time></trkpt><trkpt lat="39.370614315714526" lon="9.154243851566573"><ele>149.0</ele><time>2026-04-25T12:46:13Z</time></trkpt><trkpt lat="39.3704272013493" lon="9.15428255859459"><ele>148.0</ele><time>2026-04-25T12:46:14Z</time></trkpt><trkpt lat="39.37024069202752" lon="9.154324054581418"><ele>147.0</ele><time>2026-04-25T12:46:15Z</time></trkpt><trkpt lat="39.37005918242864" lon="9.154367929747563"><ele>147.0</ele><time>2026-04-25T12:46:16Z</time></trkpt><trkpt lat="39.369875436202605" lon="9.15441160061376"><ele>147.0</ele><time>2026-04-25T12:46:17Z</time></trkpt><trkpt lat="39.369691236106" lon="9.154458027578606"><ele>147.0</ele><time>2026-04-25T12:46:18Z</time></trkpt><trkpt lat="39.36951207078405" lon="9.154503481532398"><ele>146.33333333333334</ele><time>2026-04-25T12:46:19Z</time></trkpt><trkpt lat="39.369330469878214" lon="9.154550465323284"><ele>145.66666666666669</ele><time>2026-04-25T12:46:20Z</time></trkpt><trkpt lat="39.36915261227152" lon="9.154595571127254"><ele>145.0</ele><time>2026-04-25T12:46:21Z</time></trkpt><trkpt lat="39.36897650377939" lon="9.15464829532613"><ele>144.33333333333334</ele><time>2026-04-25T12:46:22Z</time></trkpt><trkpt lat="39.368803324462185" lon="9.154710263228703"><ele>143.66666666666666</ele><time>2026-04-25T12:46:23Z</time></trkpt><trkpt lat="39.36863171241704" lon="9.154776258343723"><ele>143.0</ele><time>2026-04-25T12:46:24Z</time></trkpt><trkpt lat="39.36845895100911" lon="9.154844992698267"><ele>143.33333333333331</ele><time>2026-04-25T12:46:25Z</time></trkpt><trkpt lat="39.3682892999011" lon="9.154914505513078"><ele>143.66666666666666</ele><time>2026-04-25T12:46:26Z</time></trkpt><trkpt lat="39.368124223840184" lon="9.154987517897355"><ele>144.0</ele><time>2026-04-25T12:46:27Z</time></trkpt><trkpt lat="39.36796475481544" lon="9.155066580670402"><ele>144.0</ele><time>2026-04-25T12:46:28Z</time></trkpt><trkpt lat="39.36781095352948" lon="9.155146229347075"><ele>144.0</ele><time>2026-04-25T12:46:29Z</time></trkpt><trkpt lat="39.367662543333324" lon="9.155224678365924"><ele>144.0</ele><time>2026-04-25T12:46:30Z</time></trkpt><trkpt lat="39.367523635668604" lon="9.155293724802391"><ele>144.0</ele><time>2026-04-25T12:46:31Z</time></trkpt><trkpt lat="39.3673973219514" lon="9.155355523165836"><ele>144.0</ele><time>2026-04-25T12:46:32Z</time></trkpt><trkpt lat="39.367289705889036" lon="9.155405849045632"><ele>144.0</ele><time>2026-04-25T12:46:33Z</time></trkpt><trkpt lat="39.36719034898283" lon="9.155437735722746"><ele>144.0</ele><time>2026-04-25T12:46:34Z</time></trkpt><trkpt lat="39.36710137115113" lon="9.155430867825318"><ele>144.0</ele><time>2026-04-25T12:46:35Z</time></trkpt><trkpt lat="39.36701584859381" lon="9.155409336731543"><ele>143.6</ele><time>2026-04-25T12:46:36Z</time></trkpt><trkpt lat="39.36692521695188" lon="9.155424920077435"><ele>143.2</ele><time>2026-04-25T12:46:37Z</time></trkpt><trkpt lat="39.366850011237084" lon="9.155486531761696"><ele>142.79999999999998</ele><time>2026-04-25T12:46:38Z</time></trkpt><trkpt lat="39.36679356602792" lon="9.1555822946868"><ele>142.4</ele><time>2026-04-25T12:46:39Z</time></trkpt><trkpt lat="39.36672628245606" lon="9.15568286440406"><ele>142.0</ele><time>2026-04-25T12:46:40Z</time></trkpt><trkpt lat="39.36662743978636" lon="9.155749166847517"><ele>142.0</ele><time>2026-04-25T12:46:41Z</time></trkpt><trkpt lat="39.36650744622762" lon="9.155798816211233"><ele>142.0</ele><time>2026-04-25T12:46:42Z</time></trkpt><trkpt lat="39.366379601839654" lon="9.155861908195414"><ele>142.0</ele><time>2026-04-25T12:46:43Z</time></trkpt><trkpt lat="39.366246455155675" lon="9.15593308874261"><ele>142.0</ele><time>2026-04-25T12:46:44Z</time></trkpt><trkpt lat="39.366114016278104" lon="9.156005134113673"><ele>141.33333333333334</ele><time>2026-04-25T12:46:45Z</time></trkpt><trkpt lat="39.36597161455478" lon="9.15607666298046"><ele>140.66666666666666</ele><time>2026-04-25T12:46:46Z</time></trkpt><trkpt lat="39.365824397158015" lon="9.156150743389183"><ele>140.0</ele><time>2026-04-25T12:46:47Z</time></trkpt><trkpt lat="39.36567135384069" lon="9.15622690623543"><ele>140.66666666666666</ele><time>2026-04-25T12:46:48Z</time></trkpt><trkpt lat="39.36551422055901" lon="9.156309628321264"><ele>141.33333333333334</ele><time>2026-04-25T12:46:49Z</time></trkpt><trkpt lat="39.36535589247642" lon="9.156393133301126"><ele>142.0</ele><time>2026-04-25T12:46:50Z</time></trkpt><trkpt lat="39.36519536994108" lon="9.156476367318255"><ele>143.0</ele><time>2026-04-25T12:46:51Z</time></trkpt><trkpt lat="39.36503154631535" lon="9.156557129285373"><ele>144.0</ele><time>2026-04-25T12:46:52Z</time></trkpt><trkpt lat="39.36486918060352" lon="9.156637898832967"><ele>145.0</ele><time>2026-04-25T12:46:53Z</time></trkpt><trkpt lat="39.364707765719686" lon="9.1567192067644"><ele>146.0</ele><time>2026-04-25T12:46:54Z</time></trkpt><trkpt lat="39.3645464986949" lon="9.15679921768968"><ele>147.0</ele><time>2026-04-25T12:46:55Z</time></trkpt><trkpt lat="39.36438600116399" lon="9.156879435573494"><ele>148.0</ele><time>2026-04-25T12:46:56Z</time></trkpt><trkpt lat="39.36422883833466" lon="9.156960363218317"><ele>148.0</ele><time>2026-04-25T12:46:57Z</time></trkpt><trkpt lat="39.36407283808728" lon="9.157042046988053"><ele>148.0</ele><time>2026-04-25T12:46:58Z</time></trkpt><trkpt lat="39.36391523053988" lon="9.157120988718315"><ele>148.0</ele><time>2026-04-25T12:46:59Z</time></trkpt><trkpt lat="39.36375597604636" lon="9.157197403793594"><ele>150.33333333333334</ele><time>2026-04-25T12:47:00Z</time></trkpt><trkpt lat="39.363595185544696" lon="9.15727427888895"><ele>152.66666666666666</ele><time>2026-04-25T12:47:01Z</time></trkpt><trkpt lat="39.36343622670256" lon="9.157356481093975"><ele>155.0</ele><time>2026-04-25T12:47:02Z</time></trkpt><trkpt lat="39.363279339233515" lon="9.157448226261726"><ele>155.0</ele><time>2026-04-25T12:47:03Z</time></trkpt><trkpt lat="39.36312582090606" lon="9.157547277678107"><ele>155.0</ele><time>2026-04-25T12:47:04Z</time></trkpt><trkpt lat="39.36297182274878" lon="9.157653851790725"><ele>155.0</ele><time>2026-04-25T12:47:05Z</time></trkpt><trkpt lat="39.3628193766781" lon="9.157763643800251"><ele>155.66666666666666</ele><time>2026-04-25T12:47:06Z</time></trkpt><trkpt lat="39.362666741595625" lon="9.15787461206997"><ele>156.33333333333334</ele><time>2026-04-25T12:47:07Z</time></trkpt><trkpt lat="39.362511377590444" lon="9.15798442585394"><ele>157.0</ele><time>2026-04-25T12:47:08Z</time></trkpt><trkpt lat="39.362354479234355" lon="9.158095890894117"><ele>156.66666666666669</ele><time>2026-04-25T12:47:09Z</time></trkpt><trkpt lat="39.362196537674045" lon="9.158216037835567"><ele>156.33333333333334</ele><time>2026-04-25T12:47:10Z</time></trkpt><trkpt lat="39.36204276257483" lon="9.158348939012585"><ele>156.0</ele><time>2026-04-25T12:47:11Z</time></trkpt><trkpt lat="39.36188983240193" lon="9.158500809759008"><ele>156.0</ele><time>2026-04-25T12:47:12Z</time></trkpt><trkpt lat="39.36173583427422" lon="9.15865626049489"><ele>156.0</ele><time>2026-04-25T12:47:13Z</time></trkpt><trkpt lat="39.361579381152026" lon="9.1588193514811"><ele>156.0</ele><time>2026-04-25T12:47:14Z</time></trkpt><trkpt lat="39.36143201512113" lon="9.158975850420909"><ele>155.0</ele><time>2026-04-25T12:47:15Z</time></trkpt><trkpt lat="39.36128243590694" lon="9.159133679928397"><ele>154.0</ele><time>2026-04-25T12:47:16Z</time></trkpt><trkpt lat="39.36112782062568" lon="9.159293676932892"><ele>153.0</ele><time>2026-04-25T12:47:17Z</time></trkpt><trkpt lat="39.36097327853555" lon="9.159454795193765"><ele>153.0</ele><time>2026-04-25T12:47:18Z</time></trkpt><trkpt lat="39.36081929642474" lon="9.159618144992445"><ele>153.0</ele><time>2026-04-25T12:47:19Z</time></trkpt><trkpt lat="39.36066618904166" lon="9.159781213458814"><ele>153.0</ele><time>2026-04-25T12:47:20Z</time></trkpt><trkpt lat="39.36051108780038" lon="9.159943977471002"><ele>152.66666666666666</ele><time>2026-04-25T12:47:21Z</time></trkpt><trkpt lat="39.3603538556134" lon="9.160106392116"><ele>152.33333333333331</ele><time>2026-04-25T12:47:22Z</time></trkpt><trkpt lat="39.360195823592186" lon="9.160270448942804"><ele>152.0</ele><time>2026-04-25T12:47:23Z</time></trkpt><trkpt lat="39.360039028397566" lon="9.160435704487762"><ele>152.0</ele><time>2026-04-25T12:47:24Z</time></trkpt><trkpt lat="39.3598826447811" lon="9.160602622454455"><ele>152.0</ele><time>2026-04-25T12:47:25Z</time></trkpt><trkpt lat="39.35972445772529" lon="9.16077202365015"><ele>152.0</ele><time>2026-04-25T12:47:26Z</time></trkpt><trkpt lat="39.3595656079096" lon="9.160940026642423"><ele>152.0</ele><time>2026-04-25T12:47:27Z</time></trkpt><trkpt lat="39.35940458620953" lon="9.16110583599786"><ele>152.0</ele><time>2026-04-25T12:47:28Z</time></trkpt><trkpt lat="39.35924196487386" lon="9.161271328656417"><ele>152.0</ele><time>2026-04-25T12:47:29Z</time></trkpt><trkpt lat="39.359080192991485" lon="9.161438919435536"><ele>152.33333333333331</ele><time>2026-04-25T12:47:30Z</time></trkpt><trkpt lat="39.35891750905296" lon="9.161605776662075"><ele>152.66666666666666</ele><time>2026-04-25T12:47:31Z</time></trkpt><trkpt lat="39.358761212798335" lon="9.161772739573346"><ele>153.0</ele><time>2026-04-25T12:47:32Z</time></trkpt><trkpt lat="39.35860211222614" lon="9.161939727195985"><ele>153.0</ele><time>2026-04-25T12:47:33Z</time></trkpt><trkpt lat="39.358444995007254" lon="9.162105050533425"><ele>153.0</ele><time>2026-04-25T12:47:34Z</time></trkpt><trkpt lat="39.358286556401794" lon="9.162270754586352"><ele>153.0</ele><time>2026-04-25T12:47:35Z</time></trkpt><trkpt lat="39.35813162845048" lon="9.162439024093027"><ele>153.0</ele><time>2026-04-25T12:47:36Z</time></trkpt><trkpt lat="39.35797854392415" lon="9.16260650041339"><ele>153.0</ele><time>2026-04-25T12:47:37Z</time></trkpt><trkpt lat="39.357829842662106" lon="9.162769138499982"><ele>153.0</ele><time>2026-04-25T12:47:38Z</time></trkpt><trkpt lat="39.35768296951925" lon="9.162925852036961"><ele>153.0</ele><time>2026-04-25T12:47:39Z</time></trkpt><trkpt lat="39.35753063058512" lon="9.163079543787367"><ele>153.0</ele><time>2026-04-25T12:47:40Z</time></trkpt><trkpt lat="39.357363215042724" lon="9.163211859699569"><ele>153.0</ele><time>2026-04-25T12:47:41Z</time></trkpt><trkpt lat="39.35718890161995" lon="9.16333466879637"><ele>152.33333333333334</ele><time>2026-04-25T12:47:42Z</time></trkpt><trkpt lat="39.35700982858235" lon="9.16345305578493"><ele>151.66666666666669</ele><time>2026-04-25T12:47:43Z</time></trkpt><trkpt lat="39.35682132663903" lon="9.163549622093255"><ele>151.0</ele><time>2026-04-25T12:47:44Z</time></trkpt><trkpt lat="39.35662632850054" lon="9.163629077431361"><ele>151.0</ele><time>2026-04-25T12:47:45Z</time></trkpt><trkpt lat="39.35642312644657" lon="9.163685038143614"><ele>151.0</ele><time>2026-04-25T12:47:46Z</time></trkpt><trkpt lat="39.35621767251344" lon="9.16371661368086"><ele>151.0</ele><time>2026-04-25T12:47:47Z</time></trkpt><trkpt lat="39.35601574212652" lon="9.163734842716545"><ele>151.0</ele><time>2026-04-25T12:47:48Z</time></trkpt><trkpt lat="39.355817479471106" lon="9.16373911112367"><ele>151.0</ele><time>2026-04-25T12:47:49Z</time></trkpt><trkpt lat="39.35562485271351" lon="9.163730843919053"><ele>151.0</ele><time>2026-04-25T12:47:50Z</time></trkpt><trkpt lat="39.35543457592622" lon="9.163711017221885"><ele>151.33333333333334</ele><time>2026-04-25T12:47:51Z</time></trkpt><trkpt lat="39.35524555651737" lon="9.163689326081872"><ele>151.66666666666666</ele><time>2026-04-25T12:47:52Z</time></trkpt><trkpt lat="39.35505514531824" lon="9.163666796704675"><ele>152.0</ele><time>2026-04-25T12:47:53Z</time></trkpt><trkpt lat="39.35486559023226" lon="9.163662971242415"><ele>152.66666666666666</ele><time>2026-04-25T12:47:54Z</time></trkpt><trkpt lat="39.354671611154295" lon="9.163656967366256"><ele>153.33333333333334</ele><time>2026-04-25T12:47:55Z</time></trkpt><trkpt lat="39.35447454574474" lon="9.163642880154722"><ele>154.0</ele><time>2026-04-25T12:47:56Z</time></trkpt><trkpt lat="39.35427964043563" lon="9.163624726320617"><ele>154.0</ele><time>2026-04-25T12:47:57Z</time></trkpt><trkpt lat="39.35408394457238" lon="9.163612580567596"><ele>154.0</ele><time>2026-04-25T12:47:58Z</time></trkpt><trkpt lat="39.35388855801542" lon="9.163604149550462"><ele>154.0</ele><time>2026-04-25T12:47:59Z</time></trkpt><trkpt lat="39.35369299657042" lon="9.163584735352098"><ele>154.66666666666669</ele><time>2026-04-25T12:48:00Z</time></trkpt><trkpt lat="39.35349778835266" lon="9.163542597760449"><ele>155.33333333333334</ele><time>2026-04-25T12:48:01Z</time></trkpt><trkpt lat="39.35330552766797" lon="9.16348410057789"><ele>156.0</ele><time>2026-04-25T12:48:02Z</time></trkpt><trkpt lat="39.353108127967175" lon="9.163421095480462"><ele>155.33333333333334</ele><time>2026-04-25T12:48:03Z</time></trkpt><trkpt lat="39.35291252547449" lon="9.163356727832667"><ele>154.66666666666669</ele><time>2026-04-25T12:48:04Z</time></trkpt><trkpt lat="39.352716522171804" lon="9.163276767930494"><ele>154.0</ele><time>2026-04-25T12:48:05Z</time></trkpt><trkpt lat="39.3525235472236" lon="9.163187196214242"><ele>153.0</ele><time>2026-04-25T12:48:06Z</time></trkpt><trkpt lat="39.35233028632307" lon="9.163093930113739"><ele>152.0</ele><time>2026-04-25T12:48:07Z</time></trkpt><trkpt lat="39.352136804809184" lon="9.163003210224327"><ele>151.0</ele><time>2026-04-25T12:48:08Z</time></trkpt><trkpt lat="39.35194245731834" lon="9.162911124378477"><ele>153.0</ele><time>2026-04-25T12:48:09Z</time></trkpt><trkpt lat="39.35174637406287" lon="9.162821254928419"><ele>155.0</ele><time>2026-04-25T12:48:10Z</time></trkpt><trkpt lat="39.35155343793425" lon="9.162736123465642"><ele>157.0</ele><time>2026-04-25T12:48:11Z</time></trkpt><trkpt lat="39.35136055362418" lon="9.162649761871975"><ele>159.66666666666669</ele><time>2026-04-25T12:48:12Z</time></trkpt><trkpt lat="39.35116759127227" lon="9.16256144316614"><ele>162.33333333333334</ele><time>2026-04-25T12:48:13Z</time></trkpt><trkpt lat="39.35097643076607" lon="9.162471649286621"><ele>165.0</ele><time>2026-04-25T12:48:14Z</time></trkpt><trkpt lat="39.350783051350334" lon="9.16238038237802"><ele>165.0</ele><time>2026-04-25T12:48:15Z</time></trkpt><trkpt lat="39.350588084717586" lon="9.162289123637084"><ele>165.0</ele><time>2026-04-25T12:48:16Z</time></trkpt><trkpt lat="39.350393178741754" lon="9.16220218896849"><ele>165.0</ele><time>2026-04-25T12:48:17Z</time></trkpt><trkpt lat="39.35019954357447" lon="9.162110939263462"><ele>167.33333333333334</ele><time>2026-04-25T12:48:18Z</time></trkpt><trkpt lat="39.350006706045995" lon="9.16202179254312"><ele>169.66666666666669</ele><time>2026-04-25T12:48:19Z</time></trkpt><trkpt lat="39.34981153066654" lon="9.161930488243597"><ele>172.0</ele><time>2026-04-25T12:48:20Z</time></trkpt><trkpt lat="39.349614938022754" lon="9.161840940083946"><ele>172.0</ele><time>2026-04-25T12:48:21Z</time></trkpt><trkpt lat="39.34941770016196" lon="9.161752721221394"><ele>172.0</ele><time>2026-04-25T12:48:22Z</time></trkpt><trkpt lat="39.34922227778627" lon="9.161665973829848"><ele>172.0</ele><time>2026-04-25T12:48:23Z</time></trkpt><trkpt lat="39.349030362681546" lon="9.161558954057307"><ele>170.66666666666669</ele><time>2026-04-25T12:48:24Z</time></trkpt><trkpt lat="39.34882655611698" lon="9.161486939094914"><ele>169.33333333333334</ele><time>2026-04-25T12:48:25Z</time></trkpt><trkpt lat="39.34863006991548" lon="9.161392259038251"><ele>168.0</ele><time>2026-04-25T12:48:26Z</time></trkpt><trkpt lat="39.34842976513029" lon="9.161296022821348"><ele>168.0</ele><time>2026-04-25T12:48:27Z</time></trkpt><trkpt lat="39.34822965554004" lon="9.161201762613356"><ele>168.0</ele><time>2026-04-25T12:48:28Z</time></trkpt><trkpt lat="39.3480286263258" lon="9.161107850747005"><ele>168.0</ele><time>2026-04-25T12:48:29Z</time></trkpt><trkpt lat="39.34782145145161" lon="9.161013719331944"><ele>165.66666666666666</ele><time>2026-04-25T12:48:30Z</time></trkpt><trkpt lat="39.34762110479666" lon="9.160921057686767"><ele>163.33333333333331</ele><time>2026-04-25T12:48:31Z</time></trkpt><trkpt lat="39.34742209289404" lon="9.160829808772997"><ele>161.0</ele><time>2026-04-25T12:48:32Z</time></trkpt><trkpt lat="39.347222179707224" lon="9.16073501659227"><ele>159.0</ele><time>2026-04-25T12:48:33Z</time></trkpt><trkpt lat="39.34702606460383" lon="9.160639177030454"><ele>157.0</ele><time>2026-04-25T12:48:34Z</time></trkpt><trkpt lat="39.346828825668716" lon="9.160542486177425"><ele>155.0</ele><time>2026-04-25T12:48:35Z</time></trkpt><trkpt lat="39.346634466506565" lon="9.16044239658309"><ele>155.0</ele><time>2026-04-25T12:48:36Z</time></trkpt><trkpt lat="39.34643893912824" lon="9.160338643407858"><ele>155.0</ele><time>2026-04-25T12:48:37Z</time></trkpt><trkpt lat="39.34624925805195" lon="9.16022945501727"><ele>155.0</ele><time>2026-04-25T12:48:38Z</time></trkpt><trkpt lat="39.346057833895124" lon="9.160114102479831"><ele>154.0</ele><time>2026-04-25T12:48:39Z</time></trkpt><trkpt lat="39.345869138831965" lon="9.15999632965749"><ele>153.0</ele><time>2026-04-25T12:48:40Z</time></trkpt><trkpt lat="39.345691268472464" lon="9.159883174277894"><ele>152.0</ele><time>2026-04-25T12:48:41Z</time></trkpt><trkpt lat="39.345509673326546" lon="9.159766960098784"><ele>151.0</ele><time>2026-04-25T12:48:42Z</time></trkpt><trkpt lat="39.345325991895926" lon="9.159651688004313"><ele>150.0</ele><time>2026-04-25T12:48:43Z</time></trkpt><trkpt lat="39.34514468370684" lon="9.159541394904675"><ele>149.0</ele><time>2026-04-25T12:48:44Z</time></trkpt><trkpt lat="39.34496249582622" lon="9.159432930170915"><ele>149.0</ele><time>2026-04-25T12:48:45Z</time></trkpt><trkpt lat="39.34477356125361" lon="9.159318242624314"><ele>149.0</ele><time>2026-04-25T12:48:46Z</time></trkpt><trkpt lat="39.34459168232841" lon="9.159204101457087"><ele>149.0</ele><time>2026-04-25T12:48:47Z</time></trkpt><trkpt lat="39.34441184713756" lon="9.159089622201595"><ele>147.33333333333331</ele><time>2026-04-25T12:48:48Z</time></trkpt><trkpt lat="39.34423126524983" lon="9.158973614292162"><ele>145.66666666666666</ele><time>2026-04-25T12:48:49Z</time></trkpt><trkpt lat="39.344050661888545" lon="9.158856352584227"><ele>144.0</ele><time>2026-04-25T12:48:50Z</time></trkpt><trkpt lat="39.34386777302539" lon="9.158741152319958"><ele>143.66666666666666</ele><time>2026-04-25T12:48:51Z</time></trkpt><trkpt lat="39.34368392415505" lon="9.158627526646894"><ele>143.33333333333331</ele><time>2026-04-25T12:48:52Z</time></trkpt><trkpt lat="39.34349947559141" lon="9.158516097539852"><ele>143.0</ele><time>2026-04-25T12:48:53Z</time></trkpt><trkpt lat="39.34331508770146" lon="9.158404531892955"><ele>143.0</ele><time>2026-04-25T12:48:54Z</time></trkpt><trkpt lat="39.34313204288205" lon="9.158295390026927"><ele>143.0</ele><time>2026-04-25T12:48:55Z</time></trkpt><trkpt lat="39.34294735107497" lon="9.158185267686223"><ele>143.0</ele><time>2026-04-25T12:48:56Z</time></trkpt><trkpt lat="39.34276308986502" lon="9.158072443943004"><ele>143.0</ele><time>2026-04-25T12:48:57Z</time></trkpt><trkpt lat="39.34257850704423" lon="9.1579608832523"><ele>143.0</ele><time>2026-04-25T12:48:58Z</time></trkpt><trkpt lat="39.34239453717657" lon="9.157849414639486"><ele>143.0</ele><time>2026-04-25T12:48:59Z</time></trkpt><trkpt lat="39.34220665896253" lon="9.157735181624288"><ele>143.33333333333331</ele><time>2026-04-25T12:49:00Z</time></trkpt><trkpt lat="39.342020213850795" lon="9.157620712916614"><ele>143.66666666666666</ele><time>2026-04-25T12:49:01Z</time></trkpt><trkpt lat="39.34183195744946" lon="9.157504485860509"><ele>144.0</ele><time>2026-04-25T12:49:02Z</time></trkpt><trkpt lat="39.34164029415383" lon="9.157387580843322"><ele>143.33333333333334</ele><time>2026-04-25T12:49:03Z</time></trkpt><trkpt lat="39.341447555228186" lon="9.15727010280633"><ele>142.66666666666669</ele><time>2026-04-25T12:49:04Z</time></trkpt><trkpt lat="39.341251921013864" lon="9.157149441687237"><ele>142.0</ele><time>2026-04-25T12:49:05Z</time></trkpt><trkpt lat="39.34105790350086" lon="9.157028707773812"><ele>142.0</ele><time>2026-04-25T12:49:06Z</time></trkpt><trkpt lat="39.34086279652263" lon="9.156907242011707"><ele>142.0</ele><time>2026-04-25T12:49:07Z</time></trkpt><trkpt lat="39.34067240226216" lon="9.156787526148667"><ele>142.0</ele><time>2026-04-25T12:49:08Z</time></trkpt><trkpt lat="39.34048188286339" lon="9.156669137452626"><ele>142.33333333333334</ele><time>2026-04-25T12:49:09Z</time></trkpt><trkpt lat="39.34029911421687" lon="9.156556381133925"><ele>142.66666666666666</ele><time>2026-04-25T12:49:10Z</time></trkpt><trkpt lat="39.340122884679644" lon="9.15644615133658"><ele>143.0</ele><time>2026-04-25T12:49:11Z</time></trkpt><trkpt lat="39.3399524598693" lon="9.15633829688148"><ele>142.33333333333331</ele><time>2026-04-25T12:49:12Z</time></trkpt><trkpt lat="39.339776896557765" lon="9.156229158194842"><ele>141.66666666666666</ele><time>2026-04-25T12:49:13Z</time></trkpt><trkpt lat="39.33960694586276" lon="9.156125621043035"><ele>141.0</ele><time>2026-04-25T12:49:14Z</time></trkpt><trkpt lat="39.33939632758006" lon="9.155994101862536"><ele>140.66666666666666</ele><time>2026-04-25T12:49:15Z</time></trkpt><trkpt lat="39.33921699034633" lon="9.155878809015562"><ele>140.33333333333331</ele><time>2026-04-25T12:49:16Z</time></trkpt><trkpt lat="39.33903927633083" lon="9.155765775756134"><ele>140.0</ele><time>2026-04-25T12:49:17Z</time></trkpt><trkpt lat="39.33886034513556" lon="9.155654631976063"><ele>139.66666666666666</ele><time>2026-04-25T12:49:18Z</time></trkpt><trkpt lat="39.33868027524079" lon="9.155543288172243"><ele>139.33333333333334</ele><time>2026-04-25T12:49:19Z</time></trkpt><trkpt lat="39.33849906486372" lon="9.155430936222968"><ele>139.0</ele><time>2026-04-25T12:49:20Z</time></trkpt><trkpt lat="39.338315363619095" lon="9.155316037290197"><ele>139.0</ele><time>2026-04-25T12:49:21Z</time></trkpt><trkpt lat="39.338132612944264" lon="9.155202011282086"><ele>139.0</ele><time>2026-04-25T12:49:22Z</time></trkpt><trkpt lat="39.337948308428686" lon="9.155089154018357"><ele>139.0</ele><time>2026-04-25T12:49:23Z</time></trkpt><trkpt lat="39.337761646336645" lon="9.154979859252242"><ele>139.33333333333334</ele><time>2026-04-25T12:49:24Z</time></trkpt><trkpt lat="39.33757616975565" lon="9.15488139753843"><ele>139.66666666666666</ele><time>2026-04-25T12:49:25Z</time></trkpt><trkpt lat="39.337384711037686" lon="9.154796298286623"><ele>140.0</ele><time>2026-04-25T12:49:26Z</time></trkpt><trkpt lat="39.337190044419174" lon="9.154729794011772"><ele>139.0</ele><time>2026-04-25T12:49:27Z</time></trkpt><trkpt lat="39.336993423558816" lon="9.154672317347156"><ele>138.0</ele><time>2026-04-25T12:49:28Z</time></trkpt><trkpt lat="39.33679904388913" lon="9.154618635159537"><ele>137.0</ele><time>2026-04-25T12:49:29Z</time></trkpt><trkpt lat="39.336604674073776" lon="9.154565140403564"><ele>137.0</ele><time>2026-04-25T12:49:30Z</time></trkpt><trkpt lat="39.33641183638677" lon="9.154508269448554"><ele>137.0</ele><time>2026-04-25T12:49:31Z</time></trkpt><trkpt lat="39.33622140738697" lon="9.154448081355996"><ele>137.0</ele><time>2026-04-25T12:49:32Z</time></trkpt><trkpt lat="39.336031875826734" lon="9.15438691366981"><ele>139.0</ele><time>2026-04-25T12:49:33Z</time></trkpt><trkpt lat="39.33584473258062" lon="9.154329861084863"><ele>141.0</ele><time>2026-04-25T12:49:34Z</time></trkpt><trkpt lat="39.335659967888304" lon="9.154275613884076"><ele>143.0</ele><time>2026-04-25T12:49:35Z</time></trkpt><trkpt lat="39.33547428137317" lon="9.15421989254956"><ele>146.33333333333331</ele><time>2026-04-25T12:49:36Z</time></trkpt><trkpt lat="39.3352913777569" lon="9.154165321475489"><ele>149.66666666666666</ele><time>2026-04-25T12:49:37Z</time></trkpt><trkpt lat="39.33511187583216" lon="9.154110372413818"><ele>153.0</ele><time>2026-04-25T12:49:38Z</time></trkpt><trkpt lat="39.33493380885502" lon="9.154054783534054"><ele>152.66666666666666</ele><time>2026-04-25T12:49:39Z</time></trkpt><trkpt lat="39.33475259116772" lon="9.153997498101987"><ele>152.33333333333331</ele><time>2026-04-25T12:49:40Z</time></trkpt><trkpt lat="39.334572431554825" lon="9.153943439555084"><ele>152.0</ele><time>2026-04-25T12:49:41Z</time></trkpt><trkpt lat="39.334394703108266" lon="9.153888484944499"><ele>153.0</ele><time>2026-04-25T12:49:42Z</time></trkpt><trkpt lat="39.33421550505711" lon="9.153833059380418"><ele>154.0</ele><time>2026-04-25T12:49:43Z</time></trkpt><trkpt lat="39.33403681065432" lon="9.153773287709745"><ele>155.0</ele><time>2026-04-25T12:49:44Z</time></trkpt><trkpt lat="39.33385955507551" lon="9.153702899207106"><ele>155.0</ele><time>2026-04-25T12:49:45Z</time></trkpt><trkpt lat="39.333687581198824" lon="9.153612172985648"><ele>155.0</ele><time>2026-04-25T12:49:46Z</time></trkpt><trkpt lat="39.33352282211306" lon="9.153505823731418"><ele>155.0</ele><time>2026-04-25T12:49:47Z</time></trkpt><trkpt lat="39.33335713936355" lon="9.153393422359292"><ele>155.0</ele><time>2026-04-25T12:49:48Z</time></trkpt><trkpt lat="39.3331938729043" lon="9.15327479641005"><ele>155.0</ele><time>2026-04-25T12:49:49Z</time></trkpt><trkpt lat="39.33302864708418" lon="9.153150893536976"><ele>155.0</ele><time>2026-04-25T12:49:50Z</time></trkpt><trkpt lat="39.33286042091656" lon="9.153030829272945"><ele>154.66666666666666</ele><time>2026-04-25T12:49:51Z</time></trkpt><trkpt lat="39.33269268256946" lon="9.152904675540409"><ele>154.33333333333334</ele><time>2026-04-25T12:49:52Z</time></trkpt><trkpt lat="39.33252546520103" lon="9.152770026468552"><ele>154.0</ele><time>2026-04-25T12:49:53Z</time></trkpt><trkpt lat="39.33235890234833" lon="9.152633073072636"><ele>153.66666666666669</ele><time>2026-04-25T12:49:54Z</time></trkpt><trkpt lat="39.33218932798166" lon="9.152506381249896"><ele>153.33333333333334</ele><time>2026-04-25T12:49:55Z</time></trkpt><trkpt lat="39.332018533120504" lon="9.152390856334788"><ele>153.0</ele><time>2026-04-25T12:49:56Z</time></trkpt><trkpt lat="39.33185234170352" lon="9.152279117797232"><ele>152.33333333333334</ele><time>2026-04-25T12:49:57Z</time></trkpt><trkpt lat="39.331697755404605" lon="9.152173714495424"><ele>151.66666666666669</ele><time>2026-04-25T12:49:58Z</time></trkpt><trkpt lat="39.33155998499082" lon="9.152076550335025"><ele>151.0</ele><time>2026-04-25T12:49:59Z</time></trkpt><trkpt lat="39.3314390286692" lon="9.151992272983746"><ele>151.4</ele><time>2026-04-25T12:50:00Z</time></trkpt><trkpt lat="39.33134214560669" lon="9.15192214096672"><ele>151.8</ele><time>2026-04-25T12:50:01Z</time></trkpt><trkpt lat="39.33127749375523" lon="9.151875955300115"><ele>152.20000000000002</ele><time>2026-04-25T12:50:02Z</time></trkpt><trkpt lat="39.33121325527462" lon="9.151831260503267"><ele>152.6</ele><time>2026-04-25T12:50:05Z</time></trkpt><trkpt lat="39.33114258932513" lon="9.151795252303717"><ele>153.0</ele><time>2026-04-25T12:50:07Z</time></trkpt><trkpt lat="39.331013075713955" lon="9.151816061636557"><ele>153.0</ele><time>2026-04-25T12:50:09Z</time></trkpt><trkpt lat="39.33094268187066" lon="9.1518676807859"><ele>153.0</ele><time>2026-04-25T12:50:10Z</time></trkpt><trkpt lat="39.33093402457639" lon="9.152000210341951"><ele>153.0</ele><time>2026-04-25T12:50:11Z</time></trkpt><trkpt lat="39.33087856143763" lon="9.152105783874463"><ele>153.0</ele><time>2026-04-25T12:50:12Z</time></trkpt><trkpt lat="39.3308511194732" lon="9.152262830764558"><ele>153.0</ele><time>2026-04-25T12:50:13Z</time></trkpt><trkpt lat="39.33078227316623" lon="9.152407530402227"><ele>153.0</ele><time>2026-04-25T12:50:14Z</time></trkpt><trkpt lat="39.330700005920896" lon="9.152562456539274"><ele>153.0</ele><time>2026-04-25T12:50:15Z</time></trkpt><trkpt lat="39.33062938000456" lon="9.152731543097469"><ele>153.0</ele><time>2026-04-25T12:50:16Z</time></trkpt><trkpt lat="39.330556287037005" lon="9.152907211333213"><ele>153.0</ele><time>2026-04-25T12:50:17Z</time></trkpt><trkpt lat="39.33047706922171" lon="9.153087747485067"><ele>153.0</ele><time>2026-04-25T12:50:18Z</time></trkpt><trkpt lat="39.33039543836035" lon="9.153276106934408"><ele>153.0</ele><time>2026-04-25T12:50:19Z</time></trkpt><trkpt lat="39.33030999107767" lon="9.153471606633756"><ele>153.0</ele><time>2026-04-25T12:50:20Z</time></trkpt><trkpt lat="39.33013217228377" lon="9.153876736499587"><ele>153.0</ele><time>2026-04-25T12:50:22Z</time></trkpt><trkpt lat="39.33004141516773" lon="9.154080725797762"><ele>153.0</ele><time>2026-04-25T12:50:23Z</time></trkpt><trkpt lat="39.32995036017065" lon="9.154285390216671"><ele>153.0</ele><time>2026-04-25T12:50:24Z</time></trkpt><trkpt lat="39.329855428305386" lon="9.154501678667824"><ele>153.0</ele><time>2026-04-25T12:50:25Z</time></trkpt><trkpt lat="39.32976051719947" lon="9.154714716079681"><ele>153.0</ele><time>2026-04-25T12:50:26Z</time></trkpt><trkpt lat="39.32966526431411" lon="9.154932933039369"><ele>153.0</ele><time>2026-04-25T12:50:27Z</time></trkpt><trkpt lat="39.32957131880552" lon="9.155153284265364"><ele>153.33333333333334</ele><time>2026-04-25T12:50:28Z</time></trkpt><trkpt lat="39.32947853451084" lon="9.155369495401684"><ele>153.66666666666669</ele><time>2026-04-25T12:50:29Z</time></trkpt><trkpt lat="39.329387544320305" lon="9.155576714130579"><ele>154.0</ele><time>2026-04-25T12:50:30Z</time></trkpt><trkpt lat="39.32930559180886" lon="9.15577090123639"><ele>154.25</ele><time>2026-04-25T12:50:31Z</time></trkpt><trkpt lat="39.329231331978136" lon="9.155955738449196"><ele>154.5</ele><time>2026-04-25T12:50:32Z</time></trkpt><trkpt lat="39.3291613037679" lon="9.156123155207514"><ele>154.75</ele><time>2026-04-25T12:50:33Z</time></trkpt><trkpt lat="39.32908618204572" lon="9.156258059223463"><ele>155.0</ele><time>2026-04-25T12:50:34Z</time></trkpt><trkpt lat="39.328991105503384" lon="9.156352934696361"><ele>153.25</ele><time>2026-04-25T12:50:35Z</time></trkpt><trkpt lat="39.328880177005715" lon="9.156383498375273"><ele>151.5</ele><time>2026-04-25T12:50:36Z</time></trkpt><trkpt lat="39.32875663131725" lon="9.156362010585601"><ele>149.75</ele><time>2026-04-25T12:50:37Z</time></trkpt><trkpt lat="39.32863517372319" lon="9.156278655522266"><ele>148.0</ele><time>2026-04-25T12:50:38Z</time></trkpt><trkpt lat="39.32854034847816" lon="9.156131839889436"><ele>148.0</ele><time>2026-04-25T12:50:39Z</time></trkpt><trkpt lat="39.328433257640505" lon="9.15598178716614"><ele>148.0</ele><time>2026-04-25T12:50:40Z</time></trkpt><trkpt lat="39.328349164433725" lon="9.155814645239731"><ele>148.0</ele><time>2026-04-25T12:50:41Z</time></trkpt><trkpt lat="39.32828008012168" lon="9.155643556258179"><ele>148.5</ele><time>2026-04-25T12:50:42Z</time></trkpt><trkpt lat="39.32821582751798" lon="9.15547965815032"><ele>149.0</ele><time>2026-04-25T12:50:43Z</time></trkpt><trkpt lat="39.32814794846828" lon="9.155325867488479"><ele>149.5</ele><time>2026-04-25T12:50:44Z</time></trkpt><trkpt lat="39.32805038780006" lon="9.15520641320894"><ele>150.0</ele><time>2026-04-25T12:50:45Z</time></trkpt><trkpt lat="39.32792192065859" lon="9.15514668797818"><ele>148.5</ele><time>2026-04-25T12:50:46Z</time></trkpt><trkpt lat="39.32778059589157" lon="9.15513949335406"><ele>147.0</ele><time>2026-04-25T12:50:47Z</time></trkpt><trkpt lat="39.32762979776904" lon="9.155176057934394"><ele>145.5</ele><time>2026-04-25T12:50:48Z</time></trkpt><trkpt lat="39.32748188069655" lon="9.155191035734395"><ele>144.0</ele><time>2026-04-25T12:50:49Z</time></trkpt><trkpt lat="39.32732105523779" lon="9.155201178338187"><ele>143.33333333333334</ele><time>2026-04-25T12:50:50Z</time></trkpt><trkpt lat="39.327153733062474" lon="9.155214992568236"><ele>142.66666666666669</ele><time>2026-04-25T12:50:51Z</time></trkpt><trkpt lat="39.32698374290324" lon="9.155228564974111"><ele>142.0</ele><time>2026-04-25T12:50:52Z</time></trkpt><trkpt lat="39.326832565777345" lon="9.15523818996536"><ele>142.0</ele><time>2026-04-25T12:50:53Z</time></trkpt><trkpt lat="39.32665797461392" lon="9.155259511118727"><ele>142.0</ele><time>2026-04-25T12:50:54Z</time></trkpt><trkpt lat="39.326480434417185" lon="9.155272827555166"><ele>142.0</ele><time>2026-04-25T12:50:55Z</time></trkpt><trkpt lat="39.32630186081279" lon="9.155281095585238"><ele>140.0</ele><time>2026-04-25T12:50:56Z</time></trkpt><trkpt lat="39.32612067643395" lon="9.155296948373913"><ele>138.0</ele><time>2026-04-25T12:50:57Z</time></trkpt><trkpt lat="39.3259422136891" lon="9.155310826578475"><ele>136.0</ele><time>2026-04-25T12:50:58Z</time></trkpt><trkpt lat="39.325764551627955" lon="9.155319694117553"><ele>136.0</ele><time>2026-04-25T12:50:59Z</time></trkpt><trkpt lat="39.32559148748693" lon="9.15529196915563"><ele>136.0</ele><time>2026-04-25T12:51:00Z</time></trkpt><trkpt lat="39.32541832171723" lon="9.155266484440777"><ele>136.0</ele><time>2026-04-25T12:51:01Z</time></trkpt><trkpt lat="39.325241390996034" lon="9.155260422177497"><ele>133.33333333333334</ele><time>2026-04-25T12:51:02Z</time></trkpt><trkpt lat="39.32506873297785" lon="9.155223819609324"><ele>130.66666666666666</ele><time>2026-04-25T12:51:03Z</time></trkpt><trkpt lat="39.32489627288322" lon="9.155198006167712"><ele>128.0</ele><time>2026-04-25T12:51:04Z</time></trkpt><trkpt lat="39.324727246628335" lon="9.155182438890996"><ele>125.33333333333333</ele><time>2026-04-25T12:51:05Z</time></trkpt><trkpt lat="39.32455689918501" lon="9.155174765985675"><ele>122.66666666666666</ele><time>2026-04-25T12:51:06Z</time></trkpt><trkpt lat="39.32438217925843" lon="9.155174524749151"><ele>120.0</ele><time>2026-04-25T12:51:07Z</time></trkpt><trkpt lat="39.32420527357389" lon="9.155182728185643"><ele>120.0</ele><time>2026-04-25T12:51:08Z</time></trkpt><trkpt lat="39.32402636360837" lon="9.155195996409873"><ele>120.0</ele><time>2026-04-25T12:51:09Z</time></trkpt><trkpt lat="39.32384430912967" lon="9.15520788874207"><ele>120.0</ele><time>2026-04-25T12:51:10Z</time></trkpt><trkpt lat="39.32365975648395" lon="9.155220978918559"><ele>118.0</ele><time>2026-04-25T12:51:11Z</time></trkpt><trkpt lat="39.323471840168885" lon="9.15523408127754"><ele>116.0</ele><time>2026-04-25T12:51:12Z</time></trkpt><trkpt lat="39.32328024494383" lon="9.155245933747134"><ele>114.0</ele><time>2026-04-25T12:51:13Z</time></trkpt><trkpt lat="39.323087166920956" lon="9.155259629408961"><ele>112.66666666666666</ele><time>2026-04-25T12:51:14Z</time></trkpt><trkpt lat="39.32289323587482" lon="9.155278460378208"><ele>111.33333333333333</ele><time>2026-04-25T12:51:15Z</time></trkpt><trkpt lat="39.32270075944318" lon="9.15529585173613"><ele>110.0</ele><time>2026-04-25T12:51:16Z</time></trkpt><trkpt lat="39.32251006240034" lon="9.155312872152967"><ele>110.0</ele><time>2026-04-25T12:51:17Z</time></trkpt><trkpt lat="39.32231970601894" lon="9.155327553064328"><ele>110.0</ele><time>2026-04-25T12:51:18Z</time></trkpt><trkpt lat="39.32212834724585" lon="9.155335341470266"><ele>110.0</ele><time>2026-04-25T12:51:19Z</time></trkpt><trkpt lat="39.32193818255309" lon="9.15534788781309"><ele>108.0</ele><time>2026-04-25T12:51:20Z</time></trkpt><trkpt lat="39.321748546683764" lon="9.15536369340173"><ele>106.0</ele><time>2026-04-25T12:51:21Z</time></trkpt><trkpt lat="39.321559293160796" lon="9.155380851747697"><ele>104.0</ele><time>2026-04-25T12:51:22Z</time></trkpt><trkpt lat="39.32136898289378" lon="9.155394028501542"><ele>103.33333333333333</ele><time>2026-04-25T12:51:23Z</time></trkpt><trkpt lat="39.321181436235435" lon="9.155408329864228"><ele>102.66666666666666</ele><time>2026-04-25T12:51:24Z</time></trkpt><trkpt lat="39.320993051313245" lon="9.155423818382756"><ele>102.0</ele><time>2026-04-25T12:51:25Z</time></trkpt><trkpt lat="39.32080175649744" lon="9.155438453599862"><ele>102.0</ele><time>2026-04-25T12:51:26Z</time></trkpt><trkpt lat="39.32061379741874" lon="9.155449302167138"><ele>102.0</ele><time>2026-04-25T12:51:27Z</time></trkpt><trkpt lat="39.32042501219611" lon="9.155459616900208"><ele>102.0</ele><time>2026-04-25T12:51:28Z</time></trkpt><trkpt lat="39.3202377849526" lon="9.155469753160205"><ele>101.33333333333334</ele><time>2026-04-25T12:51:29Z</time></trkpt><trkpt lat="39.32005067343499" lon="9.15548004407676"><ele>100.66666666666667</ele><time>2026-04-25T12:51:30Z</time></trkpt><trkpt lat="39.31986258009097" lon="9.155492472288536"><ele>100.0</ele><time>2026-04-25T12:51:31Z</time></trkpt><trkpt lat="39.31967578432601" lon="9.155504601267294"><ele>99.33333333333334</ele><time>2026-04-25T12:51:32Z</time></trkpt><trkpt lat="39.31949019728403" lon="9.155516189782544"><ele>98.66666666666666</ele><time>2026-04-25T12:51:33Z</time></trkpt><trkpt lat="39.31930032004603" lon="9.155519973532712"><ele>98.0</ele><time>2026-04-25T12:51:34Z</time></trkpt><trkpt lat="39.31911063601481" lon="9.15551304561547"><ele>98.0</ele><time>2026-04-25T12:51:35Z</time></trkpt><trkpt lat="39.31892438310465" lon="9.155497699147492"><ele>98.0</ele><time>2026-04-25T12:51:36Z</time></trkpt><trkpt lat="39.31873814633294" lon="9.155480303178102"><ele>98.0</ele><time>2026-04-25T12:51:37Z</time></trkpt><trkpt lat="39.318550239397815" lon="9.155465242338224"><ele>96.33333333333333</ele><time>2026-04-25T12:51:38Z</time></trkpt><trkpt lat="39.31836546056025" lon="9.155449925952825"><ele>94.66666666666666</ele><time>2026-04-25T12:51:39Z</time></trkpt><trkpt lat="39.31818303970542" lon="9.155436677646966"><ele>93.0</ele><time>2026-04-25T12:51:40Z</time></trkpt><trkpt lat="39.31799919532283" lon="9.155425096314662"><ele>91.66666666666667</ele><time>2026-04-25T12:51:41Z</time></trkpt><trkpt lat="39.317820121233275" lon="9.155414980820154"><ele>90.33333333333334</ele><time>2026-04-25T12:51:42Z</time></trkpt><trkpt lat="39.31764167668901" lon="9.155409807510356"><ele>89.0</ele><time>2026-04-25T12:51:43Z</time></trkpt><trkpt lat="39.31746539243327" lon="9.15543107805444"><ele>89.0</ele><time>2026-04-25T12:51:44Z</time></trkpt><trkpt lat="39.31729888727306" lon="9.155502520994514"><ele>89.0</ele><time>2026-04-25T12:51:45Z</time></trkpt><trkpt lat="39.317140777108804" lon="9.155626203215448"><ele>89.0</ele><time>2026-04-25T12:51:46Z</time></trkpt><trkpt lat="39.31699877031233" lon="9.155777759626186"><ele>88.0</ele><time>2026-04-25T12:51:47Z</time></trkpt><trkpt lat="39.31685794502164" lon="9.155936419306345"><ele>87.0</ele><time>2026-04-25T12:51:48Z</time></trkpt><trkpt lat="39.316714570809744" lon="9.156087778007144"><ele>86.0</ele><time>2026-04-25T12:51:49Z</time></trkpt><trkpt lat="39.31656899860676" lon="9.156234161262692"><ele>86.0</ele><time>2026-04-25T12:51:50Z</time></trkpt><trkpt lat="39.316422423215805" lon="9.156381619083104"><ele>86.0</ele><time>2026-04-25T12:51:51Z</time></trkpt><trkpt lat="39.31627466888049" lon="9.15653100632513"><ele>86.0</ele><time>2026-04-25T12:51:52Z</time></trkpt><trkpt lat="39.31612780997119" lon="9.156682487448283"><ele>86.0</ele><time>2026-04-25T12:51:53Z</time></trkpt><trkpt lat="39.31598299973566" lon="9.156833141703494"><ele>86.0</ele><time>2026-04-25T12:51:54Z</time></trkpt><trkpt lat="39.31583489662412" lon="9.156983733399036"><ele>86.0</ele><time>2026-04-25T12:51:55Z</time></trkpt><trkpt lat="39.315684584830215" lon="9.157134306657829"><ele>85.66666666666667</ele><time>2026-04-25T12:51:56Z</time></trkpt><trkpt lat="39.31553452336001" lon="9.157279908098202"><ele>85.33333333333333</ele><time>2026-04-25T12:51:57Z</time></trkpt><trkpt lat="39.315384158689156" lon="9.157426152164273"><ele>85.0</ele><time>2026-04-25T12:51:58Z</time></trkpt><trkpt lat="39.31523460785533" lon="9.157570353806902"><ele>85.0</ele><time>2026-04-25T12:51:59Z</time></trkpt><trkpt lat="39.315083657800756" lon="9.157712471539996"><ele>85.0</ele><time>2026-04-25T12:52:00Z</time></trkpt><trkpt lat="39.314933037465075" lon="9.157852130089177"><ele>85.0</ele><time>2026-04-25T12:52:01Z</time></trkpt><trkpt lat="39.31478059847121" lon="9.157992851310338"><ele>84.33333333333333</ele><time>2026-04-25T12:52:02Z</time></trkpt><trkpt lat="39.314629523482274" lon="9.158132712666601"><ele>83.66666666666667</ele><time>2026-04-25T12:52:03Z</time></trkpt><trkpt lat="39.314481610454585" lon="9.158273604500401"><ele>83.0</ele><time>2026-04-25T12:52:04Z</time></trkpt><trkpt lat="39.31433821603971" lon="9.158422779825438"><ele>84.66666666666667</ele><time>2026-04-25T12:52:05Z</time></trkpt><trkpt lat="39.31420366022704" lon="9.158582103050115"><ele>86.33333333333333</ele><time>2026-04-25T12:52:06Z</time></trkpt><trkpt lat="39.31407274248011" lon="9.158747497610578"><ele>88.0</ele><time>2026-04-25T12:52:07Z</time></trkpt><trkpt lat="39.313942479531974" lon="9.158910101956483"><ele>88.33333333333333</ele><time>2026-04-25T12:52:08Z</time></trkpt><trkpt lat="39.313811165539065" lon="9.159074963094247"><ele>88.66666666666667</ele><time>2026-04-25T12:52:09Z</time></trkpt><trkpt lat="39.313679893840764" lon="9.159240474015029"><ele>89.0</ele><time>2026-04-25T12:52:10Z</time></trkpt><trkpt lat="39.31354617663363" lon="9.15940813037449"><ele>89.0</ele><time>2026-04-25T12:52:11Z</time></trkpt><trkpt lat="39.31341225128991" lon="9.159574266647054"><ele>89.0</ele><time>2026-04-25T12:52:12Z</time></trkpt><trkpt lat="39.3132771961354" lon="9.159743595427072"><ele>89.0</ele><time>2026-04-25T12:52:13Z</time></trkpt><trkpt lat="39.31315694534119" lon="9.159907874515433"><ele>90.66666666666667</ele><time>2026-04-25T12:52:14Z</time></trkpt><trkpt lat="39.31301481154102" lon="9.160079989173996"><ele>92.33333333333333</ele><time>2026-04-25T12:52:15Z</time></trkpt><trkpt lat="39.31287766766594" lon="9.160247561068482"><ele>94.0</ele><time>2026-04-25T12:52:16Z</time></trkpt><trkpt lat="39.312735894854505" lon="9.160410304068256"><ele>94.0</ele><time>2026-04-25T12:52:17Z</time></trkpt><trkpt lat="39.312588443047304" lon="9.160554456261732"><ele>94.0</ele><time>2026-04-25T12:52:18Z</time></trkpt><trkpt lat="39.312431774608" lon="9.160692705063822"><ele>94.0</ele><time>2026-04-25T12:52:19Z</time></trkpt><trkpt lat="39.31226336112118" lon="9.160793026909412"><ele>96.0</ele><time>2026-04-25T12:52:20Z</time></trkpt><trkpt lat="39.312087020819604" lon="9.160869259838513"><ele>98.0</ele><time>2026-04-25T12:52:21Z</time></trkpt><trkpt lat="39.31190655777626" lon="9.160931917519017"><ele>100.0</ele><time>2026-04-25T12:52:22Z</time></trkpt><trkpt lat="39.31172922971799" lon="9.160996095047325"><ele>100.0</ele><time>2026-04-25T12:52:23Z</time></trkpt><trkpt lat="39.31154995560336" lon="9.161058627568444"><ele>100.0</ele><time>2026-04-25T12:52:24Z</time></trkpt><trkpt lat="39.31136915449033" lon="9.161117780826059"><ele>100.0</ele><time>2026-04-25T12:52:25Z</time></trkpt><trkpt lat="39.31118744359463" lon="9.161179748974755"><ele>99.66666666666667</ele><time>2026-04-25T12:52:26Z</time></trkpt><trkpt lat="39.311004084423914" lon="9.161248816225179"><ele>99.33333333333334</ele><time>2026-04-25T12:52:27Z</time></trkpt><trkpt lat="39.310821012990516" lon="9.161331365759596"><ele>99.0</ele><time>2026-04-25T12:52:28Z</time></trkpt><trkpt lat="39.31064131816667" lon="9.1614252718282"><ele>97.66666666666667</ele><time>2026-04-25T12:52:29Z</time></trkpt><trkpt lat="39.31046526040465" lon="9.161528208892989"><ele>96.33333333333334</ele><time>2026-04-25T12:52:30Z</time></trkpt><trkpt lat="39.31028844841207" lon="9.16163306060495"><ele>95.0</ele><time>2026-04-25T12:52:31Z</time></trkpt><trkpt lat="39.31011235045891" lon="9.161741108287027"><ele>94.0</ele><time>2026-04-25T12:52:32Z</time></trkpt><trkpt lat="39.30993462967155" lon="9.161851586812206"><ele>93.0</ele><time>2026-04-25T12:52:33Z</time></trkpt><trkpt lat="39.30975583201336" lon="9.161962029164348"><ele>92.0</ele><time>2026-04-25T12:52:34Z</time></trkpt><trkpt lat="39.309575313072024" lon="9.162067081313392"><ele>90.66666666666667</ele><time>2026-04-25T12:52:35Z</time></trkpt><trkpt lat="39.309393846916656" lon="9.162168599700724"><ele>89.33333333333333</ele><time>2026-04-25T12:52:36Z</time></trkpt><trkpt lat="39.30921159681755" lon="9.162273032487056"><ele>88.0</ele><time>2026-04-25T12:52:37Z</time></trkpt><trkpt lat="39.30902907040025" lon="9.162385509386304"><ele>85.66666666666666</ele><time>2026-04-25T12:52:38Z</time></trkpt><trkpt lat="39.308852385185936" lon="9.162504139764302"><ele>83.33333333333333</ele><time>2026-04-25T12:52:39Z</time></trkpt><trkpt lat="39.308682108222506" lon="9.162633808454125"><ele>81.0</ele><time>2026-04-25T12:52:40Z</time></trkpt><trkpt lat="39.30851826937129" lon="9.162776807348624"><ele>81.0</ele><time>2026-04-25T12:52:41Z</time></trkpt><trkpt lat="39.30836220512385" lon="9.162930595481079"><ele>81.0</ele><time>2026-04-25T12:52:42Z</time></trkpt><trkpt lat="39.30820550533694" lon="9.163084204668559"><ele>81.0</ele><time>2026-04-25T12:52:43Z</time></trkpt><trkpt lat="39.30804521559982" lon="9.163231376716249"><ele>80.33333333333333</ele><time>2026-04-25T12:52:44Z</time></trkpt><trkpt lat="39.307885428412696" lon="9.163379592026395"><ele>79.66666666666666</ele><time>2026-04-25T12:52:45Z</time></trkpt><trkpt lat="39.30772812746511" lon="9.16352945956069"><ele>79.0</ele><time>2026-04-25T12:52:46Z</time></trkpt><trkpt lat="39.30756994052451" lon="9.163679832605721"><ele>79.0</ele><time>2026-04-25T12:52:47Z</time></trkpt><trkpt lat="39.30741192964748" lon="9.163830576537539"><ele>79.0</ele><time>2026-04-25T12:52:48Z</time></trkpt><trkpt lat="39.30725289469846" lon="9.163982728722953"><ele>79.0</ele><time>2026-04-25T12:52:49Z</time></trkpt><trkpt lat="39.30709348181625" lon="9.16413334212283"><ele>77.33333333333333</ele><time>2026-04-25T12:52:50Z</time></trkpt><trkpt lat="39.306933269432044" lon="9.164286395194852"><ele>75.66666666666667</ele><time>2026-04-25T12:52:51Z</time></trkpt><trkpt lat="39.3067751981756" lon="9.164441635654406"><ele>74.0</ele><time>2026-04-25T12:52:52Z</time></trkpt><trkpt lat="39.30661579308437" lon="9.164592959027575"><ele>74.0</ele><time>2026-04-25T12:52:53Z</time></trkpt><trkpt lat="39.30645501613922" lon="9.16473858385021"><ele>74.0</ele><time>2026-04-25T12:52:54Z</time></trkpt><trkpt lat="39.30629505754058" lon="9.164885447047999"><ele>74.0</ele><time>2026-04-25T12:52:55Z</time></trkpt><trkpt lat="39.30613500264316" lon="9.165028304081494"><ele>74.33333333333334</ele><time>2026-04-25T12:52:56Z</time></trkpt><trkpt lat="39.30597284575869" lon="9.165161819987294"><ele>74.66666666666667</ele><time>2026-04-25T12:52:57Z</time></trkpt><trkpt lat="39.305808354883986" lon="9.165285665412915"><ele>75.0</ele><time>2026-04-25T12:52:58Z</time></trkpt><trkpt lat="39.30564431952576" lon="9.165400258623649"><ele>75.66666666666667</ele><time>2026-04-25T12:52:59Z</time></trkpt><trkpt lat="39.30548101578818" lon="9.165499928992872"><ele>76.33333333333334</ele><time>2026-04-25T12:53:00Z</time></trkpt><trkpt lat="39.30531611417879" lon="9.165589268162709"><ele>77.0</ele><time>2026-04-25T12:53:01Z</time></trkpt><trkpt lat="39.305154307885275" lon="9.165678161500718"><ele>77.0</ele><time>2026-04-25T12:53:02Z</time></trkpt><trkpt lat="39.304987125128825" lon="9.165773923333058"><ele>77.0</ele><time>2026-04-25T12:53:03Z</time></trkpt><trkpt lat="39.304818586542396" lon="9.165870328176448"><ele>77.0</ele><time>2026-04-25T12:53:04Z</time></trkpt><trkpt lat="39.304652261078786" lon="9.165965868960269"><ele>77.0</ele><time>2026-04-25T12:53:05Z</time></trkpt><trkpt lat="39.30448032783568" lon="9.166067180082488"><ele>77.0</ele><time>2026-04-25T12:53:06Z</time></trkpt><trkpt lat="39.304311309992755" lon="9.166164553472774"><ele>77.0</ele><time>2026-04-25T12:53:07Z</time></trkpt><trkpt lat="39.304137777077806" lon="9.166262842164326"><ele>77.0</ele><time>2026-04-25T12:53:08Z</time></trkpt><trkpt lat="39.303962744166625" lon="9.166362499764464"><ele>77.0</ele><time>2026-04-25T12:53:09Z</time></trkpt><trkpt lat="39.30378856833447" lon="9.166465359639352"><ele>77.0</ele><time>2026-04-25T12:53:10Z</time></trkpt><trkpt lat="39.30361227944502" lon="9.166572468524008"><ele>76.66666666666667</ele><time>2026-04-25T12:53:11Z</time></trkpt><trkpt lat="39.30343525412605" lon="9.16668175814191"><ele>76.33333333333333</ele><time>2026-04-25T12:53:12Z</time></trkpt><trkpt lat="39.303259946943555" lon="9.166794026065805"><ele>76.0</ele><time>2026-04-25T12:53:13Z</time></trkpt><trkpt lat="39.30308032532421" lon="9.166907250329992"><ele>74.33333333333333</ele><time>2026-04-25T12:53:14Z</time></trkpt><trkpt lat="39.302903505318135" lon="9.167021788946164"><ele>72.66666666666667</ele><time>2026-04-25T12:53:15Z</time></trkpt><trkpt lat="39.302723992056585" lon="9.167137403736424"><ele>71.0</ele><time>2026-04-25T12:53:16Z</time></trkpt><trkpt lat="39.30254341818327" lon="9.16725330583804"><ele>71.33333333333334</ele><time>2026-04-25T12:53:17Z</time></trkpt><trkpt lat="39.302363444390274" lon="9.16736544121725"><ele>71.66666666666667</ele><time>2026-04-25T12:53:18Z</time></trkpt><trkpt lat="39.302182702154134" lon="9.16747949393725"><ele>72.0</ele><time>2026-04-25T12:53:19Z</time></trkpt><trkpt lat="39.30200119190222" lon="9.167594348982863"><ele>72.0</ele><time>2026-04-25T12:53:20Z</time></trkpt><trkpt lat="39.30182236264121" lon="9.167706727046914"><ele>72.0</ele><time>2026-04-25T12:53:21Z</time></trkpt><trkpt lat="39.301643092230364" lon="9.16782249694913"><ele>72.0</ele><time>2026-04-25T12:53:22Z</time></trkpt><trkpt lat="39.30146331910095" lon="9.167936028029825"><ele>71.0</ele><time>2026-04-25T12:53:23Z</time></trkpt><trkpt lat="39.30128063848521" lon="9.168045313894806"><ele>70.0</ele><time>2026-04-25T12:53:24Z</time></trkpt><trkpt lat="39.301098263112365" lon="9.168150250899483"><ele>69.0</ele><time>2026-04-25T12:53:25Z</time></trkpt><trkpt lat="39.30091532612553" lon="9.168258097971236"><ele>70.33333333333333</ele><time>2026-04-25T12:53:26Z</time></trkpt><trkpt lat="39.300735493998175" lon="9.168366339506136"><ele>71.66666666666666</ele><time>2026-04-25T12:53:27Z</time></trkpt><trkpt lat="39.30055315730144" lon="9.168482456905174"><ele>73.0</ele><time>2026-04-25T12:53:28Z</time></trkpt><trkpt lat="39.300372670216255" lon="9.168596922541065"><ele>73.0</ele><time>2026-04-25T12:53:29Z</time></trkpt><trkpt lat="39.300190677991786" lon="9.168708711346685"><ele>73.0</ele><time>2026-04-25T12:53:30Z</time></trkpt><trkpt lat="39.3000077341887" lon="9.168819931725816"><ele>73.0</ele><time>2026-04-25T12:53:31Z</time></trkpt><trkpt lat="39.29981974027049" lon="9.168930669994516"><ele>72.66666666666666</ele><time>2026-04-25T12:53:32Z</time></trkpt><trkpt lat="39.29963574230099" lon="9.169044998847493"><ele>72.33333333333333</ele><time>2026-04-25T12:53:33Z</time></trkpt><trkpt lat="39.29945103854744" lon="9.169161162286553"><ele>72.0</ele><time>2026-04-25T12:53:34Z</time></trkpt><trkpt lat="39.29926884374587" lon="9.169276601967374"><ele>72.0</ele><time>2026-04-25T12:53:35Z</time></trkpt><trkpt lat="39.29908576923063" lon="9.169391723448447"><ele>72.0</ele><time>2026-04-25T12:53:36Z</time></trkpt><trkpt lat="39.29890381657012" lon="9.169506372014581"><ele>72.0</ele><time>2026-04-25T12:53:37Z</time></trkpt><trkpt lat="39.29872086950143" lon="9.169620290010092"><ele>71.33333333333333</ele><time>2026-04-25T12:53:38Z</time></trkpt><trkpt lat="39.298539646026974" lon="9.16973397507346"><ele>70.66666666666666</ele><time>2026-04-25T12:53:39Z</time></trkpt><trkpt lat="39.29835505297076" lon="9.16984854678945"><ele>70.0</ele><time>2026-04-25T12:53:40Z</time></trkpt><trkpt lat="39.29816943412979" lon="9.169964384180183"><ele>71.0</ele><time>2026-04-25T12:53:41Z</time></trkpt><trkpt lat="39.29798143305598" lon="9.170085014086954"><ele>72.0</ele><time>2026-04-25T12:53:42Z</time></trkpt><trkpt lat="39.29779248821212" lon="9.170215758770423"><ele>73.0</ele><time>2026-04-25T12:53:43Z</time></trkpt><trkpt lat="39.29764552677641" lon="9.170340290800318"><ele>73.0</ele><time>2026-04-25T12:53:44Z</time></trkpt><trkpt lat="39.29747552592432" lon="9.170477142840754"><ele>73.0</ele><time>2026-04-25T12:53:45Z</time></trkpt><trkpt lat="39.297308667107586" lon="9.17061507434339"><ele>73.0</ele><time>2026-04-25T12:53:46Z</time></trkpt><trkpt lat="39.29713619076326" lon="9.1707569687116"><ele>72.33333333333333</ele><time>2026-04-25T12:53:47Z</time></trkpt><trkpt lat="39.29696623371218" lon="9.17089527456372"><ele>71.66666666666667</ele><time>2026-04-25T12:53:48Z</time></trkpt><trkpt lat="39.29679520010805" lon="9.171035222526184"><ele>71.0</ele><time>2026-04-25T12:53:49Z</time></trkpt><trkpt lat="39.296623792959906" lon="9.171174487748413"><ele>71.0</ele><time>2026-04-25T12:53:50Z</time></trkpt><trkpt lat="39.29645300315314" lon="9.171313754733944"><ele>71.0</ele><time>2026-04-25T12:53:51Z</time></trkpt><trkpt lat="39.29628336914004" lon="9.171455632912846"><ele>71.0</ele><time>2026-04-25T12:53:52Z</time></trkpt><trkpt lat="39.29611296586859" lon="9.171595003024517"><ele>71.0</ele><time>2026-04-25T12:53:53Z</time></trkpt><trkpt lat="39.295942410874055" lon="9.17172972284266"><ele>71.0</ele><time>2026-04-25T12:53:54Z</time></trkpt><trkpt lat="39.29577362576117" lon="9.171862479012331"><ele>71.0</ele><time>2026-04-25T12:53:55Z</time></trkpt><trkpt lat="39.295604087234274" lon="9.171997284887748"><ele>71.33333333333334</ele><time>2026-04-25T12:53:56Z</time></trkpt><trkpt lat="39.295436877119485" lon="9.172133624886895"><ele>71.66666666666667</ele><time>2026-04-25T12:53:57Z</time></trkpt><trkpt lat="39.295270796152955" lon="9.172271719615262"><ele>72.0</ele><time>2026-04-25T12:53:58Z</time></trkpt><trkpt lat="39.29510591374639" lon="9.172407858889484"><ele>72.0</ele><time>2026-04-25T12:53:59Z</time></trkpt><trkpt lat="39.29494314865763" lon="9.172540691895614"><ele>72.0</ele><time>2026-04-25T12:54:00Z</time></trkpt><trkpt lat="39.294778232662274" lon="9.172674090697141"><ele>72.0</ele><time>2026-04-25T12:54:01Z</time></trkpt><trkpt lat="39.29461380269045" lon="9.172805097039596"><ele>72.66666666666667</ele><time>2026-04-25T12:54:02Z</time></trkpt><trkpt lat="39.29444830909364" lon="9.172935968150322"><ele>73.33333333333334</ele><time>2026-04-25T12:54:03Z</time></trkpt><trkpt lat="39.29428406830031" lon="9.173066120823957"><ele>74.0</ele><time>2026-04-25T12:54:04Z</time></trkpt><trkpt lat="39.29412150784988" lon="9.173194806199875"><ele>74.0</ele><time>2026-04-25T12:54:05Z</time></trkpt><trkpt lat="39.29396275173362" lon="9.173322996811004"><ele>74.0</ele><time>2026-04-25T12:54:06Z</time></trkpt><trkpt lat="39.293810944248925" lon="9.173444752877314"><ele>74.0</ele><time>2026-04-25T12:54:07Z</time></trkpt><trkpt lat="39.293663109200466" lon="9.173563829735473"><ele>71.66666666666667</ele><time>2026-04-25T12:54:08Z</time></trkpt><trkpt lat="39.29352038097785" lon="9.173676969319702"><ele>69.33333333333333</ele><time>2026-04-25T12:54:09Z</time></trkpt><trkpt lat="39.29338298375994" lon="9.173790195188612"><ele>67.0</ele><time>2026-04-25T12:54:10Z</time></trkpt><trkpt lat="39.29325069159411" lon="9.173897353462168"><ele>67.0</ele><time>2026-04-25T12:54:11Z</time></trkpt><trkpt lat="39.29311990558969" lon="9.173995992105407"><ele>67.0</ele><time>2026-04-25T12:54:12Z</time></trkpt><trkpt lat="39.29300056476131" lon="9.174083781242416"><ele>67.0</ele><time>2026-04-25T12:54:13Z</time></trkpt><trkpt lat="39.29289043582658" lon="9.174171059607723"><ele>67.0</ele><time>2026-04-25T12:54:14Z</time></trkpt><trkpt lat="39.29279996041109" lon="9.174242835138248"><ele>67.33333333333333</ele><time>2026-04-25T12:54:15Z</time></trkpt><trkpt lat="39.292724535968205" lon="9.174304473689935"><ele>67.66666666666666</ele><time>2026-04-25T12:54:16Z</time></trkpt><trkpt lat="39.29266776278834" lon="9.17437241689832"><ele>68.0</ele><time>2026-04-25T12:54:17Z</time></trkpt><trkpt lat="39.29264785290328" lon="9.174453180099542"><ele>68.33333333333333</ele><time>2026-04-25T12:54:18Z</time></trkpt><trkpt lat="39.29264904897595" lon="9.174540308018935"><ele>68.66666666666667</ele><time>2026-04-25T12:54:19Z</time></trkpt><trkpt lat="39.29265327283532" lon="9.174636271928977"><ele>69.0</ele><time>2026-04-25T12:54:20Z</time></trkpt><trkpt lat="39.292657150719556" lon="9.174744235536059"><ele>69.25</ele><time>2026-04-25T12:54:21Z</time></trkpt><trkpt lat="39.29265655611641" lon="9.174873677514181"><ele>69.5</ele><time>2026-04-25T12:54:22Z</time></trkpt><trkpt lat="39.29266229308196" lon="9.175017833120238"><ele>69.75</ele><time>2026-04-25T12:54:23Z</time></trkpt><trkpt lat="39.29267781852696" lon="9.175174666577306"><ele>70.0</ele><time>2026-04-25T12:54:24Z</time></trkpt><trkpt lat="39.29270028153202" lon="9.17534263251009"><ele>70.0</ele><time>2026-04-25T12:54:25Z</time></trkpt><trkpt lat="39.292722231142854" lon="9.175522117673102"><ele>70.0</ele><time>2026-04-25T12:54:26Z</time></trkpt><trkpt lat="39.29274523710819" lon="9.175709757499012"><ele>70.0</ele><time>2026-04-25T12:54:27Z</time></trkpt><trkpt lat="39.29277324150613" lon="9.175896889612451"><ele>70.0</ele><time>2026-04-25T12:54:28Z</time></trkpt><trkpt lat="39.29280505603182" lon="9.176090865855919"><ele>69.66666666666666</ele><time>2026-04-25T12:54:29Z</time></trkpt><trkpt lat="39.29283675490998" lon="9.176289506131056"><ele>69.33333333333333</ele><time>2026-04-25T12:54:30Z</time></trkpt><trkpt lat="39.292860374710024" lon="9.176497984660534"><ele>69.0</ele><time>2026-04-25T12:54:31Z</time></trkpt><trkpt lat="39.292866552437914" lon="9.17671178458831"><ele>69.0</ele><time>2026-04-25T12:54:32Z</time></trkpt><trkpt lat="39.292847256398325" lon="9.176922110403407"><ele>69.0</ele><time>2026-04-25T12:54:33Z</time></trkpt><trkpt lat="39.292803799015786" lon="9.177125977495828"><ele>69.0</ele><time>2026-04-25T12:54:34Z</time></trkpt><trkpt lat="39.29274059292973" lon="9.177310440769514"><ele>69.33333333333333</ele><time>2026-04-25T12:54:35Z</time></trkpt><trkpt lat="39.292663559295455" lon="9.177486839819721"><ele>69.66666666666666</ele><time>2026-04-25T12:54:36Z</time></trkpt><trkpt lat="39.29258259590542" lon="9.177659766213925"><ele>70.0</ele><time>2026-04-25T12:54:37Z</time></trkpt><trkpt lat="39.29249929812028" lon="9.177826279697934"><ele>70.0</ele><time>2026-04-25T12:54:38Z</time></trkpt><trkpt lat="39.29241446489083" lon="9.177985435348656"><ele>70.0</ele><time>2026-04-25T12:54:39Z</time></trkpt><trkpt lat="39.29233094220118" lon="9.178145553452568"><ele>70.0</ele><time>2026-04-25T12:54:40Z</time></trkpt><trkpt lat="39.292253186330925" lon="9.178302701882306"><ele>70.0</ele><time>2026-04-25T12:54:41Z</time></trkpt><trkpt lat="39.29217814161793" lon="9.178457056500728"><ele>71.0</ele><time>2026-04-25T12:54:42Z</time></trkpt><trkpt lat="39.29210180139938" lon="9.178604183844516"><ele>72.0</ele><time>2026-04-25T12:54:43Z</time></trkpt><trkpt lat="39.29202369574182" lon="9.178750283104414"><ele>73.0</ele><time>2026-04-25T12:54:44Z</time></trkpt><trkpt lat="39.29194672801044" lon="9.17889697212255"><ele>74.0</ele><time>2026-04-25T12:54:45Z</time></trkpt><trkpt lat="39.29187062425327" lon="9.179046425096265"><ele>74.75</ele><time>2026-04-25T12:54:46Z</time></trkpt><trkpt lat="39.29179583703517" lon="9.179191197766974"><ele>75.5</ele><time>2026-04-25T12:54:47Z</time></trkpt><trkpt lat="39.291723694033436" lon="9.179327216229039"><ele>76.25</ele><time>2026-04-25T12:54:48Z</time></trkpt><trkpt lat="39.29165610364686" lon="9.179451743438428"><ele>77.0</ele><time>2026-04-25T12:54:49Z</time></trkpt><trkpt lat="39.29159188305219" lon="9.179569605218571"><ele>77.0</ele><time>2026-04-25T12:54:50Z</time></trkpt><trkpt lat="39.29153661941819" lon="9.17968649976148"><ele>77.0</ele><time>2026-04-25T12:54:51Z</time></trkpt><trkpt lat="39.291480605003755" lon="9.179799143147388"><ele>77.0</ele><time>2026-04-25T12:54:52Z</time></trkpt><trkpt lat="39.29142310549369" lon="9.179911066916603"><ele>77.0</ele><time>2026-04-25T12:54:53Z</time></trkpt><trkpt lat="39.29136964684535" lon="9.180029001438253"><ele>77.0</ele><time>2026-04-25T12:54:54Z</time></trkpt><trkpt lat="39.29131638435235" lon="9.180149799046179"><ele>77.4</ele><time>2026-04-25T12:54:55Z</time></trkpt><trkpt lat="39.29126777873355" lon="9.180267036769877"><ele>77.80000000000001</ele><time>2026-04-25T12:54:56Z</time></trkpt><trkpt lat="39.291219202960804" lon="9.180379951936528"><ele>78.2</ele><time>2026-04-25T12:54:57Z</time></trkpt><trkpt lat="39.29116502193634" lon="9.180476556418125"><ele>78.60000000000001</ele><time>2026-04-25T12:54:58Z</time></trkpt><trkpt lat="39.29111165778138" lon="9.180573389004529"><ele>79.0</ele><time>2026-04-25T12:54:59Z</time></trkpt><trkpt lat="39.29105993859104" lon="9.180668887921499"><ele>79.16666666666666</ele><time>2026-04-25T12:55:00Z</time></trkpt><trkpt lat="39.29101163436085" lon="9.180754772997787"><ele>79.33333333333333</ele><time>2026-04-25T12:55:01Z</time></trkpt><trkpt lat="39.2909652760442" lon="9.180840989515037"><ele>79.5</ele><time>2026-04-25T12:55:02Z</time></trkpt><trkpt lat="39.29091993249912" lon="9.180920232333817"><ele>79.66666666666667</ele><time>2026-04-25T12:55:03Z</time></trkpt><trkpt lat="39.29087371025093" lon="9.181003058612152"><ele>79.83333333333334</ele><time>2026-04-25T12:55:04Z</time></trkpt><trkpt lat="39.29082592192028" lon="9.181086511527422"><ele>80.0</ele><time>2026-04-25T12:55:05Z</time></trkpt><trkpt lat="39.29077538520788" lon="9.181170116559267"><ele>80.0</ele><time>2026-04-25T12:55:06Z</time></trkpt><trkpt lat="39.29073149860648" lon="9.18125556066652"><ele>80.0</ele><time>2026-04-25T12:55:07Z</time></trkpt><trkpt lat="39.29068933576879" lon="9.181330992858046"><ele>80.0</ele><time>2026-04-25T12:55:08Z</time></trkpt><trkpt lat="39.290628447403726" lon="9.18145819294779"><ele>80.0</ele><time>2026-04-25T12:55:10Z</time></trkpt><trkpt lat="39.29056591648487" lon="9.181529645774608"><ele>80.0</ele><time>2026-04-25T12:55:13Z</time></trkpt><trkpt lat="39.29051831504484" lon="9.181354969534494"><ele>79.0</ele><time>2026-04-25T12:55:17Z</time></trkpt><trkpt lat="39.29045968701911" lon="9.181191455246061"><ele>78.0</ele><time>2026-04-25T12:55:19Z</time></trkpt><trkpt lat="39.29044810858886" lon="9.181083451920628"><ele>77.0</ele><time>2026-04-25T12:55:20Z</time></trkpt><trkpt lat="39.290423365719484" lon="9.180987760905865"><ele>76.0</ele><time>2026-04-25T12:55:21Z</time></trkpt><trkpt lat="39.29039801318637" lon="9.180889712112668"><ele>75.0</ele><time>2026-04-25T12:55:22Z</time></trkpt><trkpt lat="39.29037145496855" lon="9.180787000390856"><ele>75.16666666666667</ele><time>2026-04-25T12:55:23Z</time></trkpt><trkpt lat="39.29034424285834" lon="9.180681758945964"><ele>75.33333333333333</ele><time>2026-04-25T12:55:24Z</time></trkpt><trkpt lat="39.29031469613473" lon="9.18057328253798"><ele>75.5</ele><time>2026-04-25T12:55:25Z</time></trkpt><trkpt lat="39.29028449155738" lon="9.18046502569163"><ele>75.66666666666666</ele><time>2026-04-25T12:55:26Z</time></trkpt><trkpt lat="39.29025169584188" lon="9.18037451841541"><ele>75.83333333333333</ele><time>2026-04-25T12:55:27Z</time></trkpt><trkpt lat="39.290196659533756" lon="9.180260803057415"><ele>76.0</ele><time>2026-04-25T12:55:29Z</time></trkpt><trkpt lat="39.2901442116073" lon="9.18018819203984"><ele>76.0</ele><time>2026-04-25T12:55:32Z</time></trkpt><trkpt lat="39.29001430239928" lon="9.180291241496242"><ele>76.0</ele><time>2026-04-25T12:55:33Z</time></trkpt><trkpt lat="39.28995950370588" lon="9.18033888586518"><ele>76.0</ele><time>2026-04-25T12:55:34Z</time></trkpt><trkpt lat="39.28990364580903" lon="9.180393544695796"><ele>76.0</ele><time>2026-04-25T12:55:35Z</time></trkpt><trkpt lat="39.28984564451171" lon="9.180446835036193"><ele>76.0</ele><time>2026-04-25T12:55:36Z</time></trkpt><trkpt lat="39.28978450054953" lon="9.180486756185381"><ele>76.0</ele><time>2026-04-25T12:55:37Z</time></trkpt><trkpt lat="39.28968680685171" lon="9.180546554411617"><ele>75.39999999999999</ele><time>2026-04-25T12:55:39Z</time></trkpt><trkpt lat="39.28961683845152" lon="9.180592613511841"><ele>74.8</ele><time>2026-04-25T12:55:41Z</time></trkpt><trkpt lat="39.28954932340597" lon="9.18065334930059"><ele>74.19999999999999</ele><time>2026-04-25T12:55:44Z</time></trkpt><trkpt lat="39.28945252948058" lon="9.180726856478985"><ele>73.6</ele><time>2026-04-25T12:55:47Z</time></trkpt><trkpt lat="39.2893435354716" lon="9.180811712137062"><ele>73.0</ele><time>2026-04-25T12:55:49Z</time></trkpt><trkpt lat="39.28927893016127" lon="9.180863455762221"><ele>72.2</ele><time>2026-04-25T12:55:50Z</time></trkpt><trkpt lat="39.28920565234084" lon="9.18092065412779"><ele>71.4</ele><time>2026-04-25T12:55:51Z</time></trkpt><trkpt lat="39.28913249782804" lon="9.180988564696113"><ele>70.60000000000001</ele><time>2026-04-25T12:55:52Z</time></trkpt><trkpt lat="39.289061050707524" lon="9.181061606985176"><ele>69.8</ele><time>2026-04-25T12:55:53Z</time></trkpt><trkpt lat="39.288985955799966" lon="9.181138526633825"><ele>69.0</ele><time>2026-04-25T12:55:54Z</time></trkpt><trkpt lat="39.28891244663414" lon="9.181213831658903"><ele>68.66666666666667</ele><time>2026-04-25T12:55:55Z</time></trkpt><trkpt lat="39.28883795262237" lon="9.18128872400793"><ele>68.33333333333333</ele><time>2026-04-25T12:55:56Z</time></trkpt><trkpt lat="39.28876962326372" lon="9.181359119514731"><ele>68.0</ele><time>2026-04-25T12:55:57Z</time></trkpt><trkpt lat="39.28870976701643" lon="9.181417887691405"><ele>67.66666666666666</ele><time>2026-04-25T12:55:58Z</time></trkpt><trkpt lat="39.28865588515487" lon="9.18147301814433"><ele>67.33333333333333</ele><time>2026-04-25T12:55:59Z</time></trkpt><trkpt lat="39.28860863323993" lon="9.18152688928974"><ele>67.0</ele><time>2026-04-25T12:56:00Z</time></trkpt><trkpt lat="39.28851705987959" lon="9.181626697325655"><ele>66.33333333333333</ele><time>2026-04-25T12:56:02Z</time></trkpt><trkpt lat="39.28841771250387" lon="9.181729143167887"><ele>65.66666666666666</ele><time>2026-04-25T12:56:04Z</time></trkpt><trkpt lat="39.28836285185932" lon="9.181785552746307"><ele>65.0</ele><time>2026-04-25T12:56:05Z</time></trkpt><trkpt lat="39.28830884409474" lon="9.181839895404506"><ele>64.33333333333333</ele><time>2026-04-25T12:56:06Z</time></trkpt><trkpt lat="39.288258307785995" lon="9.181891252590441"><ele>63.666666666666664</ele><time>2026-04-25T12:56:07Z</time></trkpt><trkpt lat="39.28818079837862" lon="9.181971356089525"><ele>63.0</ele><time>2026-04-25T12:56:09Z</time></trkpt><trkpt lat="39.28812653262161" lon="9.182026664555881"><ele>62.833333333333336</ele><time>2026-04-25T12:56:12Z</time></trkpt><trkpt lat="39.28807015795439" lon="9.182083108953908"><ele>62.66666666666667</ele><time>2026-04-25T12:56:15Z</time></trkpt><trkpt lat="39.28797011488687" lon="9.182163344346236"><ele>62.5</ele><time>2026-04-25T12:56:17Z</time></trkpt><trkpt lat="39.28790275486621" lon="9.182215064986526"><ele>62.333333333333336</ele><time>2026-04-25T12:56:18Z</time></trkpt><trkpt lat="39.28783884911558" lon="9.182282640649394"><ele>62.16666666666667</ele><time>2026-04-25T12:56:19Z</time></trkpt><trkpt lat="39.287759563459154" lon="9.182356343002754"><ele>62.0</ele><time>2026-04-25T12:56:20Z</time></trkpt><trkpt lat="39.287668254793" lon="9.182434405709353"><ele>61.75</ele><time>2026-04-25T12:56:21Z</time></trkpt><trkpt lat="39.28757207375289" lon="9.182521604690573"><ele>61.5</ele><time>2026-04-25T12:56:22Z</time></trkpt><trkpt lat="39.28748063588957" lon="9.182605962650491"><ele>61.25</ele><time>2026-04-25T12:56:23Z</time></trkpt><trkpt lat="39.28738282953637" lon="9.182694411197884"><ele>61.0</ele><time>2026-04-25T12:56:24Z</time></trkpt><trkpt lat="39.2872799434777" lon="9.182786094403475"><ele>61.0</ele><time>2026-04-25T12:56:25Z</time></trkpt><trkpt lat="39.28717617737995" lon="9.182882921109812"><ele>61.0</ele><time>2026-04-25T12:56:26Z</time></trkpt><trkpt lat="39.28707700757879" lon="9.182976045570415"><ele>61.0</ele><time>2026-04-25T12:56:27Z</time></trkpt><trkpt lat="39.28697904337503" lon="9.183065150740775"><ele>61.0</ele><time>2026-04-25T12:56:28Z</time></trkpt><trkpt lat="39.28688615448403" lon="9.183153501958042"><ele>60.83333333333333</ele><time>2026-04-25T12:56:29Z</time></trkpt><trkpt lat="39.286793600109405" lon="9.183218573880609"><ele>60.666666666666664</ele><time>2026-04-25T12:56:30Z</time></trkpt><trkpt lat="39.28672394844706" lon="9.183282523622509"><ele>60.5</ele><time>2026-04-25T12:56:31Z</time></trkpt><trkpt lat="39.28666891291722" lon="9.183333738855774"><ele>60.33333333333333</ele><time>2026-04-25T12:56:32Z</time></trkpt><trkpt lat="39.286609210420345" lon="9.183415862153684"><ele>60.166666666666664</ele><time>2026-04-25T12:56:35Z</time></trkpt><trkpt lat="39.286524186547055" lon="9.18349043596904"><ele>60.0</ele><time>2026-04-25T12:56:38Z</time></trkpt><trkpt lat="39.28643827094187" lon="9.18359041292865"><ele>60.166666666666664</ele><time>2026-04-25T12:56:40Z</time></trkpt><trkpt lat="39.286388815392186" lon="9.183648473677055"><ele>60.33333333333333</ele><time>2026-04-25T12:56:41Z</time></trkpt><trkpt lat="39.2863298074433" lon="9.183715800694062"><ele>60.5</ele><time>2026-04-25T12:56:42Z</time></trkpt><trkpt lat="39.28626672243324" lon="9.183786190680058"><ele>60.666666666666664</ele><time>2026-04-25T12:56:43Z</time></trkpt><trkpt lat="39.286200925554326" lon="9.183865254177125"><ele>60.83333333333333</ele><time>2026-04-25T12:56:44Z</time></trkpt><trkpt lat="39.2861336450647" lon="9.183950875708463"><ele>61.0</ele><time>2026-04-25T12:56:45Z</time></trkpt><trkpt lat="39.286060668761394" lon="9.18403269222237"><ele>61.0</ele><time>2026-04-25T12:56:46Z</time></trkpt><trkpt lat="39.285983996914766" lon="9.184107924862195"><ele>60.99999999999999</ele><time>2026-04-25T12:56:47Z</time></trkpt><trkpt lat="39.28590559406863" lon="9.184184867847677"><ele>60.99999999999999</ele><time>2026-04-25T12:56:48Z</time></trkpt><trkpt lat="39.285830224391646" lon="9.184262689391606"><ele>61.0</ele><time>2026-04-25T12:56:49Z</time></trkpt><trkpt lat="39.285759269677506" lon="9.184347855010717"><ele>61.0</ele><time>2026-04-25T12:56:50Z</time></trkpt><trkpt lat="39.28570343156844" lon="9.184432353204366"><ele>60.99999999999999</ele><time>2026-04-25T12:56:51Z</time></trkpt><trkpt lat="39.285640019872545" lon="9.184492172121242"><ele>61.0</ele><time>2026-04-25T12:56:52Z</time></trkpt><trkpt lat="39.28559435364745" lon="9.184556179275207"><ele>61.0</ele><time>2026-04-25T12:56:53Z</time></trkpt><trkpt lat="39.28551680095059" lon="9.184666311996157"><ele>61.0</ele><time>2026-04-25T12:56:55Z</time></trkpt><trkpt lat="39.285452819183575" lon="9.184758834312749"><ele>60.99999999999999</ele><time>2026-04-25T12:56:57Z</time></trkpt><trkpt lat="39.28539808483782" lon="9.18485472812745"><ele>61.0</ele><time>2026-04-25T12:56:59Z</time></trkpt><trkpt lat="39.28535015659106" lon="9.184922134322981"><ele>61.166666666666664</ele><time>2026-04-25T12:57:01Z</time></trkpt><trkpt lat="39.28530142162048" lon="9.18500753341072"><ele>61.33333333333333</ele><time>2026-04-25T12:57:05Z</time></trkpt><trkpt lat="39.28525523988133" lon="9.185063188263044"><ele>61.5</ele><time>2026-04-25T12:57:09Z</time></trkpt><trkpt lat="39.285298581164625" lon="9.185166218624813"><ele>61.66666666666667</ele><time>2026-04-25T12:57:11Z</time></trkpt><trkpt lat="39.28540875650644" lon="9.185230218387565"><ele>61.833333333333336</ele><time>2026-04-25T12:57:13Z</time></trkpt><trkpt lat="39.285471762645685" lon="9.185265462805708"><ele>62.0</ele><time>2026-04-25T12:57:14Z</time></trkpt><trkpt lat="39.28554105069657" lon="9.185313924873928"><ele>62.16666666666667</ele><time>2026-04-25T12:57:15Z</time></trkpt><trkpt lat="39.28560621047292" lon="9.185353388180056"><ele>62.333333333333336</ele><time>2026-04-25T12:57:16Z</time></trkpt><trkpt lat="39.2856728489222" lon="9.185392242246433"><ele>62.5</ele><time>2026-04-25T12:57:17Z</time></trkpt><trkpt lat="39.285745690132075" lon="9.185434026719589"><ele>62.66666666666667</ele><time>2026-04-25T12:57:18Z</time></trkpt><trkpt lat="39.285826723371954" lon="9.185481159609745"><ele>62.833333333333336</ele><time>2026-04-25T12:57:19Z</time></trkpt><trkpt lat="39.285911594261435" lon="9.185531219759634"><ele>63.0</ele><time>2026-04-25T12:57:20Z</time></trkpt><trkpt lat="39.28599700518421" lon="9.185590701578732"><ele>63.0</ele><time>2026-04-25T12:57:21Z</time></trkpt><trkpt lat="39.28608373569733" lon="9.185660856642567"><ele>63.0</ele><time>2026-04-25T12:57:22Z</time></trkpt><trkpt lat="39.28616421471766" lon="9.185730299695589"><ele>63.0</ele><time>2026-04-25T12:57:23Z</time></trkpt><trkpt lat="39.286244822469314" lon="9.185796245206673"><ele>63.0</ele><time>2026-04-25T12:57:24Z</time></trkpt><trkpt lat="39.286323584896934" lon="9.185860713699505"><ele>63.0</ele><time>2026-04-25T12:57:25Z</time></trkpt><trkpt lat="39.286400543231416" lon="9.185926519903449"><ele>63.333333333333336</ele><time>2026-04-25T12:57:26Z</time></trkpt><trkpt lat="39.28647357836544" lon="9.185989797704348"><ele>63.66666666666667</ele><time>2026-04-25T12:57:27Z</time></trkpt><trkpt lat="39.28654596280639" lon="9.186052714532664"><ele>64.0</ele><time>2026-04-25T12:57:28Z</time></trkpt><trkpt lat="39.28661830659113" lon="9.186111010110281"><ele>64.33333333333334</ele><time>2026-04-25T12:57:29Z</time></trkpt><trkpt lat="39.28669169350521" lon="9.186168005593162"><ele>64.66666666666667</ele><time>2026-04-25T12:57:30Z</time></trkpt><trkpt lat="39.286763888291034" lon="9.186229306284972"><ele>65.0</ele><time>2026-04-25T12:57:31Z</time></trkpt><trkpt lat="39.28683840618478" lon="9.18628591546106"><ele>65.0</ele><time>2026-04-25T12:57:32Z</time></trkpt><trkpt lat="39.28691336664456" lon="9.186343980544013"><ele>65.0</ele><time>2026-04-25T12:57:33Z</time></trkpt><trkpt lat="39.28698865825873" lon="9.186410689618292"><ele>65.0</ele><time>2026-04-25T12:57:34Z</time></trkpt><trkpt lat="39.28706727580176" lon="9.18648086184229"><ele>65.0</ele><time>2026-04-25T12:57:35Z</time></trkpt><trkpt lat="39.287149564556735" lon="9.186546284869026"><ele>65.0</ele><time>2026-04-25T12:57:36Z</time></trkpt><trkpt lat="39.287237685800946" lon="9.186613695958133"><ele>65.2</ele><time>2026-04-25T12:57:37Z</time></trkpt><trkpt lat="39.287325242064966" lon="9.186687719022103"><ele>65.4</ele><time>2026-04-25T12:57:38Z</time></trkpt><trkpt lat="39.28741875876691" lon="9.186762293681854"><ele>65.6</ele><time>2026-04-25T12:57:39Z</time></trkpt><trkpt lat="39.28751585225343" lon="9.186837195109577"><ele>65.8</ele><time>2026-04-25T12:57:40Z</time></trkpt><trkpt lat="39.287613726624116" lon="9.186918026930972"><ele>66.0</ele><time>2026-04-25T12:57:41Z</time></trkpt><trkpt lat="39.28771318248583" lon="9.186995443225312"><ele>66.0</ele><time>2026-04-25T12:57:42Z</time></trkpt><trkpt lat="39.28780356403469" lon="9.187072131098962"><ele>66.0</ele><time>2026-04-25T12:57:43Z</time></trkpt><trkpt lat="39.28788479157508" lon="9.187144135956775"><ele>66.0</ele><time>2026-04-25T12:57:44Z</time></trkpt><trkpt lat="39.28796207113528" lon="9.187210023405685"><ele>66.0</ele><time>2026-04-25T12:57:45Z</time></trkpt><trkpt lat="39.28803907678779" lon="9.1872717126515"><ele>66.0</ele><time>2026-04-25T12:57:46Z</time></trkpt><trkpt lat="39.288120149975505" lon="9.18733557335825"><ele>66.6</ele><time>2026-04-25T12:57:47Z</time></trkpt><trkpt lat="39.28820356962039" lon="9.187407755443331"><ele>67.19999999999999</ele><time>2026-04-25T12:57:48Z</time></trkpt><trkpt lat="39.28828813191469" lon="9.187483057507851"><ele>67.80000000000001</ele><time>2026-04-25T12:57:49Z</time></trkpt><trkpt lat="39.288372413714505" lon="9.187563674981725"><ele>68.4</ele><time>2026-04-25T12:57:50Z</time></trkpt><trkpt lat="39.28845190896123" lon="9.187650701968344"><ele>69.0</ele><time>2026-04-25T12:57:51Z</time></trkpt><trkpt lat="39.28852843143572" lon="9.187745355895412"><ele>69.0</ele><time>2026-04-25T12:57:52Z</time></trkpt><trkpt lat="39.28860084233983" lon="9.187848941311268"><ele>69.0</ele><time>2026-04-25T12:57:53Z</time></trkpt><trkpt lat="39.2886643320605" lon="9.187959424661502"><ele>69.0</ele><time>2026-04-25T12:57:54Z</time></trkpt><trkpt lat="39.288719479002566" lon="9.188079856293902"><ele>69.0</ele><time>2026-04-25T12:57:55Z</time></trkpt><trkpt lat="39.28876678597356" lon="9.188201445717896"><ele>69.0</ele><time>2026-04-25T12:57:56Z</time></trkpt><trkpt lat="39.2888183092826" lon="9.188316711696965"><ele>69.2</ele><time>2026-04-25T12:57:57Z</time></trkpt><trkpt lat="39.28887260730906" lon="9.188429740173651"><ele>69.4</ele><time>2026-04-25T12:57:58Z</time></trkpt><trkpt lat="39.28892519979525" lon="9.188539212951707"><ele>69.6</ele><time>2026-04-25T12:57:59Z</time></trkpt><trkpt lat="39.28897782640293" lon="9.188640493308998"><ele>69.8</ele><time>2026-04-25T12:58:00Z</time></trkpt><trkpt lat="39.289031115590184" lon="9.18873072157568"><ele>70.0</ele><time>2026-04-25T12:58:01Z</time></trkpt><trkpt lat="39.289078609996004" lon="9.188834167202048"><ele>70.6</ele><time>2026-04-25T12:58:02Z</time></trkpt><trkpt lat="39.28912691953907" lon="9.188937848274975"><ele>71.2</ele><time>2026-04-25T12:58:03Z</time></trkpt><trkpt lat="39.28916655337461" lon="9.189032546292577"><ele>71.8</ele><time>2026-04-25T12:58:04Z</time></trkpt><trkpt lat="39.2892070122404" lon="9.189156867652056"><ele>72.4</ele><time>2026-04-25T12:58:06Z</time></trkpt><trkpt lat="39.28912121262292" lon="9.18922332298892"><ele>73.0</ele><time>2026-04-25T12:58:08Z</time></trkpt><trkpt lat="39.289056201711084" lon="9.18926759916546"><ele>73.0</ele><time>2026-04-25T12:58:09Z</time></trkpt><trkpt lat="39.28898011187305" lon="9.189323610327673"><ele>73.0</ele><time>2026-04-25T12:58:10Z</time></trkpt><trkpt lat="39.28890497057182" lon="9.189401474631335"><ele>73.0</ele><time>2026-04-25T12:58:11Z</time></trkpt><trkpt lat="39.28881384156326" lon="9.189442004823086"><ele>73.0</ele><time>2026-04-25T12:58:12Z</time></trkpt><trkpt lat="39.28872900947299" lon="9.189502982262994"><ele>73.0</ele><time>2026-04-25T12:58:13Z</time></trkpt><trkpt lat="39.28865492674599" lon="9.189581015370386"><ele>72.6</ele><time>2026-04-25T12:58:14Z</time></trkpt><trkpt lat="39.28856797607336" lon="9.189647021972416"><ele>72.19999999999999</ele><time>2026-04-25T12:58:15Z</time></trkpt><trkpt lat="39.288479259961065" lon="9.189716644888485"><ele>71.8</ele><time>2026-04-25T12:58:16Z</time></trkpt><trkpt lat="39.288380210172356" lon="9.189781720093624"><ele>71.39999999999999</ele><time>2026-04-25T12:58:17Z</time></trkpt><trkpt lat="39.28828832491799" lon="9.189865211480559"><ele>71.0</ele><time>2026-04-25T12:58:18Z</time></trkpt><trkpt lat="39.288205938172176" lon="9.189962014253538"><ele>71.0</ele><time>2026-04-25T12:58:19Z</time></trkpt><trkpt lat="39.28812242673254" lon="9.190037736538104"><ele>71.0</ele><time>2026-04-25T12:58:20Z</time></trkpt><trkpt lat="39.288032761912376" lon="9.190109277166043"><ele>71.0</ele><time>2026-04-25T12:58:21Z</time></trkpt><trkpt lat="39.28794147685619" lon="9.19018188995371"><ele>71.0</ele><time>2026-04-25T12:58:22Z</time></trkpt><trkpt lat="39.287849124688904" lon="9.190253504123048"><ele>71.0</ele><time>2026-04-25T12:58:23Z</time></trkpt><trkpt lat="39.287752397428925" lon="9.190322977595862"><ele>70.66666666666667</ele><time>2026-04-25T12:58:24Z</time></trkpt><trkpt lat="39.287660724065596" lon="9.190389049851408"><ele>70.33333333333334</ele><time>2026-04-25T12:58:25Z</time></trkpt><trkpt lat="39.28758553100244" lon="9.190446829382456"><ele>70.0</ele><time>2026-04-25T12:58:26Z</time></trkpt><trkpt lat="39.287519518991175" lon="9.190497030547053"><ele>69.66666666666667</ele><time>2026-04-25T12:58:28Z</time></trkpt><trkpt lat="39.28744011097518" lon="9.190558030040222"><ele>69.33333333333333</ele><time>2026-04-25T12:58:30Z</time></trkpt><trkpt lat="39.28737717529177" lon="9.190601151350902"><ele>69.0</ele><time>2026-04-25T12:58:31Z</time></trkpt><trkpt lat="39.28730508412313" lon="9.190656370391249"><ele>68.4</ele><time>2026-04-25T12:58:32Z</time></trkpt><trkpt lat="39.2872269812104" lon="9.19072085764132"><ele>67.80000000000001</ele><time>2026-04-25T12:58:33Z</time></trkpt><trkpt lat="39.28714005739089" lon="9.190795572614284"><ele>67.19999999999999</ele><time>2026-04-25T12:58:34Z</time></trkpt><trkpt lat="39.28705092831419" lon="9.190868668524947"><ele>66.6</ele><time>2026-04-25T12:58:35Z</time></trkpt><trkpt lat="39.28695325311226" lon="9.190951391096082"><ele>66.0</ele><time>2026-04-25T12:58:36Z</time></trkpt><trkpt lat="39.28685473702058" lon="9.191041426648475"><ele>66.0</ele><time>2026-04-25T12:58:37Z</time></trkpt><trkpt lat="39.286758720450734" lon="9.191131818067415"><ele>66.0</ele><time>2026-04-25T12:58:38Z</time></trkpt><trkpt lat="39.28665354860318" lon="9.19123038193833"><ele>66.0</ele><time>2026-04-25T12:58:39Z</time></trkpt><trkpt lat="39.28654467980021" lon="9.19133618028689"><ele>66.0</ele><time>2026-04-25T12:58:40Z</time></trkpt><trkpt lat="39.28643370729388" lon="9.191448290662667"><ele>65.25</ele><time>2026-04-25T12:58:41Z</time></trkpt><trkpt lat="39.28631844546355" lon="9.19156285230484"><ele>64.5</ele><time>2026-04-25T12:58:42Z</time></trkpt><trkpt lat="39.28620733864349" lon="9.191677780852421"><ele>63.75</ele><time>2026-04-25T12:58:43Z</time></trkpt><trkpt lat="39.286096283844415" lon="9.191804042057356"><ele>63.0</ele><time>2026-04-25T12:58:44Z</time></trkpt><trkpt lat="39.285983045792236" lon="9.191935570374136"><ele>63.0</ele><time>2026-04-25T12:58:45Z</time></trkpt><trkpt lat="39.28586607852769" lon="9.192066836841503"><ele>63.0</ele><time>2026-04-25T12:58:46Z</time></trkpt><trkpt lat="39.28574398514485" lon="9.192199134654269"><ele>63.0</ele><time>2026-04-25T12:58:47Z</time></trkpt><trkpt lat="39.2856188947529" lon="9.192333412645985"><ele>62.33333333333333</ele><time>2026-04-25T12:58:48Z</time></trkpt><trkpt lat="39.28549337069649" lon="9.19246819888611"><ele>61.666666666666664</ele><time>2026-04-25T12:58:49Z</time></trkpt><trkpt lat="39.28536553557295" lon="9.192602741313138"><ele>61.0</ele><time>2026-04-25T12:58:50Z</time></trkpt><trkpt lat="39.2852359045983" lon="9.19274073087668"><ele>61.0</ele><time>2026-04-25T12:58:51Z</time></trkpt><trkpt lat="39.28510621644722" lon="9.192879850951789"><ele>61.0</ele><time>2026-04-25T12:58:52Z</time></trkpt><trkpt lat="39.28497594886513" lon="9.193019251079374"><ele>61.0</ele><time>2026-04-25T12:58:53Z</time></trkpt><trkpt lat="39.28484334291592" lon="9.193157340250592"><ele>61.0</ele><time>2026-04-25T12:58:54Z</time></trkpt><trkpt lat="39.28471079055949" lon="9.193297396564558"><ele>61.0</ele><time>2026-04-25T12:58:55Z</time></trkpt><trkpt lat="39.28458854263181" lon="9.193442513613286"><ele>61.0</ele><time>2026-04-25T12:58:56Z</time></trkpt><trkpt lat="39.28450735118912" lon="9.193619347355586"><ele>61.0</ele><time>2026-04-25T12:58:57Z</time></trkpt><trkpt lat="39.28445662490889" lon="9.193812858944362"><ele>61.0</ele><time>2026-04-25T12:58:58Z</time></trkpt><trkpt lat="39.28441460555505" lon="9.194011514337738"><ele>61.0</ele><time>2026-04-25T12:58:59Z</time></trkpt><trkpt lat="39.28435983491719" lon="9.194207574794909"><ele>61.666666666666664</ele><time>2026-04-25T12:59:00Z</time></trkpt><trkpt lat="39.28429809379473" lon="9.194402333831743"><ele>62.33333333333333</ele><time>2026-04-25T12:59:01Z</time></trkpt><trkpt lat="39.28423331185617" lon="9.194594693833515"><ele>63.0</ele><time>2026-04-25T12:59:02Z</time></trkpt><trkpt lat="39.28417463848685" lon="9.194797689122687"><ele>62.66666666666667</ele><time>2026-04-25T12:59:03Z</time></trkpt><trkpt lat="39.284083237517386" lon="9.194971150901681"><ele>62.333333333333336</ele><time>2026-04-25T12:59:04Z</time></trkpt><trkpt lat="39.28399564544427" lon="9.19515046690899"><ele>62.0</ele><time>2026-04-25T12:59:05Z</time></trkpt><trkpt lat="39.28390328699301" lon="9.195310891425217"><ele>62.0</ele><time>2026-04-25T12:59:06Z</time></trkpt><trkpt lat="39.2838049478619" lon="9.195446791834696"><ele>62.0</ele><time>2026-04-25T12:59:07Z</time></trkpt><trkpt lat="39.28372084672791" lon="9.195576893390685"><ele>62.0</ele><time>2026-04-25T12:59:08Z</time></trkpt><trkpt lat="39.28363975128657" lon="9.195664502200824"><ele>62.0</ele><time>2026-04-25T12:59:09Z</time></trkpt><trkpt lat="39.283576840388044" lon="9.19572150213201"><ele>61.75</ele><time>2026-04-25T12:59:10Z</time></trkpt><trkpt lat="39.283522731560645" lon="9.195764677381378"><ele>61.5</ele><time>2026-04-25T12:59:15Z</time></trkpt><trkpt lat="39.28365061976306" lon="9.195952485220914"><ele>61.25</ele><time>2026-04-25T12:59:17Z</time></trkpt><trkpt lat="39.283753865222245" lon="9.196021055610155"><ele>61.0</ele><time>2026-04-25T12:59:18Z</time></trkpt><trkpt lat="39.28386992970661" lon="9.196100305241428"><ele>61.33333333333333</ele><time>2026-04-25T12:59:19Z</time></trkpt><trkpt lat="39.28399227629248" lon="9.19618240581288"><ele>61.66666666666667</ele><time>2026-04-25T12:59:20Z</time></trkpt><trkpt lat="39.2841315948157" lon="9.196267851636629"><ele>62.0</ele><time>2026-04-25T12:59:21Z</time></trkpt><trkpt lat="39.28428394634484" lon="9.196351078503215"><ele>62.0</ele><time>2026-04-25T12:59:22Z</time></trkpt><trkpt lat="39.28444319611701" lon="9.196436418499333"><ele>62.0</ele><time>2026-04-25T12:59:23Z</time></trkpt><trkpt lat="39.28461260433814" lon="9.196514924444186"><ele>62.0</ele><time>2026-04-25T12:59:24Z</time></trkpt><trkpt lat="39.28478989913645" lon="9.196581773350472"><ele>63.333333333333336</ele><time>2026-04-25T12:59:25Z</time></trkpt><trkpt lat="39.2849673259426" lon="9.19664311702955"><ele>64.66666666666667</ele><time>2026-04-25T12:59:26Z</time></trkpt><trkpt lat="39.285146427489025" lon="9.196708034687619"><ele>66.0</ele><time>2026-04-25T12:59:27Z</time></trkpt><trkpt lat="39.28532463622186" lon="9.196785878642721"><ele>66.0</ele><time>2026-04-25T12:59:28Z</time></trkpt><trkpt lat="39.285508321344835" lon="9.196867735859872"><ele>66.0</ele><time>2026-04-25T12:59:29Z</time></trkpt><trkpt lat="39.28569056379441" lon="9.19694266531151"><ele>66.0</ele><time>2026-04-25T12:59:30Z</time></trkpt><trkpt lat="39.28587675995472" lon="9.197015477947113"><ele>68.0</ele><time>2026-04-25T12:59:31Z</time></trkpt><trkpt lat="39.28605940550972" lon="9.197092437607264"><ele>70.0</ele><time>2026-04-25T12:59:32Z</time></trkpt><trkpt lat="39.286239289667456" lon="9.197170968499066"><ele>72.0</ele><time>2026-04-25T12:59:33Z</time></trkpt><trkpt lat="39.286417089277" lon="9.197239462616546"><ele>74.0</ele><time>2026-04-25T12:59:34Z</time></trkpt><trkpt lat="39.28659576898516" lon="9.197305719907604"><ele>76.0</ele><time>2026-04-25T12:59:35Z</time></trkpt><trkpt lat="39.28677102424875" lon="9.197372708997129"><ele>78.0</ele><time>2026-04-25T12:59:36Z</time></trkpt><trkpt lat="39.28694375085531" lon="9.197445468905844"><ele>80.66666666666667</ele><time>2026-04-25T12:59:37Z</time></trkpt><trkpt lat="39.28711595465328" lon="9.197513808117035"><ele>83.33333333333334</ele><time>2026-04-25T12:59:38Z</time></trkpt><trkpt lat="39.28728758291454" lon="9.197576388456595"><ele>86.0</ele><time>2026-04-25T12:59:39Z</time></trkpt><trkpt lat="39.287457428593925" lon="9.197633597002124"><ele>88.66666666666667</ele><time>2026-04-25T12:59:40Z</time></trkpt><trkpt lat="39.28761710162989" lon="9.197701896782723"><ele>91.33333333333333</ele><time>2026-04-25T12:59:41Z</time></trkpt><trkpt lat="39.28777415719765" lon="9.197784054493216"><ele>94.0</ele><time>2026-04-25T12:59:42Z</time></trkpt><trkpt lat="39.28792174853763" lon="9.197882139721045"><ele>94.0</ele><time>2026-04-25T12:59:43Z</time></trkpt><trkpt lat="39.288088278605514" lon="9.19796750350818"><ele>94.0</ele><time>2026-04-25T12:59:44Z</time></trkpt><trkpt lat="39.28823390512053" lon="9.198066303521816"><ele>94.0</ele><time>2026-04-25T12:59:45Z</time></trkpt><trkpt lat="39.288375962369194" lon="9.198164712716755"><ele>98.66666666666666</ele><time>2026-04-25T12:59:46Z</time></trkpt><trkpt lat="39.28851777842607" lon="9.198284337667555"><ele>103.33333333333333</ele><time>2026-04-25T12:59:47Z</time></trkpt><trkpt lat="39.288655474306125" lon="9.19839743844742"><ele>108.0</ele><time>2026-04-25T12:59:48Z</time></trkpt><trkpt lat="39.28877537541135" lon="9.198532768142861"><ele>108.0</ele><time>2026-04-25T12:59:49Z</time></trkpt><trkpt lat="39.28892357860191" lon="9.198658654078715"><ele>108.0</ele><time>2026-04-25T12:59:50Z</time></trkpt><trkpt lat="39.289044226558545" lon="9.19881511913541"><ele>108.0</ele><time>2026-04-25T12:59:51Z</time></trkpt><trkpt lat="39.289168059442595" lon="9.198969110012436"><ele>110.66666666666666</ele><time>2026-04-25T12:59:52Z</time></trkpt><trkpt lat="39.28929140905832" lon="9.199127585108803"><ele>113.33333333333333</ele><time>2026-04-25T12:59:53Z</time></trkpt><trkpt lat="39.2894068920214" lon="9.199294301109289"><ele>116.0</ele><time>2026-04-25T12:59:54Z</time></trkpt><trkpt lat="39.289517600052484" lon="9.199467543371364"><ele>116.0</ele><time>2026-04-25T12:59:55Z</time></trkpt><trkpt lat="39.28962074085102" lon="9.199645591921561"><ele>116.0</ele><time>2026-04-25T12:59:56Z</time></trkpt><trkpt lat="39.28973219429413" lon="9.1998188771601"><ele>116.0</ele><time>2026-04-25T12:59:57Z</time></trkpt><trkpt lat="39.289809165282335" lon="9.200015372479008"><ele>115.0</ele><time>2026-04-25T12:59:58Z</time></trkpt><trkpt lat="39.289894249088455" lon="9.200195415256582"><ele>114.0</ele><time>2026-04-25T12:59:59Z</time></trkpt><trkpt lat="39.28996784369843" lon="9.20037066688144"><ele>113.0</ele><time>2026-04-25T13:00:00Z</time></trkpt><trkpt lat="39.29002997344311" lon="9.200540790679128"><ele>112.25</ele><time>2026-04-25T13:00:01Z</time></trkpt><trkpt lat="39.29008685811065" lon="9.20070586420494"><ele>111.5</ele><time>2026-04-25T13:00:02Z</time></trkpt><trkpt lat="39.29014049987416" lon="9.20086157537306"><ele>110.75</ele><time>2026-04-25T13:00:03Z</time></trkpt><trkpt lat="39.29019082719762" lon="9.201011696684773"><ele>110.0</ele><time>2026-04-25T13:00:04Z</time></trkpt><trkpt lat="39.290237957663464" lon="9.20115380338935"><ele>110.0</ele><time>2026-04-25T13:00:05Z</time></trkpt><trkpt lat="39.290293629862816" lon="9.201282519708943"><ele>110.0</ele><time>2026-04-25T13:00:06Z</time></trkpt><trkpt lat="39.2903247372928" lon="9.201411629771423"><ele>110.0</ele><time>2026-04-25T13:00:07Z</time></trkpt><trkpt lat="39.2903564637866" lon="9.201539253161519"><ele>110.0</ele><time>2026-04-25T13:00:08Z</time></trkpt><trkpt lat="39.29032915245871" lon="9.201671966324126"><ele>110.0</ele><time>2026-04-25T13:00:09Z</time></trkpt><trkpt lat="39.290366546021225" lon="9.201761949542437"><ele>109.49999999999999</ele><time>2026-04-25T13:00:10Z</time></trkpt><trkpt lat="39.29039204275469" lon="9.201865332613654"><ele>109.0</ele><time>2026-04-25T13:00:11Z</time></trkpt><trkpt lat="39.290398810290355" lon="9.201954242087469"><ele>108.5</ele><time>2026-04-25T13:00:12Z</time></trkpt><trkpt lat="39.29041136842235" lon="9.202072791402811"><ele>108.0</ele><time>2026-04-25T13:00:14Z</time></trkpt><trkpt lat="39.290434570735975" lon="9.202168788793688"><ele>107.49999999999999</ele><time>2026-04-25T13:00:16Z</time></trkpt><trkpt lat="39.29040435896065" lon="9.202264847862086"><ele>107.0</ele><time>2026-04-25T13:00:17Z</time></trkpt><trkpt lat="39.290414414691526" lon="9.202364768554569"><ele>105.8</ele><time>2026-04-25T13:00:18Z</time></trkpt><trkpt lat="39.29041398115141" lon="9.20248371130491"><ele>104.6</ele><time>2026-04-25T13:00:19Z</time></trkpt><trkpt lat="39.29041207202312" lon="9.202616603915597"><ele>103.39999999999999</ele><time>2026-04-25T13:00:20Z</time></trkpt><trkpt lat="39.29041271589424" lon="9.202762547854416"><ele>102.19999999999999</ele><time>2026-04-25T13:00:21Z</time></trkpt><trkpt lat="39.29040842984032" lon="9.202920616027422"><ele>101.0</ele><time>2026-04-25T13:00:22Z</time></trkpt><trkpt lat="39.29039378799082" lon="9.203090256602666"><ele>100.5</ele><time>2026-04-25T13:00:23Z</time></trkpt><trkpt lat="39.290367329117714" lon="9.203262293130058"><ele>100.0</ele><time>2026-04-25T13:00:24Z</time></trkpt><trkpt lat="39.29033830463327" lon="9.203440759681099"><ele>99.5</ele><time>2026-04-25T13:00:25Z</time></trkpt><trkpt lat="39.29030983292982" lon="9.203620055522261"><ele>99.0</ele><time>2026-04-25T13:00:26Z</time></trkpt><trkpt lat="39.29027993202175" lon="9.203794663904993"><ele>99.0</ele><time>2026-04-25T13:00:27Z</time></trkpt><trkpt lat="39.29024262711265" lon="9.203968967427086"><ele>99.0</ele><time>2026-04-25T13:00:28Z</time></trkpt><trkpt lat="39.29020175979965" lon="9.204143544883271"><ele>99.0</ele><time>2026-04-25T13:00:29Z</time></trkpt><trkpt lat="39.29015921680453" lon="9.204317852999434"><ele>99.0</ele><time>2026-04-25T13:00:30Z</time></trkpt><trkpt lat="39.29010654469713" lon="9.204485669603047"><ele>99.0</ele><time>2026-04-25T13:00:31Z</time></trkpt><trkpt lat="39.29004953693086" lon="9.204656273407085"><ele>99.0</ele><time>2026-04-25T13:00:32Z</time></trkpt><trkpt lat="39.28999371441676" lon="9.20482638240918"><ele>99.0</ele><time>2026-04-25T13:00:33Z</time></trkpt><trkpt lat="39.28992839602377" lon="9.204995218037704"><ele>99.0</ele><time>2026-04-25T13:00:34Z</time></trkpt><trkpt lat="39.28985735313321" lon="9.20516481600032"><ele>99.0</ele><time>2026-04-25T13:00:35Z</time></trkpt><trkpt lat="39.289782112493626" lon="9.205342262012367"><ele>99.0</ele><time>2026-04-25T13:00:36Z</time></trkpt><trkpt lat="39.28970431646464" lon="9.205518802936037"><ele>99.0</ele><time>2026-04-25T13:00:37Z</time></trkpt><trkpt lat="39.28961811886822" lon="9.205699729231197"><ele>97.33333333333333</ele><time>2026-04-25T13:00:38Z</time></trkpt><trkpt lat="39.28952536954338" lon="9.205878248523288"><ele>95.66666666666666</ele><time>2026-04-25T13:00:39Z</time></trkpt><trkpt lat="39.289429598728624" lon="9.206065128709264"><ele>94.0</ele><time>2026-04-25T13:00:40Z</time></trkpt><trkpt lat="39.2893341452452" lon="9.20625243322912"><ele>94.0</ele><time>2026-04-25T13:00:41Z</time></trkpt><trkpt lat="39.289241490594875" lon="9.206446708351539"><ele>94.0</ele><time>2026-04-25T13:00:42Z</time></trkpt><trkpt lat="39.289145964650366" lon="9.206646810780834"><ele>94.0</ele><time>2026-04-25T13:00:43Z</time></trkpt><trkpt lat="39.28905033207867" lon="9.206851609009789"><ele>93.33333333333333</ele><time>2026-04-25T13:00:44Z</time></trkpt><trkpt lat="39.2889377804027" lon="9.207052724689369"><ele>92.66666666666667</ele><time>2026-04-25T13:00:45Z</time></trkpt><trkpt lat="39.28883941988649" lon="9.207258028255577"><ele>92.0</ele><time>2026-04-25T13:00:46Z</time></trkpt><trkpt lat="39.28873122676189" lon="9.207471535690782"><ele>91.66666666666667</ele><time>2026-04-25T13:00:47Z</time></trkpt><trkpt lat="39.28862279962108" lon="9.207683903337964"><ele>91.33333333333333</ele><time>2026-04-25T13:00:48Z</time></trkpt><trkpt lat="39.28851323980591" lon="9.207903976725293"><ele>91.0</ele><time>2026-04-25T13:00:49Z</time></trkpt><trkpt lat="39.2884031273017" lon="9.208125319379615"><ele>91.33333333333333</ele><time>2026-04-25T13:00:50Z</time></trkpt><trkpt lat="39.28829338689326" lon="9.208348801892791"><ele>91.66666666666667</ele><time>2026-04-25T13:00:51Z</time></trkpt><trkpt lat="39.288182491493465" lon="9.208573017257939"><ele>92.0</ele><time>2026-04-25T13:00:52Z</time></trkpt><trkpt lat="39.28806884487209" lon="9.20880075467193"><ele>90.33333333333334</ele><time>2026-04-25T13:00:53Z</time></trkpt><trkpt lat="39.28795335259628" lon="9.209023992622702"><ele>88.66666666666667</ele><time>2026-04-25T13:00:54Z</time></trkpt><trkpt lat="39.28783996042438" lon="9.209250071940245"><ele>87.0</ele><time>2026-04-25T13:00:55Z</time></trkpt><trkpt lat="39.287728882256836" lon="9.20947884970109"><ele>87.0</ele><time>2026-04-25T13:00:56Z</time></trkpt><trkpt lat="39.28762063354868" lon="9.209710210159997"><ele>87.0</ele><time>2026-04-25T13:00:57Z</time></trkpt><trkpt lat="39.287518145875325" lon="9.209943551522136"><ele>87.0</ele><time>2026-04-25T13:00:58Z</time></trkpt><trkpt lat="39.287429663845366" lon="9.210180424000548"><ele>86.66666666666667</ele><time>2026-04-25T13:00:59Z</time></trkpt><trkpt lat="39.287356030617346" lon="9.210424003610868"><ele>86.33333333333334</ele><time>2026-04-25T13:01:00Z</time></trkpt><trkpt lat="39.28728832507552" lon="9.210668299570997"><ele>86.0</ele><time>2026-04-25T13:01:01Z</time></trkpt><trkpt lat="39.287241751253035" lon="9.210916839750906"><ele>85.0</ele><time>2026-04-25T13:01:02Z</time></trkpt><trkpt lat="39.287208812765044" lon="9.211155038019523"><ele>84.0</ele><time>2026-04-25T13:01:03Z</time></trkpt><trkpt lat="39.28718053326146" lon="9.211396948220335"><ele>83.0</ele><time>2026-04-25T13:01:04Z</time></trkpt><trkpt lat="39.287167697065264" lon="9.2116415706809"><ele>83.0</ele><time>2026-04-25T13:01:05Z</time></trkpt><trkpt lat="39.287167801370046" lon="9.211890108520985"><ele>83.0</ele><time>2026-04-25T13:01:06Z</time></trkpt><trkpt lat="39.28717517003381" lon="9.21213683668464"><ele>83.0</ele><time>2026-04-25T13:01:07Z</time></trkpt><trkpt lat="39.287194887014195" lon="9.212387369190461"><ele>82.66666666666667</ele><time>2026-04-25T13:01:08Z</time></trkpt><trkpt lat="39.28722883200933" lon="9.21264141542682"><ele>82.33333333333333</ele><time>2026-04-25T13:01:09Z</time></trkpt><trkpt lat="39.28726653952344" lon="9.212891386331808"><ele>82.0</ele><time>2026-04-25T13:01:10Z</time></trkpt><trkpt lat="39.28731211466118" lon="9.213138099947724"><ele>83.0</ele><time>2026-04-25T13:01:11Z</time></trkpt><trkpt lat="39.28734676655176" lon="9.213382127789533"><ele>84.0</ele><time>2026-04-25T13:01:12Z</time></trkpt><trkpt lat="39.28738827402165" lon="9.213623967072463"><ele>85.0</ele><time>2026-04-25T13:01:13Z</time></trkpt><trkpt lat="39.28743135430368" lon="9.213867208088228"><ele>85.0</ele><time>2026-04-25T13:01:14Z</time></trkpt><trkpt lat="39.287475630208895" lon="9.214107451620748"><ele>85.0</ele><time>2026-04-25T13:01:15Z</time></trkpt><trkpt lat="39.28751852209075" lon="9.214343110836104"><ele>85.0</ele><time>2026-04-25T13:01:16Z</time></trkpt><trkpt lat="39.28755928829349" lon="9.214580722279111"><ele>85.0</ele><time>2026-04-25T13:01:17Z</time></trkpt><trkpt lat="39.28759871288744" lon="9.214813344039793"><ele>85.0</ele><time>2026-04-25T13:01:18Z</time></trkpt><trkpt lat="39.28763805332311" lon="9.215030232274245"><ele>85.0</ele><time>2026-04-25T13:01:19Z</time></trkpt><trkpt lat="39.28767391585987" lon="9.21523931009745"><ele>84.75</ele><time>2026-04-25T13:01:20Z</time></trkpt><trkpt lat="39.28770798573009" lon="9.215435569595178"><ele>84.5</ele><time>2026-04-25T13:01:21Z</time></trkpt><trkpt lat="39.28773969162029" lon="9.215621371445247"><ele>84.25</ele><time>2026-04-25T13:01:22Z</time></trkpt><trkpt lat="39.2877657010952" lon="9.215797728139895"><ele>84.0</ele><time>2026-04-25T13:01:23Z</time></trkpt><trkpt lat="39.28778121646241" lon="9.215965479777907"><ele>84.0</ele><time>2026-04-25T13:01:24Z</time></trkpt><trkpt lat="39.287780440689005" lon="9.216123204077263"><ele>84.0</ele><time>2026-04-25T13:01:25Z</time></trkpt><trkpt lat="39.28777738037836" lon="9.216274365801837"><ele>84.0</ele><time>2026-04-25T13:01:26Z</time></trkpt><trkpt lat="39.28779198887756" lon="9.216408342166249"><ele>84.0</ele><time>2026-04-25T13:01:27Z</time></trkpt><trkpt lat="39.287827680555296" lon="9.216515068171132"><ele>84.0</ele><time>2026-04-25T13:01:28Z</time></trkpt><trkpt lat="39.28784881747569" lon="9.216602647765619"><ele>83.66666666666667</ele><time>2026-04-25T13:01:29Z</time></trkpt><trkpt lat="39.287842139191156" lon="9.21668551882762"><ele>83.33333333333333</ele><time>2026-04-25T13:01:30Z</time></trkpt><trkpt lat="39.287821090961785" lon="9.216773626000299"><ele>83.0</ele><time>2026-04-25T13:01:31Z</time></trkpt><trkpt lat="39.287819569255056" lon="9.216870321403327"><ele>82.66666666666666</ele><time>2026-04-25T13:01:32Z</time></trkpt><trkpt lat="39.28785410263661" lon="9.216964443919746"><ele>82.33333333333333</ele><time>2026-04-25T13:01:33Z</time></trkpt><trkpt lat="39.28789960359209" lon="9.217048595456934"><ele>82.0</ele><time>2026-04-25T13:01:34Z</time></trkpt><trkpt lat="39.287929696432165" lon="9.217158931487376"><ele>82.0</ele><time>2026-04-25T13:01:35Z</time></trkpt><trkpt lat="39.287916638489754" lon="9.217286730060323"><ele>82.0</ele><time>2026-04-25T13:01:36Z</time></trkpt><trkpt lat="39.287877189474145" lon="9.21742914736867"><ele>82.0</ele><time>2026-04-25T13:01:37Z</time></trkpt><trkpt lat="39.2878260718749" lon="9.217578241675131"><ele>82.0</ele><time>2026-04-25T13:01:38Z</time></trkpt><trkpt lat="39.28777507166082" lon="9.217735899720847"><ele>82.75</ele><time>2026-04-25T13:01:39Z</time></trkpt><trkpt lat="39.28772932498214" lon="9.217895858051827"><ele>83.5</ele><time>2026-04-25T13:01:40Z</time></trkpt><trkpt lat="39.287679401065475" lon="9.218064365639334"><ele>84.25</ele><time>2026-04-25T13:01:41Z</time></trkpt><trkpt lat="39.28762376463593" lon="9.218240006249959"><ele>85.0</ele><time>2026-04-25T13:01:42Z</time></trkpt><trkpt lat="39.287564446235436" lon="9.218422687799102"><ele>85.33333333333333</ele><time>2026-04-25T13:01:43Z</time></trkpt><trkpt lat="39.28750548432987" lon="9.218603411582851"><ele>85.66666666666667</ele><time>2026-04-25T13:01:44Z</time></trkpt><trkpt lat="39.28744488284685" lon="9.218786145260927"><ele>86.0</ele><time>2026-04-25T13:01:45Z</time></trkpt><trkpt lat="39.28738431707998" lon="9.21897227368105"><ele>86.66666666666667</ele><time>2026-04-25T13:01:46Z</time></trkpt><trkpt lat="39.28732762171556" lon="9.219164558425677"><ele>87.33333333333333</ele><time>2026-04-25T13:01:47Z</time></trkpt><trkpt lat="39.287272895898376" lon="9.219352093885947"><ele>88.0</ele><time>2026-04-25T13:01:48Z</time></trkpt><trkpt lat="39.28721866063267" lon="9.21952490984293"><ele>86.75</ele><time>2026-04-25T13:01:49Z</time></trkpt><trkpt lat="39.287167026227785" lon="9.21968950199605"><ele>85.5</ele><time>2026-04-25T13:01:50Z</time></trkpt><trkpt lat="39.287119297051866" lon="9.219847803582528"><ele>84.25</ele><time>2026-04-25T13:01:51Z</time></trkpt><trkpt lat="39.28707450232164" lon="9.22000209483878"><ele>83.0</ele><time>2026-04-25T13:01:52Z</time></trkpt><trkpt lat="39.28702974168819" lon="9.2201485323957"><ele>83.0</ele><time>2026-04-25T13:01:53Z</time></trkpt><trkpt lat="39.28698307156449" lon="9.220290444723314"><ele>83.0</ele><time>2026-04-25T13:01:54Z</time></trkpt><trkpt lat="39.28693989373913" lon="9.22042417483312"><ele>83.0</ele><time>2026-04-25T13:01:55Z</time></trkpt><trkpt lat="39.28690091861933" lon="9.220556165048313"><ele>83.0</ele><time>2026-04-25T13:01:56Z</time></trkpt><trkpt lat="39.28686410828566" lon="9.220680895808586"><ele>83.0</ele><time>2026-04-25T13:01:57Z</time></trkpt><trkpt lat="39.286828308031566" lon="9.22079690258796"><ele>83.2</ele><time>2026-04-25T13:01:58Z</time></trkpt><trkpt lat="39.28679751740081" lon="9.220905504312912"><ele>83.4</ele><time>2026-04-25T13:01:59Z</time></trkpt><trkpt lat="39.28677132438544" lon="9.221013882752924"><ele>83.60000000000001</ele><time>2026-04-25T13:02:00Z</time></trkpt><trkpt lat="39.2867238911051" lon="9.221119130811307"><ele>83.80000000000001</ele><time>2026-04-25T13:02:01Z</time></trkpt><trkpt lat="39.286687823278974" lon="9.221234716352612"><ele>84.0</ele><time>2026-04-25T13:02:02Z</time></trkpt><trkpt lat="39.28664981231949" lon="9.221356529015369"><ele>84.0</ele><time>2026-04-25T13:02:03Z</time></trkpt><trkpt lat="39.286610757519426" lon="9.221481686829513"><ele>84.0</ele><time>2026-04-25T13:02:04Z</time></trkpt><trkpt lat="39.2865707915986" lon="9.22160976448882"><ele>84.0</ele><time>2026-04-25T13:02:05Z</time></trkpt><trkpt lat="39.28653072797822" lon="9.221738155237306"><ele>84.0</ele><time>2026-04-25T13:02:06Z</time></trkpt><trkpt lat="39.28649033484468" lon="9.221867601973956"><ele>84.0</ele><time>2026-04-25T13:02:07Z</time></trkpt><trkpt lat="39.286449792868915" lon="9.221997525701639"><ele>83.6</ele><time>2026-04-25T13:02:08Z</time></trkpt><trkpt lat="39.28641017415809" lon="9.222124490659576"><ele>83.2</ele><time>2026-04-25T13:02:09Z</time></trkpt><trkpt lat="39.28637192814098" lon="9.222247056590895"><ele>82.8</ele><time>2026-04-25T13:02:10Z</time></trkpt><trkpt lat="39.28633577958263" lon="9.222362901194492"><ele>82.39999999999999</ele><time>2026-04-25T13:02:11Z</time></trkpt><trkpt lat="39.28632308122608" lon="9.222496182773929"><ele>82.0</ele><time>2026-04-25T13:02:12Z</time></trkpt><trkpt lat="39.28628327597719" lon="9.222616307335699"><ele>82.0</ele><time>2026-04-25T13:02:13Z</time></trkpt><trkpt lat="39.286244349696496" lon="9.222739162517671"><ele>82.0</ele><time>2026-04-25T13:02:14Z</time></trkpt><trkpt lat="39.286212046001296" lon="9.222857388617642"><ele>82.0</ele><time>2026-04-25T13:02:15Z</time></trkpt><trkpt lat="39.286176580994486" lon="9.222975377286229"><ele>82.0</ele><time>2026-04-25T13:02:16Z</time></trkpt><trkpt lat="39.28614061166756" lon="9.223096995807719"><ele>82.0</ele><time>2026-04-25T13:02:17Z</time></trkpt><trkpt lat="39.28610289198415" lon="9.223217414351142"><ele>82.6</ele><time>2026-04-25T13:02:18Z</time></trkpt><trkpt lat="39.28603598299685" lon="9.223322400600992"><ele>83.19999999999999</ele><time>2026-04-25T13:02:19Z</time></trkpt><trkpt lat="39.28601328926357" lon="9.223446298490861"><ele>83.8</ele><time>2026-04-25T13:02:20Z</time></trkpt><trkpt lat="39.28596589803601" lon="9.223551140467947"><ele>84.4</ele><time>2026-04-25T13:02:21Z</time></trkpt><trkpt lat="39.285928596041835" lon="9.223658214580336"><ele>85.0</ele><time>2026-04-25T13:02:22Z</time></trkpt><trkpt lat="39.2858965606091" lon="9.223758371318848"><ele>85.0</ele><time>2026-04-25T13:02:23Z</time></trkpt><trkpt lat="39.285862515447455" lon="9.223848361698636"><ele>85.0</ele><time>2026-04-25T13:02:24Z</time></trkpt><trkpt lat="39.28582197029869" lon="9.223922355074924"><ele>85.0</ele><time>2026-04-25T13:02:25Z</time></trkpt><trkpt lat="39.28577027544685" lon="9.22397329342576"><ele>85.0</ele><time>2026-04-25T13:02:26Z</time></trkpt><trkpt lat="39.28569814064697" lon="9.224099359817933"><ele>85.0</ele><time>2026-04-25T13:02:28Z</time></trkpt><trkpt lat="39.285759282052986" lon="9.224241240351894"><ele>84.66666666666666</ele><time>2026-04-25T13:02:30Z</time></trkpt><trkpt lat="39.28582362832076" lon="9.224269876023873"><ele>84.33333333333333</ele><time>2026-04-25T13:02:31Z</time></trkpt><trkpt lat="39.28586895526062" lon="9.22434133871316"><ele>84.0</ele><time>2026-04-25T13:02:32Z</time></trkpt><trkpt lat="39.28590628304689" lon="9.22443879594151"><ele>83.66666666666667</ele><time>2026-04-25T13:02:33Z</time></trkpt><trkpt lat="39.2859520476836" lon="9.224538027780882"><ele>83.33333333333334</ele><time>2026-04-25T13:02:34Z</time></trkpt><trkpt lat="39.28600247616804" lon="9.224640453631597"><ele>83.0</ele><time>2026-04-25T13:02:35Z</time></trkpt><trkpt lat="39.2860544358494" lon="9.224748030172636"><ele>83.2</ele><time>2026-04-25T13:02:36Z</time></trkpt><trkpt lat="39.28610424890487" lon="9.224853952226745"><ele>83.4</ele><time>2026-04-25T13:02:37Z</time></trkpt><trkpt lat="39.28615030697371" lon="9.224962098334945"><ele>83.60000000000001</ele><time>2026-04-25T13:02:38Z</time></trkpt><trkpt lat="39.28619869660269" lon="9.225066321457001"><ele>83.80000000000001</ele><time>2026-04-25T13:02:39Z</time></trkpt><trkpt lat="39.28625078570886" lon="9.225166709388043"><ele>84.0</ele><time>2026-04-25T13:02:40Z</time></trkpt><trkpt lat="39.286296981035406" lon="9.225268257600323"><ele>84.0</ele><time>2026-04-25T13:02:41Z</time></trkpt><trkpt lat="39.28634012757094" lon="9.225370510988357"><ele>84.0</ele><time>2026-04-25T13:02:42Z</time></trkpt><trkpt lat="39.286385805951575" lon="9.225458815549013"><ele>84.0</ele><time>2026-04-25T13:02:43Z</time></trkpt><trkpt lat="39.28643019914425" lon="9.225543369085765"><ele>84.0</ele><time>2026-04-25T13:02:44Z</time></trkpt><trkpt lat="39.28646358732112" lon="9.225626067926143"><ele>84.0</ele><time>2026-04-25T13:02:45Z</time></trkpt><trkpt lat="39.28649818454945" lon="9.225709252401277"><ele>84.0</ele><time>2026-04-25T13:02:46Z</time></trkpt><trkpt lat="39.28654169906246" lon="9.22579146743164"><ele>84.0</ele><time>2026-04-25T13:02:47Z</time></trkpt><trkpt lat="39.28658653641394" lon="9.225875493450568"><ele>84.0</ele><time>2026-04-25T13:02:48Z</time></trkpt><trkpt lat="39.28662922201075" lon="9.225968927942462"><ele>84.0</ele><time>2026-04-25T13:02:49Z</time></trkpt><trkpt lat="39.28667497559954" lon="9.22606344104518"><ele>84.0</ele><time>2026-04-25T13:02:50Z</time></trkpt><trkpt lat="39.28672257073462" lon="9.226159672457372"><ele>84.0</ele><time>2026-04-25T13:02:51Z</time></trkpt><trkpt lat="39.286765589042574" lon="9.226255860183388"><ele>84.0</ele><time>2026-04-25T13:02:52Z</time></trkpt><trkpt lat="39.286804830369604" lon="9.226345602548358"><ele>84.0</ele><time>2026-04-25T13:02:53Z</time></trkpt><trkpt lat="39.28684032432478" lon="9.226430091445293"><ele>84.0</ele><time>2026-04-25T13:02:54Z</time></trkpt><trkpt lat="39.286865545976454" lon="9.226512591303948"><ele>84.0</ele><time>2026-04-25T13:02:55Z</time></trkpt><trkpt lat="39.28687389168468" lon="9.226597574991263"><ele>84.0</ele><time>2026-04-25T13:02:56Z</time></trkpt><trkpt lat="39.28681187128241" lon="9.226724605231793"><ele>84.0</ele><time>2026-04-25T13:02:58Z</time></trkpt><trkpt lat="39.28671883266658" lon="9.226827560651817"><ele>84.0</ele><time>2026-04-25T13:03:00Z</time></trkpt><trkpt lat="39.286668119613935" lon="9.226883679371662"><ele>84.0</ele><time>2026-04-25T13:03:01Z</time></trkpt><trkpt lat="39.2866148842386" lon="9.22694258925287"><ele>84.0</ele><time>2026-04-25T13:03:02Z</time></trkpt><trkpt lat="39.28655912800938" lon="9.227005637162888"><ele>84.0</ele><time>2026-04-25T13:03:03Z</time></trkpt><trkpt lat="39.28650136794713" lon="9.227073293458522"><ele>84.0</ele><time>2026-04-25T13:03:04Z</time></trkpt><trkpt lat="39.28643908601258" lon="9.227146246318478"><ele>84.0</ele><time>2026-04-25T13:03:05Z</time></trkpt><trkpt lat="39.286385792182834" lon="9.22723520388191"><ele>84.0</ele><time>2026-04-25T13:03:06Z</time></trkpt><trkpt lat="39.286316072506274" lon="9.227312861202666"><ele>84.0</ele><time>2026-04-25T13:03:07Z</time></trkpt><trkpt lat="39.286245021344136" lon="9.227393081414514"><ele>84.0</ele><time>2026-04-25T13:03:08Z</time></trkpt><trkpt lat="39.28616844415865" lon="9.227473969665645"><ele>84.0</ele><time>2026-04-25T13:03:09Z</time></trkpt><trkpt lat="39.28609607131772" lon="9.227560828668862"><ele>84.0</ele><time>2026-04-25T13:03:10Z</time></trkpt><trkpt lat="39.28602664338178" lon="9.227660502926547"><ele>84.0</ele><time>2026-04-25T13:03:11Z</time></trkpt><trkpt lat="39.28595614044077" lon="9.227760653530924"><ele>84.0</ele><time>2026-04-25T13:03:12Z</time></trkpt><trkpt lat="39.285887300289495" lon="9.227844745561681"><ele>84.0</ele><time>2026-04-25T13:03:13Z</time></trkpt><trkpt lat="39.285828599166415" lon="9.22791417836792"><ele>84.0</ele><time>2026-04-25T13:03:14Z</time></trkpt><trkpt lat="39.28575959964201" lon="9.2279782197776"><ele>84.0</ele><time>2026-04-25T13:03:15Z</time></trkpt><trkpt lat="39.28567873075783" lon="9.2280291169789"><ele>84.0</ele><time>2026-04-25T13:03:16Z</time></trkpt><trkpt lat="39.28559899385404" lon="9.228060176480204"><ele>84.0</ele><time>2026-04-25T13:03:17Z</time></trkpt><trkpt lat="39.2855128346019" lon="9.228086726613654"><ele>83.6</ele><time>2026-04-25T13:03:18Z</time></trkpt><trkpt lat="39.28541952750041" lon="9.228117363618349"><ele>83.2</ele><time>2026-04-25T13:03:19Z</time></trkpt><trkpt lat="39.28531971336567" lon="9.228139232726702"><ele>82.8</ele><time>2026-04-25T13:03:20Z</time></trkpt><trkpt lat="39.28521575987092" lon="9.228154476125138"><ele>82.39999999999999</ele><time>2026-04-25T13:03:21Z</time></trkpt><trkpt lat="39.28512108842272" lon="9.228173617914175"><ele>82.0</ele><time>2026-04-25T13:03:22Z</time></trkpt><trkpt lat="39.28503873194632" lon="9.228192539945924"><ele>81.99999999999999</ele><time>2026-04-25T13:03:23Z</time></trkpt><trkpt lat="39.2849601315233" lon="9.228214585290885"><ele>82.0</ele><time>2026-04-25T13:03:24Z</time></trkpt><trkpt lat="39.28488414040757" lon="9.22823704545551"><ele>82.0</ele><time>2026-04-25T13:03:25Z</time></trkpt><trkpt lat="39.284811110721044" lon="9.228256311845971"><ele>82.0</ele><time>2026-04-25T13:03:26Z</time></trkpt><trkpt lat="39.284739831864066" lon="9.22827310962539"><ele>82.0</ele><time>2026-04-25T13:03:27Z</time></trkpt><trkpt lat="39.28466938832281" lon="9.228288555829547"><ele>81.99999999999999</ele><time>2026-04-25T13:03:28Z</time></trkpt><trkpt lat="39.28460526977896" lon="9.228303326538091"><ele>82.0</ele><time>2026-04-25T13:03:29Z</time></trkpt><trkpt lat="39.28450105585547" lon="9.22832236946908"><ele>81.66666666666666</ele><time>2026-04-25T13:03:31Z</time></trkpt><trkpt lat="39.28454977647621" lon="9.228497555721184"><ele>81.33333333333333</ele><time>2026-04-25T13:03:34Z</time></trkpt><trkpt lat="39.284582127381306" lon="9.228567388346475"><ele>81.0</ele><time>2026-04-25T13:03:35Z</time></trkpt><trkpt lat="39.284617416623774" lon="9.228646209958923"><ele>80.66666666666667</ele><time>2026-04-25T13:03:36Z</time></trkpt><trkpt lat="39.284653456417075" lon="9.228736430123158"><ele>80.33333333333334</ele><time>2026-04-25T13:03:37Z</time></trkpt><trkpt lat="39.28468557116729" lon="9.228812664705398"><ele>80.0</ele><time>2026-04-25T13:03:38Z</time></trkpt><trkpt lat="39.28472071271502" lon="9.228888040153253"><ele>80.0</ele><time>2026-04-25T13:03:39Z</time></trkpt><trkpt lat="39.2847622568267" lon="9.228971074912973"><ele>80.0</ele><time>2026-04-25T13:03:40Z</time></trkpt><trkpt lat="39.284806922570766" lon="9.22905793602262"><ele>80.0</ele><time>2026-04-25T13:03:41Z</time></trkpt><trkpt lat="39.284861754221765" lon="9.229153583251392"><ele>80.0</ele><time>2026-04-25T13:03:42Z</time></trkpt><trkpt lat="39.28491259314658" lon="9.229255345338904"><ele>80.0</ele><time>2026-04-25T13:03:43Z</time></trkpt><trkpt lat="39.28496862055624" lon="9.229360503052963"><ele>80.0</ele><time>2026-04-25T13:03:44Z</time></trkpt><trkpt lat="39.285023316791424" lon="9.229465617413172"><ele>80.4</ele><time>2026-04-25T13:03:45Z</time></trkpt><trkpt lat="39.285075725089314" lon="9.229571647258126"><ele>80.8</ele><time>2026-04-25T13:03:46Z</time></trkpt><trkpt lat="39.2851283217118" lon="9.229681268564565"><ele>81.19999999999999</ele><time>2026-04-25T13:03:47Z</time></trkpt><trkpt lat="39.28518359010366" lon="9.22979382487462"><ele>81.6</ele><time>2026-04-25T13:03:48Z</time></trkpt><trkpt lat="39.28523835072128" lon="9.229897136079218"><ele>82.0</ele><time>2026-04-25T13:03:49Z</time></trkpt><trkpt lat="39.28528585546879" lon="9.229989488665444"><ele>82.0</ele><time>2026-04-25T13:03:50Z</time></trkpt><trkpt lat="39.28533035472685" lon="9.23007352773502"><ele>82.0</ele><time>2026-04-25T13:03:51Z</time></trkpt><trkpt lat="39.285372341210596" lon="9.230141649601846"><ele>82.0</ele><time>2026-04-25T13:03:52Z</time></trkpt><trkpt lat="39.2854126819054" lon="9.23022380709831"><ele>82.0</ele><time>2026-04-25T13:03:55Z</time></trkpt><trkpt lat="39.28545172981579" lon="9.230304275365187"><ele>82.0</ele><time>2026-04-25T13:04:00Z</time></trkpt><trkpt lat="39.28553299671189" lon="9.230448910904782"><ele>82.0</ele><time>2026-04-25T13:04:02Z</time></trkpt><trkpt lat="39.28556655655016" lon="9.230531597064193"><ele>82.0</ele><time>2026-04-25T13:04:03Z</time></trkpt><trkpt lat="39.285609772800136" lon="9.230626423766315"><ele>82.0</ele><time>2026-04-25T13:04:04Z</time></trkpt><trkpt lat="39.28566042129626" lon="9.230717115732006"><ele>82.0</ele><time>2026-04-25T13:04:05Z</time></trkpt><trkpt lat="39.285713848714906" lon="9.230825975383938"><ele>82.0</ele><time>2026-04-25T13:04:06Z</time></trkpt><trkpt lat="39.28576490025353" lon="9.230935086982033"><ele>82.0</ele><time>2026-04-25T13:04:07Z</time></trkpt><trkpt lat="39.28581213791434" lon="9.2310353442034"><ele>82.0</ele><time>2026-04-25T13:04:08Z</time></trkpt><trkpt lat="39.28585561003166" lon="9.231127668471185"><ele>82.0</ele><time>2026-04-25T13:04:09Z</time></trkpt><trkpt lat="39.285901149841685" lon="9.231223051698805"><ele>82.0</ele><time>2026-04-25T13:04:10Z</time></trkpt><trkpt lat="39.28595169107111" lon="9.231318135641743"><ele>82.0</ele><time>2026-04-25T13:04:11Z</time></trkpt><trkpt lat="39.28600111823015" lon="9.231412958589837"><ele>82.0</ele><time>2026-04-25T13:04:12Z</time></trkpt><trkpt lat="39.28604745105441" lon="9.231514798170576"><ele>82.0</ele><time>2026-04-25T13:04:13Z</time></trkpt><trkpt lat="39.28609191156191" lon="9.231608876117471"><ele>82.0</ele><time>2026-04-25T13:04:14Z</time></trkpt><trkpt lat="39.2861358008195" lon="9.231704000892897"><ele>82.0</ele><time>2026-04-25T13:04:15Z</time></trkpt><trkpt lat="39.286179759653905" lon="9.231794708059226"><ele>82.0</ele><time>2026-04-25T13:04:16Z</time></trkpt><trkpt lat="39.28622616730688" lon="9.231886201662512"><ele>82.0</ele><time>2026-04-25T13:04:17Z</time></trkpt><trkpt lat="39.286270942088805" lon="9.231981217588107"><ele>82.0</ele><time>2026-04-25T13:04:18Z</time></trkpt><trkpt lat="39.28631854340404" lon="9.232077820729094"><ele>82.0</ele><time>2026-04-25T13:04:19Z</time></trkpt><trkpt lat="39.28636731398049" lon="9.232176267367153"><ele>82.0</ele><time>2026-04-25T13:04:20Z</time></trkpt><trkpt lat="39.286414093115084" lon="9.232277159439247"><ele>82.0</ele><time>2026-04-25T13:04:21Z</time></trkpt><trkpt lat="39.28646227951077" lon="9.232380209912154"><ele>82.0</ele><time>2026-04-25T13:04:22Z</time></trkpt><trkpt lat="39.286505688714904" lon="9.232472364091143"><ele>82.0</ele><time>2026-04-25T13:04:23Z</time></trkpt><trkpt lat="39.28654968166649" lon="9.23256132877792"><ele>82.0</ele><time>2026-04-25T13:04:24Z</time></trkpt><trkpt lat="39.28659460548785" lon="9.23264699388209"><ele>82.0</ele><time>2026-04-25T13:04:25Z</time></trkpt><trkpt lat="39.28663844051856" lon="9.232737849970398"><ele>82.5</ele><time>2026-04-25T13:04:26Z</time></trkpt><trkpt lat="39.286680582218374" lon="9.232829714328087"><ele>83.0</ele><time>2026-04-25T13:04:27Z</time></trkpt><trkpt lat="39.28672606336872" lon="9.232918282669887"><ele>83.5</ele><time>2026-04-25T13:04:28Z</time></trkpt><trkpt lat="39.28677043403187" lon="9.233010575627134"><ele>84.0</ele><time>2026-04-25T13:04:29Z</time></trkpt><trkpt lat="39.28681368343064" lon="9.233102295586566"><ele>84.5</ele><time>2026-04-25T13:04:30Z</time></trkpt><trkpt lat="39.286856051283436" lon="9.23318696382208"><ele>85.0</ele><time>2026-04-25T13:04:31Z</time></trkpt><trkpt lat="39.28689341950992" lon="9.23326476455984"><ele>85.0</ele><time>2026-04-25T13:04:32Z</time></trkpt><trkpt lat="39.286929419874575" lon="9.233339406641974"><ele>85.0</ele><time>2026-04-25T13:04:33Z</time></trkpt><trkpt lat="39.28697744483799" lon="9.233451378156637"><ele>85.0</ele><time>2026-04-25T13:04:35Z</time></trkpt><trkpt lat="39.28704399458355" lon="9.233519497615232"><ele>85.0</ele><time>2026-04-25T13:04:39Z</time></trkpt><trkpt lat="39.28697188180596" lon="9.233655986028031"><ele>85.0</ele><time>2026-04-25T13:04:40Z</time></trkpt><trkpt lat="39.286933570376284" lon="9.233737543351024"><ele>85.0</ele><time>2026-04-25T13:04:41Z</time></trkpt><trkpt lat="39.28689782168062" lon="9.23381846697504"><ele>85.0</ele><time>2026-04-25T13:04:42Z</time></trkpt><trkpt lat="39.28685669238658" lon="9.233914596451028"><ele>85.0</ele><time>2026-04-25T13:04:43Z</time></trkpt><trkpt lat="39.28680941121434" lon="9.234020795341289"><ele>85.0</ele><time>2026-04-25T13:04:44Z</time></trkpt><trkpt lat="39.28675509993143" lon="9.234126230377802"><ele>85.0</ele><time>2026-04-25T13:04:45Z</time></trkpt><trkpt lat="39.286693702476775" lon="9.234236649663808"><ele>85.0</ele><time>2026-04-25T13:04:46Z</time></trkpt><trkpt lat="39.286624979305614" lon="9.23435356011574"><ele>85.0</ele><time>2026-04-25T13:04:47Z</time></trkpt><trkpt lat="39.28655225825603" lon="9.234474146371547"><ele>85.0</ele><time>2026-04-25T13:04:48Z</time></trkpt><trkpt lat="39.28648116184913" lon="9.23459376540197"><ele>85.0</ele><time>2026-04-25T13:04:49Z</time></trkpt><trkpt lat="39.28640587223216" lon="9.234714541883896"><ele>84.25</ele><time>2026-04-25T13:04:50Z</time></trkpt><trkpt lat="39.286322138325744" lon="9.234835330629757"><ele>83.5</ele><time>2026-04-25T13:04:51Z</time></trkpt><trkpt lat="39.28623167622616" lon="9.234950733223"><ele>82.75</ele><time>2026-04-25T13:04:52Z</time></trkpt><trkpt lat="39.28614044675062" lon="9.235056068552925"><ele>82.0</ele><time>2026-04-25T13:04:53Z</time></trkpt><trkpt lat="39.286053342189746" lon="9.235157024327005"><ele>82.0</ele><time>2026-04-25T13:04:54Z</time></trkpt><trkpt lat="39.285965179226054" lon="9.23526143786372"><ele>82.0</ele><time>2026-04-25T13:04:55Z</time></trkpt><trkpt lat="39.285872827236545" lon="9.235368868962992"><ele>82.0</ele><time>2026-04-25T13:04:56Z</time></trkpt><trkpt lat="39.28577255181167" lon="9.235477207232993"><ele>82.0</ele><time>2026-04-25T13:04:57Z</time></trkpt><trkpt lat="39.285664549178314" lon="9.235585734761067"><ele>81.5</ele><time>2026-04-25T13:04:58Z</time></trkpt><trkpt lat="39.28555390127588" lon="9.23569577554002"><ele>81.0</ele><time>2026-04-25T13:04:59Z</time></trkpt><trkpt lat="39.28544217624443" lon="9.235809983483115"><ele>80.5</ele><time>2026-04-25T13:05:00Z</time></trkpt><trkpt lat="39.28532925127314" lon="9.235927490476275"><ele>80.0</ele><time>2026-04-25T13:05:01Z</time></trkpt><trkpt lat="39.285221609078405" lon="9.23605088777978"><ele>80.0</ele><time>2026-04-25T13:05:02Z</time></trkpt><trkpt lat="39.28511781939905" lon="9.23618071818031"><ele>80.0</ele><time>2026-04-25T13:05:03Z</time></trkpt><trkpt lat="39.285019376497495" lon="9.236317942116955"><ele>80.0</ele><time>2026-04-25T13:05:04Z</time></trkpt><trkpt lat="39.284925901037276" lon="9.236456865558234"><ele>80.0</ele><time>2026-04-25T13:05:05Z</time></trkpt><trkpt lat="39.28483046973324" lon="9.236593675719472"><ele>79.25</ele><time>2026-04-25T13:05:06Z</time></trkpt><trkpt lat="39.28473559871667" lon="9.236730690496069"><ele>78.5</ele><time>2026-04-25T13:05:07Z</time></trkpt><trkpt lat="39.284636677843956" lon="9.236871077810836"><ele>77.75</ele><time>2026-04-25T13:05:08Z</time></trkpt><trkpt lat="39.284534719886494" lon="9.23701285449011"><ele>77.0</ele><time>2026-04-25T13:05:09Z</time></trkpt><trkpt lat="39.284432256105966" lon="9.237157954882061"><ele>76.66666666666667</ele><time>2026-04-25T13:05:10Z</time></trkpt><trkpt lat="39.2843343330664" lon="9.237307533891611"><ele>76.33333333333333</ele><time>2026-04-25T13:05:11Z</time></trkpt><trkpt lat="39.28424401495253" lon="9.237458923173394"><ele>76.0</ele><time>2026-04-25T13:05:12Z</time></trkpt><trkpt lat="39.284158334133" lon="9.237620651684853"><ele>76.0</ele><time>2026-04-25T13:05:13Z</time></trkpt><trkpt lat="39.284080520704315" lon="9.237784848952751"><ele>76.0</ele><time>2026-04-25T13:05:14Z</time></trkpt><trkpt lat="39.28400907556892" lon="9.237953706592837"><ele>76.0</ele><time>2026-04-25T13:05:15Z</time></trkpt><trkpt lat="39.28394055139425" lon="9.238120264679573"><ele>76.0</ele><time>2026-04-25T13:05:16Z</time></trkpt><trkpt lat="39.283883584329466" lon="9.238295618098846"><ele>75.75</ele><time>2026-04-25T13:05:17Z</time></trkpt><trkpt lat="39.28384251933909" lon="9.23847628170997"><ele>75.5</ele><time>2026-04-25T13:05:18Z</time></trkpt><trkpt lat="39.28380419866895" lon="9.238662470838044"><ele>75.25</ele><time>2026-04-25T13:05:19Z</time></trkpt><trkpt lat="39.28376306955292" lon="9.238847245574004"><ele>75.0</ele><time>2026-04-25T13:05:20Z</time></trkpt><trkpt lat="39.283719761644235" lon="9.239035668882831"><ele>75.0</ele><time>2026-04-25T13:05:21Z</time></trkpt><trkpt lat="39.28367779847541" lon="9.239215752813884"><ele>75.0</ele><time>2026-04-25T13:05:22Z</time></trkpt><trkpt lat="39.283634180374854" lon="9.239399455333736"><ele>75.0</ele><time>2026-04-25T13:05:23Z</time></trkpt><trkpt lat="39.283595032511016" lon="9.239580579433659"><ele>75.0</ele><time>2026-04-25T13:05:24Z</time></trkpt><trkpt lat="39.283555972935304" lon="9.239757446932876"><ele>75.75</ele><time>2026-04-25T13:05:25Z</time></trkpt><trkpt lat="39.28351731550514" lon="9.23993769070917"><ele>76.5</ele><time>2026-04-25T13:05:26Z</time></trkpt><trkpt lat="39.2834823042444" lon="9.240115074193227"><ele>77.25</ele><time>2026-04-25T13:05:27Z</time></trkpt><trkpt lat="39.28344719913847" lon="9.240297375086783"><ele>78.0</ele><time>2026-04-25T13:05:28Z</time></trkpt><trkpt lat="39.2834041826528" lon="9.240477968399142"><ele>78.75</ele><time>2026-04-25T13:05:29Z</time></trkpt><trkpt lat="39.283352269041586" lon="9.24065344473353"><ele>79.5</ele><time>2026-04-25T13:05:30Z</time></trkpt><trkpt lat="39.283298219435046" lon="9.240830796840712"><ele>80.25</ele><time>2026-04-25T13:05:31Z</time></trkpt><trkpt lat="39.28324228226063" lon="9.241009020284526"><ele>81.0</ele><time>2026-04-25T13:05:32Z</time></trkpt><trkpt lat="39.28318203795376" lon="9.24118307805374"><ele>81.0</ele><time>2026-04-25T13:05:33Z</time></trkpt><trkpt lat="39.283121955215414" lon="9.241359884612303"><ele>81.0</ele><time>2026-04-25T13:05:34Z</time></trkpt><trkpt lat="39.283065887527904" lon="9.241537100007445"><ele>81.0</ele><time>2026-04-25T13:05:35Z</time></trkpt><trkpt lat="39.28302008699667" lon="9.241715467344587"><ele>81.0</ele><time>2026-04-25T13:05:36Z</time></trkpt><trkpt lat="39.28298796471421" lon="9.2418964498364"><ele>82.0</ele><time>2026-04-25T13:05:37Z</time></trkpt><trkpt lat="39.28297877605761" lon="9.242090093535758"><ele>83.0</ele><time>2026-04-25T13:05:38Z</time></trkpt><trkpt lat="39.28298963795536" lon="9.242285484152154"><ele>84.0</ele><time>2026-04-25T13:05:39Z</time></trkpt><trkpt lat="39.283008163499716" lon="9.242479819911576"><ele>85.0</ele><time>2026-04-25T13:05:40Z</time></trkpt><trkpt lat="39.283023199710904" lon="9.242671404031917"><ele>86.0</ele><time>2026-04-25T13:05:41Z</time></trkpt><trkpt lat="39.283037836221865" lon="9.24286263061452"><ele>87.0</ele><time>2026-04-25T13:05:42Z</time></trkpt><trkpt lat="39.283044189761455" lon="9.243055551473814"><ele>88.0</ele><time>2026-04-25T13:05:43Z</time></trkpt><trkpt lat="39.283041367655954" lon="9.24324888631681"><ele>89.66666666666666</ele><time>2026-04-25T13:05:44Z</time></trkpt><trkpt lat="39.28303461145727" lon="9.243444199541765"><ele>91.33333333333333</ele><time>2026-04-25T13:05:45Z</time></trkpt><trkpt lat="39.28301977653258" lon="9.243636603135045"><ele>93.0</ele><time>2026-04-25T13:05:46Z</time></trkpt><trkpt lat="39.28299588983669" lon="9.243827093156892"><ele>94.75</ele><time>2026-04-25T13:05:47Z</time></trkpt><trkpt lat="39.28297101497444" lon="9.244016401495236"><ele>96.5</ele><time>2026-04-25T13:05:48Z</time></trkpt><trkpt lat="39.282946516199054" lon="9.244199654302575"><ele>98.25</ele><time>2026-04-25T13:05:49Z</time></trkpt><trkpt lat="39.28292013992941" lon="9.24438191784892"><ele>100.0</ele><time>2026-04-25T13:05:50Z</time></trkpt><trkpt lat="39.282899129983946" lon="9.244560971361688"><ele>100.0</ele><time>2026-04-25T13:05:51Z</time></trkpt><trkpt lat="39.28290262812734" lon="9.244748133725452"><ele>100.0</ele><time>2026-04-25T13:05:52Z</time></trkpt><trkpt lat="39.28291682628021" lon="9.244928794224984"><ele>100.0</ele><time>2026-04-25T13:05:53Z</time></trkpt><trkpt lat="39.282925068225865" lon="9.245102377455556"><ele>100.0</ele><time>2026-04-25T13:05:54Z</time></trkpt><trkpt lat="39.28292946345914" lon="9.245276718475129"><ele>102.0</ele><time>2026-04-25T13:05:55Z</time></trkpt><trkpt lat="39.28292965399847" lon="9.245442991873876"><ele>104.0</ele><time>2026-04-25T13:05:56Z</time></trkpt><trkpt lat="39.28292606927164" lon="9.2455937487911"><ele>106.0</ele><time>2026-04-25T13:05:57Z</time></trkpt><trkpt lat="39.282919291247445" lon="9.245719328998005"><ele>108.0</ele><time>2026-04-25T13:05:58Z</time></trkpt><trkpt lat="39.28290571153487" lon="9.245829653481785"><ele>110.0</ele><time>2026-04-25T13:05:59Z</time></trkpt><trkpt lat="39.28289615928428" lon="9.245945657816302"><ele>111.4</ele><time>2026-04-25T13:06:00Z</time></trkpt><trkpt lat="39.28288171064267" lon="9.246070757449687"><ele>112.8</ele><time>2026-04-25T13:06:01Z</time></trkpt><trkpt lat="39.28286932442948" lon="9.246202657112796"><ele>114.19999999999999</ele><time>2026-04-25T13:06:02Z</time></trkpt><trkpt lat="39.28286355604829" lon="9.24634534018224"><ele>115.6</ele><time>2026-04-25T13:06:03Z</time></trkpt><trkpt lat="39.2828689330088" lon="9.246498044211513"><ele>117.0</ele><time>2026-04-25T13:06:04Z</time></trkpt><trkpt lat="39.28288922576699" lon="9.246657820379646"><ele>117.0</ele><time>2026-04-25T13:06:05Z</time></trkpt><trkpt lat="39.28292743901782" lon="9.246815039901742"><ele>117.0</ele><time>2026-04-25T13:06:06Z</time></trkpt><trkpt lat="39.282970195696436" lon="9.246975476360609"><ele>117.0</ele><time>2026-04-25T13:06:07Z</time></trkpt><trkpt lat="39.283012209980136" lon="9.24713816342512"><ele>117.0</ele><time>2026-04-25T13:06:08Z</time></trkpt><trkpt lat="39.283050120036314" lon="9.247301432142425"><ele>116.75</ele><time>2026-04-25T13:06:09Z</time></trkpt><trkpt lat="39.28308485565945" lon="9.247458872967426"><ele>116.5</ele><time>2026-04-25T13:06:10Z</time></trkpt><trkpt lat="39.2831192005917" lon="9.247624392118238"><ele>116.25</ele><time>2026-04-25T13:06:11Z</time></trkpt><trkpt lat="39.28314950402342" lon="9.247788400386957"><ele>116.0</ele><time>2026-04-25T13:06:12Z</time></trkpt><trkpt lat="39.28317962166582" lon="9.247948673682664"><ele>116.0</ele><time>2026-04-25T13:06:13Z</time></trkpt><trkpt lat="39.283207263920296" lon="9.248105420651955"><ele>116.0</ele><time>2026-04-25T13:06:14Z</time></trkpt><trkpt lat="39.28323429487357" lon="9.24826795333339"><ele>116.0</ele><time>2026-04-25T13:06:15Z</time></trkpt><trkpt lat="39.28326101884322" lon="9.248431326170115"><ele>116.0</ele><time>2026-04-25T13:06:16Z</time></trkpt><trkpt lat="39.283280911260704" lon="9.24859527113582"><ele>114.25</ele><time>2026-04-25T13:06:17Z</time></trkpt><trkpt lat="39.28330128321121" lon="9.248759993212396"><ele>112.5</ele><time>2026-04-25T13:06:18Z</time></trkpt><trkpt lat="39.28333146360017" lon="9.248923085924833"><ele>110.75</ele><time>2026-04-25T13:06:19Z</time></trkpt><trkpt lat="39.283359838790695" lon="9.249092539800655"><ele>109.0</ele><time>2026-04-25T13:06:20Z</time></trkpt><trkpt lat="39.28338643634834" lon="9.249258005270256"><ele>108.25</ele><time>2026-04-25T13:06:21Z</time></trkpt><trkpt lat="39.28340966191451" lon="9.249417064225353"><ele>107.5</ele><time>2026-04-25T13:06:22Z</time></trkpt><trkpt lat="39.2834339978951" lon="9.24957643925891"><ele>106.75</ele><time>2026-04-25T13:06:23Z</time></trkpt><trkpt lat="39.28346192931144" lon="9.249742558500158"><ele>106.0</ele><time>2026-04-25T13:06:24Z</time></trkpt><trkpt lat="39.283491967856854" lon="9.249914929840646"><ele>105.25</ele><time>2026-04-25T13:06:25Z</time></trkpt><trkpt lat="39.283523261248014" lon="9.250092661204864"><ele>104.5</ele><time>2026-04-25T13:06:26Z</time></trkpt><trkpt lat="39.283560758417266" lon="9.25027082124456"><ele>103.75</ele><time>2026-04-25T13:06:27Z</time></trkpt><trkpt lat="39.28359634200202" lon="9.250449947896092"><ele>103.0</ele><time>2026-04-25T13:06:28Z</time></trkpt><trkpt lat="39.283624949628035" lon="9.250627561356842"><ele>101.75</ele><time>2026-04-25T13:06:29Z</time></trkpt><trkpt lat="39.28365391190144" lon="9.250806684220969"><ele>100.5</ele><time>2026-04-25T13:06:30Z</time></trkpt><trkpt lat="39.283685143968405" lon="9.25098515258011"><ele>99.25</ele><time>2026-04-25T13:06:31Z</time></trkpt><trkpt lat="39.28371360392961" lon="9.25116193504049"><ele>98.0</ele><time>2026-04-25T13:06:32Z</time></trkpt><trkpt lat="39.28373925274452" lon="9.251337576380857"><ele>97.5</ele><time>2026-04-25T13:06:33Z</time></trkpt><trkpt lat="39.28376284733638" lon="9.251518175679388"><ele>97.0</ele><time>2026-04-25T13:06:34Z</time></trkpt><trkpt lat="39.283783708485345" lon="9.251702200066443"><ele>96.5</ele><time>2026-04-25T13:06:35Z</time></trkpt><trkpt lat="39.28380269638011" lon="9.251890230863662"><ele>96.0</ele><time>2026-04-25T13:06:36Z</time></trkpt><trkpt lat="39.2838235604163" lon="9.252083040788934"><ele>96.0</ele><time>2026-04-25T13:06:37Z</time></trkpt><trkpt lat="39.283837977295384" lon="9.252269392537647"><ele>96.0</ele><time>2026-04-25T13:06:38Z</time></trkpt><trkpt lat="39.2838542954461" lon="9.25246154406602"><ele>96.0</ele><time>2026-04-25T13:06:39Z</time></trkpt><trkpt lat="39.2838761540013" lon="9.25265719335073"><ele>96.0</ele><time>2026-04-25T13:06:40Z</time></trkpt><trkpt lat="39.28390390292347" lon="9.25284907429495"><ele>95.5</ele><time>2026-04-25T13:06:41Z</time></trkpt><trkpt lat="39.28394744212085" lon="9.25303617351637"><ele>95.0</ele><time>2026-04-25T13:06:42Z</time></trkpt><trkpt lat="39.28399924913916" lon="9.253211955241383"><ele>94.5</ele><time>2026-04-25T13:06:43Z</time></trkpt><trkpt lat="39.284049170808615" lon="9.253379284196459"><ele>94.0</ele><time>2026-04-25T13:06:44Z</time></trkpt><trkpt lat="39.28409741358365" lon="9.253546735893815"><ele>94.0</ele><time>2026-04-25T13:06:45Z</time></trkpt><trkpt lat="39.284145838620745" lon="9.253715808159946"><ele>94.0</ele><time>2026-04-25T13:06:46Z</time></trkpt><trkpt lat="39.28419300866613" lon="9.253879939251286"><ele>94.0</ele><time>2026-04-25T13:06:47Z</time></trkpt><trkpt lat="39.284238157301054" lon="9.254042331958628"><ele>94.0</ele><time>2026-04-25T13:06:48Z</time></trkpt><trkpt lat="39.284279403396454" lon="9.254206012653285"><ele>93.75</ele><time>2026-04-25T13:06:49Z</time></trkpt><trkpt lat="39.28430521658137" lon="9.254377958095091"><ele>93.5</ele><time>2026-04-25T13:06:50Z</time></trkpt><trkpt lat="39.2843146106812" lon="9.254556951959824"><ele>93.25</ele><time>2026-04-25T13:06:51Z</time></trkpt><trkpt lat="39.28432535215786" lon="9.254743109123824"><ele>93.0</ele><time>2026-04-25T13:06:52Z</time></trkpt><trkpt lat="39.284341726259335" lon="9.254930419894215"><ele>92.75</ele><time>2026-04-25T13:06:53Z</time></trkpt><trkpt lat="39.28436402879718" lon="9.255114282015658"><ele>92.5</ele><time>2026-04-25T13:06:54Z</time></trkpt><trkpt lat="39.28439758029088" lon="9.255296051421958"><ele>92.25</ele><time>2026-04-25T13:06:55Z</time></trkpt><trkpt lat="39.284453459035106" lon="9.255468369346577"><ele>92.0</ele><time>2026-04-25T13:06:56Z</time></trkpt><trkpt lat="39.28453468436945" lon="9.255630609503049"><ele>91.75</ele><time>2026-04-25T13:06:57Z</time></trkpt><trkpt lat="39.28462779354817" lon="9.255784242059391"><ele>91.5</ele><time>2026-04-25T13:06:58Z</time></trkpt><trkpt lat="39.28472570838739" lon="9.255926379655538"><ele>91.25</ele><time>2026-04-25T13:06:59Z</time></trkpt><trkpt lat="39.284823030029585" lon="9.256063733334075"><ele>91.0</ele><time>2026-04-25T13:07:00Z</time></trkpt><trkpt lat="39.28492904529348" lon="9.256190387281572"><ele>91.0</ele><time>2026-04-25T13:07:01Z</time></trkpt><trkpt lat="39.28503982573204" lon="9.256310424307726"><ele>91.0</ele><time>2026-04-25T13:07:02Z</time></trkpt><trkpt lat="39.285144412156676" lon="9.256433470578889"><ele>91.0</ele><time>2026-04-25T13:07:03Z</time></trkpt><trkpt lat="39.28524723828202" lon="9.256557840082461"><ele>91.0</ele><time>2026-04-25T13:07:04Z</time></trkpt><trkpt lat="39.28535070878954" lon="9.256686660145371"><ele>91.0</ele><time>2026-04-25T13:07:05Z</time></trkpt><trkpt lat="39.28544939135466" lon="9.256818163816837"><ele>91.0</ele><time>2026-04-25T13:07:06Z</time></trkpt><trkpt lat="39.28553679921735" lon="9.256959044536622"><ele>91.0</ele><time>2026-04-25T13:07:07Z</time></trkpt><trkpt lat="39.28560485896035" lon="9.257119908748775"><ele>91.0</ele><time>2026-04-25T13:07:08Z</time></trkpt><trkpt lat="39.285653125155555" lon="9.257298843293695"><ele>90.66666666666666</ele><time>2026-04-25T13:07:09Z</time></trkpt><trkpt lat="39.28569099105368" lon="9.257489600321797"><ele>90.33333333333333</ele><time>2026-04-25T13:07:10Z</time></trkpt><trkpt lat="39.28572978835422" lon="9.257678860752469"><ele>90.0</ele><time>2026-04-25T13:07:11Z</time></trkpt><trkpt lat="39.285772028436114" lon="9.257866013629474"><ele>90.0</ele><time>2026-04-25T13:07:12Z</time></trkpt><trkpt lat="39.28580891210933" lon="9.258046320646365"><ele>90.0</ele><time>2026-04-25T13:07:13Z</time></trkpt><trkpt lat="39.2858106063127" lon="9.258231242264634"><ele>90.0</ele><time>2026-04-25T13:07:14Z</time></trkpt><trkpt lat="39.28581052658941" lon="9.258416760803069"><ele>90.0</ele><time>2026-04-25T13:07:15Z</time></trkpt><trkpt lat="39.28581472294678" lon="9.258603183720714"><ele>90.0</ele><time>2026-04-25T13:07:16Z</time></trkpt><trkpt lat="39.285815470517974" lon="9.258786711548455"><ele>90.0</ele><time>2026-04-25T13:07:17Z</time></trkpt><trkpt lat="39.28583100001695" lon="9.25896595724473"><ele>90.0</ele><time>2026-04-25T13:07:18Z</time></trkpt><trkpt lat="39.28584372077939" lon="9.259147132603964"><ele>90.0</ele><time>2026-04-25T13:07:19Z</time></trkpt><trkpt lat="39.28585905780634" lon="9.259329983700994"><ele>90.0</ele><time>2026-04-25T13:07:20Z</time></trkpt><trkpt lat="39.285861067878976" lon="9.259513629105909"><ele>90.0</ele><time>2026-04-25T13:07:21Z</time></trkpt><trkpt lat="39.285846523169596" lon="9.25970103809872"><ele>90.0</ele><time>2026-04-25T13:07:22Z</time></trkpt><trkpt lat="39.285821796389875" lon="9.259891757310061"><ele>90.0</ele><time>2026-04-25T13:07:23Z</time></trkpt><trkpt lat="39.285787694997275" lon="9.260080931208039"><ele>91.0</ele><time>2026-04-25T13:07:24Z</time></trkpt><trkpt lat="39.28574566570398" lon="9.26026808549277"><ele>92.0</ele><time>2026-04-25T13:07:25Z</time></trkpt><trkpt lat="39.28570100616158" lon="9.26045683355146"><ele>93.0</ele><time>2026-04-25T13:07:26Z</time></trkpt><trkpt lat="39.28564896166926" lon="9.260643042755728"><ele>92.5</ele><time>2026-04-25T13:07:27Z</time></trkpt><trkpt lat="39.28559766807216" lon="9.260825754992315"><ele>92.0</ele><time>2026-04-25T13:07:28Z</time></trkpt><trkpt lat="39.285552654591825" lon="9.261002852533865"><ele>91.5</ele><time>2026-04-25T13:07:29Z</time></trkpt><trkpt lat="39.28550724489515" lon="9.261172570303051"><ele>91.0</ele><time>2026-04-25T13:07:30Z</time></trkpt><trkpt lat="39.285460930534875" lon="9.261337814108547"><ele>91.25</ele><time>2026-04-25T13:07:31Z</time></trkpt><trkpt lat="39.28541056320277" lon="9.261503396243924"><ele>91.5</ele><time>2026-04-25T13:07:32Z</time></trkpt><trkpt lat="39.285354272091716" lon="9.261674095165796"><ele>91.75</ele><time>2026-04-25T13:07:33Z</time></trkpt><trkpt lat="39.28528604245664" lon="9.261844962633866"><ele>92.0</ele><time>2026-04-25T13:07:34Z</time></trkpt><trkpt lat="39.28521163432094" lon="9.262013835551151"><ele>92.0</ele><time>2026-04-25T13:07:35Z</time></trkpt><trkpt lat="39.285139524965324" lon="9.262185371553306"><ele>92.0</ele><time>2026-04-25T13:07:36Z</time></trkpt><trkpt lat="39.28507361470841" lon="9.262353942528287"><ele>92.0</ele><time>2026-04-25T13:07:37Z</time></trkpt><trkpt lat="39.285016992563726" lon="9.262512649798246"><ele>92.0</ele><time>2026-04-25T13:07:38Z</time></trkpt><trkpt lat="39.28496853566029" lon="9.262666585862634"><ele>93.0</ele><time>2026-04-25T13:07:39Z</time></trkpt><trkpt lat="39.28492709822855" lon="9.262824399600653"><ele>94.0</ele><time>2026-04-25T13:07:40Z</time></trkpt><trkpt lat="39.28488656827573" lon="9.262989272450827"><ele>95.0</ele><time>2026-04-25T13:07:41Z</time></trkpt><trkpt lat="39.28484552248112" lon="9.263162563073616"><ele>96.0</ele><time>2026-04-25T13:07:42Z</time></trkpt><trkpt lat="39.284815000236875" lon="9.263346968998526"><ele>96.0</ele><time>2026-04-25T13:07:43Z</time></trkpt><trkpt lat="39.28480193686042" lon="9.26353267487239"><ele>96.0</ele><time>2026-04-25T13:07:44Z</time></trkpt><trkpt lat="39.2847998078293" lon="9.263715212852572"><ele>96.0</ele><time>2026-04-25T13:07:45Z</time></trkpt><trkpt lat="39.28478538543445" lon="9.263888864597314"><ele>96.0</ele><time>2026-04-25T13:07:46Z</time></trkpt><trkpt lat="39.28476101897577" lon="9.26405302035354"><ele>96.0</ele><time>2026-04-25T13:07:47Z</time></trkpt><trkpt lat="39.28473999446441" lon="9.264210346713487"><ele>96.0</ele><time>2026-04-25T13:07:48Z</time></trkpt><trkpt lat="39.28472886042998" lon="9.264369913197775"><ele>96.0</ele><time>2026-04-25T13:07:49Z</time></trkpt><trkpt lat="39.28472834371513" lon="9.264540391297597"><ele>96.0</ele><time>2026-04-25T13:07:50Z</time></trkpt><trkpt lat="39.284733959296005" lon="9.26471490039521"><ele>95.75</ele><time>2026-04-25T13:07:51Z</time></trkpt><trkpt lat="39.28473591364751" lon="9.264894317683858"><ele>95.5</ele><time>2026-04-25T13:07:52Z</time></trkpt><trkpt lat="39.28473243887072" lon="9.26506724743697"><ele>95.25</ele><time>2026-04-25T13:07:53Z</time></trkpt><trkpt lat="39.28473253151348" lon="9.265239731555694"><ele>95.0</ele><time>2026-04-25T13:07:54Z</time></trkpt><trkpt lat="39.28473710146028" lon="9.265412632304992"><ele>95.0</ele><time>2026-04-25T13:07:55Z</time></trkpt><trkpt lat="39.2847419056186" lon="9.265588288500117"><ele>95.0</ele><time>2026-04-25T13:07:56Z</time></trkpt><trkpt lat="39.284742836746474" lon="9.265765235333763"><ele>95.0</ele><time>2026-04-25T13:07:57Z</time></trkpt><trkpt lat="39.2847447514027" lon="9.265945294057136"><ele>95.0</ele><time>2026-04-25T13:07:58Z</time></trkpt><trkpt lat="39.284745774120076" lon="9.266128663511664"><ele>94.75</ele><time>2026-04-25T13:07:59Z</time></trkpt><trkpt lat="39.28474376133604" lon="9.266316589629403"><ele>94.5</ele><time>2026-04-25T13:08:00Z</time></trkpt><trkpt lat="39.28474220047201" lon="9.26650765794714"><ele>94.25</ele><time>2026-04-25T13:08:01Z</time></trkpt><trkpt lat="39.28473862841817" lon="9.266692334771687"><ele>94.0</ele><time>2026-04-25T13:08:02Z</time></trkpt><trkpt lat="39.284730180704926" lon="9.266865683019422"><ele>93.75</ele><time>2026-04-25T13:08:03Z</time></trkpt><trkpt lat="39.28471715318337" lon="9.267030710130838"><ele>93.5</ele><time>2026-04-25T13:08:04Z</time></trkpt><trkpt lat="39.284701266419866" lon="9.267197093548635"><ele>93.25</ele><time>2026-04-25T13:08:05Z</time></trkpt><trkpt lat="39.28469854483049" lon="9.267364443151747"><ele>93.0</ele><time>2026-04-25T13:08:06Z</time></trkpt><trkpt lat="39.28471679663523" lon="9.267529995865907"><ele>93.0</ele><time>2026-04-25T13:08:07Z</time></trkpt><trkpt lat="39.28474261216697" lon="9.267690950715801"><ele>93.0</ele><time>2026-04-25T13:08:08Z</time></trkpt><trkpt lat="39.284765479155894" lon="9.267843300109197"><ele>93.0</ele><time>2026-04-25T13:08:09Z</time></trkpt><trkpt lat="39.284776208227555" lon="9.267993966889701"><ele>93.0</ele><time>2026-04-25T13:08:10Z</time></trkpt><trkpt lat="39.28476856833118" lon="9.268152959165512"><ele>92.75</ele><time>2026-04-25T13:08:11Z</time></trkpt><trkpt lat="39.284736210883345" lon="9.268317089475579"><ele>92.5</ele><time>2026-04-25T13:08:12Z</time></trkpt><trkpt lat="39.284690487343816" lon="9.26848468898556"><ele>92.25</ele><time>2026-04-25T13:08:13Z</time></trkpt><trkpt lat="39.284630062319174" lon="9.268647955678837"><ele>92.0</ele><time>2026-04-25T13:08:14Z</time></trkpt><trkpt lat="39.28455332426099" lon="9.26880568249873"><ele>91.75</ele><time>2026-04-25T13:08:15Z</time></trkpt><trkpt lat="39.284469641823435" lon="9.268958945586192"><ele>91.5</ele><time>2026-04-25T13:08:16Z</time></trkpt><trkpt lat="39.28438060397186" lon="9.269109837843263"><ele>91.25</ele><time>2026-04-25T13:08:17Z</time></trkpt><trkpt lat="39.28430017702068" lon="9.269260344755581"><ele>91.0</ele><time>2026-04-25T13:08:18Z</time></trkpt><trkpt lat="39.284230936596266" lon="9.269422397482794"><ele>91.0</ele><time>2026-04-25T13:08:19Z</time></trkpt><trkpt lat="39.2841657735009" lon="9.269586924122635"><ele>91.0</ele><time>2026-04-25T13:08:20Z</time></trkpt><trkpt lat="39.28410599066806" lon="9.269753550907685"><ele>91.0</ele><time>2026-04-25T13:08:21Z</time></trkpt><trkpt lat="39.28405644335373" lon="9.269922640556583"><ele>91.0</ele><time>2026-04-25T13:08:22Z</time></trkpt><trkpt lat="39.28402599282241" lon="9.27009563255722"><ele>90.75</ele><time>2026-04-25T13:08:23Z</time></trkpt><trkpt lat="39.284028171277846" lon="9.270263367235723"><ele>90.5</ele><time>2026-04-25T13:08:24Z</time></trkpt><trkpt lat="39.28404897922678" lon="9.270421438010676"><ele>90.25</ele><time>2026-04-25T13:08:25Z</time></trkpt><trkpt lat="39.28407817731507" lon="9.27056644394586"><ele>90.0</ele><time>2026-04-25T13:08:26Z</time></trkpt><trkpt lat="39.284098919423414" lon="9.270705157788935"><ele>89.8</ele><time>2026-04-25T13:08:27Z</time></trkpt><trkpt lat="39.284118291094344" lon="9.270836529608033"><ele>89.6</ele><time>2026-04-25T13:08:28Z</time></trkpt><trkpt lat="39.28413723374745" lon="9.270958956808055"><ele>89.4</ele><time>2026-04-25T13:08:29Z</time></trkpt><trkpt lat="39.2841602791379" lon="9.27107809566053"><ele>89.2</ele><time>2026-04-25T13:08:30Z</time></trkpt><trkpt lat="39.2841859973322" lon="9.271196510342797"><ele>89.0</ele><time>2026-04-25T13:08:31Z</time></trkpt><trkpt lat="39.284204379043274" lon="9.271311198889034"><ele>89.25</ele><time>2026-04-25T13:08:32Z</time></trkpt><trkpt lat="39.284225828550134" lon="9.271445521347815"><ele>89.5</ele><time>2026-04-25T13:08:33Z</time></trkpt><trkpt lat="39.28424671005814" lon="9.271587838258144"><ele>89.75</ele><time>2026-04-25T13:08:34Z</time></trkpt><trkpt lat="39.28427459977491" lon="9.271731529384645"><ele>90.0</ele><time>2026-04-25T13:08:35Z</time></trkpt><trkpt lat="39.28430560779423" lon="9.271882937499521"><ele>90.0</ele><time>2026-04-25T13:08:36Z</time></trkpt><trkpt lat="39.28433691982768" lon="9.272036846616448"><ele>90.0</ele><time>2026-04-25T13:08:37Z</time></trkpt><trkpt lat="39.28436138532519" lon="9.272193248673739"><ele>90.0</ele><time>2026-04-25T13:08:38Z</time></trkpt><trkpt lat="39.28438174377518" lon="9.272348672102046"><ele>90.0</ele><time>2026-04-25T13:08:39Z</time></trkpt><trkpt lat="39.284391186803624" lon="9.272510010528835"><ele>90.0</ele><time>2026-04-25T13:08:40Z</time></trkpt><trkpt lat="39.28437715534848" lon="9.272664973073008"><ele>90.0</ele><time>2026-04-25T13:08:41Z</time></trkpt><trkpt lat="39.28434144170081" lon="9.272817629862168"><ele>90.0</ele><time>2026-04-25T13:08:42Z</time></trkpt><trkpt lat="39.28429590372549" lon="9.272964626762025"><ele>90.0</ele><time>2026-04-25T13:08:43Z</time></trkpt><trkpt lat="39.28425040832324" lon="9.2731193065616"><ele>89.5</ele><time>2026-04-25T13:08:44Z</time></trkpt><trkpt lat="39.28420545095668" lon="9.273277450057666"><ele>89.0</ele><time>2026-04-25T13:08:45Z</time></trkpt><trkpt lat="39.28416912789702" lon="9.273442894478784"><ele>88.5</ele><time>2026-04-25T13:08:46Z</time></trkpt><trkpt lat="39.28413604515293" lon="9.273614608223467"><ele>88.0</ele><time>2026-04-25T13:08:47Z</time></trkpt><trkpt lat="39.28409709119037" lon="9.273787285664417"><ele>87.75</ele><time>2026-04-25T13:08:48Z</time></trkpt><trkpt lat="39.28405895415626" lon="9.273963632960557"><ele>87.5</ele><time>2026-04-25T13:08:49Z</time></trkpt><trkpt lat="39.28402078901734" lon="9.274143226729976"><ele>87.25</ele><time>2026-04-25T13:08:50Z</time></trkpt><trkpt lat="39.2839839765181" lon="9.274322347552427"><ele>87.0</ele><time>2026-04-25T13:08:51Z</time></trkpt><trkpt lat="39.283946274939275" lon="9.274500255384572"><ele>87.0</ele><time>2026-04-25T13:08:52Z</time></trkpt><trkpt lat="39.28390774435023" lon="9.274680327757197"><ele>87.0</ele><time>2026-04-25T13:08:53Z</time></trkpt><trkpt lat="39.283873976635505" lon="9.274853453795467"><ele>87.0</ele><time>2026-04-25T13:08:54Z</time></trkpt><trkpt lat="39.28384598216995" lon="9.275016582898825"><ele>87.0</ele><time>2026-04-25T13:08:55Z</time></trkpt><trkpt lat="39.28382036573031" lon="9.275166168135412"><ele>86.8</ele><time>2026-04-25T13:08:56Z</time></trkpt><trkpt lat="39.28380605215449" lon="9.275312649554094"><ele>86.6</ele><time>2026-04-25T13:08:57Z</time></trkpt><trkpt lat="39.28378741022884" lon="9.275447524920432"><ele>86.39999999999999</ele><time>2026-04-25T13:08:58Z</time></trkpt><trkpt lat="39.283758225188876" lon="9.275581734715455"><ele>86.19999999999999</ele><time>2026-04-25T13:08:59Z</time></trkpt><trkpt lat="39.2837195317425" lon="9.275729073957928"><ele>86.0</ele><time>2026-04-25T13:09:00Z</time></trkpt><trkpt lat="39.28367871000379" lon="9.275883351287245"><ele>85.25</ele><time>2026-04-25T13:09:01Z</time></trkpt><trkpt lat="39.28363998623198" lon="9.276032199136726"><ele>84.5</ele><time>2026-04-25T13:09:02Z</time></trkpt><trkpt lat="39.28359718477978" lon="9.276171699062017"><ele>83.75</ele><time>2026-04-25T13:09:03Z</time></trkpt><trkpt lat="39.28355945162184" lon="9.27630899941746"><ele>83.0</ele><time>2026-04-25T13:09:04Z</time></trkpt><trkpt lat="39.28352895625455" lon="9.276445922691808"><ele>82.80000000000001</ele><time>2026-04-25T13:09:05Z</time></trkpt><trkpt lat="39.28347675149732" lon="9.276576532860075"><ele>82.6</ele><time>2026-04-25T13:09:06Z</time></trkpt><trkpt lat="39.283431719428016" lon="9.276711339685919"><ele>82.4</ele><time>2026-04-25T13:09:07Z</time></trkpt><trkpt lat="39.28339309736844" lon="9.276832497841212"><ele>82.19999999999999</ele><time>2026-04-25T13:09:08Z</time></trkpt><trkpt lat="39.2833605023526" lon="9.276953811325292"><ele>82.0</ele><time>2026-04-25T13:09:09Z</time></trkpt><trkpt lat="39.28334805543365" lon="9.277093699768708"><ele>82.0</ele><time>2026-04-25T13:09:10Z</time></trkpt><trkpt lat="39.28336284504206" lon="9.277244009608577"><ele>82.0</ele><time>2026-04-25T13:09:11Z</time></trkpt><trkpt lat="39.28338481036521" lon="9.277401022990647"><ele>82.0</ele><time>2026-04-25T13:09:12Z</time></trkpt><trkpt lat="39.28340517708296" lon="9.277561446528473"><ele>82.0</ele><time>2026-04-25T13:09:13Z</time></trkpt><trkpt lat="39.28341913329933" lon="9.277723108483043"><ele>82.25</ele><time>2026-04-25T13:09:14Z</time></trkpt><trkpt lat="39.283432269377315" lon="9.277883865661257"><ele>82.5</ele><time>2026-04-25T13:09:15Z</time></trkpt><trkpt lat="39.28344519374881" lon="9.278041754371824"><ele>82.75</ele><time>2026-04-25T13:09:16Z</time></trkpt><trkpt lat="39.28345895910856" lon="9.278201145824031"><ele>83.0</ele><time>2026-04-25T13:09:17Z</time></trkpt><trkpt lat="39.28347493623155" lon="9.27836310053599"><ele>83.0</ele><time>2026-04-25T13:09:18Z</time></trkpt><trkpt lat="39.2834883444857" lon="9.278528526611035"><ele>83.0</ele><time>2026-04-25T13:09:19Z</time></trkpt><trkpt lat="39.283497270632814" lon="9.278697211874809"><ele>83.0</ele><time>2026-04-25T13:09:20Z</time></trkpt><trkpt lat="39.28349779374807" lon="9.278865753582862"><ele>83.0</ele><time>2026-04-25T13:09:21Z</time></trkpt><trkpt lat="39.283490695923206" lon="9.279035962327473"><ele>83.0</ele><time>2026-04-25T13:09:22Z</time></trkpt><trkpt lat="39.28348803760623" lon="9.279202872508955"><ele>83.0</ele><time>2026-04-25T13:09:23Z</time></trkpt><trkpt lat="39.28348577619084" lon="9.279364794682587"><ele>83.0</ele><time>2026-04-25T13:09:24Z</time></trkpt><trkpt lat="39.283486081856026" lon="9.279517843165852"><ele>83.0</ele><time>2026-04-25T13:09:25Z</time></trkpt><trkpt lat="39.28350752909107" lon="9.279668471934345"><ele>82.75</ele><time>2026-04-25T13:09:26Z</time></trkpt><trkpt lat="39.28353286485503" lon="9.279824186681939"><ele>82.5</ele><time>2026-04-25T13:09:27Z</time></trkpt><trkpt lat="39.28355579346911" lon="9.279991412055011"><ele>82.25</ele><time>2026-04-25T13:09:28Z</time></trkpt><trkpt lat="39.283567223008184" lon="9.280152934484159"><ele>82.0</ele><time>2026-04-25T13:09:29Z</time></trkpt><trkpt lat="39.283561790095604" lon="9.280306527860736"><ele>82.0</ele><time>2026-04-25T13:09:30Z</time></trkpt><trkpt lat="39.28352830167144" lon="9.280458992430507"><ele>82.0</ele><time>2026-04-25T13:09:31Z</time></trkpt><trkpt lat="39.28347075461629" lon="9.280608195536997"><ele>82.0</ele><time>2026-04-25T13:09:32Z</time></trkpt><trkpt lat="39.28338505090223" lon="9.280743767922226"><ele>82.0</ele><time>2026-04-25T13:09:33Z</time></trkpt><trkpt lat="39.283300017504324" lon="9.280869809731453"><ele>82.25</ele><time>2026-04-25T13:09:34Z</time></trkpt><trkpt lat="39.28322024485149" lon="9.280988807393872"><ele>82.5</ele><time>2026-04-25T13:09:35Z</time></trkpt><trkpt lat="39.28315027622951" lon="9.281102921969808"><ele>82.75</ele><time>2026-04-25T13:09:36Z</time></trkpt><trkpt lat="39.283107411268524" lon="9.281235456639195"><ele>83.0</ele><time>2026-04-25T13:09:37Z</time></trkpt><trkpt lat="39.283091038776234" lon="9.281383602733579"><ele>84.5</ele><time>2026-04-25T13:09:38Z</time></trkpt><trkpt lat="39.28311034525886" lon="9.281542940552628"><ele>86.0</ele><time>2026-04-25T13:09:39Z</time></trkpt><trkpt lat="39.283147015104696" lon="9.281703571230112"><ele>87.5</ele><time>2026-04-25T13:09:40Z</time></trkpt><trkpt lat="39.28316900825897" lon="9.281856806439134"><ele>89.0</ele><time>2026-04-25T13:09:41Z</time></trkpt><trkpt lat="39.28317359204711" lon="9.282008731495694"><ele>89.0</ele><time>2026-04-25T13:09:42Z</time></trkpt><trkpt lat="39.28317038460747" lon="9.282166677590139"><ele>89.0</ele><time>2026-04-25T13:09:43Z</time></trkpt><trkpt lat="39.2831603845442" lon="9.282329812779105"><ele>89.0</ele><time>2026-04-25T13:09:44Z</time></trkpt><trkpt lat="39.283146404752614" lon="9.282491356875953"><ele>89.0</ele><time>2026-04-25T13:09:45Z</time></trkpt><trkpt lat="39.28313382855238" lon="9.282645589186965"><ele>89.0</ele><time>2026-04-25T13:09:46Z</time></trkpt><trkpt lat="39.283123520719755" lon="9.282791457124711"><ele>89.0</ele><time>2026-04-25T13:09:47Z</time></trkpt><trkpt lat="39.283116007055426" lon="9.28293296753465"><ele>89.0</ele><time>2026-04-25T13:09:48Z</time></trkpt><trkpt lat="39.28310732515911" lon="9.283070824437727"><ele>89.0</ele><time>2026-04-25T13:09:49Z</time></trkpt><trkpt lat="39.283094344054994" lon="9.283206040976502"><ele>89.0</ele><time>2026-04-25T13:09:50Z</time></trkpt><trkpt lat="39.28307415371608" lon="9.283336242543488"><ele>89.0</ele><time>2026-04-25T13:09:51Z</time></trkpt><trkpt lat="39.28304603471477" lon="9.283466342616116"><ele>89.0</ele><time>2026-04-25T13:09:52Z</time></trkpt><trkpt lat="39.28301041495969" lon="9.283600010056968"><ele>89.0</ele><time>2026-04-25T13:09:53Z</time></trkpt><trkpt lat="39.282961425521606" lon="9.283738508480727"><ele>89.0</ele><time>2026-04-25T13:09:54Z</time></trkpt><trkpt lat="39.282908065160846" lon="9.283882910477718"><ele>89.0</ele><time>2026-04-25T13:09:55Z</time></trkpt><trkpt lat="39.2828507155994" lon="9.284033996129386"><ele>89.0</ele><time>2026-04-25T13:09:56Z</time></trkpt><trkpt lat="39.2827867759083" lon="9.284179120032325"><ele>89.0</ele><time>2026-04-25T13:09:57Z</time></trkpt><trkpt lat="39.282720356990026" lon="9.284332397916844"><ele>89.0</ele><time>2026-04-25T13:09:58Z</time></trkpt><trkpt lat="39.2826519297475" lon="9.284485338876104"><ele>89.0</ele><time>2026-04-25T13:09:59Z</time></trkpt><trkpt lat="39.28258052360291" lon="9.284637004391357"><ele>89.0</ele><time>2026-04-25T13:10:00Z</time></trkpt><trkpt lat="39.28251319962651" lon="9.284793284055734"><ele>89.0</ele><time>2026-04-25T13:10:01Z</time></trkpt><trkpt lat="39.2824534332234" lon="9.284955761230577"><ele>89.0</ele><time>2026-04-25T13:10:02Z</time></trkpt><trkpt lat="39.282396365048854" lon="9.285119667802126"><ele>89.0</ele><time>2026-04-25T13:10:03Z</time></trkpt><trkpt lat="39.28233795448874" lon="9.285280151650918"><ele>89.0</ele><time>2026-04-25T13:10:04Z</time></trkpt><trkpt lat="39.28227351197449" lon="9.285432159756454"><ele>89.0</ele><time>2026-04-25T13:10:05Z</time></trkpt><trkpt lat="39.28220037490458" lon="9.285579280734186"><ele>89.0</ele><time>2026-04-25T13:10:06Z</time></trkpt><trkpt lat="39.282117528355506" lon="9.285719191294326"><ele>89.0</ele><time>2026-04-25T13:10:07Z</time></trkpt><trkpt lat="39.282033877340346" lon="9.285865464578464"><ele>89.0</ele><time>2026-04-25T13:10:08Z</time></trkpt><trkpt lat="39.28194531588323" lon="9.286014890431355"><ele>89.0</ele><time>2026-04-25T13:10:09Z</time></trkpt><trkpt lat="39.281857411190984" lon="9.286166542273197"><ele>89.0</ele><time>2026-04-25T13:10:10Z</time></trkpt><trkpt lat="39.2817652188988" lon="9.286321716359657"><ele>90.0</ele><time>2026-04-25T13:10:11Z</time></trkpt><trkpt lat="39.281670617670386" lon="9.28647746159624"><ele>91.0</ele><time>2026-04-25T13:10:12Z</time></trkpt><trkpt lat="39.28157770661821" lon="9.28663242064047"><ele>92.0</ele><time>2026-04-25T13:10:13Z</time></trkpt><trkpt lat="39.28148393004679" lon="9.286776515703867"><ele>91.75</ele><time>2026-04-25T13:10:14Z</time></trkpt><trkpt lat="39.28139228890233" lon="9.286914557797083"><ele>91.5</ele><time>2026-04-25T13:10:15Z</time></trkpt><trkpt lat="39.281302188226284" lon="9.287053103949502"><ele>91.25</ele><time>2026-04-25T13:10:16Z</time></trkpt><trkpt lat="39.281213975848466" lon="9.287193268878644"><ele>91.0</ele><time>2026-04-25T13:10:17Z</time></trkpt><trkpt lat="39.28112749608493" lon="9.287335463664693"><ele>91.0</ele><time>2026-04-25T13:10:18Z</time></trkpt><trkpt lat="39.281041563765385" lon="9.287475364688795"><ele>91.0</ele><time>2026-04-25T13:10:19Z</time></trkpt><trkpt lat="39.28096181236801" lon="9.28762217165096"><ele>91.0</ele><time>2026-04-25T13:10:20Z</time></trkpt><trkpt lat="39.28089449273064" lon="9.287778225997341"><ele>91.0</ele><time>2026-04-25T13:10:21Z</time></trkpt><trkpt lat="39.28082774196967" lon="9.287932574567439"><ele>91.0</ele><time>2026-04-25T13:10:22Z</time></trkpt><trkpt lat="39.280756967938686" lon="9.288084587408319"><ele>91.0</ele><time>2026-04-25T13:10:23Z</time></trkpt><trkpt lat="39.280691539210906" lon="9.288240383020293"><ele>91.0</ele><time>2026-04-25T13:10:24Z</time></trkpt><trkpt lat="39.28062828259653" lon="9.288396890923153"><ele>91.0</ele><time>2026-04-25T13:10:25Z</time></trkpt><trkpt lat="39.28056369934989" lon="9.288553246356392"><ele>91.0</ele><time>2026-04-25T13:10:26Z</time></trkpt><trkpt lat="39.280494274119015" lon="9.288715948777343"><ele>91.0</ele><time>2026-04-25T13:10:27Z</time></trkpt><trkpt lat="39.28042748917776" lon="9.288884026192012"><ele>91.0</ele><time>2026-04-25T13:10:28Z</time></trkpt><trkpt lat="39.2803734734235" lon="9.289055310595492"><ele>91.0</ele><time>2026-04-25T13:10:29Z</time></trkpt><trkpt lat="39.28032553985357" lon="9.289228310324193"><ele>92.25</ele><time>2026-04-25T13:10:30Z</time></trkpt><trkpt lat="39.28027813111457" lon="9.289400651083824"><ele>93.5</ele><time>2026-04-25T13:10:31Z</time></trkpt><trkpt lat="39.28023851350063" lon="9.289564208213475"><ele>94.75</ele><time>2026-04-25T13:10:32Z</time></trkpt><trkpt lat="39.2802005225865" lon="9.289722687317578"><ele>96.0</ele><time>2026-04-25T13:10:33Z</time></trkpt><trkpt lat="39.28016112200595" lon="9.28987836298721"><ele>96.75</ele><time>2026-04-25T13:10:34Z</time></trkpt><trkpt lat="39.2801216547462" lon="9.290031297833055"><ele>97.5</ele><time>2026-04-25T13:10:35Z</time></trkpt><trkpt lat="39.28009924616776" lon="9.290192106363081"><ele>98.25</ele><time>2026-04-25T13:10:36Z</time></trkpt><trkpt lat="39.28009987604998" lon="9.290363335701215"><ele>99.0</ele><time>2026-04-25T13:10:37Z</time></trkpt><trkpt lat="39.28010721106735" lon="9.290525600688538"><ele>100.0</ele><time>2026-04-25T13:10:38Z</time></trkpt><trkpt lat="39.280113957441785" lon="9.29068646660704"><ele>101.0</ele><time>2026-04-25T13:10:39Z</time></trkpt><trkpt lat="39.280117275888266" lon="9.290843818744657"><ele>102.0</ele><time>2026-04-25T13:10:40Z</time></trkpt><trkpt lat="39.280113986181" lon="9.29099355914984"><ele>103.0</ele><time>2026-04-25T13:10:41Z</time></trkpt><trkpt lat="39.280104900612514" lon="9.291139040875551"><ele>103.0</ele><time>2026-04-25T13:10:42Z</time></trkpt><trkpt lat="39.28007856578998" lon="9.291276656201633"><ele>103.0</ele><time>2026-04-25T13:10:43Z</time></trkpt><trkpt lat="39.28002626551531" lon="9.291409047270696"><ele>103.0</ele><time>2026-04-25T13:10:44Z</time></trkpt><trkpt lat="39.27996690567832" lon="9.291541132403623"><ele>103.0</ele><time>2026-04-25T13:10:45Z</time></trkpt><trkpt lat="39.279902641308595" lon="9.291687218057751"><ele>104.5</ele><time>2026-04-25T13:10:46Z</time></trkpt><trkpt lat="39.2798342825132" lon="9.291828943081965"><ele>106.0</ele><time>2026-04-25T13:10:47Z</time></trkpt><trkpt lat="39.27976638548781" lon="9.291976961515918"><ele>107.5</ele><time>2026-04-25T13:10:48Z</time></trkpt><trkpt lat="39.27969979142808" lon="9.292130512063363"><ele>109.0</ele><time>2026-04-25T13:10:49Z</time></trkpt><trkpt lat="39.279632465864886" lon="9.292291032522266"><ele>111.0</ele><time>2026-04-25T13:10:50Z</time></trkpt><trkpt lat="39.27956114582207" lon="9.292449980259562"><ele>113.0</ele><time>2026-04-25T13:10:51Z</time></trkpt><trkpt lat="39.27948227995173" lon="9.292607002423788"><ele>115.0</ele><time>2026-04-25T13:10:52Z</time></trkpt><trkpt lat="39.27940947244124" lon="9.29277153288194"><ele>117.0</ele><time>2026-04-25T13:10:53Z</time></trkpt><trkpt lat="39.27933511472576" lon="9.292938523617465"><ele>118.66666666666666</ele><time>2026-04-25T13:10:54Z</time></trkpt><trkpt lat="39.279261074427374" lon="9.293106151107708"><ele>120.33333333333333</ele><time>2026-04-25T13:10:55Z</time></trkpt><trkpt lat="39.2791858302597" lon="9.293278244725581"><ele>122.0</ele><time>2026-04-25T13:10:56Z</time></trkpt><trkpt lat="39.279110531926165" lon="9.293449457947757"><ele>122.0</ele><time>2026-04-25T13:10:57Z</time></trkpt><trkpt lat="39.279031599428684" lon="9.293621808588206"><ele>122.0</ele><time>2026-04-25T13:10:58Z</time></trkpt><trkpt lat="39.27894803220836" lon="9.293790990863789"><ele>122.0</ele><time>2026-04-25T13:10:59Z</time></trkpt><trkpt lat="39.278861212114585" lon="9.293960621188518"><ele>123.66666666666666</ele><time>2026-04-25T13:11:00Z</time></trkpt><trkpt lat="39.2787739428746" lon="9.29413141677513"><ele>125.33333333333334</ele><time>2026-04-25T13:11:01Z</time></trkpt><trkpt lat="39.27868666845376" lon="9.294296641853204"><ele>127.0</ele><time>2026-04-25T13:11:02Z</time></trkpt><trkpt lat="39.27859522186347" lon="9.294457985802369"><ele>127.0</ele><time>2026-04-25T13:11:03Z</time></trkpt><trkpt lat="39.278507449029085" lon="9.294614963450005"><ele>127.0</ele><time>2026-04-25T13:11:04Z</time></trkpt><trkpt lat="39.27842243720693" lon="9.294771725597368"><ele>127.0</ele><time>2026-04-25T13:11:05Z</time></trkpt><trkpt lat="39.27833419598951" lon="9.294908527256238"><ele>127.0</ele><time>2026-04-25T13:11:06Z</time></trkpt><trkpt lat="39.27823558583598" lon="9.295040094711648"><ele>128.5</ele><time>2026-04-25T13:11:07Z</time></trkpt><trkpt lat="39.27814301406295" lon="9.295167560611217"><ele>130.0</ele><time>2026-04-25T13:11:08Z</time></trkpt><trkpt lat="39.27805733451389" lon="9.295280408965006"><ele>131.5</ele><time>2026-04-25T13:11:09Z</time></trkpt><trkpt lat="39.277980057681305" lon="9.29538710200732"><ele>133.0</ele><time>2026-04-25T13:11:10Z</time></trkpt><trkpt lat="39.27791032972445" lon="9.295499463677412"><ele>133.5</ele><time>2026-04-25T13:11:11Z</time></trkpt><trkpt lat="39.27783887216289" lon="9.295611994956555"><ele>134.0</ele><time>2026-04-25T13:11:12Z</time></trkpt><trkpt lat="39.27776312561933" lon="9.295726957912144"><ele>134.5</ele><time>2026-04-25T13:11:13Z</time></trkpt><trkpt lat="39.277679106312874" lon="9.2958382473993"><ele>135.0</ele><time>2026-04-25T13:11:14Z</time></trkpt><trkpt lat="39.27758739247438" lon="9.29594985641247"><ele>135.0</ele><time>2026-04-25T13:11:15Z</time></trkpt><trkpt lat="39.27749621393887" lon="9.296069385105652"><ele>135.0</ele><time>2026-04-25T13:11:16Z</time></trkpt><trkpt lat="39.277405526917484" lon="9.296186187511003"><ele>135.0</ele><time>2026-04-25T13:11:17Z</time></trkpt><trkpt lat="39.27731127508562" lon="9.296298127222826"><ele>135.0</ele><time>2026-04-25T13:11:18Z</time></trkpt><trkpt lat="39.277216223810775" lon="9.296410555728519"><ele>134.0</ele><time>2026-04-25T13:11:19Z</time></trkpt><trkpt lat="39.27712257562024" lon="9.296516194630229"><ele>133.0</ele><time>2026-04-25T13:11:20Z</time></trkpt><trkpt lat="39.27702730791796" lon="9.29661313710298"><ele>132.0</ele><time>2026-04-25T13:11:21Z</time></trkpt><trkpt lat="39.276931406167535" lon="9.29670875180142"><ele>131.0</ele><time>2026-04-25T13:11:22Z</time></trkpt><trkpt lat="39.276831837859355" lon="9.296802862864519"><ele>131.0</ele><time>2026-04-25T13:11:23Z</time></trkpt><trkpt lat="39.27672584507898" lon="9.296890258450258"><ele>131.0</ele><time>2026-04-25T13:11:24Z</time></trkpt><trkpt lat="39.27662062101735" lon="9.296972764627567"><ele>131.0</ele><time>2026-04-25T13:11:25Z</time></trkpt><trkpt lat="39.27652056628505" lon="9.297050907576782"><ele>131.0</ele><time>2026-04-25T13:11:26Z</time></trkpt><trkpt lat="39.27642237883083" lon="9.297125166038498"><ele>131.6</ele><time>2026-04-25T13:11:27Z</time></trkpt><trkpt lat="39.27633153188626" lon="9.297196797250704"><ele>132.2</ele><time>2026-04-25T13:11:28Z</time></trkpt><trkpt lat="39.27624503190731" lon="9.297276788025714"><ele>132.8</ele><time>2026-04-25T13:11:29Z</time></trkpt><trkpt lat="39.276155424855475" lon="9.29736608928749"><ele>133.4</ele><time>2026-04-25T13:11:30Z</time></trkpt><trkpt lat="39.27605482080919" lon="9.297442396840733"><ele>134.0</ele><time>2026-04-25T13:11:31Z</time></trkpt><trkpt lat="39.275964472575616" lon="9.297544868302086"><ele>134.0</ele><time>2026-04-25T13:11:32Z</time></trkpt><trkpt lat="39.27587713706533" lon="9.297650582540186"><ele>134.0</ele><time>2026-04-25T13:11:33Z</time></trkpt><trkpt lat="39.275799878240164" lon="9.2977699386226"><ele>134.0</ele><time>2026-04-25T13:11:34Z</time></trkpt><trkpt lat="39.275712091591586" lon="9.297873867174934"><ele>134.0</ele><time>2026-04-25T13:11:35Z</time></trkpt><trkpt lat="39.27562570173941" lon="9.297971914560199"><ele>135.0</ele><time>2026-04-25T13:11:36Z</time></trkpt><trkpt lat="39.27554027085192" lon="9.29807063216541"><ele>136.0</ele><time>2026-04-25T13:11:37Z</time></trkpt><trkpt lat="39.27545367279574" lon="9.298178542938164"><ele>137.0</ele><time>2026-04-25T13:11:38Z</time></trkpt><trkpt lat="39.27537081672541" lon="9.29829747709846"><ele>138.0</ele><time>2026-04-25T13:11:39Z</time></trkpt><trkpt lat="39.27528819221611" lon="9.298427401127922"><ele>138.0</ele><time>2026-04-25T13:11:40Z</time></trkpt><trkpt lat="39.27520954262405" lon="9.298558335491187"><ele>138.0</ele><time>2026-04-25T13:11:41Z</time></trkpt><trkpt lat="39.2751314008095" lon="9.298686880142764"><ele>138.0</ele><time>2026-04-25T13:11:42Z</time></trkpt><trkpt lat="39.27504838385088" lon="9.298817276468505"><ele>138.0</ele><time>2026-04-25T13:11:43Z</time></trkpt><trkpt lat="39.274960984756106" lon="9.298946472613302"><ele>136.75</ele><time>2026-04-25T13:11:44Z</time></trkpt><trkpt lat="39.2748648369154" lon="9.299079483431719"><ele>135.5</ele><time>2026-04-25T13:11:45Z</time></trkpt><trkpt lat="39.27476681817898" lon="9.299202670406347"><ele>134.25</ele><time>2026-04-25T13:11:46Z</time></trkpt><trkpt lat="39.2746672407203" lon="9.299325303897513"><ele>133.0</ele><time>2026-04-25T13:11:47Z</time></trkpt><trkpt lat="39.27456841544975" lon="9.299449707114594"><ele>129.5</ele><time>2026-04-25T13:11:48Z</time></trkpt><trkpt lat="39.27447300969858" lon="9.29957808808824"><ele>126.0</ele><time>2026-04-25T13:11:49Z</time></trkpt><trkpt lat="39.274383668088234" lon="9.299720231278423"><ele>122.5</ele><time>2026-04-25T13:11:50Z</time></trkpt><trkpt lat="39.274297006956836" lon="9.299864121880093"><ele>119.0</ele><time>2026-04-25T13:11:51Z</time></trkpt><trkpt lat="39.27420932446107" lon="9.300006938377432"><ele>118.25</ele><time>2026-04-25T13:11:52Z</time></trkpt><trkpt lat="39.27412390179477" lon="9.300148127379206"><ele>117.5</ele><time>2026-04-25T13:11:53Z</time></trkpt><trkpt lat="39.27404414488753" lon="9.300285677272706"><ele>116.75</ele><time>2026-04-25T13:11:54Z</time></trkpt><trkpt lat="39.2739657531657" lon="9.300417518820364"><ele>116.0</ele><time>2026-04-25T13:11:55Z</time></trkpt><trkpt lat="39.273893223899" lon="9.300543750949222"><ele>114.0</ele><time>2026-04-25T13:11:56Z</time></trkpt><trkpt lat="39.27383216394785" lon="9.300671780378336"><ele>112.0</ele><time>2026-04-25T13:11:57Z</time></trkpt><trkpt lat="39.27378188443546" lon="9.300807914981322"><ele>110.0</ele><time>2026-04-25T13:11:58Z</time></trkpt><trkpt lat="39.27374188139275" lon="9.300947872878222"><ele>108.0</ele><time>2026-04-25T13:11:59Z</time></trkpt><trkpt lat="39.27370855071909" lon="9.301092695377006"><ele>108.0</ele><time>2026-04-25T13:12:00Z</time></trkpt><trkpt lat="39.273683232570484" lon="9.301243230082944"><ele>108.0</ele><time>2026-04-25T13:12:01Z</time></trkpt><trkpt lat="39.27366100546228" lon="9.301401007682404"><ele>108.0</ele><time>2026-04-25T13:12:02Z</time></trkpt><trkpt lat="39.27363975781608" lon="9.301562714945295"><ele>108.0</ele><time>2026-04-25T13:12:03Z</time></trkpt><trkpt lat="39.27361826706392" lon="9.30172830044275"><ele>107.75</ele><time>2026-04-25T13:12:04Z</time></trkpt><trkpt lat="39.273594692435466" lon="9.30189815797273"><ele>107.5</ele><time>2026-04-25T13:12:05Z</time></trkpt><trkpt lat="39.2735701313762" lon="9.302071835289878"><ele>107.25</ele><time>2026-04-25T13:12:06Z</time></trkpt><trkpt lat="39.27354541183733" lon="9.302249148347986"><ele>107.0</ele><time>2026-04-25T13:12:07Z</time></trkpt><trkpt lat="39.27351891653144" lon="9.302422266090279"><ele>105.5</ele><time>2026-04-25T13:12:08Z</time></trkpt><trkpt lat="39.273497263763176" lon="9.302595925422942"><ele>104.0</ele><time>2026-04-25T13:12:09Z</time></trkpt><trkpt lat="39.273477959295775" lon="9.302773306479937"><ele>102.5</ele><time>2026-04-25T13:12:10Z</time></trkpt><trkpt lat="39.2734548135467" lon="9.302943059272438"><ele>101.0</ele><time>2026-04-25T13:12:11Z</time></trkpt><trkpt lat="39.27343677141557" lon="9.303108684784034"><ele>98.75</ele><time>2026-04-25T13:12:12Z</time></trkpt><trkpt lat="39.27342091547263" lon="9.303263596392663"><ele>96.5</ele><time>2026-04-25T13:12:13Z</time></trkpt><trkpt lat="39.2733950036378" lon="9.303414835761478"><ele>94.25</ele><time>2026-04-25T13:12:14Z</time></trkpt><trkpt lat="39.2733569837477" lon="9.303560257734029"><ele>92.0</ele><time>2026-04-25T13:12:15Z</time></trkpt><trkpt lat="39.273305113762525" lon="9.30370308909662"><ele>92.0</ele><time>2026-04-25T13:12:16Z</time></trkpt><trkpt lat="39.27324240864924" lon="9.303846445713667"><ele>92.0</ele><time>2026-04-25T13:12:17Z</time></trkpt><trkpt lat="39.273175564433785" lon="9.30399516921428"><ele>92.0</ele><time>2026-04-25T13:12:18Z</time></trkpt><trkpt lat="39.27310380258877" lon="9.30414470040399"><ele>92.0</ele><time>2026-04-25T13:12:19Z</time></trkpt><trkpt lat="39.27302576734779" lon="9.304290634382541"><ele>90.25</ele><time>2026-04-25T13:12:20Z</time></trkpt><trkpt lat="39.27294686660936" lon="9.304437445609825"><ele>88.5</ele><time>2026-04-25T13:12:21Z</time></trkpt><trkpt lat="39.27286945662639" lon="9.304578734997758"><ele>86.75</ele><time>2026-04-25T13:12:22Z</time></trkpt><trkpt lat="39.27279049098606" lon="9.304714008372711"><ele>85.0</ele><time>2026-04-25T13:12:23Z</time></trkpt><trkpt lat="39.27271510862418" lon="9.304842022219592"><ele>83.4</ele><time>2026-04-25T13:12:24Z</time></trkpt><trkpt lat="39.27264241445458" lon="9.30497162576982"><ele>81.8</ele><time>2026-04-25T13:12:25Z</time></trkpt><trkpt lat="39.27258065044036" lon="9.305097526651283"><ele>80.2</ele><time>2026-04-25T13:12:26Z</time></trkpt><trkpt lat="39.27251324203002" lon="9.305194971004482"><ele>78.6</ele><time>2026-04-25T13:12:27Z</time></trkpt><trkpt lat="39.272474964071684" lon="9.305301805390549"><ele>77.0</ele><time>2026-04-25T13:12:28Z</time></trkpt><trkpt lat="39.27242654296936" lon="9.305390317827763"><ele>77.0</ele><time>2026-04-25T13:12:29Z</time></trkpt><trkpt lat="39.27237565324145" lon="9.305469847283025"><ele>77.0</ele><time>2026-04-25T13:12:30Z</time></trkpt><trkpt lat="39.27231092657409" lon="9.305558405582383"><ele>77.0</ele><time>2026-04-25T13:12:31Z</time></trkpt><trkpt lat="39.27223725972672" lon="9.305645628945863"><ele>77.0</ele><time>2026-04-25T13:12:32Z</time></trkpt><trkpt lat="39.27215448648188" lon="9.30574311778407"><ele>77.0</ele><time>2026-04-25T13:12:33Z</time></trkpt><trkpt lat="39.27208152224964" lon="9.305851931221166"><ele>76.2</ele><time>2026-04-25T13:12:34Z</time></trkpt><trkpt lat="39.27202508879566" lon="9.305962484311646"><ele>75.4</ele><time>2026-04-25T13:12:35Z</time></trkpt><trkpt lat="39.27200737138001" lon="9.306078211332004"><ele>74.6</ele><time>2026-04-25T13:12:36Z</time></trkpt><trkpt lat="39.27202871723856" lon="9.306201502636778"><ele>73.8</ele><time>2026-04-25T13:12:37Z</time></trkpt><trkpt lat="39.2720794976637" lon="9.30632268832342"><ele>73.0</ele><time>2026-04-25T13:12:38Z</time></trkpt><trkpt lat="39.272156053696584" lon="9.306426667652348"><ele>72.0</ele><time>2026-04-25T13:12:39Z</time></trkpt><trkpt lat="39.27225004023041" lon="9.30652116190088"><ele>71.0</ele><time>2026-04-25T13:12:40Z</time></trkpt><trkpt lat="39.272355338568154" lon="9.306613803783058"><ele>70.0</ele><time>2026-04-25T13:12:41Z</time></trkpt><trkpt lat="39.27246467507907" lon="9.30671210101314"><ele>69.0</ele><time>2026-04-25T13:12:42Z</time></trkpt><trkpt lat="39.27257238533433" lon="9.306801972125406"><ele>69.25</ele><time>2026-04-25T13:12:43Z</time></trkpt><trkpt lat="39.27268065370001" lon="9.306894979235517"><ele>69.5</ele><time>2026-04-25T13:12:44Z</time></trkpt><trkpt lat="39.272790689225346" lon="9.307002247890493"><ele>69.75</ele><time>2026-04-25T13:12:45Z</time></trkpt><trkpt lat="39.27288768658087" lon="9.307134146352324"><ele>70.0</ele><time>2026-04-25T13:12:46Z</time></trkpt><trkpt lat="39.273002763685774" lon="9.307250914519013"><ele>72.5</ele><time>2026-04-25T13:12:47Z</time></trkpt><trkpt lat="39.273106451368406" lon="9.307377391468306"><ele>75.0</ele><time>2026-04-25T13:12:48Z</time></trkpt><trkpt lat="39.27321197083668" lon="9.307489457410233"><ele>77.5</ele><time>2026-04-25T13:12:49Z</time></trkpt><trkpt lat="39.27331308945451" lon="9.307595805476046"><ele>80.0</ele><time>2026-04-25T13:12:50Z</time></trkpt><trkpt lat="39.27340735277861" lon="9.307705089309302"><ele>80.0</ele><time>2026-04-25T13:12:51Z</time></trkpt><trkpt lat="39.27350580456256" lon="9.307811927697022"><ele>80.0</ele><time>2026-04-25T13:12:52Z</time></trkpt><trkpt lat="39.27360035084713" lon="9.307924440970346"><ele>80.0</ele><time>2026-04-25T13:12:53Z</time></trkpt><trkpt lat="39.27369101390033" lon="9.308043287965099"><ele>80.0</ele><time>2026-04-25T13:12:54Z</time></trkpt><trkpt lat="39.27376572184589" lon="9.30816382400696"><ele>81.0</ele><time>2026-04-25T13:12:55Z</time></trkpt><trkpt lat="39.27382686371078" lon="9.308295289312314"><ele>82.0</ele><time>2026-04-25T13:12:56Z</time></trkpt><trkpt lat="39.273882958575356" lon="9.308442329947463"><ele>83.0</ele><time>2026-04-25T13:12:57Z</time></trkpt><trkpt lat="39.2739390538894" lon="9.308598485366186"><ele>84.0</ele><time>2026-04-25T13:12:58Z</time></trkpt><trkpt lat="39.27400404094412" lon="9.308756653873196"><ele>82.5</ele><time>2026-04-25T13:12:59Z</time></trkpt><trkpt lat="39.27406948824832" lon="9.308918880726168"><ele>81.0</ele><time>2026-04-25T13:13:00Z</time></trkpt><trkpt lat="39.27412878164184" lon="9.30908788180824"><ele>79.5</ele><time>2026-04-25T13:13:01Z</time></trkpt><trkpt lat="39.27418392423452" lon="9.309265956621786"><ele>78.0</ele><time>2026-04-25T13:13:02Z</time></trkpt><trkpt lat="39.274230983257716" lon="9.309443025928696"><ele>78.0</ele><time>2026-04-25T13:13:03Z</time></trkpt><trkpt lat="39.27427811513382" lon="9.30962150920697"><ele>78.0</ele><time>2026-04-25T13:13:04Z</time></trkpt><trkpt lat="39.27432632703256" lon="9.309790366347283"><ele>78.0</ele><time>2026-04-25T13:13:05Z</time></trkpt><trkpt lat="39.27437026079109" lon="9.30995089364617"><ele>78.0</ele><time>2026-04-25T13:13:06Z</time></trkpt><trkpt lat="39.27441706127542" lon="9.310110801788428"><ele>78.0</ele><time>2026-04-25T13:13:07Z</time></trkpt><trkpt lat="39.27448923303633" lon="9.31025480704548"><ele>78.0</ele><time>2026-04-25T13:13:08Z</time></trkpt><trkpt lat="39.27457566609527" lon="9.310377638964992"><ele>78.0</ele><time>2026-04-25T13:13:09Z</time></trkpt><trkpt lat="39.27467271357512" lon="9.31048029620191"><ele>78.0</ele><time>2026-04-25T13:13:10Z</time></trkpt><trkpt lat="39.27477734967503" lon="9.31057514956974"><ele>78.0</ele><time>2026-04-25T13:13:11Z</time></trkpt><trkpt lat="39.2748661587224" lon="9.310685241876179"><ele>78.0</ele><time>2026-04-25T13:13:12Z</time></trkpt><trkpt lat="39.274959454865076" lon="9.310777300152475"><ele>78.0</ele><time>2026-04-25T13:13:13Z</time></trkpt><trkpt lat="39.27505596082547" lon="9.310850314666302"><ele>78.0</ele><time>2026-04-25T13:13:14Z</time></trkpt><trkpt lat="39.275133923420015" lon="9.310941438821365"><ele>78.0</ele><time>2026-04-25T13:13:15Z</time></trkpt><trkpt lat="39.27519908418803" lon="9.311030229137918"><ele>78.0</ele><time>2026-04-25T13:13:16Z</time></trkpt><trkpt lat="39.27524647099062" lon="9.31112377967555"><ele>78.0</ele><time>2026-04-25T13:13:17Z</time></trkpt><trkpt lat="39.27528046958232" lon="9.311228104662408"><ele>78.0</ele><time>2026-04-25T13:13:18Z</time></trkpt><trkpt lat="39.27531438589012" lon="9.311335551685179"><ele>78.0</ele><time>2026-04-25T13:13:19Z</time></trkpt><trkpt lat="39.27534678605977" lon="9.311439524397986"><ele>78.0</ele><time>2026-04-25T13:13:20Z</time></trkpt><trkpt lat="39.275376136340654" lon="9.311554823815898"><ele>78.0</ele><time>2026-04-25T13:13:21Z</time></trkpt><trkpt lat="39.27540342854932" lon="9.311681241447713"><ele>78.0</ele><time>2026-04-25T13:13:22Z</time></trkpt><trkpt lat="39.2754361364858" lon="9.311813827872616"><ele>78.0</ele><time>2026-04-25T13:13:23Z</time></trkpt><trkpt lat="39.27547587385769" lon="9.31194755882552"><ele>78.0</ele><time>2026-04-25T13:13:24Z</time></trkpt><trkpt lat="39.27551321139104" lon="9.312090413232713"><ele>78.0</ele><time>2026-04-25T13:13:25Z</time></trkpt><trkpt lat="39.27554565796038" lon="9.312238676565858"><ele>77.5</ele><time>2026-04-25T13:13:26Z</time></trkpt><trkpt lat="39.275570089870946" lon="9.312392835226177"><ele>77.0</ele><time>2026-04-25T13:13:27Z</time></trkpt><trkpt lat="39.27558486217499" lon="9.31254966500195"><ele>76.5</ele><time>2026-04-25T13:13:28Z</time></trkpt><trkpt lat="39.275590146981436" lon="9.31270013053162"><ele>76.0</ele><time>2026-04-25T13:13:29Z</time></trkpt><trkpt lat="39.27558901738853" lon="9.312839622572813"><ele>76.0</ele><time>2026-04-25T13:13:30Z</time></trkpt><trkpt lat="39.275589040169734" lon="9.31296938147302"><ele>76.0</ele><time>2026-04-25T13:13:31Z</time></trkpt><trkpt lat="39.27560149926378" lon="9.313093035276614"><ele>76.0</ele><time>2026-04-25T13:13:32Z</time></trkpt><trkpt lat="39.27562470605891" lon="9.313219698379058"><ele>76.0</ele><time>2026-04-25T13:13:33Z</time></trkpt><trkpt lat="39.27565745380915" lon="9.313350319575797"><ele>76.0</ele><time>2026-04-25T13:13:34Z</time></trkpt><trkpt lat="39.275697224066974" lon="9.313483473830244"><ele>76.6</ele><time>2026-04-25T13:13:35Z</time></trkpt><trkpt lat="39.27574051113032" lon="9.313618716021255"><ele>77.19999999999999</ele><time>2026-04-25T13:13:36Z</time></trkpt><trkpt lat="39.275787161220904" lon="9.313747931126683"><ele>77.80000000000001</ele><time>2026-04-25T13:13:37Z</time></trkpt><trkpt lat="39.275826117635624" lon="9.313872509303055"><ele>78.4</ele><time>2026-04-25T13:13:38Z</time></trkpt><trkpt lat="39.27586411806035" lon="9.314001940692663"><ele>79.0</ele><time>2026-04-25T13:13:39Z</time></trkpt><trkpt lat="39.275901724389506" lon="9.314130942156273"><ele>79.0</ele><time>2026-04-25T13:13:40Z</time></trkpt><trkpt lat="39.275941719426875" lon="9.314257334334604"><ele>79.0</ele><time>2026-04-25T13:13:41Z</time></trkpt><trkpt lat="39.27598325338282" lon="9.314382800799436"><ele>79.0</ele><time>2026-04-25T13:13:42Z</time></trkpt><trkpt lat="39.27601519671688" lon="9.314509908130034"><ele>79.0</ele><time>2026-04-25T13:13:43Z</time></trkpt><trkpt lat="39.27602856489796" lon="9.3146298887616"><ele>79.0</ele><time>2026-04-25T13:13:44Z</time></trkpt><trkpt lat="39.27601132449834" lon="9.314738949082788"><ele>79.0</ele><time>2026-04-25T13:13:45Z</time></trkpt><trkpt lat="39.27598132857252" lon="9.314858128594617"><ele>79.0</ele><time>2026-04-25T13:13:46Z</time></trkpt><trkpt lat="39.27595441795014" lon="9.314984302243593"><ele>79.0</ele><time>2026-04-25T13:13:47Z</time></trkpt><trkpt lat="39.27593560660471" lon="9.315121050013495"><ele>79.0</ele><time>2026-04-25T13:13:48Z</time></trkpt><trkpt lat="39.27591932907989" lon="9.315256738222493"><ele>79.0</ele><time>2026-04-25T13:13:49Z</time></trkpt><trkpt lat="39.27589855680417" lon="9.315397368163833"><ele>79.0</ele><time>2026-04-25T13:13:50Z</time></trkpt><trkpt lat="39.27587504947281" lon="9.315535956955726"><ele>79.0</ele><time>2026-04-25T13:13:51Z</time></trkpt><trkpt lat="39.27585145732085" lon="9.315664995222003"><ele>79.0</ele><time>2026-04-25T13:13:52Z</time></trkpt><trkpt lat="39.27582833746987" lon="9.315780196917437"><ele>79.0</ele><time>2026-04-25T13:13:53Z</time></trkpt><trkpt lat="39.27580280343637" lon="9.315879425917132"><ele>79.0</ele><time>2026-04-25T13:13:54Z</time></trkpt><trkpt lat="39.275771276446726" lon="9.315967796969579"><ele>79.16666666666666</ele><time>2026-04-25T13:13:55Z</time></trkpt><trkpt lat="39.275726025275034" lon="9.316041955200655"><ele>79.33333333333333</ele><time>2026-04-25T13:13:56Z</time></trkpt><trkpt lat="39.27566455340722" lon="9.316094850486309"><ele>79.5</ele><time>2026-04-25T13:13:57Z</time></trkpt><trkpt lat="39.27559259853804" lon="9.316143147730436"><ele>79.66666666666667</ele><time>2026-04-25T13:13:58Z</time></trkpt><trkpt lat="39.275530991634604" lon="9.31619288132755"><ele>79.83333333333334</ele><time>2026-04-25T13:13:59Z</time></trkpt><trkpt lat="39.275477092719726" lon="9.316254556523814"><ele>80.0</ele><time>2026-04-25T13:14:00Z</time></trkpt><trkpt lat="39.2754248093193" lon="9.316333847600184"><ele>80.4</ele><time>2026-04-25T13:14:01Z</time></trkpt><trkpt lat="39.275382734418066" lon="9.316395258593927"><ele>80.8</ele><time>2026-04-25T13:14:02Z</time></trkpt><trkpt lat="39.275297407628045" lon="9.316472630634735"><ele>81.19999999999999</ele><time>2026-04-25T13:14:04Z</time></trkpt><trkpt lat="39.27523796207085" lon="9.316524339500106"><ele>81.6</ele><time>2026-04-25T13:14:06Z</time></trkpt><trkpt lat="39.27518112701844" lon="9.316612071286213"><ele>82.0</ele><time>2026-04-25T13:14:20Z</time></trkpt><trkpt lat="39.275216077789395" lon="9.316763324805093"><ele>82.39999999999999</ele><time>2026-04-25T13:14:22Z</time></trkpt><trkpt lat="39.27527376336532" lon="9.316858144252144"><ele>82.8</ele><time>2026-04-25T13:14:23Z</time></trkpt><trkpt lat="39.275323504332135" lon="9.316969567508483"><ele>83.2</ele><time>2026-04-25T13:14:24Z</time></trkpt><trkpt lat="39.275384013057774" lon="9.31710196091002"><ele>83.6</ele><time>2026-04-25T13:14:25Z</time></trkpt><trkpt lat="39.275444228931406" lon="9.317236961499033"><ele>84.0</ele><time>2026-04-25T13:14:26Z</time></trkpt><trkpt lat="39.2755131423254" lon="9.317383303282442"><ele>84.25</ele><time>2026-04-25T13:14:27Z</time></trkpt><trkpt lat="39.27558066695678" lon="9.31752944962792"><ele>84.5</ele><time>2026-04-25T13:14:28Z</time></trkpt><trkpt lat="39.27565888542601" lon="9.317684383744872"><ele>84.75</ele><time>2026-04-25T13:14:29Z</time></trkpt><trkpt lat="39.2757403659447" lon="9.317847865854581"><ele>85.0</ele><time>2026-04-25T13:14:30Z</time></trkpt><trkpt lat="39.275823957661466" lon="9.318020142660083"><ele>85.66666666666666</ele><time>2026-04-25T13:14:31Z</time></trkpt><trkpt lat="39.27591191616447" lon="9.31819703378319"><ele>86.33333333333333</ele><time>2026-04-25T13:14:32Z</time></trkpt><trkpt lat="39.275995402258715" lon="9.31836147155393"><ele>87.0</ele><time>2026-04-25T13:14:33Z</time></trkpt><trkpt lat="39.2760814526081" lon="9.318534520221196"><ele>87.0</ele><time>2026-04-25T13:14:34Z</time></trkpt><trkpt lat="39.27616592670207" lon="9.318711116563058"><ele>87.0</ele><time>2026-04-25T13:14:35Z</time></trkpt><trkpt lat="39.276251855702505" lon="9.31889216879509"><ele>87.0</ele><time>2026-04-25T13:14:36Z</time></trkpt><trkpt lat="39.27633796422911" lon="9.319074688158357"><ele>86.66666666666667</ele><time>2026-04-25T13:14:37Z</time></trkpt><trkpt lat="39.27642722288327" lon="9.319261637497142"><ele>86.33333333333334</ele><time>2026-04-25T13:14:38Z</time></trkpt><trkpt lat="39.276519671959555" lon="9.319447953206424"><ele>86.0</ele><time>2026-04-25T13:14:39Z</time></trkpt><trkpt lat="39.2766119662096" lon="9.31964018258484"><ele>87.66666666666667</ele><time>2026-04-25T13:14:40Z</time></trkpt><trkpt lat="39.276706702194176" lon="9.319830885906104"><ele>89.33333333333333</ele><time>2026-04-25T13:14:41Z</time></trkpt><trkpt lat="39.276798263862915" lon="9.320016321385534"><ele>91.0</ele><time>2026-04-25T13:14:42Z</time></trkpt><trkpt lat="39.27688290434938" lon="9.320190516003752"><ele>91.0</ele><time>2026-04-25T13:14:43Z</time></trkpt><trkpt lat="39.276963557772405" lon="9.320357980444642"><ele>91.0</ele><time>2026-04-25T13:14:44Z</time></trkpt><trkpt lat="39.277041413642976" lon="9.32051713537784"><ele>91.0</ele><time>2026-04-25T13:14:45Z</time></trkpt><trkpt lat="39.277112543484215" lon="9.3206628352203"><ele>91.0</ele><time>2026-04-25T13:14:46Z</time></trkpt><trkpt lat="39.27717810718628" lon="9.320796462913282"><ele>90.8</ele><time>2026-04-25T13:14:47Z</time></trkpt><trkpt lat="39.27724085420131" lon="9.320906424615906"><ele>90.6</ele><time>2026-04-25T13:14:48Z</time></trkpt><trkpt lat="39.27729793381394" lon="9.320992334543515"><ele>90.4</ele><time>2026-04-25T13:14:49Z</time></trkpt><trkpt lat="39.277319028021495" lon="9.321076025534396"><ele>90.2</ele><time>2026-04-25T13:14:50Z</time></trkpt><trkpt lat="39.27747008196144" lon="9.321025132957525"><ele>90.0</ele><time>2026-04-25T13:14:54Z</time></trkpt><trkpt lat="39.27754425783735" lon="9.321062739547882"><ele>90.0</ele><time>2026-04-25T13:14:57Z</time></trkpt><trkpt lat="39.27758897900811" lon="9.321163189897531"><ele>90.0</ele><time>2026-04-25T13:14:59Z</time></trkpt><trkpt lat="39.2776187666699" lon="9.321256297906666"><ele>90.0</ele><time>2026-04-25T13:15:01Z</time></trkpt><trkpt lat="39.27762064138327" lon="9.321345923115826"><ele>90.0</ele><time>2026-04-25T13:15:05Z</time></trkpt><trkpt lat="39.27769397434381" lon="9.321341614514074"><ele>90.0</ele><time>2026-04-25T13:17:56Z</time></trkpt><trkpt lat="39.277723391279935" lon="9.321266223183732"><ele>90.0</ele><time>2026-04-25T13:18:09Z</time></trkpt><trkpt lat="39.277806450053404" lon="9.321263181068765"><ele>90.0</ele><time>2026-04-25T13:18:48Z</time></trkpt><trkpt lat="39.2777350708962" lon="9.32122844492452"><ele>90.0</ele><time>2026-04-25T13:21:26Z</time></trkpt><trkpt lat="39.2776894702822" lon="9.321285025488578"><ele>90.0</ele><time>2026-04-25T13:45:42Z</time></trkpt><trkpt lat="39.27765438266495" lon="9.321381699594685"><ele>90.0</ele><time>2026-04-25T13:49:00Z</time></trkpt><trkpt lat="39.277714620310256" lon="9.321333984577276"><ele>90.0</ele><time>2026-04-25T13:49:03Z</time></trkpt><trkpt lat="39.277647714084985" lon="9.321248665424434"><ele>90.0</ele><time>2026-04-25T13:49:06Z</time></trkpt><trkpt lat="39.277575125074215" lon="9.321136399015767"><ele>90.0</ele><time>2026-04-25T13:49:08Z</time></trkpt><trkpt lat="39.277514104107716" lon="9.321069912313904"><ele>90.0</ele><time>2026-04-25T13:49:10Z</time></trkpt><trkpt lat="39.27744142150888" lon="9.321028091717064"><ele>90.0</ele><time>2026-04-25T13:49:13Z</time></trkpt><trkpt lat="39.27737638176307" lon="9.321086036575965"><ele>90.0</ele><time>2026-04-25T13:49:15Z</time></trkpt><trkpt lat="39.27736930636465" lon="9.321194575279922"><ele>90.0</ele><time>2026-04-25T13:49:22Z</time></trkpt><trkpt lat="39.277404810115875" lon="9.321289772476609"><ele>90.0</ele><time>2026-04-25T13:49:23Z</time></trkpt><trkpt lat="39.277463282741515" lon="9.32139464455602"><ele>90.75</ele><time>2026-04-25T13:49:24Z</time></trkpt><trkpt lat="39.277525638834035" lon="9.321515006098872"><ele>91.5</ele><time>2026-04-25T13:49:25Z</time></trkpt><trkpt lat="39.2775935819888" lon="9.321653909543564"><ele>92.25</ele><time>2026-04-25T13:49:26Z</time></trkpt><trkpt lat="39.2776631453689" lon="9.321796941802724"><ele>93.0</ele><time>2026-04-25T13:49:27Z</time></trkpt><trkpt lat="39.277737779244646" lon="9.321951749437472"><ele>93.0</ele><time>2026-04-25T13:49:28Z</time></trkpt><trkpt lat="39.27781768372953" lon="9.32211653277405"><ele>93.0</ele><time>2026-04-25T13:49:29Z</time></trkpt><trkpt lat="39.27790129631783" lon="9.322295086728142"><ele>93.0</ele><time>2026-04-25T13:49:30Z</time></trkpt><trkpt lat="39.27798409910116" lon="9.322476318861089"><ele>93.0</ele><time>2026-04-25T13:49:31Z</time></trkpt><trkpt lat="39.278075309211076" lon="9.322665401129225"><ele>93.0</ele><time>2026-04-25T13:49:32Z</time></trkpt><trkpt lat="39.278177758930525" lon="9.32286242923197"><ele>93.0</ele><time>2026-04-25T13:49:33Z</time></trkpt><trkpt lat="39.27827584111249" lon="9.323059657549084"><ele>92.66666666666667</ele><time>2026-04-25T13:49:34Z</time></trkpt><trkpt lat="39.278367041449414" lon="9.323252531612654"><ele>92.33333333333334</ele><time>2026-04-25T13:49:35Z</time></trkpt><trkpt lat="39.278451721215426" lon="9.323429736041305"><ele>92.0</ele><time>2026-04-25T13:49:36Z</time></trkpt><trkpt lat="39.27853129049107" lon="9.32359217837622"><ele>92.0</ele><time>2026-04-25T13:49:37Z</time></trkpt><trkpt lat="39.27860650094882" lon="9.3237439318315"><ele>92.0</ele><time>2026-04-25T13:49:38Z</time></trkpt><trkpt lat="39.27866475780232" lon="9.323870068437468"><ele>92.0</ele><time>2026-04-25T13:49:39Z</time></trkpt><trkpt lat="39.27871334041746" lon="9.323967357789027"><ele>92.0</ele><time>2026-04-25T13:49:40Z</time></trkpt><trkpt lat="39.2787486477672" lon="9.32403814904845"><ele>92.0</ele><time>2026-04-25T13:49:41Z</time></trkpt><trkpt lat="39.27878708194065" lon="9.324129245617186"><ele>92.0</ele><time>2026-04-25T13:49:44Z</time></trkpt><trkpt lat="39.27875522333152" lon="9.324033916134479"><ele>92.0</ele><time>2026-04-25T13:49:53Z</time></trkpt><trkpt lat="39.27868827652463" lon="9.323897207261641"><ele>92.0</ele><time>2026-04-25T13:49:55Z</time></trkpt><trkpt lat="39.278627385156476" lon="9.323701472630844"><ele>92.0</ele><time>2026-04-25T13:49:56Z</time></trkpt><trkpt lat="39.27856211883433" lon="9.323573725821864"><ele>92.0</ele><time>2026-04-25T13:49:57Z</time></trkpt><trkpt lat="39.27849670286467" lon="9.323438163280663"><ele>92.0</ele><time>2026-04-25T13:49:58Z</time></trkpt><trkpt lat="39.278421372606964" lon="9.323287455232588"><ele>92.0</ele><time>2026-04-25T13:49:59Z</time></trkpt><trkpt lat="39.27834252299571" lon="9.323126519620107"><ele>92.0</ele><time>2026-04-25T13:50:00Z</time></trkpt><trkpt lat="39.278266488255" lon="9.322967359311441"><ele>92.33333333333334</ele><time>2026-04-25T13:50:01Z</time></trkpt><trkpt lat="39.2781864877607" lon="9.322804268469561"><ele>92.66666666666667</ele><time>2026-04-25T13:50:02Z</time></trkpt><trkpt lat="39.27810430067274" lon="9.322636667766167"><ele>93.0</ele><time>2026-04-25T13:50:03Z</time></trkpt><trkpt lat="39.2780212712507" lon="9.322466225024396"><ele>93.0</ele><time>2026-04-25T13:50:04Z</time></trkpt><trkpt lat="39.27793640832299" lon="9.322292433702538"><ele>93.0</ele><time>2026-04-25T13:50:05Z</time></trkpt><trkpt lat="39.27785119126581" lon="9.322117143530283"><ele>93.0</ele><time>2026-04-25T13:50:06Z</time></trkpt><trkpt lat="39.27776255765183" lon="9.321942564344933"><ele>93.0</ele><time>2026-04-25T13:50:07Z</time></trkpt><trkpt lat="39.27767812991793" lon="9.321770280967561"><ele>93.0</ele><time>2026-04-25T13:50:08Z</time></trkpt><trkpt lat="39.27759307712758" lon="9.321595575804386"><ele>93.0</ele><time>2026-04-25T13:50:09Z</time></trkpt><trkpt lat="39.27752017223183" lon="9.321408254812633"><ele>92.0</ele><time>2026-04-25T13:50:10Z</time></trkpt><trkpt lat="39.277433114811096" lon="9.321229510271612"><ele>91.0</ele><time>2026-04-25T13:50:11Z</time></trkpt><trkpt lat="39.27734496360357" lon="9.321048519766554"><ele>90.0</ele><time>2026-04-25T13:50:12Z</time></trkpt><trkpt lat="39.27725563675527" lon="9.320864495746918"><ele>89.66666666666667</ele><time>2026-04-25T13:50:13Z</time></trkpt><trkpt lat="39.277165338826606" lon="9.320678481791393"><ele>89.33333333333334</ele><time>2026-04-25T13:50:14Z</time></trkpt><trkpt lat="39.277074826724665" lon="9.320492026622489"><ele>89.0</ele><time>2026-04-25T13:50:15Z</time></trkpt><trkpt lat="39.27698115446785" lon="9.320299061550264"><ele>88.66666666666667</ele><time>2026-04-25T13:50:16Z</time></trkpt><trkpt lat="39.276889225858156" lon="9.320109688352089"><ele>88.33333333333333</ele><time>2026-04-25T13:50:17Z</time></trkpt><trkpt lat="39.27679786544982" lon="9.319921485687642"><ele>88.0</ele><time>2026-04-25T13:50:18Z</time></trkpt><trkpt lat="39.27670635416892" lon="9.319732972198736"><ele>88.0</ele><time>2026-04-25T13:50:19Z</time></trkpt><trkpt lat="39.27659973259104" lon="9.319552912946346"><ele>88.0</ele><time>2026-04-25T13:50:20Z</time></trkpt><trkpt lat="39.276519915572464" lon="9.319347861401843"><ele>88.0</ele><time>2026-04-25T13:50:21Z</time></trkpt><trkpt lat="39.27642671447979" lon="9.319154194529753"><ele>87.66666666666666</ele><time>2026-04-25T13:50:22Z</time></trkpt><trkpt lat="39.27633089343594" lon="9.318955083445301"><ele>87.33333333333333</ele><time>2026-04-25T13:50:23Z</time></trkpt><trkpt lat="39.276234416534116" lon="9.31875460780401"><ele>87.0</ele><time>2026-04-25T13:50:24Z</time></trkpt><trkpt lat="39.27613549066046" lon="9.31855196962782"><ele>87.0</ele><time>2026-04-25T13:50:25Z</time></trkpt><trkpt lat="39.2760365820908" lon="9.318348716390172"><ele>87.0</ele><time>2026-04-25T13:50:26Z</time></trkpt><trkpt lat="39.275937364203244" lon="9.318144827492"><ele>87.0</ele><time>2026-04-25T13:50:27Z</time></trkpt><trkpt lat="39.2758383613025" lon="9.317941011347097"><ele>86.33333333333333</ele><time>2026-04-25T13:50:28Z</time></trkpt><trkpt lat="39.27573980308477" lon="9.31773569922584"><ele>85.66666666666666</ele><time>2026-04-25T13:50:29Z</time></trkpt><trkpt lat="39.27564127989267" lon="9.317530460084596"><ele>85.0</ele><time>2026-04-25T13:50:30Z</time></trkpt><trkpt lat="39.27554282673775" lon="9.317325452828188"><ele>84.66666666666666</ele><time>2026-04-25T13:50:31Z</time></trkpt><trkpt lat="39.275445810465776" lon="9.31712354174889"><ele>84.33333333333333</ele><time>2026-04-25T13:50:32Z</time></trkpt><trkpt lat="39.27535381418725" lon="9.316926263632899"><ele>84.0</ele><time>2026-04-25T13:50:33Z</time></trkpt><trkpt lat="39.27526825108602" lon="9.316732299043464"><ele>84.0</ele><time>2026-04-25T13:50:34Z</time></trkpt><trkpt lat="39.27518130231411" lon="9.316529769742084"><ele>84.0</ele><time>2026-04-25T13:50:35Z</time></trkpt><trkpt lat="39.27509715234109" lon="9.316320906303524"><ele>84.0</ele><time>2026-04-25T13:50:36Z</time></trkpt><trkpt lat="39.27501242940461" lon="9.316105324173268"><ele>83.33333333333333</ele><time>2026-04-25T13:50:37Z</time></trkpt><trkpt lat="39.274928991332644" lon="9.315887876441238"><ele>82.66666666666666</ele><time>2026-04-25T13:50:38Z</time></trkpt><trkpt lat="39.274845135970196" lon="9.315669341186075"><ele>82.0</ele><time>2026-04-25T13:50:39Z</time></trkpt><trkpt lat="39.27476134784493" lon="9.3154495353052"><ele>83.33333333333333</ele><time>2026-04-25T13:50:40Z</time></trkpt><trkpt lat="39.27467703479656" lon="9.315227130007964"><ele>84.66666666666667</ele><time>2026-04-25T13:50:41Z</time></trkpt><trkpt lat="39.274594747260146" lon="9.315010067809414"><ele>86.0</ele><time>2026-04-25T13:50:42Z</time></trkpt><trkpt lat="39.27451206959734" lon="9.314791976405964"><ele>86.33333333333334</ele><time>2026-04-25T13:50:43Z</time></trkpt><trkpt lat="39.27442769369831" lon="9.314570158899285"><ele>86.66666666666667</ele><time>2026-04-25T13:50:44Z</time></trkpt><trkpt lat="39.27434086813265" lon="9.314343092546732"><ele>87.0</ele><time>2026-04-25T13:50:45Z</time></trkpt><trkpt lat="39.27425426616568" lon="9.31411661104508"><ele>84.0</ele><time>2026-04-25T13:50:46Z</time></trkpt><trkpt lat="39.274165832736465" lon="9.313887333686253"><ele>81.0</ele><time>2026-04-25T13:50:47Z</time></trkpt><trkpt lat="39.27406248893669" lon="9.31366664216737"><ele>78.0</ele><time>2026-04-25T13:50:48Z</time></trkpt><trkpt lat="39.27398706613622" lon="9.313427603282333"><ele>79.33333333333333</ele><time>2026-04-25T13:50:49Z</time></trkpt><trkpt lat="39.27389435845269" lon="9.31319778939572"><ele>80.66666666666666</ele><time>2026-04-25T13:50:50Z</time></trkpt><trkpt lat="39.27379041790759" lon="9.312970462504444"><ele>82.0</ele><time>2026-04-25T13:50:51Z</time></trkpt><trkpt lat="39.27366747970264" lon="9.31275870493497"><ele>82.0</ele><time>2026-04-25T13:50:52Z</time></trkpt><trkpt lat="39.27353446372849" lon="9.312561395953693"><ele>82.0</ele><time>2026-04-25T13:50:53Z</time></trkpt><trkpt lat="39.27338437819981" lon="9.312375334829136"><ele>82.0</ele><time>2026-04-25T13:50:54Z</time></trkpt><trkpt lat="39.27324204424643" lon="9.312174831633088"><ele>81.66666666666666</ele><time>2026-04-25T13:50:55Z</time></trkpt><trkpt lat="39.2731056431488" lon="9.311962224635465"><ele>81.33333333333333</ele><time>2026-04-25T13:50:56Z</time></trkpt><trkpt lat="39.27293947664628" lon="9.31178814175014"><ele>81.0</ele><time>2026-04-25T13:50:57Z</time></trkpt><trkpt lat="39.272791306974824" lon="9.311592308418616"><ele>81.0</ele><time>2026-04-25T13:50:58Z</time></trkpt><trkpt lat="39.27263449664265" lon="9.311412998043165"><ele>81.0</ele><time>2026-04-25T13:50:59Z</time></trkpt><trkpt lat="39.27246709636743" lon="9.31124657650552"><ele>81.0</ele><time>2026-04-25T13:51:00Z</time></trkpt><trkpt lat="39.2723116468593" lon="9.311061819953851"><ele>80.0</ele><time>2026-04-25T13:51:01Z</time></trkpt><trkpt lat="39.27215696902329" lon="9.31088375570326"><ele>79.0</ele><time>2026-04-25T13:51:02Z</time></trkpt><trkpt lat="39.271998330055595" lon="9.310709490823793"><ele>78.0</ele><time>2026-04-25T13:51:03Z</time></trkpt><trkpt lat="39.271841159580575" lon="9.310531276598255"><ele>78.0</ele><time>2026-04-25T13:51:04Z</time></trkpt><trkpt lat="39.27168856656559" lon="9.310348926260248"><ele>78.0</ele><time>2026-04-25T13:51:05Z</time></trkpt><trkpt lat="39.271537132185934" lon="9.310166786405762"><ele>78.0</ele><time>2026-04-25T13:51:06Z</time></trkpt><trkpt lat="39.27138041947063" lon="9.309992716179556"><ele>78.0</ele><time>2026-04-25T13:51:07Z</time></trkpt><trkpt lat="39.27121704571897" lon="9.309828875629446"><ele>78.0</ele><time>2026-04-25T13:51:08Z</time></trkpt><trkpt lat="39.271042575662605" lon="9.309687295268693"><ele>78.0</ele><time>2026-04-25T13:51:09Z</time></trkpt><trkpt lat="39.270850943967865" lon="9.3095795692822"><ele>75.66666666666667</ele><time>2026-04-25T13:51:10Z</time></trkpt><trkpt lat="39.270648999440816" lon="9.309497369228874"><ele>73.33333333333334</ele><time>2026-04-25T13:51:11Z</time></trkpt><trkpt lat="39.27044594751299" lon="9.309418262961431"><ele>71.0</ele><time>2026-04-25T13:51:12Z</time></trkpt><trkpt lat="39.27024613371936" lon="9.309337342663301"><ele>71.0</ele><time>2026-04-25T13:51:13Z</time></trkpt><trkpt lat="39.27004114262408" lon="9.309248889469021"><ele>71.0</ele><time>2026-04-25T13:51:14Z</time></trkpt><trkpt lat="39.26983416352394" lon="9.30916026551714"><ele>71.0</ele><time>2026-04-25T13:51:15Z</time></trkpt><trkpt lat="39.269627777078966" lon="9.309071830293895"><ele>72.0</ele><time>2026-04-25T13:51:16Z</time></trkpt><trkpt lat="39.26942164169305" lon="9.308983577916507"><ele>73.0</ele><time>2026-04-25T13:51:17Z</time></trkpt><trkpt lat="39.26921438502969" lon="9.308896753395626"><ele>74.0</ele><time>2026-04-25T13:51:18Z</time></trkpt><trkpt lat="39.26900726897782" lon="9.308806143836604"><ele>71.33333333333334</ele><time>2026-04-25T13:51:19Z</time></trkpt><trkpt lat="39.26880109370722" lon="9.308710666557849"><ele>68.66666666666667</ele><time>2026-04-25T13:51:20Z</time></trkpt><trkpt lat="39.268597091915915" lon="9.308609795419438"><ele>66.0</ele><time>2026-04-25T13:51:21Z</time></trkpt><trkpt lat="39.26839707033288" lon="9.30850288678125"><ele>66.0</ele><time>2026-04-25T13:51:22Z</time></trkpt><trkpt lat="39.2681987724617" lon="9.30839249998396"><ele>66.0</ele><time>2026-04-25T13:51:23Z</time></trkpt><trkpt lat="39.26800100085301" lon="9.30828137079649"><ele>66.0</ele><time>2026-04-25T13:51:24Z</time></trkpt><trkpt lat="39.26780263153613" lon="9.308173032523255"><ele>66.33333333333333</ele><time>2026-04-25T13:51:25Z</time></trkpt><trkpt lat="39.2676076120571" lon="9.308067695428827"><ele>66.66666666666666</ele><time>2026-04-25T13:51:26Z</time></trkpt><trkpt lat="39.26741876486973" lon="9.307964694913379"><ele>67.0</ele><time>2026-04-25T13:51:27Z</time></trkpt><trkpt lat="39.26723629922755" lon="9.307859800635436"><ele>67.0</ele><time>2026-04-25T13:51:28Z</time></trkpt><trkpt lat="39.26704903379017" lon="9.307759983686664"><ele>67.0</ele><time>2026-04-25T13:51:29Z</time></trkpt><trkpt lat="39.266862476414694" lon="9.307638036051392"><ele>67.0</ele><time>2026-04-25T13:51:30Z</time></trkpt><trkpt lat="39.266677247681486" lon="9.307501198350144"><ele>67.0</ele><time>2026-04-25T13:51:31Z</time></trkpt><trkpt lat="39.266490041380955" lon="9.307317028211582"><ele>67.0</ele><time>2026-04-25T13:51:32Z</time></trkpt><trkpt lat="39.26631675173433" lon="9.307155075354087"><ele>67.0</ele><time>2026-04-25T13:51:33Z</time></trkpt><trkpt lat="39.26614320064622" lon="9.30699883660364"><ele>65.0</ele><time>2026-04-25T13:51:34Z</time></trkpt><trkpt lat="39.26597199252836" lon="9.306846165866176"><ele>63.0</ele><time>2026-04-25T13:51:35Z</time></trkpt><trkpt lat="39.26579954934495" lon="9.306692765356363"><ele>61.0</ele><time>2026-04-25T13:51:36Z</time></trkpt><trkpt lat="39.26562785228126" lon="9.306542794521546"><ele>60.33333333333333</ele><time>2026-04-25T13:51:37Z</time></trkpt><trkpt lat="39.265457033019345" lon="9.306393616901179"><ele>59.66666666666667</ele><time>2026-04-25T13:51:38Z</time></trkpt><trkpt lat="39.26528926104902" lon="9.30624486956986"><ele>59.0</ele><time>2026-04-25T13:51:39Z</time></trkpt><trkpt lat="39.26513098253805" lon="9.306100375108313"><ele>59.0</ele><time>2026-04-25T13:51:40Z</time></trkpt><trkpt lat="39.264982376132245" lon="9.305967436310466"><ele>59.0</ele><time>2026-04-25T13:51:41Z</time></trkpt><trkpt lat="39.26484672576663" lon="9.3058485117034"><ele>59.0</ele><time>2026-04-25T13:51:42Z</time></trkpt><trkpt lat="39.26472116874239" lon="9.305740321396382"><ele>59.0</ele><time>2026-04-25T13:51:43Z</time></trkpt><trkpt lat="39.26461093152881" lon="9.305643239466901"><ele>59.00000000000001</ele><time>2026-04-25T13:51:44Z</time></trkpt><trkpt lat="39.2645167785112" lon="9.305559094511146"><ele>59.00000000000001</ele><time>2026-04-25T13:51:45Z</time></trkpt><trkpt lat="39.26444242968977" lon="9.30549279411652"><ele>59.0</ele><time>2026-04-25T13:51:46Z</time></trkpt><trkpt lat="39.26438268044511" lon="9.305441801809309"><ele>59.0</ele><time>2026-04-25T13:51:47Z</time></trkpt><trkpt lat="39.264285165216535" lon="9.305421641895922"><ele>59.0</ele><time>2026-04-25T13:51:49Z</time></trkpt><trkpt lat="39.26421257115097" lon="9.30548008374769"><ele>59.00000000000001</ele><time>2026-04-25T13:51:51Z</time></trkpt><trkpt lat="39.264183179824364" lon="9.305634267838943"><ele>59.00000000000001</ele><time>2026-04-25T13:51:53Z</time></trkpt><trkpt lat="39.26416625401239" lon="9.305726527602808"><ele>59.0</ele><time>2026-04-25T13:51:54Z</time></trkpt><trkpt lat="39.264121691281055" lon="9.305821641327958"><ele>59.0</ele><time>2026-04-25T13:51:55Z</time></trkpt><trkpt lat="39.264084678292306" lon="9.305937758746294"><ele>59.0</ele><time>2026-04-25T13:51:56Z</time></trkpt><trkpt lat="39.26406422547568" lon="9.306077975223383"><ele>59.0</ele><time>2026-04-25T13:51:57Z</time></trkpt><trkpt lat="39.26405805493784" lon="9.306232522019062"><ele>59.0</ele><time>2026-04-25T13:51:58Z</time></trkpt><trkpt lat="39.26405464680752" lon="9.306391187979582"><ele>59.0</ele><time>2026-04-25T13:51:59Z</time></trkpt><trkpt lat="39.264053754987174" lon="9.306551380205708"><ele>59.25</ele><time>2026-04-25T13:52:00Z</time></trkpt><trkpt lat="39.26405458222355" lon="9.306720289612223"><ele>59.5</ele><time>2026-04-25T13:52:01Z</time></trkpt><trkpt lat="39.264052848046155" lon="9.306892468645685"><ele>59.75</ele><time>2026-04-25T13:52:02Z</time></trkpt><trkpt lat="39.264046000485614" lon="9.307064027268057"><ele>60.0</ele><time>2026-04-25T13:52:03Z</time></trkpt><trkpt lat="39.26404154240334" lon="9.307230128121004"><ele>60.6</ele><time>2026-04-25T13:52:04Z</time></trkpt><trkpt lat="39.264041447169454" lon="9.307380148050788"><ele>61.2</ele><time>2026-04-25T13:52:05Z</time></trkpt><trkpt lat="39.264035885055605" lon="9.307510589007487"><ele>61.8</ele><time>2026-04-25T13:52:06Z</time></trkpt><trkpt lat="39.26401175404505" lon="9.30762845575996"><ele>62.4</ele><time>2026-04-25T13:52:07Z</time></trkpt><trkpt lat="39.263967223393436" lon="9.307737940480733"><ele>63.0</ele><time>2026-04-25T13:52:08Z</time></trkpt><trkpt lat="39.26389597777154" lon="9.307833051330954"><ele>63.0</ele><time>2026-04-25T13:52:09Z</time></trkpt><trkpt lat="39.26381614694929" lon="9.307928792623967"><ele>63.0</ele><time>2026-04-25T13:52:10Z</time></trkpt><trkpt lat="39.26375351657909" lon="9.308058563678143"><ele>63.0</ele><time>2026-04-25T13:52:11Z</time></trkpt><trkpt lat="39.26370956749352" lon="9.308217096143036"><ele>63.0</ele><time>2026-04-25T13:52:12Z</time></trkpt><trkpt lat="39.26367884169872" lon="9.308383182296604"><ele>63.5</ele><time>2026-04-25T13:52:13Z</time></trkpt><trkpt lat="39.26364337813504" lon="9.308550284436746"><ele>64.0</ele><time>2026-04-25T13:52:14Z</time></trkpt><trkpt lat="39.26360978311335" lon="9.30871582483903"><ele>64.5</ele><time>2026-04-25T13:52:15Z</time></trkpt><trkpt lat="39.263576100144576" lon="9.308875888415132"><ele>65.0</ele><time>2026-04-25T13:52:16Z</time></trkpt><trkpt lat="39.26354313069557" lon="9.309025869934612"><ele>65.6</ele><time>2026-04-25T13:52:17Z</time></trkpt><trkpt lat="39.26351008039465" lon="9.30916824513056"><ele>66.2</ele><time>2026-04-25T13:52:18Z</time></trkpt><trkpt lat="39.26348266990682" lon="9.309308628747447"><ele>66.8</ele><time>2026-04-25T13:52:19Z</time></trkpt><trkpt lat="39.263463598761156" lon="9.309446610954202"><ele>67.4</ele><time>2026-04-25T13:52:20Z</time></trkpt><trkpt lat="39.263449833926515" lon="9.309580394656544"><ele>68.0</ele><time>2026-04-25T13:52:21Z</time></trkpt><trkpt lat="39.26343931753393" lon="9.309715812808472"><ele>68.6</ele><time>2026-04-25T13:52:22Z</time></trkpt><trkpt lat="39.26343102663887" lon="9.309857170648556"><ele>69.19999999999999</ele><time>2026-04-25T13:52:23Z</time></trkpt><trkpt lat="39.263429523589984" lon="9.31000047111299"><ele>69.8</ele><time>2026-04-25T13:52:24Z</time></trkpt><trkpt lat="39.263435407200404" lon="9.31014577375006"><ele>70.39999999999999</ele><time>2026-04-25T13:52:25Z</time></trkpt><trkpt lat="39.26344228915703" lon="9.310287244794933"><ele>71.0</ele><time>2026-04-25T13:52:26Z</time></trkpt><trkpt lat="39.26343600755724" lon="9.310425007331768"><ele>71.0</ele><time>2026-04-25T13:52:27Z</time></trkpt><trkpt lat="39.26342584165444" lon="9.310557981577933"><ele>71.0</ele><time>2026-04-25T13:52:28Z</time></trkpt><trkpt lat="39.26339987586738" lon="9.310691398253326"><ele>71.0</ele><time>2026-04-25T13:52:29Z</time></trkpt><trkpt lat="39.263359725074075" lon="9.310825319780504"><ele>71.0</ele><time>2026-04-25T13:52:30Z</time></trkpt><trkpt lat="39.26331924817862" lon="9.310963922620445"><ele>71.0</ele><time>2026-04-25T13:52:31Z</time></trkpt><trkpt lat="39.26327589709678" lon="9.31110667679843"><ele>70.75</ele><time>2026-04-25T13:52:32Z</time></trkpt><trkpt lat="39.263229692312365" lon="9.311253524048448"><ele>70.5</ele><time>2026-04-25T13:52:33Z</time></trkpt><trkpt lat="39.26318516135297" lon="9.311402640507685"><ele>70.25</ele><time>2026-04-25T13:52:34Z</time></trkpt><trkpt lat="39.26312455449656" lon="9.311542576260756"><ele>70.0</ele><time>2026-04-25T13:52:35Z</time></trkpt><trkpt lat="39.263076859985624" lon="9.311687448335402"><ele>69.5</ele><time>2026-04-25T13:52:36Z</time></trkpt><trkpt lat="39.263044261466966" lon="9.31183884411517"><ele>69.0</ele><time>2026-04-25T13:52:37Z</time></trkpt><trkpt lat="39.26298347440822" lon="9.311976451054688"><ele>68.5</ele><time>2026-04-25T13:52:38Z</time></trkpt><trkpt lat="39.26294033526348" lon="9.312123806978136"><ele>68.0</ele><time>2026-04-25T13:52:39Z</time></trkpt><trkpt lat="39.26291360274209" lon="9.312276676516118"><ele>68.0</ele><time>2026-04-25T13:52:40Z</time></trkpt><trkpt lat="39.26287487497174" lon="9.312408766108362"><ele>68.0</ele><time>2026-04-25T13:52:41Z</time></trkpt><trkpt lat="39.26282950177495" lon="9.312517552431167"><ele>68.0</ele><time>2026-04-25T13:52:42Z</time></trkpt><trkpt lat="39.26280221982691" lon="9.31261765789175"><ele>68.0</ele><time>2026-04-25T13:52:43Z</time></trkpt><trkpt lat="39.262777827781605" lon="9.312707821154502"><ele>68.0</ele><time>2026-04-25T13:52:44Z</time></trkpt><trkpt lat="39.262754912701894" lon="9.312792413139645"><ele>68.0</ele><time>2026-04-25T13:52:45Z</time></trkpt><trkpt lat="39.26273171004223" lon="9.312884682318026"><ele>68.0</ele><time>2026-04-25T13:52:46Z</time></trkpt><trkpt lat="39.26270949476544" lon="9.312999438385654"><ele>68.0</ele><time>2026-04-25T13:52:47Z</time></trkpt><trkpt lat="39.26269122918535" lon="9.313131826431295"><ele>68.0</ele><time>2026-04-25T13:52:48Z</time></trkpt><trkpt lat="39.26267380984226" lon="9.313287403475769"><ele>68.0</ele><time>2026-04-25T13:52:49Z</time></trkpt><trkpt lat="39.2626721480792" lon="9.31347574892272"><ele>68.25</ele><time>2026-04-25T13:52:50Z</time></trkpt><trkpt lat="39.26264781327842" lon="9.313659690092566"><ele>68.5</ele><time>2026-04-25T13:52:51Z</time></trkpt><trkpt lat="39.26263671149663" lon="9.313849460387427"><ele>68.75</ele><time>2026-04-25T13:52:52Z</time></trkpt><trkpt lat="39.26262999996384" lon="9.3140425991382"><ele>69.0</ele><time>2026-04-25T13:52:53Z</time></trkpt><trkpt lat="39.26263031782663" lon="9.31424315858843"><ele>70.33333333333333</ele><time>2026-04-25T13:52:54Z</time></trkpt><trkpt lat="39.26263722012447" lon="9.314442263464395"><ele>71.66666666666666</ele><time>2026-04-25T13:52:55Z</time></trkpt><trkpt lat="39.26264423788256" lon="9.314641250973002"><ele>73.0</ele><time>2026-04-25T13:52:56Z</time></trkpt><trkpt lat="39.26263906038275" lon="9.31483377953308"><ele>74.0</ele><time>2026-04-25T13:52:57Z</time></trkpt><trkpt lat="39.26262502083468" lon="9.315027752448993"><ele>75.0</ele><time>2026-04-25T13:52:58Z</time></trkpt><trkpt lat="39.26260636856138" lon="9.315217284661033"><ele>76.0</ele><time>2026-04-25T13:52:59Z</time></trkpt><trkpt lat="39.26257144928082" lon="9.31538215303409"><ele>77.0</ele><time>2026-04-25T13:53:00Z</time></trkpt><trkpt lat="39.262543578070165" lon="9.315542988434704"><ele>77.4</ele><time>2026-04-25T13:53:01Z</time></trkpt><trkpt lat="39.262502750403875" lon="9.315700310644615"><ele>77.80000000000001</ele><time>2026-04-25T13:53:02Z</time></trkpt><trkpt lat="39.262459202349476" lon="9.315834197744895"><ele>78.2</ele><time>2026-04-25T13:53:03Z</time></trkpt><trkpt lat="39.262413778433185" lon="9.315931582136221"><ele>78.60000000000001</ele><time>2026-04-25T13:53:04Z</time></trkpt><trkpt lat="39.26235449910279" lon="9.316012612105405"><ele>79.0</ele><time>2026-04-25T13:53:05Z</time></trkpt><trkpt lat="39.26228889841625" lon="9.316094873632203"><ele>79.83333333333333</ele><time>2026-04-25T13:53:06Z</time></trkpt><trkpt lat="39.26223562775221" lon="9.316162658834132"><ele>80.66666666666666</ele><time>2026-04-25T13:53:07Z</time></trkpt><trkpt lat="39.262188398956994" lon="9.316219746717419"><ele>81.5</ele><time>2026-04-25T13:53:08Z</time></trkpt><trkpt lat="39.262121130474725" lon="9.31629974955465"><ele>82.33333333333333</ele><time>2026-04-25T13:53:10Z</time></trkpt><trkpt lat="39.26202015251791" lon="9.316356053363558"><ele>83.16666666666667</ele><time>2026-04-25T13:53:12Z</time></trkpt><trkpt lat="39.26195195127354" lon="9.316396658356949"><ele>84.0</ele><time>2026-04-25T13:53:13Z</time></trkpt><trkpt lat="39.2618756366776" lon="9.316439210487376"><ele>84.0</ele><time>2026-04-25T13:53:14Z</time></trkpt><trkpt lat="39.26179296635778" lon="9.316488189272738"><ele>84.0</ele><time>2026-04-25T13:53:15Z</time></trkpt><trkpt lat="39.26170688412343" lon="9.316549112367838"><ele>84.0</ele><time>2026-04-25T13:53:16Z</time></trkpt><trkpt lat="39.26161119142632" lon="9.316591789129578"><ele>84.0</ele><time>2026-04-25T13:53:17Z</time></trkpt><trkpt lat="39.26152688654866" lon="9.316671378897368"><ele>84.0</ele><time>2026-04-25T13:53:18Z</time></trkpt><trkpt lat="39.26143060995114" lon="9.316733496124431"><ele>89.25</ele><time>2026-04-25T13:53:19Z</time></trkpt><trkpt lat="39.26133102818747" lon="9.316800281184625"><ele>94.5</ele><time>2026-04-25T13:53:20Z</time></trkpt><trkpt lat="39.26123209381983" lon="9.316883547884961"><ele>99.75</ele><time>2026-04-25T13:53:21Z</time></trkpt><trkpt lat="39.261121242276765" lon="9.316956787819205"><ele>105.0</ele><time>2026-04-25T13:53:22Z</time></trkpt><trkpt lat="39.26104068910517" lon="9.317088473604121"><ele>105.0</ele><time>2026-04-25T13:53:23Z</time></trkpt><trkpt lat="39.26096962592483" lon="9.317228097904925"><ele>105.0</ele><time>2026-04-25T13:53:24Z</time></trkpt><trkpt lat="39.260919359588684" lon="9.317387211869148"><ele>105.0</ele><time>2026-04-25T13:53:25Z</time></trkpt><trkpt lat="39.26088495644479" lon="9.317559224211127"><ele>105.0</ele><time>2026-04-25T13:53:26Z</time></trkpt><trkpt lat="39.26085810073565" lon="9.317737714546032"><ele>103.5</ele><time>2026-04-25T13:53:27Z</time></trkpt><trkpt lat="39.2608380124748" lon="9.317918776988323"><ele>102.0</ele><time>2026-04-25T13:53:28Z</time></trkpt><trkpt lat="39.260826030648296" lon="9.318108553312708"><ele>100.5</ele><time>2026-04-25T13:53:29Z</time></trkpt><trkpt lat="39.26081226922973" lon="9.318303221044838"><ele>99.0</ele><time>2026-04-25T13:53:30Z</time></trkpt><trkpt lat="39.260801613239494" lon="9.318499381997785"><ele>99.0</ele><time>2026-04-25T13:53:31Z</time></trkpt><trkpt lat="39.26078773625348" lon="9.318699311361211"><ele>99.0</ele><time>2026-04-25T13:53:32Z</time></trkpt><trkpt lat="39.260770771731956" lon="9.318899537829024"><ele>99.0</ele><time>2026-04-25T13:53:33Z</time></trkpt><trkpt lat="39.26074759660942" lon="9.319098586615905"><ele>99.0</ele><time>2026-04-25T13:53:34Z</time></trkpt><trkpt lat="39.260706886206776" lon="9.319297397854783"><ele>99.0</ele><time>2026-04-25T13:53:35Z</time></trkpt><trkpt lat="39.26065633284855" lon="9.319498821433745"><ele>99.0</ele><time>2026-04-25T13:53:36Z</time></trkpt><trkpt lat="39.26061144505369" lon="9.319697312891176"><ele>101.0</ele><time>2026-04-25T13:53:37Z</time></trkpt><trkpt lat="39.26056859400281" lon="9.319894073826658"><ele>103.0</ele><time>2026-04-25T13:53:38Z</time></trkpt><trkpt lat="39.26051335000733" lon="9.32008673760108"><ele>105.0</ele><time>2026-04-25T13:53:39Z</time></trkpt><trkpt lat="39.26046808722784" lon="9.320287809611253"><ele>105.0</ele><time>2026-04-25T13:53:40Z</time></trkpt><trkpt lat="39.26044000849988" lon="9.32049597453949"><ele>105.0</ele><time>2026-04-25T13:53:41Z</time></trkpt><trkpt lat="39.260382352963944" lon="9.320697408903584"><ele>105.0</ele><time>2026-04-25T13:53:42Z</time></trkpt><trkpt lat="39.260354102012585" lon="9.32091365958766"><ele>107.33333333333334</ele><time>2026-04-25T13:53:43Z</time></trkpt><trkpt lat="39.26030805267252" lon="9.321124053293321"><ele>109.66666666666667</ele><time>2026-04-25T13:53:44Z</time></trkpt><trkpt lat="39.260264374171555" lon="9.32133373950418"><ele>112.0</ele><time>2026-04-25T13:53:45Z</time></trkpt><trkpt lat="39.26021707344056" lon="9.321546285232449"><ele>115.0</ele><time>2026-04-25T13:53:46Z</time></trkpt><trkpt lat="39.26016553765962" lon="9.321755555825998"><ele>118.0</ele><time>2026-04-25T13:53:47Z</time></trkpt><trkpt lat="39.26011404708607" lon="9.321967741638604"><ele>121.0</ele><time>2026-04-25T13:53:48Z</time></trkpt><trkpt lat="39.260063746399496" lon="9.322185600855656"><ele>124.66666666666667</ele><time>2026-04-25T13:53:49Z</time></trkpt><trkpt lat="39.26001876017072" lon="9.322407741155851"><ele>128.33333333333334</ele><time>2026-04-25T13:53:50Z</time></trkpt><trkpt lat="39.25996127978599" lon="9.322630384762999"><ele>132.0</ele><time>2026-04-25T13:53:51Z</time></trkpt><trkpt lat="39.25991695798902" lon="9.322856016017864"><ele>130.33333333333334</ele><time>2026-04-25T13:53:52Z</time></trkpt><trkpt lat="39.259873494707925" lon="9.323078433769709"><ele>128.66666666666669</ele><time>2026-04-25T13:53:53Z</time></trkpt><trkpt lat="39.25982251309377" lon="9.323292683603686"><ele>127.0</ele><time>2026-04-25T13:53:54Z</time></trkpt><trkpt lat="39.25978011356431" lon="9.3235106067076"><ele>127.0</ele><time>2026-04-25T13:53:55Z</time></trkpt><trkpt lat="39.259722249314756" lon="9.32371703929692"><ele>127.0</ele><time>2026-04-25T13:53:56Z</time></trkpt><trkpt lat="39.2596636384616" lon="9.323923098145714"><ele>127.0</ele><time>2026-04-25T13:53:57Z</time></trkpt><trkpt lat="39.259604363998726" lon="9.324127471525783"><ele>130.66666666666669</ele><time>2026-04-25T13:53:58Z</time></trkpt><trkpt lat="39.25954224488562" lon="9.32433106671612"><ele>134.33333333333334</ele><time>2026-04-25T13:53:59Z</time></trkpt><trkpt lat="39.25945498201818" lon="9.324520043088473"><ele>138.0</ele><time>2026-04-25T13:54:00Z</time></trkpt><trkpt lat="39.25937306412963" lon="9.324707328894716"><ele>142.66666666666666</ele><time>2026-04-25T13:54:01Z</time></trkpt><trkpt lat="39.259285307421194" lon="9.324895843317055"><ele>147.33333333333331</ele><time>2026-04-25T13:54:02Z</time></trkpt><trkpt lat="39.2592205397232" lon="9.325095147327243"><ele>152.0</ele><time>2026-04-25T13:54:03Z</time></trkpt><trkpt lat="39.25915339839158" lon="9.325284780616899"><ele>152.0</ele><time>2026-04-25T13:54:04Z</time></trkpt><trkpt lat="39.25909314239743" lon="9.325469310988927"><ele>152.0</ele><time>2026-04-25T13:54:05Z</time></trkpt><trkpt lat="39.25901755291946" lon="9.325638234541682"><ele>152.0</ele><time>2026-04-25T13:54:06Z</time></trkpt><trkpt lat="39.25894743677323" lon="9.325803513326909"><ele>154.75</ele><time>2026-04-25T13:54:07Z</time></trkpt><trkpt lat="39.2588556284867" lon="9.325956001316078"><ele>157.5</ele><time>2026-04-25T13:54:08Z</time></trkpt><trkpt lat="39.25874463023531" lon="9.32608377635682"><ele>160.25</ele><time>2026-04-25T13:54:09Z</time></trkpt><trkpt lat="39.25862674793406" lon="9.326203365553962"><ele>163.0</ele><time>2026-04-25T13:54:10Z</time></trkpt><trkpt lat="39.25850578295259" lon="9.326312941112654"><ele>166.75</ele><time>2026-04-25T13:54:11Z</time></trkpt><trkpt lat="39.258388141682424" lon="9.32639744683534"><ele>170.5</ele><time>2026-04-25T13:54:12Z</time></trkpt><trkpt lat="39.258265586825075" lon="9.326457239794665"><ele>174.25</ele><time>2026-04-25T13:54:13Z</time></trkpt><trkpt lat="39.258130790022285" lon="9.326452372751326"><ele>178.0</ele><time>2026-04-25T13:54:14Z</time></trkpt><trkpt lat="39.25799578218328" lon="9.326399479830467"><ele>176.75</ele><time>2026-04-25T13:54:15Z</time></trkpt><trkpt lat="39.257878052261425" lon="9.326299695043565"><ele>175.5</ele><time>2026-04-25T13:54:16Z</time></trkpt><trkpt lat="39.25776292508306" lon="9.32618953397708"><ele>174.25</ele><time>2026-04-25T13:54:17Z</time></trkpt><trkpt lat="39.25764756227874" lon="9.326101488576832"><ele>173.0</ele><time>2026-04-25T13:54:18Z</time></trkpt><trkpt lat="39.25756918405113" lon="9.326029419627313"><ele>173.0</ele><time>2026-04-25T13:54:19Z</time></trkpt><trkpt lat="39.25748417298626" lon="9.326042047711152"><ele>173.0</ele><time>2026-04-25T13:54:20Z</time></trkpt><trkpt lat="39.257411356939485" lon="9.32610984509114"><ele>173.0</ele><time>2026-04-25T13:54:21Z</time></trkpt><trkpt lat="39.257357133134185" lon="9.326238667633682"><ele>173.0</ele><time>2026-04-25T13:54:22Z</time></trkpt><trkpt lat="39.257298562383774" lon="9.326353298069296"><ele>173.0</ele><time>2026-04-25T13:54:23Z</time></trkpt><trkpt lat="39.25723854298565" lon="9.326486888184794"><ele>174.75</ele><time>2026-04-25T13:54:24Z</time></trkpt><trkpt lat="39.25718179140859" lon="9.326624460768672"><ele>176.5</ele><time>2026-04-25T13:54:25Z</time></trkpt><trkpt lat="39.25711973840055" lon="9.326766914057737"><ele>178.25</ele><time>2026-04-25T13:54:26Z</time></trkpt><trkpt lat="39.25705504487352" lon="9.326914982275346"><ele>180.0</ele><time>2026-04-25T13:54:27Z</time></trkpt><trkpt lat="39.25698598416655" lon="9.32706485570328"><ele>180.0</ele><time>2026-04-25T13:54:28Z</time></trkpt><trkpt lat="39.25691077334824" lon="9.327210616843026"><ele>180.0</ele><time>2026-04-25T13:54:29Z</time></trkpt><trkpt lat="39.256830525190765" lon="9.327356583990703"><ele>180.0</ele><time>2026-04-25T13:54:30Z</time></trkpt><trkpt lat="39.25674706392189" lon="9.327501729211473"><ele>180.0</ele><time>2026-04-25T13:54:31Z</time></trkpt><trkpt lat="39.25665894333002" lon="9.327639489408053"><ele>182.75</ele><time>2026-04-25T13:54:32Z</time></trkpt><trkpt lat="39.25656968190332" lon="9.32776941950035"><ele>185.5</ele><time>2026-04-25T13:54:33Z</time></trkpt><trkpt lat="39.25650015278516" lon="9.327904291691173"><ele>188.25</ele><time>2026-04-25T13:54:34Z</time></trkpt><trkpt lat="39.256468216303965" lon="9.328052265789024"><ele>191.0</ele><time>2026-04-25T13:54:35Z</time></trkpt><trkpt lat="39.25646499054309" lon="9.328212216254855"><ele>192.25</ele><time>2026-04-25T13:54:36Z</time></trkpt><trkpt lat="39.2564319249668" lon="9.328368435673246"><ele>193.5</ele><time>2026-04-25T13:54:37Z</time></trkpt><trkpt lat="39.25639893520198" lon="9.328530862685302"><ele>194.75</ele><time>2026-04-25T13:54:38Z</time></trkpt><trkpt lat="39.25630595848796" lon="9.32865823431773"><ele>196.0</ele><time>2026-04-25T13:54:39Z</time></trkpt><trkpt lat="39.256193776185505" lon="9.328757647262371"><ele>196.0</ele><time>2026-04-25T13:54:40Z</time></trkpt><trkpt lat="39.25607248335469" lon="9.328844851419568"><ele>196.0</ele><time>2026-04-25T13:54:41Z</time></trkpt><trkpt lat="39.25594781602954" lon="9.328933402127896"><ele>196.0</ele><time>2026-04-25T13:54:42Z</time></trkpt><trkpt lat="39.255823480266415" lon="9.329018246625393"><ele>196.0</ele><time>2026-04-25T13:54:43Z</time></trkpt><trkpt lat="39.25570028813416" lon="9.32910355873179"><ele>204.0</ele><time>2026-04-25T13:54:44Z</time></trkpt><trkpt lat="39.25557802720656" lon="9.329170736261522"><ele>212.0</ele><time>2026-04-25T13:54:45Z</time></trkpt><trkpt lat="39.2554441029727" lon="9.329190293742387"><ele>220.0</ele><time>2026-04-25T13:54:46Z</time></trkpt><trkpt lat="39.25530323606228" lon="9.329172466544646"><ele>228.0</ele><time>2026-04-25T13:54:47Z</time></trkpt><trkpt lat="39.255154890473676" lon="9.329182082402529"><ele>228.0</ele><time>2026-04-25T13:54:48Z</time></trkpt><trkpt lat="39.25501146256734" lon="9.32920839830888"><ele>228.0</ele><time>2026-04-25T13:54:49Z</time></trkpt><trkpt lat="39.2548745870509" lon="9.329232036130493"><ele>228.0</ele><time>2026-04-25T13:54:50Z</time></trkpt><trkpt lat="39.254738483026784" lon="9.329226623204388"><ele>228.0</ele><time>2026-04-25T13:54:51Z</time></trkpt><trkpt lat="39.25459253732204" lon="9.329198256466855"><ele>228.5</ele><time>2026-04-25T13:54:52Z</time></trkpt><trkpt lat="39.254449178960435" lon="9.329156630510997"><ele>229.0</ele><time>2026-04-25T13:54:53Z</time></trkpt><trkpt lat="39.25431467051943" lon="9.32908605711711"><ele>229.5</ele><time>2026-04-25T13:54:54Z</time></trkpt><trkpt lat="39.254201961978204" lon="9.328972679606816"><ele>230.0</ele><time>2026-04-25T13:54:55Z</time></trkpt><trkpt lat="39.25411315352125" lon="9.328820529878817"><ele>230.0</ele><time>2026-04-25T13:54:56Z</time></trkpt><trkpt lat="39.25401870734741" lon="9.32866080883135"><ele>230.0</ele><time>2026-04-25T13:54:57Z</time></trkpt><trkpt lat="39.253928425568205" lon="9.328512512424389"><ele>230.0</ele><time>2026-04-25T13:54:58Z</time></trkpt><trkpt lat="39.253849583690254" lon="9.32837054614034"><ele>230.0</ele><time>2026-04-25T13:54:59Z</time></trkpt><trkpt lat="39.253821790349804" lon="9.32821415843025"><ele>233.5</ele><time>2026-04-25T13:55:00Z</time></trkpt><trkpt lat="39.25382413839944" lon="9.328046082182828"><ele>237.0</ele><time>2026-04-25T13:55:01Z</time></trkpt><trkpt lat="39.25381209017478" lon="9.327885683646775"><ele>240.5</ele><time>2026-04-25T13:55:02Z</time></trkpt><trkpt lat="39.25378842353625" lon="9.327740285865314"><ele>244.0</ele><time>2026-04-25T13:55:03Z</time></trkpt><trkpt lat="39.25373954464247" lon="9.327606330536335"><ele>244.0</ele><time>2026-04-25T13:55:04Z</time></trkpt><trkpt lat="39.25363073190135" lon="9.32754646845019"><ele>244.0</ele><time>2026-04-25T13:55:05Z</time></trkpt><trkpt lat="39.25353157708287" lon="9.327468209164145"><ele>244.0</ele><time>2026-04-25T13:55:06Z</time></trkpt><trkpt lat="39.25342063106629" lon="9.327428737106393"><ele>244.0</ele><time>2026-04-25T13:55:07Z</time></trkpt><trkpt lat="39.253312924553434" lon="9.327379286757559"><ele>244.0</ele><time>2026-04-25T13:55:08Z</time></trkpt><trkpt lat="39.25320828613964" lon="9.327356567197132"><ele>243.99999999999997</ele><time>2026-04-25T13:55:09Z</time></trkpt><trkpt lat="39.25310374911536" lon="9.327345250376583"><ele>243.99999999999997</ele><time>2026-04-25T13:55:10Z</time></trkpt><trkpt lat="39.25300655991389" lon="9.327399736216432"><ele>244.0</ele><time>2026-04-25T13:55:11Z</time></trkpt><trkpt lat="39.25294794682841" lon="9.327527082757728"><ele>244.0</ele><time>2026-04-25T13:55:12Z</time></trkpt><trkpt lat="39.252900832346675" lon="9.327658827561324"><ele>244.5</ele><time>2026-04-25T13:55:13Z</time></trkpt><trkpt lat="39.25284362829103" lon="9.327789418664889"><ele>245.0</ele><time>2026-04-25T13:55:14Z</time></trkpt><trkpt lat="39.25280965900207" lon="9.327935903960924"><ele>245.5</ele><time>2026-04-25T13:55:15Z</time></trkpt><trkpt lat="39.252755164713165" lon="9.328080996682173"><ele>246.0</ele><time>2026-04-25T13:55:16Z</time></trkpt><trkpt lat="39.25270277323338" lon="9.328232510316798"><ele>246.0</ele><time>2026-04-25T13:55:17Z</time></trkpt><trkpt lat="39.25265188994922" lon="9.328381240309517"><ele>246.0</ele><time>2026-04-25T13:55:18Z</time></trkpt><trkpt lat="39.25262260400687" lon="9.328527069411857"><ele>246.0</ele><time>2026-04-25T13:55:19Z</time></trkpt><trkpt lat="39.25261520361119" lon="9.328663110175533"><ele>246.0</ele><time>2026-04-25T13:55:20Z</time></trkpt><trkpt lat="39.25264364218742" lon="9.328801353900092"><ele>246.5</ele><time>2026-04-25T13:55:21Z</time></trkpt><trkpt lat="39.25269837867621" lon="9.328944251905147"><ele>247.0</ele><time>2026-04-25T13:55:22Z</time></trkpt><trkpt lat="39.25275238909516" lon="9.329096418955546"><ele>247.5</ele><time>2026-04-25T13:55:23Z</time></trkpt><trkpt lat="39.252792702202896" lon="9.329260821477037"><ele>248.0</ele><time>2026-04-25T13:55:24Z</time></trkpt><trkpt lat="39.252830524644814" lon="9.329435185981664"><ele>248.0</ele><time>2026-04-25T13:55:25Z</time></trkpt><trkpt lat="39.25287020469987" lon="9.329611080289377"><ele>248.0</ele><time>2026-04-25T13:55:26Z</time></trkpt><trkpt lat="39.252910284700135" lon="9.32978702346862"><ele>248.0</ele><time>2026-04-25T13:55:27Z</time></trkpt><trkpt lat="39.252950947077245" lon="9.329965363041172"><ele>248.0</ele><time>2026-04-25T13:55:28Z</time></trkpt><trkpt lat="39.25299138915302" lon="9.330145911019889"><ele>247.25</ele><time>2026-04-25T13:55:29Z</time></trkpt><trkpt lat="39.253033471360816" lon="9.330325446680021"><ele>246.5</ele><time>2026-04-25T13:55:30Z</time></trkpt><trkpt lat="39.25307678474353" lon="9.330508194793548"><ele>245.75</ele><time>2026-04-25T13:55:31Z</time></trkpt><trkpt lat="39.253117156999934" lon="9.330690978424704"><ele>245.0</ele><time>2026-04-25T13:55:32Z</time></trkpt><trkpt lat="39.25315095267231" lon="9.330869905112078"><ele>249.0</ele><time>2026-04-25T13:55:33Z</time></trkpt><trkpt lat="39.25318945875686" lon="9.331036391621838"><ele>253.0</ele><time>2026-04-25T13:55:34Z</time></trkpt><trkpt lat="39.253255790614986" lon="9.331195414727436"><ele>257.0</ele><time>2026-04-25T13:55:35Z</time></trkpt><trkpt lat="39.25333373676542" lon="9.331349204572474"><ele>261.0</ele><time>2026-04-25T13:55:36Z</time></trkpt><trkpt lat="39.25338513293122" lon="9.331517273565947"><ele>261.0</ele><time>2026-04-25T13:55:37Z</time></trkpt><trkpt lat="39.253450692339044" lon="9.331676803345621"><ele>261.0</ele><time>2026-04-25T13:55:38Z</time></trkpt><trkpt lat="39.25352640751711" lon="9.331829723982992"><ele>261.0</ele><time>2026-04-25T13:55:39Z</time></trkpt><trkpt lat="39.25358388061134" lon="9.331993120139595"><ele>261.0</ele><time>2026-04-25T13:55:40Z</time></trkpt><trkpt lat="39.253640303584284" lon="9.332154792483047"><ele>263.25</ele><time>2026-04-25T13:55:41Z</time></trkpt><trkpt lat="39.253689342239156" lon="9.332318286289688"><ele>265.5</ele><time>2026-04-25T13:55:42Z</time></trkpt><trkpt lat="39.25372668844941" lon="9.33249036226787"><ele>267.75</ele><time>2026-04-25T13:55:43Z</time></trkpt><trkpt lat="39.253759567327464" lon="9.332669380028507"><ele>270.0</ele><time>2026-04-25T13:55:44Z</time></trkpt><trkpt lat="39.25379334231567" lon="9.332853671736776"><ele>270.0</ele><time>2026-04-25T13:55:45Z</time></trkpt><trkpt lat="39.2538244781574" lon="9.333039115605361"><ele>270.0</ele><time>2026-04-25T13:55:46Z</time></trkpt><trkpt lat="39.253850037560085" lon="9.333228297533182"><ele>270.0</ele><time>2026-04-25T13:55:47Z</time></trkpt><trkpt lat="39.253875041476505" lon="9.333419203978412"><ele>270.0</ele><time>2026-04-25T13:55:48Z</time></trkpt><trkpt lat="39.25390384872898" lon="9.333609310261426"><ele>267.75</ele><time>2026-04-25T13:55:49Z</time></trkpt><trkpt lat="39.25393360625152" lon="9.333798811335436"><ele>265.5</ele><time>2026-04-25T13:55:50Z</time></trkpt><trkpt lat="39.25396663363896" lon="9.33398552286844"><ele>263.25</ele><time>2026-04-25T13:55:51Z</time></trkpt><trkpt lat="39.25399447846353" lon="9.334170424404928"><ele>261.0</ele><time>2026-04-25T13:55:52Z</time></trkpt><trkpt lat="39.25408751322884" lon="9.334330242268287"><ele>261.0</ele><time>2026-04-25T13:55:53Z</time></trkpt><trkpt lat="39.254177455254386" lon="9.334479942247336"><ele>261.0</ele><time>2026-04-25T13:55:54Z</time></trkpt><trkpt lat="39.25426998266371" lon="9.334625902542529"><ele>261.0</ele><time>2026-04-25T13:55:55Z</time></trkpt><trkpt lat="39.25435331725835" lon="9.334777375411985"><ele>261.0</ele><time>2026-04-25T13:55:56Z</time></trkpt><trkpt lat="39.25443781509783" lon="9.33491928236484"><ele>261.25</ele><time>2026-04-25T13:55:57Z</time></trkpt><trkpt lat="39.254535778319465" lon="9.335034900282613"><ele>261.5</ele><time>2026-04-25T13:55:58Z</time></trkpt><trkpt lat="39.254631208621966" lon="9.335142798187285"><ele>261.75</ele><time>2026-04-25T13:55:59Z</time></trkpt><trkpt lat="39.25471507149828" lon="9.335262917586187"><ele>262.0</ele><time>2026-04-25T13:56:00Z</time></trkpt><trkpt lat="39.25477799298015" lon="9.33540391809003"><ele>262.5</ele><time>2026-04-25T13:56:01Z</time></trkpt><trkpt lat="39.254819464544454" lon="9.335565375066322"><ele>263.0</ele><time>2026-04-25T13:56:02Z</time></trkpt><trkpt lat="39.25486004526474" lon="9.335728338658404"><ele>263.5</ele><time>2026-04-25T13:56:03Z</time></trkpt><trkpt lat="39.25490983324463" lon="9.335889384655694"><ele>264.0</ele><time>2026-04-25T13:56:04Z</time></trkpt><trkpt lat="39.25496240458559" lon="9.336050804555924"><ele>264.0</ele><time>2026-04-25T13:56:05Z</time></trkpt><trkpt lat="39.25501592990269" lon="9.33621169792411"><ele>264.0</ele><time>2026-04-25T13:56:06Z</time></trkpt><trkpt lat="39.255070590166994" lon="9.336369753754143"><ele>264.0</ele><time>2026-04-25T13:56:07Z</time></trkpt><trkpt lat="39.25513841304646" lon="9.336515318398277"><ele>264.0</ele><time>2026-04-25T13:56:08Z</time></trkpt><trkpt lat="39.25523105332582" lon="9.336638951512281"><ele>265.25</ele><time>2026-04-25T13:56:09Z</time></trkpt><trkpt lat="39.25534937238865" lon="9.336733858143184"><ele>266.5</ele><time>2026-04-25T13:56:10Z</time></trkpt><trkpt lat="39.25547153484356" lon="9.336821542199463"><ele>267.75</ele><time>2026-04-25T13:56:11Z</time></trkpt><trkpt lat="39.255590795331685" lon="9.336914270764805"><ele>269.0</ele><time>2026-04-25T13:56:12Z</time></trkpt><trkpt lat="39.25570254298997" lon="9.337009579556973"><ele>270.4</ele><time>2026-04-25T13:56:13Z</time></trkpt><trkpt lat="39.25579382534276" lon="9.337114784750531"><ele>271.79999999999995</ele><time>2026-04-25T13:56:14Z</time></trkpt><trkpt lat="39.25585000704577" lon="9.33723954629694"><ele>273.20000000000005</ele><time>2026-04-25T13:56:15Z</time></trkpt><trkpt lat="39.25585694310547" lon="9.337364628759659"><ele>274.6</ele><time>2026-04-25T13:56:16Z</time></trkpt><trkpt lat="39.25579791552878" lon="9.337487224186242"><ele>276.0</ele><time>2026-04-25T13:56:17Z</time></trkpt><trkpt lat="39.25575649783704" lon="9.337627037804923"><ele>277.75</ele><time>2026-04-25T13:56:18Z</time></trkpt><trkpt lat="39.25570726708198" lon="9.33775752234276"><ele>279.5</ele><time>2026-04-25T13:56:19Z</time></trkpt><trkpt lat="39.25567155547554" lon="9.33789916636566"><ele>281.25</ele><time>2026-04-25T13:56:20Z</time></trkpt><trkpt lat="39.25563575924063" lon="9.338042550943946"><ele>283.0</ele><time>2026-04-25T13:56:21Z</time></trkpt><trkpt lat="39.25564621038941" lon="9.338193620896895"><ele>282.6</ele><time>2026-04-25T13:56:22Z</time></trkpt><trkpt lat="39.25563604231699" lon="9.338342548218067"><ele>282.20000000000005</ele><time>2026-04-25T13:56:23Z</time></trkpt><trkpt lat="39.25558981562963" lon="9.338471026307777"><ele>281.8</ele><time>2026-04-25T13:56:24Z</time></trkpt><trkpt lat="39.25554726471238" lon="9.33858764084919"><ele>281.40000000000003</ele><time>2026-04-25T13:56:25Z</time></trkpt><trkpt lat="39.255497376918115" lon="9.338697375996553"><ele>281.0</ele><time>2026-04-25T13:56:26Z</time></trkpt><trkpt lat="39.255402442547506" lon="9.33874982453583"><ele>281.0</ele><time>2026-04-25T13:56:27Z</time></trkpt><trkpt lat="39.255301142069705" lon="9.338784650540145"><ele>281.0</ele><time>2026-04-25T13:56:28Z</time></trkpt><trkpt lat="39.25519142552268" lon="9.338823082349546"><ele>281.0</ele><time>2026-04-25T13:56:29Z</time></trkpt><trkpt lat="39.25507542878321" lon="9.338859107449878"><ele>281.0</ele><time>2026-04-25T13:56:30Z</time></trkpt><trkpt lat="39.2549509330397" lon="9.338896112366038"><ele>285.25</ele><time>2026-04-25T13:56:31Z</time></trkpt><trkpt lat="39.25483123969621" lon="9.338945873032499"><ele>289.5</ele><time>2026-04-25T13:56:32Z</time></trkpt><trkpt lat="39.25471003452621" lon="9.338976057754975"><ele>293.75</ele><time>2026-04-25T13:56:33Z</time></trkpt><trkpt lat="39.254595881525105" lon="9.338978490791481"><ele>298.0</ele><time>2026-04-25T13:56:34Z</time></trkpt><trkpt lat="39.25448890498588" lon="9.339005829074047"><ele>298.0</ele><time>2026-04-25T13:56:35Z</time></trkpt><trkpt lat="39.25440118662651" lon="9.339066780270349"><ele>298.0</ele><time>2026-04-25T13:56:36Z</time></trkpt><trkpt lat="39.254327242324194" lon="9.339133688140599"><ele>298.0</ele><time>2026-04-25T13:56:37Z</time></trkpt><trkpt lat="39.25427931008048" lon="9.339242153621143"><ele>298.0</ele><time>2026-04-25T13:56:38Z</time></trkpt><trkpt lat="39.25424680993751" lon="9.3393680220195"><ele>298.0</ele><time>2026-04-25T13:56:39Z</time></trkpt><trkpt lat="39.2542236973332" lon="9.339504743771064"><ele>298.0</ele><time>2026-04-25T13:56:40Z</time></trkpt><trkpt lat="39.25421756293291" lon="9.339642965786634"><ele>298.0</ele><time>2026-04-25T13:56:41Z</time></trkpt><trkpt lat="39.2542508157708" lon="9.339795343931321"><ele>298.0</ele><time>2026-04-25T13:56:42Z</time></trkpt><trkpt lat="39.25428983279139" lon="9.339953556624291"><ele>298.0</ele><time>2026-04-25T13:56:43Z</time></trkpt><trkpt lat="39.25434347560808" lon="9.34011158431796"><ele>295.0</ele><time>2026-04-25T13:56:44Z</time></trkpt><trkpt lat="39.25441740615022" lon="9.340243266744706"><ele>292.0</ele><time>2026-04-25T13:56:45Z</time></trkpt><trkpt lat="39.25451590375542" lon="9.340368990751445"><ele>289.0</ele><time>2026-04-25T13:56:46Z</time></trkpt><trkpt lat="39.254625497958465" lon="9.340475913036252"><ele>286.0</ele><time>2026-04-25T13:56:47Z</time></trkpt><trkpt lat="39.25473595802093" lon="9.340584630081688"><ele>286.5</ele><time>2026-04-25T13:56:48Z</time></trkpt><trkpt lat="39.25483701583203" lon="9.340701268826423"><ele>287.0</ele><time>2026-04-25T13:56:49Z</time></trkpt><trkpt lat="39.2549241655682" lon="9.340840900890218"><ele>287.5</ele><time>2026-04-25T13:56:50Z</time></trkpt><trkpt lat="39.25498991053918" lon="9.340993511046191"><ele>288.0</ele><time>2026-04-25T13:56:51Z</time></trkpt><trkpt lat="39.25502708747266" lon="9.341145820709794"><ele>288.0</ele><time>2026-04-25T13:56:52Z</time></trkpt><trkpt lat="39.25500869074419" lon="9.341300847965012"><ele>288.0</ele><time>2026-04-25T13:56:53Z</time></trkpt><trkpt lat="39.2550041281747" lon="9.341463921159654"><ele>288.0</ele><time>2026-04-25T13:56:54Z</time></trkpt><trkpt lat="39.254980417755654" lon="9.341629004619774"><ele>288.0</ele><time>2026-04-25T13:56:55Z</time></trkpt><trkpt lat="39.25495289694802" lon="9.341799017162698"><ele>285.5</ele><time>2026-04-25T13:56:56Z</time></trkpt><trkpt lat="39.25493297028481" lon="9.341962619712044"><ele>283.0</ele><time>2026-04-25T13:56:57Z</time></trkpt><trkpt lat="39.254949673014806" lon="9.342114397580533"><ele>280.5</ele><time>2026-04-25T13:56:58Z</time></trkpt><trkpt lat="39.25499984493165" lon="9.342261278868397"><ele>278.0</ele><time>2026-04-25T13:56:59Z</time></trkpt><trkpt lat="39.25505355122158" lon="9.342405073524844"><ele>276.5</ele><time>2026-04-25T13:57:00Z</time></trkpt><trkpt lat="39.25511006510708" lon="9.342546054332358"><ele>275.0</ele><time>2026-04-25T13:57:01Z</time></trkpt><trkpt lat="39.25514564596536" lon="9.342689949657045"><ele>273.5</ele><time>2026-04-25T13:57:02Z</time></trkpt><trkpt lat="39.255143595378435" lon="9.342833632001303"><ele>272.0</ele><time>2026-04-25T13:57:03Z</time></trkpt><trkpt lat="39.25507087681171" lon="9.342942093315772"><ele>272.0</ele><time>2026-04-25T13:57:04Z</time></trkpt><trkpt lat="39.25500422102447" lon="9.343066343149134"><ele>272.0</ele><time>2026-04-25T13:57:05Z</time></trkpt><trkpt lat="39.25494593544848" lon="9.343202447320627"><ele>272.0</ele><time>2026-04-25T13:57:06Z</time></trkpt><trkpt lat="39.254874015395906" lon="9.343332597248084"><ele>272.0</ele><time>2026-04-25T13:57:07Z</time></trkpt><trkpt lat="39.25480332285515" lon="9.343447901091595"><ele>272.0</ele><time>2026-04-25T13:57:08Z</time></trkpt><trkpt lat="39.25480345573599" lon="9.343592346054507"><ele>272.0</ele><time>2026-04-25T13:57:09Z</time></trkpt><trkpt lat="39.25483170243364" lon="9.343725154935663"><ele>272.0</ele><time>2026-04-25T13:57:10Z</time></trkpt><trkpt lat="39.254906368360444" lon="9.343837195791044"><ele>272.0</ele><time>2026-04-25T13:57:11Z</time></trkpt><trkpt lat="39.25501087368605" lon="9.343921502841866"><ele>270.75</ele><time>2026-04-25T13:57:12Z</time></trkpt><trkpt lat="39.25510802648373" lon="9.344013321322304"><ele>269.5</ele><time>2026-04-25T13:57:13Z</time></trkpt><trkpt lat="39.25515927502008" lon="9.344156968601174"><ele>268.25</ele><time>2026-04-25T13:57:14Z</time></trkpt><trkpt lat="39.25518347047238" lon="9.34430802984722"><ele>267.0</ele><time>2026-04-25T13:57:15Z</time></trkpt><trkpt lat="39.255168613916496" lon="9.344462458152597"><ele>267.0</ele><time>2026-04-25T13:57:16Z</time></trkpt><trkpt lat="39.25517707399372" lon="9.344616453351883"><ele>267.0</ele><time>2026-04-25T13:57:17Z</time></trkpt><trkpt lat="39.2551860051769" lon="9.34474794579136"><ele>267.0</ele><time>2026-04-25T13:57:18Z</time></trkpt><trkpt lat="39.255235357908894" lon="9.344864681648241"><ele>267.0</ele><time>2026-04-25T13:57:19Z</time></trkpt><trkpt lat="39.25532250204057" lon="9.344957284960678"><ele>267.0</ele><time>2026-04-25T13:57:20Z</time></trkpt><trkpt lat="39.25543270544329" lon="9.345004074435224"><ele>267.5</ele><time>2026-04-25T13:57:21Z</time></trkpt><trkpt lat="39.255548031661" lon="9.34504951538404"><ele>268.0</ele><time>2026-04-25T13:57:22Z</time></trkpt><trkpt lat="39.25566533282522" lon="9.345096740676397"><ele>268.5</ele><time>2026-04-25T13:57:23Z</time></trkpt><trkpt lat="39.25578477105058" lon="9.345142344068197"><ele>269.0</ele><time>2026-04-25T13:57:24Z</time></trkpt><trkpt lat="39.25589435396753" lon="9.345190359822986"><ele>269.0</ele><time>2026-04-25T13:57:25Z</time></trkpt><trkpt lat="39.25599763534331" lon="9.345235985505703"><ele>269.0</ele><time>2026-04-25T13:57:26Z</time></trkpt><trkpt lat="39.2560819590395" lon="9.345309395049245"><ele>269.0</ele><time>2026-04-25T13:57:27Z</time></trkpt><trkpt lat="39.25613869413906" lon="9.345419494017845"><ele>269.0</ele><time>2026-04-25T13:57:28Z</time></trkpt><trkpt lat="39.25616314008876" lon="9.345563643051653"><ele>269.0</ele><time>2026-04-25T13:57:29Z</time></trkpt><trkpt lat="39.25618617081095" lon="9.345712009792237"><ele>267.0</ele><time>2026-04-25T13:57:30Z</time></trkpt><trkpt lat="39.25619357026441" lon="9.345851040474749"><ele>265.0</ele><time>2026-04-25T13:57:31Z</time></trkpt><trkpt lat="39.25616331033024" lon="9.345955764772334"><ele>263.0</ele><time>2026-04-25T13:57:32Z</time></trkpt><trkpt lat="39.25609977923954" lon="9.346012807475011"><ele>261.0</ele><time>2026-04-25T13:57:33Z</time></trkpt><trkpt lat="39.25602193627557" lon="9.346044747456174"><ele>259.0</ele><time>2026-04-25T13:57:34Z</time></trkpt><trkpt lat="39.255921149195636" lon="9.346083003422564"><ele>259.0</ele><time>2026-04-25T13:57:35Z</time></trkpt><trkpt lat="39.25580627861074" lon="9.34612641960422"><ele>259.0</ele><time>2026-04-25T13:57:36Z</time></trkpt><trkpt lat="39.25568611132026" lon="9.346195660890709"><ele>259.0</ele><time>2026-04-25T13:57:37Z</time></trkpt><trkpt lat="39.25556449318295" lon="9.346274896083225"><ele>259.0</ele><time>2026-04-25T13:57:38Z</time></trkpt><trkpt lat="39.255442236973316" lon="9.346355597668898"><ele>255.5</ele><time>2026-04-25T13:57:39Z</time></trkpt><trkpt lat="39.255325995291024" lon="9.346437015025058"><ele>252.0</ele><time>2026-04-25T13:57:40Z</time></trkpt><trkpt lat="39.255226543766135" lon="9.346518470438312"><ele>248.5</ele><time>2026-04-25T13:57:41Z</time></trkpt><trkpt lat="39.25515277355585" lon="9.346624974977358"><ele>245.0</ele><time>2026-04-25T13:57:42Z</time></trkpt><trkpt lat="39.2551268530479" lon="9.346774935966918"><ele>245.0</ele><time>2026-04-25T13:57:43Z</time></trkpt><trkpt lat="39.25510689745233" lon="9.346924939704955"><ele>245.0</ele><time>2026-04-25T13:57:44Z</time></trkpt><trkpt lat="39.25512238365641" lon="9.347084998062119"><ele>245.0</ele><time>2026-04-25T13:57:45Z</time></trkpt><trkpt lat="39.25516046811408" lon="9.34724851361895"><ele>245.0</ele><time>2026-04-25T13:57:46Z</time></trkpt><trkpt lat="39.25518516531663" lon="9.347406645724153"><ele>244.5</ele><time>2026-04-25T13:57:47Z</time></trkpt><trkpt lat="39.255209953448016" lon="9.3475584790976"><ele>244.0</ele><time>2026-04-25T13:57:48Z</time></trkpt><trkpt lat="39.25525571987335" lon="9.34770153611957"><ele>243.5</ele><time>2026-04-25T13:57:49Z</time></trkpt><trkpt lat="39.25532563592326" lon="9.347831307875584"><ele>243.0</ele><time>2026-04-25T13:57:50Z</time></trkpt><trkpt lat="39.255400900389404" lon="9.347942905348878"><ele>243.0</ele><time>2026-04-25T13:57:51Z</time></trkpt><trkpt lat="39.25548420876103" lon="9.348025689715593"><ele>243.0</ele><time>2026-04-25T13:57:52Z</time></trkpt><trkpt lat="39.25559087560001" lon="9.348055567267513"><ele>243.0</ele><time>2026-04-25T13:57:53Z</time></trkpt><trkpt lat="39.255711667608786" lon="9.34803651029509"><ele>243.0</ele><time>2026-04-25T13:57:54Z</time></trkpt><trkpt lat="39.255831711658885" lon="9.347995642301523"><ele>246.5</ele><time>2026-04-25T13:57:55Z</time></trkpt><trkpt lat="39.25595618685963" lon="9.347933217799682"><ele>250.0</ele><time>2026-04-25T13:57:56Z</time></trkpt><trkpt lat="39.2560820770624" lon="9.347869574148554"><ele>253.5</ele><time>2026-04-25T13:57:57Z</time></trkpt><trkpt lat="39.256207940157225" lon="9.347804874752455"><ele>257.0</ele><time>2026-04-25T13:57:58Z</time></trkpt><trkpt lat="39.25633049973403" lon="9.347734713344003"><ele>256.5</ele><time>2026-04-25T13:57:59Z</time></trkpt><trkpt lat="39.25645496791361" lon="9.347674617666422"><ele>256.0</ele><time>2026-04-25T13:58:00Z</time></trkpt><trkpt lat="39.25658126613823" lon="9.347653645588505"><ele>255.5</ele><time>2026-04-25T13:58:01Z</time></trkpt><trkpt lat="39.25670739500673" lon="9.347676142627321"><ele>255.0</ele><time>2026-04-25T13:58:02Z</time></trkpt><trkpt lat="39.25681416977452" lon="9.347725705333367"><ele>255.0</ele><time>2026-04-25T13:58:03Z</time></trkpt><trkpt lat="39.256885237034275" lon="9.347799168805357"><ele>255.0</ele><time>2026-04-25T13:58:04Z</time></trkpt><trkpt lat="39.25691169994267" lon="9.347888965044271"><ele>255.0</ele><time>2026-04-25T13:58:05Z</time></trkpt><trkpt lat="39.25691756958911" lon="9.348004253849995"><ele>255.0</ele><time>2026-04-25T13:58:06Z</time></trkpt><trkpt lat="39.256919413082954" lon="9.348137186791872"><ele>255.0</ele><time>2026-04-25T13:58:07Z</time></trkpt><trkpt lat="39.25692616923297" lon="9.348282444265122"><ele>256.0</ele><time>2026-04-25T13:58:08Z</time></trkpt><trkpt lat="39.25693599213318" lon="9.348430661192639"><ele>257.0</ele><time>2026-04-25T13:58:09Z</time></trkpt><trkpt lat="39.25694676186415" lon="9.348592158723612"><ele>258.0</ele><time>2026-04-25T13:58:10Z</time></trkpt><trkpt lat="39.25695843160959" lon="9.348759205133723"><ele>259.0</ele><time>2026-04-25T13:58:11Z</time></trkpt><trkpt lat="39.25696734926858" lon="9.348929232682943"><ele>259.0</ele><time>2026-04-25T13:58:12Z</time></trkpt><trkpt lat="39.25697462335912" lon="9.349100383910601"><ele>259.0</ele><time>2026-04-25T13:58:13Z</time></trkpt><trkpt lat="39.25699051100865" lon="9.349272922948117"><ele>259.0</ele><time>2026-04-25T13:58:14Z</time></trkpt><trkpt lat="39.25700835712983" lon="9.349439536152993"><ele>259.0</ele><time>2026-04-25T13:58:15Z</time></trkpt><trkpt lat="39.257018280148976" lon="9.349590174026307"><ele>259.0</ele><time>2026-04-25T13:58:16Z</time></trkpt><trkpt lat="39.25702263381907" lon="9.349707322576434"><ele>259.0</ele><time>2026-04-25T13:58:17Z</time></trkpt><trkpt lat="39.25700842866375" lon="9.349788222008963"><ele>259.0</ele><time>2026-04-25T13:58:18Z</time></trkpt><trkpt lat="39.25690941491083" lon="9.349840834021103"><ele>259.0</ele><time>2026-04-25T13:58:20Z</time></trkpt><trkpt lat="39.25684156878712" lon="9.349802210498083"><ele>259.0</ele><time>2026-04-25T13:58:21Z</time></trkpt><trkpt lat="39.25678701984912" lon="9.349714574206995"><ele>259.0</ele><time>2026-04-25T13:58:22Z</time></trkpt><trkpt lat="39.25673614865212" lon="9.349606561462501"><ele>259.0</ele><time>2026-04-25T13:58:23Z</time></trkpt><trkpt lat="39.256678942273375" lon="9.349505388353238"><ele>259.0</ele><time>2026-04-25T13:58:24Z</time></trkpt><trkpt lat="39.25660884898714" lon="9.34939936509921"><ele>259.0</ele><time>2026-04-25T13:58:25Z</time></trkpt><trkpt lat="39.256531504671834" lon="9.349281545188084"><ele>259.0</ele><time>2026-04-25T13:58:26Z</time></trkpt><trkpt lat="39.256456557325954" lon="9.349152341536346"><ele>260.8</ele><time>2026-04-25T13:58:27Z</time></trkpt><trkpt lat="39.256387654894795" lon="9.349027757028608"><ele>262.59999999999997</ele><time>2026-04-25T13:58:28Z</time></trkpt><trkpt lat="39.2563267527669" lon="9.348938933801909"><ele>264.4</ele><time>2026-04-25T13:58:29Z</time></trkpt><trkpt lat="39.256262593599246" lon="9.34892300998571"><ele>266.2</ele><time>2026-04-25T13:58:30Z</time></trkpt><trkpt lat="39.25619113023101" lon="9.349068189207593"><ele>268.0</ele><time>2026-04-25T13:58:32Z</time></trkpt><trkpt lat="39.25621362905345" lon="9.349189225028713"><ele>268.0</ele><time>2026-04-25T13:58:33Z</time></trkpt><trkpt lat="39.2562687939766" lon="9.349303049242554"><ele>268.0</ele><time>2026-04-25T13:58:34Z</time></trkpt><trkpt lat="39.25631632304098" lon="9.349426769832474"><ele>268.0</ele><time>2026-04-25T13:58:35Z</time></trkpt><trkpt lat="39.256350516398236" lon="9.349554787663228"><ele>268.0</ele><time>2026-04-25T13:58:36Z</time></trkpt><trkpt lat="39.25636497288814" lon="9.349695324780308"><ele>268.0</ele><time>2026-04-25T13:58:37Z</time></trkpt><trkpt lat="39.256378387423844" lon="9.349844630164837"><ele>268.75</ele><time>2026-04-25T13:58:38Z</time></trkpt><trkpt lat="39.25644149060736" lon="9.349987514140247"><ele>269.5</ele><time>2026-04-25T13:58:39Z</time></trkpt><trkpt lat="39.25651428678987" lon="9.350125255937321"><ele>270.25</ele><time>2026-04-25T13:58:40Z</time></trkpt><trkpt lat="39.25658866881211" lon="9.350259858689316"><ele>271.0</ele><time>2026-04-25T13:58:41Z</time></trkpt><trkpt lat="39.25667816106858" lon="9.350394913372028"><ele>271.0</ele><time>2026-04-25T13:58:42Z</time></trkpt><trkpt lat="39.25677530648047" lon="9.350527470583428"><ele>271.0</ele><time>2026-04-25T13:58:43Z</time></trkpt><trkpt lat="39.25687391065637" lon="9.350607903101656"><ele>271.0</ele><time>2026-04-25T13:58:44Z</time></trkpt><trkpt lat="39.257002984788514" lon="9.350641199892346"><ele>271.0</ele><time>2026-04-25T13:58:45Z</time></trkpt><trkpt lat="39.25712980025332" lon="9.350667622801605"><ele>274.25</ele><time>2026-04-25T13:58:46Z</time></trkpt><trkpt lat="39.25725233442648" lon="9.350743709887483"><ele>277.5</ele><time>2026-04-25T13:58:47Z</time></trkpt><trkpt lat="39.25739324300296" lon="9.35078879994722"><ele>280.75</ele><time>2026-04-25T13:58:48Z</time></trkpt><trkpt lat="39.25753488271285" lon="9.350837188293134"><ele>284.0</ele><time>2026-04-25T13:58:49Z</time></trkpt><trkpt lat="39.25767432647735" lon="9.350870242978107"><ele>284.0</ele><time>2026-04-25T13:58:50Z</time></trkpt><trkpt lat="39.25780105922156" lon="9.350874481152934"><ele>284.0</ele><time>2026-04-25T13:58:51Z</time></trkpt><trkpt lat="39.25790732302502" lon="9.350833488954345"><ele>284.0</ele><time>2026-04-25T13:58:52Z</time></trkpt><trkpt lat="39.2579828673739" lon="9.350777835616293"><ele>284.0</ele><time>2026-04-25T13:58:53Z</time></trkpt><trkpt lat="39.25809748390641" lon="9.350814016877663"><ele>284.0</ele><time>2026-04-25T13:58:55Z</time></trkpt><trkpt lat="39.25815228422646" lon="9.350881544095772"><ele>284.0</ele><time>2026-04-25T13:58:56Z</time></trkpt><trkpt lat="39.25818128565164" lon="9.350992387481323"><ele>284.0</ele><time>2026-04-25T13:58:57Z</time></trkpt><trkpt lat="39.258157301421946" lon="9.351096202919601"><ele>284.0</ele><time>2026-04-25T13:58:58Z</time></trkpt><trkpt lat="39.25811848829042" lon="9.351203480984989"><ele>284.0</ele><time>2026-04-25T13:58:59Z</time></trkpt><trkpt lat="39.258078130917184" lon="9.35134956790523"><ele>284.0</ele><time>2026-04-25T13:59:00Z</time></trkpt><trkpt lat="39.25802696394302" lon="9.351496813356036"><ele>289.25</ele><time>2026-04-25T13:59:01Z</time></trkpt><trkpt lat="39.25796452266989" lon="9.351641933432031"><ele>294.5</ele><time>2026-04-25T13:59:02Z</time></trkpt><trkpt lat="39.25789665523898" lon="9.35179542528567"><ele>299.75</ele><time>2026-04-25T13:59:03Z</time></trkpt><trkpt lat="39.2578289407186" lon="9.351957943901663"><ele>305.0</ele><time>2026-04-25T13:59:04Z</time></trkpt><trkpt lat="39.2577612113562" lon="9.352126252891638"><ele>304.5</ele><time>2026-04-25T13:59:05Z</time></trkpt><trkpt lat="39.25770787722256" lon="9.352301022785694"><ele>304.0</ele><time>2026-04-25T13:59:06Z</time></trkpt><trkpt lat="39.25764823947674" lon="9.352467570996573"><ele>303.5</ele><time>2026-04-25T13:59:07Z</time></trkpt><trkpt lat="39.25760785955008" lon="9.352633018791176"><ele>303.0</ele><time>2026-04-25T13:59:08Z</time></trkpt><trkpt lat="39.25759787309134" lon="9.352821015844695"><ele>303.0</ele><time>2026-04-25T13:59:09Z</time></trkpt><trkpt lat="39.25757789963889" lon="9.353002334702154"><ele>303.0</ele><time>2026-04-25T13:59:10Z</time></trkpt><trkpt lat="39.25755822063315" lon="9.353183628003242"><ele>303.0</ele><time>2026-04-25T13:59:11Z</time></trkpt><trkpt lat="39.257536992770795" lon="9.353359228910291"><ele>303.0</ele><time>2026-04-25T13:59:12Z</time></trkpt><trkpt lat="39.25751859350767" lon="9.353528171650614"><ele>301.0</ele><time>2026-04-25T13:59:13Z</time></trkpt><trkpt lat="39.257504403897315" lon="9.353686111430273"><ele>299.0</ele><time>2026-04-25T13:59:14Z</time></trkpt><trkpt lat="39.25749415712261" lon="9.353838026321611"><ele>297.0</ele><time>2026-04-25T13:59:15Z</time></trkpt><trkpt lat="39.25748548223314" lon="9.353976122705935"><ele>295.0</ele><time>2026-04-25T13:59:16Z</time></trkpt><trkpt lat="39.25748126532083" lon="9.354092300869503"><ele>293.0</ele><time>2026-04-25T13:59:17Z</time></trkpt><trkpt lat="39.25750820177283" lon="9.354183499551743"><ele>293.0</ele><time>2026-04-25T13:59:18Z</time></trkpt><trkpt lat="39.25756205768224" lon="9.35424871069142"><ele>293.0</ele><time>2026-04-25T13:59:19Z</time></trkpt><trkpt lat="39.25761907055467" lon="9.354304909691379"><ele>293.0</ele><time>2026-04-25T13:59:20Z</time></trkpt><trkpt lat="39.257657159078924" lon="9.35446050159101"><ele>293.0</ele><time>2026-04-25T13:59:22Z</time></trkpt><trkpt lat="39.25759994582677" lon="9.354550024125212"><ele>293.0</ele><time>2026-04-25T13:59:23Z</time></trkpt><trkpt lat="39.257530240529796" lon="9.354649681880307"><ele>294.5</ele><time>2026-04-25T13:59:24Z</time></trkpt><trkpt lat="39.2574622171666" lon="9.354767464615213"><ele>296.0</ele><time>2026-04-25T13:59:25Z</time></trkpt><trkpt lat="39.257387044638556" lon="9.354901804662125"><ele>297.5</ele><time>2026-04-25T13:59:26Z</time></trkpt><trkpt lat="39.25732541946867" lon="9.355061806987253"><ele>299.0</ele><time>2026-04-25T13:59:27Z</time></trkpt><trkpt lat="39.25726433166345" lon="9.355203379659237"><ele>299.25</ele><time>2026-04-25T13:59:28Z</time></trkpt><trkpt lat="39.257182094133285" lon="9.355329516927195"><ele>299.5</ele><time>2026-04-25T13:59:29Z</time></trkpt><trkpt lat="39.25708598042672" lon="9.355448372269594"><ele>299.75</ele><time>2026-04-25T13:59:30Z</time></trkpt><trkpt lat="39.256977091442984" lon="9.35555659501765"><ele>300.0</ele><time>2026-04-25T13:59:31Z</time></trkpt><trkpt lat="39.256862669826845" lon="9.355657913646176"><ele>300.25</ele><time>2026-04-25T13:59:32Z</time></trkpt><trkpt lat="39.256747732868384" lon="9.355750629813242"><ele>300.5</ele><time>2026-04-25T13:59:33Z</time></trkpt><trkpt lat="39.25665055457203" lon="9.355868081739459"><ele>300.75</ele><time>2026-04-25T13:59:34Z</time></trkpt><trkpt lat="39.256564921124124" lon="9.3559802502214"><ele>301.0</ele><time>2026-04-25T13:59:35Z</time></trkpt><trkpt lat="39.25652416997302" lon="9.356107818211342"><ele>301.0</ele><time>2026-04-25T13:59:36Z</time></trkpt><trkpt lat="39.25654416953879" lon="9.356228053977942"><ele>301.0</ele><time>2026-04-25T13:59:37Z</time></trkpt><trkpt lat="39.256611644278166" lon="9.356307737222297"><ele>301.0</ele><time>2026-04-25T13:59:38Z</time></trkpt><trkpt lat="39.25671015915905" lon="9.356343817112386"><ele>301.0</ele><time>2026-04-25T13:59:39Z</time></trkpt><trkpt lat="39.256819197894224" lon="9.356338314534014"><ele>301.0</ele><time>2026-04-25T13:59:40Z</time></trkpt><trkpt lat="39.25692668862063" lon="9.35631734723227"><ele>301.0</ele><time>2026-04-25T13:59:41Z</time></trkpt><trkpt lat="39.257037742263655" lon="9.356271301154985"><ele>301.0</ele><time>2026-04-25T13:59:42Z</time></trkpt><trkpt lat="39.257149846814286" lon="9.35619370094258"><ele>301.0</ele><time>2026-04-25T13:59:43Z</time></trkpt><trkpt lat="39.257255946668764" lon="9.356108534311248"><ele>301.0</ele><time>2026-04-25T13:59:44Z</time></trkpt><trkpt lat="39.257379377707665" lon="9.356084008305462"><ele>303.75</ele><time>2026-04-25T13:59:45Z</time></trkpt><trkpt lat="39.25750776941814" lon="9.356037246924013"><ele>306.5</ele><time>2026-04-25T13:59:46Z</time></trkpt><trkpt lat="39.25764681200274" lon="9.35603688036774"><ele>309.25</ele><time>2026-04-25T13:59:47Z</time></trkpt><trkpt lat="39.25778745317869" lon="9.356048471378893"><ele>312.0</ele><time>2026-04-25T13:59:48Z</time></trkpt><trkpt lat="39.257921907995915" lon="9.35609268149893"><ele>312.0</ele><time>2026-04-25T13:59:49Z</time></trkpt><trkpt lat="39.25804374797362" lon="9.356160738510688"><ele>312.0</ele><time>2026-04-25T13:59:50Z</time></trkpt><trkpt lat="39.258160773364764" lon="9.35622964294819"><ele>312.0</ele><time>2026-04-25T13:59:51Z</time></trkpt><trkpt lat="39.25826245668893" lon="9.356296358964702"><ele>312.0</ele><time>2026-04-25T13:59:52Z</time></trkpt><trkpt lat="39.25834039224385" lon="9.356372923679288"><ele>315.2</ele><time>2026-04-25T13:59:53Z</time></trkpt><trkpt lat="39.25838347050487" lon="9.356460196542784"><ele>318.4</ele><time>2026-04-25T13:59:54Z</time></trkpt><trkpt lat="39.25835321037234" lon="9.356567863005946"><ele>321.59999999999997</ele><time>2026-04-25T13:59:55Z</time></trkpt><trkpt lat="39.25833639996854" lon="9.356683599986386"><ele>324.79999999999995</ele><time>2026-04-25T13:59:56Z</time></trkpt><trkpt lat="39.258328558321196" lon="9.35681392237114"><ele>328.0</ele><time>2026-04-25T13:59:57Z</time></trkpt><trkpt lat="39.25828298093871" lon="9.356937985537186"><ele>328.0</ele><time>2026-04-25T13:59:58Z</time></trkpt><trkpt lat="39.258243903730374" lon="9.35706665757663"><ele>328.0</ele><time>2026-04-25T13:59:59Z</time></trkpt><trkpt lat="39.25819673749555" lon="9.3572006093962"><ele>328.0</ele><time>2026-04-25T14:00:00Z</time></trkpt><trkpt lat="39.258144710760824" lon="9.357333541141262"><ele>328.0</ele><time>2026-04-25T14:00:01Z</time></trkpt><trkpt lat="39.258090283175314" lon="9.357465320131444"><ele>328.25</ele><time>2026-04-25T14:00:02Z</time></trkpt><trkpt lat="39.25803709705957" lon="9.357600736092243"><ele>328.5</ele><time>2026-04-25T14:00:03Z</time></trkpt><trkpt lat="39.25798945175938" lon="9.357742061117051"><ele>328.75</ele><time>2026-04-25T14:00:04Z</time></trkpt><trkpt lat="39.25793865566664" lon="9.357887798162213"><ele>329.0</ele><time>2026-04-25T14:00:05Z</time></trkpt><trkpt lat="39.2578987625367" lon="9.35803751224686"><ele>329.0</ele><time>2026-04-25T14:00:06Z</time></trkpt><trkpt lat="39.2578729782365" lon="9.358194476038904"><ele>329.0</ele><time>2026-04-25T14:00:07Z</time></trkpt><trkpt lat="39.25786337504355" lon="9.358358853405175"><ele>329.0</ele><time>2026-04-25T14:00:08Z</time></trkpt><trkpt lat="39.257866759264374" lon="9.358526555526923"><ele>329.0</ele><time>2026-04-25T14:00:09Z</time></trkpt><trkpt lat="39.257842277458046" lon="9.358691892283675"><ele>329.0</ele><time>2026-04-25T14:00:10Z</time></trkpt><trkpt lat="39.25780635771645" lon="9.358851741485623"><ele>329.0</ele><time>2026-04-25T14:00:11Z</time></trkpt><trkpt lat="39.25777326870203" lon="9.359018257439669"><ele>329.0</ele><time>2026-04-25T14:00:12Z</time></trkpt><trkpt lat="39.25773518351937" lon="9.35917636105024"><ele>329.0</ele><time>2026-04-25T14:00:13Z</time></trkpt><trkpt lat="39.257715642217164" lon="9.359330117525777"><ele>330.6</ele><time>2026-04-25T14:00:14Z</time></trkpt><trkpt lat="39.25771465522425" lon="9.359482272326892"><ele>332.2</ele><time>2026-04-25T14:00:15Z</time></trkpt><trkpt lat="39.25772668145315" lon="9.359625869502752"><ele>333.8</ele><time>2026-04-25T14:00:16Z</time></trkpt><trkpt lat="39.25774044576033" lon="9.359762809232103"><ele>335.40000000000003</ele><time>2026-04-25T14:00:17Z</time></trkpt><trkpt lat="39.25774400217247" lon="9.359880461454573"><ele>337.0</ele><time>2026-04-25T14:00:18Z</time></trkpt><trkpt lat="39.25774012804626" lon="9.359999486217353"><ele>337.6</ele><time>2026-04-25T14:00:19Z</time></trkpt><trkpt lat="39.25772321399959" lon="9.360124530273193"><ele>338.20000000000005</ele><time>2026-04-25T14:00:20Z</time></trkpt><trkpt lat="39.25766905209309" lon="9.36022996665874"><ele>338.8</ele><time>2026-04-25T14:00:21Z</time></trkpt><trkpt lat="39.25762081174742" lon="9.360337653508596"><ele>339.4</ele><time>2026-04-25T14:00:22Z</time></trkpt><trkpt lat="39.25758435689055" lon="9.360452451751303"><ele>340.0</ele><time>2026-04-25T14:00:23Z</time></trkpt><trkpt lat="39.25753443551008" lon="9.360562298232592"><ele>340.6</ele><time>2026-04-25T14:00:24Z</time></trkpt><trkpt lat="39.25747470961402" lon="9.360668132152052"><ele>341.2</ele><time>2026-04-25T14:00:25Z</time></trkpt><trkpt lat="39.25741019746453" lon="9.360769516209603"><ele>341.79999999999995</ele><time>2026-04-25T14:00:26Z</time></trkpt><trkpt lat="39.257346142272276" lon="9.360871579834406"><ele>342.4</ele><time>2026-04-25T14:00:27Z</time></trkpt><trkpt lat="39.25729535089781" lon="9.360980067013514"><ele>343.0</ele><time>2026-04-25T14:00:28Z</time></trkpt><trkpt lat="39.25724142198729" lon="9.361084282855257"><ele>343.0</ele><time>2026-04-25T14:00:29Z</time></trkpt><trkpt lat="39.2571870919985" lon="9.361181557886262"><ele>343.0</ele><time>2026-04-25T14:00:30Z</time></trkpt><trkpt lat="39.25713776372233" lon="9.361286558007999"><ele>343.0</ele><time>2026-04-25T14:00:31Z</time></trkpt><trkpt lat="39.25710327632007" lon="9.361392129838318"><ele>343.0</ele><time>2026-04-25T14:00:32Z</time></trkpt><trkpt lat="39.25711108885278" lon="9.36151116074877"><ele>343.0</ele><time>2026-04-25T14:00:33Z</time></trkpt><trkpt lat="39.25714635448942" lon="9.361620132798299"><ele>342.59999999999997</ele><time>2026-04-25T14:00:34Z</time></trkpt><trkpt lat="39.257215268355175" lon="9.361709729047284"><ele>342.2</ele><time>2026-04-25T14:00:35Z</time></trkpt><trkpt lat="39.25730872055287" lon="9.361774361385885"><ele>341.8</ele><time>2026-04-25T14:00:36Z</time></trkpt><trkpt lat="39.257402609456456" lon="9.361843180222309"><ele>341.4</ele><time>2026-04-25T14:00:37Z</time></trkpt><trkpt lat="39.25749484491279" lon="9.361917685712568"><ele>341.0</ele><time>2026-04-25T14:00:38Z</time></trkpt><trkpt lat="39.25758194884443" lon="9.362005085187901"><ele>342.6</ele><time>2026-04-25T14:00:39Z</time></trkpt><trkpt lat="39.25767367018701" lon="9.362090627844761"><ele>344.20000000000005</ele><time>2026-04-25T14:00:40Z</time></trkpt><trkpt lat="39.25777042392207" lon="9.362169208805922"><ele>345.79999999999995</ele><time>2026-04-25T14:00:41Z</time></trkpt><trkpt lat="39.25786140769294" lon="9.362248436796339"><ele>347.4</ele><time>2026-04-25T14:00:42Z</time></trkpt><trkpt lat="39.257929568773115" lon="9.362326340473011"><ele>349.0</ele><time>2026-04-25T14:00:43Z</time></trkpt><trkpt lat="39.25796932057956" lon="9.362405230839071"><ele>349.5</ele><time>2026-04-25T14:00:44Z</time></trkpt><trkpt lat="39.257964564712495" lon="9.362492065021504"><ele>350.0</ele><time>2026-04-25T14:00:45Z</time></trkpt><trkpt lat="39.25790259287897" lon="9.362533933005624"><ele>350.5</ele><time>2026-04-25T14:00:46Z</time></trkpt><trkpt lat="39.25782923750784" lon="9.362539326586804"><ele>351.0</ele><time>2026-04-25T14:00:47Z</time></trkpt><trkpt lat="39.25775174704277" lon="9.362510927131789"><ele>351.5</ele><time>2026-04-25T14:00:48Z</time></trkpt><trkpt lat="39.257663989838015" lon="9.362476790223443"><ele>352.0</ele><time>2026-04-25T14:00:49Z</time></trkpt><trkpt lat="39.25756418114716" lon="9.36246245036872"><ele>352.0</ele><time>2026-04-25T14:00:50Z</time></trkpt><trkpt lat="39.25746009195324" lon="9.362472768421851"><ele>352.0</ele><time>2026-04-25T14:00:51Z</time></trkpt><trkpt lat="39.25735883727799" lon="9.362521377951138"><ele>352.0</ele><time>2026-04-25T14:00:52Z</time></trkpt><trkpt lat="39.25726733217891" lon="9.362608765684694"><ele>352.0</ele><time>2026-04-25T14:00:53Z</time></trkpt><trkpt lat="39.257187093041345" lon="9.362734455400538"><ele>350.75</ele><time>2026-04-25T14:00:54Z</time></trkpt><trkpt lat="39.257100176725835" lon="9.362847866404858"><ele>349.5</ele><time>2026-04-25T14:00:55Z</time></trkpt><trkpt lat="39.257012183929874" lon="9.36296116289826"><ele>348.25</ele><time>2026-04-25T14:00:56Z</time></trkpt><trkpt lat="39.25693883919755" lon="9.36309049336682"><ele>347.0</ele><time>2026-04-25T14:00:57Z</time></trkpt><trkpt lat="39.256878789725775" lon="9.363235130238198"><ele>349.5</ele><time>2026-04-25T14:00:58Z</time></trkpt><trkpt lat="39.256830095137246" lon="9.363393653060013"><ele>352.0</ele><time>2026-04-25T14:00:59Z</time></trkpt><trkpt lat="39.25679736819998" lon="9.363560524195309"><ele>354.5</ele><time>2026-04-25T14:01:00Z</time></trkpt><trkpt lat="39.25677804932597" lon="9.3637254918945"><ele>357.0</ele><time>2026-04-25T14:01:01Z</time></trkpt><trkpt lat="39.256773880184916" lon="9.363884858672305"><ele>359.40000000000003</ele><time>2026-04-25T14:01:02Z</time></trkpt><trkpt lat="39.256785676653216" lon="9.364035655646221"><ele>361.8</ele><time>2026-04-25T14:01:03Z</time></trkpt><trkpt lat="39.25679431543816" lon="9.364172705123503"><ele>364.2</ele><time>2026-04-25T14:01:04Z</time></trkpt><trkpt lat="39.256800837991264" lon="9.364299587897325"><ele>366.6</ele><time>2026-04-25T14:01:05Z</time></trkpt><trkpt lat="39.25681029542391" lon="9.364419997148401"><ele>369.0</ele><time>2026-04-25T14:01:06Z</time></trkpt><trkpt lat="39.25683119462729" lon="9.36452949875068"><ele>369.0</ele><time>2026-04-25T14:01:07Z</time></trkpt><trkpt lat="39.25686809941842" lon="9.364643173401758"><ele>369.0</ele><time>2026-04-25T14:01:08Z</time></trkpt><trkpt lat="39.25689825882928" lon="9.36475991869207"><ele>369.0</ele><time>2026-04-25T14:01:09Z</time></trkpt><trkpt lat="39.256939369053384" lon="9.364879332800585"><ele>369.0</ele><time>2026-04-25T14:01:10Z</time></trkpt><trkpt lat="39.25696771139196" lon="9.364995952099875"><ele>369.0</ele><time>2026-04-25T14:01:11Z</time></trkpt><trkpt lat="39.25695991429402" lon="9.365114019178048"><ele>368.79999999999995</ele><time>2026-04-25T14:01:12Z</time></trkpt><trkpt lat="39.25694092903315" lon="9.365226881886144"><ele>368.59999999999997</ele><time>2026-04-25T14:01:13Z</time></trkpt><trkpt lat="39.2568988733056" lon="9.365326993731273"><ele>368.4</ele><time>2026-04-25T14:01:14Z</time></trkpt><trkpt lat="39.25685403510337" lon="9.365436207918831"><ele>368.2</ele><time>2026-04-25T14:01:15Z</time></trkpt><trkpt lat="39.256816163254776" lon="9.365566259502168"><ele>368.0</ele><time>2026-04-25T14:01:16Z</time></trkpt><trkpt lat="39.25677748942233" lon="9.365683301787547"><ele>367.6666666666667</ele><time>2026-04-25T14:01:17Z</time></trkpt><trkpt lat="39.25675002519786" lon="9.365800632271604"><ele>367.33333333333337</ele><time>2026-04-25T14:01:18Z</time></trkpt><trkpt lat="39.25672518013494" lon="9.3659155144911"><ele>367.0</ele><time>2026-04-25T14:01:19Z</time></trkpt><trkpt lat="39.25670488309479" lon="9.366015459660575"><ele>366.6666666666667</ele><time>2026-04-25T14:01:20Z</time></trkpt><trkpt lat="39.25669622845609" lon="9.36611118844736"><ele>366.3333333333333</ele><time>2026-04-25T14:01:21Z</time></trkpt><trkpt lat="39.25669583599132" lon="9.366209001285268"><ele>366.0</ele><time>2026-04-25T14:01:22Z</time></trkpt><trkpt lat="39.256707547854944" lon="9.366303089912329"><ele>366.1666666666667</ele><time>2026-04-25T14:01:23Z</time></trkpt><trkpt lat="39.25672868750258" lon="9.366396489302229"><ele>366.3333333333333</ele><time>2026-04-25T14:01:24Z</time></trkpt><trkpt lat="39.25673096242808" lon="9.366497252860572"><ele>366.5</ele><time>2026-04-25T14:01:25Z</time></trkpt><trkpt lat="39.25675298272874" lon="9.366598351896569"><ele>366.66666666666663</ele><time>2026-04-25T14:01:26Z</time></trkpt><trkpt lat="39.25677547021818" lon="9.366700219788864"><ele>366.8333333333333</ele><time>2026-04-25T14:01:27Z</time></trkpt><trkpt lat="39.256814407547466" lon="9.36679997023518"><ele>367.0</ele><time>2026-04-25T14:01:28Z</time></trkpt><trkpt lat="39.25683607852192" lon="9.36689853933036"><ele>367.0</ele><time>2026-04-25T14:01:29Z</time></trkpt><trkpt lat="39.256858867806926" lon="9.36699665638263"><ele>367.0</ele><time>2026-04-25T14:01:30Z</time></trkpt><trkpt lat="39.256894426949664" lon="9.367087813033251"><ele>367.0</ele><time>2026-04-25T14:01:31Z</time></trkpt><trkpt lat="39.25694457251453" lon="9.367168929748132"><ele>367.0</ele><time>2026-04-25T14:01:32Z</time></trkpt><trkpt lat="39.257008636790125" lon="9.3672366441684"><ele>367.0</ele><time>2026-04-25T14:01:33Z</time></trkpt><trkpt lat="39.25708964408411" lon="9.367281030681687"><ele>367.0</ele><time>2026-04-25T14:01:34Z</time></trkpt><trkpt lat="39.25717604515872" lon="9.367300938198861"><ele>367.16666666666663</ele><time>2026-04-25T14:01:35Z</time></trkpt><trkpt lat="39.257264651651425" lon="9.367304019390382"><ele>367.3333333333333</ele><time>2026-04-25T14:01:36Z</time></trkpt><trkpt lat="39.25735676518186" lon="9.367304363767813"><ele>367.5</ele><time>2026-04-25T14:01:37Z</time></trkpt><trkpt lat="39.25744925344102" lon="9.367305295889663"><ele>367.6666666666667</ele><time>2026-04-25T14:01:38Z</time></trkpt><trkpt lat="39.25753110006105" lon="9.367323354153433"><ele>367.83333333333337</ele><time>2026-04-25T14:01:39Z</time></trkpt><trkpt lat="39.25761256367149" lon="9.367360145927297"><ele>368.0</ele><time>2026-04-25T14:01:40Z</time></trkpt><trkpt lat="39.25768667963198" lon="9.367412452728967"><ele>369.0</ele><time>2026-04-25T14:01:41Z</time></trkpt><trkpt lat="39.2577396321592" lon="9.367494714393052"><ele>370.0</ele><time>2026-04-25T14:01:42Z</time></trkpt><trkpt lat="39.257783924030896" lon="9.36758856727019"><ele>371.0</ele><time>2026-04-25T14:01:43Z</time></trkpt><trkpt lat="39.257833790618925" lon="9.367678619795894"><ele>372.0</ele><time>2026-04-25T14:01:44Z</time></trkpt><trkpt lat="39.25788113218829" lon="9.367775787972283"><ele>373.0</ele><time>2026-04-25T14:01:45Z</time></trkpt><trkpt lat="39.25792754157329" lon="9.367871273581512"><ele>374.0</ele><time>2026-04-25T14:01:46Z</time></trkpt><trkpt lat="39.25798435259278" lon="9.367964103278716"><ele>374.0</ele><time>2026-04-25T14:01:47Z</time></trkpt><trkpt lat="39.25804975325529" lon="9.368042761422934"><ele>374.0</ele><time>2026-04-25T14:01:48Z</time></trkpt><trkpt lat="39.25813074874129" lon="9.36809788873036"><ele>374.0</ele><time>2026-04-25T14:01:49Z</time></trkpt><trkpt lat="39.258219464976996" lon="9.368127208032723"><ele>374.0</ele><time>2026-04-25T14:01:50Z</time></trkpt><trkpt lat="39.25831485722567" lon="9.368112817605056"><ele>374.0</ele><time>2026-04-25T14:01:51Z</time></trkpt><trkpt lat="39.258407174281956" lon="9.368077411171512"><ele>374.83333333333337</ele><time>2026-04-25T14:01:52Z</time></trkpt><trkpt lat="39.258498260982485" lon="9.368038207322828"><ele>375.6666666666667</ele><time>2026-04-25T14:01:53Z</time></trkpt><trkpt lat="39.258575380184546" lon="9.368016603419042"><ele>376.5</ele><time>2026-04-25T14:01:54Z</time></trkpt><trkpt lat="39.25867135009777" lon="9.36806000084459"><ele>377.3333333333333</ele><time>2026-04-25T14:01:56Z</time></trkpt><trkpt lat="39.25868786842074" lon="9.368140810795891"><ele>378.16666666666663</ele><time>2026-04-25T14:01:57Z</time></trkpt><trkpt lat="39.25867087499629" lon="9.368238480697201"><ele>379.0</ele><time>2026-04-25T14:01:58Z</time></trkpt><trkpt lat="39.258645634829804" lon="9.368334116286762"><ele>379.0</ele><time>2026-04-25T14:01:59Z</time></trkpt><trkpt lat="39.25863698546317" lon="9.368438417452897"><ele>379.0</ele><time>2026-04-25T14:02:00Z</time></trkpt><trkpt lat="39.258634087944344" lon="9.368542417955311"><ele>379.0</ele><time>2026-04-25T14:02:01Z</time></trkpt><trkpt lat="39.25863820622783" lon="9.368648611720653"><ele>379.0</ele><time>2026-04-25T14:02:02Z</time></trkpt><trkpt lat="39.25866613808993" lon="9.368759297218217"><ele>379.0</ele><time>2026-04-25T14:02:03Z</time></trkpt><trkpt lat="39.25871660623746" lon="9.368865711505073"><ele>379.0</ele><time>2026-04-25T14:02:04Z</time></trkpt><trkpt lat="39.25876836001323" lon="9.368975956386429"><ele>379.4</ele><time>2026-04-25T14:02:05Z</time></trkpt><trkpt lat="39.25881257056105" lon="9.36908681953805"><ele>379.79999999999995</ele><time>2026-04-25T14:02:06Z</time></trkpt><trkpt lat="39.258858572805316" lon="9.369197049350474"><ele>380.20000000000005</ele><time>2026-04-25T14:02:07Z</time></trkpt><trkpt lat="39.25890197840735" lon="9.369304819466066"><ele>380.6</ele><time>2026-04-25T14:02:08Z</time></trkpt><trkpt lat="39.25894789916951" lon="9.369413981013485"><ele>381.0</ele><time>2026-04-25T14:02:09Z</time></trkpt><trkpt lat="39.258998812204" lon="9.369517327431938"><ele>383.0</ele><time>2026-04-25T14:02:10Z</time></trkpt><trkpt lat="39.25904584318838" lon="9.369613503906361"><ele>385.0</ele><time>2026-04-25T14:02:11Z</time></trkpt><trkpt lat="39.25908059065632" lon="9.369698231483541"><ele>387.0</ele><time>2026-04-25T14:02:12Z</time></trkpt><trkpt lat="39.2590866374161" lon="9.369845263707829"><ele>389.0</ele><time>2026-04-25T14:02:14Z</time></trkpt><trkpt lat="39.25909113240772" lon="9.369933102313096"><ele>391.0</ele><time>2026-04-25T14:02:15Z</time></trkpt><trkpt lat="39.25907096173812" lon="9.370024394810518"><ele>393.0</ele><time>2026-04-25T14:02:16Z</time></trkpt><trkpt lat="39.25905206870652" lon="9.37012274319188"><ele>393.0</ele><time>2026-04-25T14:02:17Z</time></trkpt><trkpt lat="39.2590434310772" lon="9.37022876459687"><ele>393.0</ele><time>2026-04-25T14:02:18Z</time></trkpt><trkpt lat="39.25904607148922" lon="9.37034919882621"><ele>393.0</ele><time>2026-04-25T14:02:19Z</time></trkpt><trkpt lat="39.25904274037247" lon="9.370475336921876"><ele>393.0</ele><time>2026-04-25T14:02:20Z</time></trkpt><trkpt lat="39.259050374687476" lon="9.37060049509324"><ele>393.0</ele><time>2026-04-25T14:02:21Z</time></trkpt><trkpt lat="39.259059423132705" lon="9.370729536505266"><ele>394.0</ele><time>2026-04-25T14:02:22Z</time></trkpt><trkpt lat="39.25906299818805" lon="9.370863403885476"><ele>395.0</ele><time>2026-04-25T14:02:23Z</time></trkpt><trkpt lat="39.25907400491743" lon="9.37099927654084"><ele>396.0</ele><time>2026-04-25T14:02:24Z</time></trkpt><trkpt lat="39.25909811514411" lon="9.37113689088497"><ele>397.0</ele><time>2026-04-25T14:02:25Z</time></trkpt><trkpt lat="39.25913471925423" lon="9.371272403108817"><ele>398.0</ele><time>2026-04-25T14:02:26Z</time></trkpt><trkpt lat="39.259178008025444" lon="9.371405861429182"><ele>399.0</ele><time>2026-04-25T14:02:27Z</time></trkpt><trkpt lat="39.25922093031529" lon="9.371535453146226"><ele>400.0</ele><time>2026-04-25T14:02:28Z</time></trkpt><trkpt lat="39.25924179986633" lon="9.371672720155603"><ele>401.0</ele><time>2026-04-25T14:02:29Z</time></trkpt><trkpt lat="39.2592787209972" lon="9.371807429342903"><ele>402.0</ele><time>2026-04-25T14:02:30Z</time></trkpt><trkpt lat="39.259372010891745" lon="9.371893650236652"><ele>403.0</ele><time>2026-04-25T14:02:31Z</time></trkpt><trkpt lat="39.25942238414149" lon="9.371997360270376"><ele>403.00000000000006</ele><time>2026-04-25T14:02:32Z</time></trkpt><trkpt lat="39.25948178975446" lon="9.372102044153205"><ele>403.0</ele><time>2026-04-25T14:02:33Z</time></trkpt><trkpt lat="39.25953267260393" lon="9.372196881775212"><ele>403.0</ele><time>2026-04-25T14:02:34Z</time></trkpt><trkpt lat="39.25957267262756" lon="9.372292375490174"><ele>403.0</ele><time>2026-04-25T14:02:35Z</time></trkpt><trkpt lat="39.259609592503736" lon="9.372389159451924"><ele>403.00000000000006</ele><time>2026-04-25T14:02:36Z</time></trkpt><trkpt lat="39.259643219937374" lon="9.372481758740717"><ele>403.0</ele><time>2026-04-25T14:02:37Z</time></trkpt><trkpt lat="39.25967536397014" lon="9.37256483966552"><ele>403.83333333333337</ele><time>2026-04-25T14:02:38Z</time></trkpt><trkpt lat="39.25972312185189" lon="9.372692142325429"><ele>404.6666666666667</ele><time>2026-04-25T14:02:40Z</time></trkpt><trkpt lat="39.25973301512492" lon="9.372834371041659"><ele>405.5</ele><time>2026-04-25T14:02:42Z</time></trkpt><trkpt lat="39.259733724216325" lon="9.372918208175724"><ele>406.33333333333337</ele><time>2026-04-25T14:02:43Z</time></trkpt><trkpt lat="39.25973545930836" lon="9.37302076951759"><ele>407.1666666666667</ele><time>2026-04-25T14:02:44Z</time></trkpt><trkpt lat="39.259732787002484" lon="9.373123119721132"><ele>408.0</ele><time>2026-04-25T14:02:45Z</time></trkpt><trkpt lat="39.259727039777324" lon="9.373230446102829"><ele>410.0</ele><time>2026-04-25T14:02:46Z</time></trkpt><trkpt lat="39.25971887319815" lon="9.373340931023463"><ele>412.0</ele><time>2026-04-25T14:02:47Z</time></trkpt><trkpt lat="39.25971502745021" lon="9.373453330794861"><ele>414.0</ele><time>2026-04-25T14:02:48Z</time></trkpt><trkpt lat="39.25570726708198" lon="9.33775752234276"><ele>383.0</ele><time>2026-04-25T13:56:19Z</time></trkpt><trkpt lat="39.25567155547554" lon="9.33789916636566"><ele>352.0</ele><time>2026-04-25T13:56:20Z</time></trkpt><trkpt lat="39.25563575924063" lon="9.338042550943946"><ele>321.0</ele><time>2026-04-25T13:56:21Z</time></trkpt><trkpt lat="39.25564621038941" lon="9.338193620896895"><ele>290.0</ele><time>2026-04-25T13:56:22Z</time></trkpt><trkpt lat="39.25563604231699" lon="9.338342548218067"><ele>288.2</ele><time>2026-04-25T13:56:23Z</time></trkpt><trkpt lat="39.25558981562963" lon="9.338471026307777"><ele>286.4</ele><time>2026-04-25T13:56:24Z</time></trkpt><trkpt lat="39.25554726471238" lon="9.33858764084919"><ele>284.6</ele><time>2026-04-25T13:56:25Z</time></trkpt><trkpt lat="39.255497376918115" lon="9.338697375996553"><ele>282.8</ele><time>2026-04-25T13:56:26Z</time></trkpt><trkpt lat="39.255402442547506" lon="9.33874982453583"><ele>281.0</ele><time>2026-04-25T13:56:27Z</time></trkpt><trkpt lat="39.255301142069705" lon="9.338784650540145"><ele>281.0</ele><time>2026-04-25T13:56:28Z</time></trkpt><trkpt lat="39.25519142552268" lon="9.338823082349546"><ele>281.0</ele><time>2026-04-25T13:56:29Z</time></trkpt><trkpt lat="39.25507542878321" lon="9.338859107449878"><ele>281.0</ele><time>2026-04-25T13:56:30Z</time></trkpt><trkpt lat="39.2549509330397" lon="9.338896112366038"><ele>281.0</ele><time>2026-04-25T13:56:31Z</time></trkpt><trkpt lat="39.25483123969621" lon="9.338945873032499"><ele>284.40000000000003</ele><time>2026-04-25T13:56:32Z</time></trkpt><trkpt lat="39.25471003452621" lon="9.338976057754975"><ele>287.8</ele><time>2026-04-25T13:56:33Z</time></trkpt><trkpt lat="39.254595881525105" lon="9.338978490791481"><ele>291.20000000000005</ele><time>2026-04-25T13:56:34Z</time></trkpt><trkpt lat="39.25448890498588" lon="9.339005829074047"><ele>294.6</ele><time>2026-04-25T13:56:35Z</time></trkpt><trkpt lat="39.25440118662651" lon="9.339066780270349"><ele>298.0</ele><time>2026-04-25T13:56:36Z</time></trkpt><trkpt lat="39.254327242324194" lon="9.339133688140599"><ele>298.0</ele><time>2026-04-25T13:56:37Z</time></trkpt><trkpt lat="39.25427931008048" lon="9.339242153621143"><ele>298.0</ele><time>2026-04-25T13:56:38Z</time></trkpt><trkpt lat="39.25424680993751" lon="9.3393680220195"><ele>298.0</ele><time>2026-04-25T13:56:39Z</time></trkpt><trkpt lat="39.2542236973332" lon="9.339504743771064"><ele>298.0</ele><time>2026-04-25T13:56:40Z</time></trkpt><trkpt lat="39.25421756293291" lon="9.339642965786634"><ele>298.0</ele><time>2026-04-25T13:56:41Z</time></trkpt><trkpt lat="39.2542508157708" lon="9.339795343931321"><ele>295.0</ele><time>2026-04-25T13:56:42Z</time></trkpt><trkpt lat="39.25428983279139" lon="9.339953556624291"><ele>292.0</ele><time>2026-04-25T13:56:43Z</time></trkpt><trkpt lat="39.25434347560808" lon="9.34011158431796"><ele>289.0</ele><time>2026-04-25T13:56:44Z</time></trkpt><trkpt lat="39.25441740615022" lon="9.340243266744706"><ele>286.0</ele><time>2026-04-25T13:56:45Z</time></trkpt><trkpt lat="39.25451590375542" lon="9.340368990751445"><ele>286.0</ele><time>2026-04-25T13:56:46Z</time></trkpt><trkpt lat="39.254625497958465" lon="9.340475913036252"><ele>286.0</ele><time>2026-04-25T13:56:47Z</time></trkpt><trkpt lat="39.25473595802093" lon="9.340584630081688"><ele>286.0</ele><time>2026-04-25T13:56:48Z</time></trkpt><trkpt lat="39.25483701583203" lon="9.340701268826423"><ele>286.0</ele><time>2026-04-25T13:56:49Z</time></trkpt><trkpt lat="39.2549241655682" lon="9.340840900890218"><ele>286.5</ele><time>2026-04-25T13:56:50Z</time></trkpt><trkpt lat="39.25498991053918" lon="9.340993511046191"><ele>287.0</ele><time>2026-04-25T13:56:51Z</time></trkpt><trkpt lat="39.25502708747266" lon="9.341145820709794"><ele>287.5</ele><time>2026-04-25T13:56:52Z</time></trkpt><trkpt lat="39.25500869074419" lon="9.341300847965012"><ele>288.0</ele><time>2026-04-25T13:56:53Z</time></trkpt><trkpt lat="39.2550041281747" lon="9.341463921159654"><ele>285.5</ele><time>2026-04-25T13:56:54Z</time></trkpt><trkpt lat="39.254980417755654" lon="9.341629004619774"><ele>283.0</ele><time>2026-04-25T13:56:55Z</time></trkpt><trkpt lat="39.25495289694802" lon="9.341799017162698"><ele>280.5</ele><time>2026-04-25T13:56:56Z</time></trkpt><trkpt lat="39.25493297028481" lon="9.341962619712044"><ele>278.0</ele><time>2026-04-25T13:56:57Z</time></trkpt><trkpt lat="39.254949673014806" lon="9.342114397580533"><ele>276.5</ele><time>2026-04-25T13:56:58Z</time></trkpt><trkpt lat="39.25499984493165" lon="9.342261278868397"><ele>275.0</ele><time>2026-04-25T13:56:59Z</time></trkpt><trkpt lat="39.25505355122158" lon="9.342405073524844"><ele>273.5</ele><time>2026-04-25T13:57:00Z</time></trkpt><trkpt lat="39.25511006510708" lon="9.342546054332358"><ele>272.0</ele><time>2026-04-25T13:57:01Z</time></trkpt><trkpt lat="39.25514564596536" lon="9.342689949657045"><ele>272.0</ele><time>2026-04-25T13:57:02Z</time></trkpt><trkpt lat="39.255143595378435" lon="9.342833632001303"><ele>272.0</ele><time>2026-04-25T13:57:03Z</time></trkpt><trkpt lat="39.25507087681171" lon="9.342942093315772"><ele>272.0</ele><time>2026-04-25T13:57:04Z</time></trkpt><trkpt lat="39.25500422102447" lon="9.343066343149134"><ele>272.0</ele><time>2026-04-25T13:57:05Z</time></trkpt><trkpt lat="39.25494593544848" lon="9.343202447320627"><ele>272.0</ele><time>2026-04-25T13:57:06Z</time></trkpt><trkpt lat="39.254874015395906" lon="9.343332597248084"><ele>272.0</ele><time>2026-04-25T13:57:07Z</time></trkpt><trkpt lat="39.25480332285515" lon="9.343447901091595"><ele>272.0</ele><time>2026-04-25T13:57:08Z</time></trkpt><trkpt lat="39.25480345573599" lon="9.343592346054507"><ele>272.0</ele><time>2026-04-25T13:57:09Z</time></trkpt><trkpt lat="39.25483170243364" lon="9.343725154935663"><ele>272.0</ele><time>2026-04-25T13:57:10Z</time></trkpt><trkpt lat="39.254906368360444" lon="9.343837195791044"><ele>272.0</ele><time>2026-04-25T13:57:11Z</time></trkpt><trkpt lat="39.25501087368605" lon="9.343921502841866"><ele>272.0</ele><time>2026-04-25T13:57:12Z</time></trkpt><trkpt lat="39.25510802648373" lon="9.344013321322304"><ele>272.0</ele><time>2026-04-25T13:57:13Z</time></trkpt><trkpt lat="39.25515927502008" lon="9.344156968601174"><ele>270.75</ele><time>2026-04-25T13:57:14Z</time></trkpt><trkpt lat="39.25518347047238" lon="9.34430802984722"><ele>269.5</ele><time>2026-04-25T13:57:15Z</time></trkpt><trkpt lat="39.255168613916496" lon="9.344462458152597"><ele>268.25</ele><time>2026-04-25T13:57:16Z</time></trkpt><trkpt lat="39.25517707399372" lon="9.344616453351883"><ele>267.0</ele><time>2026-04-25T13:57:17Z</time></trkpt><trkpt lat="39.2551860051769" lon="9.34474794579136"><ele>264.5</ele><time>2026-04-25T13:57:18Z</time></trkpt><trkpt lat="39.255235357908894" lon="9.344864681648241"><ele>262.0</ele><time>2026-04-25T13:57:19Z</time></trkpt><trkpt lat="39.25532250204057" lon="9.344957284960678"><ele>259.5</ele><time>2026-04-25T13:57:20Z</time></trkpt><trkpt lat="39.25543270544329" lon="9.345004074435224"><ele>257.0</ele><time>2026-04-25T13:57:21Z</time></trkpt><trkpt lat="39.255548031661" lon="9.34504951538404"><ele>260.0</ele><time>2026-04-25T13:57:22Z</time></trkpt><trkpt lat="39.25566533282522" lon="9.345096740676397"><ele>263.0</ele><time>2026-04-25T13:57:23Z</time></trkpt><trkpt lat="39.25578477105058" lon="9.345142344068197"><ele>266.0</ele><time>2026-04-25T13:57:24Z</time></trkpt><trkpt lat="39.25589435396753" lon="9.345190359822986"><ele>269.0</ele><time>2026-04-25T13:57:25Z</time></trkpt><trkpt lat="39.25599763534331" lon="9.345235985505703"><ele>269.0</ele><time>2026-04-25T13:57:26Z</time></trkpt><trkpt lat="39.2560819590395" lon="9.345309395049245"><ele>269.0</ele><time>2026-04-25T13:57:27Z</time></trkpt><trkpt lat="39.25613869413906" lon="9.345419494017845"><ele>269.0</ele><time>2026-04-25T13:57:28Z</time></trkpt><trkpt lat="39.25616314008876" lon="9.345563643051653"><ele>269.0</ele><time>2026-04-25T13:57:29Z</time></trkpt><trkpt lat="39.25618617081095" lon="9.345712009792237"><ele>269.0</ele><time>2026-04-25T13:57:30Z</time></trkpt><trkpt lat="39.25619357026441" lon="9.345851040474749"><ele>267.0</ele><time>2026-04-25T13:57:31Z</time></trkpt><trkpt lat="39.25616331033024" lon="9.345955764772334"><ele>265.0</ele><time>2026-04-25T13:57:32Z</time></trkpt><trkpt lat="39.25609977923954" lon="9.346012807475011"><ele>263.0</ele><time>2026-04-25T13:57:33Z</time></trkpt><trkpt lat="39.25602193627557" lon="9.346044747456174"><ele>261.0</ele><time>2026-04-25T13:57:34Z</time></trkpt><trkpt lat="39.255921149195636" lon="9.346083003422564"><ele>259.0</ele><time>2026-04-25T13:57:35Z</time></trkpt><trkpt lat="39.25580627861074" lon="9.34612641960422"><ele>259.0</ele><time>2026-04-25T13:57:36Z</time></trkpt><trkpt lat="39.25568611132026" lon="9.346195660890709"><ele>259.0</ele><time>2026-04-25T13:57:37Z</time></trkpt><trkpt lat="39.25556449318295" lon="9.346274896083225"><ele>259.0</ele><time>2026-04-25T13:57:38Z</time></trkpt><trkpt lat="39.255442236973316" lon="9.346355597668898"><ele>259.0</ele><time>2026-04-25T13:57:39Z</time></trkpt><trkpt lat="39.255325995291024" lon="9.346437015025058"><ele>255.5</ele><time>2026-04-25T13:57:40Z</time></trkpt><trkpt lat="39.255226543766135" lon="9.346518470438312"><ele>252.0</ele><time>2026-04-25T13:57:41Z</time></trkpt><trkpt lat="39.25515277355585" lon="9.346624974977358"><ele>248.5</ele><time>2026-04-25T13:57:42Z</time></trkpt><trkpt lat="39.2551268530479" lon="9.346774935966918"><ele>245.0</ele><time>2026-04-25T13:57:43Z</time></trkpt><trkpt lat="39.25510689745233" lon="9.346924939704955"><ele>245.0</ele><time>2026-04-25T13:57:44Z</time></trkpt><trkpt lat="39.25512238365641" lon="9.347084998062119"><ele>245.0</ele><time>2026-04-25T13:57:45Z</time></trkpt><trkpt lat="39.25516046811408" lon="9.34724851361895"><ele>245.0</ele><time>2026-04-25T13:57:46Z</time></trkpt><trkpt lat="39.25518516531663" lon="9.347406645724153"><ele>245.0</ele><time>2026-04-25T13:57:47Z</time></trkpt><trkpt lat="39.255209953448016" lon="9.3475584790976"><ele>244.5</ele><time>2026-04-25T13:57:48Z</time></trkpt><trkpt lat="39.25525571987335" lon="9.34770153611957"><ele>244.0</ele><time>2026-04-25T13:57:49Z</time></trkpt><trkpt lat="39.25532563592326" lon="9.347831307875584"><ele>243.5</ele><time>2026-04-25T13:57:50Z</time></trkpt><trkpt lat="39.255400900389404" lon="9.347942905348878"><ele>243.0</ele><time>2026-04-25T13:57:51Z</time></trkpt><trkpt lat="39.25548420876103" lon="9.348025689715593"><ele>243.0</ele><time>2026-04-25T13:57:52Z</time></trkpt><trkpt lat="39.25559087560001" lon="9.348055567267513"><ele>243.0</ele><time>2026-04-25T13:57:53Z</time></trkpt><trkpt lat="39.255711667608786" lon="9.34803651029509"><ele>243.0</ele><time>2026-04-25T13:57:54Z</time></trkpt><trkpt lat="39.255831711658885" lon="9.347995642301523"><ele>243.0</ele><time>2026-04-25T13:57:55Z</time></trkpt><trkpt lat="39.25595618685963" lon="9.347933217799682"><ele>246.0</ele><time>2026-04-25T13:57:56Z</time></trkpt><trkpt lat="39.2560820770624" lon="9.347869574148554"><ele>249.0</ele><time>2026-04-25T13:57:57Z</time></trkpt><trkpt lat="39.256207940157225" lon="9.347804874752455"><ele>252.0</ele><time>2026-04-25T13:57:58Z</time></trkpt><trkpt lat="39.25633049973403" lon="9.347734713344003"><ele>255.0</ele><time>2026-04-25T13:57:59Z</time></trkpt><trkpt lat="39.25645496791361" lon="9.347674617666422"><ele>255.0</ele><time>2026-04-25T13:58:00Z</time></trkpt><trkpt lat="39.25658126613823" lon="9.347653645588505"><ele>255.0</ele><time>2026-04-25T13:58:01Z</time></trkpt><trkpt lat="39.25670739500673" lon="9.347676142627321"><ele>255.0</ele><time>2026-04-25T13:58:02Z</time></trkpt><trkpt lat="39.25681416977452" lon="9.347725705333367"><ele>255.0</ele><time>2026-04-25T13:58:03Z</time></trkpt><trkpt lat="39.256885237034275" lon="9.347799168805357"><ele>255.0</ele><time>2026-04-25T13:58:04Z</time></trkpt><trkpt lat="39.25691169994267" lon="9.347888965044271"><ele>255.0</ele><time>2026-04-25T13:58:05Z</time></trkpt><trkpt lat="39.25691756958911" lon="9.348004253849995"><ele>255.0</ele><time>2026-04-25T13:58:06Z</time></trkpt><trkpt lat="39.256919413082954" lon="9.348137186791872"><ele>255.0</ele><time>2026-04-25T13:58:07Z</time></trkpt><trkpt lat="39.25692616923297" lon="9.348282444265122"><ele>255.0</ele><time>2026-04-25T13:58:08Z</time></trkpt><trkpt lat="39.25693599213318" lon="9.348430661192639"><ele>256.0</ele><time>2026-04-25T13:58:09Z</time></trkpt><trkpt lat="39.25694676186415" lon="9.348592158723612"><ele>257.0</ele><time>2026-04-25T13:58:10Z</time></trkpt><trkpt lat="39.25695843160959" lon="9.348759205133723"><ele>258.0</ele><time>2026-04-25T13:58:11Z</time></trkpt><trkpt lat="39.25696734926858" lon="9.348929232682943"><ele>259.0</ele><time>2026-04-25T13:58:12Z</time></trkpt><trkpt lat="39.25697462335912" lon="9.349100383910601"><ele>259.0</ele><time>2026-04-25T13:58:13Z</time></trkpt><trkpt lat="39.25699051100865" lon="9.349272922948117"><ele>259.0</ele><time>2026-04-25T13:58:14Z</time></trkpt><trkpt lat="39.25700835712983" lon="9.349439536152993"><ele>259.0</ele><time>2026-04-25T13:58:15Z</time></trkpt><trkpt lat="39.257018280148976" lon="9.349590174026307"><ele>259.0</ele><time>2026-04-25T13:58:16Z</time></trkpt><trkpt lat="39.25702263381907" lon="9.349707322576434"><ele>259.0</ele><time>2026-04-25T13:58:17Z</time></trkpt><trkpt lat="39.25700842866375" lon="9.349788222008963"><ele>259.0</ele><time>2026-04-25T13:58:18Z</time></trkpt><trkpt lat="39.25690941491083" lon="9.349840834021103"><ele>259.0</ele><time>2026-04-25T13:58:20Z</time></trkpt><trkpt lat="39.25684156878712" lon="9.349802210498083"><ele>259.0</ele><time>2026-04-25T13:58:21Z</time></trkpt><trkpt lat="39.25678701984912" lon="9.349714574206995"><ele>259.0</ele><time>2026-04-25T13:58:22Z</time></trkpt><trkpt lat="39.25673614865212" lon="9.349606561462501"><ele>259.0</ele><time>2026-04-25T13:58:23Z</time></trkpt><trkpt lat="39.256678942273375" lon="9.349505388353238"><ele>259.0</ele><time>2026-04-25T13:58:24Z</time></trkpt><trkpt lat="39.25660884898714" lon="9.34939936509921"><ele>259.0</ele><time>2026-04-25T13:58:25Z</time></trkpt><trkpt lat="39.256531504671834" lon="9.349281545188084"><ele>259.0</ele><time>2026-04-25T13:58:26Z</time></trkpt><trkpt lat="39.256456557325954" lon="9.349152341536346"><ele>259.0</ele><time>2026-04-25T13:58:27Z</time></trkpt><trkpt lat="39.256387654894795" lon="9.349027757028608"><ele>260.8</ele><time>2026-04-25T13:58:28Z</time></trkpt><trkpt lat="39.2563267527669" lon="9.348938933801909"><ele>262.59999999999997</ele><time>2026-04-25T13:58:29Z</time></trkpt><trkpt lat="39.256262593599246" lon="9.34892300998571"><ele>264.4</ele><time>2026-04-25T13:58:30Z</time></trkpt><trkpt lat="39.25619113023101" lon="9.349068189207593"><ele>266.2</ele><time>2026-04-25T13:58:32Z</time></trkpt><trkpt lat="39.25621362905345" lon="9.349189225028713"><ele>268.0</ele><time>2026-04-25T13:58:33Z</time></trkpt><trkpt lat="39.2562687939766" lon="9.349303049242554"><ele>268.0</ele><time>2026-04-25T13:58:34Z</time></trkpt><trkpt lat="39.25631632304098" lon="9.349426769832474"><ele>268.0</ele><time>2026-04-25T13:58:35Z</time></trkpt><trkpt lat="39.256350516398236" lon="9.349554787663228"><ele>268.0</ele><time>2026-04-25T13:58:36Z</time></trkpt><trkpt lat="39.25636497288814" lon="9.349695324780308"><ele>268.0</ele><time>2026-04-25T13:58:37Z</time></trkpt><trkpt lat="39.256378387423844" lon="9.349844630164837"><ele>268.0</ele><time>2026-04-25T13:58:38Z</time></trkpt><trkpt lat="39.25644149060736" lon="9.349987514140247"><ele>268.75</ele><time>2026-04-25T13:58:39Z</time></trkpt><trkpt lat="39.25651428678987" lon="9.350125255937321"><ele>269.5</ele><time>2026-04-25T13:58:40Z</time></trkpt><trkpt lat="39.25658866881211" lon="9.350259858689316"><ele>270.25</ele><time>2026-04-25T13:58:41Z</time></trkpt><trkpt lat="39.25667816106858" lon="9.350394913372028"><ele>271.0</ele><time>2026-04-25T13:58:42Z</time></trkpt><trkpt lat="39.25677530648047" lon="9.350527470583428"><ele>276.5</ele><time>2026-04-25T13:58:43Z</time></trkpt><trkpt lat="39.25687391065637" lon="9.350607903101656"><ele>282.0</ele><time>2026-04-25T13:58:44Z</time></trkpt><trkpt lat="39.257002984788514" lon="9.350641199892346"><ele>287.5</ele><time>2026-04-25T13:58:45Z</time></trkpt><trkpt lat="39.25712980025332" lon="9.350667622801605"><ele>293.0</ele><time>2026-04-25T13:58:46Z</time></trkpt><trkpt lat="39.25725233442648" lon="9.350743709887483"><ele>290.75</ele><time>2026-04-25T13:58:47Z</time></trkpt><trkpt lat="39.25739324300296" lon="9.35078879994722"><ele>288.5</ele><time>2026-04-25T13:58:48Z</time></trkpt><trkpt lat="39.25753488271285" lon="9.350837188293134"><ele>286.25</ele><time>2026-04-25T13:58:49Z</time></trkpt><trkpt lat="39.25767432647735" lon="9.350870242978107"><ele>284.0</ele><time>2026-04-25T13:58:50Z</time></trkpt><trkpt lat="39.25780105922156" lon="9.350874481152934"><ele>284.0</ele><time>2026-04-25T13:58:51Z</time></trkpt><trkpt lat="39.25790732302502" lon="9.350833488954345"><ele>284.0</ele><time>2026-04-25T13:58:52Z</time></trkpt><trkpt lat="39.2579828673739" lon="9.350777835616293"><ele>284.0</ele><time>2026-04-25T13:58:53Z</time></trkpt><trkpt lat="39.25809748390641" lon="9.350814016877663"><ele>284.0</ele><time>2026-04-25T13:58:55Z</time></trkpt><trkpt lat="39.25815228422646" lon="9.350881544095772"><ele>284.0</ele><time>2026-04-25T13:58:56Z</time></trkpt><trkpt lat="39.25818128565164" lon="9.350992387481323"><ele>284.0</ele><time>2026-04-25T13:58:57Z</time></trkpt><trkpt lat="39.258157301421946" lon="9.351096202919601"><ele>284.0</ele><time>2026-04-25T13:58:58Z</time></trkpt><trkpt lat="39.25811848829042" lon="9.351203480984989"><ele>284.0</ele><time>2026-04-25T13:58:59Z</time></trkpt><trkpt lat="39.258078130917184" lon="9.35134956790523"><ele>284.0</ele><time>2026-04-25T13:59:00Z</time></trkpt><trkpt lat="39.25802696394302" lon="9.351496813356036"><ele>284.0</ele><time>2026-04-25T13:59:01Z</time></trkpt><trkpt lat="39.25796452266989" lon="9.351641933432031"><ele>288.75</ele><time>2026-04-25T13:59:02Z</time></trkpt><trkpt lat="39.25789665523898" lon="9.35179542528567"><ele>293.5</ele><time>2026-04-25T13:59:03Z</time></trkpt><trkpt lat="39.2578289407186" lon="9.351957943901663"><ele>298.25</ele><time>2026-04-25T13:59:04Z</time></trkpt><trkpt lat="39.2577612113562" lon="9.352126252891638"><ele>303.0</ele><time>2026-04-25T13:59:05Z</time></trkpt><trkpt lat="39.25770787722256" lon="9.352301022785694"><ele>303.0</ele><time>2026-04-25T13:59:06Z</time></trkpt><trkpt lat="39.25764823947674" lon="9.352467570996573"><ele>303.0</ele><time>2026-04-25T13:59:07Z</time></trkpt><trkpt lat="39.25760785955008" lon="9.352633018791176"><ele>303.0</ele><time>2026-04-25T13:59:08Z</time></trkpt><trkpt lat="39.25759787309134" lon="9.352821015844695"><ele>303.0</ele><time>2026-04-25T13:59:09Z</time></trkpt><trkpt lat="39.25757789963889" lon="9.353002334702154"><ele>300.5</ele><time>2026-04-25T13:59:10Z</time></trkpt><trkpt lat="39.25755822063315" lon="9.353183628003242"><ele>298.0</ele><time>2026-04-25T13:59:11Z</time></trkpt><trkpt lat="39.257536992770795" lon="9.353359228910291"><ele>295.5</ele><time>2026-04-25T13:59:12Z</time></trkpt><trkpt lat="39.25751859350767" lon="9.353528171650614"><ele>293.0</ele><time>2026-04-25T13:59:13Z</time></trkpt><trkpt lat="39.257504403897315" lon="9.353686111430273"><ele>293.0</ele><time>2026-04-25T13:59:14Z</time></trkpt><trkpt lat="39.25749415712261" lon="9.353838026321611"><ele>293.0</ele><time>2026-04-25T13:59:15Z</time></trkpt><trkpt lat="39.25748548223314" lon="9.353976122705935"><ele>293.0</ele><time>2026-04-25T13:59:16Z</time></trkpt><trkpt lat="39.25748126532083" lon="9.354092300869503"><ele>293.0</ele><time>2026-04-25T13:59:17Z</time></trkpt><trkpt lat="39.25750820177283" lon="9.354183499551743"><ele>293.0</ele><time>2026-04-25T13:59:18Z</time></trkpt><trkpt lat="39.25756205768224" lon="9.35424871069142"><ele>293.0</ele><time>2026-04-25T13:59:19Z</time></trkpt><trkpt lat="39.25761907055467" lon="9.354304909691379"><ele>293.0</ele><time>2026-04-25T13:59:20Z</time></trkpt><trkpt lat="39.257657159078924" lon="9.35446050159101"><ele>293.0</ele><time>2026-04-25T13:59:22Z</time></trkpt><trkpt lat="39.25759994582677" lon="9.354550024125212"><ele>293.0</ele><time>2026-04-25T13:59:23Z</time></trkpt><trkpt lat="39.257530240529796" lon="9.354649681880307"><ele>293.0</ele><time>2026-04-25T13:59:24Z</time></trkpt><trkpt lat="39.2574622171666" lon="9.354767464615213"><ele>294.5</ele><time>2026-04-25T13:59:25Z</time></trkpt><trkpt lat="39.257387044638556" lon="9.354901804662125"><ele>296.0</ele><time>2026-04-25T13:59:26Z</time></trkpt><trkpt lat="39.25732541946867" lon="9.355061806987253"><ele>297.5</ele><time>2026-04-25T13:59:27Z</time></trkpt><trkpt lat="39.25726433166345" lon="9.355203379659237"><ele>299.0</ele><time>2026-04-25T13:59:28Z</time></trkpt><trkpt lat="39.257182094133285" lon="9.355329516927195"><ele>299.25</ele><time>2026-04-25T13:59:29Z</time></trkpt><trkpt lat="39.25708598042672" lon="9.355448372269594"><ele>299.5</ele><time>2026-04-25T13:59:30Z</time></trkpt><trkpt lat="39.256977091442984" lon="9.35555659501765"><ele>299.75</ele><time>2026-04-25T13:59:31Z</time></trkpt><trkpt lat="39.256862669826845" lon="9.355657913646176"><ele>300.0</ele><time>2026-04-25T13:59:32Z</time></trkpt><trkpt lat="39.256747732868384" lon="9.355750629813242"><ele>300.25</ele><time>2026-04-25T13:59:33Z</time></trkpt><trkpt lat="39.25665055457203" lon="9.355868081739459"><ele>300.5</ele><time>2026-04-25T13:59:34Z</time></trkpt><trkpt lat="39.256564921124124" lon="9.3559802502214"><ele>300.75</ele><time>2026-04-25T13:59:35Z</time></trkpt><trkpt lat="39.25652416997302" lon="9.356107818211342"><ele>301.0</ele><time>2026-04-25T13:59:36Z</time></trkpt><trkpt lat="39.25654416953879" lon="9.356228053977942"><ele>301.0</ele><time>2026-04-25T13:59:37Z</time></trkpt><trkpt lat="39.256611644278166" lon="9.356307737222297"><ele>301.0</ele><time>2026-04-25T13:59:38Z</time></trkpt><trkpt lat="39.25671015915905" lon="9.356343817112386"><ele>301.0</ele><time>2026-04-25T13:59:39Z</time></trkpt><trkpt lat="39.256819197894224" lon="9.356338314534014"><ele>301.0</ele><time>2026-04-25T13:59:40Z</time></trkpt><trkpt lat="39.25692668862063" lon="9.35631734723227"><ele>301.0</ele><time>2026-04-25T13:59:41Z</time></trkpt><trkpt lat="39.257037742263655" lon="9.356271301154985"><ele>301.0</ele><time>2026-04-25T13:59:42Z</time></trkpt><trkpt lat="39.257149846814286" lon="9.35619370094258"><ele>301.0</ele><time>2026-04-25T13:59:43Z</time></trkpt><trkpt lat="39.257255946668764" lon="9.356108534311248"><ele>301.0</ele><time>2026-04-25T13:59:44Z</time></trkpt><trkpt lat="39.257379377707665" lon="9.356084008305462"><ele>301.0</ele><time>2026-04-25T13:59:45Z</time></trkpt><trkpt lat="39.25750776941814" lon="9.356037246924013"><ele>303.75</ele><time>2026-04-25T13:59:46Z</time></trkpt><trkpt lat="39.25764681200274" lon="9.35603688036774"><ele>306.5</ele><time>2026-04-25T13:59:47Z</time></trkpt><trkpt lat="39.25778745317869" lon="9.356048471378893"><ele>309.25</ele><time>2026-04-25T13:59:48Z</time></trkpt><trkpt lat="39.257921907995915" lon="9.35609268149893"><ele>312.0</ele><time>2026-04-25T13:59:49Z</time></trkpt><trkpt lat="39.25804374797362" lon="9.356160738510688"><ele>315.2</ele><time>2026-04-25T13:59:50Z</time></trkpt><trkpt lat="39.258160773364764" lon="9.35622964294819"><ele>318.4</ele><time>2026-04-25T13:59:51Z</time></trkpt><trkpt lat="39.25826245668893" lon="9.356296358964702"><ele>321.59999999999997</ele><time>2026-04-25T13:59:52Z</time></trkpt><trkpt lat="39.25834039224385" lon="9.356372923679288"><ele>324.79999999999995</ele><time>2026-04-25T13:59:53Z</time></trkpt><trkpt lat="39.25838347050487" lon="9.356460196542784"><ele>328.0</ele><time>2026-04-25T13:59:54Z</time></trkpt><trkpt lat="39.25835321037234" lon="9.356567863005946"><ele>328.0</ele><time>2026-04-25T13:59:55Z</time></trkpt><trkpt lat="39.25833639996854" lon="9.356683599986386"><ele>328.0</ele><time>2026-04-25T13:59:56Z</time></trkpt><trkpt lat="39.258328558321196" lon="9.35681392237114"><ele>328.0</ele><time>2026-04-25T13:59:57Z</time></trkpt><trkpt lat="39.25828298093871" lon="9.356937985537186"><ele>328.0</ele><time>2026-04-25T13:59:58Z</time></trkpt><trkpt lat="39.258243903730374" lon="9.35706665757663"><ele>328.0</ele><time>2026-04-25T13:59:59Z</time></trkpt><trkpt lat="39.25819673749555" lon="9.3572006093962"><ele>326.25</ele><time>2026-04-25T14:00:00Z</time></trkpt><trkpt lat="39.258144710760824" lon="9.357333541141262"><ele>324.5</ele><time>2026-04-25T14:00:01Z</time></trkpt><trkpt lat="39.258090283175314" lon="9.357465320131444"><ele>322.75</ele><time>2026-04-25T14:00:02Z</time></trkpt><trkpt lat="39.25803709705957" lon="9.357600736092243"><ele>321.0</ele><time>2026-04-25T14:00:03Z</time></trkpt><trkpt lat="39.25798945175938" lon="9.357742061117051"><ele>321.0</ele><time>2026-04-25T14:00:04Z</time></trkpt><trkpt lat="39.25793865566664" lon="9.357887798162213"><ele>321.0</ele><time>2026-04-25T14:00:05Z</time></trkpt><trkpt lat="39.2578987625367" lon="9.35803751224686"><ele>321.0</ele><time>2026-04-25T14:00:06Z</time></trkpt><trkpt lat="39.2578729782365" lon="9.358194476038904"><ele>321.0</ele><time>2026-04-25T14:00:07Z</time></trkpt><trkpt lat="39.25786337504355" lon="9.358358853405175"><ele>323.0</ele><time>2026-04-25T14:00:08Z</time></trkpt><trkpt lat="39.257866759264374" lon="9.358526555526923"><ele>325.0</ele><time>2026-04-25T14:00:09Z</time></trkpt><trkpt lat="39.257842277458046" lon="9.358691892283675"><ele>327.0</ele><time>2026-04-25T14:00:10Z</time></trkpt><trkpt lat="39.25780635771645" lon="9.358851741485623"><ele>329.0</ele><time>2026-04-25T14:00:11Z</time></trkpt><trkpt lat="39.25777326870203" lon="9.359018257439669"><ele>331.0</ele><time>2026-04-25T14:00:12Z</time></trkpt><trkpt lat="39.25773518351937" lon="9.35917636105024"><ele>333.0</ele><time>2026-04-25T14:00:13Z</time></trkpt><trkpt lat="39.257715642217164" lon="9.359330117525777"><ele>335.0</ele><time>2026-04-25T14:00:14Z</time></trkpt><trkpt lat="39.25771465522425" lon="9.359482272326892"><ele>337.0</ele><time>2026-04-25T14:00:15Z</time></trkpt><trkpt lat="39.25772668145315" lon="9.359625869502752"><ele>337.6</ele><time>2026-04-25T14:00:16Z</time></trkpt><trkpt lat="39.25774044576033" lon="9.359762809232103"><ele>338.20000000000005</ele><time>2026-04-25T14:00:17Z</time></trkpt><trkpt lat="39.25774400217247" lon="9.359880461454573"><ele>338.8</ele><time>2026-04-25T14:00:18Z</time></trkpt><trkpt lat="39.25774012804626" lon="9.359999486217353"><ele>339.4</ele><time>2026-04-25T14:00:19Z</time></trkpt><trkpt lat="39.25772321399959" lon="9.360124530273193"><ele>340.0</ele><time>2026-04-25T14:00:20Z</time></trkpt><trkpt lat="39.25766905209309" lon="9.36022996665874"><ele>340.0</ele><time>2026-04-25T14:00:21Z</time></trkpt><trkpt lat="39.25762081174742" lon="9.360337653508596"><ele>340.0</ele><time>2026-04-25T14:00:22Z</time></trkpt><trkpt lat="39.25758435689055" lon="9.360452451751303"><ele>340.0</ele><time>2026-04-25T14:00:23Z</time></trkpt><trkpt lat="39.25753443551008" lon="9.360562298232592"><ele>340.0</ele><time>2026-04-25T14:00:24Z</time></trkpt><trkpt lat="39.25747470961402" lon="9.360668132152052"><ele>340.0</ele><time>2026-04-25T14:00:25Z</time></trkpt><trkpt lat="39.25741019746453" lon="9.360769516209603"><ele>340.6</ele><time>2026-04-25T14:00:26Z</time></trkpt><trkpt lat="39.257346142272276" lon="9.360871579834406"><ele>341.2</ele><time>2026-04-25T14:00:27Z</time></trkpt><trkpt lat="39.25729535089781" lon="9.360980067013514"><ele>341.79999999999995</ele><time>2026-04-25T14:00:28Z</time></trkpt><trkpt lat="39.25724142198729" lon="9.361084282855257"><ele>342.4</ele><time>2026-04-25T14:00:29Z</time></trkpt><trkpt lat="39.2571870919985" lon="9.361181557886262"><ele>343.0</ele><time>2026-04-25T14:00:30Z</time></trkpt><trkpt lat="39.25713776372233" lon="9.361286558007999"><ele>342.59999999999997</ele><time>2026-04-25T14:00:31Z</time></trkpt><trkpt lat="39.25710327632007" lon="9.361392129838318"><ele>342.2</ele><time>2026-04-25T14:00:32Z</time></trkpt><trkpt lat="39.25711108885278" lon="9.36151116074877"><ele>341.8</ele><time>2026-04-25T14:00:33Z</time></trkpt><trkpt lat="39.25714635448942" lon="9.361620132798299"><ele>341.4</ele><time>2026-04-25T14:00:34Z</time></trkpt><trkpt lat="39.257215268355175" lon="9.361709729047284"><ele>341.0</ele><time>2026-04-25T14:00:35Z</time></trkpt><trkpt lat="39.25730872055287" lon="9.361774361385885"><ele>342.6</ele><time>2026-04-25T14:00:36Z</time></trkpt><trkpt lat="39.257402609456456" lon="9.361843180222309"><ele>344.20000000000005</ele><time>2026-04-25T14:00:37Z</time></trkpt><trkpt lat="39.25749484491279" lon="9.361917685712568"><ele>345.79999999999995</ele><time>2026-04-25T14:00:38Z</time></trkpt><trkpt lat="39.25758194884443" lon="9.362005085187901"><ele>347.4</ele><time>2026-04-25T14:00:39Z</time></trkpt><trkpt lat="39.25767367018701" lon="9.362090627844761"><ele>349.0</ele><time>2026-04-25T14:00:40Z</time></trkpt><trkpt lat="39.25777042392207" lon="9.362169208805922"><ele>349.5</ele><time>2026-04-25T14:00:41Z</time></trkpt><trkpt lat="39.25786140769294" lon="9.362248436796339"><ele>350.0</ele><time>2026-04-25T14:00:42Z</time></trkpt><trkpt lat="39.257929568773115" lon="9.362326340473011"><ele>350.5</ele><time>2026-04-25T14:00:43Z</time></trkpt><trkpt lat="39.25796932057956" lon="9.362405230839071"><ele>351.0</ele><time>2026-04-25T14:00:44Z</time></trkpt><trkpt lat="39.257964564712495" lon="9.362492065021504"><ele>351.5</ele><time>2026-04-25T14:00:45Z</time></trkpt><trkpt lat="39.25790259287897" lon="9.362533933005624"><ele>352.0</ele><time>2026-04-25T14:00:46Z</time></trkpt><trkpt lat="39.25782923750784" lon="9.362539326586804"><ele>352.0</ele><time>2026-04-25T14:00:47Z</time></trkpt><trkpt lat="39.25775174704277" lon="9.362510927131789"><ele>352.0</ele><time>2026-04-25T14:00:48Z</time></trkpt><trkpt lat="39.257663989838015" lon="9.362476790223443"><ele>352.0</ele><time>2026-04-25T14:00:49Z</time></trkpt><trkpt lat="39.25756418114716" lon="9.36246245036872"><ele>352.0</ele><time>2026-04-25T14:00:50Z</time></trkpt><trkpt lat="39.25746009195324" lon="9.362472768421851"><ele>352.0</ele><time>2026-04-25T14:00:51Z</time></trkpt><trkpt lat="39.25735883727799" lon="9.362521377951138"><ele>350.75</ele><time>2026-04-25T14:00:52Z</time></trkpt><trkpt lat="39.25726733217891" lon="9.362608765684694"><ele>349.5</ele><time>2026-04-25T14:00:53Z</time></trkpt><trkpt lat="39.257187093041345" lon="9.362734455400538"><ele>348.25</ele><time>2026-04-25T14:00:54Z</time></trkpt><trkpt lat="39.257100176725835" lon="9.362847866404858"><ele>347.0</ele><time>2026-04-25T14:00:55Z</time></trkpt><trkpt lat="39.257012183929874" lon="9.36296116289826"><ele>349.5</ele><time>2026-04-25T14:00:56Z</time></trkpt><trkpt lat="39.25693883919755" lon="9.36309049336682"><ele>352.0</ele><time>2026-04-25T14:00:57Z</time></trkpt><trkpt lat="39.256878789725775" lon="9.363235130238198"><ele>354.5</ele><time>2026-04-25T14:00:58Z</time></trkpt><trkpt lat="39.256830095137246" lon="9.363393653060013"><ele>357.0</ele><time>2026-04-25T14:00:59Z</time></trkpt><trkpt lat="39.25679736819998" lon="9.363560524195309"><ele>357.0</ele><time>2026-04-25T14:01:00Z</time></trkpt><trkpt lat="39.25677804932597" lon="9.3637254918945"><ele>357.0</ele><time>2026-04-25T14:01:01Z</time></trkpt><trkpt lat="39.256773880184916" lon="9.363884858672305"><ele>357.0</ele><time>2026-04-25T14:01:02Z</time></trkpt><trkpt lat="39.256785676653216" lon="9.364035655646221"><ele>357.0</ele><time>2026-04-25T14:01:03Z</time></trkpt><trkpt lat="39.25679431543816" lon="9.364172705123503"><ele>359.20000000000005</ele><time>2026-04-25T14:01:04Z</time></trkpt><trkpt lat="39.256800837991264" lon="9.364299587897325"><ele>361.4</ele><time>2026-04-25T14:01:05Z</time></trkpt><trkpt lat="39.25681029542391" lon="9.364419997148401"><ele>363.6</ele><time>2026-04-25T14:01:06Z</time></trkpt><trkpt lat="39.25683119462729" lon="9.36452949875068"><ele>365.79999999999995</ele><time>2026-04-25T14:01:07Z</time></trkpt><trkpt lat="39.25686809941842" lon="9.364643173401758"><ele>368.0</ele><time>2026-04-25T14:01:08Z</time></trkpt><trkpt lat="39.25689825882928" lon="9.36475991869207"><ele>368.0</ele><time>2026-04-25T14:01:09Z</time></trkpt><trkpt lat="39.256939369053384" lon="9.364879332800585"><ele>368.0</ele><time>2026-04-25T14:01:10Z</time></trkpt><trkpt lat="39.25696771139196" lon="9.364995952099875"><ele>368.0</ele><time>2026-04-25T14:01:11Z</time></trkpt><trkpt lat="39.25695991429402" lon="9.365114019178048"><ele>368.0</ele><time>2026-04-25T14:01:12Z</time></trkpt><trkpt lat="39.25694092903315" lon="9.365226881886144"><ele>368.0</ele><time>2026-04-25T14:01:13Z</time></trkpt><trkpt lat="39.2568988733056" lon="9.365326993731273"><ele>368.0</ele><time>2026-04-25T14:01:14Z</time></trkpt><trkpt lat="39.25685403510337" lon="9.365436207918831"><ele>368.0</ele><time>2026-04-25T14:01:15Z</time></trkpt><trkpt lat="39.256816163254776" lon="9.365566259502168"><ele>368.0</ele><time>2026-04-25T14:01:16Z</time></trkpt><trkpt lat="39.25677748942233" lon="9.365683301787547"><ele>368.0</ele><time>2026-04-25T14:01:17Z</time></trkpt><trkpt lat="39.25675002519786" lon="9.365800632271604"><ele>368.0</ele><time>2026-04-25T14:01:18Z</time></trkpt><trkpt lat="39.25672518013494" lon="9.3659155144911"><ele>367.83333333333337</ele><time>2026-04-25T14:01:19Z</time></trkpt><trkpt lat="39.25670488309479" lon="9.366015459660575"><ele>367.6666666666667</ele><time>2026-04-25T14:01:20Z</time></trkpt><trkpt lat="39.25669622845609" lon="9.36611118844736"><ele>367.5</ele><time>2026-04-25T14:01:21Z</time></trkpt><trkpt lat="39.25669583599132" lon="9.366209001285268"><ele>367.3333333333333</ele><time>2026-04-25T14:01:22Z</time></trkpt><trkpt lat="39.256707547854944" lon="9.366303089912329"><ele>367.16666666666663</ele><time>2026-04-25T14:01:23Z</time></trkpt><trkpt lat="39.25672868750258" lon="9.366396489302229"><ele>367.0</ele><time>2026-04-25T14:01:24Z</time></trkpt><trkpt lat="39.25673096242808" lon="9.366497252860572"><ele>367.0</ele><time>2026-04-25T14:01:25Z</time></trkpt><trkpt lat="39.25675298272874" lon="9.366598351896569"><ele>367.0</ele><time>2026-04-25T14:01:26Z</time></trkpt><trkpt lat="39.25677547021818" lon="9.366700219788864"><ele>367.0</ele><time>2026-04-25T14:01:27Z</time></trkpt><trkpt lat="39.256814407547466" lon="9.36679997023518"><ele>367.0</ele><time>2026-04-25T14:01:28Z</time></trkpt><trkpt lat="39.25683607852192" lon="9.36689853933036"><ele>367.0</ele><time>2026-04-25T14:01:29Z</time></trkpt><trkpt lat="39.256858867806926" lon="9.36699665638263"><ele>367.0</ele><time>2026-04-25T14:01:30Z</time></trkpt><trkpt lat="39.256894426949664" lon="9.367087813033251"><ele>367.0</ele><time>2026-04-25T14:01:31Z</time></trkpt><trkpt lat="39.25694457251453" lon="9.367168929748132"><ele>367.0</ele><time>2026-04-25T14:01:32Z</time></trkpt><trkpt lat="39.257008636790125" lon="9.3672366441684"><ele>367.0</ele><time>2026-04-25T14:01:33Z</time></trkpt><trkpt lat="39.25708964408411" lon="9.367281030681687"><ele>367.0</ele><time>2026-04-25T14:01:34Z</time></trkpt><trkpt lat="39.25717604515872" lon="9.367300938198861"><ele>367.0</ele><time>2026-04-25T14:01:35Z</time></trkpt><trkpt lat="39.257264651651425" lon="9.367304019390382"><ele>367.0</ele><time>2026-04-25T14:01:36Z</time></trkpt><trkpt lat="39.25735676518186" lon="9.367304363767813"><ele>368.16666666666663</ele><time>2026-04-25T14:01:37Z</time></trkpt><trkpt lat="39.25744925344102" lon="9.367305295889663"><ele>369.3333333333333</ele><time>2026-04-25T14:01:38Z</time></trkpt><trkpt lat="39.25753110006105" lon="9.367323354153433"><ele>370.5</ele><time>2026-04-25T14:01:39Z</time></trkpt><trkpt lat="39.25761256367149" lon="9.367360145927297"><ele>371.6666666666667</ele><time>2026-04-25T14:01:40Z</time></trkpt><trkpt lat="39.25768667963198" lon="9.367412452728967"><ele>372.83333333333337</ele><time>2026-04-25T14:01:41Z</time></trkpt><trkpt lat="39.2577396321592" lon="9.367494714393052"><ele>374.0</ele><time>2026-04-25T14:01:42Z</time></trkpt><trkpt lat="39.257783924030896" lon="9.36758856727019"><ele>374.0</ele><time>2026-04-25T14:01:43Z</time></trkpt><trkpt lat="39.257833790618925" lon="9.367678619795894"><ele>374.0</ele><time>2026-04-25T14:01:44Z</time></trkpt><trkpt lat="39.25788113218829" lon="9.367775787972283"><ele>374.0</ele><time>2026-04-25T14:01:45Z</time></trkpt><trkpt lat="39.25792754157329" lon="9.367871273581512"><ele>374.0</ele><time>2026-04-25T14:01:46Z</time></trkpt><trkpt lat="39.25798435259278" lon="9.367964103278716"><ele>374.0</ele><time>2026-04-25T14:01:47Z</time></trkpt><trkpt lat="39.25804975325529" lon="9.368042761422934"><ele>374.0</ele><time>2026-04-25T14:01:48Z</time></trkpt><trkpt lat="39.25813074874129" lon="9.36809788873036"><ele>375.0</ele><time>2026-04-25T14:01:49Z</time></trkpt><trkpt lat="39.258219464976996" lon="9.368127208032723"><ele>376.0</ele><time>2026-04-25T14:01:50Z</time></trkpt><trkpt lat="39.25831485722567" lon="9.368112817605056"><ele>377.0</ele><time>2026-04-25T14:01:51Z</time></trkpt><trkpt lat="39.258407174281956" lon="9.368077411171512"><ele>378.0</ele><time>2026-04-25T14:01:52Z</time></trkpt><trkpt lat="39.258498260982485" lon="9.368038207322828"><ele>379.0</ele><time>2026-04-25T14:01:53Z</time></trkpt><trkpt lat="39.258575380184546" lon="9.368016603419042"><ele>379.0</ele><time>2026-04-25T14:01:54Z</time></trkpt><trkpt lat="39.25867135009777" lon="9.36806000084459"><ele>379.0</ele><time>2026-04-25T14:01:56Z</time></trkpt><trkpt lat="39.25868786842074" lon="9.368140810795891"><ele>379.0</ele><time>2026-04-25T14:01:57Z</time></trkpt><trkpt lat="39.25867087499629" lon="9.368238480697201"><ele>379.0</ele><time>2026-04-25T14:01:58Z</time></trkpt><trkpt lat="39.258645634829804" lon="9.368334116286762"><ele>379.0</ele><time>2026-04-25T14:01:59Z</time></trkpt><trkpt lat="39.25863698546317" lon="9.368438417452897"><ele>379.0</ele><time>2026-04-25T14:02:00Z</time></trkpt><trkpt lat="39.258634087944344" lon="9.368542417955311"><ele>379.0</ele><time>2026-04-25T14:02:01Z</time></trkpt><trkpt lat="39.25863820622783" lon="9.368648611720653"><ele>379.0</ele><time>2026-04-25T14:02:02Z</time></trkpt><trkpt lat="39.25866613808993" lon="9.368759297218217"><ele>379.0</ele><time>2026-04-25T14:02:03Z</time></trkpt><trkpt lat="39.25871660623746" lon="9.368865711505073"><ele>379.0</ele><time>2026-04-25T14:02:04Z</time></trkpt><trkpt lat="39.25876836001323" lon="9.368975956386429"><ele>379.0</ele><time>2026-04-25T14:02:05Z</time></trkpt><trkpt lat="39.25881257056105" lon="9.36908681953805"><ele>379.4</ele><time>2026-04-25T14:02:06Z</time></trkpt><trkpt lat="39.258858572805316" lon="9.369197049350474"><ele>379.79999999999995</ele><time>2026-04-25T14:02:07Z</time></trkpt><trkpt lat="39.25890197840735" lon="9.369304819466066"><ele>380.20000000000005</ele><time>2026-04-25T14:02:08Z</time></trkpt><trkpt lat="39.25894789916951" lon="9.369413981013485"><ele>380.6</ele><time>2026-04-25T14:02:09Z</time></trkpt><trkpt lat="39.258998812204" lon="9.369517327431938"><ele>381.0</ele><time>2026-04-25T14:02:10Z</time></trkpt><trkpt lat="39.25904584318838" lon="9.369613503906361"><ele>383.0</ele><time>2026-04-25T14:02:11Z</time></trkpt><trkpt lat="39.25908059065632" lon="9.369698231483541"><ele>385.0</ele><time>2026-04-25T14:02:12Z</time></trkpt><trkpt lat="39.2590866374161" lon="9.369845263707829"><ele>387.0</ele><time>2026-04-25T14:02:14Z</time></trkpt><trkpt lat="39.25909113240772" lon="9.369933102313096"><ele>389.0</ele><time>2026-04-25T14:02:15Z</time></trkpt><trkpt lat="39.25907096173812" lon="9.370024394810518"><ele>391.0</ele><time>2026-04-25T14:02:16Z</time></trkpt><trkpt lat="39.25905206870652" lon="9.37012274319188"><ele>393.0</ele><time>2026-04-25T14:02:17Z</time></trkpt><trkpt lat="39.2590434310772" lon="9.37022876459687"><ele>393.0</ele><time>2026-04-25T14:02:18Z</time></trkpt><trkpt lat="39.25904607148922" lon="9.37034919882621"><ele>393.0</ele><time>2026-04-25T14:02:19Z</time></trkpt><trkpt lat="39.25904274037247" lon="9.370475336921876"><ele>393.0</ele><time>2026-04-25T14:02:20Z</time></trkpt><trkpt lat="39.259050374687476" lon="9.37060049509324"><ele>393.0</ele><time>2026-04-25T14:02:21Z</time></trkpt><trkpt lat="39.259059423132705" lon="9.370729536505266"><ele>393.0</ele><time>2026-04-25T14:02:22Z</time></trkpt><trkpt lat="39.25906299818805" lon="9.370863403885476"><ele>394.0</ele><time>2026-04-25T14:02:23Z</time></trkpt><trkpt lat="39.25907400491743" lon="9.37099927654084"><ele>395.0</ele><time>2026-04-25T14:02:24Z</time></trkpt><trkpt lat="39.25909811514411" lon="9.37113689088497"><ele>396.0</ele><time>2026-04-25T14:02:25Z</time></trkpt><trkpt lat="39.25913471925423" lon="9.371272403108817"><ele>397.0</ele><time>2026-04-25T14:02:26Z</time></trkpt><trkpt lat="39.259178008025444" lon="9.371405861429182"><ele>398.0</ele><time>2026-04-25T14:02:27Z</time></trkpt><trkpt lat="39.25922093031529" lon="9.371535453146226"><ele>399.0</ele><time>2026-04-25T14:02:28Z</time></trkpt><trkpt lat="39.25924179986633" lon="9.371672720155603"><ele>400.0</ele><time>2026-04-25T14:02:29Z</time></trkpt><trkpt lat="39.2592787209972" lon="9.371807429342903"><ele>401.0</ele><time>2026-04-25T14:02:30Z</time></trkpt><trkpt lat="39.259372010891745" lon="9.371893650236652"><ele>402.0</ele><time>2026-04-25T14:02:31Z</time></trkpt><trkpt lat="39.25942238414149" lon="9.371997360270376"><ele>403.0</ele><time>2026-04-25T14:02:32Z</time></trkpt><trkpt lat="39.25948178975446" lon="9.372102044153205"><ele>403.83333333333337</ele><time>2026-04-25T14:02:33Z</time></trkpt><trkpt lat="39.25953267260393" lon="9.372196881775212"><ele>404.6666666666667</ele><time>2026-04-25T14:02:34Z</time></trkpt><trkpt lat="39.25957267262756" lon="9.372292375490174"><ele>405.5</ele><time>2026-04-25T14:02:35Z</time></trkpt><trkpt lat="39.259609592503736" lon="9.372389159451924"><ele>406.33333333333337</ele><time>2026-04-25T14:02:36Z</time></trkpt><trkpt lat="39.259643219937374" lon="9.372481758740717"><ele>407.1666666666667</ele><time>2026-04-25T14:02:37Z</time></trkpt><trkpt lat="39.25967536397014" lon="9.37256483966552"><ele>408.0</ele><time>2026-04-25T14:02:38Z</time></trkpt><trkpt lat="39.25972312185189" lon="9.372692142325429"><ele>408.0</ele><time>2026-04-25T14:02:40Z</time></trkpt><trkpt lat="39.25973301512492" lon="9.372834371041659"><ele>408.0</ele><time>2026-04-25T14:02:42Z</time></trkpt><trkpt lat="39.259733724216325" lon="9.372918208175724"><ele>408.0</ele><time>2026-04-25T14:02:43Z</time></trkpt><trkpt lat="39.25973545930836" lon="9.37302076951759"><ele>408.0</ele><time>2026-04-25T14:02:44Z</time></trkpt><trkpt lat="39.259732787002484" lon="9.373123119721132"><ele>408.0</ele><time>2026-04-25T14:02:45Z</time></trkpt><trkpt lat="39.259727039777324" lon="9.373230446102829"><ele>408.0</ele><time>2026-04-25T14:02:46Z</time></trkpt><trkpt lat="39.25971887319815" lon="9.373340931023463"><ele>409.2</ele><time>2026-04-25T14:02:47Z</time></trkpt><trkpt lat="39.25971502745021" lon="9.373453330794861"><ele>410.4</ele><time>2026-04-25T14:02:48Z</time></trkpt><trkpt lat="39.259711671817904" lon="9.37358176534554"><ele>411.59999999999997</ele><time>2026-04-25T14:02:49Z</time></trkpt><trkpt lat="39.259706063633274" lon="9.373709676202916"><ele>412.79999999999995</ele><time>2026-04-25T14:02:50Z</time></trkpt><trkpt lat="39.25970021273968" lon="9.37384171617892"><ele>414.0</ele><time>2026-04-25T14:02:51Z</time></trkpt><trkpt lat="39.259695496137454" lon="9.373974402538174"><ele>415.2</ele><time>2026-04-25T14:02:52Z</time></trkpt><trkpt lat="39.25968439063493" lon="9.37410570669656"><ele>416.4</ele><time>2026-04-25T14:02:53Z</time></trkpt><trkpt lat="39.259674547042515" lon="9.374231046408681"><ele>417.6</ele><time>2026-04-25T14:02:54Z</time></trkpt><trkpt lat="39.25967039838334" lon="9.374356856655584"><ele>418.8</ele><time>2026-04-25T14:02:55Z</time></trkpt><trkpt lat="39.25967298848502" lon="9.374477416235713"><ele>420.0</ele><time>2026-04-25T14:02:56Z</time></trkpt><trkpt lat="39.259692692270136" lon="9.374602562511912"><ele>421.8</ele><time>2026-04-25T14:02:57Z</time></trkpt><trkpt lat="39.25973615861856" lon="9.374710852185165"><ele>423.6</ele><time>2026-04-25T14:02:58Z</time></trkpt><trkpt lat="39.259792804190795" lon="9.374806833641408"><ele>425.4</ele><time>2026-04-25T14:02:59Z</time></trkpt><trkpt lat="39.25984509111387" lon="9.374905923304777"><ele>427.2</ele><time>2026-04-25T14:03:00Z</time></trkpt><trkpt lat="39.259897027160115" lon="9.375004300667115"><ele>429.0</ele><time>2026-04-25T14:03:01Z</time></trkpt><trkpt lat="39.259946552587145" lon="9.3751014953921"><ele>430.0</ele><time>2026-04-25T14:03:02Z</time></trkpt><trkpt lat="39.25999541967005" lon="9.37519018893756"><ele>431.0</ele><time>2026-04-25T14:03:03Z</time></trkpt><trkpt lat="39.26004642177847" lon="9.375285038597822"><ele>432.0</ele><time>2026-04-25T14:03:04Z</time></trkpt><trkpt lat="39.260087637653285" lon="9.37538488614075"><ele>433.0</ele><time>2026-04-25T14:03:05Z</time></trkpt><trkpt lat="39.260122147686765" lon="9.37548647426067"><ele>434.0</ele><time>2026-04-25T14:03:06Z</time></trkpt><trkpt lat="39.26013529242596" lon="9.375591041572301"><ele>435.0</ele><time>2026-04-25T14:03:07Z</time></trkpt><trkpt lat="39.26014786368799" lon="9.375707090877196"><ele>435.0</ele><time>2026-04-25T14:03:08Z</time></trkpt><trkpt lat="39.26016216574725" lon="9.37581098193115"><ele>435.0</ele><time>2026-04-25T14:03:09Z</time></trkpt><trkpt lat="39.260170192646406" lon="9.375912529350552"><ele>435.0</ele><time>2026-04-25T14:03:10Z</time></trkpt><trkpt lat="39.2601724480024" lon="9.37602020869363"><ele>435.0</ele><time>2026-04-25T14:03:11Z</time></trkpt><trkpt lat="39.26016361022892" lon="9.376120103343585"><ele>435.0</ele><time>2026-04-25T14:03:12Z</time></trkpt><trkpt lat="39.26014400831381" lon="9.37620057411604"><ele>435.0</ele><time>2026-04-25T14:03:13Z</time></trkpt><trkpt lat="39.26008963612065" lon="9.376299847700995"><ele>435.0</ele><time>2026-04-25T14:03:15Z</time></trkpt><trkpt lat="39.259989646636214" lon="9.376327833881957"><ele>435.0</ele><time>2026-04-25T14:03:17Z</time></trkpt><trkpt lat="39.25992923253476" lon="9.376303659982726"><ele>435.0</ele><time>2026-04-25T14:03:18Z</time></trkpt><trkpt lat="39.259852157499324" lon="9.37616542433242"><ele>435.0</ele><time>2026-04-25T14:03:20Z</time></trkpt><trkpt lat="39.25982154172482" lon="9.37607960184142"><ele>435.0</ele><time>2026-04-25T14:03:21Z</time></trkpt><trkpt lat="39.25978710124911" lon="9.375995241902443"><ele>435.0</ele><time>2026-04-25T14:03:22Z</time></trkpt><trkpt lat="39.25973946028956" lon="9.37590622658471"><ele>435.8</ele><time>2026-04-25T14:03:23Z</time></trkpt><trkpt lat="39.25967194084522" lon="9.3758271938681"><ele>436.6</ele><time>2026-04-25T14:03:24Z</time></trkpt><trkpt lat="39.25959315867301" lon="9.375766341132408"><ele>437.4</ele><time>2026-04-25T14:03:25Z</time></trkpt><trkpt lat="39.259507039051954" lon="9.375715020654876"><ele>438.2</ele><time>2026-04-25T14:03:26Z</time></trkpt><trkpt lat="39.25941575621942" lon="9.375651736530216"><ele>439.0</ele><time>2026-04-25T14:03:27Z</time></trkpt><trkpt lat="39.25932601105552" lon="9.37558684942563"><ele>439.00000000000006</ele><time>2026-04-25T14:03:28Z</time></trkpt><trkpt lat="39.25924223626777" lon="9.375525772422222"><ele>439.0</ele><time>2026-04-25T14:03:29Z</time></trkpt><trkpt lat="39.25915394352241" lon="9.375461269462171"><ele>439.0</ele><time>2026-04-25T14:03:30Z</time></trkpt><trkpt lat="39.259070842289894" lon="9.375396028131087"><ele>439.0</ele><time>2026-04-25T14:03:31Z</time></trkpt><trkpt lat="39.258998886230216" lon="9.375334741261243"><ele>439.00000000000006</ele><time>2026-04-25T14:03:32Z</time></trkpt><trkpt lat="39.258944333340175" lon="9.375293029922878"><ele>439.0</ele><time>2026-04-25T14:03:33Z</time></trkpt><trkpt lat="39.25887276831614" lon="9.375328391423515"><ele>439.00000000000006</ele><time>2026-04-25T14:03:35Z</time></trkpt><trkpt lat="39.258886319984065" lon="9.375471589810859"><ele>439.0</ele><time>2026-04-25T14:03:37Z</time></trkpt><trkpt lat="39.25891916762706" lon="9.375562273179272"><ele>439.0</ele><time>2026-04-25T14:03:38Z</time></trkpt><trkpt lat="39.258944176722444" lon="9.375661923528657"><ele>439.0</ele><time>2026-04-25T14:03:39Z</time></trkpt><trkpt lat="39.25897097477239" lon="9.375764472769202"><ele>439.00000000000006</ele><time>2026-04-25T14:03:40Z</time></trkpt><trkpt lat="39.25902199398878" lon="9.37585082881475"><ele>439.0</ele><time>2026-04-25T14:03:41Z</time></trkpt><trkpt lat="39.2590955298197" lon="9.375903074789518"><ele>439.0</ele><time>2026-04-25T14:03:42Z</time></trkpt><trkpt lat="39.25915953382366" lon="9.37596927884301"><ele>439.0</ele><time>2026-04-25T14:03:43Z</time></trkpt><trkpt lat="39.25921011998219" lon="9.37606669201283"><ele>439.0</ele><time>2026-04-25T14:03:44Z</time></trkpt><trkpt lat="39.25924162887167" lon="9.376185224009667"><ele>439.0</ele><time>2026-04-25T14:03:45Z</time></trkpt><trkpt lat="39.259271851435706" lon="9.376300958968077"><ele>439.0</ele><time>2026-04-25T14:03:46Z</time></trkpt><trkpt lat="39.25929120297458" lon="9.376426468588816"><ele>441.79999999999995</ele><time>2026-04-25T14:03:47Z</time></trkpt><trkpt lat="39.25930986656026" lon="9.376550631709234"><ele>444.59999999999997</ele><time>2026-04-25T14:03:48Z</time></trkpt><trkpt lat="39.25932763468796" lon="9.376675523362733"><ele>447.4</ele><time>2026-04-25T14:03:49Z</time></trkpt><trkpt lat="39.25934255680167" lon="9.376802554951853"><ele>450.2</ele><time>2026-04-25T14:03:50Z</time></trkpt><trkpt lat="39.259359157795785" lon="9.37692991720729"><ele>453.0</ele><time>2026-04-25T14:03:51Z</time></trkpt><trkpt lat="39.259389136771226" lon="9.37706031844694"><ele>455.79999999999995</ele><time>2026-04-25T14:03:52Z</time></trkpt><trkpt lat="39.25942621665137" lon="9.37718965105805"><ele>458.59999999999997</ele><time>2026-04-25T14:03:53Z</time></trkpt><trkpt lat="39.25946465973236" lon="9.377321553308702"><ele>461.40000000000003</ele><time>2026-04-25T14:03:54Z</time></trkpt><trkpt lat="39.25950045780462" lon="9.377454595974672"><ele>464.20000000000005</ele><time>2026-04-25T14:03:55Z</time></trkpt><trkpt lat="39.25953495225901" lon="9.377585415430167"><ele>467.0</ele><time>2026-04-25T14:03:56Z</time></trkpt><trkpt lat="39.25957288259702" lon="9.377714401054114"><ele>467.0</ele><time>2026-04-25T14:03:57Z</time></trkpt><trkpt lat="39.259610164949564" lon="9.377845137536388"><ele>467.00000000000006</ele><time>2026-04-25T14:03:58Z</time></trkpt><trkpt lat="39.2596472302799" lon="9.377976147255465"><ele>467.00000000000006</ele><time>2026-04-25T14:03:59Z</time></trkpt><trkpt lat="39.259691183420045" lon="9.378102924134609"><ele>467.0</ele><time>2026-04-25T14:04:00Z</time></trkpt><trkpt lat="39.25973553909074" lon="9.378228164695347"><ele>467.0</ele><time>2026-04-25T14:04:01Z</time></trkpt><trkpt lat="39.25977836845384" lon="9.378356279832675"><ele>466.6</ele><time>2026-04-25T14:04:02Z</time></trkpt><trkpt lat="39.25981443156773" lon="9.378487949036574"><ele>466.20000000000005</ele><time>2026-04-25T14:04:03Z</time></trkpt><trkpt lat="39.25984722845651" lon="9.378620118733538"><ele>465.8</ele><time>2026-04-25T14:04:04Z</time></trkpt><trkpt lat="39.259886337015416" lon="9.378749713174836"><ele>465.4</ele><time>2026-04-25T14:04:05Z</time></trkpt><trkpt lat="39.259924507859616" lon="9.37887660696213"><ele>465.0</ele><time>2026-04-25T14:04:06Z</time></trkpt><trkpt lat="39.259961399348185" lon="9.379005026355214"><ele>468.0</ele><time>2026-04-25T14:04:07Z</time></trkpt><trkpt lat="39.259990993618125" lon="9.379138070826373"><ele>471.0</ele><time>2026-04-25T14:04:08Z</time></trkpt><trkpt lat="39.260018253536344" lon="9.37926814800256"><ele>474.0</ele><time>2026-04-25T14:04:09Z</time></trkpt><trkpt lat="39.260062983685195" lon="9.379386456064408"><ele>477.0</ele><time>2026-04-25T14:04:10Z</time></trkpt><trkpt lat="39.260127330326966" lon="9.379501013046283"><ele>480.0</ele><time>2026-04-25T14:04:11Z</time></trkpt><trkpt lat="39.26019750636718" lon="9.37961406779035"><ele>484.2</ele><time>2026-04-25T14:04:12Z</time></trkpt><trkpt lat="39.26026625385422" lon="9.379731293533165"><ele>488.4</ele><time>2026-04-25T14:04:13Z</time></trkpt><trkpt lat="39.26031938980656" lon="9.379853855247125"><ele>492.6</ele><time>2026-04-25T14:04:14Z</time></trkpt><trkpt lat="39.26037918969465" lon="9.37997584972145"><ele>496.8</ele><time>2026-04-25T14:04:15Z</time></trkpt><trkpt lat="39.26043841187777" lon="9.380090842779197"><ele>501.0</ele><time>2026-04-25T14:04:16Z</time></trkpt><trkpt lat="39.260495190875346" lon="9.380198697549114"><ele>501.0</ele><time>2026-04-25T14:04:17Z</time></trkpt><trkpt lat="39.260543168351774" lon="9.380302978613905"><ele>501.0</ele><time>2026-04-25T14:04:18Z</time></trkpt><trkpt lat="39.2605772698054" lon="9.380413084030646"><ele>501.0</ele><time>2026-04-25T14:04:19Z</time></trkpt><trkpt lat="39.260598019956774" lon="9.380528626819403"><ele>501.0</ele><time>2026-04-25T14:04:20Z</time></trkpt><trkpt lat="39.26061292458254" lon="9.380638563377888"><ele>501.0</ele><time>2026-04-25T14:04:21Z</time></trkpt><trkpt lat="39.260644531162235" lon="9.380738564578456"><ele>501.0</ele><time>2026-04-25T14:04:22Z</time></trkpt><trkpt lat="39.260684648382274" lon="9.380827101026854"><ele>500.0</ele><time>2026-04-25T14:04:23Z</time></trkpt><trkpt lat="39.26072158222642" lon="9.380909873801132"><ele>499.0</ele><time>2026-04-25T14:04:24Z</time></trkpt><trkpt lat="39.26076976357751" lon="9.381031303386713"><ele>498.0</ele><time>2026-04-25T14:04:26Z</time></trkpt><trkpt lat="39.26079659374536" lon="9.381174226766955"><ele>497.0</ele><time>2026-04-25T14:04:28Z</time></trkpt><trkpt lat="39.26076969131207" lon="9.381328648313216"><ele>496.0</ele><time>2026-04-25T14:04:30Z</time></trkpt><trkpt lat="39.2607628419116" lon="9.381478718304084"><ele>498.33333333333337</ele><time>2026-04-25T14:04:32Z</time></trkpt><trkpt lat="39.26076994945537" lon="9.381565818407909"><ele>500.6666666666667</ele><time>2026-04-25T14:04:33Z</time></trkpt><trkpt lat="39.26079499622761" lon="9.381656789427671"><ele>503.0</ele><time>2026-04-25T14:04:34Z</time></trkpt><trkpt lat="39.26083175339519" lon="9.381740075873662"><ele>505.33333333333337</ele><time>2026-04-25T14:04:35Z</time></trkpt><trkpt lat="39.260890387671054" lon="9.381890727886136"><ele>507.6666666666667</ele><time>2026-04-25T14:04:37Z</time></trkpt><trkpt lat="39.26092192669126" lon="9.381970621515595"><ele>510.0</ele><time>2026-04-25T14:04:38Z</time></trkpt><trkpt lat="39.26096088231652" lon="9.382040859032688"><ele>510.0</ele><time>2026-04-25T14:04:39Z</time></trkpt><trkpt lat="39.26101646750825" lon="9.382101473558743"><ele>510.0</ele><time>2026-04-25T14:04:40Z</time></trkpt><trkpt lat="39.26107986801373" lon="9.382174118634234"><ele>510.0</ele><time>2026-04-25T14:04:41Z</time></trkpt><trkpt lat="39.261121207384654" lon="9.382322050755938"><ele>510.0</ele><time>2026-04-25T14:04:43Z</time></trkpt><trkpt lat="39.261124066815675" lon="9.382406563768468"><ele>510.0</ele><time>2026-04-25T14:04:44Z</time></trkpt><trkpt lat="39.261125688289816" lon="9.382500142590853"><ele>510.0</ele><time>2026-04-25T14:04:45Z</time></trkpt><trkpt lat="39.261136285085996" lon="9.382598985457646"><ele>512.8333333333334</ele><time>2026-04-25T14:04:46Z</time></trkpt><trkpt lat="39.26115552753362" lon="9.382695281595172"><ele>515.6666666666666</ele><time>2026-04-25T14:04:47Z</time></trkpt><trkpt lat="39.2611744464249" lon="9.382786067505155"><ele>518.5</ele><time>2026-04-25T14:04:48Z</time></trkpt><trkpt lat="39.261186589140436" lon="9.382879435572903"><ele>521.3333333333333</ele><time>2026-04-25T14:04:49Z</time></trkpt><trkpt lat="39.26120183419749" lon="9.382978860725027"><ele>524.1666666666666</ele><time>2026-04-25T14:04:50Z</time></trkpt><trkpt lat="39.26121355100367" lon="9.383073519792601"><ele>527.0</ele><time>2026-04-25T14:04:51Z</time></trkpt><trkpt lat="39.261239698441074" lon="9.383168870903381"><ele>528.3333333333333</ele><time>2026-04-25T14:04:52Z</time></trkpt><trkpt lat="39.261259731407755" lon="9.383258636701427"><ele>529.6666666666666</ele><time>2026-04-25T14:04:53Z</time></trkpt><trkpt lat="39.26127773078092" lon="9.383353809539864"><ele>531.0</ele><time>2026-04-25T14:04:54Z</time></trkpt><trkpt lat="39.26129534975984" lon="9.383458027979838"><ele>532.3333333333334</ele><time>2026-04-25T14:04:55Z</time></trkpt><trkpt lat="39.26130796164947" lon="9.383554811359982"><ele>533.6666666666667</ele><time>2026-04-25T14:04:56Z</time></trkpt><trkpt lat="39.261328764870534" lon="9.38364950781816"><ele>535.0</ele><time>2026-04-25T14:04:57Z</time></trkpt><trkpt lat="39.26135633716291" lon="9.38374458080603"><ele>535.0</ele><time>2026-04-25T14:04:58Z</time></trkpt><trkpt lat="39.26140128454278" lon="9.383828016108898"><ele>535.0</ele><time>2026-04-25T14:04:59Z</time></trkpt><trkpt lat="39.26144770725117" lon="9.38390785066485"><ele>535.0</ele><time>2026-04-25T14:05:00Z</time></trkpt><trkpt lat="39.26149748918594" lon="9.383986758819223"><ele>535.0</ele><time>2026-04-25T14:05:01Z</time></trkpt><trkpt lat="39.26154996159855" lon="9.38405976589589"><ele>535.0</ele><time>2026-04-25T14:05:02Z</time></trkpt><trkpt lat="39.26159467175338" lon="9.384136236522208"><ele>535.0</ele><time>2026-04-25T14:05:03Z</time></trkpt><trkpt lat="39.261625032203035" lon="9.384227626868485"><ele>534.8333333333334</ele><time>2026-04-25T14:05:04Z</time></trkpt><trkpt lat="39.261646337975776" lon="9.384316590550467"><ele>534.6666666666667</ele><time>2026-04-25T14:05:05Z</time></trkpt><trkpt lat="39.26164711586344" lon="9.384412231536748"><ele>534.5</ele><time>2026-04-25T14:05:06Z</time></trkpt><trkpt lat="39.26164362170592" lon="9.384509420098965"><ele>534.3333333333334</ele><time>2026-04-25T14:05:07Z</time></trkpt><trkpt lat="39.261628749742634" lon="9.384606077760106"><ele>534.1666666666666</ele><time>2026-04-25T14:05:08Z</time></trkpt><trkpt lat="39.261618330037216" lon="9.384708090009418"><ele>534.0</ele><time>2026-04-25T14:05:09Z</time></trkpt><trkpt lat="39.26160826752426" lon="9.384810680740019"><ele>534.0</ele><time>2026-04-25T14:05:10Z</time></trkpt><trkpt lat="39.26159950523449" lon="9.384911927592979"><ele>534.0</ele><time>2026-04-25T14:05:11Z</time></trkpt><trkpt lat="39.26159100363963" lon="9.385007432576272"><ele>534.0</ele><time>2026-04-25T14:05:12Z</time></trkpt><trkpt lat="39.26158244602953" lon="9.385099365245784"><ele>534.0</ele><time>2026-04-25T14:05:13Z</time></trkpt><trkpt lat="39.261557975188246" lon="9.385183180275234"><ele>534.0</ele><time>2026-04-25T14:05:14Z</time></trkpt><trkpt lat="39.26151304138595" lon="9.385261002782208"><ele>534.0</ele><time>2026-04-25T14:05:15Z</time></trkpt><trkpt lat="39.26145771453151" lon="9.38534317670796"><ele>540.0</ele><time>2026-04-25T14:05:16Z</time></trkpt><trkpt lat="39.26140102649338" lon="9.385425202903605"><ele>546.0</ele><time>2026-04-25T14:05:17Z</time></trkpt><trkpt lat="39.26133485725045" lon="9.38550924092936"><ele>552.0</ele><time>2026-04-25T14:05:18Z</time></trkpt><trkpt lat="39.26127902019584" lon="9.385598553192438"><ele>558.0</ele><time>2026-04-25T14:05:19Z</time></trkpt><trkpt lat="39.261222537413786" lon="9.385691476483967"><ele>564.0</ele><time>2026-04-25T14:05:20Z</time></trkpt><trkpt lat="39.26116131027497" lon="9.385781939877262"><ele>564.0</ele><time>2026-04-25T14:05:21Z</time></trkpt><trkpt lat="39.261094015907936" lon="9.385870969384012"><ele>564.0</ele><time>2026-04-25T14:05:22Z</time></trkpt><trkpt lat="39.261031113323455" lon="9.385961349263996"><ele>564.0</ele><time>2026-04-25T14:05:23Z</time></trkpt><trkpt lat="39.26097319894872" lon="9.38605013056582"><ele>564.0</ele><time>2026-04-25T14:05:24Z</time></trkpt><trkpt lat="39.260925290300875" lon="9.386149892560711"><ele>564.0</ele><time>2026-04-25T14:05:25Z</time></trkpt><trkpt lat="39.260890024585905" lon="9.386245730419056"><ele>564.0</ele><time>2026-04-25T14:05:26Z</time></trkpt><trkpt lat="39.26086513297448" lon="9.386321051076564"><ele>564.0</ele><time>2026-04-25T14:05:27Z</time></trkpt><trkpt lat="39.26081919291981" lon="9.386415583627373"><ele>564.0</ele><time>2026-04-25T14:05:29Z</time></trkpt><trkpt lat="39.26074595305236" lon="9.386437557291586"><ele>564.0</ele><time>2026-04-25T14:05:32Z</time></trkpt><trkpt lat="39.2607468155213" lon="9.386343854863476"><ele>564.0</ele><time>2026-04-25T14:05:34Z</time></trkpt><trkpt lat="39.26075565619921" lon="9.386251941654216"><ele>564.0</ele><time>2026-04-25T14:05:35Z</time></trkpt><trkpt lat="39.26075356994213" lon="9.386156169493104"><ele>564.0</ele><time>2026-04-25T14:05:36Z</time></trkpt><trkpt lat="39.26076203884764" lon="9.38606166780911"><ele>564.0</ele><time>2026-04-25T14:05:37Z</time></trkpt><trkpt lat="39.26078869269479" lon="9.385979066822678"><ele>564.0</ele><time>2026-04-25T14:05:38Z</time></trkpt><trkpt lat="39.26074116096829" lon="9.385875387655403"><ele>564.0</ele><time>2026-04-25T14:05:40Z</time></trkpt><trkpt lat="39.260667602884325" lon="9.38589363007107"><ele>564.0</ele><time>2026-04-25T14:05:42Z</time></trkpt><trkpt lat="39.26062674701388" lon="9.38597383616249"><ele>564.0</ele><time>2026-04-25T14:05:43Z</time></trkpt><trkpt lat="39.26061428991417" lon="9.38605783519638"><ele>564.0</ele><time>2026-04-25T14:05:44Z</time></trkpt><trkpt lat="39.26061244390461" lon="9.386224242248021"><ele>568.5</ele><time>2026-04-25T14:05:46Z</time></trkpt><trkpt lat="39.26059431121213" lon="9.386315814242982"><ele>573.0</ele><time>2026-04-25T14:05:47Z</time></trkpt><trkpt lat="39.26057380739448" lon="9.386413837505444"><ele>577.5</ele><time>2026-04-25T14:05:48Z</time></trkpt><trkpt lat="39.26054338268644" lon="9.38651024462331"><ele>582.0</ele><time>2026-04-25T14:05:49Z</time></trkpt><trkpt lat="39.260505375955546" lon="9.386611283154952"><ele>586.5</ele><time>2026-04-25T14:05:50Z</time></trkpt><trkpt lat="39.2604602226971" lon="9.386702049926374"><ele>591.0</ele><time>2026-04-25T14:05:51Z</time></trkpt><trkpt lat="39.26040991376751" lon="9.386794195689143"><ele>591.0</ele><time>2026-04-25T14:05:52Z</time></trkpt><trkpt lat="39.26033978584344" lon="9.386869218837525"><ele>591.0</ele><time>2026-04-25T14:05:53Z</time></trkpt><trkpt lat="39.260274326881365" lon="9.386963009569977"><ele>591.0</ele><time>2026-04-25T14:05:54Z</time></trkpt><trkpt lat="39.26023579258811" lon="9.387067324143748"><ele>591.0</ele><time>2026-04-25T14:05:55Z</time></trkpt><trkpt lat="39.26017787559294" lon="9.38714791926263"><ele>591.0</ele><time>2026-04-25T14:05:56Z</time></trkpt><trkpt lat="39.26013010697482" lon="9.387234263847965"><ele>591.0</ele><time>2026-04-25T14:05:57Z</time></trkpt><trkpt lat="39.26007058106974" lon="9.3873178136299"><ele>589.1666666666666</ele><time>2026-04-25T14:05:58Z</time></trkpt><trkpt lat="39.26000009155598" lon="9.38738837796513"><ele>587.3333333333334</ele><time>2026-04-25T14:05:59Z</time></trkpt><trkpt lat="39.25991961458539" lon="9.387453689714599"><ele>585.5</ele><time>2026-04-25T14:06:00Z</time></trkpt><trkpt lat="39.25984498697865" lon="9.387515379681126"><ele>583.6666666666667</ele><time>2026-04-25T14:06:01Z</time></trkpt><trkpt lat="39.25979510832498" lon="9.38758555987808"><ele>581.8333333333334</ele><time>2026-04-25T14:06:02Z</time></trkpt><trkpt lat="39.25970751042146" lon="9.387637299590168"><ele>580.0</ele><time>2026-04-25T14:06:04Z</time></trkpt><trkpt lat="39.25965297809097" lon="9.387592989838847"><ele>580.0</ele><time>2026-04-25T14:06:07Z</time></trkpt><trkpt lat="39.25973483183982" lon="9.387517027750574"><ele>580.0</ele><time>2026-04-25T14:06:09Z</time></trkpt><trkpt lat="39.259782662203826" lon="9.387448116143071"><ele>580.0</ele><time>2026-04-25T14:06:10Z</time></trkpt><trkpt lat="39.25984814297735" lon="9.387394484735298"><ele>580.0</ele><time>2026-04-25T14:06:11Z</time></trkpt><trkpt lat="39.25990543301824" lon="9.387320652722702"><ele>580.0</ele><time>2026-04-25T14:06:12Z</time></trkpt><trkpt lat="39.25995169355548" lon="9.387238220797636"><ele>580.0</ele><time>2026-04-25T14:06:13Z</time></trkpt><trkpt lat="39.25997969341169" lon="9.387146153749748"><ele>581.8333333333334</ele><time>2026-04-25T14:06:14Z</time></trkpt><trkpt lat="39.25999281198766" lon="9.387036258761839"><ele>583.6666666666667</ele><time>2026-04-25T14:06:15Z</time></trkpt><trkpt lat="39.260031026796746" lon="9.386939425632447"><ele>585.5</ele><time>2026-04-25T14:06:16Z</time></trkpt><trkpt lat="39.260042340475536" lon="9.386829746077849"><ele>587.3333333333334</ele><time>2026-04-25T14:06:17Z</time></trkpt><trkpt lat="39.26007804825008" lon="9.38673534986771"><ele>589.1666666666666</ele><time>2026-04-25T14:06:18Z</time></trkpt><trkpt lat="39.260100615276215" lon="9.386638109844144"><ele>591.0</ele><time>2026-04-25T14:06:19Z</time></trkpt><trkpt lat="39.26010343463523" lon="9.386537890689297"><ele>591.0</ele><time>2026-04-25T14:06:20Z</time></trkpt><trkpt lat="39.260085788653726" lon="9.386438218643962"><ele>591.0</ele><time>2026-04-25T14:06:21Z</time></trkpt><trkpt lat="39.2600554769136" lon="9.386341202589625"><ele>591.0</ele><time>2026-04-25T14:06:22Z</time></trkpt><trkpt lat="39.26002791096547" lon="9.38625132238753"><ele>591.0</ele><time>2026-04-25T14:06:23Z</time></trkpt><trkpt lat="39.260001616897036" lon="9.38616166650593"><ele>591.0</ele><time>2026-04-25T14:06:24Z</time></trkpt><trkpt lat="39.25997783439564" lon="9.386074378364812"><ele>591.0</ele><time>2026-04-25T14:06:25Z</time></trkpt><trkpt lat="39.25996369661047" lon="9.385990076076062"><ele>591.0</ele><time>2026-04-25T14:06:26Z</time></trkpt><trkpt lat="39.25996652944031" lon="9.38590215457486"><ele>591.3333333333334</ele><time>2026-04-25T14:06:27Z</time></trkpt><trkpt lat="39.25998660744854" lon="9.385813620247914"><ele>591.6666666666666</ele><time>2026-04-25T14:06:28Z</time></trkpt><trkpt lat="39.26001720489315" lon="9.38572524414785"><ele>592.0</ele><time>2026-04-25T14:06:29Z</time></trkpt><trkpt lat="39.2600570522438" lon="9.385638357780108"><ele>592.3333333333333</ele><time>2026-04-25T14:06:30Z</time></trkpt><trkpt lat="39.26010148120842" lon="9.385545276076577"><ele>592.6666666666666</ele><time>2026-04-25T14:06:31Z</time></trkpt><trkpt lat="39.26014579136036" lon="9.385448497570673"><ele>593.0</ele><time>2026-04-25T14:06:32Z</time></trkpt><trkpt lat="39.26018463180969" lon="9.385360631384195"><ele>593.0</ele><time>2026-04-25T14:06:33Z</time></trkpt><trkpt lat="39.26022120015252" lon="9.385280811656575"><ele>593.0</ele><time>2026-04-25T14:06:34Z</time></trkpt><trkpt lat="39.260252339917116" lon="9.385204271058317"><ele>593.0</ele><time>2026-04-25T14:06:35Z</time></trkpt><trkpt lat="39.260244219175554" lon="9.385051567603641"><ele>593.0</ele><time>2026-04-25T14:06:37Z</time></trkpt><trkpt lat="39.26018397770408" lon="9.385006477902314"><ele>593.0</ele><time>2026-04-25T14:06:38Z</time></trkpt><trkpt lat="39.26010200543019" lon="9.384989937140805"><ele>593.0</ele><time>2026-04-25T14:06:39Z</time></trkpt><trkpt lat="39.26002611598185" lon="9.384976828035747"><ele>593.0</ele><time>2026-04-25T14:06:40Z</time></trkpt><trkpt lat="39.2599381831789" lon="9.38496058481559"><ele>593.0</ele><time>2026-04-25T14:06:41Z</time></trkpt><trkpt lat="39.25984315861389" lon="9.384954574486935"><ele>593.0</ele><time>2026-04-25T14:06:42Z</time></trkpt><trkpt lat="39.25975542152136" lon="9.384950123261765"><ele>593.0</ele><time>2026-04-25T14:06:43Z</time></trkpt><trkpt lat="39.259663667382014" lon="9.384946916088875"><ele>593.0</ele><time>2026-04-25T14:06:44Z</time></trkpt><trkpt lat="39.25956883425778" lon="9.384947933243717"><ele>596.6666666666666</ele><time>2026-04-25T14:06:45Z</time></trkpt><trkpt lat="39.259473101840236" lon="9.38495223157492"><ele>600.3333333333333</ele><time>2026-04-25T14:06:46Z</time></trkpt><trkpt lat="39.25937852822811" lon="9.384959529669729"><ele>604.0</ele><time>2026-04-25T14:06:47Z</time></trkpt><trkpt lat="39.25930125034317" lon="9.38495796862819"><ele>607.6666666666666</ele><time>2026-04-25T14:06:48Z</time></trkpt><trkpt lat="39.25922861921611" lon="9.3849432272423"><ele>611.3333333333334</ele><time>2026-04-25T14:06:49Z</time></trkpt><trkpt lat="39.25916419110651" lon="9.384901146690218"><ele>615.0</ele><time>2026-04-25T14:06:50Z</time></trkpt><trkpt lat="39.259100283324905" lon="9.384834337875192"><ele>615.0</ele><time>2026-04-25T14:06:51Z</time></trkpt><trkpt lat="39.25902907298787" lon="9.384747694182941"><ele>615.0</ele><time>2026-04-25T14:06:52Z</time></trkpt><trkpt lat="39.25895986470762" lon="9.384652396985492"><ele>615.0</ele><time>2026-04-25T14:06:53Z</time></trkpt><trkpt lat="39.25888697695318" lon="9.384556144763257"><ele>615.0</ele><time>2026-04-25T14:06:54Z</time></trkpt><trkpt lat="39.25880596572812" lon="9.384460743665787"><ele>615.0</ele><time>2026-04-25T14:06:55Z</time></trkpt><trkpt lat="39.258721420414076" lon="9.384366122890171"><ele>618.0</ele><time>2026-04-25T14:06:56Z</time></trkpt><trkpt lat="39.258638536851684" lon="9.384274401364575"><ele>621.0</ele><time>2026-04-25T14:06:57Z</time></trkpt><trkpt lat="39.258556492675254" lon="9.38417374523382"><ele>624.0</ele><time>2026-04-25T14:06:58Z</time></trkpt><trkpt lat="39.25847667223809" lon="9.384069482481577"><ele>627.0</ele><time>2026-04-25T14:06:59Z</time></trkpt><trkpt lat="39.25839350293302" lon="9.383971024013585"><ele>630.0</ele><time>2026-04-25T14:07:00Z</time></trkpt><trkpt lat="39.258303918107565" lon="9.383887603025741"><ele>629.2</ele><time>2026-04-25T14:07:01Z</time></trkpt><trkpt lat="39.25819500246187" lon="9.383827573262147"><ele>628.4</ele><time>2026-04-25T14:07:02Z</time></trkpt><trkpt lat="39.258096065312536" lon="9.383771203449104"><ele>627.6</ele><time>2026-04-25T14:07:03Z</time></trkpt><trkpt lat="39.258007278754896" lon="9.38370123588606"><ele>626.8</ele><time>2026-04-25T14:07:04Z</time></trkpt><trkpt lat="39.2579306798015" lon="9.383627455147899"><ele>626.0</ele><time>2026-04-25T14:07:05Z</time></trkpt><trkpt lat="39.2578625198022" lon="9.38357177305919"><ele>631.0</ele><time>2026-04-25T14:07:06Z</time></trkpt><trkpt lat="39.25781558893104" lon="9.383428990033217"><ele>636.0</ele><time>2026-04-25T14:07:08Z</time></trkpt><trkpt lat="39.25782006440064" lon="9.383346159491582"><ele>641.0</ele><time>2026-04-25T14:07:09Z</time></trkpt><trkpt lat="39.2578462006973" lon="9.383209320809605"><ele>646.0</ele><time>2026-04-25T14:07:11Z</time></trkpt><trkpt lat="39.257890298521666" lon="9.383109480482453"><ele>651.0</ele><time>2026-04-25T14:07:13Z</time></trkpt><trkpt lat="39.25782821659343" lon="9.383009061689261"><ele>651.0</ele><time>2026-04-25T14:07:16Z</time></trkpt><trkpt lat="39.25775973997473" lon="9.383070860685148"><ele>651.0</ele><time>2026-04-25T14:07:17Z</time></trkpt><trkpt lat="39.25771652683306" lon="9.383164703237847"><ele>651.0</ele><time>2026-04-25T14:07:18Z</time></trkpt><trkpt lat="39.25768396480386" lon="9.383266578342115"><ele>651.0</ele><time>2026-04-25T14:07:19Z</time></trkpt><trkpt lat="39.2576396676057" lon="9.383362748462343"><ele>651.0</ele><time>2026-04-25T14:07:20Z</time></trkpt><trkpt lat="39.257593172123165" lon="9.383468043359994"><ele>651.0</ele><time>2026-04-25T14:07:21Z</time></trkpt><trkpt lat="39.25756415469701" lon="9.383584517282197"><ele>651.0</ele><time>2026-04-25T14:07:22Z</time></trkpt><trkpt lat="39.25755496299837" lon="9.383703977989267"><ele>651.0</ele><time>2026-04-25T14:07:23Z</time></trkpt><trkpt lat="39.25756231699031" lon="9.383820830544204"><ele>651.0</ele><time>2026-04-25T14:07:24Z</time></trkpt><trkpt lat="39.25758928709402" lon="9.383924291892107"><ele>651.0</ele><time>2026-04-25T14:07:25Z</time></trkpt><trkpt lat="39.25763953212368" lon="9.38401416811043"><ele>651.0</ele><time>2026-04-25T14:07:26Z</time></trkpt><trkpt lat="39.2577088316596" lon="9.38408687037803"><ele>651.0</ele><time>2026-04-25T14:07:27Z</time></trkpt><trkpt lat="39.25778705237461" lon="9.38414722045455"><ele>651.8333333333334</ele><time>2026-04-25T14:07:28Z</time></trkpt><trkpt lat="39.25786528257102" lon="9.384203222005885"><ele>652.6666666666666</ele><time>2026-04-25T14:07:29Z</time></trkpt><trkpt lat="39.257941579276945" lon="9.38426220995811"><ele>653.5</ele><time>2026-04-25T14:07:30Z</time></trkpt><trkpt lat="39.258016106016186" lon="9.384317874524758"><ele>654.3333333333333</ele><time>2026-04-25T14:07:31Z</time></trkpt><trkpt lat="39.25808319096866" lon="9.38437473992226"><ele>655.1666666666666</ele><time>2026-04-25T14:07:32Z</time></trkpt><trkpt lat="39.25813909097206" lon="9.384449491946542"><ele>656.0</ele><time>2026-04-25T14:07:33Z</time></trkpt><trkpt lat="39.25818623127953" lon="9.384540275208352"><ele>655.4</ele><time>2026-04-25T14:07:34Z</time></trkpt><trkpt lat="39.25822787721901" lon="9.3846424877476"><ele>654.8</ele><time>2026-04-25T14:07:35Z</time></trkpt><trkpt lat="39.25827221199949" lon="9.384746916743385"><ele>654.1999999999999</ele><time>2026-04-25T14:07:36Z</time></trkpt><trkpt lat="39.258318547222494" lon="9.384851883391272"><ele>653.5999999999999</ele><time>2026-04-25T14:07:37Z</time></trkpt><trkpt lat="39.25835009516779" lon="9.384970258751917"><ele>653.0</ele><time>2026-04-25T14:07:38Z</time></trkpt><trkpt lat="39.25839345892954" lon="9.385083371500421"><ele>653.0</ele><time>2026-04-25T14:07:39Z</time></trkpt><trkpt lat="39.25843680617031" lon="9.385196143014065"><ele>653.0</ele><time>2026-04-25T14:07:40Z</time></trkpt><trkpt lat="39.258483553283796" lon="9.385282167247475"><ele>653.0</ele><time>2026-04-25T14:07:41Z</time></trkpt><trkpt lat="39.25850254007363" lon="9.385399416960206"><ele>653.0</ele><time>2026-04-25T14:07:42Z</time></trkpt><trkpt lat="39.25854216491549" lon="9.385505392871146"><ele>653.0</ele><time>2026-04-25T14:07:43Z</time></trkpt><trkpt lat="39.258595387664" lon="9.385604981929617"><ele>656.0</ele><time>2026-04-25T14:07:44Z</time></trkpt><trkpt lat="39.25863125527235" lon="9.385712993662594"><ele>659.0</ele><time>2026-04-25T14:07:45Z</time></trkpt><trkpt lat="39.2586666420708" lon="9.385810299807874"><ele>662.0</ele><time>2026-04-25T14:07:46Z</time></trkpt><trkpt lat="39.25869527792037" lon="9.385905009322778"><ele>665.0</ele><time>2026-04-25T14:07:47Z</time></trkpt><trkpt lat="39.25871741342156" lon="9.385990712918876"><ele>668.0</ele><time>2026-04-25T14:07:48Z</time></trkpt><trkpt lat="39.258715938120524" lon="9.386085764166895"><ele>671.0</ele><time>2026-04-25T14:07:50Z</time></trkpt><trkpt lat="39.25865183042732" lon="9.386038372563753"><ele>671.0</ele><time>2026-04-25T14:07:54Z</time></trkpt><trkpt lat="39.258606485695076" lon="9.385870273520379"><ele>671.0</ele><time>2026-04-25T14:07:56Z</time></trkpt><trkpt lat="39.25855899880722" lon="9.385766605934153"><ele>671.0</ele><time>2026-04-25T14:07:57Z</time></trkpt><trkpt lat="39.25849913562832" lon="9.38566506669195"><ele>671.0</ele><time>2026-04-25T14:07:58Z</time></trkpt><trkpt lat="39.25842988097405" lon="9.3855593277696"><ele>671.0</ele><time>2026-04-25T14:07:59Z</time></trkpt><trkpt lat="39.25835617983583" lon="9.385447594447767"><ele>674.25</ele><time>2026-04-25T14:08:00Z</time></trkpt><trkpt lat="39.25827634960281" lon="9.385333653258925"><ele>677.5</ele><time>2026-04-25T14:08:01Z</time></trkpt><trkpt lat="39.25819745948068" lon="9.38522199772732"><ele>680.75</ele><time>2026-04-25T14:08:02Z</time></trkpt><trkpt lat="39.25811622391941" lon="9.385107022682993"><ele>684.0</ele><time>2026-04-25T14:08:03Z</time></trkpt><trkpt lat="39.25803293239798" lon="9.384989558565291"><ele>684.0</ele><time>2026-04-25T14:08:04Z</time></trkpt><trkpt lat="39.25794140356203" lon="9.384891470371036"><ele>684.0</ele><time>2026-04-25T14:08:05Z</time></trkpt><trkpt lat="39.25785060028687" lon="9.384818198881087"><ele>684.0</ele><time>2026-04-25T14:08:06Z</time></trkpt><trkpt lat="39.257739301338404" lon="9.384786540536329"><ele>684.0</ele><time>2026-04-25T14:08:07Z</time></trkpt><trkpt lat="39.25762691034525" lon="9.384771302158063"><ele>684.0</ele><time>2026-04-25T14:08:08Z</time></trkpt><trkpt lat="39.257514548700584" lon="9.384760984380897"><ele>684.0</ele><time>2026-04-25T14:08:09Z</time></trkpt><trkpt lat="39.257405320545956" lon="9.384743968116846"><ele>684.0</ele><time>2026-04-25T14:08:10Z</time></trkpt><trkpt lat="39.257303547761914" lon="9.384726469362453"><ele>684.0</ele><time>2026-04-25T14:08:11Z</time></trkpt><trkpt lat="39.257204507270295" lon="9.384707214708582"><ele>684.0</ele><time>2026-04-25T14:08:12Z</time></trkpt><trkpt lat="39.25711100779315" lon="9.384675518192408"><ele>685.8333333333334</ele><time>2026-04-25T14:08:13Z</time></trkpt><trkpt lat="39.257034834725104" lon="9.3846331069544"><ele>687.6666666666666</ele><time>2026-04-25T14:08:14Z</time></trkpt><trkpt lat="39.25697493315028" lon="9.384592976914409"><ele>689.5</ele><time>2026-04-25T14:08:15Z</time></trkpt><trkpt lat="39.2568893378237" lon="9.384519203686429"><ele>691.3333333333333</ele><time>2026-04-25T14:08:17Z</time></trkpt><trkpt lat="39.256821051867384" lon="9.38450650847261"><ele>693.1666666666666</ele><time>2026-04-25T14:08:19Z</time></trkpt><trkpt lat="39.25680719920339" lon="9.384635052203484"><ele>695.0</ele><time>2026-04-25T14:08:21Z</time></trkpt><trkpt lat="39.256858864575705" lon="9.384716042781994"><ele>698.0</ele><time>2026-04-25T14:08:22Z</time></trkpt><trkpt lat="39.256932604024996" lon="9.384763033569207"><ele>701.0</ele><time>2026-04-25T14:08:23Z</time></trkpt><trkpt lat="39.25699518791007" lon="9.384825329669871"><ele>704.0</ele><time>2026-04-25T14:08:24Z</time></trkpt><trkpt lat="39.257064984087776" lon="9.384895927701825"><ele>707.0</ele><time>2026-04-25T14:08:25Z</time></trkpt><trkpt lat="39.25714907254559" lon="9.384968721968612"><ele>710.0</ele><time>2026-04-25T14:08:26Z</time></trkpt><trkpt lat="39.25724244248297" lon="9.385034962814851"><ele>704.8</ele><time>2026-04-25T14:08:27Z</time></trkpt><trkpt lat="39.2573420270344" lon="9.385097914111224"><ele>699.6</ele><time>2026-04-25T14:08:28Z</time></trkpt><trkpt lat="39.25744437144412" lon="9.3851620811165"><ele>694.4000000000001</ele><time>2026-04-25T14:08:29Z</time></trkpt><trkpt lat="39.25753699839441" lon="9.385235228803685"><ele>689.2</ele><time>2026-04-25T14:08:30Z</time></trkpt><trkpt lat="39.25761040383044" lon="9.38533185270881"><ele>684.0</ele><time>2026-04-25T14:08:31Z</time></trkpt><trkpt lat="39.25766182135707" lon="9.385449644889034"><ele>687.6</ele><time>2026-04-25T14:08:32Z</time></trkpt><trkpt lat="39.25769441276636" lon="9.38556973718272"><ele>691.2</ele><time>2026-04-25T14:08:33Z</time></trkpt><trkpt lat="39.25770012282115" lon="9.385684581446368"><ele>694.8000000000001</ele><time>2026-04-25T14:08:34Z</time></trkpt><trkpt lat="39.25767609460677" lon="9.385788054605712"><ele>698.4000000000001</ele><time>2026-04-25T14:08:35Z</time></trkpt><trkpt lat="39.25762849103393" lon="9.385882151294021"><ele>702.0</ele><time>2026-04-25T14:08:36Z</time></trkpt><trkpt lat="39.257550850016834" lon="9.385954326325095"><ele>702.0</ele><time>2026-04-25T14:08:37Z</time></trkpt><trkpt lat="39.2574963765066" lon="9.386032514937552"><ele>702.0</ele><time>2026-04-25T14:08:38Z</time></trkpt><trkpt lat="39.25744399573117" lon="9.38613152825039"><ele>702.0</ele><time>2026-04-25T14:08:39Z</time></trkpt><trkpt lat="39.25739710892049" lon="9.386225732188983"><ele>702.0</ele><time>2026-04-25T14:08:40Z</time></trkpt><trkpt lat="39.257354452841284" lon="9.386325013261407"><ele>702.0</ele><time>2026-04-25T14:08:41Z</time></trkpt><trkpt lat="39.25732430708871" lon="9.386426380263432"><ele>702.0</ele><time>2026-04-25T14:08:42Z</time></trkpt><trkpt lat="39.257270233999556" lon="9.386494852704566"><ele>706.0000000000001</ele><time>2026-04-25T14:08:43Z</time></trkpt><trkpt lat="39.25724358087978" lon="9.38657761822033"><ele>710.0</ele><time>2026-04-25T14:08:44Z</time></trkpt><trkpt lat="39.257181143930346" lon="9.38661722705915"><ele>714.0</ele><time>2026-04-25T14:08:45Z</time></trkpt><trkpt lat="39.25712551458883" lon="9.38666701361794"><ele>718.0</ele><time>2026-04-25T14:08:46Z</time></trkpt><trkpt lat="39.25706465677305" lon="9.386712269568381"><ele>722.0</ele><time>2026-04-25T14:08:47Z</time></trkpt><trkpt lat="39.25700540572064" lon="9.386770162192054"><ele>726.0000000000001</ele><time>2026-04-25T14:08:48Z</time></trkpt><trkpt lat="39.25695310547691" lon="9.386840377690337"><ele>730.0</ele><time>2026-04-25T14:08:49Z</time></trkpt><trkpt lat="39.256911206569555" lon="9.386926595794368"><ele>730.0</ele><time>2026-04-25T14:08:50Z</time></trkpt><trkpt lat="39.25687510930979" lon="9.38701967583744"><ele>730.0</ele><time>2026-04-25T14:08:51Z</time></trkpt><trkpt lat="39.25687345930543" lon="9.387132774939277"><ele>730.0</ele><time>2026-04-25T14:08:52Z</time></trkpt><trkpt lat="39.25687362063686" lon="9.387227330389662"><ele>730.0</ele><time>2026-04-25T14:08:53Z</time></trkpt><trkpt lat="39.256877679184534" lon="9.387323169799526"><ele>730.0</ele><time>2026-04-25T14:08:54Z</time></trkpt><trkpt lat="39.25688426760865" lon="9.387419098263063"><ele>730.0</ele><time>2026-04-25T14:08:55Z</time></trkpt><trkpt lat="39.256902305253845" lon="9.387515854633035"><ele>729.1428571428572</ele><time>2026-04-25T14:08:56Z</time></trkpt><trkpt lat="39.25692810719669" lon="9.387613295114782"><ele>728.2857142857143</ele><time>2026-04-25T14:08:57Z</time></trkpt><trkpt lat="39.256959503858596" lon="9.387706350429395"><ele>727.4285714285714</ele><time>2026-04-25T14:08:58Z</time></trkpt><trkpt lat="39.25698618824459" lon="9.387798034058871"><ele>726.5714285714287</ele><time>2026-04-25T14:08:59Z</time></trkpt><trkpt lat="39.25699220046494" lon="9.387880604143769"><ele>725.7142857142857</ele><time>2026-04-25T14:09:00Z</time></trkpt><trkpt lat="39.25695930057886" lon="9.387958921519884"><ele>724.8571428571429</ele><time>2026-04-25T14:09:01Z</time></trkpt><trkpt lat="39.25693232996624" lon="9.388047725954287"><ele>724.0</ele><time>2026-04-25T14:09:02Z</time></trkpt><trkpt lat="39.2568954817267" lon="9.388141742912453"><ele>723.6666666666667</ele><time>2026-04-25T14:09:03Z</time></trkpt><trkpt lat="39.25685928804518" lon="9.388232704618158"><ele>723.3333333333334</ele><time>2026-04-25T14:09:04Z</time></trkpt><trkpt lat="39.25684255371983" lon="9.38833890094942"><ele>723.0</ele><time>2026-04-25T14:09:05Z</time></trkpt><trkpt lat="39.256827568985415" lon="9.388427090851428"><ele>722.6666666666666</ele><time>2026-04-25T14:09:06Z</time></trkpt><trkpt lat="39.25685125150288" lon="9.38857241156109"><ele>722.3333333333333</ele><time>2026-04-25T14:09:08Z</time></trkpt><trkpt lat="39.25683349982595" lon="9.388665806485271"><ele>722.0</ele><time>2026-04-25T14:09:10Z</time></trkpt><trkpt lat="39.256770696049124" lon="9.388655766182012"><ele>722.0</ele><time>2026-04-25T14:09:13Z</time></trkpt><trkpt lat="39.25674604539534" lon="9.38856174745189"><ele>722.0</ele><time>2026-04-25T14:09:15Z</time></trkpt><trkpt lat="39.25672240628696" lon="9.388473833064914"><ele>722.0</ele><time>2026-04-25T14:09:16Z</time></trkpt><trkpt lat="39.25669450776458" lon="9.388331847504107"><ele>722.0</ele><time>2026-04-25T14:09:18Z</time></trkpt><trkpt lat="39.256628821455934" lon="9.388335787412538"><ele>722.0</ele><time>2026-04-25T14:09:20Z</time></trkpt><trkpt lat="39.25659862319311" lon="9.388470006866656"><ele>722.0</ele><time>2026-04-25T14:09:22Z</time></trkpt><trkpt lat="39.25658666599808" lon="9.388563459039226"><ele>722.0</ele><time>2026-04-25T14:09:23Z</time></trkpt><trkpt lat="39.25659191513718" lon="9.388665181689857"><ele>722.0</ele><time>2026-04-25T14:09:24Z</time></trkpt><trkpt lat="39.256570238252124" lon="9.38875711542902"><ele>722.0</ele><time>2026-04-25T14:09:25Z</time></trkpt><trkpt lat="39.25652509117908" lon="9.38883646495199"><ele>722.0</ele><time>2026-04-25T14:09:26Z</time></trkpt><trkpt lat="39.25649978233544" lon="9.388917320394022"><ele>722.0</ele><time>2026-04-25T14:09:27Z</time></trkpt><trkpt lat="39.25643480712285" lon="9.388968102037008"><ele>722.0</ele><time>2026-04-25T14:09:28Z</time></trkpt><trkpt lat="39.256375399355946" lon="9.389029060017835"><ele>722.0</ele><time>2026-04-25T14:09:29Z</time></trkpt><trkpt lat="39.25630894539487" lon="9.389087998161676"><ele>723.3333333333333</ele><time>2026-04-25T14:09:30Z</time></trkpt><trkpt lat="39.25623998606235" lon="9.38914511247962"><ele>724.6666666666666</ele><time>2026-04-25T14:09:31Z</time></trkpt><trkpt lat="39.25616727623795" lon="9.389201769581764"><ele>726.0</ele><time>2026-04-25T14:09:32Z</time></trkpt><trkpt lat="39.256091056006184" lon="9.389247731261849"><ele>727.3333333333334</ele><time>2026-04-25T14:09:33Z</time></trkpt><trkpt lat="39.256009941025205" lon="9.389286201977766"><ele>728.6666666666667</ele><time>2026-04-25T14:09:34Z</time></trkpt><trkpt lat="39.25592616788464" lon="9.38932303175479"><ele>730.0</ele><time>2026-04-25T14:09:35Z</time></trkpt><trkpt lat="39.2558444201397" lon="9.389354902328744"><ele>730.0</ele><time>2026-04-25T14:09:36Z</time></trkpt><trkpt lat="39.25576914071725" lon="9.389381136750954"><ele>730.0</ele><time>2026-04-25T14:09:37Z</time></trkpt><trkpt lat="39.25570159630527" lon="9.389425357518252"><ele>730.0</ele><time>2026-04-25T14:09:38Z</time></trkpt><trkpt lat="39.25563301273354" lon="9.389459860883179"><ele>730.0</ele><time>2026-04-25T14:09:39Z</time></trkpt><trkpt lat="39.25555938264824" lon="9.38948527334122"><ele>730.0</ele><time>2026-04-25T14:09:40Z</time></trkpt><trkpt lat="39.25551083348693" lon="9.389572883751534"><ele>730.0</ele><time>2026-04-25T14:09:41Z</time></trkpt><trkpt lat="39.25546117919871" lon="9.389652349508712"><ele>729.1666666666667</ele><time>2026-04-25T14:09:42Z</time></trkpt><trkpt lat="39.25540465173885" lon="9.389734514251547"><ele>728.3333333333334</ele><time>2026-04-25T14:09:43Z</time></trkpt><trkpt lat="39.255364900623945" lon="9.389828370562167"><ele>727.5</ele><time>2026-04-25T14:09:44Z</time></trkpt><trkpt lat="39.25532564709371" lon="9.389923214319747"><ele>726.6666666666666</ele><time>2026-04-25T14:09:45Z</time></trkpt><trkpt lat="39.25529859232491" lon="9.390033220408798"><ele>725.8333333333333</ele><time>2026-04-25T14:09:46Z</time></trkpt><trkpt lat="39.25524053818481" lon="9.390121985598773"><ele>725.0</ele><time>2026-04-25T14:09:47Z</time></trkpt><trkpt lat="39.25519758627896" lon="9.390219764113164"><ele>725.0</ele><time>2026-04-25T14:09:48Z</time></trkpt><trkpt lat="39.25515480329649" lon="9.39031600376065"><ele>725.0</ele><time>2026-04-25T14:09:49Z</time></trkpt><trkpt lat="39.25511248555957" lon="9.390409982883755"><ele>725.0</ele><time>2026-04-25T14:09:50Z</time></trkpt><trkpt lat="39.25506678440062" lon="9.390500191094725"><ele>725.0</ele><time>2026-04-25T14:09:51Z</time></trkpt><trkpt lat="39.25501142534503" lon="9.390587254330415"><ele>725.0</ele><time>2026-04-25T14:09:52Z</time></trkpt><trkpt lat="39.254951817187944" lon="9.390677493230136"><ele>725.0</ele><time>2026-04-25T14:09:53Z</time></trkpt><trkpt lat="39.25489682966126" lon="9.390776891775253"><ele>724.8</ele><time>2026-04-25T14:09:54Z</time></trkpt><trkpt lat="39.25484612833437" lon="9.39089097747589"><ele>724.6</ele><time>2026-04-25T14:09:55Z</time></trkpt><trkpt lat="39.25482270442968" lon="9.391023037709516"><ele>724.4000000000001</ele><time>2026-04-25T14:09:56Z</time></trkpt><trkpt lat="39.25476942598546" lon="9.391141541213235"><ele>724.2</ele><time>2026-04-25T14:09:57Z</time></trkpt><trkpt lat="39.2547318626459" lon="9.391267901776258"><ele>724.0</ele><time>2026-04-25T14:09:58Z</time></trkpt><trkpt lat="39.254696663123795" lon="9.391390961065433"><ele>722.4000000000001</ele><time>2026-04-25T14:09:59Z</time></trkpt><trkpt lat="39.254677140762226" lon="9.391517483607522"><ele>720.8</ele><time>2026-04-25T14:10:00Z</time></trkpt><trkpt lat="39.254643367193054" lon="9.391633480087462"><ele>719.2</ele><time>2026-04-25T14:10:01Z</time></trkpt><trkpt lat="39.254600789441525" lon="9.391744624702673"><ele>717.5999999999999</ele><time>2026-04-25T14:10:02Z</time></trkpt><trkpt lat="39.254578369786344" lon="9.391861357277875"><ele>716.0</ele><time>2026-04-25T14:10:03Z</time></trkpt><trkpt lat="39.254563108344975" lon="9.391971829432721"><ele>716.0</ele><time>2026-04-25T14:10:04Z</time></trkpt><trkpt lat="39.25456099048969" lon="9.392080048242777"><ele>716.0</ele><time>2026-04-25T14:10:05Z</time></trkpt><trkpt lat="39.254536054202426" lon="9.392179966963702"><ele>716.0</ele><time>2026-04-25T14:10:06Z</time></trkpt><trkpt lat="39.254476405914666" lon="9.392248859066957"><ele>716.0</ele><time>2026-04-25T14:10:07Z</time></trkpt><trkpt lat="39.25442273928148" lon="9.392340649482392"><ele>716.0</ele><time>2026-04-25T14:10:08Z</time></trkpt><trkpt lat="39.2543607208991" lon="9.392437777670388"><ele>716.0</ele><time>2026-04-25T14:10:09Z</time></trkpt><trkpt lat="39.25429069729115" lon="9.392543483993261"><ele>716.0</ele><time>2026-04-25T14:10:10Z</time></trkpt><trkpt lat="39.254215494478714" lon="9.392657008632082"><ele>716.0</ele><time>2026-04-25T14:10:11Z</time></trkpt><trkpt lat="39.25413958827352" lon="9.392771595186366"><ele>716.0</ele><time>2026-04-25T14:10:12Z</time></trkpt><trkpt lat="39.25405959171305" lon="9.392892356392485"><ele>716.0</ele><time>2026-04-25T14:10:13Z</time></trkpt><trkpt lat="39.25397410694319" lon="9.39302140254906"><ele>715.25</ele><time>2026-04-25T14:10:14Z</time></trkpt><trkpt lat="39.253888111476655" lon="9.393155643037058"><ele>714.5</ele><time>2026-04-25T14:10:15Z</time></trkpt><trkpt lat="39.25380303351502" lon="9.393293624182633"><ele>713.75</ele><time>2026-04-25T14:10:16Z</time></trkpt><trkpt lat="39.25371911867935" lon="9.393430091841683"><ele>713.0</ele><time>2026-04-25T14:10:17Z</time></trkpt><trkpt lat="39.25363528669619" lon="9.393566424797605"><ele>713.0</ele><time>2026-04-25T14:10:18Z</time></trkpt><trkpt lat="39.25357310283355" lon="9.393726557951856"><ele>713.0</ele><time>2026-04-25T14:10:19Z</time></trkpt><trkpt lat="39.25348937886483" lon="9.393860948796853"><ele>713.0</ele><time>2026-04-25T14:10:20Z</time></trkpt><trkpt lat="39.253407154024245" lon="9.39399739928649"><ele>713.0</ele><time>2026-04-25T14:10:21Z</time></trkpt><trkpt lat="39.25331963253653" lon="9.394131468432954"><ele>712.75</ele><time>2026-04-25T14:10:22Z</time></trkpt><trkpt lat="39.253237390505774" lon="9.394274728627181"><ele>712.5</ele><time>2026-04-25T14:10:23Z</time></trkpt><trkpt lat="39.253153578162014" lon="9.394416283416772"><ele>712.25</ele><time>2026-04-25T14:10:24Z</time></trkpt><trkpt lat="39.25305853453714" lon="9.394548672620303"><ele>712.0</ele><time>2026-04-25T14:10:25Z</time></trkpt><trkpt lat="39.252966051304966" lon="9.394684681186446"><ele>712.75</ele><time>2026-04-25T14:10:26Z</time></trkpt><trkpt lat="39.25287974306741" lon="9.394823606719502"><ele>713.5</ele><time>2026-04-25T14:10:27Z</time></trkpt><trkpt lat="39.252792531377125" lon="9.394960813811428"><ele>714.25</ele><time>2026-04-25T14:10:28Z</time></trkpt><trkpt lat="39.252705857049044" lon="9.395095493628821"><ele>715.0</ele><time>2026-04-25T14:10:29Z</time></trkpt><trkpt lat="39.25261954415712" lon="9.395232649391115"><ele>715.0</ele><time>2026-04-25T14:10:30Z</time></trkpt><trkpt lat="39.25253179441039" lon="9.39536991012024"><ele>715.0</ele><time>2026-04-25T14:10:31Z</time></trkpt><trkpt lat="39.25244343965108" lon="9.395507656750079"><ele>715.0</ele><time>2026-04-25T14:10:32Z</time></trkpt><trkpt lat="39.25235749491643" lon="9.395650616968414"><ele>715.0</ele><time>2026-04-25T14:10:33Z</time></trkpt><trkpt lat="39.25227648771928" lon="9.395794471065136"><ele>714.75</ele><time>2026-04-25T14:10:34Z</time></trkpt><trkpt lat="39.252198144243444" lon="9.3959374436637"><ele>714.5</ele><time>2026-04-25T14:10:35Z</time></trkpt><trkpt lat="39.25212341175282" lon="9.396075302582851"><ele>714.25</ele><time>2026-04-25T14:10:36Z</time></trkpt><trkpt lat="39.25205848266002" lon="9.39619010099346"><ele>714.0</ele><time>2026-04-25T14:10:37Z</time></trkpt><trkpt lat="39.25200923522168" lon="9.39627954695221"><ele>714.6</ele><time>2026-04-25T14:10:38Z</time></trkpt><trkpt lat="39.251974267663165" lon="9.396376819743768"><ele>715.2</ele><time>2026-04-25T14:10:40Z</time></trkpt><trkpt lat="39.25209534712408" lon="9.39647487771245"><ele>715.8000000000001</ele><time>2026-04-25T14:10:44Z</time></trkpt><trkpt lat="39.252173208284724" lon="9.396477632678886"><ele>716.4000000000001</ele><time>2026-04-25T14:10:45Z</time></trkpt><trkpt lat="39.25226372924382" lon="9.396520162708423"><ele>717.0</ele><time>2026-04-25T14:10:46Z</time></trkpt><trkpt lat="39.25235642915475" lon="9.396565042910765"><ele>717.0</ele><time>2026-04-25T14:10:47Z</time></trkpt><trkpt lat="39.25245373553571" lon="9.396608772454401"><ele>717.0</ele><time>2026-04-25T14:10:48Z</time></trkpt><trkpt lat="39.25256729461608" lon="9.396643288151344"><ele>717.0</ele><time>2026-04-25T14:10:49Z</time></trkpt><trkpt lat="39.252679329450366" lon="9.396663670250724"><ele>717.0</ele><time>2026-04-25T14:10:50Z</time></trkpt><trkpt lat="39.25278053007167" lon="9.396636478631805"><ele>717.0</ele><time>2026-04-25T14:10:51Z</time></trkpt><trkpt lat="39.25287158972363" lon="9.39655019019276"><ele>717.0</ele><time>2026-04-25T14:10:52Z</time></trkpt><trkpt lat="39.252956427022" lon="9.396448619416491"><ele>717.0</ele><time>2026-04-25T14:10:53Z</time></trkpt><trkpt lat="39.25305216183543" lon="9.396347441857287"><ele>717.0</ele><time>2026-04-25T14:10:54Z</time></trkpt><trkpt lat="39.253158557053375" lon="9.396260745743062"><ele>717.0</ele><time>2026-04-25T14:10:55Z</time></trkpt><trkpt lat="39.25326760332169" lon="9.396208399918226"><ele>719.25</ele><time>2026-04-25T14:10:56Z</time></trkpt><trkpt lat="39.25338419401004" lon="9.39620508448189"><ele>721.5</ele><time>2026-04-25T14:10:57Z</time></trkpt><trkpt lat="39.253508757629085" lon="9.396234729450955"><ele>723.75</ele><time>2026-04-25T14:10:58Z</time></trkpt><trkpt lat="39.25362806065495" lon="9.396306802584762"><ele>726.0</ele><time>2026-04-25T14:10:59Z</time></trkpt><trkpt lat="39.253743379892455" lon="9.396394645635755"><ele>726.25</ele><time>2026-04-25T14:11:00Z</time></trkpt><trkpt lat="39.253844762410914" lon="9.396499731366823"><ele>726.5</ele><time>2026-04-25T14:11:01Z</time></trkpt><trkpt lat="39.25392876616286" lon="9.396595584163968"><ele>726.75</ele><time>2026-04-25T14:11:02Z</time></trkpt><trkpt lat="39.25397790739944" lon="9.396717545588391"><ele>727.0</ele><time>2026-04-25T14:11:03Z</time></trkpt><trkpt lat="39.25395464019525" lon="9.396861202637002"><ele>727.0</ele><time>2026-04-25T14:11:04Z</time></trkpt><trkpt lat="39.25393071366392" lon="9.397005103727235"><ele>727.0</ele><time>2026-04-25T14:11:05Z</time></trkpt><trkpt lat="39.25392014990662" lon="9.397167353921171"><ele>727.0</ele><time>2026-04-25T14:11:06Z</time></trkpt><trkpt lat="39.25389355043647" lon="9.397327848471539"><ele>727.0</ele><time>2026-04-25T14:11:07Z</time></trkpt><trkpt lat="39.25388409667532" lon="9.39748402392386"><ele>726.8</ele><time>2026-04-25T14:11:08Z</time></trkpt><trkpt lat="39.253901545578145" lon="9.397616661497452"><ele>726.6</ele><time>2026-04-25T14:11:09Z</time></trkpt><trkpt lat="39.25395822370283" lon="9.397716195743383"><ele>726.4</ele><time>2026-04-25T14:11:10Z</time></trkpt><trkpt lat="39.2540416628245" lon="9.39779253317854"><ele>726.1999999999999</ele><time>2026-04-25T14:11:11Z</time></trkpt><trkpt lat="39.25414724049879" lon="9.397835966005008"><ele>726.0</ele><time>2026-04-25T14:11:12Z</time></trkpt><trkpt lat="39.25424338867163" lon="9.397886117516936"><ele>728.5999999999999</ele><time>2026-04-25T14:11:13Z</time></trkpt><trkpt lat="39.254331285315665" lon="9.39794908317619"><ele>731.2</ele><time>2026-04-25T14:11:14Z</time></trkpt><trkpt lat="39.25439761370302" lon="9.39803799709613"><ele>733.8</ele><time>2026-04-25T14:11:15Z</time></trkpt><trkpt lat="39.25440575425938" lon="9.398171439343722"><ele>736.4000000000001</ele><time>2026-04-25T14:11:16Z</time></trkpt><trkpt lat="39.25441244750879" lon="9.398318755337892"><ele>739.0</ele><time>2026-04-25T14:11:17Z</time></trkpt><trkpt lat="39.25440963902659" lon="9.398474827153718"><ele>739.0</ele><time>2026-04-25T14:11:18Z</time></trkpt><trkpt lat="39.2544072269397" lon="9.398639147642845"><ele>739.0</ele><time>2026-04-25T14:11:19Z</time></trkpt><trkpt lat="39.25441347976799" lon="9.398797845664266"><ele>739.0</ele><time>2026-04-25T14:11:20Z</time></trkpt><trkpt lat="39.254411307256305" lon="9.398945652890283"><ele>739.0</ele><time>2026-04-25T14:11:21Z</time></trkpt><trkpt lat="39.25441124951349" lon="9.399084428944684"><ele>739.6</ele><time>2026-04-25T14:11:22Z</time></trkpt><trkpt lat="39.25440891162319" lon="9.399212461244739"><ele>740.2</ele><time>2026-04-25T14:11:23Z</time></trkpt><trkpt lat="39.25441614328235" lon="9.399335976120078"><ele>740.8000000000001</ele><time>2026-04-25T14:11:24Z</time></trkpt><trkpt lat="39.254447277134815" lon="9.399455559489068"><ele>741.4000000000001</ele><time>2026-04-25T14:11:25Z</time></trkpt><trkpt lat="39.25450091422654" lon="9.399564450747006"><ele>742.0</ele><time>2026-04-25T14:11:26Z</time></trkpt><trkpt lat="39.25457578634066" lon="9.399648144683718"><ele>742.4000000000001</ele><time>2026-04-25T14:11:27Z</time></trkpt><trkpt lat="39.254659787610066" lon="9.399709334462445"><ele>742.8000000000001</ele><time>2026-04-25T14:11:28Z</time></trkpt><trkpt lat="39.254747251820326" lon="9.399750424723658"><ele>743.2</ele><time>2026-04-25T14:11:29Z</time></trkpt><trkpt lat="39.25484373970243" lon="9.39977073067886"><ele>743.6</ele><time>2026-04-25T14:11:30Z</time></trkpt><trkpt lat="39.254944320942954" lon="9.399768808369728"><ele>744.0</ele><time>2026-04-25T14:11:31Z</time></trkpt><trkpt lat="39.25504238218798" lon="9.399740879692022"><ele>744.6</ele><time>2026-04-25T14:11:32Z</time></trkpt><trkpt lat="39.25513714989952" lon="9.399693567908143"><ele>745.2</ele><time>2026-04-25T14:11:33Z</time></trkpt><trkpt lat="39.255230612682126" lon="9.399644558810886"><ele>745.8000000000001</ele><time>2026-04-25T14:11:34Z</time></trkpt><trkpt lat="39.25532902838708" lon="9.39960176563012"><ele>746.4000000000001</ele><time>2026-04-25T14:11:35Z</time></trkpt><trkpt lat="39.255428083518275" lon="9.399562079233933"><ele>747.0</ele><time>2026-04-25T14:11:36Z</time></trkpt><trkpt lat="39.255526775296396" lon="9.399522201018579"><ele>747.6</ele><time>2026-04-25T14:11:37Z</time></trkpt><trkpt lat="39.25562100259869" lon="9.39948485184945"><ele>748.2</ele><time>2026-04-25T14:11:38Z</time></trkpt><trkpt lat="39.255712500977204" lon="9.399449972743716"><ele>748.8</ele><time>2026-04-25T14:11:39Z</time></trkpt><trkpt lat="39.25580351901884" lon="9.399414904563526"><ele>749.4</ele><time>2026-04-25T14:11:40Z</time></trkpt><trkpt lat="39.25589003766559" lon="9.399378479618347"><ele>750.0</ele><time>2026-04-25T14:11:41Z</time></trkpt><trkpt lat="39.25597196018715" lon="9.399344615639748"><ele>750.0</ele><time>2026-04-25T14:11:42Z</time></trkpt><trkpt lat="39.25605477582346" lon="9.399318692915768"><ele>750.0</ele><time>2026-04-25T14:11:43Z</time></trkpt><trkpt lat="39.2561395892846" lon="9.399290204776293"><ele>750.0</ele><time>2026-04-25T14:11:44Z</time></trkpt><trkpt lat="39.256221012896845" lon="9.3992817788468"><ele>750.0</ele><time>2026-04-25T14:11:45Z</time></trkpt><trkpt lat="39.256304726331216" lon="9.39926145675225"><ele>750.0</ele><time>2026-04-25T14:11:46Z</time></trkpt><trkpt lat="39.25638926920567" lon="9.399248541412842"><ele>750.0</ele><time>2026-04-25T14:11:47Z</time></trkpt><trkpt lat="39.25647880318076" lon="9.39923839812392"><ele>748.2</ele><time>2026-04-25T14:11:48Z</time></trkpt><trkpt lat="39.25656721005364" lon="9.399230507912078"><ele>746.4</ele><time>2026-04-25T14:11:49Z</time></trkpt><trkpt lat="39.25665969237558" lon="9.399223690357523"><ele>744.5999999999999</ele><time>2026-04-25T14:11:50Z</time></trkpt><trkpt lat="39.25675425483463" lon="9.399227914485751"><ele>742.8</ele><time>2026-04-25T14:11:51Z</time></trkpt><trkpt lat="39.256850579854216" lon="9.399248003589287"><ele>741.0</ele><time>2026-04-25T14:11:52Z</time></trkpt><trkpt lat="39.256950344312166" lon="9.399270248329142"><ele>741.0</ele><time>2026-04-25T14:11:53Z</time></trkpt><trkpt lat="39.257053204971044" lon="9.399276077295841"><ele>741.0</ele><time>2026-04-25T14:11:54Z</time></trkpt><trkpt lat="39.25715374592734" lon="9.399255181502031"><ele>741.0</ele><time>2026-04-25T14:11:55Z</time></trkpt><trkpt lat="39.25725106702793" lon="9.39920889781511"><ele>741.0</ele><time>2026-04-25T14:11:56Z</time></trkpt><trkpt lat="39.257350603901045" lon="9.399156397742614"><ele>741.0</ele><time>2026-04-25T14:11:57Z</time></trkpt><trkpt lat="39.257455557962" lon="9.399113551873155"><ele>739.0</ele><time>2026-04-25T14:11:58Z</time></trkpt><trkpt lat="39.25756617789368" lon="9.399081682443855"><ele>737.0</ele><time>2026-04-25T14:11:59Z</time></trkpt><trkpt lat="39.257676836966816" lon="9.39905061580406"><ele>735.0</ele><time>2026-04-25T14:12:00Z</time></trkpt><trkpt lat="39.25778988475868" lon="9.399009335265667"><ele>733.0</ele><time>2026-04-25T14:12:01Z</time></trkpt><trkpt lat="39.25790270774798" lon="9.398960390346781"><ele>733.0</ele><time>2026-04-25T14:12:02Z</time></trkpt><trkpt lat="39.25801717385574" lon="9.39890744032792"><ele>733.0</ele><time>2026-04-25T14:12:03Z</time></trkpt><trkpt lat="39.25813391954867" lon="9.398851361320055"><ele>733.0</ele><time>2026-04-25T14:12:04Z</time></trkpt><trkpt lat="39.258255862884766" lon="9.398802214501528"><ele>733.0</ele><time>2026-04-25T14:12:05Z</time></trkpt><trkpt lat="39.25837950079514" lon="9.398747827414825"><ele>734.75</ele><time>2026-04-25T14:12:06Z</time></trkpt><trkpt lat="39.258504743922956" lon="9.398688837274317"><ele>736.5</ele><time>2026-04-25T14:12:07Z</time></trkpt><trkpt lat="39.258630115583145" lon="9.398629384308135"><ele>738.25</ele><time>2026-04-25T14:12:08Z</time></trkpt><trkpt lat="39.258753594309475" lon="9.398575065993231"><ele>740.0</ele><time>2026-04-25T14:12:09Z</time></trkpt><trkpt lat="39.25887239975414" lon="9.398519246348839"><ele>735.75</ele><time>2026-04-25T14:12:10Z</time></trkpt><trkpt lat="39.25898941910742" lon="9.398466199420895"><ele>731.5</ele><time>2026-04-25T14:12:11Z</time></trkpt><trkpt lat="39.25910395206156" lon="9.398410983977652"><ele>727.25</ele><time>2026-04-25T14:12:12Z</time></trkpt><trkpt lat="39.259218049036924" lon="9.398354914516355"><ele>723.0</ele><time>2026-04-25T14:12:13Z</time></trkpt><trkpt lat="39.259329422155204" lon="9.398300889607684"><ele>723.0</ele><time>2026-04-25T14:12:14Z</time></trkpt><trkpt lat="39.25943727166793" lon="9.398256142541047"><ele>723.0</ele><time>2026-04-25T14:12:15Z</time></trkpt><trkpt lat="39.25954667948837" lon="9.39822842482732"><ele>723.0</ele><time>2026-04-25T14:12:16Z</time></trkpt><trkpt lat="39.25965805813602" lon="9.398226901917743"><ele>723.0</ele><time>2026-04-25T14:12:17Z</time></trkpt><trkpt lat="39.259763315444204" lon="9.398285514403064"><ele>720.5</ele><time>2026-04-25T14:12:18Z</time></trkpt><trkpt lat="39.25987450402228" lon="9.398308930988517"><ele>718.0</ele><time>2026-04-25T14:12:19Z</time></trkpt><trkpt lat="39.259984298656654" lon="9.398353964368855"><ele>715.5</ele><time>2026-04-25T14:12:20Z</time></trkpt><trkpt lat="39.26009943187422" lon="9.398387936343532"><ele>713.0</ele><time>2026-04-25T14:12:21Z</time></trkpt><trkpt lat="39.2602193256354" lon="9.398412887610657"><ele>713.0</ele><time>2026-04-25T14:12:22Z</time></trkpt><trkpt lat="39.26034262482298" lon="9.398421066442866"><ele>713.0</ele><time>2026-04-25T14:12:23Z</time></trkpt><trkpt lat="39.26046680341995" lon="9.398432945687485"><ele>713.0</ele><time>2026-04-25T14:12:24Z</time></trkpt><trkpt lat="39.26059361753891" lon="9.398443130290731"><ele>713.0</ele><time>2026-04-25T14:12:25Z</time></trkpt><trkpt lat="39.260720087875605" lon="9.398439286368362"><ele>711.25</ele><time>2026-04-25T14:12:26Z</time></trkpt><trkpt lat="39.2608485454236" lon="9.398421085943799"><ele>709.5</ele><time>2026-04-25T14:12:27Z</time></trkpt><trkpt lat="39.26097891876964" lon="9.39839523646634"><ele>707.75</ele><time>2026-04-25T14:12:28Z</time></trkpt><trkpt lat="39.26111049547773" lon="9.398367749678041"><ele>706.0</ele><time>2026-04-25T14:12:29Z</time></trkpt><trkpt lat="39.26124338922184" lon="9.398337946087826"><ele>706.0</ele><time>2026-04-25T14:12:30Z</time></trkpt><trkpt lat="39.2613719035303" lon="9.398311804956546"><ele>706.0</ele><time>2026-04-25T14:12:31Z</time></trkpt><trkpt lat="39.261497600980405" lon="9.398294872063046"><ele>706.0</ele><time>2026-04-25T14:12:32Z</time></trkpt><trkpt lat="39.26162055672352" lon="9.398285729640158"><ele>706.0</ele><time>2026-04-25T14:12:33Z</time></trkpt><trkpt lat="39.26173389217831" lon="9.398325779373616"><ele>704.25</ele><time>2026-04-25T14:12:34Z</time></trkpt><trkpt lat="39.261855356009775" lon="9.398343721223284"><ele>702.5</ele><time>2026-04-25T14:12:35Z</time></trkpt><trkpt lat="39.261967785592994" lon="9.398380224103665"><ele>700.75</ele><time>2026-04-25T14:12:36Z</time></trkpt><trkpt lat="39.26208585747074" lon="9.398402127708103"><ele>699.0</ele><time>2026-04-25T14:12:37Z</time></trkpt><trkpt lat="39.262207451255655" lon="9.398395907758422"><ele>698.5</ele><time>2026-04-25T14:12:38Z</time></trkpt><trkpt lat="39.262320084899244" lon="9.398368308735325"><ele>698.0</ele><time>2026-04-25T14:12:39Z</time></trkpt><trkpt lat="39.26244864292843" lon="9.398356463054128"><ele>697.5</ele><time>2026-04-25T14:12:40Z</time></trkpt><trkpt lat="39.262571659778345" lon="9.398333016465301"><ele>697.0</ele><time>2026-04-25T14:12:41Z</time></trkpt><trkpt lat="39.2626917267993" lon="9.398313894544446"><ele>697.0</ele><time>2026-04-25T14:12:42Z</time></trkpt><trkpt lat="39.26280951187169" lon="9.398310504865082"><ele>697.0</ele><time>2026-04-25T14:12:43Z</time></trkpt><trkpt lat="39.26292001583119" lon="9.398325519267063"><ele>697.0</ele><time>2026-04-25T14:12:44Z</time></trkpt><trkpt lat="39.26302969784359" lon="9.398351373078416"><ele>697.0</ele><time>2026-04-25T14:12:45Z</time></trkpt><trkpt lat="39.2631458047039" lon="9.398383640810046"><ele>697.0</ele><time>2026-04-25T14:12:46Z</time></trkpt><trkpt lat="39.26326094700833" lon="9.398413521747106"><ele>697.0</ele><time>2026-04-25T14:12:47Z</time></trkpt><trkpt lat="39.26337554852387" lon="9.398425642075669"><ele>697.0</ele><time>2026-04-25T14:12:48Z</time></trkpt><trkpt lat="39.26349424390323" lon="9.398428957639991"><ele>697.0</ele><time>2026-04-25T14:12:49Z</time></trkpt><trkpt lat="39.26360724542633" lon="9.398427944707432"><ele>697.0</ele><time>2026-04-25T14:12:50Z</time></trkpt><trkpt lat="39.263719551160456" lon="9.398413574234306"><ele>697.0</ele><time>2026-04-25T14:12:51Z</time></trkpt><trkpt lat="39.26381706384138" lon="9.398412279144837"><ele>697.0</ele><time>2026-04-25T14:12:52Z</time></trkpt><trkpt lat="39.263911743852866" lon="9.398447874646672"><ele>697.0</ele><time>2026-04-25T14:12:53Z</time></trkpt><trkpt lat="39.26399473440211" lon="9.39850696438679"><ele>697.0</ele><time>2026-04-25T14:12:54Z</time></trkpt><trkpt lat="39.264066537542725" lon="9.398577871860898"><ele>697.1666666666667</ele><time>2026-04-25T14:12:55Z</time></trkpt><trkpt lat="39.26414903467452" lon="9.398627134025718"><ele>697.3333333333334</ele><time>2026-04-25T14:12:56Z</time></trkpt><trkpt lat="39.264221786399006" lon="9.398661730244728"><ele>697.5</ele><time>2026-04-25T14:12:57Z</time></trkpt><trkpt lat="39.26429905724716" lon="9.39866889613634"><ele>697.6666666666666</ele><time>2026-04-25T14:12:58Z</time></trkpt><trkpt lat="39.264389201212595" lon="9.398666751996583"><ele>697.8333333333333</ele><time>2026-04-25T14:12:59Z</time></trkpt><trkpt lat="39.26448787870089" lon="9.398661003601802"><ele>698.0</ele><time>2026-04-25T14:13:00Z</time></trkpt><trkpt lat="39.26459318650537" lon="9.398661656028526"><ele>698.0</ele><time>2026-04-25T14:13:01Z</time></trkpt><trkpt lat="39.26470180806605" lon="9.3986858864621"><ele>698.0</ele><time>2026-04-25T14:13:02Z</time></trkpt><trkpt lat="39.26480715921537" lon="9.39873294600586"><ele>698.0</ele><time>2026-04-25T14:13:03Z</time></trkpt><trkpt lat="39.26490544532022" lon="9.398788370462569"><ele>698.0</ele><time>2026-04-25T14:13:04Z</time></trkpt><trkpt lat="39.26500542873824" lon="9.398838572134785"><ele>698.0</ele><time>2026-04-25T14:13:05Z</time></trkpt><trkpt lat="39.265108568737624" lon="9.398855706690405"><ele>698.2</ele><time>2026-04-25T14:13:06Z</time></trkpt><trkpt lat="39.265214713831234" lon="9.398848876931158"><ele>698.4</ele><time>2026-04-25T14:13:07Z</time></trkpt><trkpt lat="39.26532233023957" lon="9.398819347097394"><ele>698.6</ele><time>2026-04-25T14:13:08Z</time></trkpt><trkpt lat="39.26543124432875" lon="9.398791613745248"><ele>698.8000000000001</ele><time>2026-04-25T14:13:09Z</time></trkpt><trkpt lat="39.26553962312115" lon="9.398768473443305"><ele>699.0</ele><time>2026-04-25T14:13:10Z</time></trkpt><trkpt lat="39.26564813969209" lon="9.398737892623663"><ele>697.75</ele><time>2026-04-25T14:13:11Z</time></trkpt><trkpt lat="39.265756218011006" lon="9.398701007003524"><ele>696.5</ele><time>2026-04-25T14:13:12Z</time></trkpt><trkpt lat="39.26586455530507" lon="9.398662287671213"><ele>695.25</ele><time>2026-04-25T14:13:13Z</time></trkpt><trkpt lat="39.26597454833928" lon="9.398622365934528"><ele>694.0</ele><time>2026-04-25T14:13:14Z</time></trkpt><trkpt lat="39.266085882743525" lon="9.39857800518047"><ele>694.0</ele><time>2026-04-25T14:13:15Z</time></trkpt><trkpt lat="39.26619677523853" lon="9.398527040765265"><ele>694.0</ele><time>2026-04-25T14:13:16Z</time></trkpt><trkpt lat="39.26630868051759" lon="9.398485243272889"><ele>694.0</ele><time>2026-04-25T14:13:17Z</time></trkpt><trkpt lat="39.266424691060934" lon="9.39846755524914"><ele>694.0</ele><time>2026-04-25T14:13:18Z</time></trkpt><trkpt lat="39.266531465963375" lon="9.398423227040855"><ele>692.0</ele><time>2026-04-25T14:13:19Z</time></trkpt><trkpt lat="39.266657964958355" lon="9.398500363016407"><ele>690.0</ele><time>2026-04-25T14:13:20Z</time></trkpt><trkpt lat="39.26677284101028" lon="9.398527008872627"><ele>688.0</ele><time>2026-04-25T14:13:21Z</time></trkpt><trkpt lat="39.26689282544955" lon="9.39854837416335"><ele>686.0</ele><time>2026-04-25T14:13:22Z</time></trkpt><trkpt lat="39.26701053076297" lon="9.398569907370556"><ele>686.0</ele><time>2026-04-25T14:13:23Z</time></trkpt><trkpt lat="39.267125098610194" lon="9.398577451312253"><ele>686.0</ele><time>2026-04-25T14:13:24Z</time></trkpt><trkpt lat="39.26723811951879" lon="9.3985654792616"><ele>686.0</ele><time>2026-04-25T14:13:25Z</time></trkpt><trkpt lat="39.26734970813243" lon="9.398548382524002"><ele>686.0</ele><time>2026-04-25T14:13:26Z</time></trkpt><trkpt lat="39.26746217356013" lon="9.398534876455953"><ele>686.0</ele><time>2026-04-25T14:13:27Z</time></trkpt><trkpt lat="39.26757811192101" lon="9.398529932538636"><ele>686.0</ele><time>2026-04-25T14:13:28Z</time></trkpt><trkpt lat="39.26769642224889" lon="9.398522009405644"><ele>686.0</ele><time>2026-04-25T14:13:29Z</time></trkpt><trkpt lat="39.26781823058859" lon="9.398513602624758"><ele>686.0</ele><time>2026-04-25T14:13:30Z</time></trkpt><trkpt lat="39.26794149168675" lon="9.398503060997925"><ele>686.0</ele><time>2026-04-25T14:13:31Z</time></trkpt><trkpt lat="39.2680681444673" lon="9.398492818613693"><ele>686.0</ele><time>2026-04-25T14:13:32Z</time></trkpt><trkpt lat="39.26819530167287" lon="9.398481876445498"><ele>686.0</ele><time>2026-04-25T14:13:33Z</time></trkpt><trkpt lat="39.26832587052003" lon="9.398474810269512"><ele>686.0</ele><time>2026-04-25T14:13:34Z</time></trkpt><trkpt lat="39.268454377698816" lon="9.398457328248542"><ele>684.0</ele><time>2026-04-25T14:13:35Z</time></trkpt><trkpt lat="39.26857923825106" lon="9.398425420783218"><ele>682.0</ele><time>2026-04-25T14:13:36Z</time></trkpt><trkpt lat="39.26869939958287" lon="9.398379191503238"><ele>680.0</ele><time>2026-04-25T14:13:37Z</time></trkpt><trkpt lat="39.268815355566026" lon="9.398324501163627"><ele>678.0</ele><time>2026-04-25T14:13:38Z</time></trkpt><trkpt lat="39.268929708464995" lon="9.398276567829074"><ele>675.8</ele><time>2026-04-25T14:13:39Z</time></trkpt><trkpt lat="39.26904253061156" lon="9.39824259224164"><ele>673.5999999999999</ele><time>2026-04-25T14:13:40Z</time></trkpt><trkpt lat="39.2691546372065" lon="9.398229168637405"><ele>671.4000000000001</ele><time>2026-04-25T14:13:41Z</time></trkpt><trkpt lat="39.2692632340504" lon="9.398244426651132"><ele>669.2</ele><time>2026-04-25T14:13:42Z</time></trkpt><trkpt lat="39.26936185004307" lon="9.398259630244278"><ele>667.0</ele><time>2026-04-25T14:13:43Z</time></trkpt><trkpt lat="39.269454435900876" lon="9.39824953692385"><ele>667.0</ele><time>2026-04-25T14:13:44Z</time></trkpt><trkpt lat="39.2695482431557" lon="9.398207973882558"><ele>667.0</ele><time>2026-04-25T14:13:45Z</time></trkpt><trkpt lat="39.26963640176092" lon="9.398163646680295"><ele>667.0</ele><time>2026-04-25T14:13:46Z</time></trkpt><trkpt lat="39.269727882510395" lon="9.398140875195438"><ele>667.0</ele><time>2026-04-25T14:13:47Z</time></trkpt><trkpt lat="39.26982261641154" lon="9.398146564764572"><ele>667.0</ele><time>2026-04-25T14:13:48Z</time></trkpt><trkpt lat="39.26991766381523" lon="9.398178082466048"><ele>666.0</ele><time>2026-04-25T14:13:49Z</time></trkpt><trkpt lat="39.27000889501826" lon="9.39821828400705"><ele>665.0</ele><time>2026-04-25T14:13:50Z</time></trkpt><trkpt lat="39.27010036267077" lon="9.398250548468225"><ele>664.0</ele><time>2026-04-25T14:13:51Z</time></trkpt><trkpt lat="39.27019930999248" lon="9.398261802362171"><ele>663.0</ele><time>2026-04-25T14:13:52Z</time></trkpt><trkpt lat="39.27030527121625" lon="9.398250695975637"><ele>662.0</ele><time>2026-04-25T14:13:53Z</time></trkpt><trkpt lat="39.270413604554804" lon="9.39822288561341"><ele>662.0</ele><time>2026-04-25T14:13:54Z</time></trkpt><trkpt lat="39.27051718619895" lon="9.398173470262662"><ele>662.0</ele><time>2026-04-25T14:13:55Z</time></trkpt><trkpt lat="39.27061081344022" lon="9.398099033035672"><ele>662.0</ele><time>2026-04-25T14:13:56Z</time></trkpt><trkpt lat="39.270681856278564" lon="9.398001803071846"><ele>662.0</ele><time>2026-04-25T14:13:57Z</time></trkpt><trkpt lat="39.2707308336313" lon="9.397891774684352"><ele>662.0</ele><time>2026-04-25T14:13:58Z</time></trkpt><trkpt lat="39.270772465825424" lon="9.397780542132853"><ele>661.8</ele><time>2026-04-25T14:13:59Z</time></trkpt><trkpt lat="39.27081071671378" lon="9.397668213336388"><ele>661.6</ele><time>2026-04-25T14:14:00Z</time></trkpt><trkpt lat="39.2708454174987" lon="9.397553683407857"><ele>661.4</ele><time>2026-04-25T14:14:01Z</time></trkpt><trkpt lat="39.27088001637996" lon="9.397433585500341"><ele>661.1999999999999</ele><time>2026-04-25T14:14:02Z</time></trkpt><trkpt lat="39.27090681473755" lon="9.397304689333373"><ele>661.0</ele><time>2026-04-25T14:14:03Z</time></trkpt><trkpt lat="39.27092411954486" lon="9.397170860772258"><ele>662.1999999999999</ele><time>2026-04-25T14:14:04Z</time></trkpt><trkpt lat="39.270931890610896" lon="9.397029581580039"><ele>663.4</ele><time>2026-04-25T14:14:05Z</time></trkpt><trkpt lat="39.270943447565706" lon="9.396888355987535"><ele>664.6</ele><time>2026-04-25T14:14:06Z</time></trkpt><trkpt lat="39.27096159815378" lon="9.396758626559865"><ele>665.8</ele><time>2026-04-25T14:14:07Z</time></trkpt><trkpt lat="39.270983036838835" lon="9.396639392168096"><ele>667.0</ele><time>2026-04-25T14:14:08Z</time></trkpt><trkpt lat="39.27102207792897" lon="9.396550608749983"><ele>667.0</ele><time>2026-04-25T14:14:09Z</time></trkpt><trkpt lat="39.27108843357114" lon="9.396476549559209"><ele>667.0</ele><time>2026-04-25T14:14:10Z</time></trkpt><trkpt lat="39.27117294513487" lon="9.396411438436889"><ele>667.0</ele><time>2026-04-25T14:14:11Z</time></trkpt><trkpt lat="39.27126373383883" lon="9.396371010605582"><ele>667.0</ele><time>2026-04-25T14:14:12Z</time></trkpt><trkpt lat="39.27135360790309" lon="9.396376148869471"><ele>667.0</ele><time>2026-04-25T14:14:13Z</time></trkpt><trkpt lat="39.27143906825399" lon="9.396415988265357"><ele>665.2</ele><time>2026-04-25T14:14:14Z</time></trkpt><trkpt lat="39.27151128333732" lon="9.396490523269895"><ele>663.4000000000001</ele><time>2026-04-25T14:14:15Z</time></trkpt><trkpt lat="39.27157934733798" lon="9.396585798783814"><ele>661.5999999999999</ele><time>2026-04-25T14:14:16Z</time></trkpt><trkpt lat="39.27165608006505" lon="9.396670379811134"><ele>659.8</ele><time>2026-04-25T14:14:17Z</time></trkpt><trkpt lat="39.27173658497278" lon="9.396757503497978"><ele>658.0</ele><time>2026-04-25T14:14:18Z</time></trkpt><trkpt lat="39.27181975520963" lon="9.39684787741138"><ele>658.0</ele><time>2026-04-25T14:14:19Z</time></trkpt><trkpt lat="39.271904558263905" lon="9.396939531456562"><ele>658.0</ele><time>2026-04-25T14:14:20Z</time></trkpt><trkpt lat="39.271985169385694" lon="9.397026988466122"><ele>658.0</ele><time>2026-04-25T14:14:21Z</time></trkpt><trkpt lat="39.27206201752165" lon="9.397101159615998"><ele>658.0</ele><time>2026-04-25T14:14:22Z</time></trkpt><trkpt lat="39.27213920212047" lon="9.397156613604894"><ele>658.0</ele><time>2026-04-25T14:14:23Z</time></trkpt><trkpt lat="39.27221596123984" lon="9.397188305294398"><ele>657.6666666666667</ele><time>2026-04-25T14:14:24Z</time></trkpt><trkpt lat="39.27229267598002" lon="9.397194130938486"><ele>657.3333333333334</ele><time>2026-04-25T14:14:25Z</time></trkpt><trkpt lat="39.27236571838359" lon="9.397178702098024"><ele>657.0</ele><time>2026-04-25T14:14:26Z</time></trkpt><trkpt lat="39.27244856715199" lon="9.397145471958597"><ele>656.6666666666666</ele><time>2026-04-25T14:14:27Z</time></trkpt><trkpt lat="39.27253731975258" lon="9.397105963421694"><ele>656.3333333333333</ele><time>2026-04-25T14:14:28Z</time></trkpt><trkpt lat="39.27263356284349" lon="9.397059508440023"><ele>656.0</ele><time>2026-04-25T14:14:29Z</time></trkpt><trkpt lat="39.27273419980086" lon="9.397011055794795"><ele>656.25</ele><time>2026-04-25T14:14:30Z</time></trkpt><trkpt lat="39.27284452518896" lon="9.396964856490904"><ele>656.5</ele><time>2026-04-25T14:14:31Z</time></trkpt><trkpt lat="39.27295758596677" lon="9.396911102642933"><ele>656.75</ele><time>2026-04-25T14:14:32Z</time></trkpt><trkpt lat="39.273074502274454" lon="9.396852265079263"><ele>657.0</ele><time>2026-04-25T14:14:33Z</time></trkpt><trkpt lat="39.27319073029852" lon="9.39679843327163"><ele>657.0</ele><time>2026-04-25T14:14:34Z</time></trkpt><trkpt lat="39.273306415236206" lon="9.396746914458834"><ele>657.0</ele><time>2026-04-25T14:14:35Z</time></trkpt><trkpt lat="39.27342184834949" lon="9.396697522908262"><ele>657.0</ele><time>2026-04-25T14:14:36Z</time></trkpt><trkpt lat="39.27354078990794" lon="9.396658885213387"><ele>657.0</ele><time>2026-04-25T14:14:37Z</time></trkpt><trkpt lat="39.273663823757225" lon="9.396631141163084"><ele>657.0</ele><time>2026-04-25T14:14:38Z</time></trkpt><trkpt lat="39.273788438751716" lon="9.396602228327563"><ele>657.0</ele><time>2026-04-25T14:14:39Z</time></trkpt><trkpt lat="39.273913775523354" lon="9.396570493246507"><ele>657.0</ele><time>2026-04-25T14:14:40Z</time></trkpt><trkpt lat="39.274039491460705" lon="9.396539063481148"><ele>657.0</ele><time>2026-04-25T14:14:41Z</time></trkpt><trkpt lat="39.27416353482495" lon="9.396508563547856"><ele>656.75</ele><time>2026-04-25T14:14:42Z</time></trkpt><trkpt lat="39.274283400893836" lon="9.396481519920396"><ele>656.5</ele><time>2026-04-25T14:14:43Z</time></trkpt><trkpt lat="39.274399884910416" lon="9.396459409151838"><ele>656.25</ele><time>2026-04-25T14:14:44Z</time></trkpt><trkpt lat="39.2745186709602" lon="9.396432833431087"><ele>656.0</ele><time>2026-04-25T14:14:45Z</time></trkpt><trkpt lat="39.27463343060522" lon="9.396409477659443"><ele>656.0</ele><time>2026-04-25T14:14:46Z</time></trkpt><trkpt lat="39.27473764442261" lon="9.396378094688224"><ele>656.0</ele><time>2026-04-25T14:14:47Z</time></trkpt><trkpt lat="39.27483726507876" lon="9.39632835434987"><ele>656.0</ele><time>2026-04-25T14:14:48Z</time></trkpt><trkpt lat="39.27492518371629" lon="9.396236495267868"><ele>656.0</ele><time>2026-04-25T14:14:49Z</time></trkpt><trkpt lat="39.27499839722174" lon="9.396123085617027"><ele>656.0</ele><time>2026-04-25T14:14:50Z</time></trkpt><trkpt lat="39.275065593889465" lon="9.39599157915449"><ele>656.8</ele><time>2026-04-25T14:14:51Z</time></trkpt><trkpt lat="39.27512824789296" lon="9.395868032689135"><ele>657.5999999999999</ele><time>2026-04-25T14:14:52Z</time></trkpt><trkpt lat="39.27518623060569" lon="9.395756031066252"><ele>658.4</ele><time>2026-04-25T14:14:53Z</time></trkpt><trkpt lat="39.27523392480923" lon="9.39564334580874"><ele>659.2</ele><time>2026-04-25T14:14:54Z</time></trkpt><trkpt lat="39.275269315440546" lon="9.395535572074936"><ele>660.0</ele><time>2026-04-25T14:14:55Z</time></trkpt><trkpt lat="39.27529003369519" lon="9.395435869239426"><ele>660.0</ele><time>2026-04-25T14:14:56Z</time></trkpt><trkpt lat="39.27530326175038" lon="9.395335394525276"><ele>660.0</ele><time>2026-04-25T14:14:57Z</time></trkpt><trkpt lat="39.275303886829995" lon="9.39522418228285"><ele>660.0</ele><time>2026-04-25T14:14:58Z</time></trkpt><trkpt lat="39.275289455863685" lon="9.395113598037485"><ele>660.0</ele><time>2026-04-25T14:14:59Z</time></trkpt><trkpt lat="39.27528420282038" lon="9.394986797115214"><ele>660.0</ele><time>2026-04-25T14:15:00Z</time></trkpt><trkpt lat="39.27527760026865" lon="9.39485668236531"><ele>660.0</ele><time>2026-04-25T14:15:01Z</time></trkpt><trkpt lat="39.27526428120867" lon="9.394729457444098"><ele>660.0</ele><time>2026-04-25T14:15:02Z</time></trkpt><trkpt lat="39.27525417288277" lon="9.394605929764158"><ele>660.0</ele><time>2026-04-25T14:15:03Z</time></trkpt><trkpt lat="39.275234875059276" lon="9.394485462060537"><ele>660.0</ele><time>2026-04-25T14:15:04Z</time></trkpt><trkpt lat="39.275216654861275" lon="9.394361237925702"><ele>660.0</ele><time>2026-04-25T14:15:05Z</time></trkpt><trkpt lat="39.275211188426894" lon="9.394236594598775"><ele>659.8</ele><time>2026-04-25T14:15:06Z</time></trkpt><trkpt lat="39.27522081327098" lon="9.39411323232873"><ele>659.6</ele><time>2026-04-25T14:15:07Z</time></trkpt><trkpt lat="39.27525327078633" lon="9.393989132795811"><ele>659.4000000000001</ele><time>2026-04-25T14:15:08Z</time></trkpt><trkpt lat="39.2753033887688" lon="9.393875104945387"><ele>659.2</ele><time>2026-04-25T14:15:09Z</time></trkpt><trkpt lat="39.275356513454646" lon="9.393768448220255"><ele>659.0</ele><time>2026-04-25T14:15:10Z</time></trkpt><trkpt lat="39.27541220015952" lon="9.393679579416348"><ele>659.0</ele><time>2026-04-25T14:15:11Z</time></trkpt><trkpt lat="39.275481655378194" lon="9.39361064524634"><ele>659.0</ele><time>2026-04-25T14:15:12Z</time></trkpt><trkpt lat="39.27556351844755" lon="9.393552660540788"><ele>659.0</ele><time>2026-04-25T14:15:13Z</time></trkpt><trkpt lat="39.27565801486706" lon="9.393513738803845"><ele>659.0</ele><time>2026-04-25T14:15:14Z</time></trkpt><trkpt lat="39.27576349782643" lon="9.393475701392346"><ele>659.0</ele><time>2026-04-25T14:15:15Z</time></trkpt><trkpt lat="39.275872530917326" lon="9.393427366581072"><ele>656.5</ele><time>2026-04-25T14:15:16Z</time></trkpt><trkpt lat="39.27598470050597" lon="9.39337630190407"><ele>654.0</ele><time>2026-04-25T14:15:17Z</time></trkpt><trkpt lat="39.276101650308135" lon="9.393324923687558"><ele>651.5</ele><time>2026-04-25T14:15:18Z</time></trkpt><trkpt lat="39.27622181708223" lon="9.393274288280987"><ele>649.0</ele><time>2026-04-25T14:15:19Z</time></trkpt><trkpt lat="39.27634499811999" lon="9.393217965995659"><ele>647.5</ele><time>2026-04-25T14:15:20Z</time></trkpt><trkpt lat="39.27647138551727" lon="9.393162898917177"><ele>646.0</ele><time>2026-04-25T14:15:21Z</time></trkpt><trkpt lat="39.27659925202796" lon="9.393099756379966"><ele>644.5</ele><time>2026-04-25T14:15:22Z</time></trkpt><trkpt lat="39.2767292615234" lon="9.39303641875612"><ele>643.0</ele><time>2026-04-25T14:15:23Z</time></trkpt><trkpt lat="39.2768640604181" lon="9.392970401673969"><ele>643.75</ele><time>2026-04-25T14:15:24Z</time></trkpt><trkpt lat="39.27700085702479" lon="9.392909796756815"><ele>644.5</ele><time>2026-04-25T14:15:25Z</time></trkpt><trkpt lat="39.27713612270814" lon="9.392840981740076"><ele>645.25</ele><time>2026-04-25T14:15:26Z</time></trkpt><trkpt lat="39.27727364631516" lon="9.392772886177303"><ele>646.0</ele><time>2026-04-25T14:15:27Z</time></trkpt><trkpt lat="39.27741100206858" lon="9.392710639993684"><ele>646.0</ele><time>2026-04-25T14:15:28Z</time></trkpt><trkpt lat="39.27754717723599" lon="9.392646534575547"><ele>646.0</ele><time>2026-04-25T14:15:29Z</time></trkpt><trkpt lat="39.27768531253345" lon="9.39259341399136"><ele>646.0</ele><time>2026-04-25T14:15:30Z</time></trkpt><trkpt lat="39.27782099665715" lon="9.392542768856183"><ele>646.0</ele><time>2026-04-25T14:15:31Z</time></trkpt><trkpt lat="39.277952471703514" lon="9.392482747132153"><ele>646.0</ele><time>2026-04-25T14:15:32Z</time></trkpt><trkpt lat="39.278081619868026" lon="9.39241696818027"><ele>646.0</ele><time>2026-04-25T14:15:33Z</time></trkpt><trkpt lat="39.27820517762371" lon="9.392340180077118"><ele>646.0</ele><time>2026-04-25T14:15:34Z</time></trkpt><trkpt lat="39.27831708884189" lon="9.392245100253115"><ele>646.0</ele><time>2026-04-25T14:15:35Z</time></trkpt><trkpt lat="39.278420128437915" lon="9.39213491075634"><ele>647.25</ele><time>2026-04-25T14:15:36Z</time></trkpt><trkpt lat="39.278510172843745" lon="9.392008352416834"><ele>648.5</ele><time>2026-04-25T14:15:37Z</time></trkpt><trkpt lat="39.27860336218781" lon="9.391882941748497"><ele>649.75</ele><time>2026-04-25T14:15:38Z</time></trkpt><trkpt lat="39.27869811840459" lon="9.391757275134811"><ele>651.0</ele><time>2026-04-25T14:15:39Z</time></trkpt><trkpt lat="39.27879172501135" lon="9.391628391266252"><ele>651.0</ele><time>2026-04-25T14:15:40Z</time></trkpt><trkpt lat="39.278884853107556" lon="9.391511649915765"><ele>651.0</ele><time>2026-04-25T14:15:41Z</time></trkpt><trkpt lat="39.278975520043986" lon="9.391398180393693"><ele>651.0</ele><time>2026-04-25T14:15:42Z</time></trkpt><trkpt lat="39.27905832858111" lon="9.391285408804066"><ele>651.0</ele><time>2026-04-25T14:15:43Z</time></trkpt><trkpt lat="39.27914132570979" lon="9.391175043639175"><ele>649.1999999999999</ele><time>2026-04-25T14:15:44Z</time></trkpt><trkpt lat="39.27922192472916" lon="9.391069823404754"><ele>647.4</ele><time>2026-04-25T14:15:45Z</time></trkpt><trkpt lat="39.27930006695779" lon="9.390966206304691"><ele>645.6</ele><time>2026-04-25T14:15:46Z</time></trkpt><trkpt lat="39.279369253936615" lon="9.390856923498529"><ele>643.8</ele><time>2026-04-25T14:15:47Z</time></trkpt><trkpt lat="39.27945071775752" lon="9.390766978089623"><ele>642.0</ele><time>2026-04-25T14:15:48Z</time></trkpt><trkpt lat="39.27953443010045" lon="9.390664718877948"><ele>642.0</ele><time>2026-04-25T14:15:49Z</time></trkpt><trkpt lat="39.27961876682707" lon="9.390561246611716"><ele>642.0</ele><time>2026-04-25T14:15:50Z</time></trkpt><trkpt lat="39.27970717273313" lon="9.390454479869378"><ele>642.0</ele><time>2026-04-25T14:15:51Z</time></trkpt><trkpt lat="39.279800299444034" lon="9.390347690171856"><ele>642.0</ele><time>2026-04-25T14:15:52Z</time></trkpt><trkpt lat="39.27990161907798" lon="9.390239058907838"><ele>640.5</ele><time>2026-04-25T14:15:53Z</time></trkpt><trkpt lat="39.2800034599708" lon="9.390130484551467"><ele>639.0</ele><time>2026-04-25T14:15:54Z</time></trkpt><trkpt lat="39.28010640053723" lon="9.39002102060449"><ele>637.5</ele><time>2026-04-25T14:15:55Z</time></trkpt><trkpt lat="39.28020430060828" lon="9.389901372035487"><ele>636.0</ele><time>2026-04-25T14:15:56Z</time></trkpt><trkpt lat="39.280305055835655" lon="9.389785428755694"><ele>636.0</ele><time>2026-04-25T14:15:57Z</time></trkpt><trkpt lat="39.280412361796834" lon="9.389678044074994"><ele>636.0</ele><time>2026-04-25T14:15:58Z</time></trkpt><trkpt lat="39.28051948452362" lon="9.38956860202753"><ele>636.0</ele><time>2026-04-25T14:15:59Z</time></trkpt><trkpt lat="39.280623914236784" lon="9.389453993923611"><ele>636.0</ele><time>2026-04-25T14:16:00Z</time></trkpt><trkpt lat="39.28072743023599" lon="9.389340550131967"><ele>634.25</ele><time>2026-04-25T14:16:01Z</time></trkpt><trkpt lat="39.28083092426467" lon="9.389229886887634"><ele>632.5</ele><time>2026-04-25T14:16:02Z</time></trkpt><trkpt lat="39.28093428563578" lon="9.389108551011189"><ele>630.75</ele><time>2026-04-25T14:16:03Z</time></trkpt><trkpt lat="39.281033658963686" lon="9.388992598261588"><ele>629.0</ele><time>2026-04-25T14:16:04Z</time></trkpt><trkpt lat="39.281133448041416" lon="9.38887162756883"><ele>629.25</ele><time>2026-04-25T14:16:05Z</time></trkpt><trkpt lat="39.2812364121615" lon="9.388758421188303"><ele>629.5</ele><time>2026-04-25T14:16:06Z</time></trkpt><trkpt lat="39.28134005891063" lon="9.388648454816016"><ele>629.75</ele><time>2026-04-25T14:16:07Z</time></trkpt><trkpt lat="39.28144586506724" lon="9.388535024566668"><ele>630.0</ele><time>2026-04-25T14:16:08Z</time></trkpt><trkpt lat="39.281547167459124" lon="9.388420869360898"><ele>628.25</ele><time>2026-04-25T14:16:09Z</time></trkpt><trkpt lat="39.28164642069218" lon="9.38831254784841"><ele>626.5</ele><time>2026-04-25T14:16:10Z</time></trkpt><trkpt lat="39.281740552002645" lon="9.38821459287452"><ele>624.75</ele><time>2026-04-25T14:16:11Z</time></trkpt><trkpt lat="39.28183079740357" lon="9.388119728065838"><ele>623.0</ele><time>2026-04-25T14:16:12Z</time></trkpt><trkpt lat="39.28192292412984" lon="9.38802067663906"><ele>622.75</ele><time>2026-04-25T14:16:13Z</time></trkpt><trkpt lat="39.28202412968752" lon="9.38793138996886"><ele>622.5</ele><time>2026-04-25T14:16:14Z</time></trkpt><trkpt lat="39.2821355723056" lon="9.38785176919386"><ele>622.25</ele><time>2026-04-25T14:16:15Z</time></trkpt><trkpt lat="39.28225669491211" lon="9.387785093514214"><ele>622.0</ele><time>2026-04-25T14:16:16Z</time></trkpt><trkpt lat="39.282380127933784" lon="9.387722710438352"><ele>622.0</ele><time>2026-04-25T14:16:17Z</time></trkpt><trkpt lat="39.28250352020063" lon="9.387657773660079"><ele>622.0</ele><time>2026-04-25T14:16:18Z</time></trkpt><trkpt lat="39.28262901095038" lon="9.387589972288646"><ele>622.0</ele><time>2026-04-25T14:16:19Z</time></trkpt><trkpt lat="39.28274884059275" lon="9.387521052333762"><ele>622.0</ele><time>2026-04-25T14:16:20Z</time></trkpt><trkpt lat="39.28287069979335" lon="9.3874496240911"><ele>622.0</ele><time>2026-04-25T14:16:21Z</time></trkpt><trkpt lat="39.282991263748634" lon="9.387380771850962"><ele>622.0</ele><time>2026-04-25T14:16:22Z</time></trkpt><trkpt lat="39.28311457196238" lon="9.387311881389467"><ele>622.0</ele><time>2026-04-25T14:16:23Z</time></trkpt><trkpt lat="39.2832352405827" lon="9.387240271566055"><ele>622.0</ele><time>2026-04-25T14:16:24Z</time></trkpt><trkpt lat="39.28335109056394" lon="9.387169359828512"><ele>622.6</ele><time>2026-04-25T14:16:25Z</time></trkpt><trkpt lat="39.283464865211904" lon="9.387112259837512"><ele>623.2</ele><time>2026-04-25T14:16:26Z</time></trkpt><trkpt lat="39.2835644668321" lon="9.387071298461299"><ele>623.8</ele><time>2026-04-25T14:16:27Z</time></trkpt><trkpt lat="39.28365858433997" lon="9.387051358515714"><ele>624.4</ele><time>2026-04-25T14:16:28Z</time></trkpt><trkpt lat="39.283751535938194" lon="9.387062713187992"><ele>625.0</ele><time>2026-04-25T14:16:29Z</time></trkpt><trkpt lat="39.283847389070935" lon="9.387087207555478"><ele>624.6</ele><time>2026-04-25T14:16:30Z</time></trkpt><trkpt lat="39.283944665227146" lon="9.387150318330827"><ele>624.2</ele><time>2026-04-25T14:16:31Z</time></trkpt><trkpt lat="39.28403952952135" lon="9.387226497531863"><ele>623.8</ele><time>2026-04-25T14:16:32Z</time></trkpt><trkpt lat="39.28413076935857" lon="9.387318649123324"><ele>623.4</ele><time>2026-04-25T14:16:33Z</time></trkpt><trkpt lat="39.28422062426711" lon="9.387401408768623"><ele>623.0</ele><time>2026-04-25T14:16:34Z</time></trkpt><trkpt lat="39.284333889242184" lon="9.387425490808942"><ele>623.25</ele><time>2026-04-25T14:16:35Z</time></trkpt><trkpt lat="39.28445896510867" lon="9.387408318614714"><ele>623.5</ele><time>2026-04-25T14:16:36Z</time></trkpt><trkpt lat="39.28458309016532" lon="9.387373077416163"><ele>623.75</ele><time>2026-04-25T14:16:37Z</time></trkpt><trkpt lat="39.284710799620576" lon="9.387353950543053"><ele>624.0</ele><time>2026-04-25T14:16:38Z</time></trkpt><trkpt lat="39.28483344955153" lon="9.387375816928392"><ele>624.0</ele><time>2026-04-25T14:16:39Z</time></trkpt><trkpt lat="39.28496010755966" lon="9.387411760204412"><ele>624.0</ele><time>2026-04-25T14:16:40Z</time></trkpt><trkpt lat="39.285086331027806" lon="9.387435390004756"><ele>624.0</ele><time>2026-04-25T14:16:41Z</time></trkpt><trkpt lat="39.28521473186584" lon="9.387448027199941"><ele>624.0</ele><time>2026-04-25T14:16:42Z</time></trkpt><trkpt lat="39.285342330615144" lon="9.387445889274701"><ele>624.0</ele><time>2026-04-25T14:16:43Z</time></trkpt><trkpt lat="39.28546642870742" lon="9.387416576956593"><ele>624.0</ele><time>2026-04-25T14:16:44Z</time></trkpt><trkpt lat="39.28558186856743" lon="9.387376131646317"><ele>624.0</ele><time>2026-04-25T14:16:45Z</time></trkpt><trkpt lat="39.28569523070813" lon="9.387323838849676"><ele>624.0</ele><time>2026-04-25T14:16:46Z</time></trkpt><trkpt lat="39.28580338829779" lon="9.387256952621101"><ele>624.75</ele><time>2026-04-25T14:16:47Z</time></trkpt><trkpt lat="39.28590626962884" lon="9.387178350111515"><ele>625.5</ele><time>2026-04-25T14:16:48Z</time></trkpt><trkpt lat="39.28600709727801" lon="9.387097492721306"><ele>626.25</ele><time>2026-04-25T14:16:49Z</time></trkpt><trkpt lat="39.28609835455748" lon="9.387003270375347"><ele>627.0</ele><time>2026-04-25T14:16:50Z</time></trkpt><trkpt lat="39.28616452900455" lon="9.38687588897995"><ele>628.2</ele><time>2026-04-25T14:16:51Z</time></trkpt><trkpt lat="39.286203819155745" lon="9.38673702383214"><ele>629.4000000000001</ele><time>2026-04-25T14:16:52Z</time></trkpt><trkpt lat="39.28621031370579" lon="9.386594354856449"><ele>630.5999999999999</ele><time>2026-04-25T14:16:53Z</time></trkpt><trkpt lat="39.286208257506125" lon="9.38645255436535"><ele>631.8</ele><time>2026-04-25T14:16:54Z</time></trkpt><trkpt lat="39.28620872565598" lon="9.386315970175925"><ele>633.0</ele><time>2026-04-25T14:16:55Z</time></trkpt><trkpt lat="39.286207685983854" lon="9.386180897820656"><ele>634.0</ele><time>2026-04-25T14:16:56Z</time></trkpt><trkpt lat="39.28620605942435" lon="9.38604976904203"><ele>635.0</ele><time>2026-04-25T14:16:57Z</time></trkpt><trkpt lat="39.2862075930811" lon="9.385927139048388"><ele>636.0</ele><time>2026-04-25T14:16:58Z</time></trkpt><trkpt lat="39.286237929574106" lon="9.385815123649296"><ele>637.0</ele><time>2026-04-25T14:16:59Z</time></trkpt><trkpt lat="39.2862634333172" lon="9.385712258376692"><ele>638.0</ele><time>2026-04-25T14:17:00Z</time></trkpt><trkpt lat="39.286307737766904" lon="9.38562109774094"><ele>638.0</ele><time>2026-04-25T14:17:01Z</time></trkpt><trkpt lat="39.28639680747125" lon="9.385551797395511"><ele>638.0</ele><time>2026-04-25T14:17:02Z</time></trkpt><trkpt lat="39.28650272567302" lon="9.385533017058275"><ele>638.0</ele><time>2026-04-25T14:17:03Z</time></trkpt><trkpt lat="39.286609849892" lon="9.385488429042889"><ele>638.0</ele><time>2026-04-25T14:17:04Z</time></trkpt><trkpt lat="39.286713697929265" lon="9.385448434669822"><ele>638.0</ele><time>2026-04-25T14:17:05Z</time></trkpt><trkpt lat="39.28682243084308" lon="9.385412953017031"><ele>637.0</ele><time>2026-04-25T14:17:06Z</time></trkpt><trkpt lat="39.28693944895111" lon="9.385388768617368"><ele>636.0</ele><time>2026-04-25T14:17:07Z</time></trkpt><trkpt lat="39.287059216612874" lon="9.385356311859605"><ele>635.0</ele><time>2026-04-25T14:17:08Z</time></trkpt><trkpt lat="39.287177633490394" lon="9.385302610794962"><ele>634.0</ele><time>2026-04-25T14:17:09Z</time></trkpt><trkpt lat="39.287292458265604" lon="9.385233418569209"><ele>630.75</ele><time>2026-04-25T14:17:10Z</time></trkpt><trkpt lat="39.28739595082857" lon="9.385140889991101"><ele>627.5</ele><time>2026-04-25T14:17:11Z</time></trkpt><trkpt lat="39.28748333325558" lon="9.385027844690269"><ele>624.25</ele><time>2026-04-25T14:17:12Z</time></trkpt><trkpt lat="39.287548488851854" lon="9.384905719801623"><ele>621.0</ele><time>2026-04-25T14:17:13Z</time></trkpt><trkpt lat="39.287609902105885" lon="9.384802182073917"><ele>621.0</ele><time>2026-04-25T14:17:14Z</time></trkpt><trkpt lat="39.28767820392638" lon="9.38474980174119"><ele>621.0</ele><time>2026-04-25T14:17:15Z</time></trkpt><trkpt lat="39.28776943703523" lon="9.384732852855459"><ele>621.0</ele><time>2026-04-25T14:17:16Z</time></trkpt><trkpt lat="39.28786004985543" lon="9.38481891486065"><ele>621.0</ele><time>2026-04-25T14:17:17Z</time></trkpt><trkpt lat="39.28795972765907" lon="9.384885428534531"><ele>621.0</ele><time>2026-04-25T14:17:18Z</time></trkpt><trkpt lat="39.28805423451147" lon="9.384983332842731"><ele>620.75</ele><time>2026-04-25T14:17:19Z</time></trkpt><trkpt lat="39.288150175695556" lon="9.385081933661084"><ele>620.5</ele><time>2026-04-25T14:17:20Z</time></trkpt><trkpt lat="39.288247382007626" lon="9.385179557361386"><ele>620.25</ele><time>2026-04-25T14:17:21Z</time></trkpt><trkpt lat="39.28834582249872" lon="9.385274585160484"><ele>620.0</ele><time>2026-04-25T14:17:22Z</time></trkpt><trkpt lat="39.28844579444125" lon="9.385367527854967"><ele>620.0</ele><time>2026-04-25T14:17:23Z</time></trkpt><trkpt lat="39.288531261770544" lon="9.385480963439772"><ele>620.0</ele><time>2026-04-25T14:17:24Z</time></trkpt><trkpt lat="39.28863514531345" lon="9.38556675221976"><ele>620.0</ele><time>2026-04-25T14:17:25Z</time></trkpt><trkpt lat="39.28872658570372" lon="9.385668324564048"><ele>620.0</ele><time>2026-04-25T14:17:26Z</time></trkpt><trkpt lat="39.28882344248642" lon="9.385762583749223"><ele>619.5</ele><time>2026-04-25T14:17:27Z</time></trkpt><trkpt lat="39.28892139560874" lon="9.385854091345644"><ele>619.0</ele><time>2026-04-25T14:17:28Z</time></trkpt><trkpt lat="39.28901725355279" lon="9.385945433793237"><ele>618.5</ele><time>2026-04-25T14:17:29Z</time></trkpt><trkpt lat="39.28910929757712" lon="9.38603514389197"><ele>618.0</ele><time>2026-04-25T14:17:30Z</time></trkpt><trkpt lat="39.289191316672685" lon="9.386129910859486"><ele>618.0</ele><time>2026-04-25T14:17:31Z</time></trkpt><trkpt lat="39.289258295369024" lon="9.386240582420823"><ele>618.0</ele><time>2026-04-25T14:17:32Z</time></trkpt><trkpt lat="39.28930125164468" lon="9.386374049675268"><ele>618.0</ele><time>2026-04-25T14:17:33Z</time></trkpt><trkpt lat="39.28929641487605" lon="9.386522143717867"><ele>618.0</ele><time>2026-04-25T14:17:34Z</time></trkpt><trkpt lat="39.28932823926382" lon="9.386658775000988"><ele>618.0</ele><time>2026-04-25T14:17:35Z</time></trkpt><trkpt lat="39.28934744359731" lon="9.386795500780826"><ele>616.5</ele><time>2026-04-25T14:17:36Z</time></trkpt><trkpt lat="39.28939581019185" lon="9.38691894794186"><ele>615.0</ele><time>2026-04-25T14:17:37Z</time></trkpt><trkpt lat="39.289475416748324" lon="9.387018754223337"><ele>613.5</ele><time>2026-04-25T14:17:38Z</time></trkpt><trkpt lat="39.28957690054454" lon="9.387099775200959"><ele>612.0</ele><time>2026-04-25T14:17:39Z</time></trkpt><trkpt lat="39.289671082521586" lon="9.3871859029664"><ele>610.75</ele><time>2026-04-25T14:17:40Z</time></trkpt><trkpt lat="39.28974383926315" lon="9.387300160153524"><ele>609.5</ele><time>2026-04-25T14:17:41Z</time></trkpt><trkpt lat="39.289796095082416" lon="9.387424038413311"><ele>608.25</ele><time>2026-04-25T14:17:42Z</time></trkpt><trkpt lat="39.28984807753995" lon="9.38755978908489"><ele>607.0</ele><time>2026-04-25T14:17:43Z</time></trkpt><trkpt lat="39.28990192766766" lon="9.387689688330228"><ele>607.8000000000001</ele><time>2026-04-25T14:17:44Z</time></trkpt><trkpt lat="39.28996642622601" lon="9.38780660082386"><ele>608.6</ele><time>2026-04-25T14:17:45Z</time></trkpt><trkpt lat="39.29003790239192" lon="9.3879103573113"><ele>609.4000000000001</ele><time>2026-04-25T14:17:46Z</time></trkpt><trkpt lat="39.290104672730706" lon="9.38800280309589"><ele>610.2</ele><time>2026-04-25T14:17:47Z</time></trkpt><trkpt lat="39.29017759824453" lon="9.388074157527472"><ele>611.0</ele><time>2026-04-25T14:17:48Z</time></trkpt><trkpt lat="39.29025290574044" lon="9.388115191003894"><ele>611.0</ele><time>2026-04-25T14:17:49Z</time></trkpt><trkpt lat="39.2903365829537" lon="9.388127941870014"><ele>611.0</ele><time>2026-04-25T14:17:50Z</time></trkpt><trkpt lat="39.290424678025474" lon="9.38814153480595"><ele>611.0</ele><time>2026-04-25T14:17:51Z</time></trkpt><trkpt lat="39.29051961480201" lon="9.388153818217518"><ele>611.0</ele><time>2026-04-25T14:17:52Z</time></trkpt><trkpt lat="39.290620309802755" lon="9.388152153575996"><ele>611.0</ele><time>2026-04-25T14:17:53Z</time></trkpt><trkpt lat="39.290722597751326" lon="9.38810673702665"><ele>612.5</ele><time>2026-04-25T14:17:54Z</time></trkpt><trkpt lat="39.29081455096227" lon="9.38800766250592"><ele>614.0</ele><time>2026-04-25T14:17:55Z</time></trkpt><trkpt lat="39.290898146256545" lon="9.387893528887984"><ele>615.5</ele><time>2026-04-25T14:17:56Z</time></trkpt><trkpt lat="39.29098585833796" lon="9.387783512414524"><ele>617.0</ele><time>2026-04-25T14:17:57Z</time></trkpt><trkpt lat="39.29108294442665" lon="9.387687061953626"><ele>617.0</ele><time>2026-04-25T14:17:58Z</time></trkpt><trkpt lat="39.29118641538129" lon="9.387594622218566"><ele>617.0</ele><time>2026-04-25T14:17:59Z</time></trkpt><trkpt lat="39.29129812968092" lon="9.387511823711913"><ele>617.0</ele><time>2026-04-25T14:18:00Z</time></trkpt><trkpt lat="39.29141561969508" lon="9.387436991493475"><ele>617.0</ele><time>2026-04-25T14:18:01Z</time></trkpt><trkpt lat="39.291533270631085" lon="9.38736121378408"><ele>617.5</ele><time>2026-04-25T14:18:02Z</time></trkpt><trkpt lat="39.29164778061372" lon="9.387284808931343"><ele>618.0</ele><time>2026-04-25T14:18:03Z</time></trkpt><trkpt lat="39.291762709475144" lon="9.387207880566711"><ele>618.5</ele><time>2026-04-25T14:18:04Z</time></trkpt><trkpt lat="39.29187234432456" lon="9.387135454326414"><ele>619.0</ele><time>2026-04-25T14:18:05Z</time></trkpt><trkpt lat="39.291973959999126" lon="9.387076873083553"><ele>619.0</ele><time>2026-04-25T14:18:06Z</time></trkpt><trkpt lat="39.292067311830955" lon="9.38703947471586"><ele>619.0</ele><time>2026-04-25T14:18:07Z</time></trkpt><trkpt lat="39.29215492109909" lon="9.38703414923182"><ele>619.0</ele><time>2026-04-25T14:18:08Z</time></trkpt><trkpt lat="39.29222892831048" lon="9.387060181595247"><ele>619.0</ele><time>2026-04-25T14:18:09Z</time></trkpt><trkpt lat="39.29228630065185" lon="9.387119706094456"><ele>619.0</ele><time>2026-04-25T14:18:10Z</time></trkpt><trkpt lat="39.29230985749809" lon="9.387204294365752"><ele>619.0</ele><time>2026-04-25T14:18:11Z</time></trkpt><trkpt lat="39.2922955477378" lon="9.38730065941881"><ele>615.8</ele><time>2026-04-25T14:18:12Z</time></trkpt><trkpt lat="39.292232099237836" lon="9.387371260693266"><ele>612.5999999999999</ele><time>2026-04-25T14:18:13Z</time></trkpt><trkpt lat="39.29216447866882" lon="9.387415788927717"><ele>609.4</ele><time>2026-04-25T14:18:14Z</time></trkpt><trkpt lat="39.292077674113266" lon="9.387447608125568"><ele>606.1999999999999</ele><time>2026-04-25T14:18:15Z</time></trkpt><trkpt lat="39.29198521934108" lon="9.387477451094734"><ele>603.0</ele><time>2026-04-25T14:18:16Z</time></trkpt><trkpt lat="39.29188443712878" lon="9.387518794518519"><ele>603.0</ele><time>2026-04-25T14:18:17Z</time></trkpt><trkpt lat="39.291803360255024" lon="9.387606782234904"><ele>603.0</ele><time>2026-04-25T14:18:18Z</time></trkpt><trkpt lat="39.29175255289622" lon="9.387723801301409"><ele>603.0</ele><time>2026-04-25T14:18:19Z</time></trkpt><trkpt lat="39.29170750284153" lon="9.387838795091108"><ele>603.0</ele><time>2026-04-25T14:18:20Z</time></trkpt><trkpt lat="39.29167637986262" lon="9.387961886213395"><ele>603.0</ele><time>2026-04-25T14:18:21Z</time></trkpt><trkpt lat="39.291662647348964" lon="9.388085565018157"><ele>601.6</ele><time>2026-04-25T14:18:22Z</time></trkpt><trkpt lat="39.291672219419944" lon="9.388214478153076"><ele>600.1999999999999</ele><time>2026-04-25T14:18:23Z</time></trkpt><trkpt lat="39.29170379951458" lon="9.388338281491642"><ele>598.8</ele><time>2026-04-25T14:18:24Z</time></trkpt><trkpt lat="39.291736886613656" lon="9.388464584409562"><ele>597.4</ele><time>2026-04-25T14:18:25Z</time></trkpt><trkpt lat="39.29177257972786" lon="9.38859037219753"><ele>596.0</ele><time>2026-04-25T14:18:26Z</time></trkpt><trkpt lat="39.29181436331182" lon="9.388711381730799"><ele>596.0</ele><time>2026-04-25T14:18:27Z</time></trkpt><trkpt lat="39.29186669842179" lon="9.388833323481789"><ele>596.0</ele><time>2026-04-25T14:18:28Z</time></trkpt><trkpt lat="39.291921756384234" lon="9.388956878292165"><ele>596.0</ele><time>2026-04-25T14:18:29Z</time></trkpt><trkpt lat="39.29198056488086" lon="9.389079652797335"><ele>596.0</ele><time>2026-04-25T14:18:30Z</time></trkpt><trkpt lat="39.29204206153639" lon="9.389201988463562"><ele>596.0</ele><time>2026-04-25T14:18:31Z</time></trkpt><trkpt lat="39.29209906883184" lon="9.389329403769564"><ele>596.75</ele><time>2026-04-25T14:18:32Z</time></trkpt><trkpt lat="39.29212718342154" lon="9.389469412324015"><ele>597.5</ele><time>2026-04-25T14:18:33Z</time></trkpt><trkpt lat="39.29209098008274" lon="9.389617082536475"><ele>598.25</ele><time>2026-04-25T14:18:34Z</time></trkpt><trkpt lat="39.29209293553314" lon="9.389773202290634"><ele>599.0</ele><time>2026-04-25T14:18:35Z</time></trkpt><trkpt lat="39.29208759629642" lon="9.38992555283527"><ele>600.75</ele><time>2026-04-25T14:18:36Z</time></trkpt><trkpt lat="39.292112298541724" lon="9.390075056504774"><ele>602.5</ele><time>2026-04-25T14:18:37Z</time></trkpt><trkpt lat="39.29216493502073" lon="9.390212316572784"><ele>604.25</ele><time>2026-04-25T14:18:38Z</time></trkpt><trkpt lat="39.292238698539144" lon="9.390328221523946"><ele>606.0</ele><time>2026-04-25T14:18:39Z</time></trkpt><trkpt lat="39.29232883960927" lon="9.390416598167857"><ele>601.25</ele><time>2026-04-25T14:18:40Z</time></trkpt><trkpt lat="39.292431001261725" lon="9.390487133906511"><ele>596.5</ele><time>2026-04-25T14:18:41Z</time></trkpt><trkpt lat="39.29253630906309" lon="9.390535759883191"><ele>591.75</ele><time>2026-04-25T14:18:42Z</time></trkpt><trkpt lat="39.29263877806891" lon="9.390589653212718"><ele>587.0</ele><time>2026-04-25T14:18:43Z</time></trkpt><trkpt lat="39.292742354467414" lon="9.390645743632422"><ele>587.0</ele><time>2026-04-25T14:18:44Z</time></trkpt><trkpt lat="39.29284625606217" lon="9.390705813324512"><ele>587.0</ele><time>2026-04-25T14:18:45Z</time></trkpt><trkpt lat="39.29295543679464" lon="9.390755212967935"><ele>587.0</ele><time>2026-04-25T14:18:46Z</time></trkpt><trkpt lat="39.2930721146339" lon="9.390789138712861"><ele>587.0</ele><time>2026-04-25T14:18:47Z</time></trkpt><trkpt lat="39.29318783660969" lon="9.390821986588518"><ele>580.5</ele><time>2026-04-25T14:18:48Z</time></trkpt><trkpt lat="39.29330456999834" lon="9.390876507206757"><ele>574.0</ele><time>2026-04-25T14:18:49Z</time></trkpt><trkpt lat="39.29341807083805" lon="9.390953129179492"><ele>567.5</ele><time>2026-04-25T14:18:50Z</time></trkpt><trkpt lat="39.29352469775445" lon="9.391049598427463"><ele>561.0</ele><time>2026-04-25T14:18:51Z</time></trkpt><trkpt lat="39.29363345290461" lon="9.391133046857625"><ele>561.0</ele><time>2026-04-25T14:18:52Z</time></trkpt><trkpt lat="39.29376204834056" lon="9.391196075565322"><ele>561.0</ele><time>2026-04-25T14:18:53Z</time></trkpt><trkpt lat="39.29389161373227" lon="9.391263338359256"><ele>561.0</ele><time>2026-04-25T14:18:54Z</time></trkpt><trkpt lat="39.29402558406626" lon="9.391310143029798"><ele>561.0</ele><time>2026-04-25T14:18:55Z</time></trkpt><trkpt lat="39.294165431755346" lon="9.391329870409479"><ele>560.5</ele><time>2026-04-25T14:18:56Z</time></trkpt><trkpt lat="39.29430246137246" lon="9.391347420127103"><ele>560.0</ele><time>2026-04-25T14:18:57Z</time></trkpt><trkpt lat="39.29443567559094" lon="9.391393318003173"><ele>559.5</ele><time>2026-04-25T14:18:58Z</time></trkpt><trkpt lat="39.294570590100804" lon="9.391457403589012"><ele>559.0</ele><time>2026-04-25T14:18:59Z</time></trkpt><trkpt lat="39.294708121216686" lon="9.391520736348207"><ele>557.0</ele><time>2026-04-25T14:19:00Z</time></trkpt><trkpt lat="39.29484539677257" lon="9.391575915808039"><ele>555.0</ele><time>2026-04-25T14:19:01Z</time></trkpt><trkpt lat="39.294981351674544" lon="9.39162339117489"><ele>553.0</ele><time>2026-04-25T14:19:02Z</time></trkpt><trkpt lat="39.2951154166561" lon="9.391665578160971"><ele>551.0</ele><time>2026-04-25T14:19:03Z</time></trkpt><trkpt lat="39.29524762138805" lon="9.391709685623283"><ele>551.0</ele><time>2026-04-25T14:19:04Z</time></trkpt><trkpt lat="39.295378109458326" lon="9.391754726636051"><ele>551.0</ele><time>2026-04-25T14:19:05Z</time></trkpt><trkpt lat="39.29550882618784" lon="9.391785571171255"><ele>551.0</ele><time>2026-04-25T14:19:06Z</time></trkpt><trkpt lat="39.29564484841766" lon="9.391785277187429"><ele>551.0</ele><time>2026-04-25T14:19:07Z</time></trkpt><trkpt lat="39.2957783418662" lon="9.391801398345374"><ele>547.5</ele><time>2026-04-25T14:19:08Z</time></trkpt><trkpt lat="39.29590229783802" lon="9.391844037017625"><ele>544.0</ele><time>2026-04-25T14:19:09Z</time></trkpt><trkpt lat="39.29601078518203" lon="9.391934872261178"><ele>540.5</ele><time>2026-04-25T14:19:10Z</time></trkpt><trkpt lat="39.296092406232844" lon="9.392054430719698"><ele>537.0</ele><time>2026-04-25T14:19:11Z</time></trkpt><trkpt lat="39.29617535200076" lon="9.392154129389146"><ele>537.0</ele><time>2026-04-25T14:19:12Z</time></trkpt><trkpt lat="39.29625869761123" lon="9.392205122341272"><ele>537.0</ele><time>2026-04-25T14:19:13Z</time></trkpt><trkpt lat="39.296343630050785" lon="9.392191063990595"><ele>537.0</ele><time>2026-04-25T14:19:14Z</time></trkpt><trkpt lat="39.29641074717222" lon="9.392126392519396"><ele>537.0</ele><time>2026-04-25T14:19:15Z</time></trkpt><trkpt lat="39.29642988626535" lon="9.39202213521649"><ele>537.0</ele><time>2026-04-25T14:19:16Z</time></trkpt><trkpt lat="39.29639721215749" lon="9.391918050944353"><ele>537.0</ele><time>2026-04-25T14:19:17Z</time></trkpt><trkpt lat="39.29635033486717" lon="9.391819517827962"><ele>537.0</ele><time>2026-04-25T14:19:18Z</time></trkpt><trkpt lat="39.29630634807543" lon="9.39174356423604"><ele>537.0</ele><time>2026-04-25T14:19:19Z</time></trkpt><trkpt lat="39.29621059490405" lon="9.39165359258095"><ele>537.0</ele><time>2026-04-25T14:19:20Z</time></trkpt><trkpt lat="39.296112167945566" lon="9.391591417521365"><ele>537.0</ele><time>2026-04-25T14:19:21Z</time></trkpt><trkpt lat="39.29601903062365" lon="9.391558808688119"><ele>537.0</ele><time>2026-04-25T14:19:22Z</time></trkpt><trkpt lat="39.295949174579526" lon="9.391502708562282"><ele>537.0</ele><time>2026-04-25T14:19:23Z</time></trkpt><trkpt lat="39.29589859317444" lon="9.391438951464513"><ele>537.0</ele><time>2026-04-25T14:19:24Z</time></trkpt><trkpt lat="39.295872525803475" lon="9.39135962083323"><ele>537.0</ele><time>2026-04-25T14:19:25Z</time></trkpt><trkpt lat="39.29589601551639" lon="9.391217177554552"><ele>537.0</ele><time>2026-04-25T14:19:27Z</time></trkpt><trkpt lat="39.29595441968073" lon="9.39116781276"><ele>537.0</ele><time>2026-04-25T14:19:28Z</time></trkpt><trkpt lat="39.29603335100599" lon="9.391164874601229"><ele>537.0</ele><time>2026-04-25T14:19:29Z</time></trkpt><trkpt lat="39.29611646121332" lon="9.39119392919443"><ele>537.0</ele><time>2026-04-25T14:19:30Z</time></trkpt><trkpt lat="39.29620010370467" lon="9.391256457232744"><ele>537.0</ele><time>2026-04-25T14:19:31Z</time></trkpt><trkpt lat="39.296273764082144" lon="9.391351299262093"><ele>537.0</ele><time>2026-04-25T14:19:32Z</time></trkpt><trkpt lat="39.29636368075533" lon="9.391450415521437"><ele>537.0</ele><time>2026-04-25T14:19:33Z</time></trkpt><trkpt lat="39.29646208975513" lon="9.391559307326219"><ele>537.0</ele><time>2026-04-25T14:19:34Z</time></trkpt><trkpt lat="39.296563231156924" lon="9.391680268044214"><ele>535.25</ele><time>2026-04-25T14:19:35Z</time></trkpt><trkpt lat="39.29667424239187" lon="9.39179967610894"><ele>533.5</ele><time>2026-04-25T14:19:36Z</time></trkpt><trkpt lat="39.29676851838617" lon="9.391937847987712"><ele>531.75</ele><time>2026-04-25T14:19:37Z</time></trkpt><trkpt lat="39.29685931050731" lon="9.392076943900545"><ele>530.0</ele><time>2026-04-25T14:19:38Z</time></trkpt><trkpt lat="39.296945860543445" lon="9.39220964136997"><ele>530.0</ele><time>2026-04-25T14:19:39Z</time></trkpt><trkpt lat="39.29702647181887" lon="9.392312823595422"><ele>530.0</ele><time>2026-04-25T14:19:40Z</time></trkpt><trkpt lat="39.29711144264082" lon="9.392384954379505"><ele>530.0</ele><time>2026-04-25T14:19:41Z</time></trkpt><trkpt lat="39.297204004324456" lon="9.392427428587371"><ele>530.0</ele><time>2026-04-25T14:19:42Z</time></trkpt><trkpt lat="39.29729892420626" lon="9.392384472857914"><ele>530.0</ele><time>2026-04-25T14:19:43Z</time></trkpt><trkpt lat="39.297402659500044" lon="9.392353201998976"><ele>525.75</ele><time>2026-04-25T14:19:44Z</time></trkpt><trkpt lat="39.29750981960082" lon="9.39232983606918"><ele>521.5</ele><time>2026-04-25T14:19:45Z</time></trkpt><trkpt lat="39.29762256031624" lon="9.392330621986208"><ele>517.25</ele><time>2026-04-25T14:19:46Z</time></trkpt><trkpt lat="39.297722360395426" lon="9.392415130301163"><ele>513.0</ele><time>2026-04-25T14:19:47Z</time></trkpt><trkpt lat="39.297829693322285" lon="9.392476750941016"><ele>513.0</ele><time>2026-04-25T14:19:48Z</time></trkpt><trkpt lat="39.29791926766649" lon="9.392546621787028"><ele>513.0</ele><time>2026-04-25T14:19:49Z</time></trkpt><trkpt lat="39.2980252031709" lon="9.392533900227654"><ele>513.0</ele><time>2026-04-25T14:19:50Z</time></trkpt><trkpt lat="39.29813696255131" lon="9.392477177948583"><ele>513.0</ele><time>2026-04-25T14:19:51Z</time></trkpt><trkpt lat="39.29824855461694" lon="9.392400469849479"><ele>510.5</ele><time>2026-04-25T14:19:52Z</time></trkpt><trkpt lat="39.298365628181756" lon="9.392325287462242"><ele>508.0</ele><time>2026-04-25T14:19:53Z</time></trkpt><trkpt lat="39.29848564503659" lon="9.392259045934274"><ele>505.5</ele><time>2026-04-25T14:19:54Z</time></trkpt><trkpt lat="39.298611733979676" lon="9.39220505608968"><ele>503.0</ele><time>2026-04-25T14:19:55Z</time></trkpt><trkpt lat="39.298748432657874" lon="9.392169995520629"><ele>497.75</ele><time>2026-04-25T14:19:56Z</time></trkpt><trkpt lat="39.29889072106482" lon="9.392147842572857"><ele>492.5</ele><time>2026-04-25T14:19:57Z</time></trkpt><trkpt lat="39.299030540202494" lon="9.392125573260076"><ele>487.25</ele><time>2026-04-25T14:19:58Z</time></trkpt><trkpt lat="39.29917385671338" lon="9.39209955412091"><ele>482.0</ele><time>2026-04-25T14:19:59Z</time></trkpt><trkpt lat="39.299312676328384" lon="9.392076586695259"><ele>480.25</ele><time>2026-04-25T14:20:00Z</time></trkpt><trkpt lat="39.29944663660978" lon="9.392050303004305"><ele>478.5</ele><time>2026-04-25T14:20:01Z</time></trkpt><trkpt lat="39.29956834891095" lon="9.39201191423333"><ele>476.75</ele><time>2026-04-25T14:20:02Z</time></trkpt><trkpt lat="39.29968223949572" lon="9.391958106852861"><ele>475.0</ele><time>2026-04-25T14:20:03Z</time></trkpt><trkpt lat="39.299795110904206" lon="9.391928653551192"><ele>472.75</ele><time>2026-04-25T14:20:04Z</time></trkpt><trkpt lat="39.299906153214174" lon="9.391978119361067"><ele>470.5</ele><time>2026-04-25T14:20:05Z</time></trkpt><trkpt lat="39.30002247700042" lon="9.392000727281824"><ele>468.25</ele><time>2026-04-25T14:20:06Z</time></trkpt><trkpt lat="39.30012961852638" lon="9.392037788176566"><ele>466.0</ele><time>2026-04-25T14:20:07Z</time></trkpt><trkpt lat="39.300232875998674" lon="9.392071097989906"><ele>466.0</ele><time>2026-04-25T14:20:08Z</time></trkpt><trkpt lat="39.30032622005229" lon="9.392163880758693"><ele>466.0</ele><time>2026-04-25T14:20:09Z</time></trkpt><trkpt lat="39.30043152779743" lon="9.39223586023843"><ele>466.0</ele><time>2026-04-25T14:20:10Z</time></trkpt><trkpt lat="39.30051110566301" lon="9.392333085326827"><ele>466.0</ele><time>2026-04-25T14:20:11Z</time></trkpt><trkpt lat="39.300592652878116" lon="9.392386886032295"><ele>466.0</ele><time>2026-04-25T14:20:12Z</time></trkpt><trkpt lat="39.300688858616006" lon="9.392390318772177"><ele>470.75</ele><time>2026-04-25T14:20:13Z</time></trkpt><trkpt lat="39.30079754375374" lon="9.392373865648848"><ele>475.5</ele><time>2026-04-25T14:20:14Z</time></trkpt><trkpt lat="39.300908905488555" lon="9.392370573904806"><ele>480.25</ele><time>2026-04-25T14:20:15Z</time></trkpt><trkpt lat="39.30102850949347" lon="9.39237844611343"><ele>485.0</ele><time>2026-04-25T14:20:16Z</time></trkpt><trkpt lat="39.301151145334444" lon="9.39237619268602"><ele>485.0</ele><time>2026-04-25T14:20:17Z</time></trkpt><trkpt lat="39.30127368160355" lon="9.392335593416602"><ele>485.0</ele><time>2026-04-25T14:20:18Z</time></trkpt><trkpt lat="39.301392492794925" lon="9.392260695590492"><ele>485.0</ele><time>2026-04-25T14:20:19Z</time></trkpt><trkpt lat="39.301503465929144" lon="9.39219304568068"><ele>485.0</ele><time>2026-04-25T14:20:20Z</time></trkpt><trkpt lat="39.30160181675497" lon="9.39213262860786"><ele>484.0</ele><time>2026-04-25T14:20:21Z</time></trkpt><trkpt lat="39.3016912886578" lon="9.392090847700517"><ele>483.0</ele><time>2026-04-25T14:20:22Z</time></trkpt><trkpt lat="39.30178337979675" lon="9.392135533810466"><ele>482.0</ele><time>2026-04-25T14:20:23Z</time></trkpt><trkpt lat="39.30187731480204" lon="9.392194248164241"><ele>481.0</ele><time>2026-04-25T14:20:24Z</time></trkpt><trkpt lat="39.30196586322503" lon="9.392309959949772"><ele>480.0</ele><time>2026-04-25T14:20:25Z</time></trkpt><trkpt lat="39.30202889972271" lon="9.392431271355576"><ele>480.0</ele><time>2026-04-25T14:20:26Z</time></trkpt><trkpt lat="39.30207503081716" lon="9.392526846133881"><ele>480.0</ele><time>2026-04-25T14:20:27Z</time></trkpt><trkpt lat="39.30209502462848" lon="9.3926372822377"><ele>480.0</ele><time>2026-04-25T14:20:28Z</time></trkpt><trkpt lat="39.30207359526409" lon="9.39274927622638"><ele>480.0</ele><time>2026-04-25T14:20:29Z</time></trkpt><trkpt lat="39.3020581397559" lon="9.39289637708874"><ele>480.0</ele><time>2026-04-25T14:20:30Z</time></trkpt><trkpt lat="39.30208021679331" lon="9.39304735433443"><ele>483.2</ele><time>2026-04-25T14:20:31Z</time></trkpt><trkpt lat="39.3020967987143" lon="9.39319031951332"><ele>486.4</ele><time>2026-04-25T14:20:32Z</time></trkpt><trkpt lat="39.30207603773982" lon="9.393326130104727"><ele>489.6</ele><time>2026-04-25T14:20:33Z</time></trkpt><trkpt lat="39.30209410626958" lon="9.393438932951076"><ele>492.8</ele><time>2026-04-25T14:20:34Z</time></trkpt><trkpt lat="39.30212154708828" lon="9.393534966231885"><ele>496.0</ele><time>2026-04-25T14:20:35Z</time></trkpt><trkpt lat="39.302191798058125" lon="9.39361783670158"><ele>488.0</ele><time>2026-04-25T14:20:36Z</time></trkpt><trkpt lat="39.302277393554164" lon="9.393697323999978"><ele>480.0</ele><time>2026-04-25T14:20:37Z</time></trkpt><trkpt lat="39.30236861883952" lon="9.393763622579046"><ele>472.0</ele><time>2026-04-25T14:20:38Z</time></trkpt><trkpt lat="39.30247112276298" lon="9.393793352529192"><ele>464.0</ele><time>2026-04-25T14:20:39Z</time></trkpt><trkpt lat="39.30257231805455" lon="9.39379364326807"><ele>456.0</ele><time>2026-04-25T14:20:40Z</time></trkpt><trkpt lat="39.302668062160784" lon="9.393803603101986"><ele>458.8</ele><time>2026-04-25T14:20:41Z</time></trkpt><trkpt lat="39.30275438731652" lon="9.39384903931308"><ele>461.6</ele><time>2026-04-25T14:20:42Z</time></trkpt><trkpt lat="39.30280066938424" lon="9.393973814785094"><ele>464.4</ele><time>2026-04-25T14:20:43Z</time></trkpt><trkpt lat="39.302820903615334" lon="9.394110036363273"><ele>467.2</ele><time>2026-04-25T14:20:44Z</time></trkpt><trkpt lat="39.30285345657773" lon="9.394255794424188"><ele>470.0</ele><time>2026-04-25T14:20:45Z</time></trkpt><trkpt lat="39.302912547548075" lon="9.39438441392446"><ele>470.0</ele><time>2026-04-25T14:20:46Z</time></trkpt><trkpt lat="39.30298803759151" lon="9.394483492613242"><ele>470.0</ele><time>2026-04-25T14:20:47Z</time></trkpt><trkpt lat="39.30307553200044" lon="9.394584739548492"><ele>470.0</ele><time>2026-04-25T14:20:48Z</time></trkpt><trkpt lat="39.303162285675576" lon="9.394693281845672"><ele>470.0</ele><time>2026-04-25T14:20:49Z</time></trkpt><trkpt lat="39.303245597768374" lon="9.394812894765463"><ele>466.75</ele><time>2026-04-25T14:20:50Z</time></trkpt><trkpt lat="39.30332302319069" lon="9.394940905166324"><ele>463.5</ele><time>2026-04-25T14:20:51Z</time></trkpt><trkpt lat="39.30339014143588" lon="9.395073729161822"><ele>460.25</ele><time>2026-04-25T14:20:52Z</time></trkpt><trkpt lat="39.30345244206143" lon="9.39520372393107"><ele>457.0</ele><time>2026-04-25T14:20:53Z</time></trkpt><trkpt lat="39.30352350226826" lon="9.395304415953127"><ele>457.0</ele><time>2026-04-25T14:20:54Z</time></trkpt><trkpt lat="39.30361786834843" lon="9.395358871033064"><ele>457.00000000000006</ele><time>2026-04-25T14:20:55Z</time></trkpt><trkpt lat="39.303727015292274" lon="9.395360518964038"><ele>457.00000000000006</ele><time>2026-04-25T14:20:56Z</time></trkpt><trkpt lat="39.30382649313226" lon="9.39532697922928"><ele>457.0</ele><time>2026-04-25T14:20:57Z</time></trkpt><trkpt lat="39.30391540632297" lon="9.395296765539275"><ele>457.0</ele><time>2026-04-25T14:20:58Z</time></trkpt><trkpt lat="39.30400001409856" lon="9.395279201472807"><ele>455.50000000000006</ele><time>2026-04-25T14:20:59Z</time></trkpt><trkpt lat="39.304077116377606" lon="9.395257449762784"><ele>454.0</ele><time>2026-04-25T14:21:00Z</time></trkpt><trkpt lat="39.304141045573935" lon="9.395205834313867"><ele>452.5</ele><time>2026-04-25T14:21:01Z</time></trkpt><trkpt lat="39.304194142585345" lon="9.395114628978996"><ele>451.0</ele><time>2026-04-25T14:21:02Z</time></trkpt><trkpt lat="39.304238040820415" lon="9.395007897259312"><ele>449.50000000000006</ele><time>2026-04-25T14:21:03Z</time></trkpt><trkpt lat="39.304282896062695" lon="9.39490431465777"><ele>448.0</ele><time>2026-04-25T14:21:04Z</time></trkpt><trkpt lat="39.30433983652885" lon="9.394805446204883"><ele>448.0</ele><time>2026-04-25T14:21:05Z</time></trkpt><trkpt lat="39.30441473942528" lon="9.394722469931729"><ele>447.99999999999994</ele><time>2026-04-25T14:21:06Z</time></trkpt><trkpt lat="39.3045088020845" lon="9.394660749028322"><ele>447.99999999999994</ele><time>2026-04-25T14:21:07Z</time></trkpt><trkpt lat="39.304611824921764" lon="9.394602681347974"><ele>448.0</ele><time>2026-04-25T14:21:08Z</time></trkpt><trkpt lat="39.3047217526978" lon="9.394545671029139"><ele>448.0</ele><time>2026-04-25T14:21:09Z</time></trkpt><trkpt lat="39.30483387612294" lon="9.394492007207049"><ele>446.79999999999995</ele><time>2026-04-25T14:21:10Z</time></trkpt><trkpt lat="39.30494628097794" lon="9.394422950159445"><ele>445.59999999999997</ele><time>2026-04-25T14:21:11Z</time></trkpt><trkpt lat="39.30505363325025" lon="9.394347162206143"><ele>444.40000000000003</ele><time>2026-04-25T14:21:12Z</time></trkpt><trkpt lat="39.30514852428526" lon="9.39427743263763"><ele>443.20000000000005</ele><time>2026-04-25T14:21:13Z</time></trkpt><trkpt lat="39.30522505160867" lon="9.394211298050926"><ele>442.0</ele><time>2026-04-25T14:21:14Z</time></trkpt><trkpt lat="39.305281708945344" lon="9.394130062789623"><ele>442.00000000000006</ele><time>2026-04-25T14:21:15Z</time></trkpt><trkpt lat="39.30531862721212" lon="9.394033455355713"><ele>442.0</ele><time>2026-04-25T14:21:16Z</time></trkpt><trkpt lat="39.30534424508638" lon="9.393923616751627"><ele>442.0</ele><time>2026-04-25T14:21:17Z</time></trkpt><trkpt lat="39.30536195308745" lon="9.393810814152907"><ele>442.0</ele><time>2026-04-25T14:21:18Z</time></trkpt><trkpt lat="39.30538645837489" lon="9.393698521114723"><ele>442.00000000000006</ele><time>2026-04-25T14:21:19Z</time></trkpt><trkpt lat="39.30543190893099" lon="9.39358638813946"><ele>442.0</ele><time>2026-04-25T14:21:20Z</time></trkpt><trkpt lat="39.30548813292992" lon="9.393481264206782"><ele>440.8</ele><time>2026-04-25T14:21:21Z</time></trkpt><trkpt lat="39.30555579828949" lon="9.393382066181843"><ele>439.6</ele><time>2026-04-25T14:21:22Z</time></trkpt><trkpt lat="39.30561914617662" lon="9.393270740206935"><ele>438.40000000000003</ele><time>2026-04-25T14:21:23Z</time></trkpt><trkpt lat="39.30566062873098" lon="9.393148730147528"><ele>437.20000000000005</ele><time>2026-04-25T14:21:24Z</time></trkpt><trkpt lat="39.30565798723313" lon="9.393018640158731"><ele>436.0</ele><time>2026-04-25T14:21:25Z</time></trkpt><trkpt lat="39.305634309002244" lon="9.3928837976854"><ele>436.0</ele><time>2026-04-25T14:21:26Z</time></trkpt><trkpt lat="39.30560163196448" lon="9.392748727146957"><ele>436.0</ele><time>2026-04-25T14:21:27Z</time></trkpt><trkpt lat="39.305567443129156" lon="9.392611104007125"><ele>436.0</ele><time>2026-04-25T14:21:28Z</time></trkpt><trkpt lat="39.30552147455314" lon="9.392477330082901"><ele>436.0</ele><time>2026-04-25T14:21:29Z</time></trkpt><trkpt lat="39.305491818758924" lon="9.39233126466664"><ele>436.0</ele><time>2026-04-25T14:21:30Z</time></trkpt><trkpt lat="39.305476381508726" lon="9.392182107807088"><ele>436.0</ele><time>2026-04-25T14:21:31Z</time></trkpt><trkpt lat="39.30547499094727" lon="9.392029978153735"><ele>436.0</ele><time>2026-04-25T14:21:32Z</time></trkpt><trkpt lat="39.30547234947156" lon="9.391885789930273"><ele>436.0</ele><time>2026-04-25T14:21:33Z</time></trkpt><trkpt lat="39.305456723760365" lon="9.391752893671315"><ele>433.20000000000005</ele><time>2026-04-25T14:21:34Z</time></trkpt><trkpt lat="39.30544066186774" lon="9.391624221870444"><ele>430.40000000000003</ele><time>2026-04-25T14:21:35Z</time></trkpt><trkpt lat="39.30541770411968" lon="9.391504161797828"><ele>427.6</ele><time>2026-04-25T14:21:36Z</time></trkpt><trkpt lat="39.305397648867164" lon="9.391386408687424"><ele>424.8</ele><time>2026-04-25T14:21:37Z</time></trkpt><trkpt lat="39.30538013888976" lon="9.39127865762653"><ele>422.0</ele><time>2026-04-25T14:21:38Z</time></trkpt><trkpt lat="39.30537015496422" lon="9.391181064447572"><ele>421.8</ele><time>2026-04-25T14:21:39Z</time></trkpt><trkpt lat="39.305380974802986" lon="9.39109656421017"><ele>421.6</ele><time>2026-04-25T14:21:40Z</time></trkpt><trkpt lat="39.30544464300454" lon="9.390974688767301"><ele>421.40000000000003</ele><time>2026-04-25T14:21:42Z</time></trkpt><trkpt lat="39.305574441264376" lon="9.391004637812559"><ele>421.20000000000005</ele><time>2026-04-25T14:21:46Z</time></trkpt><trkpt lat="39.30561182759951" lon="9.39110123139493"><ele>421.0</ele><time>2026-04-25T14:21:47Z</time></trkpt><trkpt lat="39.305647733256116" lon="9.391223969500311"><ele>423.75</ele><time>2026-04-25T14:21:48Z</time></trkpt><trkpt lat="39.3056707346452" lon="9.391370094657864"><ele>426.5</ele><time>2026-04-25T14:21:49Z</time></trkpt><trkpt lat="39.30568249527697" lon="9.39153210127799"><ele>429.25</ele><time>2026-04-25T14:21:50Z</time></trkpt><trkpt lat="39.305690588105314" lon="9.3917009237817"><ele>432.0</ele><time>2026-04-25T14:21:51Z</time></trkpt><trkpt lat="39.30571089999958" lon="9.391883421671244"><ele>432.0</ele><time>2026-04-25T14:21:52Z</time></trkpt><trkpt lat="39.30575128013857" lon="9.392072728626728"><ele>432.0</ele><time>2026-04-25T14:21:53Z</time></trkpt><trkpt lat="39.305811728441775" lon="9.392258711418751"><ele>432.0</ele><time>2026-04-25T14:21:54Z</time></trkpt><trkpt lat="39.305882729687525" lon="9.392445053695436"><ele>432.33333333333337</ele><time>2026-04-25T14:21:55Z</time></trkpt><trkpt lat="39.30595236421939" lon="9.3926375448183"><ele>432.6666666666667</ele><time>2026-04-25T14:21:56Z</time></trkpt><trkpt lat="39.30601620569987" lon="9.392843130721408"><ele>433.0</ele><time>2026-04-25T14:21:57Z</time></trkpt><trkpt lat="39.30607436842311" lon="9.393048375805808"><ele>433.33333333333337</ele><time>2026-04-25T14:21:58Z</time></trkpt><trkpt lat="39.30612714381359" lon="9.393241682930508"><ele>433.66666666666663</ele><time>2026-04-25T14:21:59Z</time></trkpt><trkpt lat="39.30614724506796" lon="9.393450650664498"><ele>434.0</ele><time>2026-04-25T14:22:00Z</time></trkpt><trkpt lat="39.30615317281065" lon="9.393671667617703"><ele>435.0</ele><time>2026-04-25T14:22:01Z</time></trkpt><trkpt lat="39.3061739251484" lon="9.393895035045514"><ele>436.0</ele><time>2026-04-25T14:22:02Z</time></trkpt><trkpt lat="39.30621517072655" lon="9.394108729014437"><ele>437.0</ele><time>2026-04-25T14:22:03Z</time></trkpt><trkpt lat="39.30624759108566" lon="9.394316495034914"><ele>437.0</ele><time>2026-04-25T14:22:04Z</time></trkpt><trkpt lat="39.30626620622658" lon="9.394515878696078"><ele>437.0</ele><time>2026-04-25T14:22:05Z</time></trkpt><trkpt lat="39.30625403919574" lon="9.394714962870463"><ele>437.0</ele><time>2026-04-25T14:22:06Z</time></trkpt><trkpt lat="39.306196616881174" lon="9.394893861049797"><ele>436.0</ele><time>2026-04-25T14:22:07Z</time></trkpt><trkpt lat="39.3061357150805" lon="9.395049345870937"><ele>435.0</ele><time>2026-04-25T14:22:08Z</time></trkpt><trkpt lat="39.30612268346259" lon="9.39519491682938"><ele>434.0</ele><time>2026-04-25T14:22:09Z</time></trkpt><trkpt lat="39.306160350711615" lon="9.395344052717931"><ele>433.0</ele><time>2026-04-25T14:22:10Z</time></trkpt><trkpt lat="39.30624125947527" lon="9.395443484761822"><ele>433.0</ele><time>2026-04-25T14:22:11Z</time></trkpt><trkpt lat="39.306364082149436" lon="9.395494802869045"><ele>433.0</ele><time>2026-04-25T14:22:12Z</time></trkpt><trkpt lat="39.30650649845505" lon="9.395526610594787"><ele>433.0</ele><time>2026-04-25T14:22:13Z</time></trkpt><trkpt lat="39.30665207395678" lon="9.395548414236682"><ele>433.0</ele><time>2026-04-25T14:22:14Z</time></trkpt><trkpt lat="39.30680235009407" lon="9.395604371444742"><ele>427.0</ele><time>2026-04-25T14:22:15Z</time></trkpt><trkpt lat="39.306963236862906" lon="9.395648188665339"><ele>421.0</ele><time>2026-04-25T14:22:16Z</time></trkpt><trkpt lat="39.30713099330608" lon="9.395697804639692"><ele>415.0</ele><time>2026-04-25T14:22:17Z</time></trkpt><trkpt lat="39.30730611628663" lon="9.395744477359248"><ele>411.33333333333337</ele><time>2026-04-25T14:22:18Z</time></trkpt><trkpt lat="39.30747749072126" lon="9.395797605870179"><ele>407.66666666666663</ele><time>2026-04-25T14:22:19Z</time></trkpt><trkpt lat="39.30764443064806" lon="9.395865851649596"><ele>404.0</ele><time>2026-04-25T14:22:20Z</time></trkpt><trkpt lat="39.307805940547105" lon="9.395948894486489"><ele>404.0</ele><time>2026-04-25T14:22:21Z</time></trkpt><trkpt lat="39.30795293904631" lon="9.396049790922847"><ele>404.0</ele><time>2026-04-25T14:22:22Z</time></trkpt><trkpt lat="39.308069014360186" lon="9.39617579431134"><ele>404.0</ele><time>2026-04-25T14:22:23Z</time></trkpt><trkpt lat="39.308121351802896" lon="9.396345938079486"><ele>399.66666666666663</ele><time>2026-04-25T14:22:24Z</time></trkpt><trkpt lat="39.308181267393316" lon="9.396532541749737"><ele>395.33333333333337</ele><time>2026-04-25T14:22:25Z</time></trkpt><trkpt lat="39.308232666455545" lon="9.396738828844166"><ele>391.0</ele><time>2026-04-25T14:22:26Z</time></trkpt><trkpt lat="39.30829049970648" lon="9.396949331409436"><ele>391.0</ele><time>2026-04-25T14:22:27Z</time></trkpt><trkpt lat="39.308342990326146" lon="9.397151675712212"><ele>391.0</ele><time>2026-04-25T14:22:28Z</time></trkpt><trkpt lat="39.308366436381434" lon="9.397358297825727"><ele>391.0</ele><time>2026-04-25T14:22:29Z</time></trkpt><trkpt lat="39.30836230910753" lon="9.397570079173466"><ele>391.6666666666667</ele><time>2026-04-25T14:22:30Z</time></trkpt><trkpt lat="39.30835030046264" lon="9.39778136481307"><ele>392.33333333333337</ele><time>2026-04-25T14:22:31Z</time></trkpt><trkpt lat="39.308334586809416" lon="9.397993033235718"><ele>393.0</ele><time>2026-04-25T14:22:32Z</time></trkpt><trkpt lat="39.30831553053237" lon="9.398203881278892"><ele>391.66666666666663</ele><time>2026-04-25T14:22:33Z</time></trkpt><trkpt lat="39.308307984093446" lon="9.39840898381531"><ele>390.3333333333333</ele><time>2026-04-25T14:22:34Z</time></trkpt><trkpt lat="39.308308483708906" lon="9.398605940554921"><ele>389.0</ele><time>2026-04-25T14:22:35Z</time></trkpt><trkpt lat="39.308315799076176" lon="9.398798809825974"><ele>387.3333333333333</ele><time>2026-04-25T14:22:36Z</time></trkpt><trkpt lat="39.30842147328969" lon="9.398975017628583"><ele>385.66666666666663</ele><time>2026-04-25T14:22:37Z</time></trkpt><trkpt lat="39.30853202067618" lon="9.399135899825636"><ele>384.0</ele><time>2026-04-25T14:22:38Z</time></trkpt><trkpt lat="39.308646007623324" lon="9.399296766196134"><ele>384.0</ele><time>2026-04-25T14:22:39Z</time></trkpt><trkpt lat="39.30874856130975" lon="9.399452651357835"><ele>384.0</ele><time>2026-04-25T14:22:40Z</time></trkpt><trkpt lat="39.30885192170716" lon="9.399573158309465"><ele>384.0</ele><time>2026-04-25T14:22:41Z</time></trkpt><trkpt lat="39.30897114555827" lon="9.39962444419421"><ele>384.0</ele><time>2026-04-25T14:22:42Z</time></trkpt><trkpt lat="39.30909577591513" lon="9.39960397907663"><ele>382.75</ele><time>2026-04-25T14:22:43Z</time></trkpt><trkpt lat="39.30921650665474" lon="9.399508652014992"><ele>381.5</ele><time>2026-04-25T14:22:44Z</time></trkpt><trkpt lat="39.3093363616987" lon="9.39939561010191"><ele>380.25</ele><time>2026-04-25T14:22:45Z</time></trkpt><trkpt lat="39.30946535066343" lon="9.399278306570137"><ele>379.0</ele><time>2026-04-25T14:22:46Z</time></trkpt><trkpt lat="39.309595295892386" lon="9.399176399226661"><ele>379.0</ele><time>2026-04-25T14:22:47Z</time></trkpt><trkpt lat="39.3097265915987" lon="9.399075903811923"><ele>379.0</ele><time>2026-04-25T14:22:48Z</time></trkpt><trkpt lat="39.30986463018481" lon="9.399015917771512"><ele>379.0</ele><time>2026-04-25T14:22:49Z</time></trkpt><trkpt lat="39.310017993805765" lon="9.399018009861205"><ele>380.66666666666663</ele><time>2026-04-25T14:22:50Z</time></trkpt><trkpt lat="39.310176333940746" lon="9.399044521191792"><ele>382.3333333333333</ele><time>2026-04-25T14:22:51Z</time></trkpt><trkpt lat="39.310338547374165" lon="9.399057477132361"><ele>384.0</ele><time>2026-04-25T14:22:52Z</time></trkpt><trkpt lat="39.3105009371285" lon="9.399060769730628"><ele>383.25</ele><time>2026-04-25T14:22:53Z</time></trkpt><trkpt lat="39.31065412650581" lon="9.39908141222289"><ele>382.5</ele><time>2026-04-25T14:22:54Z</time></trkpt><trkpt lat="39.310797694987016" lon="9.39911849098217"><ele>381.75</ele><time>2026-04-25T14:22:55Z</time></trkpt><trkpt lat="39.31092274965901" lon="9.399209327820019"><ele>381.0</ele><time>2026-04-25T14:22:56Z</time></trkpt><trkpt lat="39.311024141445" lon="9.399348649335614"><ele>381.0</ele><time>2026-04-25T14:22:57Z</time></trkpt><trkpt lat="39.31110970356963" lon="9.399507146915457"><ele>381.0</ele><time>2026-04-25T14:22:58Z</time></trkpt><trkpt lat="39.311173374375734" lon="9.399683870656913"><ele>381.0</ele><time>2026-04-25T14:22:59Z</time></trkpt><trkpt lat="39.31118266336459" lon="9.399866852099532"><ele>381.0</ele><time>2026-04-25T14:23:00Z</time></trkpt><trkpt lat="39.311152754801554" lon="9.400056210500107"><ele>383.5</ele><time>2026-04-25T14:23:01Z</time></trkpt><trkpt lat="39.311118705339396" lon="9.400249056394916"><ele>386.0</ele><time>2026-04-25T14:23:02Z</time></trkpt><trkpt lat="39.311103806071564" lon="9.400443810486188"><ele>388.5</ele><time>2026-04-25T14:23:03Z</time></trkpt><trkpt lat="39.31111797274899" lon="9.400622851864584"><ele>391.0</ele><time>2026-04-25T14:23:04Z</time></trkpt><trkpt lat="39.311170340964644" lon="9.400774937040385"><ele>392.0</ele><time>2026-04-25T14:23:05Z</time></trkpt><trkpt lat="39.31127174378671" lon="9.4008761754832"><ele>393.0</ele><time>2026-04-25T14:23:06Z</time></trkpt><trkpt lat="39.311405042463306" lon="9.400934800270178"><ele>394.0</ele><time>2026-04-25T14:23:07Z</time></trkpt><trkpt lat="39.31153527349688" lon="9.401019104714116"><ele>395.0</ele><time>2026-04-25T14:23:08Z</time></trkpt><trkpt lat="39.311674765531386" lon="9.401090910798155"><ele>396.0</ele><time>2026-04-25T14:23:09Z</time></trkpt><trkpt lat="39.31179771840335" lon="9.401210855363708"><ele>397.0</ele><time>2026-04-25T14:23:10Z</time></trkpt><trkpt lat="39.31189986236966" lon="9.40136694469773"><ele>398.0</ele><time>2026-04-25T14:23:11Z</time></trkpt><trkpt lat="39.31197770487434" lon="9.401548902067926"><ele>398.0</ele><time>2026-04-25T14:23:12Z</time></trkpt><trkpt lat="39.312043631700796" lon="9.401743132548752"><ele>398.0</ele><time>2026-04-25T14:23:13Z</time></trkpt><trkpt lat="39.31211427929107" lon="9.401933023642835"><ele>398.0</ele><time>2026-04-25T14:23:14Z</time></trkpt><trkpt lat="39.31219117648997" lon="9.402121706516915"><ele>394.3333333333333</ele><time>2026-04-25T14:23:15Z</time></trkpt><trkpt lat="39.312283828549354" lon="9.40229395241913"><ele>390.66666666666663</ele><time>2026-04-25T14:23:16Z</time></trkpt><trkpt lat="39.312399138533586" lon="9.402421674134967"><ele>387.0</ele><time>2026-04-25T14:23:17Z</time></trkpt><trkpt lat="39.31253503622301" lon="9.402494301036741"><ele>387.0</ele><time>2026-04-25T14:23:18Z</time></trkpt><trkpt lat="39.31268037969149" lon="9.4024994837598"><ele>387.0</ele><time>2026-04-25T14:23:19Z</time></trkpt><trkpt lat="39.312819856672604" lon="9.402445891345275"><ele>387.0</ele><time>2026-04-25T14:23:20Z</time></trkpt><trkpt lat="39.31295748737013" lon="9.402353133521652"><ele>387.0</ele><time>2026-04-25T14:23:21Z</time></trkpt><trkpt lat="39.31310146669934" lon="9.40226841722311"><ele>384.0</ele><time>2026-04-25T14:23:22Z</time></trkpt><trkpt lat="39.313242767220416" lon="9.402163870515182"><ele>381.0</ele><time>2026-04-25T14:23:23Z</time></trkpt><trkpt lat="39.313395233702046" lon="9.40208574868123"><ele>378.0</ele><time>2026-04-25T14:23:24Z</time></trkpt><trkpt lat="39.31351113208348" lon="9.401916312604698"><ele>378.0</ele><time>2026-04-25T14:23:25Z</time></trkpt><trkpt lat="39.313650386575944" lon="9.401797611124882"><ele>378.0</ele><time>2026-04-25T14:23:26Z</time></trkpt><trkpt lat="39.3138135563741" lon="9.401722028528404"><ele>378.0</ele><time>2026-04-25T14:23:27Z</time></trkpt><trkpt lat="39.31399042757646" lon="9.401690617208796"><ele>380.66666666666663</ele><time>2026-04-25T14:23:28Z</time></trkpt><trkpt lat="39.31416314859784" lon="9.40168161216718"><ele>383.3333333333333</ele><time>2026-04-25T14:23:29Z</time></trkpt><trkpt lat="39.31434139665268" lon="9.401658842700916"><ele>386.0</ele><time>2026-04-25T14:23:30Z</time></trkpt><trkpt lat="39.314519855167646" lon="9.401627572641871"><ele>386.0</ele><time>2026-04-25T14:23:31Z</time></trkpt><trkpt lat="39.31469435569252" lon="9.401560060268022"><ele>386.0</ele><time>2026-04-25T14:23:32Z</time></trkpt><trkpt lat="39.31485899578927" lon="9.401464294824954"><ele>386.0</ele><time>2026-04-25T14:23:33Z</time></trkpt><trkpt lat="39.315021120997855" lon="9.401368212840385"><ele>382.3333333333333</ele><time>2026-04-25T14:23:34Z</time></trkpt><trkpt lat="39.3151712381176" lon="9.40128690860004"><ele>378.66666666666663</ele><time>2026-04-25T14:23:35Z</time></trkpt><trkpt lat="39.31531781382771" lon="9.401244027704067"><ele>375.0</ele><time>2026-04-25T14:23:36Z</time></trkpt><trkpt lat="39.31547846969976" lon="9.401263092732163"><ele>380.0</ele><time>2026-04-25T14:23:37Z</time></trkpt><trkpt lat="39.315654257957476" lon="9.401317683603416"><ele>385.0</ele><time>2026-04-25T14:23:38Z</time></trkpt><trkpt lat="39.31582451213675" lon="9.401356235042481"><ele>390.0</ele><time>2026-04-25T14:23:39Z</time></trkpt><trkpt lat="39.31599646059081" lon="9.401399767255848"><ele>395.0</ele><time>2026-04-25T14:23:40Z</time></trkpt><trkpt lat="39.31616905992613" lon="9.401443632035988"><ele>400.0</ele><time>2026-04-25T14:23:41Z</time></trkpt><trkpt lat="39.31634351581467" lon="9.401484217585105"><ele>405.0</ele><time>2026-04-25T14:23:42Z</time></trkpt><trkpt lat="39.31651768951285" lon="9.401520208125637"><ele>405.0</ele><time>2026-04-25T14:23:43Z</time></trkpt><trkpt lat="39.31669059765944" lon="9.401519689553542"><ele>405.0</ele><time>2026-04-25T14:23:44Z</time></trkpt><trkpt lat="39.31686111332005" lon="9.401472487741916"><ele>405.0</ele><time>2026-04-25T14:23:45Z</time></trkpt><trkpt lat="39.31703729731499" lon="9.401442681243086"><ele>405.0</ele><time>2026-04-25T14:23:46Z</time></trkpt><trkpt lat="39.31721822038238" lon="9.401447536375075"><ele>405.0</ele><time>2026-04-25T14:23:47Z</time></trkpt><trkpt lat="39.31740033147789" lon="9.401446488423451"><ele>405.0</ele><time>2026-04-25T14:23:48Z</time></trkpt><trkpt lat="39.31757407806359" lon="9.401434696069266"><ele>405.0</ele><time>2026-04-25T14:23:49Z</time></trkpt><trkpt lat="39.317743966502945" lon="9.401436836857204"><ele>405.0</ele><time>2026-04-25T14:23:50Z</time></trkpt><trkpt lat="39.317906491602564" lon="9.401468748100102"><ele>405.0</ele><time>2026-04-25T14:23:51Z</time></trkpt><trkpt lat="39.318064992502286" lon="9.401520931114673"><ele>403.5</ele><time>2026-04-25T14:23:52Z</time></trkpt><trkpt lat="39.31821786566359" lon="9.401581520378997"><ele>402.0</ele><time>2026-04-25T14:23:53Z</time></trkpt><trkpt lat="39.31835862927996" lon="9.401628231455557"><ele>400.5</ele><time>2026-04-25T14:23:54Z</time></trkpt><trkpt lat="39.31849466309219" lon="9.4016248015823"><ele>399.0</ele><time>2026-04-25T14:23:55Z</time></trkpt><trkpt lat="39.31862501143284" lon="9.401550144043313"><ele>399.0</ele><time>2026-04-25T14:23:56Z</time></trkpt><trkpt lat="39.31874440091434" lon="9.401415308651695"><ele>399.0</ele><time>2026-04-25T14:23:57Z</time></trkpt><trkpt lat="39.31886135649777" lon="9.401287625778041"><ele>399.0</ele><time>2026-04-25T14:23:58Z</time></trkpt><trkpt lat="39.31898741815657" lon="9.401183239874916"><ele>392.0</ele><time>2026-04-25T14:23:59Z</time></trkpt><trkpt lat="39.31914340485306" lon="9.401124513059758"><ele>385.0</ele><time>2026-04-25T14:24:00Z</time></trkpt><trkpt lat="39.31931225792437" lon="9.401096943067603"><ele>378.0</ele><time>2026-04-25T14:24:01Z</time></trkpt><trkpt lat="39.319484848981475" lon="9.401114655474098"><ele>378.0</ele><time>2026-04-25T14:24:02Z</time></trkpt><trkpt lat="39.31966000398314" lon="9.401169744485895"><ele>378.0</ele><time>2026-04-25T14:24:03Z</time></trkpt><trkpt lat="39.31982667523162" lon="9.40127079250779"><ele>378.0</ele><time>2026-04-25T14:24:04Z</time></trkpt><trkpt lat="39.31998196353275" lon="9.401382044146532"><ele>385.0</ele><time>2026-04-25T14:24:05Z</time></trkpt><trkpt lat="39.320129978478974" lon="9.401498540380471"><ele>392.0</ele><time>2026-04-25T14:24:06Z</time></trkpt><trkpt lat="39.32026908284694" lon="9.401618316772815"><ele>399.0</ele><time>2026-04-25T14:24:07Z</time></trkpt><trkpt lat="39.320394638940265" lon="9.401736136078616"><ele>399.0</ele><time>2026-04-25T14:24:08Z</time></trkpt><trkpt lat="39.32053010331052" lon="9.401796932614902"><ele>399.0</ele><time>2026-04-25T14:24:09Z</time></trkpt><trkpt lat="39.32067849933493" lon="9.401774842879792"><ele>399.0</ele><time>2026-04-25T14:24:10Z</time></trkpt><trkpt lat="39.32082322329408" lon="9.401695533581787"><ele>395.33333333333337</ele><time>2026-04-25T14:24:11Z</time></trkpt><trkpt lat="39.320976621834646" lon="9.40163171553237"><ele>391.6666666666667</ele><time>2026-04-25T14:24:12Z</time></trkpt><trkpt lat="39.32114468236652" lon="9.401629549191856"><ele>388.0</ele><time>2026-04-25T14:24:13Z</time></trkpt><trkpt lat="39.32130034340871" lon="9.40165274669308"><ele>390.0</ele><time>2026-04-25T14:24:14Z</time></trkpt><trkpt lat="39.32144381213132" lon="9.401609220790833"><ele>392.0</ele><time>2026-04-25T14:24:15Z</time></trkpt><trkpt lat="39.321577370980016" lon="9.401501607789237"><ele>394.0</ele><time>2026-04-25T14:24:16Z</time></trkpt><trkpt lat="39.32171543827288" lon="9.401373612571511"><ele>380.0</ele><time>2026-04-25T14:24:17Z</time></trkpt><trkpt lat="39.32185270571301" lon="9.401246218372789"><ele>366.0</ele><time>2026-04-25T14:24:18Z</time></trkpt><trkpt lat="39.32200048745411" lon="9.401128911940514"><ele>352.0</ele><time>2026-04-25T14:24:19Z</time></trkpt><trkpt lat="39.322148723461034" lon="9.401010733428755"><ele>363.0</ele><time>2026-04-25T14:24:20Z</time></trkpt><trkpt lat="39.32229458075931" lon="9.400886592489254"><ele>374.0</ele><time>2026-04-25T14:24:21Z</time></trkpt><trkpt lat="39.32242179614952" lon="9.400732373797807"><ele>385.0</ele><time>2026-04-25T14:24:22Z</time></trkpt><trkpt lat="39.32250985548014" lon="9.400535142643566"><ele>376.6666666666667</ele><time>2026-04-25T14:24:23Z</time></trkpt><trkpt lat="39.32256780205976" lon="9.400325770766425"><ele>368.33333333333337</ele><time>2026-04-25T14:24:24Z</time></trkpt><trkpt lat="39.3226360516946" lon="9.400126607099088"><ele>360.0</ele><time>2026-04-25T14:24:25Z</time></trkpt><trkpt lat="39.32272840975024" lon="9.399946496288873"><ele>360.0</ele><time>2026-04-25T14:24:26Z</time></trkpt><trkpt lat="39.32283704973143" lon="9.399783987009021"><ele>360.0</ele><time>2026-04-25T14:24:27Z</time></trkpt><trkpt lat="39.32292949758712" lon="9.399626362340568"><ele>360.0</ele><time>2026-04-25T14:24:28Z</time></trkpt><trkpt lat="39.322985745959436" lon="9.399443777937222"><ele>359.0</ele><time>2026-04-25T14:24:29Z</time></trkpt><trkpt lat="39.3229907327968" lon="9.399240425480372"><ele>358.0</ele><time>2026-04-25T14:24:30Z</time></trkpt><trkpt lat="39.3229347358417" lon="9.39904054655193"><ele>357.0</ele><time>2026-04-25T14:24:31Z</time></trkpt><trkpt lat="39.32283120928978" lon="9.398867610948054"><ele>361.0</ele><time>2026-04-25T14:24:32Z</time></trkpt><trkpt lat="39.32272305583781" lon="9.398698391147093"><ele>365.0</ele><time>2026-04-25T14:24:33Z</time></trkpt><trkpt lat="39.32262098018052" lon="9.398527291129575"><ele>369.0</ele><time>2026-04-25T14:24:34Z</time></trkpt><trkpt lat="39.32253354937936" lon="9.398340421947154"><ele>369.0</ele><time>2026-04-25T14:24:35Z</time></trkpt><trkpt lat="39.32245168637461" lon="9.398150796058088"><ele>369.0</ele><time>2026-04-25T14:24:36Z</time></trkpt><trkpt lat="39.32236563759868" lon="9.397970004017683"><ele>369.0</ele><time>2026-04-25T14:24:37Z</time></trkpt><trkpt lat="39.322269947134025" lon="9.397811780736276"><ele>364.75</ele><time>2026-04-25T14:24:38Z</time></trkpt><trkpt lat="39.32215993614846" lon="9.39769620434271"><ele>360.5</ele><time>2026-04-25T14:24:39Z</time></trkpt><trkpt lat="39.3220618693584" lon="9.397601889174156"><ele>356.25</ele><time>2026-04-25T14:24:40Z</time></trkpt><trkpt lat="39.32200426648064" lon="9.39748598448103"><ele>352.0</ele><time>2026-04-25T14:24:41Z</time></trkpt><trkpt lat="39.32199380960262" lon="9.39734629160656"><ele>352.0</ele><time>2026-04-25T14:24:42Z</time></trkpt><trkpt lat="39.32204032618179" lon="9.397210010433634"><ele>352.0</ele><time>2026-04-25T14:24:43Z</time></trkpt><trkpt lat="39.32213448543637" lon="9.397092486425361"><ele>352.0</ele><time>2026-04-25T14:24:44Z</time></trkpt><trkpt lat="39.3222225292631" lon="9.396952290146835"><ele>352.0</ele><time>2026-04-25T14:24:45Z</time></trkpt><trkpt lat="39.32230878905657" lon="9.39680058491309"><ele>351.0</ele><time>2026-04-25T14:24:46Z</time></trkpt><trkpt lat="39.322401504536614" lon="9.39663942707666"><ele>350.0</ele><time>2026-04-25T14:24:47Z</time></trkpt><trkpt lat="39.32249848446556" lon="9.396475689263442"><ele>349.0</ele><time>2026-04-25T14:24:48Z</time></trkpt><trkpt lat="39.32259840436991" lon="9.396309439597747"><ele>349.0</ele><time>2026-04-25T14:24:49Z</time></trkpt><trkpt lat="39.32269946026628" lon="9.396150260398219"><ele>349.0</ele><time>2026-04-25T14:24:50Z</time></trkpt><trkpt lat="39.32281357790498" lon="9.396020016750045"><ele>349.0</ele><time>2026-04-25T14:24:51Z</time></trkpt><trkpt lat="39.32295689870969" lon="9.395925993715824"><ele>354.66666666666663</ele><time>2026-04-25T14:24:52Z</time></trkpt><trkpt lat="39.323113251691495" lon="9.395845850984612"><ele>360.3333333333333</ele><time>2026-04-25T14:24:53Z</time></trkpt><trkpt lat="39.323263608948324" lon="9.395769794656541"><ele>366.0</ele><time>2026-04-25T14:24:54Z</time></trkpt><trkpt lat="39.32342291693208" lon="9.395742311074777"><ele>366.0</ele><time>2026-04-25T14:24:55Z</time></trkpt><trkpt lat="39.32358777699491" lon="9.395768684896204"><ele>366.0</ele><time>2026-04-25T14:24:56Z</time></trkpt><trkpt lat="39.323733070114386" lon="9.395856975541086"><ele>366.0</ele><time>2026-04-25T14:24:57Z</time></trkpt><trkpt lat="39.32385375194212" lon="9.395998705170244"><ele>366.3333333333333</ele><time>2026-04-25T14:24:58Z</time></trkpt><trkpt lat="39.32394475747522" lon="9.396174239651637"><ele>366.66666666666663</ele><time>2026-04-25T14:24:59Z</time></trkpt><trkpt lat="39.324037334341845" lon="9.396347112961926"><ele>367.0</ele><time>2026-04-25T14:25:00Z</time></trkpt><trkpt lat="39.324170331868686" lon="9.396478215484565"><ele>367.0</ele><time>2026-04-25T14:25:01Z</time></trkpt><trkpt lat="39.32431893982721" lon="9.39657401498669"><ele>367.0</ele><time>2026-04-25T14:25:02Z</time></trkpt><trkpt lat="39.32445432088216" lon="9.396663468499646"><ele>367.0</ele><time>2026-04-25T14:25:03Z</time></trkpt><trkpt lat="39.324574515560776" lon="9.39675683360237"><ele>367.0</ele><time>2026-04-25T14:25:04Z</time></trkpt><trkpt lat="39.324670684655565" lon="9.39686589320978"><ele>367.0</ele><time>2026-04-25T14:25:05Z</time></trkpt><trkpt lat="39.32472736573687" lon="9.397026887384031"><ele>367.0</ele><time>2026-04-25T14:25:06Z</time></trkpt><trkpt lat="39.32475679057711" lon="9.39722151999929"><ele>367.0</ele><time>2026-04-25T14:25:07Z</time></trkpt><trkpt lat="39.32478058393573" lon="9.397423889561328"><ele>363.3333333333333</ele><time>2026-04-25T14:25:08Z</time></trkpt><trkpt lat="39.324814777575554" lon="9.39763217656416"><ele>359.6666666666667</ele><time>2026-04-25T14:25:09Z</time></trkpt><trkpt lat="39.32484726348159" lon="9.397836429857035"><ele>356.0</ele><time>2026-04-25T14:25:10Z</time></trkpt><trkpt lat="39.32486081451826" lon="9.39804240614615"><ele>356.0</ele><time>2026-04-25T14:25:11Z</time></trkpt><trkpt lat="39.32485574548111" lon="9.398256496682194"><ele>356.0</ele><time>2026-04-25T14:25:12Z</time></trkpt><trkpt lat="39.32483867002711" lon="9.39847475397384"><ele>356.0</ele><time>2026-04-25T14:25:13Z</time></trkpt><trkpt lat="39.32483149958793" lon="9.398690516233108"><ele>356.33333333333337</ele><time>2026-04-25T14:25:14Z</time></trkpt><trkpt lat="39.32485742180468" lon="9.39888853400416"><ele>356.6666666666667</ele><time>2026-04-25T14:25:15Z</time></trkpt><trkpt lat="39.324922880423415" lon="9.399076984950412"><ele>357.0</ele><time>2026-04-25T14:25:16Z</time></trkpt><trkpt lat="39.32500090495871" lon="9.399260616028888"><ele>357.0</ele><time>2026-04-25T14:25:17Z</time></trkpt><trkpt lat="39.32505514168264" lon="9.39944868765813"><ele>357.0</ele><time>2026-04-25T14:25:18Z</time></trkpt><trkpt lat="39.32508613570019" lon="9.399660363709604"><ele>357.0</ele><time>2026-04-25T14:25:19Z</time></trkpt><trkpt lat="39.325125239939084" lon="9.399854118506612"><ele>360.6666666666667</ele><time>2026-04-25T14:25:20Z</time></trkpt><trkpt lat="39.32520027665938" lon="9.400037009716424"><ele>364.33333333333337</ele><time>2026-04-25T14:25:21Z</time></trkpt><trkpt lat="39.32530134744042" lon="9.400209726481943"><ele>368.0</ele><time>2026-04-25T14:25:22Z</time></trkpt><trkpt lat="39.32542370544987" lon="9.4003667515959"><ele>374.33333333333337</ele><time>2026-04-25T14:25:23Z</time></trkpt><trkpt lat="39.325558449238194" lon="9.400511498458929"><ele>380.6666666666667</ele><time>2026-04-25T14:25:24Z</time></trkpt><trkpt lat="39.325691052141444" lon="9.400653130879693"><ele>387.0</ele><time>2026-04-25T14:25:25Z</time></trkpt><trkpt lat="39.32581323519761" lon="9.400790347587858"><ele>377.5</ele><time>2026-04-25T14:25:26Z</time></trkpt><trkpt lat="39.32592478043383" lon="9.400909804746563"><ele>368.0</ele><time>2026-04-25T14:25:27Z</time></trkpt><trkpt lat="39.32601532278323" lon="9.401020882245282"><ele>358.5</ele><time>2026-04-25T14:25:28Z</time></trkpt><trkpt lat="39.326059679353826" lon="9.40114172690094"><ele>349.0</ele><time>2026-04-25T14:25:29Z</time></trkpt><trkpt lat="39.32604476835056" lon="9.401260603576606"><ele>347.0</ele><time>2026-04-25T14:25:30Z</time></trkpt><trkpt lat="39.325971556523534" lon="9.401351511790612"><ele>345.0</ele><time>2026-04-25T14:25:31Z</time></trkpt><trkpt lat="39.32585778832337" lon="9.401417565751194"><ele>343.0</ele><time>2026-04-25T14:25:32Z</time></trkpt><trkpt lat="39.3257432007247" lon="9.40149928351579"><ele>341.0</ele><time>2026-04-25T14:25:33Z</time></trkpt><trkpt lat="39.32562481203271" lon="9.401600112638475"><ele>352.33333333333337</ele><time>2026-04-25T14:25:34Z</time></trkpt><trkpt lat="39.325511558933066" lon="9.401732724995314"><ele>363.6666666666667</ele><time>2026-04-25T14:25:35Z</time></trkpt><trkpt lat="39.325412319492614" lon="9.401893605881357"><ele>375.0</ele><time>2026-04-25T14:25:36Z</time></trkpt><trkpt lat="39.32531367673737" lon="9.402060042629774"><ele>367.0</ele><time>2026-04-25T14:25:37Z</time></trkpt><trkpt lat="39.3252162122151" lon="9.40221562050892"><ele>359.0</ele><time>2026-04-25T14:25:38Z</time></trkpt><trkpt lat="39.32511827322974" lon="9.402355126461138"><ele>351.0</ele><time>2026-04-25T14:25:39Z</time></trkpt><trkpt lat="39.325000392547615" lon="9.402458942273714"><ele>343.0</ele><time>2026-04-25T14:25:40Z</time></trkpt><trkpt lat="39.32486455663772" lon="9.40251818549896"><ele>349.5</ele><time>2026-04-25T14:25:41Z</time></trkpt><trkpt lat="39.324714382197335" lon="9.402534599089744"><ele>356.0</ele><time>2026-04-25T14:25:42Z</time></trkpt><trkpt lat="39.32458117994728" lon="9.402562913055606"><ele>362.5</ele><time>2026-04-25T14:25:43Z</time></trkpt><trkpt lat="39.32446670995632" lon="9.402630966942183"><ele>369.0</ele><time>2026-04-25T14:25:44Z</time></trkpt><trkpt lat="39.324381695699216" lon="9.402750835794551"><ele>369.0</ele><time>2026-04-25T14:25:45Z</time></trkpt><trkpt lat="39.324331415843226" lon="9.402904367592107"><ele>369.0</ele><time>2026-04-25T14:25:46Z</time></trkpt><trkpt lat="39.32429094260805" lon="9.403071507420965"><ele>369.0</ele><time>2026-04-25T14:25:47Z</time></trkpt><trkpt lat="39.32422578567302" lon="9.403220831777768"><ele>369.0</ele><time>2026-04-25T14:25:48Z</time></trkpt><trkpt lat="39.324119685131855" lon="9.403334856080207"><ele>370.0</ele><time>2026-04-25T14:25:49Z</time></trkpt><trkpt lat="39.32400362430961" lon="9.403442271772866"><ele>371.0</ele><time>2026-04-25T14:25:50Z</time></trkpt><trkpt lat="39.3238920068568" lon="9.40353774482915"><ele>372.0</ele><time>2026-04-25T14:25:51Z</time></trkpt><trkpt lat="39.323798695289085" lon="9.403625733846386"><ele>373.0</ele><time>2026-04-25T14:25:52Z</time></trkpt><trkpt lat="39.3237236888755" lon="9.403720909731906"><ele>370.5</ele><time>2026-04-25T14:25:53Z</time></trkpt><trkpt lat="39.32368818128311" lon="9.403853426819357"><ele>368.0</ele><time>2026-04-25T14:25:54Z</time></trkpt><trkpt lat="39.323686165573704" lon="9.403999206832014"><ele>365.5</ele><time>2026-04-25T14:25:55Z</time></trkpt><trkpt lat="39.32373455365745" lon="9.40414613949283"><ele>363.0</ele><time>2026-04-25T14:25:56Z</time></trkpt><trkpt lat="39.323823672383924" lon="9.404272624581404"><ele>357.0</ele><time>2026-04-25T14:25:57Z</time></trkpt><trkpt lat="39.323915149450656" lon="9.404395881899148"><ele>351.0</ele><time>2026-04-25T14:25:58Z</time></trkpt><trkpt lat="39.32400410835162" lon="9.40452605000593"><ele>345.0</ele><time>2026-04-25T14:25:59Z</time></trkpt><trkpt lat="39.32409379181313" lon="9.40465480213542"><ele>339.0</ele><time>2026-04-25T14:26:00Z</time></trkpt><trkpt lat="39.324185890414434" lon="9.404779124722074"><ele>339.0</ele><time>2026-04-25T14:26:01Z</time></trkpt><trkpt lat="39.32427258759378" lon="9.404900247977348"><ele>339.0</ele><time>2026-04-25T14:26:02Z</time></trkpt><trkpt lat="39.324334630386645" lon="9.405043312457806"><ele>339.0</ele><time>2026-04-25T14:26:03Z</time></trkpt><trkpt lat="39.324358218682626" lon="9.405213084707707"><ele>339.0</ele><time>2026-04-25T14:26:04Z</time></trkpt><trkpt lat="39.32436909404433" lon="9.405379815450704"><ele>343.0</ele><time>2026-04-25T14:26:05Z</time></trkpt><trkpt lat="39.32444352275223" lon="9.405531781481791"><ele>347.0</ele><time>2026-04-25T14:26:06Z</time></trkpt><trkpt lat="39.324558520533536" lon="9.405644493846703"><ele>351.0</ele><time>2026-04-25T14:26:07Z</time></trkpt><trkpt lat="39.32468158440842" lon="9.40573975333688"><ele>355.0</ele><time>2026-04-25T14:26:08Z</time></trkpt><trkpt lat="39.324784139829795" lon="9.405854831500266"><ele>344.25</ele><time>2026-04-25T14:26:09Z</time></trkpt><trkpt lat="39.32486474850941" lon="9.405996634312489"><ele>333.5</ele><time>2026-04-25T14:26:10Z</time></trkpt><trkpt lat="39.32491495419115" lon="9.406146567913435"><ele>322.75</ele><time>2026-04-25T14:26:11Z</time></trkpt><trkpt lat="39.32491159713431" lon="9.406294089471078"><ele>312.0</ele><time>2026-04-25T14:26:12Z</time></trkpt><trkpt lat="39.324853378805095" lon="9.40642513921199"><ele>311.25</ele><time>2026-04-25T14:26:13Z</time></trkpt><trkpt lat="39.32477015725764" lon="9.406554508603563"><ele>310.5</ele><time>2026-04-25T14:26:14Z</time></trkpt><trkpt lat="39.32469098802499" lon="9.406699236241689"><ele>309.75</ele><time>2026-04-25T14:26:15Z</time></trkpt><trkpt lat="39.32461933171125" lon="9.406850086079833"><ele>309.0</ele><time>2026-04-25T14:26:16Z</time></trkpt><trkpt lat="39.32455224036367" lon="9.407015900864584"><ele>314.25</ele><time>2026-04-25T14:26:17Z</time></trkpt><trkpt lat="39.32449122386111" lon="9.40718258955835"><ele>319.5</ele><time>2026-04-25T14:26:18Z</time></trkpt><trkpt lat="39.324415850641685" lon="9.407332516270161"><ele>324.75</ele><time>2026-04-25T14:26:19Z</time></trkpt><trkpt lat="39.32431328850349" lon="9.407449070210648"><ele>330.0</ele><time>2026-04-25T14:26:20Z</time></trkpt><trkpt lat="39.32417863678365" lon="9.407525626981892"><ele>330.0</ele><time>2026-04-25T14:26:21Z</time></trkpt><trkpt lat="39.32405429718877" lon="9.40760419070537"><ele>330.0</ele><time>2026-04-25T14:26:22Z</time></trkpt><trkpt lat="39.32396288216862" lon="9.407715024147308"><ele>330.0</ele><time>2026-04-25T14:26:23Z</time></trkpt><trkpt lat="39.323920814021804" lon="9.40785897965701"><ele>330.0</ele><time>2026-04-25T14:26:24Z</time></trkpt><trkpt lat="39.32393685449515" lon="9.408012422447515"><ele>326.8</ele><time>2026-04-25T14:26:25Z</time></trkpt><trkpt lat="39.324012164029746" lon="9.408121991050209"><ele>323.6</ele><time>2026-04-25T14:26:26Z</time></trkpt><trkpt lat="39.32411778767548" lon="9.408183343006506"><ele>320.4</ele><time>2026-04-25T14:26:27Z</time></trkpt><trkpt lat="39.32420702669147" lon="9.40826515769439"><ele>317.2</ele><time>2026-04-25T14:26:28Z</time></trkpt><trkpt lat="39.32423456107056" lon="9.408395095474738"><ele>314.0</ele><time>2026-04-25T14:26:29Z</time></trkpt><trkpt lat="39.32420017184705" lon="9.408541205776556"><ele>314.0</ele><time>2026-04-25T14:26:30Z</time></trkpt><trkpt lat="39.324137111710016" lon="9.408681547522315"><ele>314.0</ele><time>2026-04-25T14:26:31Z</time></trkpt><trkpt lat="39.32406753701613" lon="9.408821830966534"><ele>314.0</ele><time>2026-04-25T14:26:32Z</time></trkpt><trkpt lat="39.323996595337405" lon="9.408973570596743"><ele>314.0</ele><time>2026-04-25T14:26:33Z</time></trkpt><trkpt lat="39.323918457855676" lon="9.409130628148977"><ele>324.0</ele><time>2026-04-25T14:26:34Z</time></trkpt><trkpt lat="39.32383990407279" lon="9.40928109681671"><ele>334.0</ele><time>2026-04-25T14:26:35Z</time></trkpt><trkpt lat="39.323783326180276" lon="9.409439046149817"><ele>344.0</ele><time>2026-04-25T14:26:36Z</time></trkpt><trkpt lat="39.323779024986145" lon="9.409610012794264"><ele>354.0</ele><time>2026-04-25T14:26:37Z</time></trkpt><trkpt lat="39.32381500401339" lon="9.409775301775314"><ele>354.0</ele><time>2026-04-25T14:26:38Z</time></trkpt><trkpt lat="39.323850004131614" lon="9.40994020786606"><ele>354.0</ele><time>2026-04-25T14:26:39Z</time></trkpt><trkpt lat="39.323878836027546" lon="9.410103520327644"><ele>354.0</ele><time>2026-04-25T14:26:40Z</time></trkpt><trkpt lat="39.32390811543169" lon="9.410265688180996"><ele>354.0</ele><time>2026-04-25T14:26:41Z</time></trkpt><trkpt lat="39.32395513179145" lon="9.41041982372591"><ele>345.25</ele><time>2026-04-25T14:26:42Z</time></trkpt><trkpt lat="39.324025461021144" lon="9.41056144444468"><ele>336.5</ele><time>2026-04-25T14:26:43Z</time></trkpt><trkpt lat="39.32413034504489" lon="9.41066907847492"><ele>327.75</ele><time>2026-04-25T14:26:44Z</time></trkpt><trkpt lat="39.32426146505367" lon="9.41072793777613"><ele>319.0</ele><time>2026-04-25T14:26:45Z</time></trkpt><trkpt lat="39.324400466575156" lon="9.410773973877353"><ele>319.0</ele><time>2026-04-25T14:26:46Z</time></trkpt><trkpt lat="39.32453396563841" lon="9.410824363520153"><ele>319.0</ele><time>2026-04-25T14:26:47Z</time></trkpt><trkpt lat="39.324652191541716" lon="9.410887637483484"><ele>319.0</ele><time>2026-04-25T14:26:48Z</time></trkpt><trkpt lat="39.3247432413725" lon="9.410987569549913"><ele>319.0</ele><time>2026-04-25T14:26:49Z</time></trkpt><trkpt lat="39.32480836446566" lon="9.41113252234024"><ele>315.0</ele><time>2026-04-25T14:26:50Z</time></trkpt><trkpt lat="39.324865448969355" lon="9.411297276737589"><ele>311.0</ele><time>2026-04-25T14:26:51Z</time></trkpt><trkpt lat="39.32494307367455" lon="9.411452068404092"><ele>307.0</ele><time>2026-04-25T14:26:52Z</time></trkpt><trkpt lat="39.32503829756629" lon="9.411578436890114"><ele>303.0</ele><time>2026-04-25T14:26:53Z</time></trkpt><trkpt lat="39.32512983374129" lon="9.411703304120628"><ele>303.0</ele><time>2026-04-25T14:26:54Z</time></trkpt><trkpt lat="39.325212467380126" lon="9.411829864179081"><ele>303.0</ele><time>2026-04-25T14:26:55Z</time></trkpt><trkpt lat="39.32527312829159" lon="9.411953286280525"><ele>303.0</ele><time>2026-04-25T14:26:56Z</time></trkpt><trkpt lat="39.3252952215342" lon="9.41208036425271"><ele>303.0</ele><time>2026-04-25T14:26:57Z</time></trkpt><trkpt lat="39.325268330314366" lon="9.41219744786112"><ele>303.0</ele><time>2026-04-25T14:26:58Z</time></trkpt><trkpt lat="39.325192972391356" lon="9.412268894573854"><ele>301.25</ele><time>2026-04-25T14:26:59Z</time></trkpt><trkpt lat="39.32508732900748" lon="9.412299000104401"><ele>299.5</ele><time>2026-04-25T14:27:00Z</time></trkpt><trkpt lat="39.324979417342945" lon="9.412337596330008"><ele>297.75</ele><time>2026-04-25T14:27:01Z</time></trkpt><trkpt lat="39.324866466146716" lon="9.412403469341902"><ele>296.0</ele><time>2026-04-25T14:27:02Z</time></trkpt><trkpt lat="39.32475692873553" lon="9.412468140401542"><ele>296.0</ele><time>2026-04-25T14:27:03Z</time></trkpt><trkpt lat="39.324685669169355" lon="9.412569736081084"><ele>296.0</ele><time>2026-04-25T14:27:04Z</time></trkpt><trkpt lat="39.32466177297478" lon="9.412715506885418"><ele>296.0</ele><time>2026-04-25T14:27:05Z</time></trkpt><trkpt lat="39.32469432015467" lon="9.412862797646657"><ele>296.0</ele><time>2026-04-25T14:27:06Z</time></trkpt><trkpt lat="39.32477601545464" lon="9.412988443794495"><ele>294.75</ele><time>2026-04-25T14:27:07Z</time></trkpt><trkpt lat="39.324874139199615" lon="9.413122638819292"><ele>293.5</ele><time>2026-04-25T14:27:08Z</time></trkpt><trkpt lat="39.32493787596485" lon="9.413289655672608"><ele>292.25</ele><time>2026-04-25T14:27:09Z</time></trkpt><trkpt lat="39.32497863492014" lon="9.4134751354037"><ele>291.0</ele><time>2026-04-25T14:27:10Z</time></trkpt><trkpt lat="39.324999041125096" lon="9.413674731572675"><ele>292.6666666666667</ele><time>2026-04-25T14:27:11Z</time></trkpt><trkpt lat="39.32500381243233" lon="9.413877686671794"><ele>294.33333333333337</ele><time>2026-04-25T14:27:12Z</time></trkpt><trkpt lat="39.3250203158115" lon="9.414074219504986"><ele>296.0</ele><time>2026-04-25T14:27:13Z</time></trkpt><trkpt lat="39.32507298851202" lon="9.414254201626692"><ele>296.0</ele><time>2026-04-25T14:27:14Z</time></trkpt><trkpt lat="39.32516996249258" lon="9.414407875835572"><ele>296.0</ele><time>2026-04-25T14:27:15Z</time></trkpt><trkpt lat="39.32528049231597" lon="9.414522910506204"><ele>296.0</ele><time>2026-04-25T14:27:16Z</time></trkpt><trkpt lat="39.325366777615834" lon="9.414635485689542"><ele>296.0</ele><time>2026-04-25T14:27:17Z</time></trkpt><trkpt lat="39.32540927590971" lon="9.414784709803797"><ele>297.75</ele><time>2026-04-25T14:27:18Z</time></trkpt><trkpt lat="39.32540883244412" lon="9.414961205370203"><ele>299.5</ele><time>2026-04-25T14:27:19Z</time></trkpt><trkpt lat="39.32535668972827" lon="9.415127308934135"><ele>301.25</ele><time>2026-04-25T14:27:20Z</time></trkpt><trkpt lat="39.325301494676715" lon="9.415285800829116"><ele>303.0</ele><time>2026-04-25T14:27:21Z</time></trkpt><trkpt lat="39.325318115075014" lon="9.415452600499062"><ele>304.6666666666667</ele><time>2026-04-25T14:27:22Z</time></trkpt><trkpt lat="39.32538636278877" lon="9.415618548247837"><ele>306.33333333333337</ele><time>2026-04-25T14:27:23Z</time></trkpt><trkpt lat="39.325457187884275" lon="9.415790062572949"><ele>308.0</ele><time>2026-04-25T14:27:24Z</time></trkpt><trkpt lat="39.32551650790258" lon="9.415973888868605"><ele>300.0</ele><time>2026-04-25T14:27:25Z</time></trkpt><trkpt lat="39.32559368417041" lon="9.416158558339447"><ele>292.0</ele><time>2026-04-25T14:27:26Z</time></trkpt><trkpt lat="39.32570441119642" lon="9.416326515651882"><ele>284.0</ele><time>2026-04-25T14:27:27Z</time></trkpt><trkpt lat="39.32583175583396" lon="9.416483105815711"><ele>284.0</ele><time>2026-04-25T14:27:28Z</time></trkpt><trkpt lat="39.32595800023657" lon="9.416647321015763"><ele>284.0</ele><time>2026-04-25T14:27:29Z</time></trkpt><trkpt lat="39.32608231642236" lon="9.41681416547498"><ele>284.0</ele><time>2026-04-25T14:27:30Z</time></trkpt><trkpt lat="39.32620159268001" lon="9.416976225513409"><ele>284.0</ele><time>2026-04-25T14:27:31Z</time></trkpt><trkpt lat="39.32631636851471" lon="9.417131016097763"><ele>284.0</ele><time>2026-04-25T14:27:32Z</time></trkpt><trkpt lat="39.326447341594594" lon="9.417250414184998"><ele>284.0</ele><time>2026-04-25T14:27:33Z</time></trkpt><trkpt lat="39.32660016488921" lon="9.417298291039968"><ele>281.6666666666667</ele><time>2026-04-25T14:27:34Z</time></trkpt><trkpt lat="39.326756526136016" lon="9.417290389521243"><ele>279.3333333333333</ele><time>2026-04-25T14:27:35Z</time></trkpt><trkpt lat="39.32691273896827" lon="9.417279136433798"><ele>277.0</ele><time>2026-04-25T14:27:36Z</time></trkpt><trkpt lat="39.32706144834313" lon="9.417272039909841"><ele>277.0</ele><time>2026-04-25T14:27:37Z</time></trkpt><trkpt lat="39.327197297704814" lon="9.417276788180905"><ele>277.0</ele><time>2026-04-25T14:27:38Z</time></trkpt><trkpt lat="39.32731629177233" lon="9.417312800267094"><ele>277.0</ele><time>2026-04-25T14:27:39Z</time></trkpt><trkpt lat="39.327404548617515" lon="9.417407057940126"><ele>277.0</ele><time>2026-04-25T14:27:40Z</time></trkpt><trkpt lat="39.327446096173816" lon="9.417548498315067"><ele>272.5</ele><time>2026-04-25T14:27:41Z</time></trkpt><trkpt lat="39.32744253962562" lon="9.4177195133788"><ele>268.0</ele><time>2026-04-25T14:27:42Z</time></trkpt><trkpt lat="39.32741461177864" lon="9.417893346533043"><ele>263.5</ele><time>2026-04-25T14:27:43Z</time></trkpt><trkpt lat="39.32735873206933" lon="9.418065523601534"><ele>259.0</ele><time>2026-04-25T14:27:44Z</time></trkpt><trkpt lat="39.32727092162483" lon="9.418236717365327"><ele>265.66666666666663</ele><time>2026-04-25T14:27:45Z</time></trkpt><trkpt lat="39.327165775101435" lon="9.418395066528978"><ele>272.3333333333333</ele><time>2026-04-25T14:27:46Z</time></trkpt><trkpt lat="39.32705096514135" lon="9.418553269186017"><ele>279.0</ele><time>2026-04-25T14:27:47Z</time></trkpt><trkpt lat="39.32693346821677" lon="9.418715719943615"><ele>274.0</ele><time>2026-04-25T14:27:48Z</time></trkpt><trkpt lat="39.326814054354664" lon="9.41888329821344"><ele>269.0</ele><time>2026-04-25T14:27:49Z</time></trkpt><trkpt lat="39.32669333142032" lon="9.419053033515803"><ele>264.0</ele><time>2026-04-25T14:27:50Z</time></trkpt><trkpt lat="39.32657729879173" lon="9.419221468276374"><ele>264.0</ele><time>2026-04-25T14:27:51Z</time></trkpt><trkpt lat="39.32647980978708" lon="9.41939835278967"><ele>264.0</ele><time>2026-04-25T14:27:52Z</time></trkpt><trkpt lat="39.32640535257853" lon="9.419593566036747"><ele>264.0</ele><time>2026-04-25T14:27:53Z</time></trkpt><trkpt lat="39.32636288391643" lon="9.419809746211714"><ele>267.6666666666667</ele><time>2026-04-25T14:27:54Z</time></trkpt><trkpt lat="39.32636966694573" lon="9.420035223551249"><ele>271.33333333333337</ele><time>2026-04-25T14:27:55Z</time></trkpt><trkpt lat="39.326412164711556" lon="9.420254688091944"><ele>275.0</ele><time>2026-04-25T14:27:56Z</time></trkpt><trkpt lat="39.32647877986377" lon="9.420471391737587"><ele>270.6666666666667</ele><time>2026-04-25T14:27:57Z</time></trkpt><trkpt lat="39.32654203992946" lon="9.420679479712176"><ele>266.3333333333333</ele><time>2026-04-25T14:27:58Z</time></trkpt><trkpt lat="39.326612008596946" lon="9.4208739395027"><ele>262.0</ele><time>2026-04-25T14:27:59Z</time></trkpt><trkpt lat="39.326714206960595" lon="9.421040127619184"><ele>262.0</ele><time>2026-04-25T14:28:00Z</time></trkpt><trkpt lat="39.32684927140049" lon="9.421170685115326"><ele>262.0</ele><time>2026-04-25T14:28:01Z</time></trkpt><trkpt lat="39.32698177298333" lon="9.421304162834339"><ele>262.0</ele><time>2026-04-25T14:28:02Z</time></trkpt><trkpt lat="39.32709568450118" lon="9.421435928769318"><ele>263.5</ele><time>2026-04-25T14:28:03Z</time></trkpt><trkpt lat="39.32719959292515" lon="9.421556986394076"><ele>265.0</ele><time>2026-04-25T14:28:04Z</time></trkpt><trkpt lat="39.3272697187218" lon="9.42168637841267"><ele>266.5</ele><time>2026-04-25T14:28:05Z</time></trkpt><trkpt lat="39.32730438329" lon="9.421821109879764"><ele>268.0</ele><time>2026-04-25T14:28:06Z</time></trkpt><trkpt lat="39.32727917067008" lon="9.421959899399914"><ele>268.0</ele><time>2026-04-25T14:28:07Z</time></trkpt><trkpt lat="39.32719471950324" lon="9.422085671661293"><ele>268.0</ele><time>2026-04-25T14:28:08Z</time></trkpt><trkpt lat="39.327076067538414" lon="9.422195263851188"><ele>268.0</ele><time>2026-04-25T14:28:09Z</time></trkpt><trkpt lat="39.32694598900584" lon="9.422301443213117"><ele>268.0</ele><time>2026-04-25T14:28:10Z</time></trkpt><trkpt lat="39.32680674611828" lon="9.422414493136099"><ele>272.3333333333333</ele><time>2026-04-25T14:28:11Z</time></trkpt><trkpt lat="39.32666005395647" lon="9.422520818638512"><ele>276.6666666666667</ele><time>2026-04-25T14:28:12Z</time></trkpt><trkpt lat="39.32650372805977" lon="9.422637457713245"><ele>281.0</ele><time>2026-04-25T14:28:13Z</time></trkpt><trkpt lat="39.3263514668648" lon="9.422762722646928"><ele>281.0</ele><time>2026-04-25T14:28:14Z</time></trkpt><trkpt lat="39.32620505538748" lon="9.422888634338365"><ele>281.0</ele><time>2026-04-25T14:28:15Z</time></trkpt><trkpt lat="39.3260626624689" lon="9.423005402436363"><ele>281.0</ele><time>2026-04-25T14:28:16Z</time></trkpt><trkpt lat="39.32592935664933" lon="9.423114927415016"><ele>276.0</ele><time>2026-04-25T14:28:17Z</time></trkpt><trkpt lat="39.325822022458844" lon="9.423243591882793"><ele>271.0</ele><time>2026-04-25T14:28:18Z</time></trkpt><trkpt lat="39.32575417054376" lon="9.423397350891682"><ele>266.0</ele><time>2026-04-25T14:28:19Z</time></trkpt><trkpt lat="39.32573422916264" lon="9.423567599746063"><ele>261.0</ele><time>2026-04-25T14:28:20Z</time></trkpt><trkpt lat="39.325767668120456" lon="9.423732913855275"><ele>257.75</ele><time>2026-04-25T14:28:21Z</time></trkpt><trkpt lat="39.32584470902863" lon="9.423878704729855"><ele>254.5</ele><time>2026-04-25T14:28:22Z</time></trkpt><trkpt lat="39.32594344668015" lon="9.42401720666142"><ele>251.25</ele><time>2026-04-25T14:28:23Z</time></trkpt><trkpt lat="39.3260317804191" lon="9.424177379786183"><ele>248.0</ele><time>2026-04-25T14:28:24Z</time></trkpt><trkpt lat="39.32609000913679" lon="9.424367870379255"><ele>248.0</ele><time>2026-04-25T14:28:25Z</time></trkpt><trkpt lat="39.326121229027244" lon="9.424582182147246"><ele>248.0</ele><time>2026-04-25T14:28:26Z</time></trkpt><trkpt lat="39.32613554335103" lon="9.424806115858201"><ele>248.0</ele><time>2026-04-25T14:28:27Z</time></trkpt><trkpt lat="39.326137637958226" lon="9.425036026245031"><ele>246.0</ele><time>2026-04-25T14:28:28Z</time></trkpt><trkpt lat="39.326135204576325" lon="9.425265506473178"><ele>244.0</ele><time>2026-04-25T14:28:29Z</time></trkpt><trkpt lat="39.32612883694619" lon="9.42548528727269"><ele>242.0</ele><time>2026-04-25T14:28:30Z</time></trkpt><trkpt lat="39.32611885618142" lon="9.425690406307854"><ele>242.0</ele><time>2026-04-25T14:28:31Z</time></trkpt><trkpt lat="39.326116465172134" lon="9.42588122724503"><ele>242.0</ele><time>2026-04-25T14:28:32Z</time></trkpt><trkpt lat="39.3261393625412" lon="9.4260629100275"><ele>242.0</ele><time>2026-04-25T14:28:33Z</time></trkpt><trkpt lat="39.32620270674865" lon="9.426220211459363"><ele>242.0</ele><time>2026-04-25T14:28:34Z</time></trkpt><trkpt lat="39.32630111272347" lon="9.426322216618436"><ele>240.5</ele><time>2026-04-25T14:28:35Z</time></trkpt><trkpt lat="39.32642037330226" lon="9.426348155626918"><ele>239.0</ele><time>2026-04-25T14:28:36Z</time></trkpt><trkpt lat="39.32654301502829" lon="9.426291400147319"><ele>237.5</ele><time>2026-04-25T14:28:37Z</time></trkpt><trkpt lat="39.32665589936359" lon="9.426197568620701"><ele>236.0</ele><time>2026-04-25T14:28:38Z</time></trkpt><trkpt lat="39.32678061015007" lon="9.426114739581397"><ele>241.33333333333334</ele><time>2026-04-25T14:28:39Z</time></trkpt><trkpt lat="39.32692999671862" lon="9.426081436082663"><ele>246.66666666666669</ele><time>2026-04-25T14:28:40Z</time></trkpt><trkpt lat="39.327085805437996" lon="9.42612194262687"><ele>252.0</ele><time>2026-04-25T14:28:41Z</time></trkpt><trkpt lat="39.32723907502188" lon="9.4262112309642"><ele>254.66666666666669</ele><time>2026-04-25T14:28:42Z</time></trkpt><trkpt lat="39.32739394210352" lon="9.426292367556922"><ele>257.33333333333337</ele><time>2026-04-25T14:28:43Z</time></trkpt><trkpt lat="39.32755847361126" lon="9.426348646392567"><ele>260.0</ele><time>2026-04-25T14:28:44Z</time></trkpt><trkpt lat="39.32771837308838" lon="9.426381272346848"><ele>253.66666666666669</ele><time>2026-04-25T14:28:45Z</time></trkpt><trkpt lat="39.32787207650461" lon="9.426428569289625"><ele>247.33333333333331</ele><time>2026-04-25T14:28:46Z</time></trkpt><trkpt lat="39.32801249500531" lon="9.426506211875976"><ele>241.0</ele><time>2026-04-25T14:28:47Z</time></trkpt><trkpt lat="39.32813033644534" lon="9.42663150989191"><ele>241.0</ele><time>2026-04-25T14:28:48Z</time></trkpt><trkpt lat="39.328210514235565" lon="9.426804403026939"><ele>241.0</ele><time>2026-04-25T14:28:49Z</time></trkpt><trkpt lat="39.32824837794075" lon="9.427014974245987"><ele>241.0</ele><time>2026-04-25T14:28:50Z</time></trkpt><trkpt lat="39.32830595220831" lon="9.427210357069585"><ele>236.75</ele><time>2026-04-25T14:28:51Z</time></trkpt><trkpt lat="39.32839364141635" lon="9.427356436381107"><ele>232.5</ele><time>2026-04-25T14:28:52Z</time></trkpt><trkpt lat="39.32851920507754" lon="9.427451690453566"><ele>228.25</ele><time>2026-04-25T14:28:53Z</time></trkpt><trkpt lat="39.328656139978975" lon="9.427537429871805"><ele>224.0</ele><time>2026-04-25T14:28:54Z</time></trkpt><trkpt lat="39.32879544920258" lon="9.427636553514342"><ele>227.66666666666669</ele><time>2026-04-25T14:28:55Z</time></trkpt><trkpt lat="39.32894753277342" lon="9.427728569034851"><ele>231.33333333333331</ele><time>2026-04-25T14:28:56Z</time></trkpt><trkpt lat="39.32911294135598" lon="9.427809146519786"><ele>235.0</ele><time>2026-04-25T14:28:57Z</time></trkpt><trkpt lat="39.32926985535605" lon="9.427912088376617"><ele>231.0</ele><time>2026-04-25T14:28:58Z</time></trkpt><trkpt lat="39.329419865888575" lon="9.428041475815457"><ele>227.0</ele><time>2026-04-25T14:28:59Z</time></trkpt><trkpt lat="39.3295735289328" lon="9.428165445439495"><ele>223.0</ele><time>2026-04-25T14:29:00Z</time></trkpt><trkpt lat="39.32972791807637" lon="9.42828690496756"><ele>222.33333333333331</ele><time>2026-04-25T14:29:01Z</time></trkpt><trkpt lat="39.32987711125999" lon="9.428417205781354"><ele>221.66666666666669</ele><time>2026-04-25T14:29:02Z</time></trkpt><trkpt lat="39.330027623296736" lon="9.428547785921303"><ele>221.0</ele><time>2026-04-25T14:29:03Z</time></trkpt><trkpt lat="39.3301773298351" lon="9.428675304286035"><ele>221.0</ele><time>2026-04-25T14:29:04Z</time></trkpt><trkpt lat="39.3303196712629" lon="9.42879718675401"><ele>221.0</ele><time>2026-04-25T14:29:05Z</time></trkpt><trkpt lat="39.33046978799263" lon="9.428890979148782"><ele>221.0</ele><time>2026-04-25T14:29:06Z</time></trkpt><trkpt lat="39.33064278831713" lon="9.4289383961524"><ele>219.0</ele><time>2026-04-25T14:29:07Z</time></trkpt><trkpt lat="39.33082347032103" lon="9.428961109229682"><ele>217.0</ele><time>2026-04-25T14:29:08Z</time></trkpt><trkpt lat="39.33099796741575" lon="9.428981698621953"><ele>215.0</ele><time>2026-04-25T14:29:09Z</time></trkpt><trkpt lat="39.331178722564005" lon="9.42901289224622"><ele>215.0</ele><time>2026-04-25T14:29:10Z</time></trkpt><trkpt lat="39.33136478596677" lon="9.42904156454177"><ele>215.0</ele><time>2026-04-25T14:29:11Z</time></trkpt><trkpt lat="39.331555308797064" lon="9.429065044388025"><ele>215.0</ele><time>2026-04-25T14:29:12Z</time></trkpt><trkpt lat="39.33174584904622" lon="9.429092972764053"><ele>215.0</ele><time>2026-04-25T14:29:13Z</time></trkpt><trkpt lat="39.33193244419923" lon="9.429127516550581"><ele>215.0</ele><time>2026-04-25T14:29:14Z</time></trkpt><trkpt lat="39.33211127632567" lon="9.429150721786435"><ele>215.0</ele><time>2026-04-25T14:29:15Z</time></trkpt><trkpt lat="39.332283013764844" lon="9.429163583383321"><ele>215.0</ele><time>2026-04-25T14:29:16Z</time></trkpt><trkpt lat="39.332449207024695" lon="9.429181282050227"><ele>215.0</ele><time>2026-04-25T14:29:17Z</time></trkpt><trkpt lat="39.33260342533794" lon="9.429218853795213"><ele>215.0</ele><time>2026-04-25T14:29:18Z</time></trkpt><trkpt lat="39.332740552364285" lon="9.429292024228443"><ele>215.0</ele><time>2026-04-25T14:29:19Z</time></trkpt><trkpt lat="39.3328370738848" lon="9.42941449728005"><ele>215.0</ele><time>2026-04-25T14:29:20Z</time></trkpt><trkpt lat="39.33288731657405" lon="9.429582797156108"><ele>215.0</ele><time>2026-04-25T14:29:21Z</time></trkpt><trkpt lat="39.33290404827525" lon="9.429779500139059"><ele>215.0</ele><time>2026-04-25T14:29:22Z</time></trkpt><trkpt lat="39.33289367183378" lon="9.429985264525818"><ele>214.66666666666669</ele><time>2026-04-25T14:29:23Z</time></trkpt><trkpt lat="39.33285381784673" lon="9.430192025754797"><ele>214.33333333333331</ele><time>2026-04-25T14:29:24Z</time></trkpt><trkpt lat="39.332801504976736" lon="9.430385504323771"><ele>214.0</ele><time>2026-04-25T14:29:25Z</time></trkpt><trkpt lat="39.332734684847836" lon="9.430589320493544"><ele>214.0</ele><time>2026-04-25T14:29:26Z</time></trkpt><trkpt lat="39.332670136660326" lon="9.430793461161025"><ele>214.0</ele><time>2026-04-25T14:29:27Z</time></trkpt><trkpt lat="39.33263413779132" lon="9.431008839557123"><ele>214.0</ele><time>2026-04-25T14:29:28Z</time></trkpt><trkpt lat="39.33262218765643" lon="9.431228034421684"><ele>215.0</ele><time>2026-04-25T14:29:29Z</time></trkpt><trkpt lat="39.332617971539236" lon="9.43144882974708"><ele>216.0</ele><time>2026-04-25T14:29:30Z</time></trkpt><trkpt lat="39.33262107633549" lon="9.43166541357142"><ele>217.0</ele><time>2026-04-25T14:29:31Z</time></trkpt><trkpt lat="39.33260853159385" lon="9.431880583521497"><ele>217.0</ele><time>2026-04-25T14:29:32Z</time></trkpt><trkpt lat="39.33255449290696" lon="9.43207793918575"><ele>217.0</ele><time>2026-04-25T14:29:33Z</time></trkpt><trkpt lat="39.33250568350544" lon="9.432266327046905"><ele>217.0</ele><time>2026-04-25T14:29:34Z</time></trkpt><trkpt lat="39.33251230939043" lon="9.432454753575232"><ele>217.0</ele><time>2026-04-25T14:29:35Z</time></trkpt><trkpt lat="39.33257851894724" lon="9.432622853913529"><ele>217.0</ele><time>2026-04-25T14:29:36Z</time></trkpt><trkpt lat="39.33269123747891" lon="9.432768620704246"><ele>217.0</ele><time>2026-04-25T14:29:37Z</time></trkpt><trkpt lat="39.33281114274684" lon="9.43291485540421"><ele>213.33333333333331</ele><time>2026-04-25T14:29:38Z</time></trkpt><trkpt lat="39.33292991613326" lon="9.433081493681627"><ele>209.66666666666669</ele><time>2026-04-25T14:29:39Z</time></trkpt><trkpt lat="39.33305133781831" lon="9.433263525468547"><ele>206.0</ele><time>2026-04-25T14:29:40Z</time></trkpt><trkpt lat="39.33316146971347" lon="9.433460655821026"><ele>208.0</ele><time>2026-04-25T14:29:41Z</time></trkpt><trkpt lat="39.33324039275221" lon="9.433683966282691"><ele>210.0</ele><time>2026-04-25T14:29:42Z</time></trkpt><trkpt lat="39.333315762785666" lon="9.433909472979309"><ele>212.0</ele><time>2026-04-25T14:29:43Z</time></trkpt><trkpt lat="39.33343005168198" lon="9.4340943651839"><ele>212.0</ele><time>2026-04-25T14:29:44Z</time></trkpt><trkpt lat="39.33357089992162" lon="9.43423143309288"><ele>212.0</ele><time>2026-04-25T14:29:45Z</time></trkpt><trkpt lat="39.33369337137886" lon="9.434375739491475"><ele>212.0</ele><time>2026-04-25T14:29:46Z</time></trkpt><trkpt lat="39.33378246683646" lon="9.434540705565869"><ele>209.75</ele><time>2026-04-25T14:29:47Z</time></trkpt><trkpt lat="39.333867592914025" lon="9.434690416274613"><ele>207.5</ele><time>2026-04-25T14:29:48Z</time></trkpt><trkpt lat="39.33393537539987" lon="9.434839638662218"><ele>205.25</ele><time>2026-04-25T14:29:49Z</time></trkpt><trkpt lat="39.33395629143397" lon="9.435017827402255"><ele>203.0</ele><time>2026-04-25T14:29:50Z</time></trkpt><trkpt lat="39.33393058808893" lon="9.435212746233548"><ele>203.0</ele><time>2026-04-25T14:29:51Z</time></trkpt><trkpt lat="39.333860512034526" lon="9.435403679521041"><ele>203.0</ele><time>2026-04-25T14:29:52Z</time></trkpt><trkpt lat="39.333784796271985" lon="9.435591261457722"><ele>203.0</ele><time>2026-04-25T14:29:53Z</time></trkpt><trkpt lat="39.33373186203347" lon="9.435783401323828"><ele>203.0</ele><time>2026-04-25T14:29:54Z</time></trkpt><trkpt lat="39.333705612824474" lon="9.43598766370635"><ele>203.0</ele><time>2026-04-25T14:29:55Z</time></trkpt><trkpt lat="39.33371181261046" lon="9.436202900393347"><ele>203.0</ele><time>2026-04-25T14:29:56Z</time></trkpt><trkpt lat="39.333754416775086" lon="9.436416462025022"><ele>199.66666666666669</ele><time>2026-04-25T14:29:57Z</time></trkpt><trkpt lat="39.333837315124484" lon="9.436613400651154"><ele>196.33333333333331</ele><time>2026-04-25T14:29:58Z</time></trkpt><trkpt lat="39.33395301507743" lon="9.436791109863124"><ele>193.0</ele><time>2026-04-25T14:29:59Z</time></trkpt><trkpt lat="39.33407359682525" lon="9.436970334425494"><ele>194.66666666666666</ele><time>2026-04-25T14:30:00Z</time></trkpt><trkpt lat="39.334192815048674" lon="9.437156635508913"><ele>196.33333333333331</ele><time>2026-04-25T14:30:01Z</time></trkpt><trkpt lat="39.334306616838795" lon="9.437342600841529"><ele>198.0</ele><time>2026-04-25T14:30:02Z</time></trkpt><trkpt lat="39.33441098884599" lon="9.43753016336724"><ele>198.0</ele><time>2026-04-25T14:30:03Z</time></trkpt><trkpt lat="39.33449174344872" lon="9.437720505616943"><ele>198.0</ele><time>2026-04-25T14:30:04Z</time></trkpt><trkpt lat="39.334530566686055" lon="9.437928584489569"><ele>198.0</ele><time>2026-04-25T14:30:05Z</time></trkpt><trkpt lat="39.3345365267039" lon="9.438149892180268"><ele>194.0</ele><time>2026-04-25T14:30:06Z</time></trkpt><trkpt lat="39.33454376558917" lon="9.438368110378399"><ele>190.0</ele><time>2026-04-25T14:30:07Z</time></trkpt><trkpt lat="39.33455577414044" lon="9.438566764053304"><ele>186.0</ele><time>2026-04-25T14:30:08Z</time></trkpt><trkpt lat="39.33458238501824" lon="9.438736585047584"><ele>184.5</ele><time>2026-04-25T14:30:09Z</time></trkpt><trkpt lat="39.334649520087424" lon="9.438859345412352"><ele>183.0</ele><time>2026-04-25T14:30:10Z</time></trkpt><trkpt lat="39.33475408763379" lon="9.43892255624096"><ele>181.5</ele><time>2026-04-25T14:30:11Z</time></trkpt><trkpt lat="39.334884428969005" lon="9.43892573952442"><ele>180.0</ele><time>2026-04-25T14:30:12Z</time></trkpt><trkpt lat="39.33502479277616" lon="9.438899674507145"><ele>178.0</ele><time>2026-04-25T14:30:13Z</time></trkpt><trkpt lat="39.33518041612248" lon="9.43888569309033"><ele>176.0</ele><time>2026-04-25T14:30:14Z</time></trkpt><trkpt lat="39.335346403427565" lon="9.438894402101182"><ele>174.0</ele><time>2026-04-25T14:30:15Z</time></trkpt><trkpt lat="39.33550841641887" lon="9.438934571573482"><ele>174.33333333333334</ele><time>2026-04-25T14:30:16Z</time></trkpt><trkpt lat="39.33566651552879" lon="9.438982218578001"><ele>174.66666666666669</ele><time>2026-04-25T14:30:17Z</time></trkpt><trkpt lat="39.33583277828698" lon="9.438970755428823"><ele>175.0</ele><time>2026-04-25T14:30:18Z</time></trkpt><trkpt lat="39.336005390606" lon="9.438923177823288"><ele>175.0</ele><time>2026-04-25T14:30:19Z</time></trkpt><trkpt lat="39.33618038538319" lon="9.438894363641037"><ele>175.0</ele><time>2026-04-25T14:30:20Z</time></trkpt><trkpt lat="39.336356068078985" lon="9.43888217847088"><ele>175.0</ele><time>2026-04-25T14:30:21Z</time></trkpt><trkpt lat="39.336531167970584" lon="9.438879522414215"><ele>174.66666666666669</ele><time>2026-04-25T14:30:22Z</time></trkpt><trkpt lat="39.3367081818634" lon="9.438874857947777"><ele>174.33333333333334</ele><time>2026-04-25T14:30:23Z</time></trkpt><trkpt lat="39.33688736072766" lon="9.438873757396962"><ele>174.0</ele><time>2026-04-25T14:30:24Z</time></trkpt><trkpt lat="39.33706859049553" lon="9.438898306204901"><ele>176.0</ele><time>2026-04-25T14:30:25Z</time></trkpt><trkpt lat="39.33724827295746" lon="9.438944881031466"><ele>178.0</ele><time>2026-04-25T14:30:26Z</time></trkpt><trkpt lat="39.33743096399328" lon="9.438994080955522"><ele>180.0</ele><time>2026-04-25T14:30:27Z</time></trkpt><trkpt lat="39.33761958678679" lon="9.439035249468287"><ele>180.0</ele><time>2026-04-25T14:30:28Z</time></trkpt><trkpt lat="39.337804598639295" lon="9.439061604931325"><ele>180.0</ele><time>2026-04-25T14:30:29Z</time></trkpt><trkpt lat="39.337980679432405" lon="9.439102390174563"><ele>180.0</ele><time>2026-04-25T14:30:30Z</time></trkpt><trkpt lat="39.33814815404965" lon="9.439183340091787"><ele>182.33333333333334</ele><time>2026-04-25T14:30:31Z</time></trkpt><trkpt lat="39.33830187319331" lon="9.439302957889621"><ele>184.66666666666669</ele><time>2026-04-25T14:30:32Z</time></trkpt><trkpt lat="39.338438386236646" lon="9.439452749322964"><ele>187.0</ele><time>2026-04-25T14:30:33Z</time></trkpt><trkpt lat="39.33858710873365" lon="9.43959565783623"><ele>179.66666666666669</ele><time>2026-04-25T14:30:34Z</time></trkpt><trkpt lat="39.33875408795609" lon="9.439700597323629"><ele>172.33333333333334</ele><time>2026-04-25T14:30:35Z</time></trkpt><trkpt lat="39.33893687628969" lon="9.439769663529319"><ele>165.0</ele><time>2026-04-25T14:30:36Z</time></trkpt><trkpt lat="39.339124283419096" lon="9.439806890499357"><ele>165.0</ele><time>2026-04-25T14:30:37Z</time></trkpt><trkpt lat="39.339314744097585" lon="9.439816280485637"><ele>165.0</ele><time>2026-04-25T14:30:38Z</time></trkpt><trkpt lat="39.33950167021663" lon="9.439808903317138"><ele>165.0</ele><time>2026-04-25T14:30:39Z</time></trkpt><trkpt lat="39.339680103300545" lon="9.439756348427416"><ele>163.0</ele><time>2026-04-25T14:30:40Z</time></trkpt><trkpt lat="39.33984625730775" lon="9.439674811682846"><ele>161.0</ele><time>2026-04-25T14:30:41Z</time></trkpt><trkpt lat="39.34000468932126" lon="9.43960027071802"><ele>159.0</ele><time>2026-04-25T14:30:42Z</time></trkpt><trkpt lat="39.34014857076793" lon="9.439527898632887"><ele>161.25</ele><time>2026-04-25T14:30:43Z</time></trkpt><trkpt lat="39.340280176280366" lon="9.439466799307821"><ele>163.5</ele><time>2026-04-25T14:30:44Z</time></trkpt><trkpt lat="39.340408499282105" lon="9.439457207887745"><ele>165.75</ele><time>2026-04-25T14:30:45Z</time></trkpt><trkpt lat="39.3405296089403" lon="9.43952358119094"><ele>168.0</ele><time>2026-04-25T14:30:46Z</time></trkpt><trkpt lat="39.34062323213508" lon="9.439655044771905"><ele>168.0</ele><time>2026-04-25T14:30:47Z</time></trkpt><trkpt lat="39.34070695329867" lon="9.439823530489907"><ele>168.0</ele><time>2026-04-25T14:30:48Z</time></trkpt><trkpt lat="39.34080564342911" lon="9.439991189552138"><ele>168.0</ele><time>2026-04-25T14:30:49Z</time></trkpt><trkpt lat="39.34092144778862" lon="9.440149768698728"><ele>168.0</ele><time>2026-04-25T14:30:50Z</time></trkpt><trkpt lat="39.34105315754415" lon="9.44028591254714"><ele>168.0</ele><time>2026-04-25T14:30:51Z</time></trkpt><trkpt lat="39.34120591543679" lon="9.440393689180135"><ele>168.0</ele><time>2026-04-25T14:30:52Z</time></trkpt><trkpt lat="39.341378849474204" lon="9.440464698927933"><ele>165.66666666666666</ele><time>2026-04-25T14:30:53Z</time></trkpt><trkpt lat="39.3415585969464" lon="9.440518223039353"><ele>163.33333333333331</ele><time>2026-04-25T14:30:54Z</time></trkpt><trkpt lat="39.34174322631044" lon="9.440560390376758"><ele>161.0</ele><time>2026-04-25T14:30:55Z</time></trkpt><trkpt lat="39.341931808968596" lon="9.440602815607866"><ele>161.0</ele><time>2026-04-25T14:30:56Z</time></trkpt><trkpt lat="39.342119381395456" lon="9.440648721668834"><ele>161.0</ele><time>2026-04-25T14:30:57Z</time></trkpt><trkpt lat="39.34230584291808" lon="9.44070271157261"><ele>161.0</ele><time>2026-04-25T14:30:58Z</time></trkpt><trkpt lat="39.34248545957119" lon="9.44075117280573"><ele>160.0</ele><time>2026-04-25T14:30:59Z</time></trkpt><trkpt lat="39.342659625876735" lon="9.440794564101498"><ele>159.0</ele><time>2026-04-25T14:31:00Z</time></trkpt><trkpt lat="39.34282392240098" lon="9.440851081356964"><ele>158.0</ele><time>2026-04-25T14:31:01Z</time></trkpt><trkpt lat="39.342977748702694" lon="9.440947660369238"><ele>160.0</ele><time>2026-04-25T14:31:02Z</time></trkpt><trkpt lat="39.3430931848735" lon="9.441093399062817"><ele>162.0</ele><time>2026-04-25T14:31:03Z</time></trkpt><trkpt lat="39.34315846341728" lon="9.441276305534608"><ele>164.0</ele><time>2026-04-25T14:31:04Z</time></trkpt><trkpt lat="39.343199512864956" lon="9.441480162548112"><ele>164.0</ele><time>2026-04-25T14:31:05Z</time></trkpt><trkpt lat="39.34327162931382" lon="9.44168224346388"><ele>164.0</ele><time>2026-04-25T14:31:06Z</time></trkpt><trkpt lat="39.343381469550394" lon="9.441853013360593"><ele>164.0</ele><time>2026-04-25T14:31:07Z</time></trkpt><trkpt lat="39.34352435022327" lon="9.44197907568616"><ele>164.0</ele><time>2026-04-25T14:31:08Z</time></trkpt><trkpt lat="39.34368673423005" lon="9.442069639942718"><ele>164.0</ele><time>2026-04-25T14:31:09Z</time></trkpt><trkpt lat="39.343831964956784" lon="9.442196133509173"><ele>164.0</ele><time>2026-04-25T14:31:10Z</time></trkpt><trkpt lat="39.34395556893581" lon="9.44237251733084"><ele>163.0</ele><time>2026-04-25T14:31:11Z</time></trkpt><trkpt lat="39.34406119845656" lon="9.442565206288348"><ele>162.0</ele><time>2026-04-25T14:31:12Z</time></trkpt><trkpt lat="39.34417986363151" lon="9.442753787261488"><ele>161.0</ele><time>2026-04-25T14:31:13Z</time></trkpt><trkpt lat="39.34430446849384" lon="9.442930582860624"><ele>160.0</ele><time>2026-04-25T14:31:14Z</time></trkpt><trkpt lat="39.3444265294758" lon="9.443093661628609"><ele>159.0</ele><time>2026-04-25T14:31:15Z</time></trkpt><trkpt lat="39.344545738628895" lon="9.443245578805312"><ele>158.0</ele><time>2026-04-25T14:31:16Z</time></trkpt><trkpt lat="39.34467174389964" lon="9.443373924793287"><ele>158.0</ele><time>2026-04-25T14:31:17Z</time></trkpt><trkpt lat="39.34480580870381" lon="9.443469568059223"><ele>158.0</ele><time>2026-04-25T14:31:18Z</time></trkpt><trkpt lat="39.34495088900077" lon="9.44352418354566"><ele>158.0</ele><time>2026-04-25T14:31:19Z</time></trkpt><trkpt lat="39.345077994680835" lon="9.443589919687648"><ele>158.0</ele><time>2026-04-25T14:31:20Z</time></trkpt><trkpt lat="39.345152546407725" lon="9.443715325731146"><ele>156.5</ele><time>2026-04-25T14:31:21Z</time></trkpt><trkpt lat="39.345169484285364" lon="9.443889620946804"><ele>155.0</ele><time>2026-04-25T14:31:22Z</time></trkpt><trkpt lat="39.34515238394243" lon="9.444077219323832"><ele>153.5</ele><time>2026-04-25T14:31:23Z</time></trkpt><trkpt lat="39.34518947429541" lon="9.444243543568442"><ele>152.0</ele><time>2026-04-25T14:31:24Z</time></trkpt><trkpt lat="39.34522729264836" lon="9.444428181688227"><ele>152.0</ele><time>2026-04-25T14:31:25Z</time></trkpt><trkpt lat="39.3452413700369" lon="9.444618786049055"><ele>152.0</ele><time>2026-04-25T14:31:26Z</time></trkpt><trkpt lat="39.34519818311912" lon="9.444813465446442"><ele>152.0</ele><time>2026-04-25T14:31:27Z</time></trkpt><trkpt lat="39.34512809637534" lon="9.444994970060545"><ele>153.0</ele><time>2026-04-25T14:31:28Z</time></trkpt><trkpt lat="39.34511089857853" lon="9.445177846254179"><ele>154.0</ele><time>2026-04-25T14:31:29Z</time></trkpt><trkpt lat="39.34507597553873" lon="9.44536549537055"><ele>155.0</ele><time>2026-04-25T14:31:30Z</time></trkpt><trkpt lat="39.344986859767545" lon="9.445516546253646"><ele>156.0</ele><time>2026-04-25T14:31:31Z</time></trkpt><trkpt lat="39.34489284610849" lon="9.445638983766234"><ele>157.25</ele><time>2026-04-25T14:31:32Z</time></trkpt><trkpt lat="39.3448430998692" lon="9.445776825346554"><ele>158.5</ele><time>2026-04-25T14:31:33Z</time></trkpt><trkpt lat="39.34484941555419" lon="9.445954760733725"><ele>159.75</ele><time>2026-04-25T14:31:34Z</time></trkpt><trkpt lat="39.34488686073536" lon="9.446142615555946"><ele>161.0</ele><time>2026-04-25T14:31:35Z</time></trkpt><trkpt lat="39.34491895113424" lon="9.446334861425255"><ele>161.0</ele><time>2026-04-25T14:31:36Z</time></trkpt><trkpt lat="39.34495782098209" lon="9.446529423634292"><ele>161.0</ele><time>2026-04-25T14:31:37Z</time></trkpt><trkpt lat="39.344992757018844" lon="9.446733633146433"><ele>161.0</ele><time>2026-04-25T14:31:38Z</time></trkpt><trkpt lat="39.34502613347259" lon="9.446943240154711"><ele>160.66666666666666</ele><time>2026-04-25T14:31:39Z</time></trkpt><trkpt lat="39.345043115184595" lon="9.447158863047019"><ele>160.33333333333334</ele><time>2026-04-25T14:31:40Z</time></trkpt><trkpt lat="39.345038527957676" lon="9.447378941349646"><ele>160.0</ele><time>2026-04-25T14:31:41Z</time></trkpt><trkpt lat="39.34502002262789" lon="9.44759883415991"><ele>160.0</ele><time>2026-04-25T14:31:42Z</time></trkpt><trkpt lat="39.34497896087005" lon="9.447812730072583"><ele>160.0</ele><time>2026-04-25T14:31:43Z</time></trkpt><trkpt lat="39.34491597904129" lon="9.448020414089134"><ele>160.0</ele><time>2026-04-25T14:31:44Z</time></trkpt><trkpt lat="39.34485493199538" lon="9.448224532821428"><ele>163.66666666666669</ele><time>2026-04-25T14:31:45Z</time></trkpt><trkpt lat="39.34479740636464" lon="9.448423469942579"><ele>167.33333333333334</ele><time>2026-04-25T14:31:46Z</time></trkpt><trkpt lat="39.34472293950097" lon="9.448605834043454"><ele>171.0</ele><time>2026-04-25T14:31:47Z</time></trkpt><trkpt lat="39.34460373122783" lon="9.448747414680774"><ele>165.33333333333334</ele><time>2026-04-25T14:31:48Z</time></trkpt><trkpt lat="39.344454477147615" lon="9.448855520482002"><ele>159.66666666666669</ele><time>2026-04-25T14:31:49Z</time></trkpt><trkpt lat="39.3443166128863" lon="9.448977818705172"><ele>154.0</ele><time>2026-04-25T14:31:50Z</time></trkpt><trkpt lat="39.344191682380114" lon="9.449127279564465"><ele>154.0</ele><time>2026-04-25T14:31:51Z</time></trkpt><trkpt lat="39.3440671126344" lon="9.449276250846445"><ele>154.0</ele><time>2026-04-25T14:31:52Z</time></trkpt><trkpt lat="39.34392204718001" lon="9.449403020392845"><ele>154.0</ele><time>2026-04-25T14:31:53Z</time></trkpt><trkpt lat="39.34377862586613" lon="9.449518097375801"><ele>152.5</ele><time>2026-04-25T14:31:54Z</time></trkpt><trkpt lat="39.34365037899457" lon="9.44962917453954"><ele>151.0</ele><time>2026-04-25T14:31:55Z</time></trkpt><trkpt lat="39.343554187905454" lon="9.449748537502357"><ele>149.5</ele><time>2026-04-25T14:31:56Z</time></trkpt><trkpt lat="39.343498271765554" lon="9.449897874989848"><ele>148.0</ele><time>2026-04-25T14:31:57Z</time></trkpt><trkpt lat="39.343499172913404" lon="9.450068437255721"><ele>148.0</ele><time>2026-04-25T14:31:58Z</time></trkpt><trkpt lat="39.34354834522861" lon="9.45025985525871"><ele>148.0</ele><time>2026-04-25T14:31:59Z</time></trkpt><trkpt lat="39.34358534554693" lon="9.450460458177096"><ele>148.0</ele><time>2026-04-25T14:32:00Z</time></trkpt><trkpt lat="39.343610671139416" lon="9.450690619631196"><ele>147.0</ele><time>2026-04-25T14:32:01Z</time></trkpt><trkpt lat="39.34363452152692" lon="9.450941364144391"><ele>146.0</ele><time>2026-04-25T14:32:02Z</time></trkpt><trkpt lat="39.34366827037317" lon="9.451195222694246"><ele>145.0</ele><time>2026-04-25T14:32:03Z</time></trkpt><trkpt lat="39.34372207431795" lon="9.451436844915602"><ele>143.33333333333334</ele><time>2026-04-25T14:32:04Z</time></trkpt><trkpt lat="39.34378396696503" lon="9.45166035281923"><ele>141.66666666666666</ele><time>2026-04-25T14:32:05Z</time></trkpt><trkpt lat="39.343852400393764" lon="9.451882807218887"><ele>140.0</ele><time>2026-04-25T14:32:06Z</time></trkpt><trkpt lat="39.34394267404273" lon="9.452099156316029"><ele>141.0</ele><time>2026-04-25T14:32:07Z</time></trkpt><trkpt lat="39.34404062630001" lon="9.452299274809615"><ele>142.0</ele><time>2026-04-25T14:32:08Z</time></trkpt><trkpt lat="39.344129521461554" lon="9.452474980566432"><ele>143.0</ele><time>2026-04-25T14:32:09Z</time></trkpt><trkpt lat="39.3442246289748" lon="9.452611524513546"><ele>143.0</ele><time>2026-04-25T14:32:10Z</time></trkpt><trkpt lat="39.34434782990558" lon="9.452692036297783"><ele>143.0</ele><time>2026-04-25T14:32:11Z</time></trkpt><trkpt lat="39.34450052816017" lon="9.452718756101376"><ele>143.0</ele><time>2026-04-25T14:32:12Z</time></trkpt><trkpt lat="39.344667470688435" lon="9.452697925614281"><ele>144.66666666666666</ele><time>2026-04-25T14:32:13Z</time></trkpt><trkpt lat="39.34483274860136" lon="9.452690106277624"><ele>146.33333333333334</ele><time>2026-04-25T14:32:14Z</time></trkpt><trkpt lat="39.345006990783865" lon="9.452673651663222"><ele>148.0</ele><time>2026-04-25T14:32:15Z</time></trkpt><trkpt lat="39.345179873488924" lon="9.452601852199443"><ele>148.0</ele><time>2026-04-25T14:32:16Z</time></trkpt><trkpt lat="39.34533798043507" lon="9.45247258622077"><ele>148.0</ele><time>2026-04-25T14:32:17Z</time></trkpt><trkpt lat="39.34549691455342" lon="9.45237573200744"><ele>148.0</ele><time>2026-04-25T14:32:18Z</time></trkpt><trkpt lat="39.34567192061199" lon="9.452337479111163"><ele>144.0</ele><time>2026-04-25T14:32:19Z</time></trkpt><trkpt lat="39.34583940468692" lon="9.452302147510425"><ele>140.0</ele><time>2026-04-25T14:32:20Z</time></trkpt><trkpt lat="39.34598752797006" lon="9.452220162272253"><ele>136.0</ele><time>2026-04-25T14:32:21Z</time></trkpt><trkpt lat="39.34612788716106" lon="9.452133437994089"><ele>145.33333333333334</ele><time>2026-04-25T14:32:22Z</time></trkpt><trkpt lat="39.346283724982236" lon="9.452083042082425"><ele>154.66666666666666</ele><time>2026-04-25T14:32:23Z</time></trkpt><trkpt lat="39.34645830068496" lon="9.45207591896356"><ele>164.0</ele><time>2026-04-25T14:32:24Z</time></trkpt><trkpt lat="39.34663386750004" lon="9.452076214332543"><ele>164.0</ele><time>2026-04-25T14:32:25Z</time></trkpt><trkpt lat="39.34680171405712" lon="9.452067402125028"><ele>164.0</ele><time>2026-04-25T14:32:26Z</time></trkpt><trkpt lat="39.34696429547645" lon="9.452051038978192"><ele>164.0</ele><time>2026-04-25T14:32:27Z</time></trkpt><trkpt lat="39.347125859255385" lon="9.452034027421536"><ele>163.66666666666666</ele><time>2026-04-25T14:32:28Z</time></trkpt><trkpt lat="39.34728246907024" lon="9.45201754613362"><ele>163.33333333333334</ele><time>2026-04-25T14:32:29Z</time></trkpt><trkpt lat="39.347436311799754" lon="9.452011570002908"><ele>163.0</ele><time>2026-04-25T14:32:30Z</time></trkpt><trkpt lat="39.34758615601659" lon="9.452045117503038"><ele>150.66666666666669</ele><time>2026-04-25T14:32:31Z</time></trkpt><trkpt lat="39.34772206043513" lon="9.45214283280038"><ele>138.33333333333334</ele><time>2026-04-25T14:32:32Z</time></trkpt><trkpt lat="39.34785099718267" lon="9.452269188686657"><ele>126.0</ele><time>2026-04-25T14:32:33Z</time></trkpt><trkpt lat="39.347984497528664" lon="9.452391883362411"><ele>129.5</ele><time>2026-04-25T14:32:34Z</time></trkpt><trkpt lat="39.34811548716862" lon="9.452486594893424"><ele>133.0</ele><time>2026-04-25T14:32:35Z</time></trkpt><trkpt lat="39.34823481501016" lon="9.45257048318275"><ele>136.5</ele><time>2026-04-25T14:32:36Z</time></trkpt><trkpt lat="39.348329262128054" lon="9.452674041662371"><ele>140.0</ele><time>2026-04-25T14:32:37Z</time></trkpt><trkpt lat="39.34838272744946" lon="9.452802249350254"><ele>140.0</ele><time>2026-04-25T14:32:38Z</time></trkpt><trkpt lat="39.3483719965643" lon="9.45294587699079"><ele>140.0</ele><time>2026-04-25T14:32:39Z</time></trkpt><trkpt lat="39.34829691328699" lon="9.453080673872314"><ele>140.0</ele><time>2026-04-25T14:32:40Z</time></trkpt><trkpt lat="39.3481905583653" lon="9.453208514536644"><ele>140.0</ele><time>2026-04-25T14:32:41Z</time></trkpt><trkpt lat="39.34810179904082" lon="9.453362733762193"><ele>138.75</ele><time>2026-04-25T14:32:42Z</time></trkpt><trkpt lat="39.34802200669527" lon="9.453504894984281"><ele>137.5</ele><time>2026-04-25T14:32:43Z</time></trkpt><trkpt lat="39.347943453518916" lon="9.453650379567502"><ele>136.25</ele><time>2026-04-25T14:32:44Z</time></trkpt><trkpt lat="39.34790648358674" lon="9.45382492771288"><ele>135.0</ele><time>2026-04-25T14:32:45Z</time></trkpt><trkpt lat="39.347919089176386" lon="9.454024979081051"><ele>135.0</ele><time>2026-04-25T14:32:46Z</time></trkpt><trkpt lat="39.347967972814764" lon="9.454227319175141"><ele>135.0</ele><time>2026-04-25T14:32:47Z</time></trkpt><trkpt lat="39.34802274960527" lon="9.454423238571914"><ele>135.0</ele><time>2026-04-25T14:32:48Z</time></trkpt><trkpt lat="39.34807849863944" lon="9.454613242413377"><ele>134.25</ele><time>2026-04-25T14:32:49Z</time></trkpt><trkpt lat="39.34814354236917" lon="9.454761336707104"><ele>133.5</ele><time>2026-04-25T14:32:50Z</time></trkpt><trkpt lat="39.34826411053824" lon="9.45485878039403"><ele>132.75</ele><time>2026-04-25T14:32:51Z</time></trkpt><trkpt lat="39.34841067268388" lon="9.454924580903223"><ele>132.0</ele><time>2026-04-25T14:32:52Z</time></trkpt><trkpt lat="39.348543673809274" lon="9.455011054996872"><ele>132.0</ele><time>2026-04-25T14:32:53Z</time></trkpt><trkpt lat="39.34867417918193" lon="9.455114469194655"><ele>132.0</ele><time>2026-04-25T14:32:54Z</time></trkpt><trkpt lat="39.34879556972573" lon="9.45526174740111"><ele>132.0</ele><time>2026-04-25T14:32:55Z</time></trkpt><trkpt lat="39.348898881554845" lon="9.455441803175988"><ele>136.0</ele><time>2026-04-25T14:32:56Z</time></trkpt><trkpt lat="39.348992890607086" lon="9.455639204105427"><ele>140.0</ele><time>2026-04-25T14:32:57Z</time></trkpt><trkpt lat="39.34910035189732" lon="9.455829090625912"><ele>144.0</ele><time>2026-04-25T14:32:58Z</time></trkpt><trkpt lat="39.349219818137314" lon="9.456013404666894"><ele>144.0</ele><time>2026-04-25T14:32:59Z</time></trkpt><trkpt lat="39.34933859028535" lon="9.45619923037625"><ele>144.0</ele><time>2026-04-25T14:33:00Z</time></trkpt><trkpt lat="39.349453438742685" lon="9.456376325893135"><ele>144.0</ele><time>2026-04-25T14:33:01Z</time></trkpt><trkpt lat="39.34957106823989" lon="9.456524415475567"><ele>148.66666666666666</ele><time>2026-04-25T14:33:02Z</time></trkpt><trkpt lat="39.349693727164926" lon="9.456649425715364"><ele>153.33333333333331</ele><time>2026-04-25T14:33:03Z</time></trkpt><trkpt lat="39.349789540493724" lon="9.456790007514188"><ele>158.0</ele><time>2026-04-25T14:33:04Z</time></trkpt><trkpt lat="39.34984683568952" lon="9.456971418417817"><ele>154.5</ele><time>2026-04-25T14:33:05Z</time></trkpt><trkpt lat="39.34990050977659" lon="9.457140630924522"><ele>151.0</ele><time>2026-04-25T14:33:06Z</time></trkpt><trkpt lat="39.34992878569268" lon="9.457307022644253"><ele>147.5</ele><time>2026-04-25T14:33:07Z</time></trkpt><trkpt lat="39.34991623126573" lon="9.457497514489146"><ele>144.0</ele><time>2026-04-25T14:33:08Z</time></trkpt><trkpt lat="39.349863780217056" lon="9.457700218766918"><ele>144.0</ele><time>2026-04-25T14:33:09Z</time></trkpt><trkpt lat="39.34981571501593" lon="9.457915804600164"><ele>144.0</ele><time>2026-04-25T14:33:10Z</time></trkpt><trkpt lat="39.34976580620973" lon="9.458135018381133"><ele>144.0</ele><time>2026-04-25T14:33:11Z</time></trkpt><trkpt lat="39.349710833095635" lon="9.458353677624268"><ele>139.0</ele><time>2026-04-25T14:33:12Z</time></trkpt><trkpt lat="39.34964494847279" lon="9.458562007272596"><ele>134.0</ele><time>2026-04-25T14:33:13Z</time></trkpt><trkpt lat="39.349549030067486" lon="9.458750443355058"><ele>129.0</ele><time>2026-04-25T14:33:14Z</time></trkpt><trkpt lat="39.34945067724703" lon="9.45892991812896"><ele>129.0</ele><time>2026-04-25T14:33:15Z</time></trkpt><trkpt lat="39.349380399042545" lon="9.459123847340422"><ele>129.0</ele><time>2026-04-25T14:33:16Z</time></trkpt><trkpt lat="39.34933737778859" lon="9.459334745036793"><ele>129.0</ele><time>2026-04-25T14:33:17Z</time></trkpt><trkpt lat="39.349328917336706" lon="9.459554723015422"><ele>129.0</ele><time>2026-04-25T14:33:18Z</time></trkpt><trkpt lat="39.349349110935016" lon="9.459774908541673"><ele>129.0</ele><time>2026-04-25T14:33:19Z</time></trkpt><trkpt lat="39.34935199908386" lon="9.45999828914121"><ele>129.0</ele><time>2026-04-25T14:33:20Z</time></trkpt><trkpt lat="39.349326536008334" lon="9.4602135709934"><ele>129.0</ele><time>2026-04-25T14:33:21Z</time></trkpt><trkpt lat="39.349340142820516" lon="9.460418664350605"><ele>129.0</ele><time>2026-04-25T14:33:22Z</time></trkpt><trkpt lat="39.34939612557276" lon="9.460621249632338"><ele>129.0</ele><time>2026-04-25T14:33:23Z</time></trkpt><trkpt lat="39.349458334337235" lon="9.460815928941463"><ele>126.66666666666666</ele><time>2026-04-25T14:33:24Z</time></trkpt><trkpt lat="39.34955013298276" lon="9.460964887812377"><ele>124.33333333333333</ele><time>2026-04-25T14:33:25Z</time></trkpt><trkpt lat="39.34967578064981" lon="9.461065845581267"><ele>122.0</ele><time>2026-04-25T14:33:26Z</time></trkpt><trkpt lat="39.34982619144391" lon="9.461136450504336"><ele>124.33333333333333</ele><time>2026-04-25T14:33:27Z</time></trkpt><trkpt lat="39.34998160659015" lon="9.461214247278795"><ele>126.66666666666666</ele><time>2026-04-25T14:33:28Z</time></trkpt><trkpt lat="39.35012096242283" lon="9.461327548172953"><ele>129.0</ele><time>2026-04-25T14:33:29Z</time></trkpt><trkpt lat="39.35025521899801" lon="9.461443111274184"><ele>129.0</ele><time>2026-04-25T14:33:30Z</time></trkpt><trkpt lat="39.35036218035039" lon="9.461600982827402"><ele>129.0</ele><time>2026-04-25T14:33:31Z</time></trkpt><trkpt lat="39.350431883596215" lon="9.461800646573913"><ele>129.0</ele><time>2026-04-25T14:33:32Z</time></trkpt><trkpt lat="39.350467254264956" lon="9.462021949796624"><ele>123.66666666666666</ele><time>2026-04-25T14:33:33Z</time></trkpt><trkpt lat="39.350512656583234" lon="9.46222920084545"><ele>118.33333333333333</ele><time>2026-04-25T14:33:34Z</time></trkpt><trkpt lat="39.35056711097217" lon="9.46242874324405"><ele>113.0</ele><time>2026-04-25T14:33:35Z</time></trkpt><trkpt lat="39.35064011296124" lon="9.462602570769505"><ele>122.25</ele><time>2026-04-25T14:33:36Z</time></trkpt><trkpt lat="39.350725430833656" lon="9.462758031349464"><ele>131.5</ele><time>2026-04-25T14:33:37Z</time></trkpt><trkpt lat="39.35079014173799" lon="9.462909985266373"><ele>140.75</ele><time>2026-04-25T14:33:38Z</time></trkpt><trkpt lat="39.350805578553555" lon="9.463076766611161"><ele>150.0</ele><time>2026-04-25T14:33:39Z</time></trkpt><trkpt lat="39.350756405917025" lon="9.463251657875363"><ele>150.0</ele><time>2026-04-25T14:33:40Z</time></trkpt><trkpt lat="39.350686663987695" lon="9.463436066347803"><ele>150.0</ele><time>2026-04-25T14:33:41Z</time></trkpt><trkpt lat="39.350633692142765" lon="9.463644642758942"><ele>150.0</ele><time>2026-04-25T14:33:42Z</time></trkpt><trkpt lat="39.350589964054265" lon="9.4638593026202"><ele>152.33333333333334</ele><time>2026-04-25T14:33:43Z</time></trkpt><trkpt lat="39.35054996601202" lon="9.464076607730542"><ele>154.66666666666669</ele><time>2026-04-25T14:33:44Z</time></trkpt><trkpt lat="39.350510225006246" lon="9.464287543892695"><ele>157.0</ele><time>2026-04-25T14:33:45Z</time></trkpt><trkpt lat="39.3504649581179" lon="9.464492483257928"><ele>147.33333333333334</ele><time>2026-04-25T14:33:46Z</time></trkpt><trkpt lat="39.35040579809409" lon="9.464682979202006"><ele>137.66666666666666</ele><time>2026-04-25T14:33:47Z</time></trkpt><trkpt lat="39.350316458844716" lon="9.464846501618348"><ele>128.0</ele><time>2026-04-25T14:33:48Z</time></trkpt><trkpt lat="39.35017815744035" lon="9.464968457644002"><ele>128.0</ele><time>2026-04-25T14:33:49Z</time></trkpt><trkpt lat="39.350015388440184" lon="9.465056289943778"><ele>128.0</ele><time>2026-04-25T14:33:50Z</time></trkpt><trkpt lat="39.34985346194108" lon="9.465148292438904"><ele>128.0</ele><time>2026-04-25T14:33:51Z</time></trkpt><trkpt lat="39.349685430680864" lon="9.465252329224201"><ele>130.33333333333331</ele><time>2026-04-25T14:33:52Z</time></trkpt><trkpt lat="39.349515431843955" lon="9.465358558414028"><ele>132.66666666666666</ele><time>2026-04-25T14:33:53Z</time></trkpt><trkpt lat="39.34934910324486" lon="9.465465133919315"><ele>135.0</ele><time>2026-04-25T14:33:54Z</time></trkpt><trkpt lat="39.3491906629305" lon="9.465573058255364"><ele>135.0</ele><time>2026-04-25T14:33:55Z</time></trkpt><trkpt lat="39.349049933012765" lon="9.465704671051752"><ele>135.0</ele><time>2026-04-25T14:33:56Z</time></trkpt><trkpt lat="39.34892290184801" lon="9.465867064142511"><ele>135.0</ele><time>2026-04-25T14:33:57Z</time></trkpt><trkpt lat="39.34878868188372" lon="9.46601315717781"><ele>139.0</ele><time>2026-04-25T14:33:58Z</time></trkpt><trkpt lat="39.34863271911057" lon="9.46611841308292"><ele>143.0</ele><time>2026-04-25T14:33:59Z</time></trkpt><trkpt lat="39.34846866054073" lon="9.466216651318243"><ele>147.0</ele><time>2026-04-25T14:34:00Z</time></trkpt><trkpt lat="39.34831402665121" lon="9.466323509763987"><ele>147.0</ele><time>2026-04-25T14:34:01Z</time></trkpt><trkpt lat="39.34816791915952" lon="9.466413052162583"><ele>147.0</ele><time>2026-04-25T14:34:02Z</time></trkpt><trkpt lat="39.348021145599056" lon="9.466467171002714"><ele>147.0</ele><time>2026-04-25T14:34:03Z</time></trkpt><trkpt lat="39.34787384557388" lon="9.466444691533118"><ele>149.0</ele><time>2026-04-25T14:34:04Z</time></trkpt><trkpt lat="39.34772981806171" lon="9.466358390269095"><ele>151.0</ele><time>2026-04-25T14:34:05Z</time></trkpt><trkpt lat="39.347610695043485" lon="9.466229662226446"><ele>153.0</ele><time>2026-04-25T14:34:06Z</time></trkpt><trkpt lat="39.347538064428456" lon="9.466057130494098"><ele>150.25</ele><time>2026-04-25T14:34:07Z</time></trkpt><trkpt lat="39.34749232205665" lon="9.46588404684689"><ele>147.5</ele><time>2026-04-25T14:34:08Z</time></trkpt><trkpt lat="39.34739814819293" lon="9.465770501198723"><ele>144.75</ele><time>2026-04-25T14:34:09Z</time></trkpt><trkpt lat="39.34725667257032" lon="9.465711324734091"><ele>142.0</ele><time>2026-04-25T14:34:10Z</time></trkpt><trkpt lat="39.347092580191116" lon="9.465698764487694"><ele>142.0</ele><time>2026-04-25T14:34:11Z</time></trkpt><trkpt lat="39.34693276378916" lon="9.465673899782354"><ele>142.0</ele><time>2026-04-25T14:34:12Z</time></trkpt><trkpt lat="39.34677320586685" lon="9.465607257476188"><ele>142.0</ele><time>2026-04-25T14:34:13Z</time></trkpt><trkpt lat="39.346621210171165" lon="9.465512781982651"><ele>139.33333333333334</ele><time>2026-04-25T14:34:14Z</time></trkpt><trkpt lat="39.346474805314855" lon="9.465427303624287"><ele>136.66666666666666</ele><time>2026-04-25T14:34:15Z</time></trkpt><trkpt lat="39.346338060672814" lon="9.465324788053033"><ele>134.0</ele><time>2026-04-25T14:34:16Z</time></trkpt><trkpt lat="39.346229634630355" lon="9.465184041643495"><ele>134.0</ele><time>2026-04-25T14:34:17Z</time></trkpt><trkpt lat="39.346170757342854" lon="9.465002965081965"><ele>134.0</ele><time>2026-04-25T14:34:18Z</time></trkpt><trkpt lat="39.34615354882648" lon="9.464815786475196"><ele>134.0</ele><time>2026-04-25T14:34:19Z</time></trkpt><trkpt lat="39.34612641149374" lon="9.464636212769788"><ele>134.0</ele><time>2026-04-25T14:34:20Z</time></trkpt><trkpt lat="39.34604431828977" lon="9.46451497160674"><ele>134.0</ele><time>2026-04-25T14:34:21Z</time></trkpt><trkpt lat="39.345932350598325" lon="9.464462292453739"><ele>134.0</ele><time>2026-04-25T14:34:22Z</time></trkpt><trkpt lat="39.3458104501375" lon="9.46449277323069"><ele>134.0</ele><time>2026-04-25T14:34:23Z</time></trkpt><trkpt lat="39.34570195726775" lon="9.46459782118967"><ele>134.0</ele><time>2026-04-25T14:34:24Z</time></trkpt><trkpt lat="39.34559339962004" lon="9.464769648404628"><ele>127.5</ele><time>2026-04-25T14:34:25Z</time></trkpt><trkpt lat="39.3454988115672" lon="9.464927764075057"><ele>121.0</ele><time>2026-04-25T14:34:26Z</time></trkpt><trkpt lat="39.345399950291146" lon="9.465065022743433"><ele>114.5</ele><time>2026-04-25T14:34:27Z</time></trkpt><trkpt lat="39.345330404218544" lon="9.4651974685944"><ele>108.0</ele><time>2026-04-25T14:34:28Z</time></trkpt><trkpt lat="39.34531785784991" lon="9.465353991461356"><ele>106.0</ele><time>2026-04-25T14:34:29Z</time></trkpt><trkpt lat="39.3453659933461" lon="9.465520666949047"><ele>104.0</ele><time>2026-04-25T14:34:30Z</time></trkpt><trkpt lat="39.34545632053624" lon="9.46566514016834"><ele>102.0</ele><time>2026-04-25T14:34:31Z</time></trkpt><trkpt lat="39.34555625907166" lon="9.465808360111087"><ele>100.0</ele><time>2026-04-25T14:34:32Z</time></trkpt><trkpt lat="39.34565242025063" lon="9.465966081504668"><ele>111.66666666666667</ele><time>2026-04-25T14:34:33Z</time></trkpt><trkpt lat="39.345717686127735" lon="9.466157323198644"><ele>123.33333333333334</ele><time>2026-04-25T14:34:34Z</time></trkpt><trkpt lat="39.34574107413533" lon="9.46637224555019"><ele>135.0</ele><time>2026-04-25T14:34:35Z</time></trkpt><trkpt lat="39.345734652487124" lon="9.466579657358038"><ele>135.0</ele><time>2026-04-25T14:34:36Z</time></trkpt><trkpt lat="39.34574343906477" lon="9.466776431963984"><ele>135.0</ele><time>2026-04-25T14:34:37Z</time></trkpt><trkpt lat="39.34577006364846" lon="9.466966800575866"><ele>135.0</ele><time>2026-04-25T14:34:38Z</time></trkpt><trkpt lat="39.34583895849266" lon="9.467129261581025"><ele>135.0</ele><time>2026-04-25T14:34:39Z</time></trkpt><trkpt lat="39.345926192774876" lon="9.467267991356598"><ele>132.25</ele><time>2026-04-25T14:34:40Z</time></trkpt><trkpt lat="39.34598769678804" lon="9.46740899396487"><ele>129.5</ele><time>2026-04-25T14:34:41Z</time></trkpt><trkpt lat="39.346008222094824" lon="9.467561978650501"><ele>126.75</ele><time>2026-04-25T14:34:42Z</time></trkpt><trkpt lat="39.345977138116325" lon="9.467712947194316"><ele>124.0</ele><time>2026-04-25T14:34:43Z</time></trkpt><trkpt lat="39.34590282419741" lon="9.46783684002082"><ele>124.0</ele><time>2026-04-25T14:34:44Z</time></trkpt><trkpt lat="39.34577942477483" lon="9.467921329869524"><ele>124.0</ele><time>2026-04-25T14:34:45Z</time></trkpt><trkpt lat="39.34566604597452" lon="9.468027188685268"><ele>124.0</ele><time>2026-04-25T14:34:46Z</time></trkpt><trkpt lat="39.34555611885817" lon="9.468138880525066"><ele>124.0</ele><time>2026-04-25T14:34:47Z</time></trkpt><trkpt lat="39.34544352589564" lon="9.468245908507033"><ele>118.75</ele><time>2026-04-25T14:34:48Z</time></trkpt><trkpt lat="39.34533590123967" lon="9.468359508247904"><ele>113.5</ele><time>2026-04-25T14:34:49Z</time></trkpt><trkpt lat="39.34523991241183" lon="9.468507160803865"><ele>108.25</ele><time>2026-04-25T14:34:50Z</time></trkpt><trkpt lat="39.345164497488526" lon="9.468672233053931"><ele>103.0</ele><time>2026-04-25T14:34:51Z</time></trkpt><trkpt lat="39.34511638172245" lon="9.468844227812555"><ele>103.0</ele><time>2026-04-25T14:34:52Z</time></trkpt><trkpt lat="39.345107515747245" lon="9.46901131119025"><ele>103.0</ele><time>2026-04-25T14:34:53Z</time></trkpt><trkpt lat="39.34516848993279" lon="9.46915334087747"><ele>103.0</ele><time>2026-04-25T14:34:54Z</time></trkpt><trkpt lat="39.345277319528876" lon="9.469253045864855"><ele>103.0</ele><time>2026-04-25T14:34:55Z</time></trkpt><trkpt lat="39.345414472349916" lon="9.46931608205975"><ele>116.0</ele><time>2026-04-25T14:34:56Z</time></trkpt><trkpt lat="39.34555346226647" lon="9.469389701032096"><ele>129.0</ele><time>2026-04-25T14:34:57Z</time></trkpt><trkpt lat="39.34569287595082" lon="9.46948097713405"><ele>142.0</ele><time>2026-04-25T14:34:58Z</time></trkpt><trkpt lat="39.34583376831607" lon="9.469590247638962"><ele>131.33333333333334</ele><time>2026-04-25T14:34:59Z</time></trkpt><trkpt lat="39.34595927278678" lon="9.469738055199342"><ele>120.66666666666666</ele><time>2026-04-25T14:35:00Z</time></trkpt><trkpt lat="39.34605844040238" lon="9.469926850363516"><ele>110.0</ele><time>2026-04-25T14:35:01Z</time></trkpt><trkpt lat="39.34614439167438" lon="9.470136741942428"><ele>110.0</ele><time>2026-04-25T14:35:02Z</time></trkpt><trkpt lat="39.346226438568245" lon="9.470353998992941"><ele>110.0</ele><time>2026-04-25T14:35:03Z</time></trkpt><trkpt lat="39.34630784535522" lon="9.470561166939396"><ele>110.0</ele><time>2026-04-25T14:35:04Z</time></trkpt><trkpt lat="39.34638874907615" lon="9.470749832390235"><ele>112.33333333333333</ele><time>2026-04-25T14:35:05Z</time></trkpt><trkpt lat="39.34645111436656" lon="9.470936704315967"><ele>114.66666666666666</ele><time>2026-04-25T14:35:06Z</time></trkpt><trkpt lat="39.34647790660034" lon="9.471152708591823"><ele>117.0</ele><time>2026-04-25T14:35:07Z</time></trkpt><trkpt lat="39.34647273771297" lon="9.471381367062357"><ele>117.0</ele><time>2026-04-25T14:35:08Z</time></trkpt><trkpt lat="39.346468180260835" lon="9.47161662559003"><ele>117.0</ele><time>2026-04-25T14:35:09Z</time></trkpt><trkpt lat="39.3464672778505" lon="9.471842322978686"><ele>117.0</ele><time>2026-04-25T14:35:10Z</time></trkpt><trkpt lat="39.346444253722964" lon="9.472056255874666"><ele>115.0</ele><time>2026-04-25T14:35:11Z</time></trkpt><trkpt lat="39.346384621303464" lon="9.472260793161814"><ele>113.0</ele><time>2026-04-25T14:35:12Z</time></trkpt><trkpt lat="39.34632466461166" lon="9.472462012687407"><ele>111.0</ele><time>2026-04-25T14:35:13Z</time></trkpt><trkpt lat="39.34627609896469" lon="9.472637983191309"><ele>106.25</ele><time>2026-04-25T14:35:14Z</time></trkpt><trkpt lat="39.346254781792744" lon="9.472795135961492"><ele>101.5</ele><time>2026-04-25T14:35:15Z</time></trkpt><trkpt lat="39.346286103147165" lon="9.472946209225272"><ele>96.75</ele><time>2026-04-25T14:35:16Z</time></trkpt><trkpt lat="39.3463779184911" lon="9.473079352205048"><ele>92.0</ele><time>2026-04-25T14:35:17Z</time></trkpt><trkpt lat="39.34650893870229" lon="9.473195877206841"><ele>92.0</ele><time>2026-04-25T14:35:18Z</time></trkpt><trkpt lat="39.3466329685871" lon="9.473323582804698"><ele>92.0</ele><time>2026-04-25T14:35:19Z</time></trkpt><trkpt lat="39.346755399690785" lon="9.473462725645792"><ele>92.0</ele><time>2026-04-25T14:35:20Z</time></trkpt><trkpt lat="39.34688463471563" lon="9.473594710042834"><ele>92.0</ele><time>2026-04-25T14:35:21Z</time></trkpt><trkpt lat="39.34702508592908" lon="9.47368584751599"><ele>92.0</ele><time>2026-04-25T14:35:22Z</time></trkpt><trkpt lat="39.34718426404231" lon="9.473715125767924"><ele>92.0</ele><time>2026-04-25T14:35:23Z</time></trkpt><trkpt lat="39.347350151457746" lon="9.47369657443485"><ele>96.66666666666667</ele><time>2026-04-25T14:35:24Z</time></trkpt><trkpt lat="39.347519426669066" lon="9.473658217211776"><ele>101.33333333333334</ele><time>2026-04-25T14:35:25Z</time></trkpt><trkpt lat="39.34769171944069" lon="9.473627809321341"><ele>106.0</ele><time>2026-04-25T14:35:26Z</time></trkpt><trkpt lat="39.34786741893057" lon="9.473598726947987"><ele>106.0</ele><time>2026-04-25T14:35:27Z</time></trkpt><trkpt lat="39.34803577295976" lon="9.47357801722618"><ele>106.0</ele><time>2026-04-25T14:35:28Z</time></trkpt><trkpt lat="39.34819945377872" lon="9.473569273140873"><ele>106.0</ele><time>2026-04-25T14:35:29Z</time></trkpt><trkpt lat="39.34835894713042" lon="9.473595169510627"><ele>104.66666666666667</ele><time>2026-04-25T14:35:30Z</time></trkpt><trkpt lat="39.34850440609634" lon="9.473683627421147"><ele>103.33333333333334</ele><time>2026-04-25T14:35:31Z</time></trkpt><trkpt lat="39.34862981863115" lon="9.47382439665888"><ele>102.0</ele><time>2026-04-25T14:35:32Z</time></trkpt><trkpt lat="39.34875980428156" lon="9.473965072737592"><ele>96.0</ele><time>2026-04-25T14:35:33Z</time></trkpt><trkpt lat="39.34891874162023" lon="9.474068482291138"><ele>90.0</ele><time>2026-04-25T14:35:34Z</time></trkpt><trkpt lat="39.34908394481359" lon="9.474164530018545"><ele>84.0</ele><time>2026-04-25T14:35:35Z</time></trkpt><trkpt lat="39.34924126524606" lon="9.474264022116923"><ele>84.0</ele><time>2026-04-25T14:35:36Z</time></trkpt><trkpt lat="39.349394411816554" lon="9.474365254925138"><ele>84.0</ele><time>2026-04-25T14:35:37Z</time></trkpt><trkpt lat="39.349545963639635" lon="9.474456756774853"><ele>84.0</ele><time>2026-04-25T14:35:38Z</time></trkpt><trkpt lat="39.34968612914321" lon="9.474549023463405"><ele>80.0</ele><time>2026-04-25T14:35:39Z</time></trkpt><trkpt lat="39.3498029796122" lon="9.474673172788409"><ele>76.0</ele><time>2026-04-25T14:35:40Z</time></trkpt><trkpt lat="39.34989145362718" lon="9.474844644565712"><ele>72.0</ele><time>2026-04-25T14:35:41Z</time></trkpt><trkpt lat="39.349964799529495" lon="9.475036464498539"><ele>72.0</ele><time>2026-04-25T14:35:42Z</time></trkpt><trkpt lat="39.35005843691401" lon="9.47521993463622"><ele>72.0</ele><time>2026-04-25T14:35:43Z</time></trkpt><trkpt lat="39.3501607093893" lon="9.47540140430635"><ele>72.0</ele><time>2026-04-25T14:35:44Z</time></trkpt><trkpt lat="39.35026637016352" lon="9.475584740980059"><ele>68.66666666666667</ele><time>2026-04-25T14:35:45Z</time></trkpt><trkpt lat="39.35038458899861" lon="9.475760302664305"><ele>65.33333333333334</ele><time>2026-04-25T14:35:46Z</time></trkpt><trkpt lat="39.35052527863935" lon="9.475910289469752"><ele>62.0</ele><time>2026-04-25T14:35:47Z</time></trkpt><trkpt lat="39.35068857087275" lon="9.476033933562872"><ele>62.0</ele><time>2026-04-25T14:35:48Z</time></trkpt><trkpt lat="39.35085311779135" lon="9.476145192093576"><ele>62.0</ele><time>2026-04-25T14:35:49Z</time></trkpt><trkpt lat="39.35101874198691" lon="9.476263921495983"><ele>62.0</ele><time>2026-04-25T14:35:50Z</time></trkpt><trkpt lat="39.351184588966156" lon="9.476389062127973"><ele>61.0</ele><time>2026-04-25T14:35:51Z</time></trkpt><trkpt lat="39.351354103345166" lon="9.476513450367312"><ele>60.0</ele><time>2026-04-25T14:35:52Z</time></trkpt><trkpt lat="39.351524788879296" lon="9.476627426004075"><ele>59.0</ele><time>2026-04-25T14:35:53Z</time></trkpt><trkpt lat="39.35169733760484" lon="9.476737581020823"><ele>58.66666666666667</ele><time>2026-04-25T14:35:54Z</time></trkpt><trkpt lat="39.3518668476206" lon="9.476861799571678"><ele>58.33333333333333</ele><time>2026-04-25T14:35:55Z</time></trkpt><trkpt lat="39.35201188932146" lon="9.477012940401307"><ele>58.0</ele><time>2026-04-25T14:35:56Z</time></trkpt><trkpt lat="39.35213338936628" lon="9.47720656177946"><ele>55.666666666666664</ele><time>2026-04-25T14:35:57Z</time></trkpt><trkpt lat="39.352208220818426" lon="9.477432632719841"><ele>53.33333333333333</ele><time>2026-04-25T14:35:58Z</time></trkpt><trkpt lat="39.352228412550105" lon="9.477681943304804"><ele>51.0</ele><time>2026-04-25T14:35:59Z</time></trkpt><trkpt lat="39.35219665640287" lon="9.477932456395068"><ele>58.33333333333333</ele><time>2026-04-25T14:36:00Z</time></trkpt><trkpt lat="39.352111915354165" lon="9.478167715492695"><ele>65.66666666666666</ele><time>2026-04-25T14:36:01Z</time></trkpt><trkpt lat="39.35199605456926" lon="9.478387496434989"><ele>73.0</ele><time>2026-04-25T14:36:02Z</time></trkpt><trkpt lat="39.35188596951639" lon="9.478611056450301"><ele>68.66666666666666</ele><time>2026-04-25T14:36:03Z</time></trkpt><trkpt lat="39.35177614607284" lon="9.478838318862921"><ele>64.33333333333333</ele><time>2026-04-25T14:36:04Z</time></trkpt><trkpt lat="39.35166544690538" lon="9.479066755219295"><ele>60.0</ele><time>2026-04-25T14:36:05Z</time></trkpt><trkpt lat="39.3515537559809" lon="9.479292497165597"><ele>60.0</ele><time>2026-04-25T14:36:06Z</time></trkpt><trkpt lat="39.35144012157564" lon="9.479518313633548"><ele>60.0</ele><time>2026-04-25T14:36:07Z</time></trkpt><trkpt lat="39.351325219404586" lon="9.479745941715105"><ele>60.0</ele><time>2026-04-25T14:36:08Z</time></trkpt><trkpt lat="39.351212574030555" lon="9.479973238967604"><ele>59.33333333333333</ele><time>2026-04-25T14:36:09Z</time></trkpt><trkpt lat="39.35110433037714" lon="9.480205341421334"><ele>58.666666666666664</ele><time>2026-04-25T14:36:10Z</time></trkpt><trkpt lat="39.35100054261323" lon="9.48044031285202"><ele>58.0</ele><time>2026-04-25T14:36:11Z</time></trkpt><trkpt lat="39.350905234721644" lon="9.480678440313959"><ele>58.0</ele><time>2026-04-25T14:36:12Z</time></trkpt><trkpt lat="39.35081884688596" lon="9.480921972714688"><ele>58.0</ele><time>2026-04-25T14:36:13Z</time></trkpt><trkpt lat="39.35074270839893" lon="9.48117144335423"><ele>58.0</ele><time>2026-04-25T14:36:14Z</time></trkpt><trkpt lat="39.35067107212914" lon="9.48143581604861"><ele>58.33333333333333</ele><time>2026-04-25T14:36:15Z</time></trkpt><trkpt lat="39.35060289021212" lon="9.481697105288237"><ele>58.66666666666667</ele><time>2026-04-25T14:36:16Z</time></trkpt><trkpt lat="39.35053227112781" lon="9.481957841508072"><ele>59.0</ele><time>2026-04-25T14:36:17Z</time></trkpt><trkpt lat="39.35045702197872" lon="9.48221693850677"><ele>59.0</ele><time>2026-04-25T14:36:18Z</time></trkpt><trkpt lat="39.35037894563668" lon="9.482474184513745"><ele>59.0</ele><time>2026-04-25T14:36:19Z</time></trkpt><trkpt lat="39.35029981536021" lon="9.482732593925816"><ele>59.0</ele><time>2026-04-25T14:36:20Z</time></trkpt><trkpt lat="39.350224968180214" lon="9.48298739996101"><ele>57.333333333333336</ele><time>2026-04-25T14:36:21Z</time></trkpt><trkpt lat="39.3501555755475" lon="9.48324279268771"><ele>55.66666666666667</ele><time>2026-04-25T14:36:22Z</time></trkpt><trkpt lat="39.35008768576488" lon="9.48349848290444"><ele>54.0</ele><time>2026-04-25T14:36:23Z</time></trkpt><trkpt lat="39.34999521260312" lon="9.483795434755871"><ele>52.66666666666667</ele><time>2026-04-25T14:36:24Z</time></trkpt><trkpt lat="39.349916178322594" lon="9.48405961974166"><ele>51.333333333333336</ele><time>2026-04-25T14:36:25Z</time></trkpt><trkpt lat="39.34983373815858" lon="9.484323116117165"><ele>50.0</ele><time>2026-04-25T14:36:26Z</time></trkpt><trkpt lat="39.34975497026773" lon="9.484586054875852"><ele>60.333333333333336</ele><time>2026-04-25T14:36:27Z</time></trkpt><trkpt lat="39.34968644782891" lon="9.484852888750753"><ele>70.66666666666667</ele><time>2026-04-25T14:36:28Z</time></trkpt><trkpt lat="39.34962812223719" lon="9.485116716507948"><ele>81.0</ele><time>2026-04-25T14:36:29Z</time></trkpt><trkpt lat="39.34959339139122" lon="9.485381754379521"><ele>77.66666666666667</ele><time>2026-04-25T14:36:30Z</time></trkpt><trkpt lat="39.34959771912281" lon="9.485646591209845"><ele>74.33333333333334</ele><time>2026-04-25T14:36:31Z</time></trkpt><trkpt lat="39.349634079538696" lon="9.485891510450761"><ele>71.0</ele><time>2026-04-25T14:36:32Z</time></trkpt><trkpt lat="39.34971470789889" lon="9.48611079753615"><ele>63.0</ele><time>2026-04-25T14:36:33Z</time></trkpt><trkpt lat="39.34985078754598" lon="9.486304331413052"><ele>55.0</ele><time>2026-04-25T14:36:34Z</time></trkpt><trkpt lat="39.35000761800984" lon="9.48648923236516"><ele>47.0</ele><time>2026-04-25T14:36:35Z</time></trkpt><trkpt lat="39.35016042672328" lon="9.486690711839419"><ele>47.0</ele><time>2026-04-25T14:36:36Z</time></trkpt><trkpt lat="39.350312921858155" lon="9.486907182380405"><ele>47.0</ele><time>2026-04-25T14:36:37Z</time></trkpt><trkpt lat="39.35046432030227" lon="9.487126925582498"><ele>45.5</ele><time>2026-04-25T14:36:38Z</time></trkpt><trkpt lat="39.350617617049345" lon="9.48734554603941"><ele>44.0</ele><time>2026-04-25T14:36:39Z</time></trkpt><trkpt lat="39.350773722820236" lon="9.487559628559483"><ele>44.0</ele><time>2026-04-25T14:36:40Z</time></trkpt><trkpt lat="39.350926441265585" lon="9.487772062893514"><ele>44.0</ele><time>2026-04-25T14:36:41Z</time></trkpt><trkpt lat="39.35107803855126" lon="9.487987272464226"><ele>44.0</ele><time>2026-04-25T14:36:42Z</time></trkpt><trkpt lat="39.35122329665395" lon="9.488214370829459"><ele>41.0</ele><time>2026-04-25T14:36:43Z</time></trkpt><trkpt lat="39.35136956092185" lon="9.488438197419732"><ele>38.0</ele><time>2026-04-25T14:36:44Z</time></trkpt><trkpt lat="39.35152200228237" lon="9.488660409814287"><ele>44.5</ele><time>2026-04-25T14:36:45Z</time></trkpt><trkpt lat="39.35167913083852" lon="9.488878078977434"><ele>51.0</ele><time>2026-04-25T14:36:46Z</time></trkpt><trkpt lat="39.351832196724715" lon="9.48909811487735"><ele>51.0</ele><time>2026-04-25T14:36:47Z</time></trkpt><trkpt lat="39.351988390455595" lon="9.489322040959607"><ele>51.0</ele><time>2026-04-25T14:36:48Z</time></trkpt><trkpt lat="39.35214178532333" lon="9.489544491223146"><ele>46.0</ele><time>2026-04-25T14:36:49Z</time></trkpt><trkpt lat="39.352296417252674" lon="9.489769020549726"><ele>41.0</ele><time>2026-04-25T14:36:50Z</time></trkpt><trkpt lat="39.35245167567944" lon="9.489991961649768"><ele>41.0</ele><time>2026-04-25T14:36:51Z</time></trkpt><trkpt lat="39.352607226983174" lon="9.49021277114668"><ele>41.0</ele><time>2026-04-25T14:36:52Z</time></trkpt><trkpt lat="39.35275936048355" lon="9.490432676095452"><ele>39.0</ele><time>2026-04-25T14:36:53Z</time></trkpt><trkpt lat="39.352896076143445" lon="9.490634512756767"><ele>37.0</ele><time>2026-04-25T14:36:54Z</time></trkpt><trkpt lat="39.35302169224502" lon="9.490830844492132"><ele>35.0</ele><time>2026-04-25T14:36:55Z</time></trkpt><trkpt lat="39.353125125747844" lon="9.491020641342667"><ele>35.0</ele><time>2026-04-25T14:36:56Z</time></trkpt><trkpt lat="39.35321190117253" lon="9.491203524849466"><ele>35.0</ele><time>2026-04-25T14:36:57Z</time></trkpt><trkpt lat="39.35328586435803" lon="9.491373978610442"><ele>35.0</ele><time>2026-04-25T14:36:58Z</time></trkpt><trkpt lat="39.35335586972463" lon="9.491511743703994"><ele>35.0</ele><time>2026-04-25T14:36:59Z</time></trkpt><trkpt lat="39.35344780139986" lon="9.491603122561418"><ele>34.25</ele><time>2026-04-25T14:37:00Z</time></trkpt><trkpt lat="39.353568784025576" lon="9.491624288434455"><ele>33.5</ele><time>2026-04-25T14:37:01Z</time></trkpt><trkpt lat="39.35369419606097" lon="9.491579734489747"><ele>32.75</ele><time>2026-04-25T14:37:02Z</time></trkpt><trkpt lat="39.35381397603286" lon="9.49146039793206"><ele>32.0</ele><time>2026-04-25T14:37:03Z</time></trkpt><trkpt lat="39.353935590862875" lon="9.49133960977086"><ele>33.5</ele><time>2026-04-25T14:37:04Z</time></trkpt><trkpt lat="39.354063716739574" lon="9.491233401219294"><ele>35.0</ele><time>2026-04-25T14:37:05Z</time></trkpt><trkpt lat="39.35418309743187" lon="9.491150173280715"><ele>36.5</ele><time>2026-04-25T14:37:06Z</time></trkpt><trkpt lat="39.35429019824016" lon="9.491102650048127"><ele>38.0</ele><time>2026-04-25T14:37:07Z</time></trkpt><trkpt lat="39.35439044712585" lon="9.491105237802891"><ele>38.0</ele><time>2026-04-25T14:37:08Z</time></trkpt><trkpt lat="39.354464116603445" lon="9.491197858374798"><ele>38.0</ele><time>2026-04-25T14:37:09Z</time></trkpt><trkpt lat="39.35451899436469" lon="9.491342560851235"><ele>38.0</ele><time>2026-04-25T14:37:10Z</time></trkpt><trkpt lat="39.35458738056556" lon="9.491509226058078"><ele>38.0</ele><time>2026-04-25T14:37:11Z</time></trkpt><trkpt lat="39.35467794993399" lon="9.491684771375075"><ele>37.0</ele><time>2026-04-25T14:37:12Z</time></trkpt><trkpt lat="39.35477413668016" lon="9.491859598510782"><ele>36.0</ele><time>2026-04-25T14:37:13Z</time></trkpt><trkpt lat="39.354874823507856" lon="9.492042696055568"><ele>35.0</ele><time>2026-04-25T14:37:14Z</time></trkpt><trkpt lat="39.35498099664934" lon="9.492237754970137"><ele>35.0</ele><time>2026-04-25T14:37:15Z</time></trkpt><trkpt lat="39.35508901723091" lon="9.49244258115922"><ele>35.0</ele><time>2026-04-25T14:37:16Z</time></trkpt><trkpt lat="39.35520112034666" lon="9.492653117168086"><ele>35.0</ele><time>2026-04-25T14:37:17Z</time></trkpt><trkpt lat="39.355317070056266" lon="9.492862179861199"><ele>33.33333333333333</ele><time>2026-04-25T14:37:18Z</time></trkpt><trkpt lat="39.35543263744356" lon="9.49307800482025"><ele>31.666666666666664</ele><time>2026-04-25T14:37:19Z</time></trkpt><trkpt lat="39.35555067982596" lon="9.493301415895187"><ele>30.0</ele><time>2026-04-25T14:37:20Z</time></trkpt><trkpt lat="39.35567433205707" lon="9.493531714855873"><ele>32.0</ele><time>2026-04-25T14:37:21Z</time></trkpt><trkpt lat="39.35580058964502" lon="9.49376242412106"><ele>34.0</ele><time>2026-04-25T14:37:22Z</time></trkpt><trkpt lat="39.35593361221045" lon="9.493992422128567"><ele>36.0</ele><time>2026-04-25T14:37:23Z</time></trkpt><trkpt lat="39.35607993575869" lon="9.494214060759045"><ele>36.0</ele><time>2026-04-25T14:37:24Z</time></trkpt><trkpt lat="39.35624749226476" lon="9.494406445937951"><ele>36.0</ele><time>2026-04-25T14:37:25Z</time></trkpt><trkpt lat="39.35643901932729" lon="9.494569223242648"><ele>37.5</ele><time>2026-04-25T14:37:26Z</time></trkpt><trkpt lat="39.35664153236935" lon="9.494708424529922"><ele>39.0</ele><time>2026-04-25T14:37:27Z</time></trkpt><trkpt lat="39.35684453778353" lon="9.494849048614483"><ele>39.0</ele><time>2026-04-25T14:37:28Z</time></trkpt><trkpt lat="39.357037983155784" lon="9.494995834610274"><ele>39.0</ele><time>2026-04-25T14:37:29Z</time></trkpt><trkpt lat="39.35723267881851" lon="9.495133735962288"><ele>39.0</ele><time>2026-04-25T14:37:30Z</time></trkpt><trkpt lat="39.35744585641032" lon="9.49523341049512"><ele>41.5</ele><time>2026-04-25T14:37:31Z</time></trkpt><trkpt lat="39.35767263754816" lon="9.495299483484315"><ele>44.0</ele><time>2026-04-25T14:37:32Z</time></trkpt><trkpt lat="39.357901564377904" lon="9.495346188843277"><ele>46.5</ele><time>2026-04-25T14:37:33Z</time></trkpt><trkpt lat="39.358129313981514" lon="9.495371070951624"><ele>49.0</ele><time>2026-04-25T14:37:34Z</time></trkpt><trkpt lat="39.35836156481388" lon="9.495355737672138"><ele>49.0</ele><time>2026-04-25T14:37:35Z</time></trkpt><trkpt lat="39.35859132184032" lon="9.49529003085217"><ele>49.0</ele><time>2026-04-25T14:37:36Z</time></trkpt><trkpt lat="39.35881456956052" lon="9.495200417817681"><ele>47.33333333333333</ele><time>2026-04-25T14:37:37Z</time></trkpt><trkpt lat="39.35903061253429" lon="9.49512143435109"><ele>45.666666666666664</ele><time>2026-04-25T14:37:38Z</time></trkpt><trkpt lat="39.35923895801401" lon="9.495063813137817"><ele>44.0</ele><time>2026-04-25T14:37:39Z</time></trkpt><trkpt lat="39.35943850576867" lon="9.495013315640358"><ele>44.0</ele><time>2026-04-25T14:37:40Z</time></trkpt><trkpt lat="39.359624636080596" lon="9.494961370749555"><ele>44.0</ele><time>2026-04-25T14:37:41Z</time></trkpt><trkpt lat="39.35979701787764" lon="9.494913927386825"><ele>44.0</ele><time>2026-04-25T14:37:42Z</time></trkpt><trkpt lat="39.359948182481254" lon="9.494923133421088"><ele>43.5</ele><time>2026-04-25T14:37:43Z</time></trkpt><trkpt lat="39.36007121531993" lon="9.494959418640775"><ele>43.0</ele><time>2026-04-25T14:37:44Z</time></trkpt><trkpt lat="39.36014273412113" lon="9.495107376269042"><ele>42.5</ele><time>2026-04-25T14:37:45Z</time></trkpt><trkpt lat="39.36018359195017" lon="9.495265951822178"><ele>42.0</ele><time>2026-04-25T14:37:46Z</time></trkpt><trkpt lat="39.360265164509336" lon="9.495442461534719"><ele>41.0</ele><time>2026-04-25T14:37:47Z</time></trkpt><trkpt lat="39.360345019549726" lon="9.495638201745656"><ele>40.0</ele><time>2026-04-25T14:37:48Z</time></trkpt><trkpt lat="39.36043879804189" lon="9.495839144345185"><ele>39.0</ele><time>2026-04-25T14:37:49Z</time></trkpt><trkpt lat="39.360525237788785" lon="9.496044527572698"><ele>41.666666666666664</ele><time>2026-04-25T14:37:50Z</time></trkpt><trkpt lat="39.36056850644749" lon="9.496267718063237"><ele>44.33333333333333</ele><time>2026-04-25T14:37:51Z</time></trkpt><trkpt lat="39.36058094427892" lon="9.496499883268145"><ele>47.0</ele><time>2026-04-25T14:37:52Z</time></trkpt><trkpt lat="39.36055693676897" lon="9.496741813690605"><ele>44.0</ele><time>2026-04-25T14:37:53Z</time></trkpt><trkpt lat="39.360527189210025" lon="9.496997740235154"><ele>41.0</ele><time>2026-04-25T14:37:54Z</time></trkpt><trkpt lat="39.36048353134667" lon="9.497255067236168"><ele>38.0</ele><time>2026-04-25T14:37:55Z</time></trkpt><trkpt lat="39.36044477907749" lon="9.497512942597297"><ele>37.666666666666664</ele><time>2026-04-25T14:37:56Z</time></trkpt><trkpt lat="39.3604093479825" lon="9.497765149372555"><ele>37.333333333333336</ele><time>2026-04-25T14:37:57Z</time></trkpt><trkpt lat="39.360376311631114" lon="9.49801503871614"><ele>37.0</ele><time>2026-04-25T14:37:58Z</time></trkpt><trkpt lat="39.36034678757172" lon="9.498262015547288"><ele>37.333333333333336</ele><time>2026-04-25T14:37:59Z</time></trkpt><trkpt lat="39.36033227620054" lon="9.49851396957158"><ele>37.666666666666664</ele><time>2026-04-25T14:38:00Z</time></trkpt><trkpt lat="39.360353995221054" lon="9.49876514365297"><ele>38.0</ele><time>2026-04-25T14:38:01Z</time></trkpt><trkpt lat="39.360407966559066" lon="9.499016576356475"><ele>38.0</ele><time>2026-04-25T14:38:02Z</time></trkpt><trkpt lat="39.360485368076795" lon="9.4992633413528"><ele>38.0</ele><time>2026-04-25T14:38:03Z</time></trkpt><trkpt lat="39.360585638672404" lon="9.499501012001422"><ele>38.0</ele><time>2026-04-25T14:38:04Z</time></trkpt><trkpt lat="39.36070597966637" lon="9.499728118712463"><ele>37.666666666666664</ele><time>2026-04-25T14:38:05Z</time></trkpt><trkpt lat="39.360834259554615" lon="9.499954114886316"><ele>37.333333333333336</ele><time>2026-04-25T14:38:06Z</time></trkpt><trkpt lat="39.36094839814455" lon="9.500187288192478"><ele>37.0</ele><time>2026-04-25T14:38:07Z</time></trkpt><trkpt lat="39.36106530132374" lon="9.50042592554838"><ele>37.0</ele><time>2026-04-25T14:38:08Z</time></trkpt><trkpt lat="39.36118307035866" lon="9.500662540077283"><ele>37.0</ele><time>2026-04-25T14:38:09Z</time></trkpt><trkpt lat="39.36129925425929" lon="9.500897819120171"><ele>37.0</ele><time>2026-04-25T14:38:10Z</time></trkpt><trkpt lat="39.36141483352059" lon="9.501132698663257"><ele>36.66666666666667</ele><time>2026-04-25T14:38:11Z</time></trkpt><trkpt lat="39.36152904675241" lon="9.501369164906373"><ele>36.333333333333336</ele><time>2026-04-25T14:38:12Z</time></trkpt><trkpt lat="39.36164387559669" lon="9.5016029489745"><ele>36.0</ele><time>2026-04-25T14:38:13Z</time></trkpt><trkpt lat="39.3617610232815" lon="9.501828809208693"><ele>36.0</ele><time>2026-04-25T14:38:14Z</time></trkpt><trkpt lat="39.36188244864836" lon="9.50205190370308"><ele>36.0</ele><time>2026-04-25T14:38:15Z</time></trkpt><trkpt lat="39.36201324182425" lon="9.502269411940881"><ele>36.0</ele><time>2026-04-25T14:38:16Z</time></trkpt><trkpt lat="39.362161168339895" lon="9.502471850376178"><ele>36.0</ele><time>2026-04-25T14:38:17Z</time></trkpt><trkpt lat="39.36232468131314" lon="9.502657167289723"><ele>36.0</ele><time>2026-04-25T14:38:18Z</time></trkpt><trkpt lat="39.362491846827645" lon="9.502832452130367"><ele>36.0</ele><time>2026-04-25T14:38:19Z</time></trkpt><trkpt lat="39.36266871534919" lon="9.502987057793936"><ele>36.0</ele><time>2026-04-25T14:38:20Z</time></trkpt><trkpt lat="39.36284644773591" lon="9.503131024295417"><ele>36.0</ele><time>2026-04-25T14:38:21Z</time></trkpt><trkpt lat="39.363021208790336" lon="9.503276244003063"><ele>36.0</ele><time>2026-04-25T14:38:22Z</time></trkpt><trkpt lat="39.36318912045759" lon="9.503429825494035"><ele>37.333333333333336</ele><time>2026-04-25T14:38:23Z</time></trkpt><trkpt lat="39.363355242246094" lon="9.503587059091325"><ele>38.66666666666667</ele><time>2026-04-25T14:38:24Z</time></trkpt><trkpt lat="39.363526255405375" lon="9.503733681493168"><ele>40.0</ele><time>2026-04-25T14:38:25Z</time></trkpt><trkpt lat="39.363706700885686" lon="9.503861151516254"><ele>40.66666666666667</ele><time>2026-04-25T14:38:26Z</time></trkpt><trkpt lat="39.363896691372744" lon="9.503968269816855"><ele>41.333333333333336</ele><time>2026-04-25T14:38:27Z</time></trkpt><trkpt lat="39.364100167694396" lon="9.504041652149992"><ele>42.0</ele><time>2026-04-25T14:38:28Z</time></trkpt><trkpt lat="39.36430644946587" lon="9.504098070533678"><ele>42.0</ele><time>2026-04-25T14:38:29Z</time></trkpt><trkpt lat="39.36451564217705" lon="9.504149798547877"><ele>42.0</ele><time>2026-04-25T14:38:30Z</time></trkpt><trkpt lat="39.364718294762525" lon="9.504219950438305"><ele>42.0</ele><time>2026-04-25T14:38:31Z</time></trkpt><trkpt lat="39.36491934136667" lon="9.504289600006128"><ele>43.0</ele><time>2026-04-25T14:38:32Z</time></trkpt><trkpt lat="39.365128045131804" lon="9.504337125259223"><ele>44.0</ele><time>2026-04-25T14:38:33Z</time></trkpt><trkpt lat="39.36534260262975" lon="9.504361318464817"><ele>45.0</ele><time>2026-04-25T14:38:34Z</time></trkpt><trkpt lat="39.365555535411424" lon="9.504371660971188"><ele>46.0</ele><time>2026-04-25T14:38:35Z</time></trkpt><trkpt lat="39.36575329609985" lon="9.504384167729366"><ele>47.0</ele><time>2026-04-25T14:38:36Z</time></trkpt><trkpt lat="39.36593660911941" lon="9.504396902137682"><ele>48.0</ele><time>2026-04-25T14:38:37Z</time></trkpt><trkpt lat="39.36610493487433" lon="9.504405682645345"><ele>48.0</ele><time>2026-04-25T14:38:38Z</time></trkpt><trkpt lat="39.36625001785564" lon="9.50445256131569"><ele>48.0</ele><time>2026-04-25T14:38:39Z</time></trkpt><trkpt lat="39.36638228252297" lon="9.504511266046043"><ele>48.0</ele><time>2026-04-25T14:38:40Z</time></trkpt><trkpt lat="39.366467071419045" lon="9.504686910570815"><ele>48.0</ele><time>2026-04-25T14:38:41Z</time></trkpt><trkpt lat="39.36657667653878" lon="9.504860158677399"><ele>46.333333333333336</ele><time>2026-04-25T14:38:42Z</time></trkpt><trkpt lat="39.36666687665459" lon="9.505057925169886"><ele>44.66666666666667</ele><time>2026-04-25T14:38:43Z</time></trkpt><trkpt lat="39.36674764536321" lon="9.505275289665516"><ele>43.0</ele><time>2026-04-25T14:38:44Z</time></trkpt><trkpt lat="39.366759005458995" lon="9.505516174951063"><ele>43.0</ele><time>2026-04-25T14:38:45Z</time></trkpt><trkpt lat="39.36678642477515" lon="9.505773027224198"><ele>43.0</ele><time>2026-04-25T14:38:46Z</time></trkpt><trkpt lat="39.366789848494385" lon="9.506032616995835"><ele>43.0</ele><time>2026-04-25T14:38:47Z</time></trkpt><trkpt lat="39.36680179379597" lon="9.506297261257258"><ele>43.0</ele><time>2026-04-25T14:38:48Z</time></trkpt><trkpt lat="39.366815975819165" lon="9.506559779674712"><ele>43.0</ele><time>2026-04-25T14:38:49Z</time></trkpt><trkpt lat="39.366833037788496" lon="9.506824783286852"><ele>43.0</ele><time>2026-04-25T14:38:50Z</time></trkpt><trkpt lat="39.366850421522415" lon="9.507090454213184"><ele>43.0</ele><time>2026-04-25T14:38:51Z</time></trkpt><trkpt lat="39.36686380756683" lon="9.507360138481372"><ele>43.0</ele><time>2026-04-25T14:38:52Z</time></trkpt><trkpt lat="39.366877918979455" lon="9.507632582373619"><ele>43.0</ele><time>2026-04-25T14:38:53Z</time></trkpt><trkpt lat="39.36689242537332" lon="9.507911737722095"><ele>42.66666666666667</ele><time>2026-04-25T14:38:54Z</time></trkpt><trkpt lat="39.36690934328914" lon="9.508196344786782"><ele>42.333333333333336</ele><time>2026-04-25T14:38:55Z</time></trkpt><trkpt lat="39.36692744305616" lon="9.5084797043612"><ele>42.0</ele><time>2026-04-25T14:38:56Z</time></trkpt><trkpt lat="39.3669462941691" lon="9.508772306943658"><ele>42.0</ele><time>2026-04-25T14:38:57Z</time></trkpt><trkpt lat="39.36696035077545" lon="9.50905863247897"><ele>42.0</ele><time>2026-04-25T14:38:58Z</time></trkpt><trkpt lat="39.36697365725319" lon="9.509351366336128"><ele>42.0</ele><time>2026-04-25T14:38:59Z</time></trkpt><trkpt lat="39.36698989385484" lon="9.509646780038041"><ele>42.0</ele><time>2026-04-25T14:39:00Z</time></trkpt><trkpt lat="39.36700611078751" lon="9.509939057632286"><ele>42.0</ele><time>2026-04-25T14:39:01Z</time></trkpt><trkpt lat="39.367022469621205" lon="9.510226527593199"><ele>42.0</ele><time>2026-04-25T14:39:02Z</time></trkpt><trkpt lat="39.36703925321132" lon="9.510506589726033"><ele>41.666666666666664</ele><time>2026-04-25T14:39:03Z</time></trkpt><trkpt lat="39.3670560359848" lon="9.51078109225058"><ele>41.33333333333333</ele><time>2026-04-25T14:39:04Z</time></trkpt><trkpt lat="39.367071345995925" lon="9.511059998951875"><ele>41.0</ele><time>2026-04-25T14:39:05Z</time></trkpt><trkpt lat="39.367085460522866" lon="9.511340383954302"><ele>40.666666666666664</ele><time>2026-04-25T14:39:06Z</time></trkpt><trkpt lat="39.367099854361314" lon="9.511620361767877"><ele>40.333333333333336</ele><time>2026-04-25T14:39:07Z</time></trkpt><trkpt lat="39.36711646028814" lon="9.511899745544216"><ele>40.0</ele><time>2026-04-25T14:39:08Z</time></trkpt><trkpt lat="39.36713061847053" lon="9.512180102489816"><ele>39.333333333333336</ele><time>2026-04-25T14:39:09Z</time></trkpt><trkpt lat="39.36714488025191" lon="9.512462469681614"><ele>38.666666666666664</ele><time>2026-04-25T14:39:10Z</time></trkpt><trkpt lat="39.367162203083694" lon="9.512752886546954"><ele>38.0</ele><time>2026-04-25T14:39:11Z</time></trkpt><trkpt lat="39.36717880405278" lon="9.51303812251637"><ele>38.0</ele><time>2026-04-25T14:39:12Z</time></trkpt><trkpt lat="39.36719509313927" lon="9.513324799236413"><ele>38.0</ele><time>2026-04-25T14:39:13Z</time></trkpt><trkpt lat="39.36721121645321" lon="9.51361395037606"><ele>38.0</ele><time>2026-04-25T14:39:14Z</time></trkpt><trkpt lat="39.367228803954205" lon="9.513904206990857"><ele>36.0</ele><time>2026-04-25T14:39:15Z</time></trkpt><trkpt lat="39.36724612237854" lon="9.514195559337358"><ele>34.0</ele><time>2026-04-25T14:39:16Z</time></trkpt><trkpt lat="39.367259645825236" lon="9.514485898075188"><ele>33.66666666666667</ele><time>2026-04-25T14:39:17Z</time></trkpt><trkpt lat="39.36727583140899" lon="9.514775963156419"><ele>33.333333333333336</ele><time>2026-04-25T14:39:18Z</time></trkpt><trkpt lat="39.36729282011358" lon="9.515063376127648"><ele>33.0</ele><time>2026-04-25T14:39:19Z</time></trkpt><trkpt lat="39.36730800105503" lon="9.51534560125468"><ele>33.666666666666664</ele><time>2026-04-25T14:39:20Z</time></trkpt><trkpt lat="39.36732251036598" lon="9.515629112846035"><ele>34.33333333333333</ele><time>2026-04-25T14:39:21Z</time></trkpt><trkpt lat="39.36733787627033" lon="9.515909160167974"><ele>35.0</ele><time>2026-04-25T14:39:22Z</time></trkpt><trkpt lat="39.36735413985243" lon="9.51618902934263"><ele>35.33333333333333</ele><time>2026-04-25T14:39:23Z</time></trkpt><trkpt lat="39.36737048083746" lon="9.516470955462886"><ele>35.666666666666664</ele><time>2026-04-25T14:39:24Z</time></trkpt><trkpt lat="39.36738593722911" lon="9.5167507049323"><ele>36.0</ele><time>2026-04-25T14:39:25Z</time></trkpt><trkpt lat="39.367401459001805" lon="9.517030639843266"><ele>36.0</ele><time>2026-04-25T14:39:26Z</time></trkpt><trkpt lat="39.36741715795651" lon="9.51731360018335"><ele>36.0</ele><time>2026-04-25T14:39:27Z</time></trkpt><trkpt lat="39.367432960082716" lon="9.517597110582946"><ele>36.0</ele><time>2026-04-25T14:39:28Z</time></trkpt><trkpt lat="39.367447516774924" lon="9.517883153107084"><ele>35.666666666666664</ele><time>2026-04-25T14:39:29Z</time></trkpt><trkpt lat="39.36746244766844" lon="9.518171158686075"><ele>35.33333333333333</ele><time>2026-04-25T14:39:30Z</time></trkpt><trkpt lat="39.367478648160976" lon="9.518460055162365"><ele>35.0</ele><time>2026-04-25T14:39:31Z</time></trkpt><trkpt lat="39.36749462638219" lon="9.518749853283365"><ele>35.0</ele><time>2026-04-25T14:39:32Z</time></trkpt><trkpt lat="39.36751262798807" lon="9.519030014244645"><ele>35.0</ele><time>2026-04-25T14:39:33Z</time></trkpt><trkpt lat="39.367528995088456" lon="9.519312763266287"><ele>35.0</ele><time>2026-04-25T14:39:34Z</time></trkpt><trkpt lat="39.36754631321266" lon="9.519593367271229"><ele>34.33333333333333</ele><time>2026-04-25T14:39:35Z</time></trkpt><trkpt lat="39.36756413462381" lon="9.519872850969099"><ele>33.666666666666664</ele><time>2026-04-25T14:39:36Z</time></trkpt><trkpt lat="39.36758020927152" lon="9.520154516180213"><ele>33.0</ele><time>2026-04-25T14:39:37Z</time></trkpt><trkpt lat="39.36759486881467" lon="9.520436932400782"><ele>33.0</ele><time>2026-04-25T14:39:38Z</time></trkpt><trkpt lat="39.36760874552869" lon="9.520720848092555"><ele>33.0</ele><time>2026-04-25T14:39:39Z</time></trkpt><trkpt lat="39.36762464454993" lon="9.521001901560206"><ele>33.0</ele><time>2026-04-25T14:39:40Z</time></trkpt><trkpt lat="39.36764049431326" lon="9.521281597687013"><ele>33.333333333333336</ele><time>2026-04-25T14:39:41Z</time></trkpt><trkpt lat="39.36765633615394" lon="9.521559621069393"><ele>33.66666666666667</ele><time>2026-04-25T14:39:42Z</time></trkpt><trkpt lat="39.3676713363762" lon="9.521833837287021"><ele>34.0</ele><time>2026-04-25T14:39:43Z</time></trkpt><trkpt lat="39.367685785744825" lon="9.522116386103452"><ele>33.333333333333336</ele><time>2026-04-25T14:39:44Z</time></trkpt><trkpt lat="39.36770098543974" lon="9.522395407404895"><ele>32.666666666666664</ele><time>2026-04-25T14:39:45Z</time></trkpt><trkpt lat="39.36771641520783" lon="9.522676648642385"><ele>32.0</ele><time>2026-04-25T14:39:46Z</time></trkpt><trkpt lat="39.36773273540761" lon="9.522962832915944"><ele>31.333333333333332</ele><time>2026-04-25T14:39:47Z</time></trkpt><trkpt lat="39.36774854054795" lon="9.523248297964019"><ele>30.666666666666664</ele><time>2026-04-25T14:39:48Z</time></trkpt><trkpt lat="39.36776409455806" lon="9.523535404818693"><ele>30.0</ele><time>2026-04-25T14:39:49Z</time></trkpt><trkpt lat="39.36778064916585" lon="9.523817318190263"><ele>30.0</ele><time>2026-04-25T14:39:50Z</time></trkpt><trkpt lat="39.367795938472995" lon="9.52409749430528"><ele>30.0</ele><time>2026-04-25T14:39:51Z</time></trkpt><trkpt lat="39.36781260074772" lon="9.524375177833871"><ele>30.0</ele><time>2026-04-25T14:39:52Z</time></trkpt><trkpt lat="39.367825953786266" lon="9.524655282975734"><ele>30.0</ele><time>2026-04-25T14:39:53Z</time></trkpt><trkpt lat="39.36783862264219" lon="9.524925063531608"><ele>30.0</ele><time>2026-04-25T14:39:54Z</time></trkpt><trkpt lat="39.367853717326945" lon="9.52519553019696"><ele>30.0</ele><time>2026-04-25T14:39:55Z</time></trkpt><trkpt lat="39.367869030743655" lon="9.52546381877577"><ele>30.0</ele><time>2026-04-25T14:39:56Z</time></trkpt><trkpt lat="39.36788633143549" lon="9.52575547132277"><ele>30.0</ele><time>2026-04-25T14:39:57Z</time></trkpt><trkpt lat="39.36790083186181" lon="9.526030387988785"><ele>30.0</ele><time>2026-04-25T14:39:58Z</time></trkpt><trkpt lat="39.367915149478684" lon="9.526300956768553"><ele>30.0</ele><time>2026-04-25T14:39:59Z</time></trkpt><trkpt lat="39.367931318113065" lon="9.526574027364518"><ele>30.0</ele><time>2026-04-25T14:40:00Z</time></trkpt><trkpt lat="39.36794822731624" lon="9.526844173439253"><ele>30.0</ele><time>2026-04-25T14:40:01Z</time></trkpt><trkpt lat="39.367964043493856" lon="9.527112222970239"><ele>30.0</ele><time>2026-04-25T14:40:02Z</time></trkpt><trkpt lat="39.36797801446605" lon="9.527376657486238"><ele>30.0</ele><time>2026-04-25T14:40:03Z</time></trkpt><trkpt lat="39.367992157718795" lon="9.527640348046441"><ele>30.0</ele><time>2026-04-25T14:40:04Z</time></trkpt><trkpt lat="39.368006996476964" lon="9.527910119366537"><ele>30.0</ele><time>2026-04-25T14:40:05Z</time></trkpt><trkpt lat="39.36802235585808" lon="9.528180514885221"><ele>30.0</ele><time>2026-04-25T14:40:06Z</time></trkpt><trkpt lat="39.36803676103258" lon="9.528452609718503"><ele>30.0</ele><time>2026-04-25T14:40:07Z</time></trkpt><trkpt lat="39.368052213926795" lon="9.528730546354012"><ele>30.0</ele><time>2026-04-25T14:40:08Z</time></trkpt><trkpt lat="39.36806643868999" lon="9.529009913419808"><ele>30.0</ele><time>2026-04-25T14:40:09Z</time></trkpt><trkpt lat="39.36807966559634" lon="9.529296897164972"><ele>30.0</ele><time>2026-04-25T14:40:10Z</time></trkpt><trkpt lat="39.36809409843429" lon="9.529589741122983"><ele>30.0</ele><time>2026-04-25T14:40:11Z</time></trkpt><trkpt lat="39.36810901870605" lon="9.529887124315755"><ele>30.0</ele><time>2026-04-25T14:40:12Z</time></trkpt><trkpt lat="39.36812830196853" lon="9.530175693667822"><ele>29.333333333333336</ele><time>2026-04-25T14:40:13Z</time></trkpt><trkpt lat="39.36814250205867" lon="9.530439481530578"><ele>28.666666666666668</ele><time>2026-04-25T14:40:14Z</time></trkpt><trkpt lat="39.36815866896837" lon="9.530728032753945"><ele>28.0</ele><time>2026-04-25T14:40:15Z</time></trkpt><trkpt lat="39.36817565942176" lon="9.531020238465652"><ele>26.5</ele><time>2026-04-25T14:40:16Z</time></trkpt><trkpt lat="39.36819222170021" lon="9.531313305827808"><ele>25.0</ele><time>2026-04-25T14:40:17Z</time></trkpt><trkpt lat="39.368209708003725" lon="9.531601662591354"><ele>25.0</ele><time>2026-04-25T14:40:18Z</time></trkpt><trkpt lat="39.36822494236042" lon="9.531883802494656"><ele>25.0</ele><time>2026-04-25T14:40:19Z</time></trkpt><trkpt lat="39.36824015940848" lon="9.532165595974512"><ele>25.0</ele><time>2026-04-25T14:40:20Z</time></trkpt><trkpt lat="39.36825492022468" lon="9.5324428491186"><ele>25.333333333333336</ele><time>2026-04-25T14:40:21Z</time></trkpt><trkpt lat="39.36827184576331" lon="9.532713627551173"><ele>25.666666666666664</ele><time>2026-04-25T14:40:22Z</time></trkpt><trkpt lat="39.36828814075398" lon="9.532986466504042"><ele>26.0</ele><time>2026-04-25T14:40:23Z</time></trkpt><trkpt lat="39.36830309393127" lon="9.533260901000087"><ele>26.0</ele><time>2026-04-25T14:40:24Z</time></trkpt><trkpt lat="39.368316250621575" lon="9.533535084372668"><ele>26.0</ele><time>2026-04-25T14:40:25Z</time></trkpt><trkpt lat="39.36832840828074" lon="9.53380780336412"><ele>26.0</ele><time>2026-04-25T14:40:26Z</time></trkpt><trkpt lat="39.3683395382409" lon="9.534078468809984"><ele>26.666666666666664</ele><time>2026-04-25T14:40:27Z</time></trkpt><trkpt lat="39.36834923490258" lon="9.534349325909675"><ele>27.333333333333336</ele><time>2026-04-25T14:40:28Z</time></trkpt><trkpt lat="39.36835387578113" lon="9.534617987314062"><ele>28.0</ele><time>2026-04-25T14:40:29Z</time></trkpt><trkpt lat="39.36835607358472" lon="9.534882575066364"><ele>28.333333333333336</ele><time>2026-04-25T14:40:30Z</time></trkpt><trkpt lat="39.36835690245204" lon="9.535150118552554"><ele>28.666666666666664</ele><time>2026-04-25T14:40:31Z</time></trkpt><trkpt lat="39.368354475245916" lon="9.535417298916055"><ele>29.0</ele><time>2026-04-25T14:40:32Z</time></trkpt><trkpt lat="39.36835503110233" lon="9.535683352419486"><ele>29.0</ele><time>2026-04-25T14:40:33Z</time></trkpt><trkpt lat="39.368356931802026" lon="9.535946495728437"><ele>29.0</ele><time>2026-04-25T14:40:34Z</time></trkpt><trkpt lat="39.368359853863105" lon="9.536208205716639"><ele>29.0</ele><time>2026-04-25T14:40:35Z</time></trkpt><trkpt lat="39.36836141645434" lon="9.53647162515448"><ele>29.333333333333332</ele><time>2026-04-25T14:40:36Z</time></trkpt><trkpt lat="39.368360992621774" lon="9.536733740113265"><ele>29.666666666666664</ele><time>2026-04-25T14:40:37Z</time></trkpt><trkpt lat="39.368358727386706" lon="9.536999830526778"><ele>30.0</ele><time>2026-04-25T14:40:38Z</time></trkpt><trkpt lat="39.368356800678484" lon="9.537265148507371"><ele>30.0</ele><time>2026-04-25T14:40:39Z</time></trkpt><trkpt lat="39.36835628182957" lon="9.537530086684068"><ele>30.0</ele><time>2026-04-25T14:40:40Z</time></trkpt><trkpt lat="39.36835598030209" lon="9.537797504661873"><ele>30.0</ele><time>2026-04-25T14:40:41Z</time></trkpt><trkpt lat="39.36835623853439" lon="9.538066188438972"><ele>30.0</ele><time>2026-04-25T14:40:42Z</time></trkpt><trkpt lat="39.3683548820796" lon="9.538335565336446"><ele>30.0</ele><time>2026-04-25T14:40:43Z</time></trkpt><trkpt lat="39.368352525983724" lon="9.53860619351486"><ele>30.0</ele><time>2026-04-25T14:40:44Z</time></trkpt><trkpt lat="39.36835206004175" lon="9.53888083801505"><ele>30.0</ele><time>2026-04-25T14:40:45Z</time></trkpt><trkpt lat="39.36835419732604" lon="9.53915750900119"><ele>30.0</ele><time>2026-04-25T14:40:46Z</time></trkpt><trkpt lat="39.36835794906829" lon="9.539435046853416"><ele>30.0</ele><time>2026-04-25T14:40:47Z</time></trkpt><trkpt lat="39.36836189688662" lon="9.539716345722555"><ele>28.666666666666664</ele><time>2026-04-25T14:40:48Z</time></trkpt><trkpt lat="39.36836627570514" lon="9.539999935156967"><ele>27.333333333333332</ele><time>2026-04-25T14:40:49Z</time></trkpt><trkpt lat="39.3683670830315" lon="9.540285412763966"><ele>26.0</ele><time>2026-04-25T14:40:50Z</time></trkpt><trkpt lat="39.368363631698074" lon="9.540575770172554"><ele>23.0</ele><time>2026-04-25T14:40:51Z</time></trkpt><trkpt lat="39.368361352570076" lon="9.540866248842692"><ele>20.0</ele><time>2026-04-25T14:40:52Z</time></trkpt><trkpt lat="39.3683618563116" lon="9.541158321461603"><ele>21.333333333333336</ele><time>2026-04-25T14:40:53Z</time></trkpt><trkpt lat="39.3683657623572" lon="9.541451453387824"><ele>22.666666666666668</ele><time>2026-04-25T14:40:54Z</time></trkpt><trkpt lat="39.3683733959566" lon="9.541739461995508"><ele>24.0</ele><time>2026-04-25T14:40:55Z</time></trkpt><trkpt lat="39.36838380505093" lon="9.542011277638398"><ele>24.666666666666664</ele><time>2026-04-25T14:40:56Z</time></trkpt><trkpt lat="39.36838882531788" lon="9.542268537947649"><ele>25.333333333333332</ele><time>2026-04-25T14:40:57Z</time></trkpt><trkpt lat="39.36837984791509" lon="9.542516412170244"><ele>26.0</ele><time>2026-04-25T14:40:58Z</time></trkpt><trkpt lat="39.36834474608552" lon="9.542760694233149"><ele>25.666666666666664</ele><time>2026-04-25T14:40:59Z</time></trkpt><trkpt lat="39.368290289795226" lon="9.543008579309298"><ele>25.333333333333336</ele><time>2026-04-25T14:41:00Z</time></trkpt><trkpt lat="39.36822856025418" lon="9.54326191536273"><ele>25.0</ele><time>2026-04-25T14:41:01Z</time></trkpt><trkpt lat="39.36816753488161" lon="9.543514723345211"><ele>25.0</ele><time>2026-04-25T14:41:02Z</time></trkpt><trkpt lat="39.368107618946745" lon="9.543754363451084"><ele>25.0</ele><time>2026-04-25T14:41:03Z</time></trkpt><trkpt lat="39.36805181197715" lon="9.543978591305157"><ele>25.0</ele><time>2026-04-25T14:41:04Z</time></trkpt><trkpt lat="39.36799903652724" lon="9.544179691586738"><ele>24.5</ele><time>2026-04-25T14:41:05Z</time></trkpt><trkpt lat="39.36793676553257" lon="9.544361334706856"><ele>24.0</ele><time>2026-04-25T14:41:06Z</time></trkpt><trkpt lat="39.367846267687504" lon="9.544508010597779"><ele>23.5</ele><time>2026-04-25T14:41:07Z</time></trkpt><trkpt lat="39.36772515838974" lon="9.544622357289931"><ele>23.0</ele><time>2026-04-25T14:41:08Z</time></trkpt><trkpt lat="39.3675759512997" lon="9.544706840052232"><ele>22.0</ele><time>2026-04-25T14:41:09Z</time></trkpt><trkpt lat="39.367437699322565" lon="9.544793194948758"><ele>21.0</ele><time>2026-04-25T14:41:10Z</time></trkpt><trkpt lat="39.367311778154935" lon="9.544900818546068"><ele>20.0</ele><time>2026-04-25T14:41:11Z</time></trkpt><trkpt lat="39.36720412321371" lon="9.545038760457883"><ele>20.0</ele><time>2026-04-25T14:41:12Z</time></trkpt><trkpt lat="39.36713469915542" lon="9.54520771271649"><ele>20.0</ele><time>2026-04-25T14:41:13Z</time></trkpt><trkpt lat="39.367108685919234" lon="9.545402035865358"><ele>20.0</ele><time>2026-04-25T14:41:14Z</time></trkpt><trkpt lat="39.36714122947096" lon="9.545611053888022"><ele>19.0</ele><time>2026-04-25T14:41:15Z</time></trkpt><trkpt lat="39.36722931536025" lon="9.545811907169679"><ele>18.0</ele><time>2026-04-25T14:41:16Z</time></trkpt><trkpt lat="39.367323014522036" lon="9.546004717316851"><ele>17.0</ele><time>2026-04-25T14:41:17Z</time></trkpt><trkpt lat="39.367401031903135" lon="9.546206463816922"><ele>17.333333333333336</ele><time>2026-04-25T14:41:18Z</time></trkpt><trkpt lat="39.36746137657393" lon="9.54640762876197"><ele>17.666666666666668</ele><time>2026-04-25T14:41:19Z</time></trkpt><trkpt lat="39.36748371417844" lon="9.546614065940886"><ele>18.0</ele><time>2026-04-25T14:41:20Z</time></trkpt><trkpt lat="39.367468056070955" lon="9.54682814818549"><ele>18.0</ele><time>2026-04-25T14:41:21Z</time></trkpt><trkpt lat="39.367414142579385" lon="9.5470222681111"><ele>18.0</ele><time>2026-04-25T14:41:22Z</time></trkpt><trkpt lat="39.36731135328754" lon="9.547195471684862"><ele>18.0</ele><time>2026-04-25T14:41:23Z</time></trkpt><trkpt lat="39.367180167703424" lon="9.54734144126912"><ele>17.666666666666668</ele><time>2026-04-25T14:41:24Z</time></trkpt><trkpt lat="39.36703608114029" lon="9.547476011454076"><ele>17.333333333333336</ele><time>2026-04-25T14:41:25Z</time></trkpt><trkpt lat="39.366893258226526" lon="9.547620926799622"><ele>17.0</ele><time>2026-04-25T14:41:26Z</time></trkpt><trkpt lat="39.36674976962368" lon="9.547770883419377"><ele>16.666666666666668</ele><time>2026-04-25T14:41:27Z</time></trkpt><trkpt lat="39.36660119686371" lon="9.547925558832306"><ele>16.333333333333332</ele><time>2026-04-25T14:41:28Z</time></trkpt><trkpt lat="39.3664538974099" lon="9.548083993019786"><ele>16.0</ele><time>2026-04-25T14:41:29Z</time></trkpt><trkpt lat="39.36631221452061" lon="9.548254144902256"><ele>16.0</ele><time>2026-04-25T14:41:30Z</time></trkpt><trkpt lat="39.36617987641778" lon="9.548439718163674"><ele>16.0</ele><time>2026-04-25T14:41:31Z</time></trkpt><trkpt lat="39.36604833730562" lon="9.5486261420914"><ele>16.0</ele><time>2026-04-25T14:41:32Z</time></trkpt><trkpt lat="39.3659137254105" lon="9.548808232167614"><ele>16.333333333333332</ele><time>2026-04-25T14:41:33Z</time></trkpt><trkpt lat="39.365775063167334" lon="9.548982461534532"><ele>16.666666666666668</ele><time>2026-04-25T14:41:34Z</time></trkpt><trkpt lat="39.36563257716146" lon="9.549130767883524"><ele>17.0</ele><time>2026-04-25T14:41:35Z</time></trkpt><trkpt lat="39.365472823320545" lon="9.549240677393426"><ele>16.333333333333336</ele><time>2026-04-25T14:41:36Z</time></trkpt><trkpt lat="39.36529368698337" lon="9.549311176194648"><ele>15.666666666666668</ele><time>2026-04-25T14:41:37Z</time></trkpt><trkpt lat="39.36510309826863" lon="9.549366435797356"><ele>15.0</ele><time>2026-04-25T14:41:38Z</time></trkpt><trkpt lat="39.36491521517557" lon="9.549427840991669"><ele>15.0</ele><time>2026-04-25T14:41:39Z</time></trkpt><trkpt lat="39.36472552200548" lon="9.549492219545888"><ele>15.0</ele><time>2026-04-25T14:41:40Z</time></trkpt><trkpt lat="39.3645389513342" lon="9.549560750865549"><ele>15.0</ele><time>2026-04-25T14:41:41Z</time></trkpt><trkpt lat="39.36436305813154" lon="9.549652048707408"><ele>15.666666666666668</ele><time>2026-04-25T14:41:42Z</time></trkpt><trkpt lat="39.364203061929025" lon="9.549784471782738"><ele>16.333333333333336</ele><time>2026-04-25T14:41:43Z</time></trkpt><trkpt lat="39.36405542899753" lon="9.549940094152404"><ele>17.0</ele><time>2026-04-25T14:41:44Z</time></trkpt><trkpt lat="39.36389971825678" lon="9.550080358445125"><ele>16.333333333333336</ele><time>2026-04-25T14:41:45Z</time></trkpt><trkpt lat="39.36372359889136" lon="9.550180943392888"><ele>15.666666666666668</ele><time>2026-04-25T14:41:46Z</time></trkpt><trkpt lat="39.36353733225117" lon="9.550255624764718"><ele>15.0</ele><time>2026-04-25T14:41:47Z</time></trkpt><trkpt lat="39.36335036815684" lon="9.550337267109022"><ele>20.0</ele><time>2026-04-25T14:41:48Z</time></trkpt><trkpt lat="39.36317118196076" lon="9.550423678365613"><ele>25.0</ele><time>2026-04-25T14:41:49Z</time></trkpt><trkpt lat="39.36300034561522" lon="9.550503043184845"><ele>30.0</ele><time>2026-04-25T14:41:50Z</time></trkpt><trkpt lat="39.36283236009303" lon="9.550553287841252"><ele>30.333333333333336</ele><time>2026-04-25T14:41:51Z</time></trkpt><trkpt lat="39.36265687048526" lon="9.550553633497838"><ele>30.666666666666668</ele><time>2026-04-25T14:41:52Z</time></trkpt><trkpt lat="39.36248239365875" lon="9.550510756626348"><ele>31.0</ele><time>2026-04-25T14:41:53Z</time></trkpt><trkpt lat="39.36232047393526" lon="9.5504640435089"><ele>28.0</ele><time>2026-04-25T14:41:54Z</time></trkpt><trkpt lat="39.36216426877373" lon="9.550437348252986"><ele>25.0</ele><time>2026-04-25T14:41:55Z</time></trkpt><trkpt lat="39.362011104365735" lon="9.550426712206646"><ele>22.0</ele><time>2026-04-25T14:41:56Z</time></trkpt><trkpt lat="39.3618568817159" lon="9.55046638096969"><ele>22.0</ele><time>2026-04-25T14:41:57Z</time></trkpt><trkpt lat="39.36170905108659" lon="9.55055976752803"><ele>22.0</ele><time>2026-04-25T14:41:58Z</time></trkpt><trkpt lat="39.3615733972236" lon="9.550669254606898"><ele>22.0</ele><time>2026-04-25T14:41:59Z</time></trkpt><trkpt lat="39.36146906354282" lon="9.550793139987695"><ele>22.0</ele><time>2026-04-25T14:42:00Z</time></trkpt><trkpt lat="39.36139423415054" lon="9.550958456695588"><ele>22.0</ele><time>2026-04-25T14:42:01Z</time></trkpt><trkpt lat="39.36136478107701" lon="9.551140125437538"><ele>22.0</ele><time>2026-04-25T14:42:02Z</time></trkpt><trkpt lat="39.36136800338233" lon="9.55134117525014"><ele>22.0</ele><time>2026-04-25T14:42:03Z</time></trkpt><trkpt lat="39.36141719727622" lon="9.551541401085524"><ele>22.333333333333332</ele><time>2026-04-25T14:42:04Z</time></trkpt><trkpt lat="39.361467780911966" lon="9.551730381567555"><ele>22.666666666666668</ele><time>2026-04-25T14:42:05Z</time></trkpt><trkpt lat="39.3615071447558" lon="9.551917458449608"><ele>23.0</ele><time>2026-04-25T14:42:06Z</time></trkpt><trkpt lat="39.36154074648246" lon="9.552103445013396"><ele>23.0</ele><time>2026-04-25T14:42:07Z</time></trkpt><trkpt lat="39.36157598704476" lon="9.552274201353681"><ele>23.0</ele><time>2026-04-25T14:42:08Z</time></trkpt><trkpt lat="39.3616014794937" lon="9.552442847545452"><ele>23.0</ele><time>2026-04-25T14:42:09Z</time></trkpt><trkpt lat="39.36159918808966" lon="9.552625137056198"><ele>23.0</ele><time>2026-04-25T14:42:10Z</time></trkpt><trkpt lat="39.36157788254444" lon="9.552814286163594"><ele>23.0</ele><time>2026-04-25T14:42:11Z</time></trkpt><trkpt lat="39.361542006030746" lon="9.553009686222602"><ele>23.0</ele><time>2026-04-25T14:42:12Z</time></trkpt><trkpt lat="39.36147207290036" lon="9.553191883044692"><ele>23.0</ele><time>2026-04-25T14:42:13Z</time></trkpt><trkpt lat="39.36135297241532" lon="9.553334669920734"><ele>21.666666666666668</ele><time>2026-04-25T14:42:14Z</time></trkpt><trkpt lat="39.36124019707782" lon="9.553496182355524"><ele>20.333333333333332</ele><time>2026-04-25T14:42:15Z</time></trkpt><trkpt lat="39.36110697594364" lon="9.553639297628205"><ele>19.0</ele><time>2026-04-25T14:42:16Z</time></trkpt><trkpt lat="39.36097312653011" lon="9.553788115279128"><ele>19.0</ele><time>2026-04-25T14:42:17Z</time></trkpt><trkpt lat="39.36084284047509" lon="9.553946877625036"><ele>19.0</ele><time>2026-04-25T14:42:18Z</time></trkpt><trkpt lat="39.36072479564007" lon="9.554125957473708"><ele>19.0</ele><time>2026-04-25T14:42:19Z</time></trkpt><trkpt lat="39.36061521781525" lon="9.554320419977243"><ele>16.666666666666664</ele><time>2026-04-25T14:42:20Z</time></trkpt><trkpt lat="39.36050658118127" lon="9.554513476973039"><ele>14.333333333333332</ele><time>2026-04-25T14:42:21Z</time></trkpt><trkpt lat="39.36039501087365" lon="9.554706713618446"><ele>12.0</ele><time>2026-04-25T14:42:22Z</time></trkpt><trkpt lat="39.36028680270823" lon="9.554897219306142"><ele>12.0</ele><time>2026-04-25T14:42:23Z</time></trkpt><trkpt lat="39.36018208742845" lon="9.555083174894488"><ele>12.0</ele><time>2026-04-25T14:42:24Z</time></trkpt><trkpt lat="39.360080026210625" lon="9.555264693418007"><ele>12.0</ele><time>2026-04-25T14:42:25Z</time></trkpt><trkpt lat="39.35998060206188" lon="9.555438364113611"><ele>11.666666666666666</ele><time>2026-04-25T14:42:26Z</time></trkpt><trkpt lat="39.359882377611946" lon="9.55561071972763"><ele>11.333333333333332</ele><time>2026-04-25T14:42:27Z</time></trkpt><trkpt lat="39.35978775052637" lon="9.55578079676823"><ele>11.0</ele><time>2026-04-25T14:42:28Z</time></trkpt><trkpt lat="39.3596927584597" lon="9.555951292053452"><ele>11.0</ele><time>2026-04-25T14:42:29Z</time></trkpt><trkpt lat="39.359609773684845" lon="9.556135364995942"><ele>11.0</ele><time>2026-04-25T14:42:30Z</time></trkpt><trkpt lat="39.359559249999194" lon="9.556349671288858"><ele>11.0</ele><time>2026-04-25T14:42:31Z</time></trkpt><trkpt lat="39.359542520383364" lon="9.55658865321788"><ele>11.0</ele><time>2026-04-25T14:42:32Z</time></trkpt><trkpt lat="39.359532147587956" lon="9.556828899682465"><ele>11.0</ele><time>2026-04-25T14:42:33Z</time></trkpt><trkpt lat="39.359535101466236" lon="9.557067725609762"><ele>11.0</ele><time>2026-04-25T14:42:34Z</time></trkpt><trkpt lat="39.359563578665984" lon="9.55729330979236"><ele>11.0</ele><time>2026-04-25T14:42:35Z</time></trkpt><trkpt lat="39.35963714233684" lon="9.557489732285378"><ele>11.0</ele><time>2026-04-25T14:42:36Z</time></trkpt><trkpt lat="39.359732204493035" lon="9.557653741549952"><ele>11.0</ele><time>2026-04-25T14:42:37Z</time></trkpt><trkpt lat="39.359801539719086" lon="9.557806253103038"><ele>11.25</ele><time>2026-04-25T14:42:38Z</time></trkpt><trkpt lat="39.35984191448928" lon="9.557967779948939"><ele>11.5</ele><time>2026-04-25T14:42:39Z</time></trkpt><trkpt lat="39.359833140652576" lon="9.55813553389325"><ele>11.75</ele><time>2026-04-25T14:42:40Z</time></trkpt><trkpt lat="39.35978309707735" lon="9.558291751896808"><ele>12.0</ele><time>2026-04-25T14:42:41Z</time></trkpt><trkpt lat="39.35971038692991" lon="9.558434096223415"><ele>12.25</ele><time>2026-04-25T14:42:42Z</time></trkpt><trkpt lat="39.35961887742631" lon="9.558558775348265"><ele>12.5</ele><time>2026-04-25T14:42:43Z</time></trkpt><trkpt lat="39.35953436508135" lon="9.55867522216089"><ele>12.75</ele><time>2026-04-25T14:42:44Z</time></trkpt><trkpt lat="39.35945359662745" lon="9.558801443134922"><ele>13.0</ele><time>2026-04-25T14:42:45Z</time></trkpt><trkpt lat="39.359380398756095" lon="9.558927751076217"><ele>13.0</ele><time>2026-04-25T14:42:46Z</time></trkpt><trkpt lat="39.35930950861582" lon="9.559047770197136"><ele>13.0</ele><time>2026-04-25T14:42:47Z</time></trkpt><trkpt lat="39.35923526708709" lon="9.559166722496476"><ele>13.0</ele><time>2026-04-25T14:42:48Z</time></trkpt><trkpt lat="39.35915760246203" lon="9.559291522711575"><ele>13.0</ele><time>2026-04-25T14:42:49Z</time></trkpt><trkpt lat="39.35907817686681" lon="9.559414915953104"><ele>13.0</ele><time>2026-04-25T14:42:50Z</time></trkpt><trkpt lat="39.35900955954157" lon="9.559518564759049"><ele>13.0</ele><time>2026-04-25T14:42:51Z</time></trkpt><trkpt lat="39.358937177856085" lon="9.559627734480467"><ele>13.0</ele><time>2026-04-25T14:42:52Z</time></trkpt><trkpt lat="39.358869072296514" lon="9.559728494139202"><ele>13.0</ele><time>2026-04-25T14:42:53Z</time></trkpt><trkpt lat="39.35880594001293" lon="9.55982562857743"><ele>13.0</ele><time>2026-04-25T14:42:54Z</time></trkpt><trkpt lat="39.358746788147705" lon="9.559918930019316"><ele>13.2</ele><time>2026-04-25T14:42:55Z</time></trkpt><trkpt lat="39.35868847120899" lon="9.560006310261937"><ele>13.4</ele><time>2026-04-25T14:42:56Z</time></trkpt><trkpt lat="39.35862529092229" lon="9.560098475970557"><ele>13.599999999999998</ele><time>2026-04-25T14:42:57Z</time></trkpt><trkpt lat="39.358559528655434" lon="9.560194567245127"><ele>13.799999999999999</ele><time>2026-04-25T14:42:58Z</time></trkpt><trkpt lat="39.358493670334674" lon="9.56029469281694"><ele>14.0</ele><time>2026-04-25T14:42:59Z</time></trkpt><trkpt lat="39.35843124768018" lon="9.56039620668064"><ele>14.0</ele><time>2026-04-25T14:43:00Z</time></trkpt><trkpt lat="39.358371327504216" lon="9.560493433429125"><ele>13.999999999999998</ele><time>2026-04-25T14:43:01Z</time></trkpt><trkpt lat="39.35830789475502" lon="9.560585550823628"><ele>13.999999999999998</ele><time>2026-04-25T14:43:02Z</time></trkpt><trkpt lat="39.35823844320052" lon="9.560680872859812"><ele>14.0</ele><time>2026-04-25T14:43:03Z</time></trkpt><trkpt lat="39.35816871760747" lon="9.560787864275644"><ele>14.0</ele><time>2026-04-25T14:43:04Z</time></trkpt><trkpt lat="39.35810376835628" lon="9.560905733312572"><ele>14.0</ele><time>2026-04-25T14:43:05Z</time></trkpt><trkpt lat="39.358049994523654" lon="9.561032649050052"><ele>13.999999999999998</ele><time>2026-04-25T14:43:06Z</time></trkpt><trkpt lat="39.358010921808955" lon="9.561157823145788"><ele>13.999999999999998</ele><time>2026-04-25T14:43:07Z</time></trkpt><trkpt lat="39.357984829483016" lon="9.561287062849573"><ele>14.0</ele><time>2026-04-25T14:43:08Z</time></trkpt><trkpt lat="39.35797685392104" lon="9.561425861217636"><ele>14.0</ele><time>2026-04-25T14:43:09Z</time></trkpt><trkpt lat="39.35798798199582" lon="9.561565311905849"><ele>13.75</ele><time>2026-04-25T14:43:10Z</time></trkpt><trkpt lat="39.35801222082716" lon="9.561707581193774"><ele>13.5</ele><time>2026-04-25T14:43:11Z</time></trkpt><trkpt lat="39.358042233403914" lon="9.561852690876439"><ele>13.25</ele><time>2026-04-25T14:43:12Z</time></trkpt><trkpt lat="39.35807622872397" lon="9.562001332256363"><ele>13.0</ele><time>2026-04-25T14:43:13Z</time></trkpt><trkpt lat="39.358120808352105" lon="9.56215176248726"><ele>12.75</ele><time>2026-04-25T14:43:14Z</time></trkpt><trkpt lat="39.358179884321665" lon="9.562302235120848"><ele>12.5</ele><time>2026-04-25T14:43:15Z</time></trkpt><trkpt lat="39.35824585367332" lon="9.562452995173308"><ele>12.25</ele><time>2026-04-25T14:43:16Z</time></trkpt><trkpt lat="39.35830693089353" lon="9.562601189611499"><ele>12.0</ele><time>2026-04-25T14:43:17Z</time></trkpt><trkpt lat="39.35836432230644" lon="9.562743331536453"><ele>12.0</ele><time>2026-04-25T14:43:18Z</time></trkpt><trkpt lat="39.35841791070147" lon="9.562879939373422"><ele>12.0</ele><time>2026-04-25T14:43:19Z</time></trkpt><trkpt lat="39.358472807928074" lon="9.563020158345992"><ele>12.0</ele><time>2026-04-25T14:43:20Z</time></trkpt><trkpt lat="39.358532918337175" lon="9.563159529788752"><ele>12.0</ele><time>2026-04-25T14:43:21Z</time></trkpt><trkpt lat="39.358592981763664" lon="9.56330110862696"><ele>12.0</ele><time>2026-04-25T14:43:22Z</time></trkpt><trkpt lat="39.358652512473604" lon="9.56344250824473"><ele>12.0</ele><time>2026-04-25T14:43:23Z</time></trkpt><trkpt lat="39.358713883719496" lon="9.563592535542316"><ele>12.0</ele><time>2026-04-25T14:43:24Z</time></trkpt><trkpt lat="39.35877662073987" lon="9.563740587716334"><ele>12.0</ele><time>2026-04-25T14:43:25Z</time></trkpt><trkpt lat="39.35884306393576" lon="9.563888474752591"><ele>12.25</ele><time>2026-04-25T14:43:26Z</time></trkpt><trkpt lat="39.35891506541956" lon="9.564032723527259"><ele>12.5</ele><time>2026-04-25T14:43:27Z</time></trkpt><trkpt lat="39.358994176510436" lon="9.564174965092363"><ele>12.75</ele><time>2026-04-25T14:43:28Z</time></trkpt><trkpt lat="39.35907890144813" lon="9.564318111524578"><ele>13.0</ele><time>2026-04-25T14:43:29Z</time></trkpt><trkpt lat="39.3591658915295" lon="9.564461699740832"><ele>12.75</ele><time>2026-04-25T14:43:30Z</time></trkpt><trkpt lat="39.35924794354785" lon="9.564600389476416"><ele>12.5</ele><time>2026-04-25T14:43:31Z</time></trkpt><trkpt lat="39.35932784033003" lon="9.564729893248053"><ele>12.25</ele><time>2026-04-25T14:43:32Z</time></trkpt><trkpt lat="39.359406521326164" lon="9.564852798352174"><ele>12.0</ele><time>2026-04-25T14:43:33Z</time></trkpt><trkpt lat="39.359486677745416" lon="9.564963936662059"><ele>12.0</ele><time>2026-04-25T14:43:34Z</time></trkpt><trkpt lat="39.359562378788084" lon="9.56507443022949"><ele>12.0</ele><time>2026-04-25T14:43:35Z</time></trkpt><trkpt lat="39.359661555394005" lon="9.565137365001975"><ele>12.0</ele><time>2026-04-25T14:43:36Z</time></trkpt><trkpt lat="39.35974777068338" lon="9.565216677333634"><ele>12.0</ele><time>2026-04-25T14:43:37Z</time></trkpt><trkpt lat="39.35982481156968" lon="9.56530487672399"><ele>12.0</ele><time>2026-04-25T14:43:38Z</time></trkpt><trkpt lat="39.35989079983339" lon="9.565433157281218"><ele>10.75</ele><time>2026-04-25T14:43:39Z</time></trkpt><trkpt lat="39.35993966224729" lon="9.565590926251444"><ele>9.5</ele><time>2026-04-25T14:43:40Z</time></trkpt><trkpt lat="39.3599658769986" lon="9.565767494167606"><ele>8.25</ele><time>2026-04-25T14:43:41Z</time></trkpt><trkpt lat="39.35998134526062" lon="9.56597147316841"><ele>7.0</ele><time>2026-04-25T14:43:42Z</time></trkpt><trkpt lat="39.36000430031055" lon="9.566204778967695"><ele>7.0</ele><time>2026-04-25T14:43:43Z</time></trkpt><trkpt lat="39.36001287647663" lon="9.56645701632948"><ele>7.0</ele><time>2026-04-25T14:43:44Z</time></trkpt><trkpt lat="39.36003142903179" lon="9.566721236845042"><ele>7.0</ele><time>2026-04-25T14:43:45Z</time></trkpt><trkpt lat="39.36006293418828" lon="9.566995896118724"><ele>7.0</ele><time>2026-04-25T14:43:46Z</time></trkpt><trkpt lat="39.360067707230165" lon="9.567265085246909"><ele>7.0</ele><time>2026-04-25T14:43:47Z</time></trkpt><trkpt lat="39.36008387799896" lon="9.567529131739198"><ele>7.0</ele><time>2026-04-25T14:43:48Z</time></trkpt><trkpt lat="39.360104959113556" lon="9.56778914152426"><ele>7.333333333333334</ele><time>2026-04-25T14:43:49Z</time></trkpt><trkpt lat="39.36012239544402" lon="9.56804235614709"><ele>7.666666666666666</ele><time>2026-04-25T14:43:50Z</time></trkpt><trkpt lat="39.360138413824004" lon="9.568289261783333"><ele>8.0</ele><time>2026-04-25T14:43:51Z</time></trkpt><trkpt lat="39.36015368262858" lon="9.568529087476126"><ele>7.666666666666666</ele><time>2026-04-25T14:43:52Z</time></trkpt><trkpt lat="39.3601700004185" lon="9.568764617913736"><ele>7.333333333333334</ele><time>2026-04-25T14:43:53Z</time></trkpt><trkpt lat="39.36018330519962" lon="9.568988320346413"><ele>7.0</ele><time>2026-04-25T14:43:54Z</time></trkpt><trkpt lat="39.36020442067823" lon="9.569199647374198"><ele>7.0</ele><time>2026-04-25T14:43:55Z</time></trkpt><trkpt lat="39.36025950334236" lon="9.569398155796522"><ele>7.0</ele><time>2026-04-25T14:43:56Z</time></trkpt><trkpt lat="39.36035344182219" lon="9.569574874488826"><ele>7.0</ele><time>2026-04-25T14:43:57Z</time></trkpt><trkpt lat="39.36048332959417" lon="9.569703303186872"><ele>8.333333333333334</ele><time>2026-04-25T14:43:58Z</time></trkpt><trkpt lat="39.36063245834755" lon="9.569791763189437"><ele>9.666666666666666</ele><time>2026-04-25T14:43:59Z</time></trkpt><trkpt lat="39.3607820253435" lon="9.569901758630248"><ele>11.0</ele><time>2026-04-25T14:44:00Z</time></trkpt><trkpt lat="39.36090139860149" lon="9.570066488518934"><ele>11.0</ele><time>2026-04-25T14:44:01Z</time></trkpt><trkpt lat="39.36099462301418" lon="9.570272487770788"><ele>11.0</ele><time>2026-04-25T14:44:02Z</time></trkpt><trkpt lat="39.36108405419128" lon="9.570503593359419"><ele>11.0</ele><time>2026-04-25T14:44:03Z</time></trkpt><trkpt lat="39.361162546435715" lon="9.570734650596028"><ele>12.333333333333332</ele><time>2026-04-25T14:44:04Z</time></trkpt><trkpt lat="39.361218589386375" lon="9.570971572306112"><ele>13.666666666666666</ele><time>2026-04-25T14:44:05Z</time></trkpt><trkpt lat="39.36128206373477" lon="9.571210061689937"><ele>15.0</ele><time>2026-04-25T14:44:06Z</time></trkpt><trkpt lat="39.36136851408213" lon="9.57143932892973"><ele>15.333333333333332</ele><time>2026-04-25T14:44:07Z</time></trkpt><trkpt lat="39.36147588536606" lon="9.571667480141267"><ele>15.666666666666666</ele><time>2026-04-25T14:44:08Z</time></trkpt><trkpt lat="39.361599191869594" lon="9.571902922409802"><ele>16.0</ele><time>2026-04-25T14:44:09Z</time></trkpt><trkpt lat="39.36172555547108" lon="9.572142729960474"><ele>16.5</ele><time>2026-04-25T14:44:10Z</time></trkpt><trkpt lat="39.36184783654128" lon="9.572386635890421"><ele>17.0</ele><time>2026-04-25T14:44:11Z</time></trkpt><trkpt lat="39.3619700709559" lon="9.572633973177311"><ele>17.0</ele><time>2026-04-25T14:44:12Z</time></trkpt><trkpt lat="39.36209589070524" lon="9.5728816704229"><ele>17.0</ele><time>2026-04-25T14:44:13Z</time></trkpt><trkpt lat="39.36222313995542" lon="9.573129878527142"><ele>17.0</ele><time>2026-04-25T14:44:14Z</time></trkpt><trkpt lat="39.3623519788901" lon="9.573377548799943"><ele>17.0</ele><time>2026-04-25T14:44:15Z</time></trkpt><trkpt lat="39.362483524145865" lon="9.573628256806344"><ele>17.5</ele><time>2026-04-25T14:44:16Z</time></trkpt><trkpt lat="39.362613027889545" lon="9.573878709691476"><ele>18.0</ele><time>2026-04-25T14:44:17Z</time></trkpt><trkpt lat="39.36274011492715" lon="9.57412661195095"><ele>18.0</ele><time>2026-04-25T14:44:18Z</time></trkpt><trkpt lat="39.36286537828576" lon="9.574373578243936"><ele>18.0</ele><time>2026-04-25T14:44:19Z</time></trkpt><trkpt lat="39.36299046207247" lon="9.57461940527436"><ele>17.5</ele><time>2026-04-25T14:44:20Z</time></trkpt><trkpt lat="39.36311272945279" lon="9.574860127126897"><ele>17.0</ele><time>2026-04-25T14:44:21Z</time></trkpt><trkpt lat="39.36323812356758" lon="9.575104797140725"><ele>17.0</ele><time>2026-04-25T14:44:22Z</time></trkpt><trkpt lat="39.36336506398541" lon="9.5753496895256"><ele>17.0</ele><time>2026-04-25T14:44:23Z</time></trkpt><trkpt lat="39.36348859885112" lon="9.575592597134504"><ele>17.333333333333336</ele><time>2026-04-25T14:44:24Z</time></trkpt><trkpt lat="39.3636083837722" lon="9.57583137502769"><ele>17.666666666666668</ele><time>2026-04-25T14:44:25Z</time></trkpt><trkpt lat="39.36372800865863" lon="9.576066429610435"><ele>18.0</ele><time>2026-04-25T14:44:26Z</time></trkpt><trkpt lat="39.36385184272909" lon="9.576299989661386"><ele>18.333333333333332</ele><time>2026-04-25T14:44:27Z</time></trkpt><trkpt lat="39.36397814140423" lon="9.576532930735732"><ele>18.666666666666664</ele><time>2026-04-25T14:44:28Z</time></trkpt><trkpt lat="39.364102289104004" lon="9.576768849207902"><ele>19.0</ele><time>2026-04-25T14:44:29Z</time></trkpt><trkpt lat="39.36422104828532" lon="9.577007386762558"><ele>19.0</ele><time>2026-04-25T14:44:30Z</time></trkpt><trkpt lat="39.36434101365047" lon="9.577245693477463"><ele>19.0</ele><time>2026-04-25T14:44:31Z</time></trkpt><trkpt lat="39.364463470197734" lon="9.577482065178954"><ele>19.0</ele><time>2026-04-25T14:44:32Z</time></trkpt><trkpt lat="39.36458556184286" lon="9.577719870623689"><ele>18.666666666666664</ele><time>2026-04-25T14:44:33Z</time></trkpt><trkpt lat="39.364706650442436" lon="9.577957937038738"><ele>18.333333333333332</ele><time>2026-04-25T14:44:34Z</time></trkpt><trkpt lat="39.364830060729155" lon="9.578192038207003"><ele>18.0</ele><time>2026-04-25T14:44:35Z</time></trkpt><trkpt lat="39.36495591443718" lon="9.578430753565176"><ele>18.0</ele><time>2026-04-25T14:44:36Z</time></trkpt><trkpt lat="39.36507871034011" lon="9.578667743264747"><ele>18.0</ele><time>2026-04-25T14:44:37Z</time></trkpt><trkpt lat="39.36520151842099" lon="9.578906457295888"><ele>18.0</ele><time>2026-04-25T14:44:38Z</time></trkpt><trkpt lat="39.365325522309256" lon="9.57915021366365"><ele>17.333333333333332</ele><time>2026-04-25T14:44:39Z</time></trkpt><trkpt lat="39.36544720117213" lon="9.579393480678617"><ele>16.666666666666664</ele><time>2026-04-25T14:44:40Z</time></trkpt><trkpt lat="39.365566929349335" lon="9.579635483866827"><ele>16.0</ele><time>2026-04-25T14:44:41Z</time></trkpt><trkpt lat="39.36569020906199" lon="9.579878862437655"><ele>15.333333333333332</ele><time>2026-04-25T14:44:42Z</time></trkpt><trkpt lat="39.36581490222818" lon="9.58011417528048"><ele>14.666666666666668</ele><time>2026-04-25T14:44:43Z</time></trkpt><trkpt lat="39.36593769444581" lon="9.580354534058946"><ele>14.0</ele><time>2026-04-25T14:44:44Z</time></trkpt><trkpt lat="39.36605790041883" lon="9.580592956077009"><ele>13.333333333333334</ele><time>2026-04-25T14:44:45Z</time></trkpt><trkpt lat="39.366182681004894" lon="9.580831988246315"><ele>12.666666666666668</ele><time>2026-04-25T14:44:46Z</time></trkpt><trkpt lat="39.366305217013156" lon="9.581072832399357"><ele>12.0</ele><time>2026-04-25T14:44:47Z</time></trkpt><trkpt lat="39.36642428244219" lon="9.581314321006806"><ele>12.333333333333332</ele><time>2026-04-25T14:44:48Z</time></trkpt><trkpt lat="39.366547069886906" lon="9.58155544020791"><ele>12.666666666666666</ele><time>2026-04-25T14:44:49Z</time></trkpt><trkpt lat="39.366669883485784" lon="9.581799475796132"><ele>13.0</ele><time>2026-04-25T14:44:50Z</time></trkpt><trkpt lat="39.366795328318446" lon="9.582033867951315"><ele>13.0</ele><time>2026-04-25T14:44:51Z</time></trkpt><trkpt lat="39.36692121064464" lon="9.582272415187935"><ele>13.0</ele><time>2026-04-25T14:44:52Z</time></trkpt><trkpt lat="39.36705127590651" lon="9.582507881750141"><ele>13.0</ele><time>2026-04-25T14:44:53Z</time></trkpt><trkpt lat="39.36718335699383" lon="9.582744008963969"><ele>14.0</ele><time>2026-04-25T14:44:54Z</time></trkpt><trkpt lat="39.367318212447955" lon="9.58297949864158"><ele>15.0</ele><time>2026-04-25T14:44:55Z</time></trkpt><trkpt lat="39.36745456459115" lon="9.583207045656705"><ele>16.0</ele><time>2026-04-25T14:44:56Z</time></trkpt><trkpt lat="39.36759335749467" lon="9.583426312940912"><ele>16.0</ele><time>2026-04-25T14:44:57Z</time></trkpt><trkpt lat="39.36773299062986" lon="9.583646574455583"><ele>16.0</ele><time>2026-04-25T14:44:58Z</time></trkpt><trkpt lat="39.367878412651415" lon="9.583862592831853"><ele>16.0</ele><time>2026-04-25T14:44:59Z</time></trkpt><trkpt lat="39.36803104574528" lon="9.584067722541821"><ele>16.0</ele><time>2026-04-25T14:45:00Z</time></trkpt><trkpt lat="39.36818487543601" lon="9.584277682066995"><ele>16.0</ele><time>2026-04-25T14:45:01Z</time></trkpt><trkpt lat="39.36834743109647" lon="9.58446978800521"><ele>16.0</ele><time>2026-04-25T14:45:02Z</time></trkpt><trkpt lat="39.36850304442105" lon="9.58466342485554"><ele>16.666666666666664</ele><time>2026-04-25T14:45:03Z</time></trkpt><trkpt lat="39.368663781261525" lon="9.584855290123372"><ele>17.333333333333332</ele><time>2026-04-25T14:45:04Z</time></trkpt><trkpt lat="39.3688326307392" lon="9.585039176958214"><ele>18.0</ele><time>2026-04-25T14:45:05Z</time></trkpt><trkpt lat="39.36900801107864" lon="9.585214724205837"><ele>15.0</ele><time>2026-04-25T14:45:06Z</time></trkpt><trkpt lat="39.36918959358323" lon="9.585387215515551"><ele>12.0</ele><time>2026-04-25T14:45:07Z</time></trkpt><trkpt lat="39.369376974724965" lon="9.585554188551578"><ele>12.0</ele><time>2026-04-25T14:45:08Z</time></trkpt><trkpt lat="39.369567554124636" lon="9.585712607410732"><ele>12.0</ele><time>2026-04-25T14:45:09Z</time></trkpt><trkpt lat="39.36976343680376" lon="9.58586342117547"><ele>12.0</ele><time>2026-04-25T14:45:10Z</time></trkpt><trkpt lat="39.36996065037004" lon="9.586004128907721"><ele>12.0</ele><time>2026-04-25T14:45:11Z</time></trkpt><trkpt lat="39.370156951185045" lon="9.586133210677318"><ele>12.0</ele><time>2026-04-25T14:45:12Z</time></trkpt><trkpt lat="39.37035881952541" lon="9.586264530257608"><ele>11.5</ele><time>2026-04-25T14:45:13Z</time></trkpt><trkpt lat="39.37055957140933" lon="9.586396949704486"><ele>11.0</ele><time>2026-04-25T14:45:14Z</time></trkpt><trkpt lat="39.37076157141731" lon="9.586528580968961"><ele>11.0</ele><time>2026-04-25T14:45:15Z</time></trkpt><trkpt lat="39.3709665104198" lon="9.586656481252179"><ele>11.0</ele><time>2026-04-25T14:45:16Z</time></trkpt><trkpt lat="39.371170274197794" lon="9.586783508882984"><ele>11.0</ele><time>2026-04-25T14:45:17Z</time></trkpt><trkpt lat="39.3713771139863" lon="9.58690942572498"><ele>11.0</ele><time>2026-04-25T14:45:18Z</time></trkpt><trkpt lat="39.37158254021201" lon="9.587035916180113"><ele>9.0</ele><time>2026-04-25T14:45:19Z</time></trkpt><trkpt lat="39.37178583202892" lon="9.587167694029882"><ele>7.0</ele><time>2026-04-25T14:45:20Z</time></trkpt><trkpt lat="39.37198915667303" lon="9.587299900972956"><ele>7.5</ele><time>2026-04-25T14:45:21Z</time></trkpt><trkpt lat="39.37219318321688" lon="9.58742966870888"><ele>8.0</ele><time>2026-04-25T14:45:22Z</time></trkpt><trkpt lat="39.37239881724709" lon="9.587557886263339"><ele>8.0</ele><time>2026-04-25T14:45:23Z</time></trkpt><trkpt lat="39.372605771205414" lon="9.587685615850546"><ele>8.0</ele><time>2026-04-25T14:45:24Z</time></trkpt><trkpt lat="39.37281399245926" lon="9.587814654008119"><ele>7.5</ele><time>2026-04-25T14:45:25Z</time></trkpt><trkpt lat="39.373020912255036" lon="9.58794315766817"><ele>7.0</ele><time>2026-04-25T14:45:26Z</time></trkpt><trkpt lat="39.373227160121665" lon="9.588071128231986"><ele>7.0</ele><time>2026-04-25T14:45:27Z</time></trkpt><trkpt lat="39.3734338522662" lon="9.588202172077954"><ele>7.0</ele><time>2026-04-25T14:45:28Z</time></trkpt><trkpt lat="39.37364030369845" lon="9.588332385741273"><ele>7.0</ele><time>2026-04-25T14:45:29Z</time></trkpt><trkpt lat="39.37384617125791" lon="9.588462699071579"><ele>7.0</ele><time>2026-04-25T14:45:30Z</time></trkpt><trkpt lat="39.37405572227928" lon="9.588593094439986"><ele>9.0</ele><time>2026-04-25T14:45:31Z</time></trkpt><trkpt lat="39.37426384135037" lon="9.588722396464872"><ele>11.0</ele><time>2026-04-25T14:45:32Z</time></trkpt><trkpt lat="39.37447129282743" lon="9.58885199058832"><ele>11.0</ele><time>2026-04-25T14:45:33Z</time></trkpt><trkpt lat="39.374676487242084" lon="9.5889806704704"><ele>11.0</ele><time>2026-04-25T14:45:34Z</time></trkpt><trkpt lat="39.37488319090647" lon="9.58911236195782"><ele>11.0</ele><time>2026-04-25T14:45:35Z</time></trkpt><trkpt lat="39.37509128891518" lon="9.589243583220036"><ele>11.0</ele><time>2026-04-25T14:45:36Z</time></trkpt><trkpt lat="39.375299249745176" lon="9.589372933473257"><ele>11.0</ele><time>2026-04-25T14:45:37Z</time></trkpt><trkpt lat="39.375505345472405" lon="9.589500582223767"><ele>11.0</ele><time>2026-04-25T14:45:38Z</time></trkpt><trkpt lat="39.375712677810334" lon="9.589628522685622"><ele>12.5</ele><time>2026-04-25T14:45:39Z</time></trkpt><trkpt lat="39.37591872306311" lon="9.589757643223846"><ele>14.0</ele><time>2026-04-25T14:45:40Z</time></trkpt><trkpt lat="39.37612191002714" lon="9.589885877614838"><ele>14.0</ele><time>2026-04-25T14:45:41Z</time></trkpt><trkpt lat="39.37632370334263" lon="9.590013620875101"><ele>14.0</ele><time>2026-04-25T14:45:42Z</time></trkpt><trkpt lat="39.376528050162776" lon="9.590142704911818"><ele>14.0</ele><time>2026-04-25T14:45:43Z</time></trkpt><trkpt lat="39.376733534320856" lon="9.590270748464908"><ele>14.0</ele><time>2026-04-25T14:45:44Z</time></trkpt><trkpt lat="39.37693932235566" lon="9.590397533167696"><ele>14.0</ele><time>2026-04-25T14:45:45Z</time></trkpt><trkpt lat="39.377148578306986" lon="9.590523393024812"><ele>14.0</ele><time>2026-04-25T14:45:46Z</time></trkpt><trkpt lat="39.37735351004134" lon="9.590649583225906"><ele>15.0</ele><time>2026-04-25T14:45:47Z</time></trkpt><trkpt lat="39.377556722546124" lon="9.590778335254186"><ele>16.0</ele><time>2026-04-25T14:45:48Z</time></trkpt><trkpt lat="39.37775548155162" lon="9.590905627919378"><ele>17.0</ele><time>2026-04-25T14:45:49Z</time></trkpt><trkpt lat="39.37794283162851" lon="9.59105344761447"><ele>17.0</ele><time>2026-04-25T14:45:50Z</time></trkpt><trkpt lat="39.37814031771687" lon="9.591178141832787"><ele>17.0</ele><time>2026-04-25T14:45:51Z</time></trkpt><trkpt lat="39.37833527574116" lon="9.591301484415679"><ele>17.0</ele><time>2026-04-25T14:45:52Z</time></trkpt><trkpt lat="39.37853095774128" lon="9.591425285042611"><ele>17.0</ele><time>2026-04-25T14:45:53Z</time></trkpt><trkpt lat="39.37872914859747" lon="9.591549337669003"><ele>17.0</ele><time>2026-04-25T14:45:54Z</time></trkpt><trkpt lat="39.37893270598211" lon="9.5916541206937"><ele>17.0</ele><time>2026-04-25T14:45:55Z</time></trkpt><trkpt lat="39.379133657494" lon="9.591780538944393"><ele>17.333333333333336</ele><time>2026-04-25T14:45:56Z</time></trkpt><trkpt lat="39.379334642325496" lon="9.59190651067581"><ele>17.666666666666668</ele><time>2026-04-25T14:45:57Z</time></trkpt><trkpt lat="39.379536539635374" lon="9.592034117504594"><ele>18.0</ele><time>2026-04-25T14:45:58Z</time></trkpt><trkpt lat="39.379741100468664" lon="9.592163421007902"><ele>18.0</ele><time>2026-04-25T14:45:59Z</time></trkpt><trkpt lat="39.37994671204125" lon="9.592292745421856"><ele>18.0</ele><time>2026-04-25T14:46:00Z</time></trkpt><trkpt lat="39.380154042736116" lon="9.59242189582954"><ele>18.0</ele><time>2026-04-25T14:46:01Z</time></trkpt><trkpt lat="39.38036319505778" lon="9.592550048078218"><ele>18.0</ele><time>2026-04-25T14:46:02Z</time></trkpt><trkpt lat="39.38057277791343" lon="9.592677741427357"><ele>19.0</ele><time>2026-04-25T14:46:03Z</time></trkpt><trkpt lat="39.38078169669425" lon="9.592808575315326"><ele>20.0</ele><time>2026-04-25T14:46:04Z</time></trkpt><trkpt lat="39.38098716199649" lon="9.5929397863653"><ele>20.0</ele><time>2026-04-25T14:46:05Z</time></trkpt><trkpt lat="39.38118714604182" lon="9.593068141495076"><ele>20.0</ele><time>2026-04-25T14:46:06Z</time></trkpt><trkpt lat="39.38138688383279" lon="9.593194978948933"><ele>20.0</ele><time>2026-04-25T14:46:07Z</time></trkpt><trkpt lat="39.381588147055034" lon="9.593320303416823"><ele>20.333333333333336</ele><time>2026-04-25T14:46:08Z</time></trkpt><trkpt lat="39.38178639567048" lon="9.593442373456915"><ele>20.666666666666668</ele><time>2026-04-25T14:46:09Z</time></trkpt><trkpt lat="39.381985858976336" lon="9.59356777996471"><ele>21.0</ele><time>2026-04-25T14:46:10Z</time></trkpt><trkpt lat="39.382187938895356" lon="9.593697271532122"><ele>22.0</ele><time>2026-04-25T14:46:11Z</time></trkpt><trkpt lat="39.38239117711516" lon="9.593825457397882"><ele>23.0</ele><time>2026-04-25T14:46:12Z</time></trkpt><trkpt lat="39.38259701339695" lon="9.593951907658685"><ele>23.0</ele><time>2026-04-25T14:46:13Z</time></trkpt><trkpt lat="39.38280481479501" lon="9.594079304073372"><ele>23.0</ele><time>2026-04-25T14:46:14Z</time></trkpt><trkpt lat="39.3830111909218" lon="9.594208880745818"><ele>23.5</ele><time>2026-04-25T14:46:15Z</time></trkpt><trkpt lat="39.38321948167562" lon="9.594340229899789"><ele>24.0</ele><time>2026-04-25T14:46:16Z</time></trkpt><trkpt lat="39.38342840178449" lon="9.594473633107567"><ele>23.0</ele><time>2026-04-25T14:46:17Z</time></trkpt><trkpt lat="39.383634785662714" lon="9.59460510361384"><ele>22.0</ele><time>2026-04-25T14:46:18Z</time></trkpt><trkpt lat="39.383842526491875" lon="9.594734181544707"><ele>22.5</ele><time>2026-04-25T14:46:19Z</time></trkpt><trkpt lat="39.38404951938252" lon="9.59486330201936"><ele>23.0</ele><time>2026-04-25T14:46:20Z</time></trkpt><trkpt lat="39.38425487202154" lon="9.594993811454563"><ele>23.0</ele><time>2026-04-25T14:46:21Z</time></trkpt><trkpt lat="39.38446246105847" lon="9.595120487327996"><ele>23.0</ele><time>2026-04-25T14:46:22Z</time></trkpt><trkpt lat="39.384666207681185" lon="9.595244386062385"><ele>22.333333333333336</ele><time>2026-04-25T14:46:23Z</time></trkpt><trkpt lat="39.38486082983601" lon="9.595367882010242"><ele>21.666666666666668</ele><time>2026-04-25T14:46:24Z</time></trkpt><trkpt lat="39.38505220742494" lon="9.59549048445982"><ele>21.0</ele><time>2026-04-25T14:46:25Z</time></trkpt><trkpt lat="39.385244077922394" lon="9.595618548794299"><ele>21.0</ele><time>2026-04-25T14:46:26Z</time></trkpt><trkpt lat="39.38542997109011" lon="9.59575454671683"><ele>21.0</ele><time>2026-04-25T14:46:27Z</time></trkpt><trkpt lat="39.385614417857" lon="9.595928874901347"><ele>21.0</ele><time>2026-04-25T14:46:28Z</time></trkpt><trkpt lat="39.385783056314054" lon="9.596123108383425"><ele>19.5</ele><time>2026-04-25T14:46:29Z</time></trkpt><trkpt lat="39.38594798470553" lon="9.596328092187267"><ele>18.0</ele><time>2026-04-25T14:46:30Z</time></trkpt><trkpt lat="39.38611095910026" lon="9.596534083500348"><ele>18.0</ele><time>2026-04-25T14:46:31Z</time></trkpt><trkpt lat="39.38627489404774" lon="9.596745872706652"><ele>18.0</ele><time>2026-04-25T14:46:32Z</time></trkpt><trkpt lat="39.38643656578045" lon="9.596954637660458"><ele>16.5</ele><time>2026-04-25T14:46:33Z</time></trkpt><trkpt lat="39.386601493686356" lon="9.597162274737881"><ele>15.0</ele><time>2026-04-25T14:46:34Z</time></trkpt><trkpt lat="39.38676673848757" lon="9.597370326871358"><ele>15.0</ele><time>2026-04-25T14:46:35Z</time></trkpt><trkpt lat="39.386932759831055" lon="9.597578536712799"><ele>15.0</ele><time>2026-04-25T14:46:36Z</time></trkpt><trkpt lat="39.38709303299364" lon="9.597779097619268"><ele>15.0</ele><time>2026-04-25T14:46:37Z</time></trkpt><trkpt lat="39.387252044300524" lon="9.597980043562217"><ele>15.0</ele><time>2026-04-25T14:46:38Z</time></trkpt><trkpt lat="39.387410316903335" lon="9.59818088891877"><ele>15.0</ele><time>2026-04-25T14:46:39Z</time></trkpt><trkpt lat="39.38756810606875" lon="9.598383347979633"><ele>15.0</ele><time>2026-04-25T14:46:40Z</time></trkpt><trkpt lat="39.38772275643876" lon="9.59858059908732"><ele>15.0</ele><time>2026-04-25T14:46:41Z</time></trkpt><trkpt lat="39.38786489062324" lon="9.598788390243175"><ele>15.0</ele><time>2026-04-25T14:46:42Z</time></trkpt><trkpt lat="39.38802191465192" lon="9.598990769520997"><ele>15.0</ele><time>2026-04-25T14:46:43Z</time></trkpt><trkpt lat="39.38817957952555" lon="9.599193974748188"><ele>15.0</ele><time>2026-04-25T14:46:44Z</time></trkpt><trkpt lat="39.388339995962454" lon="9.599400726307813"><ele>15.0</ele><time>2026-04-25T14:46:45Z</time></trkpt><trkpt lat="39.38850015750168" lon="9.59960555796902"><ele>14.5</ele><time>2026-04-25T14:46:46Z</time></trkpt><trkpt lat="39.38866352434722" lon="9.59981427242669"><ele>14.0</ele><time>2026-04-25T14:46:47Z</time></trkpt><trkpt lat="39.388838769126096" lon="9.60001129556443"><ele>14.0</ele><time>2026-04-25T14:46:48Z</time></trkpt><trkpt lat="39.38900523480047" lon="9.600222840823788"><ele>14.0</ele><time>2026-04-25T14:46:49Z</time></trkpt><trkpt lat="39.38917152917264" lon="9.60043697253043"><ele>14.0</ele><time>2026-04-25T14:46:50Z</time></trkpt><trkpt lat="39.38933870216202" lon="9.600655373007326"><ele>14.0</ele><time>2026-04-25T14:46:51Z</time></trkpt><trkpt lat="39.38950500884903" lon="9.600871325239487"><ele>14.0</ele><time>2026-04-25T14:46:52Z</time></trkpt><trkpt lat="39.389672983595666" lon="9.601083843797772"><ele>14.0</ele><time>2026-04-25T14:46:53Z</time></trkpt><trkpt lat="39.38983856122462" lon="9.601292681996032"><ele>14.0</ele><time>2026-04-25T14:46:54Z</time></trkpt><trkpt lat="39.38998831526669" lon="9.601515330944116"><ele>14.0</ele><time>2026-04-25T14:46:55Z</time></trkpt><trkpt lat="39.39016073138611" lon="9.60170754891184"><ele>14.0</ele><time>2026-04-25T14:46:56Z</time></trkpt><trkpt lat="39.39032104398026" lon="9.601918613138862"><ele>14.0</ele><time>2026-04-25T14:46:57Z</time></trkpt><trkpt lat="39.39048695225876" lon="9.602131989862505"><ele>14.5</ele><time>2026-04-25T14:46:58Z</time></trkpt><trkpt lat="39.39065246737609" lon="9.602345333400748"><ele>15.0</ele><time>2026-04-25T14:46:59Z</time></trkpt><trkpt lat="39.390815913697516" lon="9.602556979399658"><ele>15.0</ele><time>2026-04-25T14:47:00Z</time></trkpt><trkpt lat="39.39097714938406" lon="9.602762933696921"><ele>15.0</ele><time>2026-04-25T14:47:01Z</time></trkpt><trkpt lat="39.39113247518925" lon="9.602960991573353"><ele>15.0</ele><time>2026-04-25T14:47:02Z</time></trkpt><trkpt lat="39.39128283631257" lon="9.603155306913472"><ele>15.0</ele><time>2026-04-25T14:47:03Z</time></trkpt><trkpt lat="39.39143248134798" lon="9.603348960258318"><ele>15.0</ele><time>2026-04-25T14:47:04Z</time></trkpt><trkpt lat="39.39158376752919" lon="9.60354205130916"><ele>15.0</ele><time>2026-04-25T14:47:05Z</time></trkpt><trkpt lat="39.391734608587676" lon="9.603734674522503"><ele>14.666666666666668</ele><time>2026-04-25T14:47:06Z</time></trkpt><trkpt lat="39.391884289599595" lon="9.603929365877255"><ele>14.333333333333334</ele><time>2026-04-25T14:47:07Z</time></trkpt><trkpt lat="39.39203387364104" lon="9.604124917339538"><ele>14.0</ele><time>2026-04-25T14:47:08Z</time></trkpt><trkpt lat="39.39218227079153" lon="9.604315745479422"><ele>12.666666666666668</ele><time>2026-04-25T14:47:09Z</time></trkpt><trkpt lat="39.3923309271379" lon="9.604512014914368"><ele>11.333333333333334</ele><time>2026-04-25T14:47:10Z</time></trkpt><trkpt lat="39.39247613032159" lon="9.604707041087874"><ele>10.0</ele><time>2026-04-25T14:47:11Z</time></trkpt><trkpt lat="39.39262964752247" lon="9.604900169711442"><ele>10.0</ele><time>2026-04-25T14:47:12Z</time></trkpt><trkpt lat="39.392792649984926" lon="9.605079827565287"><ele>10.0</ele><time>2026-04-25T14:47:13Z</time></trkpt><trkpt lat="39.39297251246039" lon="9.605227637608067"><ele>10.0</ele><time>2026-04-25T14:47:14Z</time></trkpt><trkpt lat="39.39316963971973" lon="9.605333088542775"><ele>9.666666666666668</ele><time>2026-04-25T14:47:15Z</time></trkpt><trkpt lat="39.39338036267173" lon="9.605407315088039"><ele>9.333333333333334</ele><time>2026-04-25T14:47:16Z</time></trkpt><trkpt lat="39.393606169886645" lon="9.605442031794654"><ele>9.0</ele><time>2026-04-25T14:47:17Z</time></trkpt><trkpt lat="39.3938339200136" lon="9.605465577306047"><ele>9.5</ele><time>2026-04-25T14:47:18Z</time></trkpt><trkpt lat="39.394058058783614" lon="9.605492891710163"><ele>10.0</ele><time>2026-04-25T14:47:19Z</time></trkpt><trkpt lat="39.39428222623532" lon="9.605525782348472"><ele>10.0</ele><time>2026-04-25T14:47:20Z</time></trkpt><trkpt lat="39.39450736821118" lon="9.605559953489372"><ele>10.0</ele><time>2026-04-25T14:47:21Z</time></trkpt><trkpt lat="39.394733655218175" lon="9.605594020456932"><ele>10.0</ele><time>2026-04-25T14:47:22Z</time></trkpt><trkpt lat="39.39496125371292" lon="9.605627478320317"><ele>10.0</ele><time>2026-04-25T14:47:23Z</time></trkpt><trkpt lat="39.39518811599875" lon="9.605659854000569"><ele>10.0</ele><time>2026-04-25T14:47:24Z</time></trkpt><trkpt lat="39.39541476863605" lon="9.605691748867915"><ele>10.0</ele><time>2026-04-25T14:47:25Z</time></trkpt><trkpt lat="39.3956397252529" lon="9.605722866861461"><ele>10.333333333333334</ele><time>2026-04-25T14:47:26Z</time></trkpt><trkpt lat="39.395864981218196" lon="9.605754354090546"><ele>10.666666666666666</ele><time>2026-04-25T14:47:27Z</time></trkpt><trkpt lat="39.39608528530096" lon="9.605786956476537"><ele>11.0</ele><time>2026-04-25T14:47:28Z</time></trkpt><trkpt lat="39.39630600832698" lon="9.605822308549493"><ele>10.333333333333332</ele><time>2026-04-25T14:47:29Z</time></trkpt><trkpt lat="39.39652724971616" lon="9.605857373142836"><ele>9.666666666666666</ele><time>2026-04-25T14:47:30Z</time></trkpt><trkpt lat="39.39675128781866" lon="9.605890815557082"><ele>9.0</ele><time>2026-04-25T14:47:31Z</time></trkpt><trkpt lat="39.3969765884539" lon="9.605918535230822"><ele>8.333333333333334</ele><time>2026-04-25T14:47:32Z</time></trkpt><trkpt lat="39.39720175901811" lon="9.605935655374974"><ele>7.666666666666667</ele><time>2026-04-25T14:47:33Z</time></trkpt><trkpt lat="39.39742454453536" lon="9.605924253246164"><ele>7.0</ele><time>2026-04-25T14:47:34Z</time></trkpt><trkpt lat="39.39765045566203" lon="9.605876454793652"><ele>7.0</ele><time>2026-04-25T14:47:35Z</time></trkpt><trkpt lat="39.397875734180126" lon="9.60580414391407"><ele>7.0</ele><time>2026-04-25T14:47:36Z</time></trkpt><trkpt lat="39.39810009255835" lon="9.605717232225203"><ele>6.5</ele><time>2026-04-25T14:47:37Z</time></trkpt><trkpt lat="39.398324157012006" lon="9.605629983476284"><ele>6.0</ele><time>2026-04-25T14:47:38Z</time></trkpt><trkpt lat="39.39854483118717" lon="9.605551020665247"><ele>6.0</ele><time>2026-04-25T14:47:39Z</time></trkpt><trkpt lat="39.39876472113783" lon="9.605467099787255"><ele>6.0</ele><time>2026-04-25T14:47:40Z</time></trkpt><trkpt lat="39.398983016795015" lon="9.60537935461144"><ele>6.5</ele><time>2026-04-25T14:47:41Z</time></trkpt><trkpt lat="39.39920204571043" lon="9.605292603782404"><ele>7.0</ele><time>2026-04-25T14:47:42Z</time></trkpt><trkpt lat="39.399419303819734" lon="9.605205833801953"><ele>7.0</ele><time>2026-04-25T14:47:43Z</time></trkpt><trkpt lat="39.39963559021291" lon="9.605116057357607"><ele>7.0</ele><time>2026-04-25T14:47:44Z</time></trkpt><trkpt lat="39.39984903290088" lon="9.605017873724668"><ele>6.0</ele><time>2026-04-25T14:47:45Z</time></trkpt><trkpt lat="39.40006328087879" lon="9.604909442163292"><ele>5.0</ele><time>2026-04-25T14:47:46Z</time></trkpt><trkpt lat="39.40027404127122" lon="9.604797930968118"><ele>5.0</ele><time>2026-04-25T14:47:47Z</time></trkpt><trkpt lat="39.40048657359863" lon="9.604684173911249"><ele>5.0</ele><time>2026-04-25T14:47:48Z</time></trkpt><trkpt lat="39.40069971698756" lon="9.604568373534544"><ele>6.0</ele><time>2026-04-25T14:47:49Z</time></trkpt><trkpt lat="39.40091297579833" lon="9.604450604469447"><ele>7.0</ele><time>2026-04-25T14:47:50Z</time></trkpt><trkpt lat="39.401127403874405" lon="9.604327131148562"><ele>6.0</ele><time>2026-04-25T14:47:51Z</time></trkpt><trkpt lat="39.40134165543651" lon="9.604198259243368"><ele>5.0</ele><time>2026-04-25T14:47:52Z</time></trkpt><trkpt lat="39.40155238896848" lon="9.604064869446232"><ele>5.0</ele><time>2026-04-25T14:47:53Z</time></trkpt><trkpt lat="39.40176141139677" lon="9.603931156162515"><ele>5.0</ele><time>2026-04-25T14:47:54Z</time></trkpt><trkpt lat="39.40196683090216" lon="9.603801673771057"><ele>5.0</ele><time>2026-04-25T14:47:55Z</time></trkpt><trkpt lat="39.4021725220264" lon="9.603675022664767"><ele>5.0</ele><time>2026-04-25T14:47:56Z</time></trkpt><trkpt lat="39.40237513148795" lon="9.603550329750814"><ele>6.0</ele><time>2026-04-25T14:47:57Z</time></trkpt><trkpt lat="39.40257290000228" lon="9.603426641681864"><ele>7.0</ele><time>2026-04-25T14:47:58Z</time></trkpt><trkpt lat="39.4027758420431" lon="9.603299980598514"><ele>8.0</ele><time>2026-04-25T14:47:59Z</time></trkpt><trkpt lat="39.40297935359941" lon="9.603173065044581"><ele>7.5</ele><time>2026-04-25T14:48:00Z</time></trkpt><trkpt lat="39.403182827390125" lon="9.603043854169291"><ele>7.0</ele><time>2026-04-25T14:48:01Z</time></trkpt><trkpt lat="39.403386690031" lon="9.602913351466718"><ele>9.5</ele><time>2026-04-25T14:48:02Z</time></trkpt><trkpt lat="39.40359073157281" lon="9.602784581549814"><ele>12.0</ele><time>2026-04-25T14:48:03Z</time></trkpt><trkpt lat="39.403792361817175" lon="9.602657180460072"><ele>10.5</ele><time>2026-04-25T14:48:04Z</time></trkpt><trkpt lat="39.40399563362373" lon="9.602529080359956"><ele>9.0</ele><time>2026-04-25T14:48:05Z</time></trkpt><trkpt lat="39.40419674285728" lon="9.602401930775462"><ele>9.0</ele><time>2026-04-25T14:48:06Z</time></trkpt><trkpt lat="39.404396516439085" lon="9.602277456247064"><ele>9.0</ele><time>2026-04-25T14:48:07Z</time></trkpt><trkpt lat="39.40459494284169" lon="9.60215245871248"><ele>9.0</ele><time>2026-04-25T14:48:08Z</time></trkpt><trkpt lat="39.404796304565636" lon="9.602027726424852"><ele>9.333333333333334</ele><time>2026-04-25T14:48:09Z</time></trkpt><trkpt lat="39.4049947160905" lon="9.601900740607325"><ele>9.666666666666668</ele><time>2026-04-25T14:48:10Z</time></trkpt><trkpt lat="39.40519300830002" lon="9.601778189579234"><ele>10.0</ele><time>2026-04-25T14:48:11Z</time></trkpt><trkpt lat="39.405385478739355" lon="9.601651525253684"><ele>9.333333333333334</ele><time>2026-04-25T14:48:12Z</time></trkpt><trkpt lat="39.40557711692083" lon="9.601534679629536"><ele>8.666666666666666</ele><time>2026-04-25T14:48:13Z</time></trkpt><trkpt lat="39.40576915954397" lon="9.601417012869886"><ele>8.0</ele><time>2026-04-25T14:48:14Z</time></trkpt><trkpt lat="39.40596359403891" lon="9.601294672756916"><ele>8.0</ele><time>2026-04-25T14:48:15Z</time></trkpt><trkpt lat="39.40615564079261" lon="9.601173712612331"><ele>8.0</ele><time>2026-04-25T14:48:16Z</time></trkpt><trkpt lat="39.40635293545244" lon="9.601049668839217"><ele>8.0</ele><time>2026-04-25T14:48:17Z</time></trkpt><trkpt lat="39.406551404397206" lon="9.60092430745102"><ele>8.0</ele><time>2026-04-25T14:48:18Z</time></trkpt><trkpt lat="39.40675157356201" lon="9.600796478272521"><ele>8.0</ele><time>2026-04-25T14:48:19Z</time></trkpt><trkpt lat="39.406953587938936" lon="9.600667905052738"><ele>8.0</ele><time>2026-04-25T14:48:20Z</time></trkpt><trkpt lat="39.407155262150276" lon="9.600540693193993"><ele>8.0</ele><time>2026-04-25T14:48:21Z</time></trkpt><trkpt lat="39.407359450998115" lon="9.60041549782797"><ele>8.0</ele><time>2026-04-25T14:48:22Z</time></trkpt><trkpt lat="39.407564875302626" lon="9.600289971549763"><ele>8.0</ele><time>2026-04-25T14:48:23Z</time></trkpt><trkpt lat="39.40776577415538" lon="9.600165356360293"><ele>8.0</ele><time>2026-04-25T14:48:24Z</time></trkpt><trkpt lat="39.40796819419561" lon="9.600038953101791"><ele>8.0</ele><time>2026-04-25T14:48:25Z</time></trkpt><trkpt lat="39.40816984762018" lon="9.599913029927494"><ele>7.0</ele><time>2026-04-25T14:48:26Z</time></trkpt><trkpt lat="39.408374982784515" lon="9.599784370804457"><ele>6.0</ele><time>2026-04-25T14:48:27Z</time></trkpt><trkpt lat="39.40857734566192" lon="9.599658491608984"><ele>6.0</ele><time>2026-04-25T14:48:28Z</time></trkpt><trkpt lat="39.408778337592885" lon="9.599533612558705"><ele>6.0</ele><time>2026-04-25T14:48:29Z</time></trkpt><trkpt lat="39.40898244800291" lon="9.599407893622768"><ele>6.0</ele><time>2026-04-25T14:48:30Z</time></trkpt><trkpt lat="39.40919074538367" lon="9.599282397675386"><ele>5.5</ele><time>2026-04-25T14:48:31Z</time></trkpt><trkpt lat="39.4093979766368" lon="9.599153840263693"><ele>5.0</ele><time>2026-04-25T14:48:32Z</time></trkpt><trkpt lat="39.40960713575426" lon="9.599021397569746"><ele>4.5</ele><time>2026-04-25T14:48:33Z</time></trkpt><trkpt lat="39.409815918992976" lon="9.598884644652772"><ele>4.0</ele><time>2026-04-25T14:48:34Z</time></trkpt><trkpt lat="39.41002373237588" lon="9.598748592715415"><ele>5.0</ele><time>2026-04-25T14:48:35Z</time></trkpt><trkpt lat="39.41023296273651" lon="9.598615888224694"><ele>6.0</ele><time>2026-04-25T14:48:36Z</time></trkpt><trkpt lat="39.410441431541955" lon="9.598487227981854"><ele>5.5</ele><time>2026-04-25T14:48:37Z</time></trkpt><trkpt lat="39.41065323595553" lon="9.598355923841607"><ele>5.0</ele><time>2026-04-25T14:48:38Z</time></trkpt><trkpt lat="39.41086289905163" lon="9.598226778855594"><ele>5.0</ele><time>2026-04-25T14:48:39Z</time></trkpt><trkpt lat="39.411072611702345" lon="9.598097610393161"><ele>5.0</ele><time>2026-04-25T14:48:40Z</time></trkpt><trkpt lat="39.411279402257975" lon="9.59797140214636"><ele>5.0</ele><time>2026-04-25T14:48:41Z</time></trkpt><trkpt lat="39.41148590296217" lon="9.597844646833913"><ele>5.0</ele><time>2026-04-25T14:48:42Z</time></trkpt><trkpt lat="39.41168915039639" lon="9.59771651782546"><ele>5.0</ele><time>2026-04-25T14:48:43Z</time></trkpt><trkpt lat="39.41189336509232" lon="9.597586943098515"><ele>5.0</ele><time>2026-04-25T14:48:44Z</time></trkpt><trkpt lat="39.412094863904436" lon="9.597459586722856"><ele>4.333333333333334</ele><time>2026-04-25T14:48:45Z</time></trkpt><trkpt lat="39.412297336529825" lon="9.597328199926718"><ele>3.666666666666667</ele><time>2026-04-25T14:48:46Z</time></trkpt><trkpt lat="39.41249371019776" lon="9.597198335868976"><ele>3.0</ele><time>2026-04-25T14:48:47Z</time></trkpt><trkpt lat="39.41269460141432" lon="9.597081978520437"><ele>4.0</ele><time>2026-04-25T14:48:48Z</time></trkpt><trkpt lat="39.41288484964518" lon="9.596926548845046"><ele>5.0</ele><time>2026-04-25T14:48:49Z</time></trkpt><trkpt lat="39.41306100897335" lon="9.596753099889687"><ele>6.0</ele><time>2026-04-25T14:48:50Z</time></trkpt><trkpt lat="39.41321778829273" lon="9.596549388230311"><ele>6.0</ele><time>2026-04-25T14:48:51Z</time></trkpt><trkpt lat="39.4133580650376" lon="9.596325333238278"><ele>6.0</ele><time>2026-04-25T14:48:52Z</time></trkpt><trkpt lat="39.41348072993269" lon="9.59608429704801"><ele>6.0</ele><time>2026-04-25T14:48:53Z</time></trkpt><trkpt lat="39.41359833270028" lon="9.59584122390451"><ele>7.0</ele><time>2026-04-25T14:48:54Z</time></trkpt><trkpt lat="39.41367370983183" lon="9.595564136833087"><ele>8.0</ele><time>2026-04-25T14:48:55Z</time></trkpt><trkpt lat="39.41375675219254" lon="9.595296655295108"><ele>7.666666666666666</ele><time>2026-04-25T14:48:56Z</time></trkpt><trkpt lat="39.41383621950838" lon="9.595026201507284"><ele>7.333333333333334</ele><time>2026-04-25T14:48:57Z</time></trkpt><trkpt lat="39.413914098032684" lon="9.594757138207328"><ele>7.0</ele><time>2026-04-25T14:48:58Z</time></trkpt><trkpt lat="39.413990566199146" lon="9.594491999796636"><ele>8.333333333333334</ele><time>2026-04-25T14:48:59Z</time></trkpt><trkpt lat="39.41406668135868" lon="9.594231508041053"><ele>9.666666666666666</ele><time>2026-04-25T14:49:00Z</time></trkpt><trkpt lat="39.414141507406754" lon="9.593979729324811"><ele>11.0</ele><time>2026-04-25T14:49:01Z</time></trkpt><trkpt lat="39.41421424681497" lon="9.593730306713868"><ele>12.0</ele><time>2026-04-25T14:49:02Z</time></trkpt><trkpt lat="39.41428281355218" lon="9.593489200668758"><ele>13.0</ele><time>2026-04-25T14:49:03Z</time></trkpt><trkpt lat="39.41434969582726" lon="9.59325507230205"><ele>14.0</ele><time>2026-04-25T14:49:04Z</time></trkpt><trkpt lat="39.414417348678604" lon="9.593028747054358"><ele>14.666666666666668</ele><time>2026-04-25T14:49:05Z</time></trkpt><trkpt lat="39.41448596665961" lon="9.592799309858403"><ele>15.333333333333332</ele><time>2026-04-25T14:49:06Z</time></trkpt><trkpt lat="39.41454900141784" lon="9.592569002806206"><ele>16.0</ele><time>2026-04-25T14:49:07Z</time></trkpt><trkpt lat="39.41461240292529" lon="9.592335897716435"><ele>14.666666666666666</ele><time>2026-04-25T14:49:08Z</time></trkpt><trkpt lat="39.414673479796186" lon="9.592109177212313"><ele>13.333333333333332</ele><time>2026-04-25T14:49:09Z</time></trkpt><trkpt lat="39.41473326224499" lon="9.591885038821978"><ele>12.0</ele><time>2026-04-25T14:49:10Z</time></trkpt><trkpt lat="39.41479281318675" lon="9.591669923586407"><ele>12.0</ele><time>2026-04-25T14:49:11Z</time></trkpt><trkpt lat="39.41485188672729" lon="9.591459780809384"><ele>12.0</ele><time>2026-04-25T14:49:12Z</time></trkpt><trkpt lat="39.4149119895069" lon="9.591247303202152"><ele>12.0</ele><time>2026-04-25T14:49:13Z</time></trkpt><trkpt lat="39.414971994884944" lon="9.591036228598924"><ele>12.0</ele><time>2026-04-25T14:49:14Z</time></trkpt><trkpt lat="39.415031035775876" lon="9.59083006192632"><ele>12.0</ele><time>2026-04-25T14:49:15Z</time></trkpt><trkpt lat="39.41508929707375" lon="9.590622334657409"><ele>12.0</ele><time>2026-04-25T14:49:16Z</time></trkpt><trkpt lat="39.415143074824066" lon="9.590423933437561"><ele>12.0</ele><time>2026-04-25T14:49:17Z</time></trkpt><trkpt lat="39.41519492888561" lon="9.590235990238858"><ele>12.0</ele><time>2026-04-25T14:49:18Z</time></trkpt><trkpt lat="39.41524739935199" lon="9.590050030487738"><ele>12.0</ele><time>2026-04-25T14:49:19Z</time></trkpt><trkpt lat="39.41529844415175" lon="9.589867114296924"><ele>12.0</ele><time>2026-04-25T14:49:20Z</time></trkpt><trkpt lat="39.41534764302843" lon="9.589686975234775"><ele>12.0</ele><time>2026-04-25T14:49:21Z</time></trkpt><trkpt lat="39.41539302325758" lon="9.589511619828428"><ele>12.0</ele><time>2026-04-25T14:49:22Z</time></trkpt><trkpt lat="39.415443362818515" lon="9.589333328402198"><ele>12.0</ele><time>2026-04-25T14:49:23Z</time></trkpt><trkpt lat="39.41548920581307" lon="9.589161002467883"><ele>10.75</ele><time>2026-04-25T14:49:24Z</time></trkpt><trkpt lat="39.41553071410489" lon="9.58899261594125"><ele>9.5</ele><time>2026-04-25T14:49:25Z</time></trkpt><trkpt lat="39.41557163419642" lon="9.588831506421256"><ele>8.25</ele><time>2026-04-25T14:49:26Z</time></trkpt><trkpt lat="39.415612203232385" lon="9.588675879408184"><ele>7.0</ele><time>2026-04-25T14:49:27Z</time></trkpt><trkpt lat="39.41565178255416" lon="9.588530526916848"><ele>7.0</ele><time>2026-04-25T14:49:28Z</time></trkpt><trkpt lat="39.415688890918034" lon="9.588391859120707"><ele>6.999999999999999</ele><time>2026-04-25T14:49:29Z</time></trkpt><trkpt lat="39.41572202409003" lon="9.588266668531357"><ele>6.999999999999999</ele><time>2026-04-25T14:49:30Z</time></trkpt><trkpt lat="39.41575348674031" lon="9.588153829709578"><ele>7.0</ele><time>2026-04-25T14:49:31Z</time></trkpt><trkpt lat="39.415782807718415" lon="9.588046793354712"><ele>7.0</ele><time>2026-04-25T14:49:32Z</time></trkpt><trkpt lat="39.41580941516499" lon="9.587946001301193"><ele>7.0</ele><time>2026-04-25T14:49:33Z</time></trkpt><trkpt lat="39.415836602635515" lon="9.587848726068945"><ele>7.0</ele><time>2026-04-25T14:49:34Z</time></trkpt><trkpt lat="39.41586196628772" lon="9.587759260668873"><ele>7.0</ele><time>2026-04-25T14:49:35Z</time></trkpt><trkpt lat="39.4158863611624" lon="9.587673420780723"><ele>7.0</ele><time>2026-04-25T14:49:36Z</time></trkpt><trkpt lat="39.41591238072356" lon="9.587591044367331"><ele>7.0</ele><time>2026-04-25T14:49:37Z</time></trkpt><trkpt lat="39.41594095181483" lon="9.587503108061727"><ele>7.0</ele><time>2026-04-25T14:49:38Z</time></trkpt><trkpt lat="39.41596961751964" lon="9.587407986599205"><ele>7.0</ele><time>2026-04-25T14:49:39Z</time></trkpt><trkpt lat="39.41599694443149" lon="9.587303443286084"><ele>7.3999999999999995</ele><time>2026-04-25T14:49:40Z</time></trkpt><trkpt lat="39.41602794983444" lon="9.587189400847487"><ele>7.799999999999999</ele><time>2026-04-25T14:49:41Z</time></trkpt><trkpt lat="39.41606716525014" lon="9.58707623243963"><ele>8.2</ele><time>2026-04-25T14:49:42Z</time></trkpt><trkpt lat="39.41611915700863" lon="9.586956849385963"><ele>8.6</ele><time>2026-04-25T14:49:43Z</time></trkpt><trkpt lat="39.41618080079684" lon="9.586834398949618"><ele>9.0</ele><time>2026-04-25T14:49:44Z</time></trkpt><trkpt lat="39.41624851620866" lon="9.586707851999101"><ele>8.75</ele><time>2026-04-25T14:49:45Z</time></trkpt><trkpt lat="39.416316396327275" lon="9.586569955917625"><ele>8.5</ele><time>2026-04-25T14:49:46Z</time></trkpt><trkpt lat="39.416389807244" lon="9.586434846055255"><ele>8.25</ele><time>2026-04-25T14:49:47Z</time></trkpt><trkpt lat="39.41646788898594" lon="9.586298358663177"><ele>8.0</ele><time>2026-04-25T14:49:48Z</time></trkpt><trkpt lat="39.416551715934055" lon="9.586160091246976"><ele>8.75</ele><time>2026-04-25T14:49:49Z</time></trkpt><trkpt lat="39.416634141443666" lon="9.586020098579539"><ele>9.5</ele><time>2026-04-25T14:49:50Z</time></trkpt><trkpt lat="39.41671377759499" lon="9.585882833894344"><ele>10.25</ele><time>2026-04-25T14:49:51Z</time></trkpt><trkpt lat="39.41678689426479" lon="9.585765017046374"><ele>11.0</ele><time>2026-04-25T14:49:52Z</time></trkpt><trkpt lat="39.41685877180709" lon="9.585657391503814"><ele>11.0</ele><time>2026-04-25T14:49:53Z</time></trkpt><trkpt lat="39.41692378295616" lon="9.585544197395834"><ele>11.0</ele><time>2026-04-25T14:49:54Z</time></trkpt><trkpt lat="39.41699077037692" lon="9.585419028871707"><ele>11.0</ele><time>2026-04-25T14:49:55Z</time></trkpt><trkpt lat="39.41706277606575" lon="9.585286861337291"><ele>11.0</ele><time>2026-04-25T14:49:56Z</time></trkpt><trkpt lat="39.41714129907213" lon="9.585152177770045"><ele>11.0</ele><time>2026-04-25T14:49:57Z</time></trkpt><trkpt lat="39.417225042521366" lon="9.585017642099908"><ele>11.0</ele><time>2026-04-25T14:49:58Z</time></trkpt><trkpt lat="39.41729946923113" lon="9.584891890157255"><ele>11.0</ele><time>2026-04-25T14:49:59Z</time></trkpt><trkpt lat="39.41737093376113" lon="9.584769550145875"><ele>11.0</ele><time>2026-04-25T14:50:00Z</time></trkpt><trkpt lat="39.41744442079797" lon="9.584645997834818"><ele>11.0</ele><time>2026-04-25T14:50:01Z</time></trkpt><trkpt lat="39.41751814524811" lon="9.584519284231835"><ele>11.0</ele><time>2026-04-25T14:50:02Z</time></trkpt><trkpt lat="39.41759308588412" lon="9.584392857818177"><ele>11.0</ele><time>2026-04-25T14:50:03Z</time></trkpt><trkpt lat="39.41766649721876" lon="9.584265553957174"><ele>11.0</ele><time>2026-04-25T14:50:04Z</time></trkpt><trkpt lat="39.41773734611756" lon="9.584141811635774"><ele>11.5</ele><time>2026-04-25T14:50:05Z</time></trkpt><trkpt lat="39.4178083857196" lon="9.584022692515594"><ele>12.0</ele><time>2026-04-25T14:50:06Z</time></trkpt><trkpt lat="39.41788012753039" lon="9.583903849879675"><ele>12.5</ele><time>2026-04-25T14:50:07Z</time></trkpt><trkpt lat="39.417950036178226" lon="9.583784345511823"><ele>13.0</ele><time>2026-04-25T14:50:08Z</time></trkpt><trkpt lat="39.418019936063" lon="9.583665585602166"><ele>13.0</ele><time>2026-04-25T14:50:09Z</time></trkpt><trkpt lat="39.41808777647939" lon="9.583549468742639"><ele>13.0</ele><time>2026-04-25T14:50:10Z</time></trkpt><trkpt lat="39.41815108908925" lon="9.583439880608298"><ele>13.0</ele><time>2026-04-25T14:50:11Z</time></trkpt><trkpt lat="39.418209561324765" lon="9.58334056985754"><ele>13.0</ele><time>2026-04-25T14:50:12Z</time></trkpt><trkpt lat="39.41826058791137" lon="9.583253899241821"><ele>13.0</ele><time>2026-04-25T14:50:13Z</time></trkpt><trkpt lat="39.41830558517955" lon="9.583174138911778"><ele>13.0</ele><time>2026-04-25T14:50:14Z</time></trkpt><trkpt lat="39.41835031845404" lon="9.58310229309208"><ele>13.0</ele><time>2026-04-25T14:50:15Z</time></trkpt><trkpt lat="39.418390778594734" lon="9.583035651753395"><ele>13.0</ele><time>2026-04-25T14:50:16Z</time></trkpt><trkpt lat="39.41843265198115" lon="9.582966724084201"><ele>13.0</ele><time>2026-04-25T14:50:17Z</time></trkpt><trkpt lat="39.41847295458" lon="9.582897273495734"><ele>13.0</ele><time>2026-04-25T14:50:18Z</time></trkpt><trkpt lat="39.41852790784068" lon="9.582843183556724"><ele>13.0</ele><time>2026-04-25T14:50:19Z</time></trkpt><trkpt lat="39.418567639668446" lon="9.58277487648874"><ele>13.0</ele><time>2026-04-25T14:50:20Z</time></trkpt><trkpt lat="39.41864467412004" lon="9.582642438630835"><ele>12.833333333333332</ele><time>2026-04-25T14:50:22Z</time></trkpt><trkpt lat="39.41868813080807" lon="9.58256772775916"><ele>12.666666666666666</ele><time>2026-04-25T14:50:23Z</time></trkpt><trkpt lat="39.41873799252224" lon="9.58248303575731"><ele>12.5</ele><time>2026-04-25T14:50:24Z</time></trkpt><trkpt lat="39.41879019269872" lon="9.582394416162074"><ele>12.333333333333332</ele><time>2026-04-25T14:50:25Z</time></trkpt><trkpt lat="39.41884357766971" lon="9.582303785138397"><ele>12.166666666666666</ele><time>2026-04-25T14:50:26Z</time></trkpt><trkpt lat="39.418901094880404" lon="9.582205789118936"><ele>12.0</ele><time>2026-04-25T14:50:27Z</time></trkpt><trkpt lat="39.4189585897035" lon="9.582107651828371"><ele>12.0</ele><time>2026-04-25T14:50:28Z</time></trkpt><trkpt lat="39.41901793253107" lon="9.582006360222765"><ele>12.0</ele><time>2026-04-25T14:50:29Z</time></trkpt><trkpt lat="39.41907937870344" lon="9.58190147843447"><ele>12.0</ele><time>2026-04-25T14:50:30Z</time></trkpt><trkpt lat="39.41913789548646" lon="9.58180226484395"><ele>12.0</ele><time>2026-04-25T14:50:31Z</time></trkpt><trkpt lat="39.41919538796604" lon="9.581704950183772"><ele>12.0</ele><time>2026-04-25T14:50:32Z</time></trkpt><trkpt lat="39.41924978357229" lon="9.5816097354115"><ele>12.0</ele><time>2026-04-25T14:50:33Z</time></trkpt><trkpt lat="39.41930186974877" lon="9.581513598500996"><ele>12.0</ele><time>2026-04-25T14:50:34Z</time></trkpt><trkpt lat="39.419353392519625" lon="9.581418501489923"><ele>12.0</ele><time>2026-04-25T14:50:35Z</time></trkpt><trkpt lat="39.41940319711914" lon="9.581325475991012"><ele>12.0</ele><time>2026-04-25T14:50:36Z</time></trkpt><trkpt lat="39.41944811699462" lon="9.581241401167338"><ele>12.0</ele><time>2026-04-25T14:50:37Z</time></trkpt><trkpt lat="39.41949034486551" lon="9.581162279167575"><ele>12.0</ele><time>2026-04-25T14:50:38Z</time></trkpt><trkpt lat="39.41953173172202" lon="9.58108455262637"><ele>11.833333333333334</ele><time>2026-04-25T14:50:39Z</time></trkpt><trkpt lat="39.41957279350802" lon="9.581007324353763"><ele>11.666666666666666</ele><time>2026-04-25T14:50:40Z</time></trkpt><trkpt lat="39.4196118199765" lon="9.580931048586816"><ele>11.5</ele><time>2026-04-25T14:50:41Z</time></trkpt><trkpt lat="39.41964894408116" lon="9.580854375254475"><ele>11.333333333333332</ele><time>2026-04-25T14:50:42Z</time></trkpt><trkpt lat="39.419684441238" lon="9.580777840229917"><ele>11.166666666666666</ele><time>2026-04-25T14:50:43Z</time></trkpt><trkpt lat="39.41971781701338" lon="9.580703344383483"><ele>11.0</ele><time>2026-04-25T14:50:44Z</time></trkpt><trkpt lat="39.419758720135704" lon="9.580559094047754"><ele>10.600000000000001</ele><time>2026-04-25T14:50:46Z</time></trkpt><trkpt lat="39.419820453954905" lon="9.580450852458693"><ele>10.200000000000001</ele><time>2026-04-25T14:50:48Z</time></trkpt><trkpt lat="39.41985011919827" lon="9.580329347116422"><ele>9.8</ele><time>2026-04-25T14:50:50Z</time></trkpt><trkpt lat="39.41990533529073" lon="9.58022214815179"><ele>9.4</ele><time>2026-04-25T14:50:52Z</time></trkpt><trkpt lat="39.42000970773193" lon="9.580223985576055"><ele>9.0</ele><time>2026-04-25T14:50:54Z</time></trkpt><trkpt lat="39.42007283140232" lon="9.580263127892662"><ele>9.0</ele><time>2026-04-25T14:50:55Z</time></trkpt><trkpt lat="39.420149471174895" lon="9.580304490670619"><ele>9.0</ele><time>2026-04-25T14:50:56Z</time></trkpt><trkpt lat="39.420220918256554" lon="9.580364230293371"><ele>9.0</ele><time>2026-04-25T14:50:57Z</time></trkpt><trkpt lat="39.420296086768566" lon="9.58042095653233"><ele>9.0</ele><time>2026-04-25T14:50:58Z</time></trkpt><trkpt lat="39.42037635407206" lon="9.580481947493762"><ele>9.0</ele><time>2026-04-25T14:50:59Z</time></trkpt><trkpt lat="39.420461017386636" lon="9.580548370540564"><ele>9.0</ele><time>2026-04-25T14:51:00Z</time></trkpt><trkpt lat="39.42055321546257" lon="9.580610369552078"><ele>9.0</ele><time>2026-04-25T14:51:01Z</time></trkpt><trkpt lat="39.4206454747485" lon="9.580677500079174"><ele>9.0</ele><time>2026-04-25T14:51:02Z</time></trkpt><trkpt lat="39.420731388951864" lon="9.580741370120355"><ele>9.0</ele><time>2026-04-25T14:51:03Z</time></trkpt><trkpt lat="39.42080479446081" lon="9.580798838214847"><ele>9.0</ele><time>2026-04-25T14:51:04Z</time></trkpt><trkpt lat="39.42086801674662" lon="9.580847002474693"><ele>9.0</ele><time>2026-04-25T14:51:05Z</time></trkpt><trkpt lat="39.420927076310385" lon="9.580886255107522"><ele>9.0</ele><time>2026-04-25T14:51:06Z</time></trkpt><trkpt lat="39.42103282153372" lon="9.580966217723292"><ele>9.0</ele><time>2026-04-25T14:51:08Z</time></trkpt><trkpt lat="39.421128185056396" lon="9.581037046098846"><ele>9.0</ele><time>2026-04-25T14:51:10Z</time></trkpt><trkpt lat="39.421223361747494" lon="9.581115354110135"><ele>9.0</ele><time>2026-04-25T14:51:12Z</time></trkpt><trkpt lat="39.42130197632471" lon="9.58118438456619"><ele>9.0</ele><time>2026-04-25T14:51:14Z</time></trkpt><trkpt lat="39.42136094996809" lon="9.581236365522319"><ele>9.0</ele><time>2026-04-25T14:51:16Z</time></trkpt><trkpt lat="39.421424546854325" lon="9.5812839043371"><ele>8.6</ele><time>2026-04-25T14:51:19Z</time></trkpt><trkpt lat="39.421495221611565" lon="9.581335113562536"><ele>8.2</ele><time>2026-04-25T14:51:22Z</time></trkpt><trkpt lat="39.42156599453801" lon="9.58139637855259"><ele>7.799999999999999</ele><time>2026-04-25T14:51:24Z</time></trkpt><trkpt lat="39.42164286942127" lon="9.581200288522522"><ele>7.3999999999999995</ele><time>2026-04-25T14:51:26Z</time></trkpt><trkpt lat="39.42166321529073" lon="9.581096745089244"><ele>7.0</ele><time>2026-04-25T14:51:27Z</time></trkpt><trkpt lat="39.42169772393876" lon="9.580992298130694"><ele>7.0</ele><time>2026-04-25T14:51:28Z</time></trkpt><trkpt lat="39.42173253149797" lon="9.580880366721924"><ele>6.999999999999999</ele><time>2026-04-25T14:51:29Z</time></trkpt><trkpt lat="39.421768730034124" lon="9.580767019326053"><ele>6.999999999999999</ele><time>2026-04-25T14:51:30Z</time></trkpt><trkpt lat="39.421806885925555" lon="9.58064295823905"><ele>7.0</ele><time>2026-04-25T14:51:31Z</time></trkpt><trkpt lat="39.42184465151355" lon="9.580511276992787"><ele>7.0</ele><time>2026-04-25T14:51:32Z</time></trkpt><trkpt lat="39.42187885311002" lon="9.580371904572582"><ele>7.0</ele><time>2026-04-25T14:51:33Z</time></trkpt><trkpt lat="39.421903772116885" lon="9.580233876320037"><ele>6.999999999999999</ele><time>2026-04-25T14:51:34Z</time></trkpt><trkpt lat="39.42192669210099" lon="9.580101624285703"><ele>6.999999999999999</ele><time>2026-04-25T14:51:35Z</time></trkpt><trkpt lat="39.42194698881552" lon="9.579974507900905"><ele>7.0</ele><time>2026-04-25T14:51:36Z</time></trkpt><trkpt lat="39.421967212813655" lon="9.579851055973908"><ele>7.0</ele><time>2026-04-25T14:51:37Z</time></trkpt><trkpt lat="39.421986520776755" lon="9.579727285399644"><ele>7.0</ele><time>2026-04-25T14:51:38Z</time></trkpt><trkpt lat="39.42200678054501" lon="9.579600141591602"><ele>6.999999999999999</ele><time>2026-04-25T14:51:39Z</time></trkpt><trkpt lat="39.42202740640656" lon="9.5794689999413"><ele>6.999999999999999</ele><time>2026-04-25T14:51:40Z</time></trkpt><trkpt lat="39.42204999479878" lon="9.579335670537803"><ele>7.0</ele><time>2026-04-25T14:51:41Z</time></trkpt><trkpt lat="39.4220737522355" lon="9.57920111574523"><ele>7.0</ele><time>2026-04-25T14:51:42Z</time></trkpt><trkpt lat="39.42209313042851" lon="9.57906916490835"><ele>7.0</ele><time>2026-04-25T14:51:43Z</time></trkpt><trkpt lat="39.422113899495415" lon="9.578942705448108"><ele>6.999999999999999</ele><time>2026-04-25T14:51:44Z</time></trkpt><trkpt lat="39.42213386093884" lon="9.578820286900832"><ele>6.999999999999999</ele><time>2026-04-25T14:51:45Z</time></trkpt><trkpt lat="39.422151865740474" lon="9.578700203496249"><ele>7.0</ele><time>2026-04-25T14:51:46Z</time></trkpt><trkpt lat="39.42216826801135" lon="9.578587870348775"><ele>7.0</ele><time>2026-04-25T14:51:47Z</time></trkpt><trkpt lat="39.42218346930419" lon="9.578482182942293"><ele>7.0</ele><time>2026-04-25T14:51:48Z</time></trkpt><trkpt lat="39.42219828428757" lon="9.578391759194576"><ele>6.999999999999999</ele><time>2026-04-25T14:51:49Z</time></trkpt><trkpt lat="39.42222552622096" lon="9.578244438484953"><ele>6.999999999999999</ele><time>2026-04-25T14:51:51Z</time></trkpt><trkpt lat="39.422247089138736" lon="9.578107339336439"><ele>7.0</ele><time>2026-04-25T14:51:53Z</time></trkpt><trkpt lat="39.422272812350386" lon="9.577966677321763"><ele>7.0</ele><time>2026-04-25T14:51:55Z</time></trkpt><trkpt lat="39.42228620062044" lon="9.577884213151002"><ele>7.166666666666667</ele><time>2026-04-25T14:51:56Z</time></trkpt><trkpt lat="39.42230264265549" lon="9.577793225625626"><ele>7.333333333333334</ele><time>2026-04-25T14:51:57Z</time></trkpt><trkpt lat="39.42231753443423" lon="9.577695406163004"><ele>7.5</ele><time>2026-04-25T14:51:58Z</time></trkpt><trkpt lat="39.422333635948895" lon="9.577591921552735"><ele>7.666666666666666</ele><time>2026-04-25T14:51:59Z</time></trkpt><trkpt lat="39.422352243168895" lon="9.577480022149487"><ele>7.833333333333333</ele><time>2026-04-25T14:52:00Z</time></trkpt><trkpt lat="39.422375993610075" lon="9.57737235390112"><ele>8.0</ele><time>2026-04-25T14:52:01Z</time></trkpt><trkpt lat="39.42239510303709" lon="9.577255762199057"><ele>7.999999999999999</ele><time>2026-04-25T14:52:02Z</time></trkpt><trkpt lat="39.422413533266095" lon="9.577135847476601"><ele>8.0</ele><time>2026-04-25T14:52:03Z</time></trkpt><trkpt lat="39.42243391211653" lon="9.577019949553591"><ele>8.0</ele><time>2026-04-25T14:52:04Z</time></trkpt><trkpt lat="39.422453763969855" lon="9.5769105326138"><ele>8.0</ele><time>2026-04-25T14:52:05Z</time></trkpt><trkpt lat="39.422473040502915" lon="9.576806541597733"><ele>7.999999999999999</ele><time>2026-04-25T14:52:06Z</time></trkpt><trkpt lat="39.42249600669832" lon="9.576710649675448"><ele>8.0</ele><time>2026-04-25T14:52:07Z</time></trkpt><trkpt lat="39.42251870491058" lon="9.576627245290736"><ele>7.833333333333333</ele><time>2026-04-25T14:52:08Z</time></trkpt><trkpt lat="39.42253766151663" lon="9.57654516915665"><ele>7.666666666666666</ele><time>2026-04-25T14:52:09Z</time></trkpt><trkpt lat="39.42254856882057" lon="9.576459262931206"><ele>7.5</ele><time>2026-04-25T14:52:10Z</time></trkpt><trkpt lat="39.42255909990543" lon="9.576367368535271"><ele>7.333333333333334</ele><time>2026-04-25T14:52:11Z</time></trkpt><trkpt lat="39.422580238991294" lon="9.576267570165053"><ele>7.166666666666667</ele><time>2026-04-25T14:52:12Z</time></trkpt><trkpt lat="39.42261149281485" lon="9.57616009682105"><ele>7.0</ele><time>2026-04-25T14:52:13Z</time></trkpt><trkpt lat="39.422643238505486" lon="9.57604638170306"><ele>7.0</ele><time>2026-04-25T14:52:14Z</time></trkpt><trkpt lat="39.42267346706339" lon="9.57593538005523"><ele>6.999999999999999</ele><time>2026-04-25T14:52:15Z</time></trkpt><trkpt lat="39.422702585659216" lon="9.575825073288991"><ele>6.999999999999999</ele><time>2026-04-25T14:52:16Z</time></trkpt><trkpt lat="39.42272760654231" lon="9.575711230808938"><ele>7.0</ele><time>2026-04-25T14:52:17Z</time></trkpt><trkpt lat="39.422760469139114" lon="9.575596456656394"><ele>7.0</ele><time>2026-04-25T14:52:18Z</time></trkpt><trkpt lat="39.42279415965387" lon="9.575477216905304"><ele>7.199999999999999</ele><time>2026-04-25T14:52:19Z</time></trkpt><trkpt lat="39.422827745741515" lon="9.57535074257063"><ele>7.3999999999999995</ele><time>2026-04-25T14:52:20Z</time></trkpt><trkpt lat="39.422866732980616" lon="9.575223273594226"><ele>7.6000000000000005</ele><time>2026-04-25T14:52:21Z</time></trkpt><trkpt lat="39.42290479893756" lon="9.575090216912708"><ele>7.800000000000001</ele><time>2026-04-25T14:52:22Z</time></trkpt><trkpt lat="39.42293747074123" lon="9.574952895016771"><ele>8.0</ele><time>2026-04-25T14:52:23Z</time></trkpt><trkpt lat="39.42296070370328" lon="9.574811641511216"><ele>8.0</ele><time>2026-04-25T14:52:24Z</time></trkpt><trkpt lat="39.42297149154549" lon="9.574670552480672"><ele>8.0</ele><time>2026-04-25T14:52:25Z</time></trkpt><trkpt lat="39.422968048668615" lon="9.57453697546693"><ele>8.0</ele><time>2026-04-25T14:52:26Z</time></trkpt><trkpt lat="39.422949296397775" lon="9.574410923735254"><ele>8.0</ele><time>2026-04-25T14:52:27Z</time></trkpt><trkpt lat="39.42292318506487" lon="9.574288317155304"><ele>8.0</ele><time>2026-04-25T14:52:28Z</time></trkpt><trkpt lat="39.42289644006657" lon="9.574163343086775"><ele>7.800000000000001</ele><time>2026-04-25T14:52:29Z</time></trkpt><trkpt lat="39.422853935636276" lon="9.574043978065149"><ele>7.6000000000000005</ele><time>2026-04-25T14:52:30Z</time></trkpt><trkpt lat="39.42279584757" lon="9.573935977960778"><ele>7.3999999999999995</ele><time>2026-04-25T14:52:31Z</time></trkpt><trkpt lat="39.42275643796727" lon="9.573837281044058"><ele>7.199999999999999</ele><time>2026-04-25T14:52:32Z</time></trkpt><trkpt lat="39.42271521180961" lon="9.573740433550046"><ele>7.0</ele><time>2026-04-25T14:52:33Z</time></trkpt><trkpt lat="39.42267449488965" lon="9.573647433586443"><ele>7.0</ele><time>2026-04-25T14:52:34Z</time></trkpt><trkpt lat="39.422633329237705" lon="9.57355115243377"><ele>6.999999999999999</ele><time>2026-04-25T14:52:35Z</time></trkpt><trkpt lat="39.42258812543252" lon="9.573448309288986"><ele>6.999999999999999</ele><time>2026-04-25T14:52:36Z</time></trkpt><trkpt lat="39.42254167284015" lon="9.57333943105381"><ele>7.0</ele><time>2026-04-25T14:52:37Z</time></trkpt><trkpt lat="39.42249500890849" lon="9.573235139306245"><ele>7.0</ele><time>2026-04-25T14:52:38Z</time></trkpt><trkpt lat="39.42245055002132" lon="9.573130593145168"><ele>7.0</ele><time>2026-04-25T14:52:39Z</time></trkpt><trkpt lat="39.422404535167246" lon="9.573025856353778"><ele>6.999999999999999</ele><time>2026-04-25T14:52:40Z</time></trkpt><trkpt lat="39.422358704644566" lon="9.572920594603902"><ele>6.999999999999999</ele><time>2026-04-25T14:52:41Z</time></trkpt><trkpt lat="39.42231441138211" lon="9.572815024782031"><ele>7.0</ele><time>2026-04-25T14:52:42Z</time></trkpt><trkpt lat="39.42227034374867" lon="9.572706207642936"><ele>7.0</ele><time>2026-04-25T14:52:43Z</time></trkpt><trkpt lat="39.42222669096613" lon="9.572599469110573"><ele>7.0</ele><time>2026-04-25T14:52:44Z</time></trkpt><trkpt lat="39.422182032644685" lon="9.57250017283237"><ele>6.999999999999999</ele><time>2026-04-25T14:52:45Z</time></trkpt><trkpt lat="39.42213612766881" lon="9.572399729631357"><ele>6.999999999999999</ele><time>2026-04-25T14:52:46Z</time></trkpt><trkpt lat="39.422092336401455" lon="9.572295068451348"><ele>7.0</ele><time>2026-04-25T14:52:47Z</time></trkpt><trkpt lat="39.42204586268669" lon="9.572189396968952"><ele>7.0</ele><time>2026-04-25T14:52:48Z</time></trkpt><trkpt lat="39.42199882350989" lon="9.572084808354298"><ele>7.500000000000001</ele><time>2026-04-25T14:52:49Z</time></trkpt><trkpt lat="39.42195706588919" lon="9.571981839678429"><ele>8.0</ele><time>2026-04-25T14:52:50Z</time></trkpt><trkpt lat="39.42191856050393" lon="9.571886120460135"><ele>8.5</ele><time>2026-04-25T14:52:51Z</time></trkpt><trkpt lat="39.42189223703648" lon="9.571781059589537"><ele>9.0</ele><time>2026-04-25T14:52:52Z</time></trkpt><trkpt lat="39.42187819153375" lon="9.571689570855554"><ele>9.5</ele><time>2026-04-25T14:52:53Z</time></trkpt><trkpt lat="39.42185580226837" lon="9.571555780790352"><ele>10.0</ele><time>2026-04-25T14:52:55Z</time></trkpt><trkpt lat="39.42185735367473" lon="9.571443447504347"><ele>10.0</ele><time>2026-04-25T14:52:57Z</time></trkpt><trkpt lat="39.42185132750058" lon="9.571340856772466"><ele>10.0</ele><time>2026-04-25T14:52:59Z</time></trkpt><trkpt lat="39.42173198948773" lon="9.571309658657626"><ele>10.0</ele><time>2026-04-25T14:53:00Z</time></trkpt><trkpt lat="39.42165085697092" lon="9.571269473384541"><ele>10.0</ele><time>2026-04-25T14:53:02Z</time></trkpt><trkpt lat="39.42156777681484" lon="9.57125140665717"><ele>10.0</ele><time>2026-04-25T14:53:05Z</time></trkpt><trkpt lat="39.42149585114975" lon="9.57125040743907"><ele>10.0</ele><time>2026-04-25T14:53:09Z</time></trkpt><trkpt lat="39.42151242088168" lon="9.571088683743637"><ele>9.666666666666668</ele><time>2026-04-25T14:53:11Z</time></trkpt><trkpt lat="39.42159897291045" lon="9.570997082913566"><ele>9.333333333333334</ele><time>2026-04-25T14:53:13Z</time></trkpt><trkpt lat="39.42167115415086" lon="9.570931467830151"><ele>9.0</ele><time>2026-04-25T14:53:15Z</time></trkpt><trkpt lat="39.42161547714808" lon="9.57088590621987"><ele>8.666666666666666</ele><time>2026-04-25T14:53:16Z</time></trkpt><trkpt lat="39.42169061870911" lon="9.570843834184705"><ele>8.333333333333332</ele><time>2026-04-25T14:53:19Z</time></trkpt><trkpt lat="39.421620472731256" lon="9.570875792602472"><ele>8.0</ele><time>2026-04-25T14:58:34Z</time></trkpt><trkpt lat="39.42164070452806" lon="9.570972279567275"><ele>7.999999999999999</ele><time>2026-04-25T14:58:37Z</time></trkpt><trkpt lat="39.42167948705836" lon="9.570895669859173"><ele>8.0</ele><time>2026-04-25T14:58:40Z</time></trkpt><trkpt lat="39.421641051850486" lon="9.570774678238292"><ele>8.0</ele><time>2026-04-25T14:58:42Z</time></trkpt><trkpt lat="39.4216417846984" lon="9.570679692499379"><ele>8.0</ele><time>2026-04-25T14:58:43Z</time></trkpt><trkpt lat="39.421627111327176" lon="9.570597938397489"><ele>7.999999999999999</ele><time>2026-04-25T14:58:44Z</time></trkpt><trkpt lat="39.42160192277472" lon="9.57049561045239"><ele>8.0</ele><time>2026-04-25T14:58:46Z</time></trkpt><trkpt lat="39.421576077237006" lon="9.570357473732699"><ele>8.4</ele><time>2026-04-25T14:58:49Z</time></trkpt><trkpt lat="39.42158542340477" lon="9.570267663606563"><ele>8.8</ele><time>2026-04-25T14:58:50Z</time></trkpt><trkpt lat="39.421589466923315" lon="9.570172859826036"><ele>9.2</ele><time>2026-04-25T14:58:51Z</time></trkpt><trkpt lat="39.42158382827833" lon="9.570066450039464"><ele>9.6</ele><time>2026-04-25T14:58:52Z</time></trkpt><trkpt lat="39.421576997495876" lon="9.569923278988917"><ele>10.0</ele><time>2026-04-25T14:58:53Z</time></trkpt><trkpt lat="39.42158892162322" lon="9.569766072868775"><ele>10.0</ele><time>2026-04-25T14:58:54Z</time></trkpt><trkpt lat="39.421613714013645" lon="9.569609731397204"><ele>10.0</ele><time>2026-04-25T14:58:55Z</time></trkpt><trkpt lat="39.42162799373908" lon="9.56943049280641"><ele>10.0</ele><time>2026-04-25T14:58:56Z</time></trkpt><trkpt lat="39.42164018035014" lon="9.569246550946586"><ele>10.0</ele><time>2026-04-25T14:58:57Z</time></trkpt><trkpt lat="39.42165160684273" lon="9.569051365699513"><ele>10.333333333333334</ele><time>2026-04-25T14:58:58Z</time></trkpt><trkpt lat="39.42167227667551" lon="9.568859030755727"><ele>10.666666666666666</ele><time>2026-04-25T14:58:59Z</time></trkpt><trkpt lat="39.42169098271" lon="9.568654678374065"><ele>11.0</ele><time>2026-04-25T14:59:00Z</time></trkpt><trkpt lat="39.4217057015364" lon="9.568449312558604"><ele>11.0</ele><time>2026-04-25T14:59:01Z</time></trkpt><trkpt lat="39.42172067327265" lon="9.568250376779615"><ele>11.0</ele><time>2026-04-25T14:59:02Z</time></trkpt><trkpt lat="39.42173725430383" lon="9.56805421835073"><ele>11.0</ele><time>2026-04-25T14:59:03Z</time></trkpt><trkpt lat="39.42175914936821" lon="9.567870596888428"><ele>10.75</ele><time>2026-04-25T14:59:04Z</time></trkpt><trkpt lat="39.42176798795157" lon="9.567679345685498"><ele>10.5</ele><time>2026-04-25T14:59:05Z</time></trkpt><trkpt lat="39.42177200064945" lon="9.567487896899786"><ele>10.25</ele><time>2026-04-25T14:59:06Z</time></trkpt><trkpt lat="39.42178457223117" lon="9.567298925751865"><ele>10.0</ele><time>2026-04-25T14:59:07Z</time></trkpt><trkpt lat="39.42179876692388" lon="9.567110866719716"><ele>9.75</ele><time>2026-04-25T14:59:08Z</time></trkpt><trkpt lat="39.421812209078816" lon="9.566930746291906"><ele>9.5</ele><time>2026-04-25T14:59:09Z</time></trkpt><trkpt lat="39.42182716640595" lon="9.566757490468113"><ele>9.25</ele><time>2026-04-25T14:59:10Z</time></trkpt><trkpt lat="39.421847499202265" lon="9.566591413792462"><ele>9.0</ele><time>2026-04-25T14:59:11Z</time></trkpt><trkpt lat="39.42188501507713" lon="9.566433109698252"><ele>9.0</ele><time>2026-04-25T14:59:12Z</time></trkpt><trkpt lat="39.421939827885296" lon="9.566280903809973"><ele>9.0</ele><time>2026-04-25T14:59:13Z</time></trkpt><trkpt lat="39.422019112280466" lon="9.56614401783686"><ele>9.0</ele><time>2026-04-25T14:59:14Z</time></trkpt><trkpt lat="39.42211937658708" lon="9.56602652813763"><ele>9.0</ele><time>2026-04-25T14:59:15Z</time></trkpt><trkpt lat="39.422234395935355" lon="9.565931803809772"><ele>9.25</ele><time>2026-04-25T14:59:16Z</time></trkpt><trkpt lat="39.422365299857645" lon="9.565869251393513"><ele>9.5</ele><time>2026-04-25T14:59:17Z</time></trkpt><trkpt lat="39.42249210590806" lon="9.565810712040559"><ele>9.75</ele><time>2026-04-25T14:59:18Z</time></trkpt><trkpt lat="39.42261838275863" lon="9.565752657700559"><ele>10.0</ele><time>2026-04-25T14:59:19Z</time></trkpt><trkpt lat="39.42274333503295" lon="9.56569762625352"><ele>10.0</ele><time>2026-04-25T14:59:20Z</time></trkpt><trkpt lat="39.42286121561747" lon="9.565642514798116"><ele>10.0</ele><time>2026-04-25T14:59:21Z</time></trkpt><trkpt lat="39.422971109190684" lon="9.565597669191263"><ele>10.0</ele><time>2026-04-25T14:59:22Z</time></trkpt><trkpt lat="39.42307977588101" lon="9.565557627021292"><ele>10.0</ele><time>2026-04-25T14:59:23Z</time></trkpt><trkpt lat="39.42319042962049" lon="9.565510897942168"><ele>10.25</ele><time>2026-04-25T14:59:24Z</time></trkpt><trkpt lat="39.42330050791268" lon="9.565464431545227"><ele>10.5</ele><time>2026-04-25T14:59:25Z</time></trkpt><trkpt lat="39.423412912988475" lon="9.565417276546802"><ele>10.75</ele><time>2026-04-25T14:59:26Z</time></trkpt><trkpt lat="39.42352772550117" lon="9.565370633907124"><ele>11.0</ele><time>2026-04-25T14:59:27Z</time></trkpt><trkpt lat="39.423643469818394" lon="9.56532401022213"><ele>11.75</ele><time>2026-04-25T14:59:28Z</time></trkpt><trkpt lat="39.423761050717424" lon="9.565277920559689"><ele>12.5</ele><time>2026-04-25T14:59:29Z</time></trkpt><trkpt lat="39.423877275160926" lon="9.565232674033002"><ele>13.25</ele><time>2026-04-25T14:59:30Z</time></trkpt><trkpt lat="39.423991383475766" lon="9.565182732153117"><ele>14.0</ele><time>2026-04-25T14:59:31Z</time></trkpt><trkpt lat="39.42410411893739" lon="9.565136708885383"><ele>14.0</ele><time>2026-04-25T14:59:32Z</time></trkpt><trkpt lat="39.42421470338221" lon="9.565093919790934"><ele>14.0</ele><time>2026-04-25T14:59:33Z</time></trkpt><trkpt lat="39.42432496171826" lon="9.565050724659732"><ele>14.0</ele><time>2026-04-25T14:59:34Z</time></trkpt><trkpt lat="39.42443649075199" lon="9.565006240869984"><ele>14.0</ele><time>2026-04-25T14:59:35Z</time></trkpt><trkpt lat="39.424550009710444" lon="9.564958463582215"><ele>13.5</ele><time>2026-04-25T14:59:36Z</time></trkpt><trkpt lat="39.42466351771298" lon="9.564910025661154"><ele>13.0</ele><time>2026-04-25T14:59:37Z</time></trkpt><trkpt lat="39.424777382879455" lon="9.564862827688874"><ele>12.5</ele><time>2026-04-25T14:59:38Z</time></trkpt><trkpt lat="39.42488901026189" lon="9.564816348513785"><ele>12.0</ele><time>2026-04-25T14:59:39Z</time></trkpt><trkpt lat="39.424995816563055" lon="9.564772193681332"><ele>12.0</ele><time>2026-04-25T14:59:40Z</time></trkpt><trkpt lat="39.42509883704222" lon="9.564732931459915"><ele>12.0</ele><time>2026-04-25T14:59:41Z</time></trkpt><trkpt lat="39.42520300419736" lon="9.564691811294564"><ele>12.0</ele><time>2026-04-25T14:59:42Z</time></trkpt><trkpt lat="39.42531170247559" lon="9.564646278627333"><ele>12.0</ele><time>2026-04-25T14:59:43Z</time></trkpt><trkpt lat="39.425414664070765" lon="9.56459866910402"><ele>12.0</ele><time>2026-04-25T14:59:44Z</time></trkpt><trkpt lat="39.42551054112716" lon="9.564554503118234"><ele>12.285714285714285</ele><time>2026-04-25T14:59:45Z</time></trkpt><trkpt lat="39.425601005353485" lon="9.564517902890803"><ele>12.571428571428571</ele><time>2026-04-25T14:59:46Z</time></trkpt><trkpt lat="39.42568098679657" lon="9.564488471445147"><ele>12.857142857142858</ele><time>2026-04-25T14:59:47Z</time></trkpt><trkpt lat="39.42574916345462" lon="9.564461482305454"><ele>13.142857142857142</ele><time>2026-04-25T14:59:48Z</time></trkpt><trkpt lat="39.4258129494527" lon="9.564434205836546"><ele>13.428571428571429</ele><time>2026-04-25T14:59:49Z</time></trkpt><trkpt lat="39.425875809424916" lon="9.564408394543777"><ele>13.714285714285714</ele><time>2026-04-25T14:59:50Z</time></trkpt><trkpt lat="39.425936842083544" lon="9.564383914288362"><ele>14.0</ele><time>2026-04-25T14:59:51Z</time></trkpt><trkpt lat="39.4259979313764" lon="9.564357783513852"><ele>14.0</ele><time>2026-04-25T14:59:52Z</time></trkpt><trkpt lat="39.42609713696904" lon="9.564311616311203"><ele>13.999999999999998</ele><time>2026-04-25T14:59:54Z</time></trkpt><trkpt lat="39.42618566923766" lon="9.564251994820713"><ele>13.999999999999998</ele><time>2026-04-25T14:59:56Z</time></trkpt><trkpt lat="39.42625010849098" lon="9.564129720374575"><ele>14.0</ele><time>2026-04-25T14:59:58Z</time></trkpt><trkpt lat="39.42625923774869" lon="9.564039995319172"><ele>14.0</ele><time>2026-04-25T14:59:59Z</time></trkpt><trkpt lat="39.42626422169011" lon="9.56394731430317"><ele>14.000000000000002</ele><time>2026-04-25T15:00:00Z</time></trkpt><trkpt lat="39.42626782191076" lon="9.563852547351438"><ele>14.0</ele><time>2026-04-25T15:00:01Z</time></trkpt><trkpt lat="39.42627086227706" lon="9.563748160467883"><ele>14.0</ele><time>2026-04-25T15:00:02Z</time></trkpt><trkpt lat="39.42627382226116" lon="9.563641228298547"><ele>14.0</ele><time>2026-04-25T15:00:03Z</time></trkpt><trkpt lat="39.426286662562966" lon="9.563522480449725"><ele>14.000000000000002</ele><time>2026-04-25T15:00:04Z</time></trkpt><trkpt lat="39.42631848355392" lon="9.563397717474192"><ele>14.0</ele><time>2026-04-25T15:00:05Z</time></trkpt><trkpt lat="39.42637496155368" lon="9.563275261108608"><ele>13.0</ele><time>2026-04-25T15:00:06Z</time></trkpt><trkpt lat="39.42644081308284" lon="9.56315807180925"><ele>11.999999999999998</ele><time>2026-04-25T15:00:07Z</time></trkpt><trkpt lat="39.42651023961087" lon="9.563048905359521"><ele>11.0</ele><time>2026-04-25T15:00:08Z</time></trkpt><trkpt lat="39.42657517709532" lon="9.562945198655168"><ele>10.0</ele><time>2026-04-25T15:00:09Z</time></trkpt><trkpt lat="39.42664044669536" lon="9.562849753035847"><ele>9.0</ele><time>2026-04-25T15:00:10Z</time></trkpt><trkpt lat="39.42670148023891" lon="9.562756238402278"><ele>9.0</ele><time>2026-04-25T15:00:11Z</time></trkpt><trkpt lat="39.42676518395856" lon="9.56266180705951"><ele>9.0</ele><time>2026-04-25T15:00:12Z</time></trkpt><trkpt lat="39.42682773921255" lon="9.562564293955928"><ele>9.0</ele><time>2026-04-25T15:00:13Z</time></trkpt><trkpt lat="39.426889339540686" lon="9.562472955028891"><ele>9.0</ele><time>2026-04-25T15:00:14Z</time></trkpt><trkpt lat="39.426950517498945" lon="9.562382449002106"><ele>9.0</ele><time>2026-04-25T15:00:15Z</time></trkpt><trkpt lat="39.42701136364291" lon="9.562294980535006"><ele>9.0</ele><time>2026-04-25T15:00:16Z</time></trkpt><trkpt lat="39.42707362767628" lon="9.562205236807472"><ele>9.0</ele><time>2026-04-25T15:00:17Z</time></trkpt><trkpt lat="39.427136244740055" lon="9.562111922581025"><ele>9.0</ele><time>2026-04-25T15:00:18Z</time></trkpt><trkpt lat="39.42720029177158" lon="9.562022234126916"><ele>9.0</ele><time>2026-04-25T15:00:19Z</time></trkpt><trkpt lat="39.42726418819647" lon="9.561924746326696"><ele>9.0</ele><time>2026-04-25T15:00:20Z</time></trkpt><trkpt lat="39.427325938947305" lon="9.561830090366303"><ele>9.0</ele><time>2026-04-25T15:00:21Z</time></trkpt><trkpt lat="39.42738903120247" lon="9.561733006178128"><ele>9.0</ele><time>2026-04-25T15:00:22Z</time></trkpt><trkpt lat="39.42745143065085" lon="9.56163715565247"><ele>9.0</ele><time>2026-04-25T15:00:23Z</time></trkpt><trkpt lat="39.42751601545008" lon="9.561540139181917"><ele>9.0</ele><time>2026-04-25T15:00:24Z</time></trkpt><trkpt lat="39.42758125073523" lon="9.561438819850341"><ele>9.0</ele><time>2026-04-25T15:00:25Z</time></trkpt><trkpt lat="39.427656209416526" lon="9.561325042056653"><ele>9.0</ele><time>2026-04-25T15:00:26Z</time></trkpt><trkpt lat="39.427734047610414" lon="9.561207162559853"><ele>9.0</ele><time>2026-04-25T15:00:27Z</time></trkpt><trkpt lat="39.42780648357757" lon="9.561098662246835"><ele>9.0</ele><time>2026-04-25T15:00:28Z</time></trkpt><trkpt lat="39.42787676369599" lon="9.56099318076874"><ele>9.0</ele><time>2026-04-25T15:00:29Z</time></trkpt><trkpt lat="39.42794835204466" lon="9.560883685263688"><ele>9.0</ele><time>2026-04-25T15:00:30Z</time></trkpt><trkpt lat="39.42802047899353" lon="9.56077437355077"><ele>9.0</ele><time>2026-04-25T15:00:31Z</time></trkpt><trkpt lat="39.428093098146185" lon="9.560665846789684"><ele>9.0</ele><time>2026-04-25T15:00:32Z</time></trkpt><trkpt lat="39.42816961485206" lon="9.560554445697552"><ele>9.0</ele><time>2026-04-25T15:00:33Z</time></trkpt><trkpt lat="39.42824538184467" lon="9.560436255058384"><ele>9.0</ele><time>2026-04-25T15:00:34Z</time></trkpt><trkpt lat="39.428322889099505" lon="9.560314859372903"><ele>8.25</ele><time>2026-04-25T15:00:35Z</time></trkpt><trkpt lat="39.42840393826174" lon="9.560190275642059"><ele>7.5</ele><time>2026-04-25T15:00:36Z</time></trkpt><trkpt lat="39.42848847211349" lon="9.560054578212174"><ele>6.75</ele><time>2026-04-25T15:00:37Z</time></trkpt><trkpt lat="39.4285770829437" lon="9.559915374261529"><ele>6.0</ele><time>2026-04-25T15:00:38Z</time></trkpt><trkpt lat="39.428676999228074" lon="9.55976939447438"><ele>6.0</ele><time>2026-04-25T15:00:39Z</time></trkpt><trkpt lat="39.42879003710418" lon="9.559617021675392"><ele>6.0</ele><time>2026-04-25T15:00:40Z</time></trkpt><trkpt lat="39.4289188117986" lon="9.559448622197063"><ele>6.0</ele><time>2026-04-25T15:00:41Z</time></trkpt><trkpt lat="39.429046820932975" lon="9.559261746281203"><ele>6.333333333333334</ele><time>2026-04-25T15:00:42Z</time></trkpt><trkpt lat="39.42916390057436" lon="9.559043426283504"><ele>6.666666666666667</ele><time>2026-04-25T15:00:43Z</time></trkpt><trkpt lat="39.42929390853883" lon="9.55883653384076"><ele>7.0</ele><time>2026-04-25T15:00:44Z</time></trkpt><trkpt lat="39.42942532553188" lon="9.55864052190831"><ele>7.666666666666667</ele><time>2026-04-25T15:00:45Z</time></trkpt><trkpt lat="39.42956768739011" lon="9.558437211488801"><ele>8.333333333333334</ele><time>2026-04-25T15:00:46Z</time></trkpt><trkpt lat="39.42971180561972" lon="9.558210877347534"><ele>9.0</ele><time>2026-04-25T15:00:47Z</time></trkpt><trkpt lat="39.42983783052494" lon="9.557990754107824"><ele>9.333333333333334</ele><time>2026-04-25T15:00:48Z</time></trkpt><trkpt lat="39.42998104310589" lon="9.557792322525954"><ele>9.666666666666668</ele><time>2026-04-25T15:00:49Z</time></trkpt><trkpt lat="39.4301133301989" lon="9.557598331659902"><ele>10.0</ele><time>2026-04-25T15:00:50Z</time></trkpt><trkpt lat="39.4302414048422" lon="9.557405986789043"><ele>10.0</ele><time>2026-04-25T15:00:51Z</time></trkpt><trkpt lat="39.430367662742704" lon="9.557215673623014"><ele>10.0</ele><time>2026-04-25T15:00:52Z</time></trkpt><trkpt lat="39.430493539417746" lon="9.557025544367816"><ele>10.0</ele><time>2026-04-25T15:00:53Z</time></trkpt><trkpt lat="39.43061817691913" lon="9.556838241513626"><ele>9.666666666666668</ele><time>2026-04-25T15:00:54Z</time></trkpt><trkpt lat="39.43074357912834" lon="9.556653232627603"><ele>9.333333333333334</ele><time>2026-04-25T15:00:55Z</time></trkpt><trkpt lat="39.43086902017435" lon="9.55646597268608"><ele>9.0</ele><time>2026-04-25T15:00:56Z</time></trkpt><trkpt lat="39.430991386748175" lon="9.55627782010887"><ele>9.666666666666666</ele><time>2026-04-25T15:00:57Z</time></trkpt><trkpt lat="39.43111165924812" lon="9.556088126424168"><ele>10.333333333333332</ele><time>2026-04-25T15:00:58Z</time></trkpt><trkpt lat="39.431231012334244" lon="9.555900091906496"><ele>11.0</ele><time>2026-04-25T15:00:59Z</time></trkpt><trkpt lat="39.431352974672265" lon="9.555710614955277"><ele>11.0</ele><time>2026-04-25T15:01:00Z</time></trkpt><trkpt lat="39.43147553741037" lon="9.55552041265912"><ele>11.0</ele><time>2026-04-25T15:01:01Z</time></trkpt><trkpt lat="39.43159574122869" lon="9.555331231763562"><ele>11.0</ele><time>2026-04-25T15:01:02Z</time></trkpt><trkpt lat="39.43171747442773" lon="9.55514380639277"><ele>11.333333333333332</ele><time>2026-04-25T15:01:03Z</time></trkpt><trkpt lat="39.43184011347118" lon="9.554965302162504"><ele>11.666666666666666</ele><time>2026-04-25T15:01:04Z</time></trkpt><trkpt lat="39.4319676016766" lon="9.55478702649622"><ele>12.0</ele><time>2026-04-25T15:01:05Z</time></trkpt><trkpt lat="39.432097417650915" lon="9.554614245045398"><ele>12.0</ele><time>2026-04-25T15:01:06Z</time></trkpt><trkpt lat="39.432228209810106" lon="9.554445857712404"><ele>12.0</ele><time>2026-04-25T15:01:07Z</time></trkpt><trkpt lat="39.4323614380165" lon="9.554281850916645"><ele>12.0</ele><time>2026-04-25T15:01:08Z</time></trkpt><trkpt lat="39.43249402181365" lon="9.554119847129272"><ele>12.0</ele><time>2026-04-25T15:01:09Z</time></trkpt><trkpt lat="39.43262508632932" lon="9.553956371772259"><ele>12.0</ele><time>2026-04-25T15:01:10Z</time></trkpt><trkpt lat="39.43275883087038" lon="9.553786167072914"><ele>12.0</ele><time>2026-04-25T15:01:11Z</time></trkpt><trkpt lat="39.432891768217715" lon="9.55362159195486"><ele>12.0</ele><time>2026-04-25T15:01:12Z</time></trkpt><trkpt lat="39.433027471459866" lon="9.553461960653905"><ele>12.0</ele><time>2026-04-25T15:01:13Z</time></trkpt><trkpt lat="39.43315992044961" lon="9.553300036924576"><ele>12.0</ele><time>2026-04-25T15:01:14Z</time></trkpt><trkpt lat="39.433292435815" lon="9.553136959417792"><ele>12.0</ele><time>2026-04-25T15:01:15Z</time></trkpt><trkpt lat="39.43342606891176" lon="9.552975580262142"><ele>12.0</ele><time>2026-04-25T15:01:16Z</time></trkpt><trkpt lat="39.43355956684621" lon="9.552810378074115"><ele>12.0</ele><time>2026-04-25T15:01:17Z</time></trkpt><trkpt lat="39.433688950838295" lon="9.552644495932325"><ele>12.333333333333332</ele><time>2026-04-25T15:01:18Z</time></trkpt><trkpt lat="39.433818550065475" lon="9.552477963736258"><ele>12.666666666666666</ele><time>2026-04-25T15:01:19Z</time></trkpt><trkpt lat="39.43394997059434" lon="9.552315970617107"><ele>13.0</ele><time>2026-04-25T15:01:20Z</time></trkpt><trkpt lat="39.43407903723102" lon="9.552161099155704"><ele>13.0</ele><time>2026-04-25T15:01:21Z</time></trkpt><trkpt lat="39.43420428717756" lon="9.552011431205754"><ele>13.0</ele><time>2026-04-25T15:01:22Z</time></trkpt><trkpt lat="39.4343259830871" lon="9.551864804276672"><ele>13.0</ele><time>2026-04-25T15:01:23Z</time></trkpt><trkpt lat="39.43444217141346" lon="9.551726531827283"><ele>13.0</ele><time>2026-04-25T15:01:24Z</time></trkpt><trkpt lat="39.434555432166285" lon="9.551595370325023"><ele>13.0</ele><time>2026-04-25T15:01:25Z</time></trkpt><trkpt lat="39.43466220582758" lon="9.551474503635683"><ele>13.0</ele><time>2026-04-25T15:01:26Z</time></trkpt><trkpt lat="39.43475389888006" lon="9.551371476009365"><ele>13.0</ele><time>2026-04-25T15:01:27Z</time></trkpt><trkpt lat="39.434829443667084" lon="9.55128238226804"><ele>12.8</ele><time>2026-04-25T15:01:28Z</time></trkpt><trkpt lat="39.434895445994385" lon="9.551209191299012"><ele>12.600000000000001</ele><time>2026-04-25T15:01:29Z</time></trkpt><trkpt lat="39.43500498057423" lon="9.551112558930996"><ele>12.399999999999999</ele><time>2026-04-25T15:01:31Z</time></trkpt><trkpt lat="39.43507085942979" lon="9.551023747267454"><ele>12.2</ele><time>2026-04-25T15:01:32Z</time></trkpt><trkpt lat="39.435149611699636" lon="9.550910060707045"><ele>12.0</ele><time>2026-04-25T15:01:33Z</time></trkpt><trkpt lat="39.43522805248691" lon="9.55078025460411"><ele>12.0</ele><time>2026-04-25T15:01:34Z</time></trkpt><trkpt lat="39.43529319583574" lon="9.550620803046108"><ele>12.0</ele><time>2026-04-25T15:01:35Z</time></trkpt><trkpt lat="39.43534044614295" lon="9.550444125220485"><ele>12.0</ele><time>2026-04-25T15:01:36Z</time></trkpt><trkpt lat="39.43537936773114" lon="9.550249071211695"><ele>12.0</ele><time>2026-04-25T15:01:37Z</time></trkpt><trkpt lat="39.43541644486757" lon="9.550065949553037"><ele>11.666666666666666</ele><time>2026-04-25T15:01:38Z</time></trkpt><trkpt lat="39.43546662435822" lon="9.54989436753796"><ele>11.333333333333332</ele><time>2026-04-25T15:01:39Z</time></trkpt><trkpt lat="39.435507974223846" lon="9.549710858318779"><ele>11.0</ele><time>2026-04-25T15:01:40Z</time></trkpt><trkpt lat="39.43555350571005" lon="9.549508365607462"><ele>11.0</ele><time>2026-04-25T15:01:41Z</time></trkpt><trkpt lat="39.435587171168784" lon="9.549289433735586"><ele>11.0</ele><time>2026-04-25T15:01:42Z</time></trkpt><trkpt lat="39.43564103192082" lon="9.54908147129689"><ele>11.0</ele><time>2026-04-25T15:01:43Z</time></trkpt><trkpt lat="39.43569284509241" lon="9.54886968627897"><ele>11.333333333333332</ele><time>2026-04-25T15:01:44Z</time></trkpt><trkpt lat="39.43574039319924" lon="9.5486527684243"><ele>11.666666666666666</ele><time>2026-04-25T15:01:45Z</time></trkpt><trkpt lat="39.43578858498227" lon="9.548429226902147"><ele>12.0</ele><time>2026-04-25T15:01:46Z</time></trkpt><trkpt lat="39.43583948974069" lon="9.548200357137183"><ele>12.0</ele><time>2026-04-25T15:01:47Z</time></trkpt><trkpt lat="39.435892117796634" lon="9.547969070789604"><ele>12.0</ele><time>2026-04-25T15:01:48Z</time></trkpt><trkpt lat="39.43594470694762" lon="9.547734835692582"><ele>12.0</ele><time>2026-04-25T15:01:49Z</time></trkpt><trkpt lat="39.43599768212966" lon="9.54750160074358"><ele>12.0</ele><time>2026-04-25T15:01:50Z</time></trkpt><trkpt lat="39.4360499232094" lon="9.54727165408663"><ele>12.0</ele><time>2026-04-25T15:01:51Z</time></trkpt><trkpt lat="39.43610093533433" lon="9.547041014042419"><ele>12.0</ele><time>2026-04-25T15:01:52Z</time></trkpt><trkpt lat="39.43614993472154" lon="9.546810097201584"><ele>11.666666666666666</ele><time>2026-04-25T15:01:53Z</time></trkpt><trkpt lat="39.43619901229461" lon="9.546583646966825"><ele>11.333333333333332</ele><time>2026-04-25T15:01:54Z</time></trkpt><trkpt lat="39.43625062339406" lon="9.546358899285167"><ele>11.0</ele><time>2026-04-25T15:01:55Z</time></trkpt><trkpt lat="39.436302469287476" lon="9.546132276863915"><ele>11.333333333333332</ele><time>2026-04-25T15:01:56Z</time></trkpt><trkpt lat="39.43635285658281" lon="9.545901267805117"><ele>11.666666666666666</ele><time>2026-04-25T15:01:57Z</time></trkpt><trkpt lat="39.43640018125111" lon="9.545672168489949"><ele>12.0</ele><time>2026-04-25T15:01:58Z</time></trkpt><trkpt lat="39.436446886146314" lon="9.545445742742558"><ele>12.333333333333332</ele><time>2026-04-25T15:01:59Z</time></trkpt><trkpt lat="39.43648945078581" lon="9.54522443911441"><ele>12.666666666666666</ele><time>2026-04-25T15:02:00Z</time></trkpt><trkpt lat="39.4365247191613" lon="9.545007038696436"><ele>13.0</ele><time>2026-04-25T15:02:01Z</time></trkpt><trkpt lat="39.43654847557118" lon="9.544793588117372"><ele>13.0</ele><time>2026-04-25T15:02:02Z</time></trkpt><trkpt lat="39.436570164311775" lon="9.544585644326935"><ele>13.0</ele><time>2026-04-25T15:02:03Z</time></trkpt><trkpt lat="39.4365910377697" lon="9.544384977766986"><ele>13.0</ele><time>2026-04-25T15:02:04Z</time></trkpt><trkpt lat="39.436609646155475" lon="9.544200610834329"><ele>13.0</ele><time>2026-04-25T15:02:05Z</time></trkpt><trkpt lat="39.436624299618806" lon="9.54404730851191"><ele>13.0</ele><time>2026-04-25T15:02:06Z</time></trkpt><trkpt lat="39.43662988629353" lon="9.54393694320031"><ele>13.0</ele><time>2026-04-25T15:02:07Z</time></trkpt><trkpt lat="39.43665183040141" lon="9.54385524047054"><ele>13.0</ele><time>2026-04-25T15:02:08Z</time></trkpt><trkpt lat="39.43646884326281" lon="9.543781187335052"><ele>13.0</ele><time>2026-04-25T15:02:11Z</time></trkpt><trkpt lat="39.43634850270479" lon="9.543757763485061"><ele>13.0</ele><time>2026-04-25T15:02:13Z</time></trkpt><trkpt lat="39.43624043152585" lon="9.543738772998125"><ele>13.0</ele><time>2026-04-25T15:02:15Z</time></trkpt><trkpt lat="39.43615315958585" lon="9.543725575830727"><ele>13.0</ele><time>2026-04-25T15:02:17Z</time></trkpt><trkpt lat="39.43609010041038" lon="9.543709200833806"><ele>13.0</ele><time>2026-04-25T15:02:20Z</time></trkpt><trkpt lat="39.43597242573344" lon="9.543705296141463"><ele>13.666666666666666</ele><time>2026-04-25T15:02:34Z</time></trkpt><trkpt lat="39.43589034024146" lon="9.543703076069276"><ele>14.333333333333332</ele><time>2026-04-25T15:02:35Z</time></trkpt><trkpt lat="39.43582323796152" lon="9.543693754881465"><ele>15.0</ele><time>2026-04-25T15:02:36Z</time></trkpt><trkpt lat="39.43575000062186" lon="9.543683701244587"><ele>15.666666666666668</ele><time>2026-04-25T15:02:37Z</time></trkpt><trkpt lat="39.435676948223225" lon="9.543675197506142"><ele>16.333333333333336</ele><time>2026-04-25T15:02:38Z</time></trkpt><trkpt lat="39.435610652902696" lon="9.543669666024948"><ele>17.0</ele><time>2026-04-25T15:02:39Z</time></trkpt><trkpt lat="39.435526126575944" lon="9.54364134916787"><ele>16.666666666666668</ele><time>2026-04-25T15:02:41Z</time></trkpt><trkpt lat="39.4354996109329" lon="9.543823655445461"><ele>16.333333333333336</ele><time>2026-04-25T15:02:42Z</time></trkpt><trkpt lat="39.435490614550154" lon="9.54391737833786"><ele>16.0</ele><time>2026-04-25T15:02:43Z</time></trkpt><trkpt lat="39.43547787424847" lon="9.544013556716125"><ele>15.666666666666668</ele><time>2026-04-25T15:02:44Z</time></trkpt><trkpt lat="39.43546143545738" lon="9.5441117846374"><ele>15.333333333333334</ele><time>2026-04-25T15:02:45Z</time></trkpt><trkpt lat="39.435442041607885" lon="9.544212322928214"><ele>15.0</ele><time>2026-04-25T15:02:46Z</time></trkpt><trkpt lat="39.43542282339314" lon="9.544305491805645"><ele>19.0</ele><time>2026-04-25T15:02:47Z</time></trkpt><trkpt lat="39.43541079787478" lon="9.54439031521515"><ele>19.0</ele><time>2026-04-25T15:02:48Z</time></trkpt><trkpt lat="39.43539136934491" lon="9.544524688678813"><ele>19.0</ele><time>2026-04-25T15:02:50Z</time></trkpt></trkseg></trk></gpx>